<?xml version="1.0" encoding="UTF-8" standalone="no" ?>
<gpx xmlns="http://www.topografix.com/GPX/1/1" xmlns:xsi="http://www.w3.org/2001/XMLSchema-instance" xsi:schemaLocation="http://www.topografix.com/GPX/1/1 http://www.topografix.com/GPX/1/1/gpx.xsd" version="1.1" creator="VisuGPX - https://www.visugpx.com">
  <metadata>
    <name>Cyclist Off-Road ? Via del Sale gravel ride</name>
  </metadata>
  <trk>
    <name><![CDATA[Cyclist Off-Road – Via del Sale gravel ride]]></name>
    <trkseg>
      <trkpt lat="43.93805" lon="7.51386">
        <ele>287.14395141602</ele>
        <time>2018-11-07T17:03:04.000Z</time>
      </trkpt>
      <trkpt lat="43.93817" lon="7.51389">
        <ele>287.14395141602</ele>
        <time>2018-11-07T17:03:04.002Z</time>
      </trkpt>
      <trkpt lat="43.93826" lon="7.51395">
        <ele>287.32391357422</ele>
        <time>2018-11-07T17:03:04.006Z</time>
      </trkpt>
      <trkpt lat="43.93834" lon="7.51407">
        <ele>287.80383300781</ele>
        <time>2018-11-07T17:03:04.011Z</time>
      </trkpt>
      <trkpt lat="43.93864" lon="7.51488">
        <ele>293.86221313477</ele>
        <time>2018-11-07T17:03:04.027Z</time>
      </trkpt>
      <trkpt lat="43.93932" lon="7.51654">
        <ele>300.74816894531</ele>
        <time>2018-11-07T17:03:04.065Z</time>
      </trkpt>
      <trkpt lat="43.93938" lon="7.51662">
        <ele>300.77215576172</ele>
        <time>2018-11-07T17:03:04.104Z</time>
      </trkpt>
      <trkpt lat="43.93951" lon="7.51662">
        <ele>298.73989868164</ele>
        <time>2018-11-07T17:03:04.145Z</time>
      </trkpt>
      <trkpt lat="43.93958" lon="7.5166">
        <ele>297.42010498047</ele>
        <time>2018-11-07T17:03:04.188Z</time>
      </trkpt>
      <trkpt lat="43.93958" lon="7.5166">
        <ele>297.36392211914</ele>
        <time>2018-11-07T17:03:04.231Z</time>
      </trkpt>
      <trkpt lat="43.94033" lon="7.5163">
        <ele>290.42538452148</ele>
        <time>2018-11-07T17:03:04.286Z</time>
      </trkpt>
      <trkpt lat="43.94056" lon="7.51623">
        <ele>291.97311401367</ele>
        <time>2018-11-07T17:03:04.345Z</time>
      </trkpt>
      <trkpt lat="43.94073" lon="7.51622">
        <ele>293.14401245117</ele>
        <time>2018-11-07T17:03:04.407Z</time>
      </trkpt>
      <trkpt lat="43.94087" lon="7.51623">
        <ele>294.11584472656</ele>
        <time>2018-11-07T17:03:04.471Z</time>
      </trkpt>
      <trkpt lat="43.94168" lon="7.51636">
        <ele>299.38006591797</ele>
        <time>2018-11-07T17:03:04.548Z</time>
      </trkpt>
      <trkpt lat="43.94225" lon="7.51645">
        <ele>299.7043762207</ele>
        <time>2018-11-07T17:03:04.634Z</time>
      </trkpt>
      <trkpt lat="43.94259" lon="7.51651">
        <ele>298.76602172852</ele>
        <time>2018-11-07T17:03:04.726Z</time>
      </trkpt>
      <trkpt lat="43.94298" lon="7.51663">
        <ele>299.05160522461</ele>
        <time>2018-11-07T17:03:04.824Z</time>
      </trkpt>
      <trkpt lat="43.94382" lon="7.51699">
        <ele>298.51480102539</ele>
        <time>2018-11-07T17:03:04.936Z</time>
      </trkpt>
      <trkpt lat="43.94453" lon="7.51727">
        <ele>298.10430908203</ele>
        <time>2018-11-07T17:03:05.060Z</time>
      </trkpt>
      <trkpt lat="43.94453" lon="7.51727">
        <ele>298.10498046875</ele>
        <time>2018-11-07T17:03:05.184Z</time>
      </trkpt>
      <trkpt lat="43.94526" lon="7.51758">
        <ele>298.37673950195</ele>
        <time>2018-11-07T17:03:05.320Z</time>
      </trkpt>
      <trkpt lat="43.94593" lon="7.51784">
        <ele>298.26400756836</ele>
        <time>2018-11-07T17:03:05.467Z</time>
      </trkpt>
      <trkpt lat="43.94603" lon="7.51792">
        <ele>297.78408813477</ele>
        <time>2018-11-07T17:03:05.616Z</time>
      </trkpt>
      <trkpt lat="43.94627" lon="7.51806">
        <ele>299.13220214844</ele>
        <time>2018-11-07T17:03:05.769Z</time>
      </trkpt>
      <trkpt lat="43.94683" lon="7.51847">
        <ele>303.076171875</ele>
        <time>2018-11-07T17:03:05.932Z</time>
      </trkpt>
      <trkpt lat="43.94723" lon="7.5187">
        <ele>303.97863769531</ele>
        <time>2018-11-07T17:03:06.102Z</time>
      </trkpt>
      <trkpt lat="43.94737" lon="7.51877">
        <ele>304.09686279297</ele>
        <time>2018-11-07T17:03:06.275Z</time>
      </trkpt>
      <trkpt lat="43.94781" lon="7.51889">
        <ele>305.09808349609</ele>
        <time>2018-11-07T17:03:06.455Z</time>
      </trkpt>
      <trkpt lat="43.94812" lon="7.51892">
        <ele>305.25405883789</ele>
        <time>2018-11-07T17:03:06.640Z</time>
      </trkpt>
      <trkpt lat="43.94862" lon="7.51889">
        <ele>307.18591308594</ele>
        <time>2018-11-07T17:03:06.833Z</time>
      </trkpt>
      <trkpt lat="43.94999" lon="7.5187">
        <ele>313.16284179688</ele>
        <time>2018-11-07T17:03:07.048Z</time>
      </trkpt>
      <trkpt lat="43.95092" lon="7.51865">
        <ele>315.79971313477</ele>
        <time>2018-11-07T17:03:07.278Z</time>
      </trkpt>
      <trkpt lat="43.95123" lon="7.5187">
        <ele>316.20120239258</ele>
        <time>2018-11-07T17:03:07.513Z</time>
      </trkpt>
      <trkpt lat="43.95159" lon="7.51883">
        <ele>315.58929443359</ele>
        <time>2018-11-07T17:03:07.754Z</time>
      </trkpt>
      <trkpt lat="43.95214" lon="7.51911">
        <ele>312.91235351562</ele>
        <time>2018-11-07T17:03:08.004Z</time>
      </trkpt>
      <trkpt lat="43.95233" lon="7.51924">
        <ele>311.76034545898</ele>
        <time>2018-11-07T17:03:08.257Z</time>
      </trkpt>
      <trkpt lat="43.95282" lon="7.51958">
        <ele>309.85266113281</ele>
        <time>2018-11-07T17:03:08.519Z</time>
      </trkpt>
      <trkpt lat="43.95337" lon="7.5199">
        <ele>308.37689208984</ele>
        <time>2018-11-07T17:03:08.791Z</time>
      </trkpt>
      <trkpt lat="43.95372" lon="7.52004">
        <ele>308.30010986328</ele>
        <time>2018-11-07T17:03:09.069Z</time>
      </trkpt>
      <trkpt lat="43.95415" lon="7.5201">
        <ele>309.48788452148</ele>
        <time>2018-11-07T17:03:09.353Z</time>
      </trkpt>
      <trkpt lat="43.95439" lon="7.52018">
        <ele>309.87182617188</ele>
        <time>2018-11-07T17:03:09.641Z</time>
      </trkpt>
      <trkpt lat="43.95455" lon="7.52028">
        <ele>309.51013183594</ele>
        <time>2018-11-07T17:03:09.932Z</time>
      </trkpt>
      <trkpt lat="43.9547" lon="7.52042">
        <ele>308.85025024414</ele>
        <time>2018-11-07T17:03:10.226Z</time>
      </trkpt>
      <trkpt lat="43.95483" lon="7.52058">
        <ele>308.04638671875</ele>
        <time>2018-11-07T17:03:10.523Z</time>
      </trkpt>
      <trkpt lat="43.95495" lon="7.52068">
        <ele>307.59045410156</ele>
        <time>2018-11-07T17:03:10.822Z</time>
      </trkpt>
      <trkpt lat="43.95505" lon="7.52072">
        <ele>307.47048950195</ele>
        <time>2018-11-07T17:03:11.123Z</time>
      </trkpt>
      <trkpt lat="43.95524" lon="7.52083">
        <ele>307.05380249023</ele>
        <time>2018-11-07T17:03:11.427Z</time>
      </trkpt>
      <trkpt lat="43.95548" lon="7.52089">
        <ele>308.55380249023</ele>
        <time>2018-11-07T17:03:11.735Z</time>
      </trkpt>
      <trkpt lat="43.95558" lon="7.5209">
        <ele>309.04571533203</ele>
        <time>2018-11-07T17:03:12.045Z</time>
      </trkpt>
      <trkpt lat="43.9556" lon="7.5209">
        <ele>309.11727905273</ele>
        <time>2018-11-07T17:03:12.355Z</time>
      </trkpt>
      <trkpt lat="43.9556" lon="7.5209">
        <ele>309.11737060547</ele>
        <time>2018-11-07T17:03:12.665Z</time>
      </trkpt>
      <trkpt lat="43.95599" lon="7.52091">
        <ele>310.65344238281</ele>
        <time>2018-11-07T17:03:12.981Z</time>
      </trkpt>
      <trkpt lat="43.95666" lon="7.52089">
        <ele>311.27362060547</ele>
        <time>2018-11-07T17:03:13.308Z</time>
      </trkpt>
      <trkpt lat="43.95691" lon="7.52087">
        <ele>311.921875</ele>
        <time>2018-11-07T17:03:13.639Z</time>
      </trkpt>
      <trkpt lat="43.95728" lon="7.52079">
        <ele>313.12063598633</ele>
        <time>2018-11-07T17:03:13.976Z</time>
      </trkpt>
      <trkpt lat="43.9575" lon="7.52076">
        <ele>313.81652832031</ele>
        <time>2018-11-07T17:03:14.316Z</time>
      </trkpt>
      <trkpt lat="43.95763" lon="7.52077">
        <ele>313.82852172852</ele>
        <time>2018-11-07T17:03:14.658Z</time>
      </trkpt>
      <trkpt lat="43.95781" lon="7.52082">
        <ele>314.06799316406</ele>
        <time>2018-11-07T17:03:15.003Z</time>
      </trkpt>
      <trkpt lat="43.95804" lon="7.52096">
        <ele>314.72930908203</ele>
        <time>2018-11-07T17:03:15.352Z</time>
      </trkpt>
      <trkpt lat="43.95915" lon="7.52185">
        <ele>315.69671630859</ele>
        <time>2018-11-07T17:03:15.722Z</time>
      </trkpt>
      <trkpt lat="43.95952" lon="7.52217">
        <ele>316.80126953125</ele>
        <time>2018-11-07T17:03:16.099Z</time>
      </trkpt>
      <trkpt lat="43.95978" lon="7.52232">
        <ele>316.44134521484</ele>
        <time>2018-11-07T17:03:16.480Z</time>
      </trkpt>
      <trkpt lat="43.96116" lon="7.52282">
        <ele>323.90908813477</ele>
        <time>2018-11-07T17:03:16.884Z</time>
      </trkpt>
      <trkpt lat="43.96127" lon="7.52283">
        <ele>323.39315795898</ele>
        <time>2018-11-07T17:03:17.290Z</time>
      </trkpt>
      <trkpt lat="43.96143" lon="7.52291">
        <ele>321.857421875</ele>
        <time>2018-11-07T17:03:17.699Z</time>
      </trkpt>
      <trkpt lat="43.96171" lon="7.52302">
        <ele>322.1940612793</ele>
        <time>2018-11-07T17:03:18.112Z</time>
      </trkpt>
      <trkpt lat="43.96218" lon="7.52327">
        <ele>320.25473022461</ele>
        <time>2018-11-07T17:03:18.533Z</time>
      </trkpt>
      <trkpt lat="43.96285" lon="7.52368">
        <ele>322.89401245117</ele>
        <time>2018-11-07T17:03:18.966Z</time>
      </trkpt>
      <trkpt lat="43.96357" lon="7.52413">
        <ele>322.73922729492</ele>
        <time>2018-11-07T17:03:19.412Z</time>
      </trkpt>
      <trkpt lat="43.96418" lon="7.52448">
        <ele>324.79727172852</ele>
        <time>2018-11-07T17:03:19.868Z</time>
      </trkpt>
      <trkpt lat="43.96485" lon="7.52484">
        <ele>326.13244628906</ele>
        <time>2018-11-07T17:03:20.336Z</time>
      </trkpt>
      <trkpt lat="43.96508" lon="7.52499">
        <ele>325.98846435547</ele>
        <time>2018-11-07T17:03:20.808Z</time>
      </trkpt>
      <trkpt lat="43.96511" lon="7.52501">
        <ele>325.98114013672</ele>
        <time>2018-11-07T17:03:21.280Z</time>
      </trkpt>
      <trkpt lat="43.96532" lon="7.5252">
        <ele>326.98394775391</ele>
        <time>2018-11-07T17:03:21.757Z</time>
      </trkpt>
      <trkpt lat="43.96578" lon="7.52574">
        <ele>328.44772338867</ele>
        <time>2018-11-07T17:03:22.243Z</time>
      </trkpt>
      <trkpt lat="43.96608" lon="7.52615">
        <ele>330.77709960938</ele>
        <time>2018-11-07T17:03:22.736Z</time>
      </trkpt>
      <trkpt lat="43.96635" lon="7.52662">
        <ele>335.46832275391</ele>
        <time>2018-11-07T17:03:23.236Z</time>
      </trkpt>
      <trkpt lat="43.96671" lon="7.52736">
        <ele>330.47174072266</ele>
        <time>2018-11-07T17:03:23.746Z</time>
      </trkpt>
      <trkpt lat="43.96699" lon="7.52784">
        <ele>330.48977661133</ele>
        <time>2018-11-07T17:03:24.263Z</time>
      </trkpt>
      <trkpt lat="43.96757" lon="7.52884">
        <ele>328.35043334961</ele>
        <time>2018-11-07T17:03:24.795Z</time>
      </trkpt>
      <trkpt lat="43.96793" lon="7.52961">
        <ele>328.96240234375</ele>
        <time>2018-11-07T17:03:25.338Z</time>
      </trkpt>
      <trkpt lat="43.96809" lon="7.52995">
        <ele>332.15386962891</ele>
        <time>2018-11-07T17:03:25.885Z</time>
      </trkpt>
      <trkpt lat="43.96828" lon="7.53027">
        <ele>332.58163452148</ele>
        <time>2018-11-07T17:03:26.437Z</time>
      </trkpt>
      <trkpt lat="43.96859" lon="7.53073">
        <ele>332.98474121094</ele>
        <time>2018-11-07T17:03:26.996Z</time>
      </trkpt>
      <trkpt lat="43.96881" lon="7.53111">
        <ele>335.38354492188</ele>
        <time>2018-11-07T17:03:27.561Z</time>
      </trkpt>
      <trkpt lat="43.96895" lon="7.5314">
        <ele>337.57916259766</ele>
        <time>2018-11-07T17:03:28.130Z</time>
      </trkpt>
      <trkpt lat="43.96912" lon="7.5319">
        <ele>337.96194458008</ele>
        <time>2018-11-07T17:03:28.706Z</time>
      </trkpt>
      <trkpt lat="43.96935" lon="7.53302">
        <ele>333.82766723633</ele>
        <time>2018-11-07T17:03:29.295Z</time>
      </trkpt>
      <trkpt lat="43.96955" lon="7.53409">
        <ele>335.98037719727</ele>
        <time>2018-11-07T17:03:29.897Z</time>
      </trkpt>
      <trkpt lat="43.96966" lon="7.53458">
        <ele>337.82727050781</ele>
        <time>2018-11-07T17:03:30.505Z</time>
      </trkpt>
      <trkpt lat="43.96974" lon="7.53486">
        <ele>340.41885375977</ele>
        <time>2018-11-07T17:03:31.116Z</time>
      </trkpt>
      <trkpt lat="43.97" lon="7.53567">
        <ele>339.29904174805</ele>
        <time>2018-11-07T17:03:31.737Z</time>
      </trkpt>
      <trkpt lat="43.97012" lon="7.53599">
        <ele>340.14144897461</ele>
        <time>2018-11-07T17:03:32.363Z</time>
      </trkpt>
      <trkpt lat="43.97014" lon="7.5361">
        <ele>339.63754272461</ele>
        <time>2018-11-07T17:03:32.990Z</time>
      </trkpt>
      <trkpt lat="43.97022" lon="7.53635">
        <ele>338.07778930664</ele>
        <time>2018-11-07T17:03:33.620Z</time>
      </trkpt>
      <trkpt lat="43.97039" lon="7.53677">
        <ele>338.72891235352</ele>
        <time>2018-11-07T17:03:34.256Z</time>
      </trkpt>
      <trkpt lat="43.97055" lon="7.53708">
        <ele>339.56210327148</ele>
        <time>2018-11-07T17:03:34.896Z</time>
      </trkpt>
      <trkpt lat="43.97076" lon="7.53743">
        <ele>341.57775878906</ele>
        <time>2018-11-07T17:03:35.541Z</time>
      </trkpt>
      <trkpt lat="43.97092" lon="7.53766">
        <ele>341.13885498047</ele>
        <time>2018-11-07T17:03:36.190Z</time>
      </trkpt>
      <trkpt lat="43.9711" lon="7.53789">
        <ele>340.41693115234</ele>
        <time>2018-11-07T17:03:36.843Z</time>
      </trkpt>
      <trkpt lat="43.97128" lon="7.53807">
        <ele>344.30429077148</ele>
        <time>2018-11-07T17:03:37.499Z</time>
      </trkpt>
      <trkpt lat="43.97146" lon="7.5382">
        <ele>348.61157226562</ele>
        <time>2018-11-07T17:03:38.159Z</time>
      </trkpt>
      <trkpt lat="43.97179" lon="7.5384">
        <ele>355.74841308594</ele>
        <time>2018-11-07T17:03:38.824Z</time>
      </trkpt>
      <trkpt lat="43.97186" lon="7.5384">
        <ele>357.84808349609</ele>
        <time>2018-11-07T17:03:39.491Z</time>
      </trkpt>
      <trkpt lat="43.97191" lon="7.53847">
        <ele>357.50012207031</ele>
        <time>2018-11-07T17:03:40.159Z</time>
      </trkpt>
      <trkpt lat="43.97203" lon="7.53859">
        <ele>355.67041015625</ele>
        <time>2018-11-07T17:03:40.829Z</time>
      </trkpt>
      <trkpt lat="43.9722" lon="7.53869">
        <ele>354.86654663086</ele>
        <time>2018-11-07T17:03:41.502Z</time>
      </trkpt>
      <trkpt lat="43.97243" lon="7.53873">
        <ele>356.29431152344</ele>
        <time>2018-11-07T17:03:42.179Z</time>
      </trkpt>
      <trkpt lat="43.97254" lon="7.53871">
        <ele>358.01000976562</ele>
        <time>2018-11-07T17:03:42.857Z</time>
      </trkpt>
      <trkpt lat="43.97287" lon="7.53883">
        <ele>358.40594482422</ele>
        <time>2018-11-07T17:03:43.541Z</time>
      </trkpt>
      <trkpt lat="43.97348" lon="7.53908">
        <ele>358.39395141602</ele>
        <time>2018-11-07T17:03:44.235Z</time>
      </trkpt>
      <trkpt lat="43.97411" lon="7.53948">
        <ele>356.32409667969</ele>
        <time>2018-11-07T17:03:44.940Z</time>
      </trkpt>
      <trkpt lat="43.97456" lon="7.53978">
        <ele>353.98760986328</ele>
        <time>2018-11-07T17:03:45.653Z</time>
      </trkpt>
      <trkpt lat="43.97474" lon="7.53992">
        <ele>352.11590576172</ele>
        <time>2018-11-07T17:03:46.370Z</time>
      </trkpt>
      <trkpt lat="43.97512" lon="7.54029">
        <ele>353.3708190918</ele>
        <time>2018-11-07T17:03:47.094Z</time>
      </trkpt>
      <trkpt lat="43.97575" lon="7.54114">
        <ele>376.01956176758</ele>
        <time>2018-11-07T17:03:47.832Z</time>
      </trkpt>
      <trkpt lat="43.97637" lon="7.542">
        <ele>427.95416259766</ele>
        <time>2018-11-07T17:03:48.584Z</time>
      </trkpt>
      <trkpt lat="43.97716" lon="7.54297">
        <ele>460.0485534668</ele>
        <time>2018-11-07T17:03:49.353Z</time>
      </trkpt>
      <trkpt lat="43.97786" lon="7.5437">
        <ele>466.6552734375</ele>
        <time>2018-11-07T17:03:50.136Z</time>
      </trkpt>
      <trkpt lat="43.9782" lon="7.54397">
        <ele>464.99954223633</ele>
        <time>2018-11-07T17:03:50.925Z</time>
      </trkpt>
      <trkpt lat="43.97887" lon="7.5444">
        <ele>452.64031982422</ele>
        <time>2018-11-07T17:03:51.726Z</time>
      </trkpt>
      <trkpt lat="43.97912" lon="7.54454">
        <ele>444.34970092773</ele>
        <time>2018-11-07T17:03:52.531Z</time>
      </trkpt>
      <trkpt lat="43.97961" lon="7.54474">
        <ele>422.39373779297</ele>
        <time>2018-11-07T17:03:53.345Z</time>
      </trkpt>
      <trkpt lat="43.98048" lon="7.54502">
        <ele>386.80447387695</ele>
        <time>2018-11-07T17:03:54.173Z</time>
      </trkpt>
      <trkpt lat="43.98067" lon="7.54506">
        <ele>382.32919311523</ele>
        <time>2018-11-07T17:03:55.004Z</time>
      </trkpt>
      <trkpt lat="43.98097" lon="7.54517">
        <ele>376.16223144531</ele>
        <time>2018-11-07T17:03:55.840Z</time>
      </trkpt>
      <trkpt lat="43.98115" lon="7.54527">
        <ele>372.44650268555</ele>
        <time>2018-11-07T17:03:56.679Z</time>
      </trkpt>
      <trkpt lat="43.98159" lon="7.5455">
        <ele>361.4091796875</ele>
        <time>2018-11-07T17:03:57.526Z</time>
      </trkpt>
      <trkpt lat="43.98201" lon="7.54575">
        <ele>361.06112670898</ele>
        <time>2018-11-07T17:03:58.380Z</time>
      </trkpt>
      <trkpt lat="43.98224" lon="7.54586">
        <ele>365.08358764648</ele>
        <time>2018-11-07T17:03:59.238Z</time>
      </trkpt>
      <trkpt lat="43.98242" lon="7.5459">
        <ele>370.50668334961</ele>
        <time>2018-11-07T17:04:00.099Z</time>
      </trkpt>
      <trkpt lat="43.98261" lon="7.54593">
        <ele>376.28970336914</ele>
        <time>2018-11-07T17:04:00.963Z</time>
      </trkpt>
      <trkpt lat="43.98278" lon="7.54592">
        <ele>380.46472167969</ele>
        <time>2018-11-07T17:04:01.829Z</time>
      </trkpt>
      <trkpt lat="43.98293" lon="7.54595">
        <ele>382.87777709961</ele>
        <time>2018-11-07T17:04:02.698Z</time>
      </trkpt>
      <trkpt lat="43.98475" lon="7.54621">
        <ele>458.73104858398</ele>
        <time>2018-11-07T17:04:03.596Z</time>
      </trkpt>
      <trkpt lat="43.98531" lon="7.54632">
        <ele>476.20611572266</ele>
        <time>2018-11-07T17:04:04.503Z</time>
      </trkpt>
      <trkpt lat="43.98596" lon="7.54651">
        <ele>452.61685180664</ele>
        <time>2018-11-07T17:04:05.421Z</time>
      </trkpt>
      <trkpt lat="43.98649" lon="7.54668">
        <ele>415.08340454102</ele>
        <time>2018-11-07T17:04:06.347Z</time>
      </trkpt>
      <trkpt lat="43.98651" lon="7.54669">
        <ele>414.13241577148</ele>
        <time>2018-11-07T17:04:07.274Z</time>
      </trkpt>
      <trkpt lat="43.98651" lon="7.54669">
        <ele>414.13168334961</ele>
        <time>2018-11-07T17:04:08.201Z</time>
      </trkpt>
      <trkpt lat="43.98695" lon="7.54685">
        <ele>391.13955688477</ele>
        <time>2018-11-07T17:04:09.135Z</time>
      </trkpt>
      <trkpt lat="43.98734" lon="7.54706">
        <ele>384.98223876953</ele>
        <time>2018-11-07T17:04:10.076Z</time>
      </trkpt>
      <trkpt lat="43.98757" lon="7.54722">
        <ele>383.50646972656</ele>
        <time>2018-11-07T17:04:11.021Z</time>
      </trkpt>
      <trkpt lat="43.98779" lon="7.54734">
        <ele>382.82165527344</ele>
        <time>2018-11-07T17:04:11.970Z</time>
      </trkpt>
      <trkpt lat="43.98803" lon="7.54739">
        <ele>384.40539550781</ele>
        <time>2018-11-07T17:04:12.923Z</time>
      </trkpt>
      <trkpt lat="43.98866" lon="7.54743">
        <ele>389.78344726562</ele>
        <time>2018-11-07T17:04:13.886Z</time>
      </trkpt>
      <trkpt lat="43.98909" lon="7.54744">
        <ele>394.83462524414</ele>
        <time>2018-11-07T17:04:14.856Z</time>
      </trkpt>
      <trkpt lat="43.98928" lon="7.54742">
        <ele>397.33020019531</ele>
        <time>2018-11-07T17:04:15.829Z</time>
      </trkpt>
      <trkpt lat="43.98945" lon="7.54735">
        <ele>404.52502441406</ele>
        <time>2018-11-07T17:04:16.804Z</time>
      </trkpt>
      <trkpt lat="43.98972" lon="7.54718">
        <ele>419.63049316406</ele>
        <time>2018-11-07T17:04:17.784Z</time>
      </trkpt>
      <trkpt lat="43.9899" lon="7.54706">
        <ele>427.53692626953</ele>
        <time>2018-11-07T17:04:18.767Z</time>
      </trkpt>
      <trkpt lat="43.99016" lon="7.54683">
        <ele>432.55209350586</ele>
        <time>2018-11-07T17:04:19.755Z</time>
      </trkpt>
      <trkpt lat="43.99025" lon="7.54674">
        <ele>434.37411499023</ele>
        <time>2018-11-07T17:04:20.745Z</time>
      </trkpt>
      <trkpt lat="43.99045" lon="7.54662">
        <ele>434.70056152344</ele>
        <time>2018-11-07T17:04:21.739Z</time>
      </trkpt>
      <trkpt lat="43.99056" lon="7.54658">
        <ele>434.97653198242</ele>
        <time>2018-11-07T17:04:22.734Z</time>
      </trkpt>
      <trkpt lat="43.99066" lon="7.54657">
        <ele>434.08868408203</ele>
        <time>2018-11-07T17:04:23.731Z</time>
      </trkpt>
      <trkpt lat="43.99086" lon="7.54661">
        <ele>429.7214050293</ele>
        <time>2018-11-07T17:04:24.731Z</time>
      </trkpt>
      <trkpt lat="43.99152" lon="7.54696">
        <ele>413.53826904297</ele>
        <time>2018-11-07T17:04:25.743Z</time>
      </trkpt>
      <trkpt lat="43.99176" lon="7.54713">
        <ele>407.70724487305</ele>
        <time>2018-11-07T17:04:26.759Z</time>
      </trkpt>
      <trkpt lat="43.99195" lon="7.54726">
        <ele>403.99276733398</ele>
        <time>2018-11-07T17:04:27.778Z</time>
      </trkpt>
      <trkpt lat="43.99214" lon="7.54734">
        <ele>404.55667114258</ele>
        <time>2018-11-07T17:04:28.800Z</time>
      </trkpt>
      <trkpt lat="43.99237" lon="7.54738">
        <ele>405.64849853516</ele>
        <time>2018-11-07T17:04:29.826Z</time>
      </trkpt>
      <trkpt lat="43.99252" lon="7.54744">
        <ele>406.11642456055</ele>
        <time>2018-11-07T17:04:30.855Z</time>
      </trkpt>
      <trkpt lat="43.99271" lon="7.54755">
        <ele>408.47589111328</ele>
        <time>2018-11-07T17:04:31.887Z</time>
      </trkpt>
      <trkpt lat="43.99285" lon="7.54769">
        <ele>409.93685913086</ele>
        <time>2018-11-07T17:04:32.922Z</time>
      </trkpt>
      <trkpt lat="43.99304" lon="7.54794">
        <ele>411.70056152344</ele>
        <time>2018-11-07T17:04:33.961Z</time>
      </trkpt>
      <trkpt lat="43.99321" lon="7.54825">
        <ele>416.79971313477</ele>
        <time>2018-11-07T17:04:35.004Z</time>
      </trkpt>
      <trkpt lat="43.99356" lon="7.54894">
        <ele>417.20343017578</ele>
        <time>2018-11-07T17:04:36.057Z</time>
      </trkpt>
      <trkpt lat="43.99398" lon="7.54946">
        <ele>414.25073242188</ele>
        <time>2018-11-07T17:04:37.119Z</time>
      </trkpt>
      <trkpt lat="43.99423" lon="7.54972">
        <ele>409.71548461914</ele>
        <time>2018-11-07T17:04:38.186Z</time>
      </trkpt>
      <trkpt lat="43.99434" lon="7.54978">
        <ele>407.91577148438</ele>
        <time>2018-11-07T17:04:39.255Z</time>
      </trkpt>
      <trkpt lat="43.99443" lon="7.54979">
        <ele>406.87084960938</ele>
        <time>2018-11-07T17:04:40.325Z</time>
      </trkpt>
      <trkpt lat="43.99553" lon="7.54964">
        <ele>417.52645874023</ele>
        <time>2018-11-07T17:04:41.413Z</time>
      </trkpt>
      <trkpt lat="43.99601" lon="7.54966">
        <ele>421.73471069336</ele>
        <time>2018-11-07T17:04:42.509Z</time>
      </trkpt>
      <trkpt lat="43.99633" lon="7.5497">
        <ele>422.51315307617</ele>
        <time>2018-11-07T17:04:43.610Z</time>
      </trkpt>
      <trkpt lat="43.99638" lon="7.54974">
        <ele>421.44534301758</ele>
        <time>2018-11-07T17:04:44.712Z</time>
      </trkpt>
      <trkpt lat="43.99647" lon="7.54975">
        <ele>421.45733642578</ele>
        <time>2018-11-07T17:04:45.815Z</time>
      </trkpt>
      <trkpt lat="43.99718" lon="7.54998">
        <ele>419.63372802734</ele>
        <time>2018-11-07T17:04:46.930Z</time>
      </trkpt>
      <trkpt lat="43.99762" lon="7.55013">
        <ele>422.56771850586</ele>
        <time>2018-11-07T17:04:48.052Z</time>
      </trkpt>
      <trkpt lat="43.99792" lon="7.55026">
        <ele>422.78115844727</ele>
        <time>2018-11-07T17:04:49.179Z</time>
      </trkpt>
      <trkpt lat="43.99802" lon="7.55029">
        <ele>422.32525634766</ele>
        <time>2018-11-07T17:04:50.308Z</time>
      </trkpt>
      <trkpt lat="43.99858" lon="7.55064">
        <ele>425.85147094727</ele>
        <time>2018-11-07T17:04:51.447Z</time>
      </trkpt>
      <trkpt lat="43.99897" lon="7.55088">
        <ele>422.3928527832</ele>
        <time>2018-11-07T17:04:52.593Z</time>
      </trkpt>
      <trkpt lat="43.99914" lon="7.55104">
        <ele>422.35684204102</ele>
        <time>2018-11-07T17:04:53.742Z</time>
      </trkpt>
      <trkpt lat="43.99932" lon="7.55133">
        <ele>420.29318237305</ele>
        <time>2018-11-07T17:04:54.895Z</time>
      </trkpt>
      <trkpt lat="43.99956" lon="7.55161">
        <ele>419.84887695312</ele>
        <time>2018-11-07T17:04:56.053Z</time>
      </trkpt>
      <trkpt lat="44.00008" lon="7.55205">
        <ele>423.33923339844</ele>
        <time>2018-11-07T17:04:57.221Z</time>
      </trkpt>
      <trkpt lat="44.00067" lon="7.55244">
        <ele>424.51763916016</ele>
        <time>2018-11-07T17:04:58.400Z</time>
      </trkpt>
      <trkpt lat="44.00087" lon="7.55256">
        <ele>424.59222412109</ele>
        <time>2018-11-07T17:04:59.582Z</time>
      </trkpt>
      <trkpt lat="44.00138" lon="7.5528">
        <ele>425.31625366211</ele>
        <time>2018-11-07T17:05:00.773Z</time>
      </trkpt>
      <trkpt lat="44.00191" lon="7.55307">
        <ele>426.81600952148</ele>
        <time>2018-11-07T17:05:01.973Z</time>
      </trkpt>
      <trkpt lat="44.00228" lon="7.55333">
        <ele>424.83483886719</ele>
        <time>2018-11-07T17:05:03.179Z</time>
      </trkpt>
      <trkpt lat="44.00246" lon="7.55344">
        <ele>425.32205200195</ele>
        <time>2018-11-07T17:05:04.388Z</time>
      </trkpt>
      <trkpt lat="44.00287" lon="7.55375">
        <ele>425.98431396484</ele>
        <time>2018-11-07T17:05:05.605Z</time>
      </trkpt>
      <trkpt lat="44.00319" lon="7.55394">
        <ele>425.99630737305</ele>
        <time>2018-11-07T17:05:06.828Z</time>
      </trkpt>
      <trkpt lat="44.00322" lon="7.55395">
        <ele>426.02069091797</ele>
        <time>2018-11-07T17:05:08.051Z</time>
      </trkpt>
      <trkpt lat="44.00322" lon="7.55395">
        <ele>426.02069091797</ele>
        <time>2018-11-07T17:05:09.274Z</time>
      </trkpt>
      <trkpt lat="44.00367" lon="7.55416">
        <ele>426.46133422852</ele>
        <time>2018-11-07T17:05:10.505Z</time>
      </trkpt>
      <trkpt lat="44.00413" lon="7.55434">
        <ele>426.98016357422</ele>
        <time>2018-11-07T17:05:11.743Z</time>
      </trkpt>
      <trkpt lat="44.00617" lon="7.55494">
        <ele>435.62930297852</ele>
        <time>2018-11-07T17:05:13.015Z</time>
      </trkpt>
      <trkpt lat="44.00636" lon="7.55498">
        <ele>435.54531860352</ele>
        <time>2018-11-07T17:05:14.290Z</time>
      </trkpt>
      <trkpt lat="44.00647" lon="7.55495">
        <ele>437.72897338867</ele>
        <time>2018-11-07T17:05:15.566Z</time>
      </trkpt>
      <trkpt lat="44.00667" lon="7.55482">
        <ele>444.86776733398</ele>
        <time>2018-11-07T17:05:16.846Z</time>
      </trkpt>
      <trkpt lat="44.00679" lon="7.55479">
        <ele>448.88836669922</ele>
        <time>2018-11-07T17:05:18.128Z</time>
      </trkpt>
      <trkpt lat="44.00691" lon="7.55479">
        <ele>452.19982910156</ele>
        <time>2018-11-07T17:05:19.412Z</time>
      </trkpt>
      <trkpt lat="44.00714" lon="7.5548">
        <ele>452.07556152344</ele>
        <time>2018-11-07T17:05:20.700Z</time>
      </trkpt>
      <trkpt lat="44.00744" lon="7.55486">
        <ele>448.76412963867</ele>
        <time>2018-11-07T17:05:21.992Z</time>
      </trkpt>
      <trkpt lat="44.00768" lon="7.55492">
        <ele>445.33786010742</ele>
        <time>2018-11-07T17:05:23.288Z</time>
      </trkpt>
      <trkpt lat="44.008" lon="7.55506">
        <ele>444.50433349609</ele>
        <time>2018-11-07T17:05:24.590Z</time>
      </trkpt>
      <trkpt lat="44.00813" lon="7.55514">
        <ele>445.32019042969</ele>
        <time>2018-11-07T17:05:25.894Z</time>
      </trkpt>
      <trkpt lat="44.00855" lon="7.55544">
        <ele>446.75994873047</ele>
        <time>2018-11-07T17:05:27.206Z</time>
      </trkpt>
      <trkpt lat="44.0088" lon="7.55558">
        <ele>448.21160888672</ele>
        <time>2018-11-07T17:05:28.522Z</time>
      </trkpt>
      <trkpt lat="44.00896" lon="7.55566">
        <ele>449.36343383789</ele>
        <time>2018-11-07T17:05:29.841Z</time>
      </trkpt>
      <trkpt lat="44.00927" lon="7.55575">
        <ele>453.46673583984</ele>
        <time>2018-11-07T17:05:31.165Z</time>
      </trkpt>
      <trkpt lat="44.00949" lon="7.55588">
        <ele>455.26489257812</ele>
        <time>2018-11-07T17:05:32.492Z</time>
      </trkpt>
      <trkpt lat="44.00961" lon="7.55602">
        <ele>453.75314331055</ele>
        <time>2018-11-07T17:05:33.822Z</time>
      </trkpt>
      <trkpt lat="44.00969" lon="7.55615">
        <ele>452.2692565918</ele>
        <time>2018-11-07T17:05:35.154Z</time>
      </trkpt>
      <trkpt lat="44.00977" lon="7.55636">
        <ele>450.32556152344</ele>
        <time>2018-11-07T17:05:36.489Z</time>
      </trkpt>
      <trkpt lat="44.01001" lon="7.55683">
        <ele>447.70526123047</ele>
        <time>2018-11-07T17:05:37.830Z</time>
      </trkpt>
      <trkpt lat="44.01023" lon="7.55743">
        <ele>447.12933349609</ele>
        <time>2018-11-07T17:05:39.179Z</time>
      </trkpt>
      <trkpt lat="44.01036" lon="7.55763">
        <ele>448.27243041992</ele>
        <time>2018-11-07T17:05:40.531Z</time>
      </trkpt>
      <trkpt lat="44.01052" lon="7.55777">
        <ele>449.28924560547</ele>
        <time>2018-11-07T17:05:41.886Z</time>
      </trkpt>
      <trkpt lat="44.0107" lon="7.55786">
        <ele>451.23291015625</ele>
        <time>2018-11-07T17:05:43.244Z</time>
      </trkpt>
      <trkpt lat="44.01096" lon="7.55793">
        <ele>454.3283996582</ele>
        <time>2018-11-07T17:05:44.607Z</time>
      </trkpt>
      <trkpt lat="44.01122" lon="7.55794">
        <ele>454.96606445312</ele>
        <time>2018-11-07T17:05:45.974Z</time>
      </trkpt>
      <trkpt lat="44.01141" lon="7.55795">
        <ele>453.55029296875</ele>
        <time>2018-11-07T17:05:47.344Z</time>
      </trkpt>
      <trkpt lat="44.0115" lon="7.558">
        <ele>452.66244506836</ele>
        <time>2018-11-07T17:05:48.715Z</time>
      </trkpt>
      <trkpt lat="44.01157" lon="7.55806">
        <ele>451.87057495117</ele>
        <time>2018-11-07T17:05:50.088Z</time>
      </trkpt>
      <trkpt lat="44.01197" lon="7.55838">
        <ele>448.68618774414</ele>
        <time>2018-11-07T17:05:51.468Z</time>
      </trkpt>
      <trkpt lat="44.01219" lon="7.55856">
        <ele>451.0617980957</ele>
        <time>2018-11-07T17:05:52.852Z</time>
      </trkpt>
      <trkpt lat="44.01229" lon="7.55867">
        <ele>451.3977355957</ele>
        <time>2018-11-07T17:05:54.238Z</time>
      </trkpt>
      <trkpt lat="44.01252" lon="7.55886">
        <ele>453.83331298828</ele>
        <time>2018-11-07T17:05:55.628Z</time>
      </trkpt>
      <trkpt lat="44.0127" lon="7.55899">
        <ele>456.23291015625</ele>
        <time>2018-11-07T17:05:57.022Z</time>
      </trkpt>
      <trkpt lat="44.01287" lon="7.5591">
        <ele>459.68359375</ele>
        <time>2018-11-07T17:05:58.419Z</time>
      </trkpt>
      <trkpt lat="44.013" lon="7.55927">
        <ele>460.11959838867</ele>
        <time>2018-11-07T17:05:59.819Z</time>
      </trkpt>
      <trkpt lat="44.01311" lon="7.55948">
        <ele>458.42788696289</ele>
        <time>2018-11-07T17:06:01.222Z</time>
      </trkpt>
      <trkpt lat="44.01326" lon="7.55978">
        <ele>460.54721069336</ele>
        <time>2018-11-07T17:06:02.629Z</time>
      </trkpt>
      <trkpt lat="44.01347" lon="7.56025">
        <ele>463.53814697266</ele>
        <time>2018-11-07T17:06:04.042Z</time>
      </trkpt>
      <trkpt lat="44.01366" lon="7.56063">
        <ele>464.88034057617</ele>
        <time>2018-11-07T17:06:05.460Z</time>
      </trkpt>
      <trkpt lat="44.01378" lon="7.56093">
        <ele>465.38009643555</ele>
        <time>2018-11-07T17:06:06.882Z</time>
      </trkpt>
      <trkpt lat="44.01388" lon="7.56117">
        <ele>461.33929443359</ele>
        <time>2018-11-07T17:06:08.308Z</time>
      </trkpt>
      <trkpt lat="44.014" lon="7.56132">
        <ele>461.08734130859</ele>
        <time>2018-11-07T17:06:09.736Z</time>
      </trkpt>
      <trkpt lat="44.01424" lon="7.56156">
        <ele>459.07168579102</ele>
        <time>2018-11-07T17:06:11.169Z</time>
      </trkpt>
      <trkpt lat="44.01506" lon="7.56236">
        <ele>467.15704345703</ele>
        <time>2018-11-07T17:06:12.618Z</time>
      </trkpt>
      <trkpt lat="44.01603" lon="7.56328">
        <ele>470.25253295898</ele>
        <time>2018-11-07T17:06:14.086Z</time>
      </trkpt>
      <trkpt lat="44.0163" lon="7.56352">
        <ele>474.0315246582</ele>
        <time>2018-11-07T17:06:15.559Z</time>
      </trkpt>
      <trkpt lat="44.0165" lon="7.56368">
        <ele>477.91885375977</ele>
        <time>2018-11-07T17:06:17.036Z</time>
      </trkpt>
      <trkpt lat="44.01675" lon="7.56378">
        <ele>485.29763793945</ele>
        <time>2018-11-07T17:06:18.517Z</time>
      </trkpt>
      <trkpt lat="44.01687" lon="7.5638">
        <ele>489.544921875</ele>
        <time>2018-11-07T17:06:20.000Z</time>
      </trkpt>
      <trkpt lat="44.01704" lon="7.56389">
        <ele>490.39938354492</ele>
        <time>2018-11-07T17:06:21.486Z</time>
      </trkpt>
      <trkpt lat="44.0173" lon="7.56398">
        <ele>490.62734985352</ele>
        <time>2018-11-07T17:06:22.976Z</time>
      </trkpt>
      <trkpt lat="44.0177" lon="7.56415">
        <ele>490.18341064453</ele>
        <time>2018-11-07T17:06:24.473Z</time>
      </trkpt>
      <trkpt lat="44.01849" lon="7.56447">
        <ele>489.87216186523</ele>
        <time>2018-11-07T17:06:25.983Z</time>
      </trkpt>
      <trkpt lat="44.01893" lon="7.56456">
        <ele>490.79989624023</ele>
        <time>2018-11-07T17:06:27.500Z</time>
      </trkpt>
      <trkpt lat="44.01902" lon="7.5646">
        <ele>490.71136474609</ele>
        <time>2018-11-07T17:06:29.018Z</time>
      </trkpt>
      <trkpt lat="44.01928" lon="7.56467">
        <ele>494.86267089844</ele>
        <time>2018-11-07T17:06:30.541Z</time>
      </trkpt>
      <trkpt lat="44.01991" lon="7.56474">
        <ele>497.46871948242</ele>
        <time>2018-11-07T17:06:32.074Z</time>
      </trkpt>
      <trkpt lat="44.02018" lon="7.56478">
        <ele>497.46835327148</ele>
        <time>2018-11-07T17:06:33.611Z</time>
      </trkpt>
      <trkpt lat="44.02036" lon="7.56487">
        <ele>497.34228515625</ele>
        <time>2018-11-07T17:06:35.151Z</time>
      </trkpt>
      <trkpt lat="44.02051" lon="7.56497">
        <ele>497.58224487305</ele>
        <time>2018-11-07T17:06:36.694Z</time>
      </trkpt>
      <trkpt lat="44.02062" lon="7.56508">
        <ele>497.32302856445</ele>
        <time>2018-11-07T17:06:38.239Z</time>
      </trkpt>
      <trkpt lat="44.02076" lon="7.56528">
        <ele>496.26721191406</ele>
        <time>2018-11-07T17:06:39.787Z</time>
      </trkpt>
      <trkpt lat="44.02091" lon="7.56557">
        <ele>492.95574951172</ele>
        <time>2018-11-07T17:06:41.339Z</time>
      </trkpt>
      <trkpt lat="44.02097" lon="7.56572">
        <ele>490.65213012695</ele>
        <time>2018-11-07T17:06:42.893Z</time>
      </trkpt>
      <trkpt lat="44.02104" lon="7.56598">
        <ele>491.45831298828</ele>
        <time>2018-11-07T17:06:44.451Z</time>
      </trkpt>
      <trkpt lat="44.02109" lon="7.56638">
        <ele>490.48852539062</ele>
        <time>2018-11-07T17:06:46.013Z</time>
      </trkpt>
      <trkpt lat="44.02109" lon="7.5668">
        <ele>491.28485107422</ele>
        <time>2018-11-07T17:06:47.580Z</time>
      </trkpt>
      <trkpt lat="44.02106" lon="7.56706">
        <ele>494.99761962891</ele>
        <time>2018-11-07T17:06:49.150Z</time>
      </trkpt>
      <trkpt lat="44.02094" lon="7.56773">
        <ele>509.10540771484</ele>
        <time>2018-11-07T17:06:50.728Z</time>
      </trkpt>
      <trkpt lat="44.0209" lon="7.56804">
        <ele>513.32867431641</ele>
        <time>2018-11-07T17:06:52.310Z</time>
      </trkpt>
      <trkpt lat="44.02094" lon="7.56833">
        <ele>513.41198730469</ele>
        <time>2018-11-07T17:06:53.895Z</time>
      </trkpt>
      <trkpt lat="44.02106" lon="7.56863">
        <ele>505.16802978516</ele>
        <time>2018-11-07T17:06:55.484Z</time>
      </trkpt>
      <trkpt lat="44.02113" lon="7.56876">
        <ele>503.80334472656</ele>
        <time>2018-11-07T17:06:57.075Z</time>
      </trkpt>
      <trkpt lat="44.02125" lon="7.56887">
        <ele>505.06314086914</ele>
        <time>2018-11-07T17:06:58.668Z</time>
      </trkpt>
      <trkpt lat="44.02135" lon="7.56893">
        <ele>505.99899291992</ele>
        <time>2018-11-07T17:07:00.263Z</time>
      </trkpt>
      <trkpt lat="44.02149" lon="7.56904">
        <ele>507.40274047852</ele>
        <time>2018-11-07T17:07:01.861Z</time>
      </trkpt>
      <trkpt lat="44.02161" lon="7.56915">
        <ele>508.66253662109</ele>
        <time>2018-11-07T17:07:03.461Z</time>
      </trkpt>
      <trkpt lat="44.02181" lon="7.56929">
        <ele>510.07043457031</ele>
        <time>2018-11-07T17:07:05.064Z</time>
      </trkpt>
      <trkpt lat="44.02199" lon="7.56941">
        <ele>510.97216796875</ele>
        <time>2018-11-07T17:07:06.671Z</time>
      </trkpt>
      <trkpt lat="44.02208" lon="7.56952">
        <ele>511.16412353516</ele>
        <time>2018-11-07T17:07:08.280Z</time>
      </trkpt>
      <trkpt lat="44.02221" lon="7.56973">
        <ele>511.38009643555</ele>
        <time>2018-11-07T17:07:09.892Z</time>
      </trkpt>
      <trkpt lat="44.02231" lon="7.56985">
        <ele>511.59606933594</ele>
        <time>2018-11-07T17:07:11.506Z</time>
      </trkpt>
      <trkpt lat="44.02257" lon="7.57008">
        <ele>513.56451416016</ele>
        <time>2018-11-07T17:07:13.125Z</time>
      </trkpt>
      <trkpt lat="44.02281" lon="7.5702">
        <ele>515.17681884766</ele>
        <time>2018-11-07T17:07:14.748Z</time>
      </trkpt>
      <trkpt lat="44.02305" lon="7.57035">
        <ele>512.69323730469</ele>
        <time>2018-11-07T17:07:16.375Z</time>
      </trkpt>
      <trkpt lat="44.02322" lon="7.57043">
        <ele>512.87255859375</ele>
        <time>2018-11-07T17:07:18.005Z</time>
      </trkpt>
      <trkpt lat="44.02342" lon="7.5705">
        <ele>516.36395263672</ele>
        <time>2018-11-07T17:07:19.638Z</time>
      </trkpt>
      <trkpt lat="44.02374" lon="7.57055">
        <ele>522.67761230469</ele>
        <time>2018-11-07T17:07:21.276Z</time>
      </trkpt>
      <trkpt lat="44.02391" lon="7.57064">
        <ele>523.2294921875</ele>
        <time>2018-11-07T17:07:22.917Z</time>
      </trkpt>
      <trkpt lat="44.02405" lon="7.57081">
        <ele>520.57794189453</ele>
        <time>2018-11-07T17:07:24.561Z</time>
      </trkpt>
      <trkpt lat="44.02408" lon="7.57086">
        <ele>519.96234130859</ele>
        <time>2018-11-07T17:07:26.206Z</time>
      </trkpt>
      <trkpt lat="44.02422" lon="7.57107">
        <ele>521.01446533203</ele>
        <time>2018-11-07T17:07:27.854Z</time>
      </trkpt>
      <trkpt lat="44.02439" lon="7.57158">
        <ele>520.19860839844</ele>
        <time>2018-11-07T17:07:29.509Z</time>
      </trkpt>
      <trkpt lat="44.02453" lon="7.57231">
        <ele>538.48529052734</ele>
        <time>2018-11-07T17:07:31.173Z</time>
      </trkpt>
      <trkpt lat="44.02462" lon="7.57262">
        <ele>542.77105712891</ele>
        <time>2018-11-07T17:07:32.840Z</time>
      </trkpt>
      <trkpt lat="44.02474" lon="7.57283">
        <ele>539.35162353516</ele>
        <time>2018-11-07T17:07:34.511Z</time>
      </trkpt>
      <trkpt lat="44.02544" lon="7.57355">
        <ele>527.18383789062</ele>
        <time>2018-11-07T17:07:36.195Z</time>
      </trkpt>
      <trkpt lat="44.02554" lon="7.57365">
        <ele>526.82385253906</ele>
        <time>2018-11-07T17:07:37.881Z</time>
      </trkpt>
      <trkpt lat="44.02591" lon="7.57393">
        <ele>527.72064208984</ele>
        <time>2018-11-07T17:07:39.574Z</time>
      </trkpt>
      <trkpt lat="44.02625" lon="7.57416">
        <ele>529.88647460938</ele>
        <time>2018-11-07T17:07:41.273Z</time>
      </trkpt>
      <trkpt lat="44.02658" lon="7.57442">
        <ele>533.28436279297</ele>
        <time>2018-11-07T17:07:42.978Z</time>
      </trkpt>
      <trkpt lat="44.02676" lon="7.57455">
        <ele>535.62396240234</ele>
        <time>2018-11-07T17:07:44.687Z</time>
      </trkpt>
      <trkpt lat="44.0269" lon="7.57469">
        <ele>536.46380615234</ele>
        <time>2018-11-07T17:07:46.398Z</time>
      </trkpt>
      <trkpt lat="44.0271" lon="7.5749">
        <ele>538.48333740234</ele>
        <time>2018-11-07T17:07:48.113Z</time>
      </trkpt>
      <trkpt lat="44.0274" lon="7.57539">
        <ele>537.74829101562</ele>
        <time>2018-11-07T17:07:49.836Z</time>
      </trkpt>
      <trkpt lat="44.02775" lon="7.57594">
        <ele>542.03015136719</ele>
        <time>2018-11-07T17:07:51.567Z</time>
      </trkpt>
      <trkpt lat="44.02804" lon="7.57636">
        <ele>549.45452880859</ele>
        <time>2018-11-07T17:07:53.305Z</time>
      </trkpt>
      <trkpt lat="44.02844" lon="7.57702">
        <ele>549.22467041016</ele>
        <time>2018-11-07T17:07:55.053Z</time>
      </trkpt>
      <trkpt lat="44.02852" lon="7.57709">
        <ele>547.84484863281</ele>
        <time>2018-11-07T17:07:56.802Z</time>
      </trkpt>
      <trkpt lat="44.02864" lon="7.57715">
        <ele>547.40759277344</ele>
        <time>2018-11-07T17:07:58.553Z</time>
      </trkpt>
      <trkpt lat="44.02876" lon="7.57716">
        <ele>548.97930908203</ele>
        <time>2018-11-07T17:08:00.306Z</time>
      </trkpt>
      <trkpt lat="44.02888" lon="7.57712">
        <ele>551.33093261719</ele>
        <time>2018-11-07T17:08:02.061Z</time>
      </trkpt>
      <trkpt lat="44.02929" lon="7.57686">
        <ele>566.29309082031</ele>
        <time>2018-11-07T17:08:03.824Z</time>
      </trkpt>
      <trkpt lat="44.02953" lon="7.57672">
        <ele>571.32342529297</ele>
        <time>2018-11-07T17:08:05.591Z</time>
      </trkpt>
      <trkpt lat="44.02963" lon="7.5767">
        <ele>569.33178710938</ele>
        <time>2018-11-07T17:08:07.359Z</time>
      </trkpt>
      <trkpt lat="44.02974" lon="7.57671">
        <ele>566.87219238281</ele>
        <time>2018-11-07T17:08:09.129Z</time>
      </trkpt>
      <trkpt lat="44.02981" lon="7.57673">
        <ele>565.19244384766</ele>
        <time>2018-11-07T17:08:10.900Z</time>
      </trkpt>
      <trkpt lat="44.0299" lon="7.57679">
        <ele>562.74487304688</ele>
        <time>2018-11-07T17:08:12.673Z</time>
      </trkpt>
      <trkpt lat="44.03005" lon="7.57693">
        <ele>558.32958984375</ele>
        <time>2018-11-07T17:08:14.449Z</time>
      </trkpt>
      <trkpt lat="44.03018" lon="7.57715">
        <ele>553.67437744141</ele>
        <time>2018-11-07T17:08:16.228Z</time>
      </trkpt>
      <trkpt lat="44.03023" lon="7.57731">
        <ele>551.25079345703</ele>
        <time>2018-11-07T17:08:18.009Z</time>
      </trkpt>
      <trkpt lat="44.03032" lon="7.57783">
        <ele>559.42169189453</ele>
        <time>2018-11-07T17:08:19.796Z</time>
      </trkpt>
      <trkpt lat="44.03039" lon="7.57823">
        <ele>572.54748535156</ele>
        <time>2018-11-07T17:08:21.588Z</time>
      </trkpt>
      <trkpt lat="44.03041" lon="7.57848">
        <ele>580.53405761719</ele>
        <time>2018-11-07T17:08:23.383Z</time>
      </trkpt>
      <trkpt lat="44.03039" lon="7.57891">
        <ele>581.55578613281</ele>
        <time>2018-11-07T17:08:25.183Z</time>
      </trkpt>
      <trkpt lat="44.03032" lon="7.57924">
        <ele>580.95550537109</ele>
        <time>2018-11-07T17:08:26.987Z</time>
      </trkpt>
      <trkpt lat="44.03024" lon="7.57944">
        <ele>580.73095703125</ele>
        <time>2018-11-07T17:08:28.793Z</time>
      </trkpt>
      <trkpt lat="44.03011" lon="7.57967">
        <ele>589.71746826172</ele>
        <time>2018-11-07T17:08:30.603Z</time>
      </trkpt>
      <trkpt lat="44.03002" lon="7.57986">
        <ele>595.37585449219</ele>
        <time>2018-11-07T17:08:32.415Z</time>
      </trkpt>
      <trkpt lat="44.02999" lon="7.58002">
        <ele>596.4580078125</ele>
        <time>2018-11-07T17:08:34.229Z</time>
      </trkpt>
      <trkpt lat="44.02999" lon="7.58026">
        <ele>598.18572998047</ele>
        <time>2018-11-07T17:08:36.046Z</time>
      </trkpt>
      <trkpt lat="44.03004" lon="7.58047">
        <ele>597.35791015625</ele>
        <time>2018-11-07T17:08:37.866Z</time>
      </trkpt>
      <trkpt lat="44.03043" lon="7.58122">
        <ele>589.03625488281</ele>
        <time>2018-11-07T17:08:39.696Z</time>
      </trkpt>
      <trkpt lat="44.03069" lon="7.58171">
        <ele>587.47491455078</ele>
        <time>2018-11-07T17:08:41.533Z</time>
      </trkpt>
      <trkpt lat="44.03085" lon="7.58192">
        <ele>586.875</ele>
        <time>2018-11-07T17:08:43.374Z</time>
      </trkpt>
      <trkpt lat="44.03099" lon="7.58201">
        <ele>585.67517089844</ele>
        <time>2018-11-07T17:08:45.217Z</time>
      </trkpt>
      <trkpt lat="44.03115" lon="7.58205">
        <ele>584.95446777344</ele>
        <time>2018-11-07T17:08:47.063Z</time>
      </trkpt>
      <trkpt lat="44.03134" lon="7.58207">
        <ele>586.01025390625</ele>
        <time>2018-11-07T17:08:48.912Z</time>
      </trkpt>
      <trkpt lat="44.03152" lon="7.58207">
        <ele>587.32476806641</ele>
        <time>2018-11-07T17:08:50.764Z</time>
      </trkpt>
      <trkpt lat="44.03183" lon="7.58207">
        <ele>592.15997314453</ele>
        <time>2018-11-07T17:08:52.621Z</time>
      </trkpt>
      <trkpt lat="44.03196" lon="7.58202">
        <ele>593.91394042969</ele>
        <time>2018-11-07T17:08:54.480Z</time>
      </trkpt>
      <trkpt lat="44.0322" lon="7.58188">
        <ele>593.40374755859</ele>
        <time>2018-11-07T17:08:56.343Z</time>
      </trkpt>
      <trkpt lat="44.03229" lon="7.58178">
        <ele>589.52838134766</ele>
        <time>2018-11-07T17:08:58.208Z</time>
      </trkpt>
      <trkpt lat="44.03241" lon="7.58159">
        <ele>589.60803222656</ele>
        <time>2018-11-07T17:09:00.076Z</time>
      </trkpt>
      <trkpt lat="44.0325" lon="7.58126">
        <ele>598.66790771484</ele>
        <time>2018-11-07T17:09:01.948Z</time>
      </trkpt>
      <trkpt lat="44.03256" lon="7.58091">
        <ele>600.81555175781</ele>
        <time>2018-11-07T17:09:03.824Z</time>
      </trkpt>
      <trkpt lat="44.03264" lon="7.58066">
        <ele>605.25579833984</ele>
        <time>2018-11-07T17:09:05.703Z</time>
      </trkpt>
      <trkpt lat="44.0327" lon="7.58055">
        <ele>605.80767822266</ele>
        <time>2018-11-07T17:09:07.584Z</time>
      </trkpt>
      <trkpt lat="44.03283" lon="7.58035">
        <ele>608.56433105469</ele>
        <time>2018-11-07T17:09:09.468Z</time>
      </trkpt>
      <trkpt lat="44.03303" lon="7.58007">
        <ele>608.96240234375</ele>
        <time>2018-11-07T17:09:11.357Z</time>
      </trkpt>
      <trkpt lat="44.0331" lon="7.58002">
        <ele>605.99890136719</ele>
        <time>2018-11-07T17:09:13.247Z</time>
      </trkpt>
      <trkpt lat="44.03321" lon="7.57998">
        <ele>602.29821777344</ele>
        <time>2018-11-07T17:09:15.139Z</time>
      </trkpt>
      <trkpt lat="44.0334" lon="7.57993">
        <ele>595.41137695312</ele>
        <time>2018-11-07T17:09:17.034Z</time>
      </trkpt>
      <trkpt lat="44.03358" lon="7.57991">
        <ele>589.46551513672</ele>
        <time>2018-11-07T17:09:18.932Z</time>
      </trkpt>
      <trkpt lat="44.03383" lon="7.57994">
        <ele>600.11968994141</ele>
        <time>2018-11-07T17:09:20.834Z</time>
      </trkpt>
      <trkpt lat="44.03398" lon="7.57998">
        <ele>605.43481445312</ele>
        <time>2018-11-07T17:09:22.738Z</time>
      </trkpt>
      <trkpt lat="44.0342" lon="7.58007">
        <ele>614.16802978516</ele>
        <time>2018-11-07T17:09:24.646Z</time>
      </trkpt>
      <trkpt lat="44.03432" lon="7.58013">
        <ele>619.78308105469</ele>
        <time>2018-11-07T17:09:26.556Z</time>
      </trkpt>
      <trkpt lat="44.03451" lon="7.58018">
        <ele>625.65142822266</ele>
        <time>2018-11-07T17:09:28.469Z</time>
      </trkpt>
      <trkpt lat="44.03462" lon="7.58021">
        <ele>626.54254150391</ele>
        <time>2018-11-07T17:09:30.384Z</time>
      </trkpt>
      <trkpt lat="44.03475" lon="7.58027">
        <ele>627.49035644531</ele>
        <time>2018-11-07T17:09:32.301Z</time>
      </trkpt>
      <trkpt lat="44.03484" lon="7.58031">
        <ele>628.17425537109</ele>
        <time>2018-11-07T17:09:34.219Z</time>
      </trkpt>
      <trkpt lat="44.03498" lon="7.58032">
        <ele>630.17791748047</ele>
        <time>2018-11-07T17:09:36.140Z</time>
      </trkpt>
      <trkpt lat="44.03536" lon="7.58022">
        <ele>637.53057861328</ele>
        <time>2018-11-07T17:09:38.067Z</time>
      </trkpt>
      <trkpt lat="44.03576" lon="7.58006">
        <ele>646.85571289062</ele>
        <time>2018-11-07T17:09:40.000Z</time>
      </trkpt>
      <trkpt lat="44.03593" lon="7.58003">
        <ele>650.15521240234</ele>
        <time>2018-11-07T17:09:41.936Z</time>
      </trkpt>
      <trkpt lat="44.03606" lon="7.58005">
        <ele>651.75091552734</ele>
        <time>2018-11-07T17:09:43.874Z</time>
      </trkpt>
      <trkpt lat="44.03636" lon="7.58011">
        <ele>643.85046386719</ele>
        <time>2018-11-07T17:09:45.817Z</time>
      </trkpt>
      <trkpt lat="44.03655" lon="7.58017">
        <ele>637.89947509766</ele>
        <time>2018-11-07T17:09:47.763Z</time>
      </trkpt>
      <trkpt lat="44.03661" lon="7.58022">
        <ele>634.1201171875</ele>
        <time>2018-11-07T17:09:49.710Z</time>
      </trkpt>
      <trkpt lat="44.03669" lon="7.58031">
        <ele>627.65319824219</ele>
        <time>2018-11-07T17:09:51.659Z</time>
      </trkpt>
      <trkpt lat="44.03684" lon="7.58054">
        <ele>611.77978515625</ele>
        <time>2018-11-07T17:09:53.612Z</time>
      </trkpt>
      <trkpt lat="44.03699" lon="7.5811">
        <ele>593.88397216797</ele>
        <time>2018-11-07T17:09:55.572Z</time>
      </trkpt>
      <trkpt lat="44.03708" lon="7.58133">
        <ele>595.49169921875</ele>
        <time>2018-11-07T17:09:57.535Z</time>
      </trkpt>
      <trkpt lat="44.03732" lon="7.58166">
        <ele>597.39935302734</ele>
        <time>2018-11-07T17:09:59.503Z</time>
      </trkpt>
      <trkpt lat="44.03758" lon="7.58188">
        <ele>619.85931396484</ele>
        <time>2018-11-07T17:10:01.476Z</time>
      </trkpt>
      <trkpt lat="44.03781" lon="7.58203">
        <ele>636.68115234375</ele>
        <time>2018-11-07T17:10:03.453Z</time>
      </trkpt>
      <trkpt lat="44.03807" lon="7.58217">
        <ele>652.97442626953</ele>
        <time>2018-11-07T17:10:05.434Z</time>
      </trkpt>
      <trkpt lat="44.0382" lon="7.58219">
        <ele>655.30206298828</ele>
        <time>2018-11-07T17:10:07.417Z</time>
      </trkpt>
      <trkpt lat="44.03857" lon="7.5822">
        <ele>689.97119140625</ele>
        <time>2018-11-07T17:10:09.406Z</time>
      </trkpt>
      <trkpt lat="44.03879" lon="7.58225">
        <ele>693.08673095703</ele>
        <time>2018-11-07T17:10:11.399Z</time>
      </trkpt>
      <trkpt lat="44.03907" lon="7.58238">
        <ele>694.40649414062</ele>
        <time>2018-11-07T17:10:13.397Z</time>
      </trkpt>
      <trkpt lat="44.03955" lon="7.58261">
        <ele>687.12042236328</ele>
        <time>2018-11-07T17:10:15.403Z</time>
      </trkpt>
      <trkpt lat="44.03982" lon="7.5828">
        <ele>669.11138916016</ele>
        <time>2018-11-07T17:10:17.414Z</time>
      </trkpt>
      <trkpt lat="44.03998" lon="7.58295">
        <ele>656.10559082031</ele>
        <time>2018-11-07T17:10:19.428Z</time>
      </trkpt>
      <trkpt lat="44.04021" lon="7.58327">
        <ele>630.89776611328</ele>
        <time>2018-11-07T17:10:21.447Z</time>
      </trkpt>
      <trkpt lat="44.04038" lon="7.58346">
        <ele>627.25952148438</ele>
        <time>2018-11-07T17:10:23.469Z</time>
      </trkpt>
      <trkpt lat="44.04063" lon="7.58368">
        <ele>632.13067626953</ele>
        <time>2018-11-07T17:10:25.496Z</time>
      </trkpt>
      <trkpt lat="44.04079" lon="7.58381">
        <ele>635.59808349609</ele>
        <time>2018-11-07T17:10:27.526Z</time>
      </trkpt>
      <trkpt lat="44.04141" lon="7.58416">
        <ele>640.97674560547</ele>
        <time>2018-11-07T17:10:29.567Z</time>
      </trkpt>
      <trkpt lat="44.04207" lon="7.58452">
        <ele>636.10040283203</ele>
        <time>2018-11-07T17:10:31.619Z</time>
      </trkpt>
      <trkpt lat="44.04243" lon="7.58473">
        <ele>633.14886474609</ele>
        <time>2018-11-07T17:10:33.677Z</time>
      </trkpt>
      <trkpt lat="44.04256" lon="7.58487">
        <ele>630.38934326172</ele>
        <time>2018-11-07T17:10:35.738Z</time>
      </trkpt>
      <trkpt lat="44.04292" lon="7.58534">
        <ele>632.10284423828</ele>
        <time>2018-11-07T17:10:37.807Z</time>
      </trkpt>
      <trkpt lat="44.04342" lon="7.58588">
        <ele>639.01599121094</ele>
        <time>2018-11-07T17:10:39.886Z</time>
      </trkpt>
      <trkpt lat="44.04352" lon="7.58596">
        <ele>640.91168212891</ele>
        <time>2018-11-07T17:10:41.967Z</time>
      </trkpt>
      <trkpt lat="44.04378" lon="7.58609">
        <ele>640.92413330078</ele>
        <time>2018-11-07T17:10:44.052Z</time>
      </trkpt>
      <trkpt lat="44.04388" lon="7.58613">
        <ele>640.52142333984</ele>
        <time>2018-11-07T17:10:46.139Z</time>
      </trkpt>
      <trkpt lat="44.04422" lon="7.58617">
        <ele>647.33630371094</ele>
        <time>2018-11-07T17:10:48.232Z</time>
      </trkpt>
      <trkpt lat="44.0448" lon="7.58623">
        <ele>648.70190429688</ele>
        <time>2018-11-07T17:10:50.334Z</time>
      </trkpt>
      <trkpt lat="44.04515" lon="7.58625">
        <ele>651.38464355469</ele>
        <time>2018-11-07T17:10:52.441Z</time>
      </trkpt>
      <trkpt lat="44.0452" lon="7.58625">
        <ele>651.87176513672</ele>
        <time>2018-11-07T17:10:54.549Z</time>
      </trkpt>
      <trkpt lat="44.0452" lon="7.58625">
        <ele>651.87225341797</ele>
        <time>2018-11-07T17:10:56.657Z</time>
      </trkpt>
      <trkpt lat="44.04586" lon="7.58626">
        <ele>658.06268310547</ele>
        <time>2018-11-07T17:10:58.776Z</time>
      </trkpt>
      <trkpt lat="44.04655" lon="7.58633">
        <ele>662.3681640625</ele>
        <time>2018-11-07T17:11:00.906Z</time>
      </trkpt>
      <trkpt lat="44.04745" lon="7.58639">
        <ele>658.70880126953</ele>
        <time>2018-11-07T17:11:03.050Z</time>
      </trkpt>
      <trkpt lat="44.04757" lon="7.58646">
        <ele>656.96008300781</ele>
        <time>2018-11-07T17:11:05.196Z</time>
      </trkpt>
      <trkpt lat="44.04802" lon="7.58683">
        <ele>652.81469726562</ele>
        <time>2018-11-07T17:11:07.351Z</time>
      </trkpt>
      <trkpt lat="44.04828" lon="7.58706">
        <ele>652.83868408203</ele>
        <time>2018-11-07T17:11:09.511Z</time>
      </trkpt>
      <trkpt lat="44.049" lon="7.58743">
        <ele>656.70989990234</ele>
        <time>2018-11-07T17:11:11.683Z</time>
      </trkpt>
      <trkpt lat="44.04918" lon="7.58752">
        <ele>657.44592285156</ele>
        <time>2018-11-07T17:11:13.858Z</time>
      </trkpt>
      <trkpt lat="44.04943" lon="7.58758">
        <ele>660.66339111328</ele>
        <time>2018-11-07T17:11:16.037Z</time>
      </trkpt>
      <trkpt lat="44.05001" lon="7.5877">
        <ele>663.53741455078</ele>
        <time>2018-11-07T17:11:18.225Z</time>
      </trkpt>
      <trkpt lat="44.05012" lon="7.58775">
        <ele>663.70538330078</ele>
        <time>2018-11-07T17:11:20.415Z</time>
      </trkpt>
      <trkpt lat="44.05023" lon="7.58785">
        <ele>662.853515625</ele>
        <time>2018-11-07T17:11:22.607Z</time>
      </trkpt>
      <trkpt lat="44.05052" lon="7.58818">
        <ele>657.99951171875</ele>
        <time>2018-11-07T17:11:24.805Z</time>
      </trkpt>
      <trkpt lat="44.05067" lon="7.58836">
        <ele>655.46813964844</ele>
        <time>2018-11-07T17:11:27.007Z</time>
      </trkpt>
      <trkpt lat="44.05078" lon="7.58844">
        <ele>656.12805175781</ele>
        <time>2018-11-07T17:11:29.211Z</time>
      </trkpt>
      <trkpt lat="44.05089" lon="7.5885">
        <ele>656.78790283203</ele>
        <time>2018-11-07T17:11:31.416Z</time>
      </trkpt>
      <trkpt lat="44.0515" lon="7.58872">
        <ele>660.49072265625</ele>
        <time>2018-11-07T17:11:33.632Z</time>
      </trkpt>
      <trkpt lat="44.05198" lon="7.58889">
        <ele>663.7421875</ele>
        <time>2018-11-07T17:11:35.856Z</time>
      </trkpt>
      <trkpt lat="44.05228" lon="7.58895">
        <ele>665.82983398438</ele>
        <time>2018-11-07T17:11:38.084Z</time>
      </trkpt>
      <trkpt lat="44.05286" lon="7.58899">
        <ele>669.94476318359</ele>
        <time>2018-11-07T17:11:40.322Z</time>
      </trkpt>
      <trkpt lat="44.05324" lon="7.58894">
        <ele>671.88842773438</ele>
        <time>2018-11-07T17:11:42.566Z</time>
      </trkpt>
      <trkpt lat="44.05347" lon="7.5889">
        <ele>674.42553710938</ele>
        <time>2018-11-07T17:11:44.813Z</time>
      </trkpt>
      <trkpt lat="44.05394" lon="7.58884">
        <ele>677.10668945312</ele>
        <time>2018-11-07T17:11:47.068Z</time>
      </trkpt>
      <trkpt lat="44.05428" lon="7.58884">
        <ele>679.39361572266</ele>
        <time>2018-11-07T17:11:49.328Z</time>
      </trkpt>
      <trkpt lat="44.05454" lon="7.58883">
        <ele>681.44714355469</ele>
        <time>2018-11-07T17:11:51.593Z</time>
      </trkpt>
      <trkpt lat="44.05483" lon="7.58881">
        <ele>682.55096435547</ele>
        <time>2018-11-07T17:11:53.862Z</time>
      </trkpt>
      <trkpt lat="44.05497" lon="7.58878">
        <ele>682.8251953125</ele>
        <time>2018-11-07T17:11:56.134Z</time>
      </trkpt>
      <trkpt lat="44.05539" lon="7.58862">
        <ele>684.40045166016</ele>
        <time>2018-11-07T17:11:58.413Z</time>
      </trkpt>
      <trkpt lat="44.05557" lon="7.58852">
        <ele>684.93975830078</ele>
        <time>2018-11-07T17:12:00.695Z</time>
      </trkpt>
      <trkpt lat="44.05565" lon="7.58845">
        <ele>684.69976806641</ele>
        <time>2018-11-07T17:12:02.978Z</time>
      </trkpt>
      <trkpt lat="44.05574" lon="7.58829">
        <ele>685.37860107422</ele>
        <time>2018-11-07T17:12:05.263Z</time>
      </trkpt>
      <trkpt lat="44.05608" lon="7.58753">
        <ele>693.87322998047</ele>
        <time>2018-11-07T17:12:07.559Z</time>
      </trkpt>
      <trkpt lat="44.05633" lon="7.587">
        <ele>695.24237060547</ele>
        <time>2018-11-07T17:12:09.862Z</time>
      </trkpt>
      <trkpt lat="44.05653" lon="7.58676">
        <ele>696.14654541016</ele>
        <time>2018-11-07T17:12:12.169Z</time>
      </trkpt>
      <trkpt lat="44.05697" lon="7.58639">
        <ele>694.69500732422</ele>
        <time>2018-11-07T17:12:14.485Z</time>
      </trkpt>
      <trkpt lat="44.05704" lon="7.58633">
        <ele>694.97100830078</ele>
        <time>2018-11-07T17:12:16.802Z</time>
      </trkpt>
      <trkpt lat="44.05709" lon="7.58629">
        <ele>695.138671875</ele>
        <time>2018-11-07T17:12:19.120Z</time>
      </trkpt>
      <trkpt lat="44.05709" lon="7.58629">
        <ele>695.138671875</ele>
        <time>2018-11-07T17:12:21.438Z</time>
      </trkpt>
      <trkpt lat="44.05715" lon="7.58625">
        <ele>695.31890869141</ele>
        <time>2018-11-07T17:12:23.757Z</time>
      </trkpt>
      <trkpt lat="44.05727" lon="7.58619">
        <ele>695.53839111328</ele>
        <time>2018-11-07T17:12:26.078Z</time>
      </trkpt>
      <trkpt lat="44.05738" lon="7.58618">
        <ele>695.75433349609</ele>
        <time>2018-11-07T17:12:28.401Z</time>
      </trkpt>
      <trkpt lat="44.05779" lon="7.58625">
        <ele>695.80316162109</ele>
        <time>2018-11-07T17:12:30.730Z</time>
      </trkpt>
      <trkpt lat="44.05777" lon="7.58616">
        <ele>696.43908691406</ele>
        <time>2018-11-07T17:12:33.060Z</time>
      </trkpt>
      <trkpt lat="44.05772" lon="7.58611">
        <ele>696.75018310547</ele>
        <time>2018-11-07T17:12:35.391Z</time>
      </trkpt>
      <trkpt lat="44.05759" lon="7.58604">
        <ele>697.18212890625</ele>
        <time>2018-11-07T17:12:37.725Z</time>
      </trkpt>
      <trkpt lat="44.05734" lon="7.5858">
        <ele>698.66839599609</ele>
        <time>2018-11-07T17:12:40.063Z</time>
      </trkpt>
      <trkpt lat="44.05719" lon="7.58556">
        <ele>699.35223388672</ele>
        <time>2018-11-07T17:12:42.405Z</time>
      </trkpt>
      <trkpt lat="44.05694" lon="7.58495">
        <ele>701.93566894531</ele>
        <time>2018-11-07T17:12:44.755Z</time>
      </trkpt>
      <trkpt lat="44.05691" lon="7.5849">
        <ele>702.13635253906</ele>
        <time>2018-11-07T17:12:47.106Z</time>
      </trkpt>
      <trkpt lat="44.05686" lon="7.58482">
        <ele>702.3740234375</ele>
        <time>2018-11-07T17:12:49.458Z</time>
      </trkpt>
      <trkpt lat="44.05659" lon="7.58438">
        <ele>703.76806640625</ele>
        <time>2018-11-07T17:12:51.817Z</time>
      </trkpt>
      <trkpt lat="44.05617" lon="7.58331">
        <ele>704.75518798828</ele>
        <time>2018-11-07T17:12:54.190Z</time>
      </trkpt>
      <trkpt lat="44.05598" lon="7.58279">
        <ele>702.98315429688</ele>
        <time>2018-11-07T17:12:56.570Z</time>
      </trkpt>
      <trkpt lat="44.05594" lon="7.5827">
        <ele>702.71923828125</ele>
        <time>2018-11-07T17:12:58.951Z</time>
      </trkpt>
      <trkpt lat="44.05565" lon="7.5824">
        <ele>700.36968994141</ele>
        <time>2018-11-07T17:13:01.338Z</time>
      </trkpt>
      <trkpt lat="44.05525" lon="7.58196">
        <ele>698.34552001953</ele>
        <time>2018-11-07T17:13:03.733Z</time>
      </trkpt>
      <trkpt lat="44.05512" lon="7.58163">
        <ele>700.93981933594</ele>
        <time>2018-11-07T17:13:06.132Z</time>
      </trkpt>
      <trkpt lat="44.05511" lon="7.58141">
        <ele>702.73199462891</ele>
        <time>2018-11-07T17:13:08.534Z</time>
      </trkpt>
      <trkpt lat="44.05511" lon="7.58128">
        <ele>703.35589599609</ele>
        <time>2018-11-07T17:13:10.937Z</time>
      </trkpt>
      <trkpt lat="44.05506" lon="7.58107">
        <ele>704.84368896484</ele>
        <time>2018-11-07T17:13:13.343Z</time>
      </trkpt>
      <trkpt lat="44.05492" lon="7.58087">
        <ele>707.14727783203</ele>
        <time>2018-11-07T17:13:15.752Z</time>
      </trkpt>
      <trkpt lat="44.05484" lon="7.58063">
        <ele>710.62890625</ele>
        <time>2018-11-07T17:13:18.164Z</time>
      </trkpt>
      <trkpt lat="44.05476" lon="7.58051">
        <ele>712.83654785156</ele>
        <time>2018-11-07T17:13:20.578Z</time>
      </trkpt>
      <trkpt lat="44.0545" lon="7.58029">
        <ele>717.9716796875</ele>
        <time>2018-11-07T17:13:22.997Z</time>
      </trkpt>
      <trkpt lat="44.05447" lon="7.58027">
        <ele>718.49963378906</ele>
        <time>2018-11-07T17:13:25.416Z</time>
      </trkpt>
      <trkpt lat="44.05438" lon="7.58011">
        <ele>722.55078125</ele>
        <time>2018-11-07T17:13:27.838Z</time>
      </trkpt>
      <trkpt lat="44.05437" lon="7.57995">
        <ele>725.10174560547</ele>
        <time>2018-11-07T17:13:30.261Z</time>
      </trkpt>
      <trkpt lat="44.05441" lon="7.57977">
        <ele>725.31774902344</ele>
        <time>2018-11-07T17:13:32.687Z</time>
      </trkpt>
      <trkpt lat="44.05447" lon="7.57947">
        <ele>727.18157958984</ele>
        <time>2018-11-07T17:13:35.116Z</time>
      </trkpt>
      <trkpt lat="44.05444" lon="7.57919">
        <ele>730.66314697266</ele>
        <time>2018-11-07T17:13:37.549Z</time>
      </trkpt>
      <trkpt lat="44.05443" lon="7.5791">
        <ele>731.91949462891</ele>
        <time>2018-11-07T17:13:39.983Z</time>
      </trkpt>
      <trkpt lat="44.05442" lon="7.579">
        <ele>733.47338867188</ele>
        <time>2018-11-07T17:13:42.418Z</time>
      </trkpt>
      <trkpt lat="44.05447" lon="7.57856">
        <ele>737.64611816406</ele>
        <time>2018-11-07T17:13:44.858Z</time>
      </trkpt>
      <trkpt lat="44.05451" lon="7.57816">
        <ele>739.43048095703</ele>
        <time>2018-11-07T17:13:47.303Z</time>
      </trkpt>
      <trkpt lat="44.0545" lon="7.57797">
        <ele>740.12634277344</ele>
        <time>2018-11-07T17:13:49.750Z</time>
      </trkpt>
      <trkpt lat="44.05439" lon="7.57744">
        <ele>745.85589599609</ele>
        <time>2018-11-07T17:13:52.203Z</time>
      </trkpt>
      <trkpt lat="44.05426" lon="7.57676">
        <ele>759.67761230469</ele>
        <time>2018-11-07T17:13:54.664Z</time>
      </trkpt>
      <trkpt lat="44.05428" lon="7.57638">
        <ele>760.90228271484</ele>
        <time>2018-11-07T17:13:57.130Z</time>
      </trkpt>
      <trkpt lat="44.05432" lon="7.57614">
        <ele>759.84649658203</ele>
        <time>2018-11-07T17:13:59.598Z</time>
      </trkpt>
      <trkpt lat="44.05433" lon="7.5757">
        <ele>761.62121582031</ele>
        <time>2018-11-07T17:14:02.072Z</time>
      </trkpt>
      <trkpt lat="44.05431" lon="7.57525">
        <ele>763.5048828125</ele>
        <time>2018-11-07T17:14:04.551Z</time>
      </trkpt>
      <trkpt lat="44.05434" lon="7.57496">
        <ele>762.65869140625</ele>
        <time>2018-11-07T17:14:07.033Z</time>
      </trkpt>
      <trkpt lat="44.05443" lon="7.57462">
        <ele>756.42724609375</ele>
        <time>2018-11-07T17:14:09.519Z</time>
      </trkpt>
      <trkpt lat="44.05444" lon="7.57449">
        <ele>756.47521972656</ele>
        <time>2018-11-07T17:14:12.007Z</time>
      </trkpt>
      <trkpt lat="44.05442" lon="7.57445">
        <ele>757.16656494141</ele>
        <time>2018-11-07T17:14:14.495Z</time>
      </trkpt>
      <trkpt lat="44.05434" lon="7.57444">
        <ele>763.80145263672</ele>
        <time>2018-11-07T17:14:16.985Z</time>
      </trkpt>
      <trkpt lat="44.05432" lon="7.57446">
        <ele>765.43316650391</ele>
        <time>2018-11-07T17:14:19.475Z</time>
      </trkpt>
      <trkpt lat="44.05425" lon="7.57469">
        <ele>770.95227050781</ele>
        <time>2018-11-07T17:14:21.968Z</time>
      </trkpt>
      <trkpt lat="44.05416" lon="7.57508">
        <ele>773.78717041016</ele>
        <time>2018-11-07T17:14:24.466Z</time>
      </trkpt>
      <trkpt lat="44.05415" lon="7.57562">
        <ele>773.57220458984</ele>
        <time>2018-11-07T17:14:26.970Z</time>
      </trkpt>
      <trkpt lat="44.05413" lon="7.57575">
        <ele>774.04010009766</ele>
        <time>2018-11-07T17:14:29.475Z</time>
      </trkpt>
      <trkpt lat="44.0541" lon="7.57582">
        <ele>775.49188232422</ele>
        <time>2018-11-07T17:14:31.981Z</time>
      </trkpt>
      <trkpt lat="44.05405" lon="7.57579">
        <ele>778.79132080078</ele>
        <time>2018-11-07T17:14:34.488Z</time>
      </trkpt>
      <trkpt lat="44.05402" lon="7.57572">
        <ele>781.08294677734</ele>
        <time>2018-11-07T17:14:36.996Z</time>
      </trkpt>
      <trkpt lat="44.05403" lon="7.57528">
        <ele>782.28173828125</ele>
        <time>2018-11-07T17:14:39.509Z</time>
      </trkpt>
      <trkpt lat="44.05411" lon="7.57411">
        <ele>784.56658935547</ele>
        <time>2018-11-07T17:14:42.036Z</time>
      </trkpt>
      <trkpt lat="44.05412" lon="7.57397">
        <ele>786.59423828125</ele>
        <time>2018-11-07T17:14:44.564Z</time>
      </trkpt>
      <trkpt lat="44.05412" lon="7.57388">
        <ele>788.29943847656</ele>
        <time>2018-11-07T17:14:47.094Z</time>
      </trkpt>
      <trkpt lat="44.05414" lon="7.57317">
        <ele>796.00030517578</ele>
        <time>2018-11-07T17:14:49.632Z</time>
      </trkpt>
      <trkpt lat="44.05417" lon="7.57281">
        <ele>799.90020751953</ele>
        <time>2018-11-07T17:14:52.174Z</time>
      </trkpt>
      <trkpt lat="44.05418" lon="7.57268">
        <ele>801.29193115234</ele>
        <time>2018-11-07T17:14:54.717Z</time>
      </trkpt>
      <trkpt lat="44.05433" lon="7.57198">
        <ele>802.35278320312</ele>
        <time>2018-11-07T17:14:57.269Z</time>
      </trkpt>
      <trkpt lat="44.05439" lon="7.57165">
        <ele>805.45849609375</ele>
        <time>2018-11-07T17:14:59.825Z</time>
      </trkpt>
      <trkpt lat="44.05449" lon="7.5714">
        <ele>805.51116943359</ele>
        <time>2018-11-07T17:15:02.384Z</time>
      </trkpt>
      <trkpt lat="44.05471" lon="7.57105">
        <ele>802.86639404297</ele>
        <time>2018-11-07T17:15:04.948Z</time>
      </trkpt>
      <trkpt lat="44.05499" lon="7.57062">
        <ele>794.46441650391</ele>
        <time>2018-11-07T17:15:07.519Z</time>
      </trkpt>
      <trkpt lat="44.0551" lon="7.57035">
        <ele>795.10955810547</ele>
        <time>2018-11-07T17:15:10.094Z</time>
      </trkpt>
      <trkpt lat="44.05532" lon="7.56951">
        <ele>806.60589599609</ele>
        <time>2018-11-07T17:15:12.679Z</time>
      </trkpt>
      <trkpt lat="44.05529" lon="7.56942">
        <ele>808.98150634766</ele>
        <time>2018-11-07T17:15:15.265Z</time>
      </trkpt>
      <trkpt lat="44.05531" lon="7.56913">
        <ele>814.51898193359</ele>
        <time>2018-11-07T17:15:17.854Z</time>
      </trkpt>
      <trkpt lat="44.05551" lon="7.56876">
        <ele>817.12255859375</ele>
        <time>2018-11-07T17:15:20.449Z</time>
      </trkpt>
      <trkpt lat="44.05565" lon="7.56838">
        <ele>817.72863769531</ele>
        <time>2018-11-07T17:15:23.049Z</time>
      </trkpt>
      <trkpt lat="44.05583" lon="7.5677">
        <ele>826.26348876953</ele>
        <time>2018-11-07T17:15:25.657Z</time>
      </trkpt>
      <trkpt lat="44.05597" lon="7.56747">
        <ele>825.12860107422</ele>
        <time>2018-11-07T17:15:28.269Z</time>
      </trkpt>
      <trkpt lat="44.05629" lon="7.5671">
        <ele>828.69287109375</ele>
        <time>2018-11-07T17:15:30.887Z</time>
      </trkpt>
      <trkpt lat="44.05629" lon="7.56706">
        <ele>830.03662109375</ele>
        <time>2018-11-07T17:15:33.506Z</time>
      </trkpt>
      <trkpt lat="44.05632" lon="7.56697">
        <ele>832.73620605469</ele>
        <time>2018-11-07T17:15:36.126Z</time>
      </trkpt>
      <trkpt lat="44.05644" lon="7.5669">
        <ele>830.34075927734</ele>
        <time>2018-11-07T17:15:38.748Z</time>
      </trkpt>
      <trkpt lat="44.05665" lon="7.56688">
        <ele>822.39807128906</ele>
        <time>2018-11-07T17:15:41.373Z</time>
      </trkpt>
      <trkpt lat="44.0567" lon="7.56683">
        <ele>820.77838134766</ele>
        <time>2018-11-07T17:15:43.999Z</time>
      </trkpt>
      <trkpt lat="44.05669" lon="7.56676">
        <ele>821.58221435547</ele>
        <time>2018-11-07T17:15:46.626Z</time>
      </trkpt>
      <trkpt lat="44.05663" lon="7.56672">
        <ele>824.12579345703</ele>
        <time>2018-11-07T17:15:49.254Z</time>
      </trkpt>
      <trkpt lat="44.05652" lon="7.56671">
        <ele>828.40905761719</ele>
        <time>2018-11-07T17:15:51.884Z</time>
      </trkpt>
      <trkpt lat="44.05648" lon="7.56669">
        <ele>830.06481933594</ele>
        <time>2018-11-07T17:15:54.515Z</time>
      </trkpt>
      <trkpt lat="44.05645" lon="7.56664">
        <ele>832.65478515625</ele>
        <time>2018-11-07T17:15:57.146Z</time>
      </trkpt>
      <trkpt lat="44.05646" lon="7.56659">
        <ele>834.07055664062</ele>
        <time>2018-11-07T17:15:59.778Z</time>
      </trkpt>
      <trkpt lat="44.05653" lon="7.56654">
        <ele>833.18267822266</ele>
        <time>2018-11-07T17:16:02.411Z</time>
      </trkpt>
      <trkpt lat="44.05669" lon="7.56647">
        <ele>829.55932617188</ele>
        <time>2018-11-07T17:16:05.047Z</time>
      </trkpt>
      <trkpt lat="44.05677" lon="7.56631">
        <ele>828.18493652344</ele>
        <time>2018-11-07T17:16:07.685Z</time>
      </trkpt>
      <trkpt lat="44.05687" lon="7.56601">
        <ele>827.46502685547</ele>
        <time>2018-11-07T17:16:10.327Z</time>
      </trkpt>
      <trkpt lat="44.05689" lon="7.56588">
        <ele>828.49688720703</ele>
        <time>2018-11-07T17:16:12.970Z</time>
      </trkpt>
      <trkpt lat="44.05685" lon="7.56583">
        <ele>831.95294189453</ele>
        <time>2018-11-07T17:16:15.614Z</time>
      </trkpt>
      <trkpt lat="44.05677" lon="7.56582">
        <ele>836.94415283203</ele>
        <time>2018-11-07T17:16:18.260Z</time>
      </trkpt>
      <trkpt lat="44.0567" lon="7.5659">
        <ele>839.10308837891</ele>
        <time>2018-11-07T17:16:20.907Z</time>
      </trkpt>
      <trkpt lat="44.05657" lon="7.56614">
        <ele>842.55853271484</ele>
        <time>2018-11-07T17:16:23.558Z</time>
      </trkpt>
      <trkpt lat="44.05646" lon="7.56627">
        <ele>845.58862304688</ele>
        <time>2018-11-07T17:16:26.211Z</time>
      </trkpt>
      <trkpt lat="44.05637" lon="7.56634">
        <ele>846.52447509766</ele>
        <time>2018-11-07T17:16:28.865Z</time>
      </trkpt>
      <trkpt lat="44.0563" lon="7.56645">
        <ele>845.25268554688</ele>
        <time>2018-11-07T17:16:31.521Z</time>
      </trkpt>
      <trkpt lat="44.05625" lon="7.56657">
        <ele>842.85308837891</ele>
        <time>2018-11-07T17:16:34.179Z</time>
      </trkpt>
      <trkpt lat="44.0562" lon="7.56669">
        <ele>840.81500244141</ele>
        <time>2018-11-07T17:16:36.838Z</time>
      </trkpt>
      <trkpt lat="44.05613" lon="7.56669">
        <ele>843.50256347656</ele>
        <time>2018-11-07T17:16:39.499Z</time>
      </trkpt>
      <trkpt lat="44.0561" lon="7.56661">
        <ele>847.17236328125</ele>
        <time>2018-11-07T17:16:42.161Z</time>
      </trkpt>
      <trkpt lat="44.05617" lon="7.56642">
        <ele>851.32366943359</ele>
        <time>2018-11-07T17:16:44.825Z</time>
      </trkpt>
      <trkpt lat="44.05624" lon="7.56622">
        <ele>855.83489990234</ele>
        <time>2018-11-07T17:16:47.492Z</time>
      </trkpt>
      <trkpt lat="44.05646" lon="7.56589">
        <ele>853.0927734375</ele>
        <time>2018-11-07T17:16:50.164Z</time>
      </trkpt>
      <trkpt lat="44.05658" lon="7.56557">
        <ele>857.48468017578</ele>
        <time>2018-11-07T17:16:52.840Z</time>
      </trkpt>
      <trkpt lat="44.05671" lon="7.56508">
        <ele>860.91918945312</ele>
        <time>2018-11-07T17:16:55.522Z</time>
      </trkpt>
      <trkpt lat="44.05681" lon="7.56474">
        <ele>864.90075683594</ele>
        <time>2018-11-07T17:16:58.208Z</time>
      </trkpt>
      <trkpt lat="44.05683" lon="7.56466">
        <ele>865.74633789062</ele>
        <time>2018-11-07T17:17:00.895Z</time>
      </trkpt>
      <trkpt lat="44.05685" lon="7.56457">
        <ele>866.64050292969</ele>
        <time>2018-11-07T17:17:03.583Z</time>
      </trkpt>
      <trkpt lat="44.05695" lon="7.56424">
        <ele>869.84252929688</ele>
        <time>2018-11-07T17:17:06.275Z</time>
      </trkpt>
      <trkpt lat="44.05701" lon="7.56413">
        <ele>870.41491699219</ele>
        <time>2018-11-07T17:17:08.969Z</time>
      </trkpt>
      <trkpt lat="44.05724" lon="7.56376">
        <ele>873.23443603516</ele>
        <time>2018-11-07T17:17:11.669Z</time>
      </trkpt>
      <trkpt lat="44.05733" lon="7.56333">
        <ele>876.12957763672</ele>
        <time>2018-11-07T17:17:14.374Z</time>
      </trkpt>
      <trkpt lat="44.05734" lon="7.56318">
        <ele>880.28088378906</ele>
        <time>2018-11-07T17:17:17.081Z</time>
      </trkpt>
      <trkpt lat="44.05742" lon="7.56294">
        <ele>882.85070800781</ele>
        <time>2018-11-07T17:17:19.791Z</time>
      </trkpt>
      <trkpt lat="44.05762" lon="7.56229">
        <ele>885.8173828125</ele>
        <time>2018-11-07T17:17:22.509Z</time>
      </trkpt>
      <trkpt lat="44.05774" lon="7.56202">
        <ele>884.91754150391</ele>
        <time>2018-11-07T17:17:25.230Z</time>
      </trkpt>
      <trkpt lat="44.05787" lon="7.56184">
        <ele>889.29821777344</ele>
        <time>2018-11-07T17:17:27.954Z</time>
      </trkpt>
      <trkpt lat="44.05831" lon="7.56143">
        <ele>888.53039550781</ele>
        <time>2018-11-07T17:17:30.687Z</time>
      </trkpt>
      <trkpt lat="44.0584" lon="7.56122">
        <ele>888.13775634766</ele>
        <time>2018-11-07T17:17:33.423Z</time>
      </trkpt>
      <trkpt lat="44.05845" lon="7.56082">
        <ele>891.49621582031</ele>
        <time>2018-11-07T17:17:36.163Z</time>
      </trkpt>
      <trkpt lat="44.05849" lon="7.5605">
        <ele>898.73974609375</ele>
        <time>2018-11-07T17:17:38.907Z</time>
      </trkpt>
      <trkpt lat="44.05863" lon="7.56007">
        <ele>904.93286132812</ele>
        <time>2018-11-07T17:17:41.656Z</time>
      </trkpt>
      <trkpt lat="44.05883" lon="7.55965">
        <ele>915.56829833984</ele>
        <time>2018-11-07T17:17:44.411Z</time>
      </trkpt>
      <trkpt lat="44.05906" lon="7.5593">
        <ele>917.03851318359</ele>
        <time>2018-11-07T17:17:47.172Z</time>
      </trkpt>
      <trkpt lat="44.05945" lon="7.55895">
        <ele>910.66040039062</ele>
        <time>2018-11-07T17:17:49.940Z</time>
      </trkpt>
      <trkpt lat="44.05971" lon="7.55885">
        <ele>912.10015869141</ele>
        <time>2018-11-07T17:17:52.713Z</time>
      </trkpt>
      <trkpt lat="44.06036" lon="7.55865">
        <ele>911.49041748047</ele>
        <time>2018-11-07T17:17:55.496Z</time>
      </trkpt>
      <trkpt lat="44.06051" lon="7.55854">
        <ele>918.22802734375</ele>
        <time>2018-11-07T17:17:58.282Z</time>
      </trkpt>
      <trkpt lat="44.06055" lon="7.55846">
        <ele>916.30834960938</ele>
        <time>2018-11-07T17:18:01.069Z</time>
      </trkpt>
      <trkpt lat="44.06054" lon="7.55837">
        <ele>913.75280761719</ele>
        <time>2018-11-07T17:18:03.857Z</time>
      </trkpt>
      <trkpt lat="44.06037" lon="7.55823">
        <ele>914.64294433594</ele>
        <time>2018-11-07T17:18:06.648Z</time>
      </trkpt>
      <trkpt lat="44.06032" lon="7.55819">
        <ele>915.26666259766</ele>
        <time>2018-11-07T17:18:09.440Z</time>
      </trkpt>
      <trkpt lat="44.06032" lon="7.55819">
        <ele>915.26678466797</ele>
        <time>2018-11-07T17:18:12.232Z</time>
      </trkpt>
      <trkpt lat="44.06003" lon="7.55797">
        <ele>927.03356933594</ele>
        <time>2018-11-07T17:18:15.029Z</time>
      </trkpt>
      <trkpt lat="44.06" lon="7.55793">
        <ele>928.9052734375</ele>
        <time>2018-11-07T17:18:17.827Z</time>
      </trkpt>
      <trkpt lat="44.06002" lon="7.5578">
        <ele>931.60479736328</ele>
        <time>2018-11-07T17:18:20.627Z</time>
      </trkpt>
      <trkpt lat="44.06005" lon="7.55775">
        <ele>932.00073242188</ele>
        <time>2018-11-07T17:18:23.427Z</time>
      </trkpt>
      <trkpt lat="44.06014" lon="7.55771">
        <ele>930.4169921875</ele>
        <time>2018-11-07T17:18:26.229Z</time>
      </trkpt>
      <trkpt lat="44.06046" lon="7.5577">
        <ele>928.47344970703</ele>
        <time>2018-11-07T17:18:29.036Z</time>
      </trkpt>
      <trkpt lat="44.06055" lon="7.55764">
        <ele>927.93353271484</ele>
        <time>2018-11-07T17:18:31.845Z</time>
      </trkpt>
      <trkpt lat="44.06085" lon="7.55736">
        <ele>930.12353515625</ele>
        <time>2018-11-07T17:18:34.659Z</time>
      </trkpt>
      <trkpt lat="44.06101" lon="7.55726">
        <ele>930.79766845703</ele>
        <time>2018-11-07T17:18:37.476Z</time>
      </trkpt>
      <trkpt lat="44.06115" lon="7.55722">
        <ele>931.39105224609</ele>
        <time>2018-11-07T17:18:40.295Z</time>
      </trkpt>
      <trkpt lat="44.06129" lon="7.55714">
        <ele>935.35040283203</ele>
        <time>2018-11-07T17:18:43.117Z</time>
      </trkpt>
      <trkpt lat="44.06164" lon="7.55678">
        <ele>939.91418457031</ele>
        <time>2018-11-07T17:18:45.946Z</time>
      </trkpt>
      <trkpt lat="44.06198" lon="7.55649">
        <ele>942.62670898438</ele>
        <time>2018-11-07T17:18:48.781Z</time>
      </trkpt>
      <trkpt lat="44.0622" lon="7.55625">
        <ele>949.68151855469</ele>
        <time>2018-11-07T17:18:51.621Z</time>
      </trkpt>
      <trkpt lat="44.06244" lon="7.55593">
        <ele>946.95880126953</ele>
        <time>2018-11-07T17:18:54.466Z</time>
      </trkpt>
      <trkpt lat="44.06276" lon="7.55532">
        <ele>946.91809082031</ele>
        <time>2018-11-07T17:18:57.320Z</time>
      </trkpt>
      <trkpt lat="44.06333" lon="7.55451">
        <ele>957.85882568359</ele>
        <time>2018-11-07T17:19:00.187Z</time>
      </trkpt>
      <trkpt lat="44.06338" lon="7.55442">
        <ele>958.302734375</ele>
        <time>2018-11-07T17:19:03.055Z</time>
      </trkpt>
      <trkpt lat="44.06342" lon="7.55436">
        <ele>958.51336669922</ele>
        <time>2018-11-07T17:19:05.924Z</time>
      </trkpt>
      <trkpt lat="44.0637" lon="7.55391">
        <ele>965.33660888672</ele>
        <time>2018-11-07T17:19:08.800Z</time>
      </trkpt>
      <trkpt lat="44.06375" lon="7.55371">
        <ele>970.85571289062</ele>
        <time>2018-11-07T17:19:11.678Z</time>
      </trkpt>
      <trkpt lat="44.06372" lon="7.55332">
        <ele>979.08764648438</ele>
        <time>2018-11-07T17:19:14.561Z</time>
      </trkpt>
      <trkpt lat="44.06378" lon="7.55304">
        <ele>987.87017822266</ele>
        <time>2018-11-07T17:19:17.447Z</time>
      </trkpt>
      <trkpt lat="44.06388" lon="7.55276">
        <ele>995.16278076172</ele>
        <time>2018-11-07T17:19:20.337Z</time>
      </trkpt>
      <trkpt lat="44.06399" lon="7.55258">
        <ele>994.04693603516</ele>
        <time>2018-11-07T17:19:23.230Z</time>
      </trkpt>
      <trkpt lat="44.06411" lon="7.55246">
        <ele>992.27709960938</ele>
        <time>2018-11-07T17:19:26.125Z</time>
      </trkpt>
      <trkpt lat="44.06428" lon="7.5524">
        <ele>987.63385009766</ele>
        <time>2018-11-07T17:19:29.023Z</time>
      </trkpt>
      <trkpt lat="44.06434" lon="7.55237">
        <ele>986.42523193359</ele>
        <time>2018-11-07T17:19:31.922Z</time>
      </trkpt>
      <trkpt lat="44.06436" lon="7.55233">
        <ele>987.16912841797</ele>
        <time>2018-11-07T17:19:34.821Z</time>
      </trkpt>
      <trkpt lat="44.06437" lon="7.55227">
        <ele>989.02880859375</ele>
        <time>2018-11-07T17:19:37.721Z</time>
      </trkpt>
      <trkpt lat="44.06434" lon="7.55222">
        <ele>992.00433349609</ele>
        <time>2018-11-07T17:19:40.622Z</time>
      </trkpt>
      <trkpt lat="44.06422" lon="7.55221">
        <ele>996.83947753906</ele>
        <time>2018-11-07T17:19:43.525Z</time>
      </trkpt>
      <trkpt lat="44.064" lon="7.55232">
        <ele>1001.5035400391</ele>
        <time>2018-11-07T17:19:46.432Z</time>
      </trkpt>
      <trkpt lat="44.06361" lon="7.55266">
        <ele>1005.2192993164</ele>
        <time>2018-11-07T17:19:49.346Z</time>
      </trkpt>
      <trkpt lat="44.06345" lon="7.55281">
        <ele>1006.0424804688</ele>
        <time>2018-11-07T17:19:52.263Z</time>
      </trkpt>
      <trkpt lat="44.0632" lon="7.55301">
        <ele>1008.6715698242</ele>
        <time>2018-11-07T17:19:55.185Z</time>
      </trkpt>
      <trkpt lat="44.06285" lon="7.5533">
        <ele>1008.6715698242</ele>
        <time>2018-11-07T17:19:58.113Z</time>
      </trkpt>
      <trkpt lat="44.06253" lon="7.55348">
        <ele>1012.3586425781</ele>
        <time>2018-11-07T17:20:01.047Z</time>
      </trkpt>
      <trkpt lat="44.06229" lon="7.55368">
        <ele>1012.3586425781</ele>
        <time>2018-11-07T17:20:03.985Z</time>
      </trkpt>
      <trkpt lat="44.06226" lon="7.55367">
        <ele>1013.8704223633</ele>
        <time>2018-11-07T17:20:06.924Z</time>
      </trkpt>
      <trkpt lat="44.06223" lon="7.55365">
        <ele>1015.8025512695</ele>
        <time>2018-11-07T17:20:09.863Z</time>
      </trkpt>
      <trkpt lat="44.06224" lon="7.55357">
        <ele>1018.9095458984</ele>
        <time>2018-11-07T17:20:12.803Z</time>
      </trkpt>
      <trkpt lat="44.06257" lon="7.55335">
        <ele>1016.5339355469</ele>
        <time>2018-11-07T17:20:15.749Z</time>
      </trkpt>
      <trkpt lat="44.06269" lon="7.55322">
        <ele>1017.428527832</ele>
        <time>2018-11-07T17:20:18.697Z</time>
      </trkpt>
      <trkpt lat="44.06287" lon="7.55299">
        <ele>1020.9935302734</ele>
        <time>2018-11-07T17:20:21.649Z</time>
      </trkpt>
      <trkpt lat="44.06302" lon="7.55273">
        <ele>1026.4630126953</ele>
        <time>2018-11-07T17:20:24.605Z</time>
      </trkpt>
      <trkpt lat="44.0632" lon="7.55245">
        <ele>1029.0572509766</ele>
        <time>2018-11-07T17:20:27.565Z</time>
      </trkpt>
      <trkpt lat="44.06335" lon="7.55232">
        <ele>1027.3055419922</ele>
        <time>2018-11-07T17:20:30.528Z</time>
      </trkpt>
      <trkpt lat="44.06352" lon="7.55213">
        <ele>1027.1192626953</ele>
        <time>2018-11-07T17:20:33.495Z</time>
      </trkpt>
      <trkpt lat="44.06364" lon="7.55198">
        <ele>1027.5872802734</ele>
        <time>2018-11-07T17:20:36.464Z</time>
      </trkpt>
      <trkpt lat="44.06375" lon="7.55178">
        <ele>1030.3139648438</ele>
        <time>2018-11-07T17:20:39.436Z</time>
      </trkpt>
      <trkpt lat="44.064" lon="7.55121">
        <ele>1042.5473632812</ele>
        <time>2018-11-07T17:20:42.416Z</time>
      </trkpt>
      <trkpt lat="44.06404" lon="7.5511">
        <ele>1044.3830566406</ele>
        <time>2018-11-07T17:20:45.397Z</time>
      </trkpt>
      <trkpt lat="44.0641" lon="7.55103">
        <ele>1044.0590820312</ele>
        <time>2018-11-07T17:20:48.380Z</time>
      </trkpt>
      <trkpt lat="44.06447" lon="7.55083">
        <ele>1035.994140625</ele>
        <time>2018-11-07T17:20:51.369Z</time>
      </trkpt>
      <trkpt lat="44.06499" lon="7.5505">
        <ele>1043.1876220703</ele>
        <time>2018-11-07T17:20:54.367Z</time>
      </trkpt>
      <trkpt lat="44.06511" lon="7.55049">
        <ele>1041.3879394531</ele>
        <time>2018-11-07T17:20:57.367Z</time>
      </trkpt>
      <trkpt lat="44.06541" lon="7.55058">
        <ele>1034.8934326172</ele>
        <time>2018-11-07T17:21:00.372Z</time>
      </trkpt>
      <trkpt lat="44.06558" lon="7.55063">
        <ele>1032.4819335938</ele>
        <time>2018-11-07T17:21:03.380Z</time>
      </trkpt>
      <trkpt lat="44.06565" lon="7.55055">
        <ele>1035.1094970703</ele>
        <time>2018-11-07T17:21:06.389Z</time>
      </trkpt>
      <trkpt lat="44.06565" lon="7.5505">
        <ele>1036.9091796875</ele>
        <time>2018-11-07T17:21:09.399Z</time>
      </trkpt>
      <trkpt lat="44.06561" lon="7.55042">
        <ele>1039.9326171875</ele>
        <time>2018-11-07T17:21:12.410Z</time>
      </trkpt>
      <trkpt lat="44.06536" lon="7.55024">
        <ele>1047.3114013672</ele>
        <time>2018-11-07T17:21:15.425Z</time>
      </trkpt>
      <trkpt lat="44.06527" lon="7.55018">
        <ele>1049.7950439453</ele>
        <time>2018-11-07T17:21:18.442Z</time>
      </trkpt>
      <trkpt lat="44.06495" lon="7.55009">
        <ele>1058.6650390625</ele>
        <time>2018-11-07T17:21:21.464Z</time>
      </trkpt>
      <trkpt lat="44.06469" lon="7.55011">
        <ele>1062.6243896484</ele>
        <time>2018-11-07T17:21:24.490Z</time>
      </trkpt>
      <trkpt lat="44.0642" lon="7.55021">
        <ele>1071.2769775391</ele>
        <time>2018-11-07T17:21:27.524Z</time>
      </trkpt>
      <trkpt lat="44.06386" lon="7.55038">
        <ele>1077.6989746094</ele>
        <time>2018-11-07T17:21:30.564Z</time>
      </trkpt>
      <trkpt lat="44.06372" lon="7.55048">
        <ele>1080.0266113281</ele>
        <time>2018-11-07T17:21:33.607Z</time>
      </trkpt>
      <trkpt lat="44.06344" lon="7.55082">
        <ele>1078.6555175781</ele>
        <time>2018-11-07T17:21:36.656Z</time>
      </trkpt>
      <trkpt lat="44.06324" lon="7.55099">
        <ele>1079.48828125</ele>
        <time>2018-11-07T17:21:39.708Z</time>
      </trkpt>
      <trkpt lat="44.06302" lon="7.55113">
        <ele>1082.3646240234</ele>
        <time>2018-11-07T17:21:42.764Z</time>
      </trkpt>
      <trkpt lat="44.0625" lon="7.55149">
        <ele>1089.3216552734</ele>
        <time>2018-11-07T17:21:45.830Z</time>
      </trkpt>
      <trkpt lat="44.06218" lon="7.55154">
        <ele>1098.0322265625</ele>
        <time>2018-11-07T17:21:48.901Z</time>
      </trkpt>
      <trkpt lat="44.06209" lon="7.5516">
        <ele>1098.6081542969</ele>
        <time>2018-11-07T17:21:51.973Z</time>
      </trkpt>
      <trkpt lat="44.06205" lon="7.55169">
        <ele>1096.3852539062</ele>
        <time>2018-11-07T17:21:55.046Z</time>
      </trkpt>
      <trkpt lat="44.06204" lon="7.55194">
        <ele>1088.1405029297</ele>
        <time>2018-11-07T17:21:58.122Z</time>
      </trkpt>
      <trkpt lat="44.06205" lon="7.55207">
        <ele>1083.2933349609</ele>
        <time>2018-11-07T17:22:01.200Z</time>
      </trkpt>
      <trkpt lat="44.06202" lon="7.55213">
        <ele>1082.1774902344</ele>
        <time>2018-11-07T17:22:04.279Z</time>
      </trkpt>
      <trkpt lat="44.06199" lon="7.55214">
        <ele>1082.8013916016</ele>
        <time>2018-11-07T17:22:07.358Z</time>
      </trkpt>
      <trkpt lat="44.06195" lon="7.55211">
        <ele>1085.1409912109</ele>
        <time>2018-11-07T17:22:10.438Z</time>
      </trkpt>
      <trkpt lat="44.06193" lon="7.55201">
        <ele>1089.2683105469</ele>
        <time>2018-11-07T17:22:13.519Z</time>
      </trkpt>
      <trkpt lat="44.06197" lon="7.55165">
        <ele>1100.5997314453</ele>
        <time>2018-11-07T17:22:16.604Z</time>
      </trkpt>
      <trkpt lat="44.06202" lon="7.55155">
        <ele>1102.9993896484</ele>
        <time>2018-11-07T17:22:19.691Z</time>
      </trkpt>
      <trkpt lat="44.06207" lon="7.5515">
        <ele>1103.359375</ele>
        <time>2018-11-07T17:22:22.779Z</time>
      </trkpt>
      <trkpt lat="44.06224" lon="7.55141">
        <ele>1101.3197021484</ele>
        <time>2018-11-07T17:22:25.870Z</time>
      </trkpt>
      <trkpt lat="44.06232" lon="7.55132">
        <ele>1102.3034667969</ele>
        <time>2018-11-07T17:22:28.962Z</time>
      </trkpt>
      <trkpt lat="44.06258" lon="7.55096">
        <ele>1105.6879882812</ele>
        <time>2018-11-07T17:22:32.060Z</time>
      </trkpt>
      <trkpt lat="44.06277" lon="7.55068">
        <ele>1109.4543457031</ele>
        <time>2018-11-07T17:22:35.163Z</time>
      </trkpt>
      <trkpt lat="44.06296" lon="7.55031">
        <ele>1117.9249267578</ele>
        <time>2018-11-07T17:22:38.271Z</time>
      </trkpt>
      <trkpt lat="44.06344" lon="7.54967">
        <ele>1126.3850097656</ele>
        <time>2018-11-07T17:22:41.389Z</time>
      </trkpt>
      <trkpt lat="44.06394" lon="7.54896">
        <ele>1136.2237548828</ele>
        <time>2018-11-07T17:22:44.519Z</time>
      </trkpt>
      <trkpt lat="44.06436" lon="7.5485">
        <ele>1136.5631103516</ele>
        <time>2018-11-07T17:22:47.658Z</time>
      </trkpt>
      <trkpt lat="44.06462" lon="7.54808">
        <ele>1144.5201416016</ele>
        <time>2018-11-07T17:22:50.803Z</time>
      </trkpt>
      <trkpt lat="44.06479" lon="7.54779">
        <ele>1150.4077148438</ele>
        <time>2018-11-07T17:22:53.952Z</time>
      </trkpt>
      <trkpt lat="44.06494" lon="7.54762">
        <ele>1150.2037353516</ele>
        <time>2018-11-07T17:22:57.104Z</time>
      </trkpt>
      <trkpt lat="44.06545" lon="7.54723">
        <ele>1150.9840087891</ele>
        <time>2018-11-07T17:23:00.266Z</time>
      </trkpt>
      <trkpt lat="44.06555" lon="7.54718">
        <ele>1152.3038330078</ele>
        <time>2018-11-07T17:23:03.429Z</time>
      </trkpt>
      <trkpt lat="44.06565" lon="7.54716">
        <ele>1152.3997802734</ele>
        <time>2018-11-07T17:23:06.594Z</time>
      </trkpt>
      <trkpt lat="44.06594" lon="7.54722">
        <ele>1145.9418945312</ele>
        <time>2018-11-07T17:23:09.764Z</time>
      </trkpt>
      <trkpt lat="44.06605" lon="7.54718">
        <ele>1144.6220703125</ele>
        <time>2018-11-07T17:23:12.935Z</time>
      </trkpt>
      <trkpt lat="44.06618" lon="7.54704">
        <ele>1145.6124267578</ele>
        <time>2018-11-07T17:23:16.109Z</time>
      </trkpt>
      <trkpt lat="44.06634" lon="7.54667">
        <ele>1153.9100341797</ele>
        <time>2018-11-07T17:23:19.288Z</time>
      </trkpt>
      <trkpt lat="44.06648" lon="7.54617">
        <ele>1167.5126953125</ele>
        <time>2018-11-07T17:23:22.473Z</time>
      </trkpt>
      <trkpt lat="44.06652" lon="7.54599">
        <ele>1169.9123535156</ele>
        <time>2018-11-07T17:23:25.660Z</time>
      </trkpt>
      <trkpt lat="44.06655" lon="7.5459">
        <ele>1170.7667236328</ele>
        <time>2018-11-07T17:23:28.849Z</time>
      </trkpt>
      <trkpt lat="44.06659" lon="7.5458">
        <ele>1172.5511474609</ele>
        <time>2018-11-07T17:23:32.039Z</time>
      </trkpt>
      <trkpt lat="44.06667" lon="7.54571">
        <ele>1174.0029296875</ele>
        <time>2018-11-07T17:23:35.231Z</time>
      </trkpt>
      <trkpt lat="44.06684" lon="7.54561">
        <ele>1171.0709228516</ele>
        <time>2018-11-07T17:23:38.425Z</time>
      </trkpt>
      <trkpt lat="44.06704" lon="7.54555">
        <ele>1163.9345703125</ele>
        <time>2018-11-07T17:23:41.623Z</time>
      </trkpt>
      <trkpt lat="44.06715" lon="7.54544">
        <ele>1161.8228759766</ele>
        <time>2018-11-07T17:23:44.823Z</time>
      </trkpt>
      <trkpt lat="44.06717" lon="7.54532">
        <ele>1163.7186279297</ele>
        <time>2018-11-07T17:23:48.024Z</time>
      </trkpt>
      <trkpt lat="44.06719" lon="7.54497">
        <ele>1171.2641601562</ele>
        <time>2018-11-07T17:23:51.229Z</time>
      </trkpt>
      <trkpt lat="44.06726" lon="7.54465">
        <ele>1179.0748291016</ele>
        <time>2018-11-07T17:23:54.438Z</time>
      </trkpt>
      <trkpt lat="44.06758" lon="7.54363">
        <ele>1187.0344238281</ele>
        <time>2018-11-07T17:23:57.660Z</time>
      </trkpt>
      <trkpt lat="44.06768" lon="7.54328">
        <ele>1189.4466552734</ele>
        <time>2018-11-07T17:24:00.886Z</time>
      </trkpt>
      <trkpt lat="44.06775" lon="7.54286">
        <ele>1191.5555419922</ele>
        <time>2018-11-07T17:24:04.117Z</time>
      </trkpt>
      <trkpt lat="44.0678" lon="7.54244">
        <ele>1194.6705322266</ele>
        <time>2018-11-07T17:24:07.353Z</time>
      </trkpt>
      <trkpt lat="44.0678" lon="7.54199">
        <ele>1198.4499511719</ele>
        <time>2018-11-07T17:24:10.595Z</time>
      </trkpt>
      <trkpt lat="44.06784" lon="7.54183">
        <ele>1197.8260498047</ele>
        <time>2018-11-07T17:24:13.838Z</time>
      </trkpt>
      <trkpt lat="44.06804" lon="7.54141">
        <ele>1192.2540283203</ele>
        <time>2018-11-07T17:24:17.087Z</time>
      </trkpt>
      <trkpt lat="44.06812" lon="7.54116">
        <ele>1190.02734375</ele>
        <time>2018-11-07T17:24:20.339Z</time>
      </trkpt>
      <trkpt lat="44.06818" lon="7.54075">
        <ele>1191.8031005859</ele>
        <time>2018-11-07T17:24:23.596Z</time>
      </trkpt>
      <trkpt lat="44.06818" lon="7.54041">
        <ele>1195.0296630859</ele>
        <time>2018-11-07T17:24:26.857Z</time>
      </trkpt>
      <trkpt lat="44.06809" lon="7.53985">
        <ele>1203.6455078125</ele>
        <time>2018-11-07T17:24:30.125Z</time>
      </trkpt>
      <trkpt lat="44.06808" lon="7.53958">
        <ele>1207.9167480469</ele>
        <time>2018-11-07T17:24:33.396Z</time>
      </trkpt>
      <trkpt lat="44.06811" lon="7.53942">
        <ele>1207.9685058594</ele>
        <time>2018-11-07T17:24:36.669Z</time>
      </trkpt>
      <trkpt lat="44.06823" lon="7.53911">
        <ele>1203.5614013672</ele>
        <time>2018-11-07T17:24:39.946Z</time>
      </trkpt>
      <trkpt lat="44.06831" lon="7.53889">
        <ele>1201.7377929688</ele>
        <time>2018-11-07T17:24:43.226Z</time>
      </trkpt>
      <trkpt lat="44.0683" lon="7.53862">
        <ele>1203.2711181641</ele>
        <time>2018-11-07T17:24:46.509Z</time>
      </trkpt>
      <trkpt lat="44.06823" lon="7.53838">
        <ele>1207.9982910156</ele>
        <time>2018-11-07T17:24:49.795Z</time>
      </trkpt>
      <trkpt lat="44.0682" lon="7.53833">
        <ele>1209.7746582031</ele>
        <time>2018-11-07T17:24:53.082Z</time>
      </trkpt>
      <trkpt lat="44.06816" lon="7.53833">
        <ele>1211.9822998047</ele>
        <time>2018-11-07T17:24:56.369Z</time>
      </trkpt>
      <trkpt lat="44.06813" lon="7.53839">
        <ele>1213.4814453125</ele>
        <time>2018-11-07T17:24:59.657Z</time>
      </trkpt>
      <trkpt lat="44.06817" lon="7.53861">
        <ele>1210.4819335938</ele>
        <time>2018-11-07T17:25:02.948Z</time>
      </trkpt>
      <trkpt lat="44.06821" lon="7.53876">
        <ele>1207.734375</ele>
        <time>2018-11-07T17:25:06.241Z</time>
      </trkpt>
      <trkpt lat="44.06821" lon="7.53884">
        <ele>1207.1368408203</ele>
        <time>2018-11-07T17:25:09.534Z</time>
      </trkpt>
      <trkpt lat="44.06817" lon="7.53888">
        <ele>1208.7205810547</ele>
        <time>2018-11-07T17:25:12.828Z</time>
      </trkpt>
      <trkpt lat="44.06813" lon="7.53888">
        <ele>1210.6882324219</ele>
        <time>2018-11-07T17:25:16.123Z</time>
      </trkpt>
      <trkpt lat="44.0681" lon="7.53884">
        <ele>1212.5479736328</ele>
        <time>2018-11-07T17:25:19.419Z</time>
      </trkpt>
      <trkpt lat="44.06806" lon="7.53865">
        <ele>1216.3393554688</ele>
        <time>2018-11-07T17:25:22.717Z</time>
      </trkpt>
      <trkpt lat="44.06801" lon="7.53817">
        <ele>1219.876953125</ele>
        <time>2018-11-07T17:25:26.020Z</time>
      </trkpt>
      <trkpt lat="44.06796" lon="7.5379">
        <ele>1221.9886474609</ele>
        <time>2018-11-07T17:25:29.327Z</time>
      </trkpt>
      <trkpt lat="44.06769" lon="7.53695">
        <ele>1236.4417724609</ele>
        <time>2018-11-07T17:25:32.645Z</time>
      </trkpt>
      <trkpt lat="44.06766" lon="7.53689">
        <ele>1238.0974121094</ele>
        <time>2018-11-07T17:25:35.964Z</time>
      </trkpt>
      <trkpt lat="44.0676" lon="7.5369">
        <ele>1241.2529296875</ele>
        <time>2018-11-07T17:25:39.284Z</time>
      </trkpt>
      <trkpt lat="44.06757" lon="7.53695">
        <ele>1242.7767333984</ele>
        <time>2018-11-07T17:25:42.605Z</time>
      </trkpt>
      <trkpt lat="44.06758" lon="7.53702">
        <ele>1242.1647949219</ele>
        <time>2018-11-07T17:25:45.927Z</time>
      </trkpt>
      <trkpt lat="44.06764" lon="7.53738">
        <ele>1238.5654296875</ele>
        <time>2018-11-07T17:25:49.253Z</time>
      </trkpt>
      <trkpt lat="44.06764" lon="7.5378">
        <ele>1238.9724121094</ele>
        <time>2018-11-07T17:25:52.584Z</time>
      </trkpt>
      <trkpt lat="44.06759" lon="7.53817">
        <ele>1242.4340820312</ele>
        <time>2018-11-07T17:25:55.919Z</time>
      </trkpt>
      <trkpt lat="44.06753" lon="7.53849">
        <ele>1243.6689453125</ele>
        <time>2018-11-07T17:25:59.258Z</time>
      </trkpt>
      <trkpt lat="44.06747" lon="7.53887">
        <ele>1242.9011230469</ele>
        <time>2018-11-07T17:26:02.602Z</time>
      </trkpt>
      <trkpt lat="44.06745" lon="7.53894">
        <ele>1243.1890869141</ele>
        <time>2018-11-07T17:26:05.946Z</time>
      </trkpt>
      <trkpt lat="44.06737" lon="7.53904">
        <ele>1246.0686035156</ele>
        <time>2018-11-07T17:26:09.292Z</time>
      </trkpt>
      <trkpt lat="44.06727" lon="7.53912">
        <ele>1250.0998535156</ele>
        <time>2018-11-07T17:26:12.640Z</time>
      </trkpt>
      <trkpt lat="44.06714" lon="7.53928">
        <ele>1254.2913818359</ele>
        <time>2018-11-07T17:26:15.991Z</time>
      </trkpt>
      <trkpt lat="44.06699" lon="7.53955">
        <ele>1257.9803466797</ele>
        <time>2018-11-07T17:26:19.346Z</time>
      </trkpt>
      <trkpt lat="44.06676" lon="7.54015">
        <ele>1265.7438964844</ele>
        <time>2018-11-07T17:26:22.709Z</time>
      </trkpt>
      <trkpt lat="44.06668" lon="7.54072">
        <ele>1269.6552734375</ele>
        <time>2018-11-07T17:26:26.078Z</time>
      </trkpt>
      <trkpt lat="44.06658" lon="7.54174">
        <ele>1273.0795898438</ele>
        <time>2018-11-07T17:26:29.459Z</time>
      </trkpt>
      <trkpt lat="44.06653" lon="7.54223">
        <ele>1272.0689697266</ele>
        <time>2018-11-07T17:26:32.846Z</time>
      </trkpt>
      <trkpt lat="44.06643" lon="7.54272">
        <ele>1273.1640625</ele>
        <time>2018-11-07T17:26:36.239Z</time>
      </trkpt>
      <trkpt lat="44.06635" lon="7.54297">
        <ele>1272.6063232422</ele>
        <time>2018-11-07T17:26:39.635Z</time>
      </trkpt>
      <trkpt lat="44.06621" lon="7.54321">
        <ele>1273.4942626953</ele>
        <time>2018-11-07T17:26:43.034Z</time>
      </trkpt>
      <trkpt lat="44.06611" lon="7.54346">
        <ele>1271.0208740234</ele>
        <time>2018-11-07T17:26:46.437Z</time>
      </trkpt>
      <trkpt lat="44.066" lon="7.54365">
        <ele>1271.2204589844</ele>
        <time>2018-11-07T17:26:49.843Z</time>
      </trkpt>
      <trkpt lat="44.06568" lon="7.54413">
        <ele>1272.3333740234</ele>
        <time>2018-11-07T17:26:53.256Z</time>
      </trkpt>
      <trkpt lat="44.06563" lon="7.54416">
        <ele>1273.9411621094</ele>
        <time>2018-11-07T17:26:56.670Z</time>
      </trkpt>
      <trkpt lat="44.06559" lon="7.54415">
        <ele>1276.7366943359</ele>
        <time>2018-11-07T17:27:00.085Z</time>
      </trkpt>
      <trkpt lat="44.06557" lon="7.5441">
        <ele>1280.1320800781</ele>
        <time>2018-11-07T17:27:03.500Z</time>
      </trkpt>
      <trkpt lat="44.0656" lon="7.54402">
        <ele>1281.9197998047</ele>
        <time>2018-11-07T17:27:06.916Z</time>
      </trkpt>
      <trkpt lat="44.06583" lon="7.54378">
        <ele>1277.9633789062</ele>
        <time>2018-11-07T17:27:10.337Z</time>
      </trkpt>
      <trkpt lat="44.06595" lon="7.54356">
        <ele>1277.8194580078</ele>
        <time>2018-11-07T17:27:13.761Z</time>
      </trkpt>
      <trkpt lat="44.06604" lon="7.5433">
        <ele>1280.9354248047</ele>
        <time>2018-11-07T17:27:17.188Z</time>
      </trkpt>
      <trkpt lat="44.06624" lon="7.54254">
        <ele>1287.8736572266</ele>
        <time>2018-11-07T17:27:20.625Z</time>
      </trkpt>
      <trkpt lat="44.06628" lon="7.54219">
        <ele>1289.3460693359</ele>
        <time>2018-11-07T17:27:24.066Z</time>
      </trkpt>
      <trkpt lat="44.06627" lon="7.54164">
        <ele>1295.580078125</ele>
        <time>2018-11-07T17:27:27.513Z</time>
      </trkpt>
      <trkpt lat="44.06613" lon="7.54012">
        <ele>1307.3890380859</ele>
        <time>2018-11-07T17:27:30.978Z</time>
      </trkpt>
      <trkpt lat="44.06613" lon="7.53966">
        <ele>1310.1573486328</ele>
        <time>2018-11-07T17:27:34.448Z</time>
      </trkpt>
      <trkpt lat="44.0662" lon="7.53917">
        <ele>1309.7061767578</ele>
        <time>2018-11-07T17:27:37.924Z</time>
      </trkpt>
      <trkpt lat="44.06621" lon="7.53855">
        <ele>1315.0572509766</ele>
        <time>2018-11-07T17:27:41.407Z</time>
      </trkpt>
      <trkpt lat="44.0662" lon="7.53798">
        <ele>1320.2646484375</ele>
        <time>2018-11-07T17:27:44.897Z</time>
      </trkpt>
      <trkpt lat="44.06613" lon="7.53715">
        <ele>1328.0881347656</ele>
        <time>2018-11-07T17:27:48.396Z</time>
      </trkpt>
      <trkpt lat="44.06608" lon="7.53684">
        <ele>1331.9340820312</ele>
        <time>2018-11-07T17:27:51.899Z</time>
      </trkpt>
      <trkpt lat="44.06598" lon="7.53659">
        <ele>1341.1274414062</ele>
        <time>2018-11-07T17:27:55.405Z</time>
      </trkpt>
      <trkpt lat="44.06595" lon="7.53637">
        <ele>1345.4942626953</ele>
        <time>2018-11-07T17:27:58.914Z</time>
      </trkpt>
      <trkpt lat="44.06596" lon="7.53566">
        <ele>1352.0144042969</ele>
        <time>2018-11-07T17:28:02.431Z</time>
      </trkpt>
      <trkpt lat="44.06595" lon="7.53557">
        <ele>1354.2438964844</ele>
        <time>2018-11-07T17:28:05.949Z</time>
      </trkpt>
      <trkpt lat="44.06595" lon="7.53554">
        <ele>1355.0499267578</ele>
        <time>2018-11-07T17:28:09.467Z</time>
      </trkpt>
      <trkpt lat="44.066" lon="7.53529">
        <ele>1355.169921875</ele>
        <time>2018-11-07T17:28:12.988Z</time>
      </trkpt>
      <trkpt lat="44.06631" lon="7.53409">
        <ele>1355.2943115234</ele>
        <time>2018-11-07T17:28:16.524Z</time>
      </trkpt>
      <trkpt lat="44.06636" lon="7.53379">
        <ele>1356.4940185547</ele>
        <time>2018-11-07T17:28:20.064Z</time>
      </trkpt>
      <trkpt lat="44.06646" lon="7.53343">
        <ele>1357.78515625</ele>
        <time>2018-11-07T17:28:23.608Z</time>
      </trkpt>
      <trkpt lat="44.06667" lon="7.533">
        <ele>1356.5433349609</ele>
        <time>2018-11-07T17:28:27.158Z</time>
      </trkpt>
      <trkpt lat="44.06672" lon="7.53272">
        <ele>1360.0827636719</ele>
        <time>2018-11-07T17:28:30.711Z</time>
      </trkpt>
      <trkpt lat="44.06683" lon="7.53202">
        <ele>1369.3079833984</ele>
        <time>2018-11-07T17:28:34.273Z</time>
      </trkpt>
      <trkpt lat="44.06699" lon="7.53142">
        <ele>1373.0902099609</ele>
        <time>2018-11-07T17:28:37.842Z</time>
      </trkpt>
      <trkpt lat="44.06723" lon="7.53061">
        <ele>1378.5590820312</ele>
        <time>2018-11-07T17:28:41.421Z</time>
      </trkpt>
      <trkpt lat="44.06723" lon="7.53022">
        <ele>1386.7673339844</ele>
        <time>2018-11-07T17:28:45.005Z</time>
      </trkpt>
      <trkpt lat="44.06721" lon="7.53">
        <ele>1390.8507080078</ele>
        <time>2018-11-07T17:28:48.591Z</time>
      </trkpt>
      <trkpt lat="44.06726" lon="7.52953">
        <ele>1403.2447509766</ele>
        <time>2018-11-07T17:28:52.183Z</time>
      </trkpt>
      <trkpt lat="44.06738" lon="7.52894">
        <ele>1409.7093505859</ele>
        <time>2018-11-07T17:28:55.782Z</time>
      </trkpt>
      <trkpt lat="44.06752" lon="7.52848">
        <ele>1413.2353515625</ele>
        <time>2018-11-07T17:28:59.387Z</time>
      </trkpt>
      <trkpt lat="44.06763" lon="7.5283">
        <ele>1408.9031982422</ele>
        <time>2018-11-07T17:29:02.994Z</time>
      </trkpt>
      <trkpt lat="44.06769" lon="7.52823">
        <ele>1406.1000976562</ele>
        <time>2018-11-07T17:29:06.603Z</time>
      </trkpt>
      <trkpt lat="44.06791" lon="7.52794">
        <ele>1403.611328125</ele>
        <time>2018-11-07T17:29:10.216Z</time>
      </trkpt>
      <trkpt lat="44.06806" lon="7.52774">
        <ele>1402.7641601562</ele>
        <time>2018-11-07T17:29:13.833Z</time>
      </trkpt>
      <trkpt lat="44.0682" lon="7.52762">
        <ele>1396.7651367188</ele>
        <time>2018-11-07T17:29:17.452Z</time>
      </trkpt>
      <trkpt lat="44.06839" lon="7.52748">
        <ele>1387.4810791016</ele>
        <time>2018-11-07T17:29:21.075Z</time>
      </trkpt>
      <trkpt lat="44.0685" lon="7.52735">
        <ele>1383.0772705078</ele>
        <time>2018-11-07T17:29:24.700Z</time>
      </trkpt>
      <trkpt lat="44.069" lon="7.52633">
        <ele>1386.4943847656</ele>
        <time>2018-11-07T17:29:28.339Z</time>
      </trkpt>
      <trkpt lat="44.06907" lon="7.52605">
        <ele>1387.7525634766</ele>
        <time>2018-11-07T17:29:31.982Z</time>
      </trkpt>
      <trkpt lat="44.06913" lon="7.52562">
        <ele>1391.4359130859</ele>
        <time>2018-11-07T17:29:35.630Z</time>
      </trkpt>
      <trkpt lat="44.06912" lon="7.52482">
        <ele>1400.4169921875</ele>
        <time>2018-11-07T17:29:39.287Z</time>
      </trkpt>
      <trkpt lat="44.06912" lon="7.52475">
        <ele>1401.5339355469</ele>
        <time>2018-11-07T17:29:42.945Z</time>
      </trkpt>
      <trkpt lat="44.06911" lon="7.5243">
        <ele>1406.6276855469</ele>
        <time>2018-11-07T17:29:46.608Z</time>
      </trkpt>
      <trkpt lat="44.06914" lon="7.524">
        <ele>1408.4554443359</ele>
        <time>2018-11-07T17:29:50.275Z</time>
      </trkpt>
      <trkpt lat="44.06927" lon="7.52357">
        <ele>1407.5974121094</ele>
        <time>2018-11-07T17:29:53.947Z</time>
      </trkpt>
      <trkpt lat="44.06937" lon="7.52318">
        <ele>1408.4083251953</ele>
        <time>2018-11-07T17:29:57.624Z</time>
      </trkpt>
      <trkpt lat="44.06946" lon="7.52289">
        <ele>1408.7641601562</ele>
        <time>2018-11-07T17:30:01.304Z</time>
      </trkpt>
      <trkpt lat="44.06963" lon="7.52257">
        <ele>1406.2879638672</ele>
        <time>2018-11-07T17:30:04.989Z</time>
      </trkpt>
      <trkpt lat="44.06982" lon="7.52223">
        <ele>1402.5268554688</ele>
        <time>2018-11-07T17:30:08.679Z</time>
      </trkpt>
      <trkpt lat="44.06997" lon="7.5219">
        <ele>1405.4208984375</ele>
        <time>2018-11-07T17:30:12.373Z</time>
      </trkpt>
      <trkpt lat="44.0701" lon="7.52178">
        <ele>1404.4731445312</ele>
        <time>2018-11-07T17:30:16.070Z</time>
      </trkpt>
      <trkpt lat="44.0704" lon="7.52172">
        <ele>1398.1512451172</ele>
        <time>2018-11-07T17:30:19.772Z</time>
      </trkpt>
      <trkpt lat="44.07075" lon="7.52165">
        <ele>1391.2445068359</ele>
        <time>2018-11-07T17:30:23.479Z</time>
      </trkpt>
      <trkpt lat="44.07105" lon="7.52148">
        <ele>1390.2598876953</ele>
        <time>2018-11-07T17:30:27.192Z</time>
      </trkpt>
      <trkpt lat="44.07134" lon="7.5215">
        <ele>1389.3980712891</ele>
        <time>2018-11-07T17:30:30.909Z</time>
      </trkpt>
      <trkpt lat="44.07145" lon="7.52148">
        <ele>1390.7537841797</ele>
        <time>2018-11-07T17:30:34.628Z</time>
      </trkpt>
      <trkpt lat="44.07175" lon="7.52149">
        <ele>1392.1903076172</ele>
        <time>2018-11-07T17:30:38.352Z</time>
      </trkpt>
      <trkpt lat="44.07181" lon="7.5215">
        <ele>1391.8352050781</ele>
        <time>2018-11-07T17:30:42.077Z</time>
      </trkpt>
      <trkpt lat="44.07181" lon="7.5215">
        <ele>1391.8349609375</ele>
        <time>2018-11-07T17:30:45.802Z</time>
      </trkpt>
      <trkpt lat="44.07193" lon="7.52151">
        <ele>1391.0549316406</ele>
        <time>2018-11-07T17:30:49.529Z</time>
      </trkpt>
      <trkpt lat="44.07204" lon="7.52149">
        <ele>1392.7467041016</ele>
        <time>2018-11-07T17:30:53.257Z</time>
      </trkpt>
      <trkpt lat="44.07214" lon="7.52142">
        <ele>1395.5902099609</ele>
        <time>2018-11-07T17:30:56.987Z</time>
      </trkpt>
      <trkpt lat="44.07221" lon="7.5213">
        <ele>1399.3696289062</ele>
        <time>2018-11-07T17:31:00.719Z</time>
      </trkpt>
      <trkpt lat="44.07247" lon="7.52091">
        <ele>1408.0718994141</ele>
        <time>2018-11-07T17:31:04.457Z</time>
      </trkpt>
      <trkpt lat="44.0726" lon="7.52079">
        <ele>1411.7521972656</ele>
        <time>2018-11-07T17:31:08.198Z</time>
      </trkpt>
      <trkpt lat="44.07266" lon="7.52075">
        <ele>1413.7198486328</ele>
        <time>2018-11-07T17:31:11.940Z</time>
      </trkpt>
      <trkpt lat="44.07267" lon="7.5207">
        <ele>1415.9163818359</ele>
        <time>2018-11-07T17:31:15.682Z</time>
      </trkpt>
      <trkpt lat="44.07265" lon="7.52064">
        <ele>1418.5079345703</ele>
        <time>2018-11-07T17:31:19.425Z</time>
      </trkpt>
      <trkpt lat="44.07258" lon="7.52064">
        <ele>1418.5079345703</ele>
        <time>2018-11-07T17:31:23.169Z</time>
      </trkpt>
      <trkpt lat="44.07242" lon="7.52079">
        <ele>1411.3203125</ele>
        <time>2018-11-07T17:31:26.916Z</time>
      </trkpt>
      <trkpt lat="44.07213" lon="7.5211">
        <ele>1403.544921875</ele>
        <time>2018-11-07T17:31:30.669Z</time>
      </trkpt>
      <trkpt lat="44.07208" lon="7.5211">
        <ele>1403.0050048828</ele>
        <time>2018-11-07T17:31:34.423Z</time>
      </trkpt>
      <trkpt lat="44.07206" lon="7.52103">
        <ele>1404.552734375</ele>
        <time>2018-11-07T17:31:38.178Z</time>
      </trkpt>
      <trkpt lat="44.07207" lon="7.52099">
        <ele>1405.6685791016</ele>
        <time>2018-11-07T17:31:41.933Z</time>
      </trkpt>
      <trkpt lat="44.07211" lon="7.52095">
        <ele>1406.5361328125</ele>
        <time>2018-11-07T17:31:45.689Z</time>
      </trkpt>
      <trkpt lat="44.07226" lon="7.52086">
        <ele>1408.4078369141</ele>
        <time>2018-11-07T17:31:49.448Z</time>
      </trkpt>
      <trkpt lat="44.0723" lon="7.52077">
        <ele>1411.9442138672</ele>
        <time>2018-11-07T17:31:53.208Z</time>
      </trkpt>
      <trkpt lat="44.07228" lon="7.52071">
        <ele>1414.6317138672</ele>
        <time>2018-11-07T17:31:56.969Z</time>
      </trkpt>
      <trkpt lat="44.07224" lon="7.52071">
        <ele>1414.5357666016</ele>
        <time>2018-11-07T17:32:00.730Z</time>
      </trkpt>
      <trkpt lat="44.07215" lon="7.52078">
        <ele>1411.1282958984</ele>
        <time>2018-11-07T17:32:04.493Z</time>
      </trkpt>
      <trkpt lat="44.07202" lon="7.52086">
        <ele>1407.8319091797</ele>
        <time>2018-11-07T17:32:08.258Z</time>
      </trkpt>
      <trkpt lat="44.07185" lon="7.52088">
        <ele>1407.1998291016</ele>
        <time>2018-11-07T17:32:12.026Z</time>
      </trkpt>
      <trkpt lat="44.07167" lon="7.52086">
        <ele>1408.3515625</ele>
        <time>2018-11-07T17:32:15.797Z</time>
      </trkpt>
      <trkpt lat="44.07161" lon="7.52082">
        <ele>1409.6772460938</ele>
        <time>2018-11-07T17:32:19.569Z</time>
      </trkpt>
      <trkpt lat="44.07159" lon="7.52079">
        <ele>1410.6850585938</ele>
        <time>2018-11-07T17:32:23.341Z</time>
      </trkpt>
      <trkpt lat="44.07159" lon="7.52073">
        <ele>1412.5567626953</ele>
        <time>2018-11-07T17:32:27.114Z</time>
      </trkpt>
      <trkpt lat="44.07164" lon="7.52069">
        <ele>1413.6245117188</ele>
        <time>2018-11-07T17:32:30.888Z</time>
      </trkpt>
      <trkpt lat="44.07189" lon="7.52075">
        <ele>1411.5458984375</ele>
        <time>2018-11-07T17:32:34.666Z</time>
      </trkpt>
      <trkpt lat="44.07195" lon="7.52075">
        <ele>1412.0161132812</ele>
        <time>2018-11-07T17:32:38.445Z</time>
      </trkpt>
      <trkpt lat="44.07201" lon="7.52071">
        <ele>1413.9837646484</ele>
        <time>2018-11-07T17:32:42.225Z</time>
      </trkpt>
      <trkpt lat="44.07213" lon="7.52061">
        <ele>1418.8310546875</ele>
        <time>2018-11-07T17:32:46.007Z</time>
      </trkpt>
      <trkpt lat="44.07233" lon="7.52046">
        <ele>1426.1497802734</ele>
        <time>2018-11-07T17:32:49.793Z</time>
      </trkpt>
      <trkpt lat="44.0724" lon="7.52043">
        <ele>1427.5783691406</ele>
        <time>2018-11-07T17:32:53.580Z</time>
      </trkpt>
      <trkpt lat="44.07247" lon="7.52041">
        <ele>1428.5534667969</ele>
        <time>2018-11-07T17:32:57.368Z</time>
      </trkpt>
      <trkpt lat="44.07247" lon="7.52041">
        <ele>1428.5543212891</ele>
        <time>2018-11-07T17:33:01.156Z</time>
      </trkpt>
      <trkpt lat="44.07262" lon="7.52036">
        <ele>1430.6019287109</ele>
        <time>2018-11-07T17:33:04.947Z</time>
      </trkpt>
      <trkpt lat="44.07306" lon="7.52026">
        <ele>1437.8391113281</ele>
        <time>2018-11-07T17:33:08.745Z</time>
      </trkpt>
      <trkpt lat="44.07336" lon="7.52023">
        <ele>1439.9987792969</ele>
        <time>2018-11-07T17:33:12.548Z</time>
      </trkpt>
      <trkpt lat="44.07344" lon="7.52025">
        <ele>1439.5667724609</ele>
        <time>2018-11-07T17:33:16.352Z</time>
      </trkpt>
      <trkpt lat="44.07399" lon="7.52042">
        <ele>1439.6842041016</ele>
        <time>2018-11-07T17:33:20.165Z</time>
      </trkpt>
      <trkpt lat="44.07424" lon="7.52047">
        <ele>1443.6159667969</ele>
        <time>2018-11-07T17:33:23.982Z</time>
      </trkpt>
      <trkpt lat="44.07435" lon="7.52053">
        <ele>1443.6400146484</ele>
        <time>2018-11-07T17:33:27.801Z</time>
      </trkpt>
      <trkpt lat="44.07444" lon="7.5206">
        <ele>1442.6175537109</ele>
        <time>2018-11-07T17:33:31.622Z</time>
      </trkpt>
      <trkpt lat="44.07464" lon="7.52075">
        <ele>1439.9779052734</ele>
        <time>2018-11-07T17:33:35.446Z</time>
      </trkpt>
      <trkpt lat="44.07486" lon="7.52083">
        <ele>1441.1538085938</ele>
        <time>2018-11-07T17:33:39.274Z</time>
      </trkpt>
      <trkpt lat="44.075" lon="7.52083">
        <ele>1444.3452148438</ele>
        <time>2018-11-07T17:33:43.104Z</time>
      </trkpt>
      <trkpt lat="44.07522" lon="7.52078">
        <ele>1451.8111572266</ele>
        <time>2018-11-07T17:33:46.938Z</time>
      </trkpt>
      <trkpt lat="44.07537" lon="7.52075">
        <ele>1456.16015625</ele>
        <time>2018-11-07T17:33:50.774Z</time>
      </trkpt>
      <trkpt lat="44.07558" lon="7.52076">
        <ele>1458.9196777344</ele>
        <time>2018-11-07T17:33:54.614Z</time>
      </trkpt>
      <trkpt lat="44.07583" lon="7.52086">
        <ele>1458.8477783203</ele>
        <time>2018-11-07T17:33:58.458Z</time>
      </trkpt>
      <trkpt lat="44.07601" lon="7.521">
        <ele>1461.6552734375</ele>
        <time>2018-11-07T17:34:02.305Z</time>
      </trkpt>
      <trkpt lat="44.07627" lon="7.52119">
        <ele>1465.0850830078</ele>
        <time>2018-11-07T17:34:06.157Z</time>
      </trkpt>
      <trkpt lat="44.07638" lon="7.5213">
        <ele>1466.4049072266</ele>
        <time>2018-11-07T17:34:10.011Z</time>
      </trkpt>
      <trkpt lat="44.0765" lon="7.52152">
        <ele>1467.8446044922</ele>
        <time>2018-11-07T17:34:13.868Z</time>
      </trkpt>
      <trkpt lat="44.07664" lon="7.52169">
        <ele>1470.3688964844</ele>
        <time>2018-11-07T17:34:17.728Z</time>
      </trkpt>
      <trkpt lat="44.07673" lon="7.52176">
        <ele>1474.4721679688</ele>
        <time>2018-11-07T17:34:21.590Z</time>
      </trkpt>
      <trkpt lat="44.07684" lon="7.52178">
        <ele>1476.6558837891</ele>
        <time>2018-11-07T17:34:25.453Z</time>
      </trkpt>
      <trkpt lat="44.07716" lon="7.52175">
        <ele>1476.7678222656</ele>
        <time>2018-11-07T17:34:29.322Z</time>
      </trkpt>
      <trkpt lat="44.07743" lon="7.52165">
        <ele>1476.3448486328</ele>
        <time>2018-11-07T17:34:33.195Z</time>
      </trkpt>
      <trkpt lat="44.07763" lon="7.52162">
        <ele>1478.0485839844</ele>
        <time>2018-11-07T17:34:37.071Z</time>
      </trkpt>
      <trkpt lat="44.07779" lon="7.52159">
        <ele>1479.9947509766</ele>
        <time>2018-11-07T17:34:40.950Z</time>
      </trkpt>
      <trkpt lat="44.07792" lon="7.52152">
        <ele>1481.6024169922</ele>
        <time>2018-11-07T17:34:44.831Z</time>
      </trkpt>
      <trkpt lat="44.07812" lon="7.52132">
        <ele>1486.4016113281</ele>
        <time>2018-11-07T17:34:48.716Z</time>
      </trkpt>
      <trkpt lat="44.07815" lon="7.5213">
        <ele>1486.8696289062</ele>
        <time>2018-11-07T17:34:52.602Z</time>
      </trkpt>
      <trkpt lat="44.07822" lon="7.52123">
        <ele>1487.8499755859</ele>
        <time>2018-11-07T17:34:56.489Z</time>
      </trkpt>
      <trkpt lat="44.0783" lon="7.52115">
        <ele>1488.0521240234</ele>
        <time>2018-11-07T17:35:00.378Z</time>
      </trkpt>
      <trkpt lat="44.0786" lon="7.52096">
        <ele>1487.3176269531</ele>
        <time>2018-11-07T17:35:04.272Z</time>
      </trkpt>
      <trkpt lat="44.07891" lon="7.52076">
        <ele>1489.6928710938</ele>
        <time>2018-11-07T17:35:08.171Z</time>
      </trkpt>
      <trkpt lat="44.07932" lon="7.5204">
        <ele>1498.6614990234</ele>
        <time>2018-11-07T17:35:12.078Z</time>
      </trkpt>
      <trkpt lat="44.07976" lon="7.5201">
        <ele>1506.3031005859</ele>
        <time>2018-11-07T17:35:15.993Z</time>
      </trkpt>
      <trkpt lat="44.08018" lon="7.51992">
        <ele>1508.4106445312</ele>
        <time>2018-11-07T17:35:19.915Z</time>
      </trkpt>
      <trkpt lat="44.08048" lon="7.51983">
        <ele>1510.6507568359</ele>
        <time>2018-11-07T17:35:23.842Z</time>
      </trkpt>
      <trkpt lat="44.08072" lon="7.5198">
        <ele>1511.7305908203</ele>
        <time>2018-11-07T17:35:27.773Z</time>
      </trkpt>
      <trkpt lat="44.08106" lon="7.51977">
        <ele>1510.8046875</ele>
        <time>2018-11-07T17:35:31.709Z</time>
      </trkpt>
      <trkpt lat="44.08125" lon="7.51978">
        <ele>1511.5128173828</ele>
        <time>2018-11-07T17:35:35.648Z</time>
      </trkpt>
      <trkpt lat="44.08137" lon="7.51982">
        <ele>1511.2248535156</ele>
        <time>2018-11-07T17:35:39.589Z</time>
      </trkpt>
      <trkpt lat="44.08151" lon="7.51981">
        <ele>1512.9285888672</ele>
        <time>2018-11-07T17:35:43.532Z</time>
      </trkpt>
      <trkpt lat="44.08163" lon="7.51977">
        <ele>1515.5201416016</ele>
        <time>2018-11-07T17:35:47.477Z</time>
      </trkpt>
      <trkpt lat="44.08173" lon="7.51969">
        <ele>1518.0040283203</ele>
        <time>2018-11-07T17:35:51.424Z</time>
      </trkpt>
      <trkpt lat="44.08192" lon="7.51951">
        <ele>1521.8673095703</ele>
        <time>2018-11-07T17:35:55.375Z</time>
      </trkpt>
      <trkpt lat="44.08216" lon="7.51925">
        <ele>1525.8699951172</ele>
        <time>2018-11-07T17:35:59.331Z</time>
      </trkpt>
      <trkpt lat="44.08234" lon="7.51903">
        <ele>1529.1829833984</ele>
        <time>2018-11-07T17:36:03.291Z</time>
      </trkpt>
      <trkpt lat="44.08251" lon="7.51894">
        <ele>1530.3347167969</ele>
        <time>2018-11-07T17:36:07.254Z</time>
      </trkpt>
      <trkpt lat="44.08271" lon="7.5189">
        <ele>1526.5334472656</ele>
        <time>2018-11-07T17:36:11.220Z</time>
      </trkpt>
      <trkpt lat="44.08291" lon="7.51883">
        <ele>1526.4207763672</ele>
        <time>2018-11-07T17:36:15.189Z</time>
      </trkpt>
      <trkpt lat="44.08308" lon="7.51869">
        <ele>1530.2001953125</ele>
        <time>2018-11-07T17:36:19.161Z</time>
      </trkpt>
      <trkpt lat="44.08338" lon="7.51845">
        <ele>1529.3713378906</ele>
        <time>2018-11-07T17:36:23.139Z</time>
      </trkpt>
      <trkpt lat="44.08358" lon="7.51832">
        <ele>1528.1927490234</ele>
        <time>2018-11-07T17:36:27.120Z</time>
      </trkpt>
      <trkpt lat="44.08373" lon="7.51825">
        <ele>1527.3636474609</ele>
        <time>2018-11-07T17:36:31.104Z</time>
      </trkpt>
      <trkpt lat="44.08392" lon="7.5182">
        <ele>1525.3959960938</ele>
        <time>2018-11-07T17:36:35.091Z</time>
      </trkpt>
      <trkpt lat="44.08416" lon="7.51818">
        <ele>1521.4605712891</ele>
        <time>2018-11-07T17:36:39.082Z</time>
      </trkpt>
      <trkpt lat="44.0843" lon="7.51814">
        <ele>1519.5656738281</ele>
        <time>2018-11-07T17:36:43.075Z</time>
      </trkpt>
      <trkpt lat="44.08474" lon="7.51788">
        <ele>1523.6158447266</ele>
        <time>2018-11-07T17:36:47.076Z</time>
      </trkpt>
      <trkpt lat="44.08502" lon="7.51781">
        <ele>1524.0177001953</ele>
        <time>2018-11-07T17:36:51.081Z</time>
      </trkpt>
      <trkpt lat="44.08521" lon="7.51778">
        <ele>1523.6097412109</ele>
        <time>2018-11-07T17:36:55.089Z</time>
      </trkpt>
      <trkpt lat="44.08532" lon="7.51773">
        <ele>1524.1218261719</ele>
        <time>2018-11-07T17:36:59.099Z</time>
      </trkpt>
      <trkpt lat="44.08555" lon="7.51758">
        <ele>1523.8616943359</ele>
        <time>2018-11-07T17:37:03.113Z</time>
      </trkpt>
      <trkpt lat="44.0857" lon="7.51745">
        <ele>1524.6715087891</ele>
        <time>2018-11-07T17:37:07.130Z</time>
      </trkpt>
      <trkpt lat="44.08582" lon="7.51735">
        <ele>1527.6469726562</ele>
        <time>2018-11-07T17:37:11.149Z</time>
      </trkpt>
      <trkpt lat="44.08603" lon="7.51726">
        <ele>1527.5073242188</ele>
        <time>2018-11-07T17:37:15.172Z</time>
      </trkpt>
      <trkpt lat="44.08666" lon="7.51706">
        <ele>1528.4223632812</ele>
        <time>2018-11-07T17:37:19.205Z</time>
      </trkpt>
      <trkpt lat="44.08697" lon="7.51696">
        <ele>1523.6098632812</ele>
        <time>2018-11-07T17:37:23.243Z</time>
      </trkpt>
      <trkpt lat="44.08724" lon="7.51673">
        <ele>1525.48828125</ele>
        <time>2018-11-07T17:37:27.286Z</time>
      </trkpt>
      <trkpt lat="44.08733" lon="7.51667">
        <ele>1525.1284179688</ele>
        <time>2018-11-07T17:37:31.331Z</time>
      </trkpt>
      <trkpt lat="44.08751" lon="7.51658">
        <ele>1528.4577636719</ele>
        <time>2018-11-07T17:37:35.379Z</time>
      </trkpt>
      <trkpt lat="44.08768" lon="7.51653">
        <ele>1528.0386962891</ele>
        <time>2018-11-07T17:37:39.430Z</time>
      </trkpt>
      <trkpt lat="44.0879" lon="7.5164">
        <ele>1526.5269775391</ele>
        <time>2018-11-07T17:37:43.485Z</time>
      </trkpt>
      <trkpt lat="44.08844" lon="7.516">
        <ele>1529.7736816406</ele>
        <time>2018-11-07T17:37:47.549Z</time>
      </trkpt>
      <trkpt lat="44.08859" lon="7.51587">
        <ele>1530.5416259766</ele>
        <time>2018-11-07T17:37:51.616Z</time>
      </trkpt>
      <trkpt lat="44.08879" lon="7.5156">
        <ele>1537.7130126953</ele>
        <time>2018-11-07T17:37:55.688Z</time>
      </trkpt>
      <trkpt lat="44.08894" lon="7.51542">
        <ele>1542.7880859375</ele>
        <time>2018-11-07T17:37:59.763Z</time>
      </trkpt>
      <trkpt lat="44.08906" lon="7.51531">
        <ele>1543.3610839844</ele>
        <time>2018-11-07T17:38:03.840Z</time>
      </trkpt>
      <trkpt lat="44.08918" lon="7.51526">
        <ele>1541.4774169922</ele>
        <time>2018-11-07T17:38:07.919Z</time>
      </trkpt>
      <trkpt lat="44.08942" lon="7.51523">
        <ele>1536.1142578125</ele>
        <time>2018-11-07T17:38:12.002Z</time>
      </trkpt>
      <trkpt lat="44.08953" lon="7.51521">
        <ele>1536.455078125</ele>
        <time>2018-11-07T17:38:16.087Z</time>
      </trkpt>
      <trkpt lat="44.08953" lon="7.51521">
        <ele>1536.4556884766</ele>
        <time>2018-11-07T17:38:20.172Z</time>
      </trkpt>
      <trkpt lat="44.08974" lon="7.51516">
        <ele>1535.2485351562</ele>
        <time>2018-11-07T17:38:24.260Z</time>
      </trkpt>
      <trkpt lat="44.09001" lon="7.51501">
        <ele>1531.9371337891</ele>
        <time>2018-11-07T17:38:28.353Z</time>
      </trkpt>
      <trkpt lat="44.09025" lon="7.51486">
        <ele>1532.5104980469</ele>
        <time>2018-11-07T17:38:32.450Z</time>
      </trkpt>
      <trkpt lat="44.09077" lon="7.51458">
        <ele>1538.2125244141</ele>
        <time>2018-11-07T17:38:36.556Z</time>
      </trkpt>
      <trkpt lat="44.09119" lon="7.51436">
        <ele>1536.0338134766</ele>
        <time>2018-11-07T17:38:40.669Z</time>
      </trkpt>
      <trkpt lat="44.09134" lon="7.51422">
        <ele>1535.4041748047</ele>
        <time>2018-11-07T17:38:44.785Z</time>
      </trkpt>
      <trkpt lat="44.09151" lon="7.51399">
        <ele>1539.3134765625</ele>
        <time>2018-11-07T17:38:48.905Z</time>
      </trkpt>
      <trkpt lat="44.09181" lon="7.51342">
        <ele>1540.5334472656</ele>
        <time>2018-11-07T17:38:53.033Z</time>
      </trkpt>
      <trkpt lat="44.09197" lon="7.51322">
        <ele>1539.2297363281</ele>
        <time>2018-11-07T17:38:57.164Z</time>
      </trkpt>
      <trkpt lat="44.09213" lon="7.51307">
        <ele>1540.9215087891</ele>
        <time>2018-11-07T17:39:01.299Z</time>
      </trkpt>
      <trkpt lat="44.09265" lon="7.51272">
        <ele>1536.6853027344</ele>
        <time>2018-11-07T17:39:05.443Z</time>
      </trkpt>
      <trkpt lat="44.09288" lon="7.51241">
        <ele>1537.9128417969</ele>
        <time>2018-11-07T17:39:09.592Z</time>
      </trkpt>
      <trkpt lat="44.09295" lon="7.5123">
        <ele>1540.5333251953</ele>
        <time>2018-11-07T17:39:13.743Z</time>
      </trkpt>
      <trkpt lat="44.09302" lon="7.51219">
        <ele>1542.9520263672</ele>
        <time>2018-11-07T17:39:17.895Z</time>
      </trkpt>
      <trkpt lat="44.09334" lon="7.51157">
        <ele>1544.447265625</ele>
        <time>2018-11-07T17:39:22.056Z</time>
      </trkpt>
      <trkpt lat="44.09341" lon="7.5114">
        <ele>1546.5134277344</ele>
        <time>2018-11-07T17:39:26.219Z</time>
      </trkpt>
      <trkpt lat="44.09367" lon="7.51093">
        <ele>1549.6923828125</ele>
        <time>2018-11-07T17:39:30.389Z</time>
      </trkpt>
      <trkpt lat="44.09394" lon="7.51042">
        <ele>1554.0131835938</ele>
        <time>2018-11-07T17:39:34.566Z</time>
      </trkpt>
      <trkpt lat="44.09409" lon="7.51018">
        <ele>1552.2105712891</ele>
        <time>2018-11-07T17:39:38.747Z</time>
      </trkpt>
      <trkpt lat="44.0943" lon="7.50995">
        <ele>1547.4844970703</ele>
        <time>2018-11-07T17:39:42.932Z</time>
      </trkpt>
      <trkpt lat="44.09503" lon="7.50929">
        <ele>1546.828125</ele>
        <time>2018-11-07T17:39:47.131Z</time>
      </trkpt>
      <trkpt lat="44.09516" lon="7.50922">
        <ele>1544.7164306641</ele>
        <time>2018-11-07T17:39:51.333Z</time>
      </trkpt>
      <trkpt lat="44.09534" lon="7.5092">
        <ele>1543.6964111328</ele>
        <time>2018-11-07T17:39:55.537Z</time>
      </trkpt>
      <trkpt lat="44.09567" lon="7.50918">
        <ele>1545.0642089844</ele>
        <time>2018-11-07T17:39:59.747Z</time>
      </trkpt>
      <trkpt lat="44.09574" lon="7.50916">
        <ele>1545.4350585938</ele>
        <time>2018-11-07T17:40:03.958Z</time>
      </trkpt>
      <trkpt lat="44.09583" lon="7.50913">
        <ele>1546.4428710938</ele>
        <time>2018-11-07T17:40:08.170Z</time>
      </trkpt>
      <trkpt lat="44.09591" lon="7.50906">
        <ele>1548.1705322266</ele>
        <time>2018-11-07T17:40:12.384Z</time>
      </trkpt>
      <trkpt lat="44.09598" lon="7.50895">
        <ele>1549.6696777344</ele>
        <time>2018-11-07T17:40:16.600Z</time>
      </trkpt>
      <trkpt lat="44.09608" lon="7.50869">
        <ele>1551.6853027344</ele>
        <time>2018-11-07T17:40:20.819Z</time>
      </trkpt>
      <trkpt lat="44.0962" lon="7.50827">
        <ele>1555.3391113281</ele>
        <time>2018-11-07T17:40:25.043Z</time>
      </trkpt>
      <trkpt lat="44.09625" lon="7.50803">
        <ele>1557.7507324219</ele>
        <time>2018-11-07T17:40:29.270Z</time>
      </trkpt>
      <trkpt lat="44.0963" lon="7.50777">
        <ele>1560.3782958984</ele>
        <time>2018-11-07T17:40:33.500Z</time>
      </trkpt>
      <trkpt lat="44.09635" lon="7.50765">
        <ele>1559.7829589844</ele>
        <time>2018-11-07T17:40:37.732Z</time>
      </trkpt>
      <trkpt lat="44.09649" lon="7.5075">
        <ele>1556.0582275391</ele>
        <time>2018-11-07T17:40:41.967Z</time>
      </trkpt>
      <trkpt lat="44.09687" lon="7.50718">
        <ele>1554.5388183594</ele>
        <time>2018-11-07T17:40:46.209Z</time>
      </trkpt>
      <trkpt lat="44.0974" lon="7.50682">
        <ele>1556.1949462891</ele>
        <time>2018-11-07T17:40:50.460Z</time>
      </trkpt>
      <trkpt lat="44.09763" lon="7.50656">
        <ele>1557.3917236328</ele>
        <time>2018-11-07T17:40:54.716Z</time>
      </trkpt>
      <trkpt lat="44.0978" lon="7.50632">
        <ele>1558.3868408203</ele>
        <time>2018-11-07T17:40:58.976Z</time>
      </trkpt>
      <trkpt lat="44.09807" lon="7.50589">
        <ele>1562.3895263672</ele>
        <time>2018-11-07T17:41:03.242Z</time>
      </trkpt>
      <trkpt lat="44.09814" lon="7.50584">
        <ele>1561.93359375</ele>
        <time>2018-11-07T17:41:07.510Z</time>
      </trkpt>
      <trkpt lat="44.09817" lon="7.50583">
        <ele>1561.7180175781</ele>
        <time>2018-11-07T17:41:11.778Z</time>
      </trkpt>
      <trkpt lat="44.09827" lon="7.50585">
        <ele>1560.4698486328</ele>
        <time>2018-11-07T17:41:16.048Z</time>
      </trkpt>
      <trkpt lat="44.09837" lon="7.50586">
        <ele>1559.330078125</ele>
        <time>2018-11-07T17:41:20.319Z</time>
      </trkpt>
      <trkpt lat="44.09854" lon="7.50579">
        <ele>1558.39453125</ele>
        <time>2018-11-07T17:41:24.593Z</time>
      </trkpt>
      <trkpt lat="44.09865" lon="7.50576">
        <ele>1558.1710205078</ele>
        <time>2018-11-07T17:41:28.869Z</time>
      </trkpt>
      <trkpt lat="44.09865" lon="7.50576">
        <ele>1558.1716308594</ele>
        <time>2018-11-07T17:41:33.145Z</time>
      </trkpt>
      <trkpt lat="44.09869" lon="7.50575">
        <ele>1558.4322509766</ele>
        <time>2018-11-07T17:41:37.422Z</time>
      </trkpt>
      <trkpt lat="44.09895" lon="7.50574">
        <ele>1559.2001953125</ele>
        <time>2018-11-07T17:41:41.703Z</time>
      </trkpt>
      <trkpt lat="44.09922" lon="7.50577">
        <ele>1559.4161376953</ele>
        <time>2018-11-07T17:41:45.988Z</time>
      </trkpt>
      <trkpt lat="44.0993" lon="7.50582">
        <ele>1558.8881835938</ele>
        <time>2018-11-07T17:41:50.275Z</time>
      </trkpt>
      <trkpt lat="44.09934" lon="7.50587">
        <ele>1558.5626220703</ele>
        <time>2018-11-07T17:41:54.562Z</time>
      </trkpt>
      <trkpt lat="44.09942" lon="7.50591">
        <ele>1558.5146484375</ele>
        <time>2018-11-07T17:41:58.851Z</time>
      </trkpt>
      <trkpt lat="44.09957" lon="7.50589">
        <ele>1558.1447753906</ele>
        <time>2018-11-07T17:42:03.142Z</time>
      </trkpt>
      <trkpt lat="44.09967" lon="7.5058">
        <ele>1558.1129150391</ele>
        <time>2018-11-07T17:42:07.435Z</time>
      </trkpt>
      <trkpt lat="44.09969" lon="7.50559">
        <ele>1559.5286865234</ele>
        <time>2018-11-07T17:42:11.731Z</time>
      </trkpt>
      <trkpt lat="44.09971" lon="7.50535">
        <ele>1561.1604003906</ele>
        <time>2018-11-07T17:42:16.029Z</time>
      </trkpt>
      <trkpt lat="44.09975" lon="7.50525">
        <ele>1562.4178466797</ele>
        <time>2018-11-07T17:42:20.329Z</time>
      </trkpt>
      <trkpt lat="44.09988" lon="7.50512">
        <ele>1565.5373535156</ele>
        <time>2018-11-07T17:42:24.631Z</time>
      </trkpt>
      <trkpt lat="44.10007" lon="7.50486">
        <ele>1570.5104980469</ele>
        <time>2018-11-07T17:42:28.937Z</time>
      </trkpt>
      <trkpt lat="44.10036" lon="7.5046">
        <ele>1575.8421630859</ele>
        <time>2018-11-07T17:42:33.249Z</time>
      </trkpt>
      <trkpt lat="44.10049" lon="7.50453">
        <ele>1575.7702636719</ele>
        <time>2018-11-07T17:42:37.563Z</time>
      </trkpt>
      <trkpt lat="44.10062" lon="7.5045">
        <ele>1575.0263671875</ele>
        <time>2018-11-07T17:42:41.879Z</time>
      </trkpt>
      <trkpt lat="44.10083" lon="7.50454">
        <ele>1572.3387451172</ele>
        <time>2018-11-07T17:42:46.199Z</time>
      </trkpt>
      <trkpt lat="44.10119" lon="7.50441">
        <ele>1571.6046142578</ele>
        <time>2018-11-07T17:42:50.525Z</time>
      </trkpt>
      <trkpt lat="44.10147" lon="7.50433">
        <ele>1572.1890869141</ele>
        <time>2018-11-07T17:42:54.855Z</time>
      </trkpt>
      <trkpt lat="44.10182" lon="7.50416">
        <ele>1574.4177246094</ele>
        <time>2018-11-07T17:42:59.191Z</time>
      </trkpt>
      <trkpt lat="44.1021" lon="7.50399">
        <ele>1576.4112548828</ele>
        <time>2018-11-07T17:43:03.532Z</time>
      </trkpt>
      <trkpt lat="44.10228" lon="7.50381">
        <ele>1578.7868652344</ele>
        <time>2018-11-07T17:43:07.877Z</time>
      </trkpt>
      <trkpt lat="44.10255" lon="7.5036">
        <ele>1582.0388183594</ele>
        <time>2018-11-07T17:43:12.227Z</time>
      </trkpt>
      <trkpt lat="44.10278" lon="7.50338">
        <ele>1585.9013671875</ele>
        <time>2018-11-07T17:43:16.581Z</time>
      </trkpt>
      <trkpt lat="44.10297" lon="7.50325">
        <ele>1586.2233886719</ele>
        <time>2018-11-07T17:43:20.938Z</time>
      </trkpt>
      <trkpt lat="44.10306" lon="7.50321">
        <ele>1585.9234619141</ele>
        <time>2018-11-07T17:43:25.297Z</time>
      </trkpt>
      <trkpt lat="44.10317" lon="7.50316">
        <ele>1585.4967041016</ele>
        <time>2018-11-07T17:43:29.658Z</time>
      </trkpt>
      <trkpt lat="44.10317" lon="7.50316">
        <ele>1585.4963378906</ele>
        <time>2018-11-07T17:43:34.019Z</time>
      </trkpt>
      <trkpt lat="44.1034" lon="7.50307">
        <ele>1584.6795654297</ele>
        <time>2018-11-07T17:43:38.384Z</time>
      </trkpt>
      <trkpt lat="44.1036" lon="7.50299">
        <ele>1584.1997070312</ele>
        <time>2018-11-07T17:43:42.752Z</time>
      </trkpt>
      <trkpt lat="44.1041" lon="7.50283">
        <ele>1585.2625732422</ele>
        <time>2018-11-07T17:43:47.128Z</time>
      </trkpt>
      <trkpt lat="44.10458" lon="7.50261">
        <ele>1585.7253417969</ele>
        <time>2018-11-07T17:43:51.512Z</time>
      </trkpt>
      <trkpt lat="44.1048" lon="7.50241">
        <ele>1588.4184570312</ele>
        <time>2018-11-07T17:43:55.900Z</time>
      </trkpt>
      <trkpt lat="44.10507" lon="7.50206">
        <ele>1595.5213623047</ele>
        <time>2018-11-07T17:44:00.294Z</time>
      </trkpt>
      <trkpt lat="44.1052" lon="7.50184">
        <ele>1600.1765136719</ele>
        <time>2018-11-07T17:44:04.692Z</time>
      </trkpt>
      <trkpt lat="44.10529" lon="7.5016">
        <ele>1605.7193603516</ele>
        <time>2018-11-07T17:44:09.093Z</time>
      </trkpt>
      <trkpt lat="44.10537" lon="7.50138">
        <ele>1611.2624511719</ele>
        <time>2018-11-07T17:44:13.497Z</time>
      </trkpt>
      <trkpt lat="44.10546" lon="7.50125">
        <ele>1613.9739990234</ele>
        <time>2018-11-07T17:44:17.903Z</time>
      </trkpt>
      <trkpt lat="44.10573" lon="7.5011">
        <ele>1615.3798828125</ele>
        <time>2018-11-07T17:44:22.313Z</time>
      </trkpt>
      <trkpt lat="44.10622" lon="7.50087">
        <ele>1616.7600097656</ele>
        <time>2018-11-07T17:44:26.732Z</time>
      </trkpt>
      <trkpt lat="44.1065" lon="7.5007">
        <ele>1619.2393798828</ele>
        <time>2018-11-07T17:44:31.155Z</time>
      </trkpt>
      <trkpt lat="44.10679" lon="7.50047">
        <ele>1625.0129394531</ele>
        <time>2018-11-07T17:44:35.584Z</time>
      </trkpt>
      <trkpt lat="44.10703" lon="7.50023">
        <ele>1632.5506591797</ele>
        <time>2018-11-07T17:44:40.018Z</time>
      </trkpt>
      <trkpt lat="44.10715" lon="7.50007">
        <ele>1635.6651611328</ele>
        <time>2018-11-07T17:44:44.454Z</time>
      </trkpt>
      <trkpt lat="44.10726" lon="7.49983">
        <ele>1641.8477783203</ele>
        <time>2018-11-07T17:44:48.894Z</time>
      </trkpt>
      <trkpt lat="44.10737" lon="7.49969">
        <ele>1644.7392578125</ele>
        <time>2018-11-07T17:44:53.336Z</time>
      </trkpt>
      <trkpt lat="44.10758" lon="7.49958">
        <ele>1641.0413818359</ele>
        <time>2018-11-07T17:44:57.781Z</time>
      </trkpt>
      <trkpt lat="44.10771" lon="7.49955">
        <ele>1636.8061523438</ele>
        <time>2018-11-07T17:45:02.229Z</time>
      </trkpt>
      <trkpt lat="44.10793" lon="7.49955">
        <ele>1633.9754638672</ele>
        <time>2018-11-07T17:45:06.680Z</time>
      </trkpt>
      <trkpt lat="44.10823" lon="7.49951">
        <ele>1635.7407226562</ele>
        <time>2018-11-07T17:45:11.136Z</time>
      </trkpt>
      <trkpt lat="44.10828" lon="7.4995">
        <ele>1636.4605712891</ele>
        <time>2018-11-07T17:45:15.593Z</time>
      </trkpt>
      <trkpt lat="44.1084" lon="7.49948">
        <ele>1637.9362792969</ele>
        <time>2018-11-07T17:45:20.052Z</time>
      </trkpt>
      <trkpt lat="44.1084" lon="7.49948">
        <ele>1637.9377441406</ele>
        <time>2018-11-07T17:45:24.511Z</time>
      </trkpt>
      <trkpt lat="44.10937" lon="7.49933">
        <ele>1651.8322753906</ele>
        <time>2018-11-07T17:45:28.985Z</time>
      </trkpt>
      <trkpt lat="44.10952" lon="7.49933">
        <ele>1653.1939697266</ele>
        <time>2018-11-07T17:45:33.462Z</time>
      </trkpt>
      <trkpt lat="44.1096" lon="7.49935">
        <ele>1652.9060058594</ele>
        <time>2018-11-07T17:45:37.940Z</time>
      </trkpt>
      <trkpt lat="44.10972" lon="7.49937">
        <ele>1651.6313476562</ele>
        <time>2018-11-07T17:45:42.420Z</time>
      </trkpt>
      <trkpt lat="44.10993" lon="7.4993">
        <ele>1652.6392822266</ele>
        <time>2018-11-07T17:45:46.903Z</time>
      </trkpt>
      <trkpt lat="44.11034" lon="7.49899">
        <ele>1663.1417236328</ele>
        <time>2018-11-07T17:45:51.394Z</time>
      </trkpt>
      <trkpt lat="44.11064" lon="7.4988">
        <ele>1672.1641845703</ele>
        <time>2018-11-07T17:45:55.890Z</time>
      </trkpt>
      <trkpt lat="44.11073" lon="7.49877">
        <ele>1673.28515625</ele>
        <time>2018-11-07T17:46:00.388Z</time>
      </trkpt>
      <trkpt lat="44.11087" lon="7.49877">
        <ele>1671.4373779297</ele>
        <time>2018-11-07T17:46:04.888Z</time>
      </trkpt>
      <trkpt lat="44.11099" lon="7.49879">
        <ele>1669.2297363281</ele>
        <time>2018-11-07T17:46:09.390Z</time>
      </trkpt>
      <trkpt lat="44.11108" lon="7.49877">
        <ele>1668.6658935547</ele>
        <time>2018-11-07T17:46:13.893Z</time>
      </trkpt>
      <trkpt lat="44.11117" lon="7.4987">
        <ele>1671.5368652344</ele>
        <time>2018-11-07T17:46:18.398Z</time>
      </trkpt>
      <trkpt lat="44.11126" lon="7.49857">
        <ele>1676.8879394531</ele>
        <time>2018-11-07T17:46:22.905Z</time>
      </trkpt>
      <trkpt lat="44.11136" lon="7.49847">
        <ele>1679.5571289062</ele>
        <time>2018-11-07T17:46:27.414Z</time>
      </trkpt>
      <trkpt lat="44.11143" lon="7.49845">
        <ele>1679.78515625</ele>
        <time>2018-11-07T17:46:31.924Z</time>
      </trkpt>
      <trkpt lat="44.11151" lon="7.49849">
        <ele>1679.0653076172</ele>
        <time>2018-11-07T17:46:36.435Z</time>
      </trkpt>
      <trkpt lat="44.11161" lon="7.49872">
        <ele>1675.3579101562</ele>
        <time>2018-11-07T17:46:40.950Z</time>
      </trkpt>
      <trkpt lat="44.11177" lon="7.49909">
        <ele>1668.0095214844</ele>
        <time>2018-11-07T17:46:45.470Z</time>
      </trkpt>
      <trkpt lat="44.11182" lon="7.49913">
        <ele>1667.4815673828</ele>
        <time>2018-11-07T17:46:49.990Z</time>
      </trkpt>
      <trkpt lat="44.1119" lon="7.4991">
        <ele>1669.0828857422</ele>
        <time>2018-11-07T17:46:54.512Z</time>
      </trkpt>
      <trkpt lat="44.11193" lon="7.49903">
        <ele>1670.1387939453</ele>
        <time>2018-11-07T17:46:59.035Z</time>
      </trkpt>
      <trkpt lat="44.11194" lon="7.49888">
        <ele>1672.6114501953</ele>
        <time>2018-11-07T17:47:03.559Z</time>
      </trkpt>
      <trkpt lat="44.1119" lon="7.49874">
        <ele>1674.6979980469</ele>
        <time>2018-11-07T17:47:08.085Z</time>
      </trkpt>
      <trkpt lat="44.11184" lon="7.49862">
        <ele>1676.6416015625</ele>
        <time>2018-11-07T17:47:12.613Z</time>
      </trkpt>
      <trkpt lat="44.11177" lon="7.49851">
        <ele>1678.44140625</ele>
        <time>2018-11-07T17:47:17.143Z</time>
      </trkpt>
      <trkpt lat="44.11176" lon="7.49844">
        <ele>1679.5451660156</ele>
        <time>2018-11-07T17:47:21.673Z</time>
      </trkpt>
      <trkpt lat="44.11177" lon="7.49836">
        <ele>1680.7810058594</ele>
        <time>2018-11-07T17:47:26.204Z</time>
      </trkpt>
      <trkpt lat="44.11187" lon="7.49813">
        <ele>1686.0804443359</ele>
        <time>2018-11-07T17:47:30.738Z</time>
      </trkpt>
      <trkpt lat="44.112" lon="7.4979">
        <ele>1690.9411621094</ele>
        <time>2018-11-07T17:47:35.276Z</time>
      </trkpt>
      <trkpt lat="44.11208" lon="7.49781">
        <ele>1694.6845703125</ele>
        <time>2018-11-07T17:47:39.815Z</time>
      </trkpt>
      <trkpt lat="44.11242" lon="7.49774">
        <ele>1698.1481933594</ele>
        <time>2018-11-07T17:47:44.360Z</time>
      </trkpt>
      <trkpt lat="44.11254" lon="7.49769">
        <ele>1697.6442871094</ele>
        <time>2018-11-07T17:47:48.907Z</time>
      </trkpt>
      <trkpt lat="44.11262" lon="7.4976">
        <ele>1696.900390625</ele>
        <time>2018-11-07T17:47:53.456Z</time>
      </trkpt>
      <trkpt lat="44.11269" lon="7.49743">
        <ele>1698.2707519531</ele>
        <time>2018-11-07T17:47:58.007Z</time>
      </trkpt>
      <trkpt lat="44.11279" lon="7.49705">
        <ele>1700.8966064453</ele>
        <time>2018-11-07T17:48:02.563Z</time>
      </trkpt>
      <trkpt lat="44.11294" lon="7.49642">
        <ele>1712.8970947266</ele>
        <time>2018-11-07T17:48:07.126Z</time>
      </trkpt>
      <trkpt lat="44.11312" lon="7.49568">
        <ele>1728.6834716797</ele>
        <time>2018-11-07T17:48:11.698Z</time>
      </trkpt>
      <trkpt lat="44.11317" lon="7.49559">
        <ele>1732.0310058594</ele>
        <time>2018-11-07T17:48:16.271Z</time>
      </trkpt>
      <trkpt lat="44.11329" lon="7.49548">
        <ele>1735.0090332031</ele>
        <time>2018-11-07T17:48:20.847Z</time>
      </trkpt>
      <trkpt lat="44.11374" lon="7.49516">
        <ele>1729.4578857422</ele>
        <time>2018-11-07T17:48:25.431Z</time>
      </trkpt>
      <trkpt lat="44.11389" lon="7.49512">
        <ele>1729.44140625</ele>
        <time>2018-11-07T17:48:30.017Z</time>
      </trkpt>
      <trkpt lat="44.11403" lon="7.49503">
        <ele>1729.7532958984</ele>
        <time>2018-11-07T17:48:34.606Z</time>
      </trkpt>
      <trkpt lat="44.11414" lon="7.49498">
        <ele>1730.2204589844</ele>
        <time>2018-11-07T17:48:39.197Z</time>
      </trkpt>
      <trkpt lat="44.11422" lon="7.49501">
        <ele>1729.44140625</ele>
        <time>2018-11-07T17:48:43.789Z</time>
      </trkpt>
      <trkpt lat="44.11428" lon="7.49511">
        <ele>1728.5775146484</ele>
        <time>2018-11-07T17:48:48.382Z</time>
      </trkpt>
      <trkpt lat="44.11428" lon="7.49522">
        <ele>1727.7856445312</ele>
        <time>2018-11-07T17:48:52.977Z</time>
      </trkpt>
      <trkpt lat="44.11421" lon="7.49543">
        <ele>1726.4418945312</ele>
        <time>2018-11-07T17:48:57.574Z</time>
      </trkpt>
      <trkpt lat="44.11419" lon="7.49556">
        <ele>1725.5540771484</ele>
        <time>2018-11-07T17:49:02.173Z</time>
      </trkpt>
      <trkpt lat="44.11423" lon="7.49568">
        <ele>1724.4666748047</ele>
        <time>2018-11-07T17:49:06.773Z</time>
      </trkpt>
      <trkpt lat="44.11429" lon="7.4957">
        <ele>1724.2747802734</ele>
        <time>2018-11-07T17:49:11.374Z</time>
      </trkpt>
      <trkpt lat="44.11437" lon="7.49566">
        <ele>1724.4022216797</ele>
        <time>2018-11-07T17:49:15.977Z</time>
      </trkpt>
      <trkpt lat="44.11445" lon="7.4955">
        <ele>1724.8052978516</ele>
        <time>2018-11-07T17:49:20.582Z</time>
      </trkpt>
      <trkpt lat="44.1145" lon="7.49536">
        <ele>1723.7133789062</ele>
        <time>2018-11-07T17:49:25.189Z</time>
      </trkpt>
      <trkpt lat="44.11457" lon="7.49521">
        <ele>1721.8537597656</ele>
        <time>2018-11-07T17:49:29.798Z</time>
      </trkpt>
      <trkpt lat="44.11492" lon="7.4948">
        <ele>1719.0246582031</ele>
        <time>2018-11-07T17:49:34.414Z</time>
      </trkpt>
      <trkpt lat="44.11501" lon="7.49463">
        <ele>1721.1843261719</ele>
        <time>2018-11-07T17:49:39.033Z</time>
      </trkpt>
      <trkpt lat="44.11514" lon="7.49436">
        <ele>1726.126953125</ele>
        <time>2018-11-07T17:49:43.655Z</time>
      </trkpt>
      <trkpt lat="44.11527" lon="7.49424">
        <ele>1726.7493896484</ele>
        <time>2018-11-07T17:49:48.280Z</time>
      </trkpt>
      <trkpt lat="44.1154" lon="7.49415">
        <ele>1722.6389160156</ele>
        <time>2018-11-07T17:49:52.907Z</time>
      </trkpt>
      <trkpt lat="44.1155" lon="7.49405">
        <ele>1720.7192382812</ele>
        <time>2018-11-07T17:49:57.536Z</time>
      </trkpt>
      <trkpt lat="44.11573" lon="7.49352">
        <ele>1722.7794189453</ele>
        <time>2018-11-07T17:50:02.172Z</time>
      </trkpt>
      <trkpt lat="44.116" lon="7.49304">
        <ele>1714.8566894531</ele>
        <time>2018-11-07T17:50:06.815Z</time>
      </trkpt>
      <trkpt lat="44.11605" lon="7.49291">
        <ele>1714.4848632812</ele>
        <time>2018-11-07T17:50:11.460Z</time>
      </trkpt>
      <trkpt lat="44.11607" lon="7.49274">
        <ele>1716.8843994141</ele>
        <time>2018-11-07T17:50:16.107Z</time>
      </trkpt>
      <trkpt lat="44.11619" lon="7.49252">
        <ele>1714.1853027344</ele>
        <time>2018-11-07T17:50:20.757Z</time>
      </trkpt>
      <trkpt lat="44.1164" lon="7.49214">
        <ele>1712.2286376953</ele>
        <time>2018-11-07T17:50:25.413Z</time>
      </trkpt>
      <trkpt lat="44.11649" lon="7.49191">
        <ele>1712.8282470703</ele>
        <time>2018-11-07T17:50:30.072Z</time>
      </trkpt>
      <trkpt lat="44.11665" lon="7.49152">
        <ele>1714.3475341797</ele>
        <time>2018-11-07T17:50:34.736Z</time>
      </trkpt>
      <trkpt lat="44.11678" lon="7.49128">
        <ele>1713.4923095703</ele>
        <time>2018-11-07T17:50:39.403Z</time>
      </trkpt>
      <trkpt lat="44.11701" lon="7.491">
        <ele>1706.9340820312</ele>
        <time>2018-11-07T17:50:44.075Z</time>
      </trkpt>
      <trkpt lat="44.11711" lon="7.49081">
        <ele>1706.3449707031</ele>
        <time>2018-11-07T17:50:48.750Z</time>
      </trkpt>
      <trkpt lat="44.11718" lon="7.49042">
        <ele>1712.0560302734</ele>
        <time>2018-11-07T17:50:53.430Z</time>
      </trkpt>
      <trkpt lat="44.11724" lon="7.49037">
        <ele>1709.7883300781</ele>
        <time>2018-11-07T17:50:58.111Z</time>
      </trkpt>
      <trkpt lat="44.11733" lon="7.49034">
        <ele>1705.6911621094</ele>
        <time>2018-11-07T17:51:02.793Z</time>
      </trkpt>
      <trkpt lat="44.11748" lon="7.49031">
        <ele>1699.1402587891</ele>
        <time>2018-11-07T17:51:07.478Z</time>
      </trkpt>
      <trkpt lat="44.11754" lon="7.49032">
        <ele>1695.7807617188</ele>
        <time>2018-11-07T17:51:12.164Z</time>
      </trkpt>
      <trkpt lat="44.11764" lon="7.49043">
        <ele>1687.0462646484</ele>
        <time>2018-11-07T17:51:16.852Z</time>
      </trkpt>
      <trkpt lat="44.11771" lon="7.49046">
        <ele>1682.5109863281</ele>
        <time>2018-11-07T17:51:21.541Z</time>
      </trkpt>
      <trkpt lat="44.11787" lon="7.49041">
        <ele>1681.2961425781</ele>
        <time>2018-11-07T17:51:26.232Z</time>
      </trkpt>
      <trkpt lat="44.11801" lon="7.49033">
        <ele>1684.1517333984</ele>
        <time>2018-11-07T17:51:30.926Z</time>
      </trkpt>
      <trkpt lat="44.11824" lon="7.49032">
        <ele>1684.7635498047</ele>
        <time>2018-11-07T17:51:35.624Z</time>
      </trkpt>
      <trkpt lat="44.11854" lon="7.49026">
        <ele>1687.1391601562</ele>
        <time>2018-11-07T17:51:40.326Z</time>
      </trkpt>
      <trkpt lat="44.11884" lon="7.49024">
        <ele>1699.2468261719</ele>
        <time>2018-11-07T17:51:45.033Z</time>
      </trkpt>
      <trkpt lat="44.1189" lon="7.4903">
        <ele>1700.1107177734</ele>
        <time>2018-11-07T17:51:49.741Z</time>
      </trkpt>
      <trkpt lat="44.11894" lon="7.49046">
        <ele>1696.6552734375</ele>
        <time>2018-11-07T17:51:54.451Z</time>
      </trkpt>
      <trkpt lat="44.119" lon="7.49066">
        <ele>1692.8159179688</ele>
        <time>2018-11-07T17:51:59.164Z</time>
      </trkpt>
      <trkpt lat="44.11904" lon="7.49078">
        <ele>1690.7043457031</ele>
        <time>2018-11-07T17:52:03.878Z</time>
      </trkpt>
      <trkpt lat="44.11902" lon="7.49099">
        <ele>1688.3775634766</ele>
        <time>2018-11-07T17:52:08.595Z</time>
      </trkpt>
      <trkpt lat="44.11896" lon="7.49105">
        <ele>1685.6420898438</ele>
        <time>2018-11-07T17:52:13.313Z</time>
      </trkpt>
      <trkpt lat="44.11889" lon="7.49103">
        <ele>1682.2346191406</ele>
        <time>2018-11-07T17:52:18.032Z</time>
      </trkpt>
      <trkpt lat="44.11882" lon="7.49099">
        <ele>1678.7791748047</ele>
        <time>2018-11-07T17:52:22.752Z</time>
      </trkpt>
      <trkpt lat="44.11875" lon="7.49103">
        <ele>1675.3309326172</ele>
        <time>2018-11-07T17:52:27.474Z</time>
      </trkpt>
      <trkpt lat="44.11861" lon="7.49125">
        <ele>1667.8442382812</ele>
        <time>2018-11-07T17:52:32.199Z</time>
      </trkpt>
      <trkpt lat="44.11851" lon="7.49145">
        <ele>1667.1466064453</ele>
        <time>2018-11-07T17:52:36.927Z</time>
      </trkpt>
      <trkpt lat="44.1185" lon="7.49156">
        <ele>1667.0025634766</ele>
        <time>2018-11-07T17:52:41.656Z</time>
      </trkpt>
      <trkpt lat="44.11852" lon="7.49164">
        <ele>1665.6812744141</ele>
        <time>2018-11-07T17:52:46.386Z</time>
      </trkpt>
      <trkpt lat="44.1187" lon="7.49186">
        <ele>1671.6423339844</ele>
        <time>2018-11-07T17:52:51.120Z</time>
      </trkpt>
      <trkpt lat="44.11894" lon="7.49221">
        <ele>1683.0043945312</ele>
        <time>2018-11-07T17:52:55.859Z</time>
      </trkpt>
      <trkpt lat="44.11916" lon="7.49262">
        <ele>1695.1246337891</ele>
        <time>2018-11-07T17:53:00.604Z</time>
      </trkpt>
      <trkpt lat="44.11922" lon="7.49282">
        <ele>1700.7397460938</ele>
        <time>2018-11-07T17:53:05.352Z</time>
      </trkpt>
      <trkpt lat="44.1192" lon="7.49292">
        <ele>1701.2677001953</ele>
        <time>2018-11-07T17:53:10.101Z</time>
      </trkpt>
      <trkpt lat="44.11917" lon="7.49296">
        <ele>1700.4758300781</ele>
        <time>2018-11-07T17:53:14.851Z</time>
      </trkpt>
      <trkpt lat="44.11904" lon="7.49302">
        <ele>1695.4125976562</ele>
        <time>2018-11-07T17:53:19.603Z</time>
      </trkpt>
      <trkpt lat="44.11894" lon="7.49307">
        <ele>1691.5732421875</ele>
        <time>2018-11-07T17:53:24.357Z</time>
      </trkpt>
      <trkpt lat="44.11884" lon="7.49316">
        <ele>1688.3098144531</ele>
        <time>2018-11-07T17:53:29.112Z</time>
      </trkpt>
      <trkpt lat="44.11881" lon="7.4933">
        <ele>1688.9576416016</ele>
        <time>2018-11-07T17:53:33.869Z</time>
      </trkpt>
      <trkpt lat="44.11878" lon="7.49372">
        <ele>1697.0222167969</ele>
        <time>2018-11-07T17:53:38.631Z</time>
      </trkpt>
      <trkpt lat="44.11865" lon="7.49425">
        <ele>1701.1700439453</ele>
        <time>2018-11-07T17:53:43.399Z</time>
      </trkpt>
      <trkpt lat="44.11858" lon="7.49471">
        <ele>1704.2572021484</ele>
        <time>2018-11-07T17:53:48.173Z</time>
      </trkpt>
      <trkpt lat="44.1185" lon="7.49512">
        <ele>1706.7600097656</ele>
        <time>2018-11-07T17:53:52.952Z</time>
      </trkpt>
      <trkpt lat="44.11842" lon="7.49544">
        <ele>1708.8717041016</ele>
        <time>2018-11-07T17:53:57.735Z</time>
      </trkpt>
      <trkpt lat="44.11829" lon="7.49561">
        <ele>1704.6214599609</ele>
        <time>2018-11-07T17:54:02.521Z</time>
      </trkpt>
      <trkpt lat="44.11816" lon="7.49573">
        <ele>1698.39453125</ele>
        <time>2018-11-07T17:54:07.309Z</time>
      </trkpt>
      <trkpt lat="44.11814" lon="7.49582">
        <ele>1698.4665527344</ele>
        <time>2018-11-07T17:54:12.098Z</time>
      </trkpt>
      <trkpt lat="44.1181" lon="7.49623">
        <ele>1703.833984375</ele>
        <time>2018-11-07T17:54:16.892Z</time>
      </trkpt>
      <trkpt lat="44.11805" lon="7.49642">
        <ele>1705.9216308594</ele>
        <time>2018-11-07T17:54:21.688Z</time>
      </trkpt>
      <trkpt lat="44.11796" lon="7.49664">
        <ele>1706.6055908203</ele>
        <time>2018-11-07T17:54:26.487Z</time>
      </trkpt>
      <trkpt lat="44.11783" lon="7.49693">
        <ele>1706.7661132812</ele>
        <time>2018-11-07T17:54:31.290Z</time>
      </trkpt>
      <trkpt lat="44.11777" lon="7.49713">
        <ele>1707.5819091797</ele>
        <time>2018-11-07T17:54:36.096Z</time>
      </trkpt>
      <trkpt lat="44.11776" lon="7.49738">
        <ele>1712.6688232422</ele>
        <time>2018-11-07T17:54:40.904Z</time>
      </trkpt>
      <trkpt lat="44.11773" lon="7.49744">
        <ele>1712.2009277344</ele>
        <time>2018-11-07T17:54:45.713Z</time>
      </trkpt>
      <trkpt lat="44.11756" lon="7.49772">
        <ele>1713.0648193359</ele>
        <time>2018-11-07T17:54:50.527Z</time>
      </trkpt>
      <trkpt lat="44.1175" lon="7.4979">
        <ele>1716.0163574219</ele>
        <time>2018-11-07T17:54:55.343Z</time>
      </trkpt>
      <trkpt lat="44.11747" lon="7.49808">
        <ele>1720.4636230469</ele>
        <time>2018-11-07T17:55:00.161Z</time>
      </trkpt>
      <trkpt lat="44.11744" lon="7.49818">
        <ele>1722.4191894531</ele>
        <time>2018-11-07T17:55:04.980Z</time>
      </trkpt>
      <trkpt lat="44.11738" lon="7.4983">
        <ele>1723.62109375</ele>
        <time>2018-11-07T17:55:09.801Z</time>
      </trkpt>
      <trkpt lat="44.11738" lon="7.4983">
        <ele>1723.6430664062</ele>
        <time>2018-11-07T17:55:14.622Z</time>
      </trkpt>
      <trkpt lat="44.11715" lon="7.49857">
        <ele>1721.3619384766</ele>
        <time>2018-11-07T17:55:19.448Z</time>
      </trkpt>
      <trkpt lat="44.11709" lon="7.49867">
        <ele>1719.6822509766</ele>
        <time>2018-11-07T17:55:24.275Z</time>
      </trkpt>
      <trkpt lat="44.11708" lon="7.49874">
        <ele>1720.4261474609</ele>
        <time>2018-11-07T17:55:29.103Z</time>
      </trkpt>
      <trkpt lat="44.11706" lon="7.49902">
        <ele>1724.6014404297</ele>
        <time>2018-11-07T17:55:33.934Z</time>
      </trkpt>
      <trkpt lat="44.11703" lon="7.49923">
        <ele>1726.6052246094</ele>
        <time>2018-11-07T17:55:38.768Z</time>
      </trkpt>
      <trkpt lat="44.11697" lon="7.49946">
        <ele>1726.5932617188</ele>
        <time>2018-11-07T17:55:43.605Z</time>
      </trkpt>
      <trkpt lat="44.11693" lon="7.49969">
        <ele>1727.8039550781</ele>
        <time>2018-11-07T17:55:48.444Z</time>
      </trkpt>
      <trkpt lat="44.11684" lon="7.50001">
        <ele>1726.5496826172</ele>
        <time>2018-11-07T17:55:53.287Z</time>
      </trkpt>
      <trkpt lat="44.11688" lon="7.50034">
        <ele>1730.0291748047</ele>
        <time>2018-11-07T17:55:58.134Z</time>
      </trkpt>
      <trkpt lat="44.11704" lon="7.50076">
        <ele>1740.1705322266</ele>
        <time>2018-11-07T17:56:02.987Z</time>
      </trkpt>
      <trkpt lat="44.11713" lon="7.501">
        <ele>1744.7908935547</ele>
        <time>2018-11-07T17:56:07.843Z</time>
      </trkpt>
      <trkpt lat="44.11714" lon="7.50114">
        <ele>1744.8923339844</ele>
        <time>2018-11-07T17:56:12.700Z</time>
      </trkpt>
      <trkpt lat="44.11711" lon="7.50146">
        <ele>1742.1208496094</ele>
        <time>2018-11-07T17:56:17.561Z</time>
      </trkpt>
      <trkpt lat="44.11714" lon="7.50165">
        <ele>1743.056640625</ele>
        <time>2018-11-07T17:56:22.424Z</time>
      </trkpt>
      <trkpt lat="44.11719" lon="7.50183">
        <ele>1744.1312255859</ele>
        <time>2018-11-07T17:56:27.289Z</time>
      </trkpt>
      <trkpt lat="44.11723" lon="7.50191">
        <ele>1745.5229492188</ele>
        <time>2018-11-07T17:56:32.156Z</time>
      </trkpt>
      <trkpt lat="44.11739" lon="7.50209">
        <ele>1752.4338378906</ele>
        <time>2018-11-07T17:56:37.026Z</time>
      </trkpt>
      <trkpt lat="44.11749" lon="7.50224">
        <ele>1756.3238525391</ele>
        <time>2018-11-07T17:56:41.898Z</time>
      </trkpt>
      <trkpt lat="44.11753" lon="7.50237">
        <ele>1756.9118652344</ele>
        <time>2018-11-07T17:56:46.772Z</time>
      </trkpt>
      <trkpt lat="44.11759" lon="7.50267">
        <ele>1758.8470458984</ele>
        <time>2018-11-07T17:56:51.649Z</time>
      </trkpt>
      <trkpt lat="44.11759" lon="7.50281">
        <ele>1759.0150146484</ele>
        <time>2018-11-07T17:56:56.528Z</time>
      </trkpt>
      <trkpt lat="44.11755" lon="7.50291">
        <ele>1756.8314208984</ele>
        <time>2018-11-07T17:57:01.408Z</time>
      </trkpt>
      <trkpt lat="44.11747" lon="7.50295">
        <ele>1752.2720947266</ele>
        <time>2018-11-07T17:57:06.290Z</time>
      </trkpt>
      <trkpt lat="44.11739" lon="7.50312">
        <ele>1748.86328125</ele>
        <time>2018-11-07T17:57:11.174Z</time>
      </trkpt>
      <trkpt lat="44.11738" lon="7.50324">
        <ele>1749.2113037109</ele>
        <time>2018-11-07T17:57:16.060Z</time>
      </trkpt>
      <trkpt lat="44.11741" lon="7.50329">
        <ele>1751.1188964844</ele>
        <time>2018-11-07T17:57:20.946Z</time>
      </trkpt>
      <trkpt lat="44.11773" lon="7.50351">
        <ele>1771.1118164062</ele>
        <time>2018-11-07T17:57:25.838Z</time>
      </trkpt>
      <trkpt lat="44.1178" lon="7.50355">
        <ele>1774.8276367188</ele>
        <time>2018-11-07T17:57:30.731Z</time>
      </trkpt>
      <trkpt lat="44.11791" lon="7.50363">
        <ele>1779.6987304688</ele>
        <time>2018-11-07T17:57:35.626Z</time>
      </trkpt>
      <trkpt lat="44.11794" lon="7.50372">
        <ele>1782.2543945312</ele>
        <time>2018-11-07T17:57:40.522Z</time>
      </trkpt>
      <trkpt lat="44.11794" lon="7.50378">
        <ele>1783.3342285156</ele>
        <time>2018-11-07T17:57:45.419Z</time>
      </trkpt>
      <trkpt lat="44.11771" lon="7.50415">
        <ele>1782.3592529297</ele>
        <time>2018-11-07T17:57:50.322Z</time>
      </trkpt>
      <trkpt lat="44.11756" lon="7.50422">
        <ele>1780.2172851562</ele>
        <time>2018-11-07T17:57:55.227Z</time>
      </trkpt>
      <trkpt lat="44.1173" lon="7.50456">
        <ele>1785.9954833984</ele>
        <time>2018-11-07T17:58:00.138Z</time>
      </trkpt>
      <trkpt lat="44.11727" lon="7.50464">
        <ele>1787.783203125</ele>
        <time>2018-11-07T17:58:05.050Z</time>
      </trkpt>
      <trkpt lat="44.11726" lon="7.50478">
        <ele>1792.5943603516</ele>
        <time>2018-11-07T17:58:09.964Z</time>
      </trkpt>
      <trkpt lat="44.11722" lon="7.50486">
        <ele>1793.9860839844</ele>
        <time>2018-11-07T17:58:14.879Z</time>
      </trkpt>
      <trkpt lat="44.11716" lon="7.50488">
        <ele>1792.3543701172</ele>
        <time>2018-11-07T17:58:19.795Z</time>
      </trkpt>
      <trkpt lat="44.11704" lon="7.5049">
        <ele>1788.3470458984</ele>
        <time>2018-11-07T17:58:24.713Z</time>
      </trkpt>
      <trkpt lat="44.11695" lon="7.50496">
        <ele>1787.0152587891</ele>
        <time>2018-11-07T17:58:29.632Z</time>
      </trkpt>
      <trkpt lat="44.11674" lon="7.50519">
        <ele>1787.2552490234</ele>
        <time>2018-11-07T17:58:34.555Z</time>
      </trkpt>
      <trkpt lat="44.11662" lon="7.50525">
        <ele>1784.7355957031</ele>
        <time>2018-11-07T17:58:39.481Z</time>
      </trkpt>
      <trkpt lat="44.1165" lon="7.50528">
        <ele>1781.1002197266</ele>
        <time>2018-11-07T17:58:44.408Z</time>
      </trkpt>
      <trkpt lat="44.11645" lon="7.50536">
        <ele>1781.8680419922</ele>
        <time>2018-11-07T17:58:49.337Z</time>
      </trkpt>
      <trkpt lat="44.11643" lon="7.50545">
        <ele>1782.3120117188</ele>
        <time>2018-11-07T17:58:54.267Z</time>
      </trkpt>
      <trkpt lat="44.11642" lon="7.50561">
        <ele>1784.6036376953</ele>
        <time>2018-11-07T17:58:59.199Z</time>
      </trkpt>
      <trkpt lat="44.11641" lon="7.50588">
        <ele>1789.3118896484</ele>
        <time>2018-11-07T17:59:04.134Z</time>
      </trkpt>
      <trkpt lat="44.11636" lon="7.50607">
        <ele>1791.6154785156</ele>
        <time>2018-11-07T17:59:09.071Z</time>
      </trkpt>
      <trkpt lat="44.11635" lon="7.50619">
        <ele>1792.7781982422</ele>
        <time>2018-11-07T17:59:14.009Z</time>
      </trkpt>
      <trkpt lat="44.11641" lon="7.50649">
        <ele>1801.12890625</ele>
        <time>2018-11-07T17:59:18.951Z</time>
      </trkpt>
      <trkpt lat="44.1164" lon="7.50662">
        <ele>1802.1126708984</ele>
        <time>2018-11-07T17:59:23.895Z</time>
      </trkpt>
      <trkpt lat="44.11633" lon="7.50687">
        <ele>1801.9859619141</ele>
        <time>2018-11-07T17:59:28.842Z</time>
      </trkpt>
      <trkpt lat="44.11631" lon="7.50702">
        <ele>1805.6744384766</ele>
        <time>2018-11-07T17:59:33.790Z</time>
      </trkpt>
      <trkpt lat="44.1163" lon="7.50732">
        <ele>1815.5128173828</ele>
        <time>2018-11-07T17:59:38.742Z</time>
      </trkpt>
      <trkpt lat="44.11632" lon="7.50772">
        <ele>1827.7928466797</ele>
        <time>2018-11-07T17:59:43.698Z</time>
      </trkpt>
      <trkpt lat="44.11628" lon="7.50801">
        <ele>1842.3464355469</ele>
        <time>2018-11-07T17:59:48.658Z</time>
      </trkpt>
      <trkpt lat="44.11624" lon="7.50817">
        <ele>1849.8812255859</ele>
        <time>2018-11-07T17:59:53.620Z</time>
      </trkpt>
      <trkpt lat="44.11618" lon="7.50826">
        <ele>1853.0845947266</ele>
        <time>2018-11-07T17:59:58.583Z</time>
      </trkpt>
      <trkpt lat="44.11609" lon="7.50835">
        <ele>1855.1365966797</ele>
        <time>2018-11-07T18:00:03.548Z</time>
      </trkpt>
      <trkpt lat="44.1159" lon="7.50845">
        <ele>1853.0250244141</ele>
        <time>2018-11-07T18:00:08.516Z</time>
      </trkpt>
      <trkpt lat="44.1158" lon="7.5085">
        <ele>1851.8251953125</ele>
        <time>2018-11-07T18:00:13.486Z</time>
      </trkpt>
      <trkpt lat="44.11563" lon="7.50847">
        <ele>1845.9221191406</ele>
        <time>2018-11-07T18:00:18.459Z</time>
      </trkpt>
      <trkpt lat="44.11551" lon="7.50847">
        <ele>1842.466796875</ele>
        <time>2018-11-07T18:00:23.434Z</time>
      </trkpt>
      <trkpt lat="44.11533" lon="7.5085">
        <ele>1839.4200439453</ele>
        <time>2018-11-07T18:00:28.412Z</time>
      </trkpt>
      <trkpt lat="44.11516" lon="7.50856">
        <ele>1839.5491943359</ele>
        <time>2018-11-07T18:00:33.392Z</time>
      </trkpt>
      <trkpt lat="44.11498" lon="7.50865">
        <ele>1841.1689453125</ele>
        <time>2018-11-07T18:00:38.375Z</time>
      </trkpt>
      <trkpt lat="44.11486" lon="7.50872">
        <ele>1842.6926269531</ele>
        <time>2018-11-07T18:00:43.360Z</time>
      </trkpt>
      <trkpt lat="44.11469" lon="7.5088">
        <ele>1843.4940185547</ele>
        <time>2018-11-07T18:00:48.348Z</time>
      </trkpt>
      <trkpt lat="44.11449" lon="7.50887">
        <ele>1843.3140869141</ele>
        <time>2018-11-07T18:00:53.340Z</time>
      </trkpt>
      <trkpt lat="44.11429" lon="7.50886">
        <ele>1836.7979736328</ele>
        <time>2018-11-07T18:00:58.335Z</time>
      </trkpt>
      <trkpt lat="44.11403" lon="7.50885">
        <ele>1824.7081298828</ele>
        <time>2018-11-07T18:01:03.334Z</time>
      </trkpt>
      <trkpt lat="44.11396" lon="7.50886">
        <ele>1820.4968261719</ele>
        <time>2018-11-07T18:01:08.334Z</time>
      </trkpt>
      <trkpt lat="44.11388" lon="7.50896">
        <ele>1817.0654296875</ele>
        <time>2018-11-07T18:01:13.336Z</time>
      </trkpt>
      <trkpt lat="44.11386" lon="7.50925">
        <ele>1821.7121582031</ele>
        <time>2018-11-07T18:01:18.341Z</time>
      </trkpt>
      <trkpt lat="44.11382" lon="7.50945">
        <ele>1825.4647216797</ele>
        <time>2018-11-07T18:01:23.349Z</time>
      </trkpt>
      <trkpt lat="44.11375" lon="7.50969">
        <ele>1827.7563476562</ele>
        <time>2018-11-07T18:01:28.360Z</time>
      </trkpt>
      <trkpt lat="44.11373" lon="7.50981">
        <ele>1829.8919677734</ele>
        <time>2018-11-07T18:01:33.372Z</time>
      </trkpt>
      <trkpt lat="44.11375" lon="7.50994">
        <ele>1834.9552001953</ele>
        <time>2018-11-07T18:01:38.386Z</time>
      </trkpt>
      <trkpt lat="44.11376" lon="7.51008">
        <ele>1838.3333740234</ele>
        <time>2018-11-07T18:01:43.401Z</time>
      </trkpt>
      <trkpt lat="44.11371" lon="7.51027">
        <ele>1838.8553466797</ele>
        <time>2018-11-07T18:01:48.419Z</time>
      </trkpt>
      <trkpt lat="44.11365" lon="7.51049">
        <ele>1840.2231445312</ele>
        <time>2018-11-07T18:01:53.439Z</time>
      </trkpt>
      <trkpt lat="44.11364" lon="7.51061">
        <ele>1842.2508544922</ele>
        <time>2018-11-07T18:01:58.461Z</time>
      </trkpt>
      <trkpt lat="44.11366" lon="7.51078">
        <ele>1847.0500488281</ele>
        <time>2018-11-07T18:02:03.485Z</time>
      </trkpt>
      <trkpt lat="44.11373" lon="7.51097">
        <ele>1852.5665283203</ele>
        <time>2018-11-07T18:02:08.511Z</time>
      </trkpt>
      <trkpt lat="44.11388" lon="7.51117">
        <ele>1861.8649902344</ele>
        <time>2018-11-07T18:02:13.540Z</time>
      </trkpt>
      <trkpt lat="44.11396" lon="7.51132">
        <ele>1867.2401123047</ele>
        <time>2018-11-07T18:02:18.572Z</time>
      </trkpt>
      <trkpt lat="44.11398" lon="7.51143">
        <ele>1869.2797851562</ele>
        <time>2018-11-07T18:02:23.605Z</time>
      </trkpt>
      <trkpt lat="44.11394" lon="7.51167">
        <ele>1869.6303710938</ele>
        <time>2018-11-07T18:02:28.641Z</time>
      </trkpt>
      <trkpt lat="44.11392" lon="7.51189">
        <ele>1873.3977050781</ele>
        <time>2018-11-07T18:02:33.679Z</time>
      </trkpt>
      <trkpt lat="44.11392" lon="7.51206">
        <ele>1877.2458496094</ele>
        <time>2018-11-07T18:02:38.719Z</time>
      </trkpt>
      <trkpt lat="44.11394" lon="7.51221">
        <ele>1881.7811279297</ele>
        <time>2018-11-07T18:02:43.761Z</time>
      </trkpt>
      <trkpt lat="44.11391" lon="7.5123">
        <ele>1882.5369873047</ele>
        <time>2018-11-07T18:02:48.804Z</time>
      </trkpt>
      <trkpt lat="44.11378" lon="7.51237">
        <ele>1878.1337890625</ele>
        <time>2018-11-07T18:02:53.849Z</time>
      </trkpt>
      <trkpt lat="44.11373" lon="7.51245">
        <ele>1877.7138671875</ele>
        <time>2018-11-07T18:02:58.896Z</time>
      </trkpt>
      <trkpt lat="44.11367" lon="7.51265">
        <ele>1880.3992919922</ele>
        <time>2018-11-07T18:03:03.945Z</time>
      </trkpt>
      <trkpt lat="44.1136" lon="7.51279">
        <ele>1880.8607177734</ele>
        <time>2018-11-07T18:03:08.996Z</time>
      </trkpt>
      <trkpt lat="44.11351" lon="7.51295">
        <ele>1882.3604736328</ele>
        <time>2018-11-07T18:03:14.049Z</time>
      </trkpt>
      <trkpt lat="44.11334" lon="7.51319">
        <ele>1883.3361816406</ele>
        <time>2018-11-07T18:03:19.106Z</time>
      </trkpt>
      <trkpt lat="44.11326" lon="7.51336">
        <ele>1885.2232666016</ele>
        <time>2018-11-07T18:03:24.166Z</time>
      </trkpt>
      <trkpt lat="44.11327" lon="7.51356">
        <ele>1891.5582275391</ele>
        <time>2018-11-07T18:03:29.228Z</time>
      </trkpt>
      <trkpt lat="44.11329" lon="7.51385">
        <ele>1900.9285888672</ele>
        <time>2018-11-07T18:03:34.293Z</time>
      </trkpt>
      <trkpt lat="44.11326" lon="7.51396">
        <ele>1903.0603027344</ele>
        <time>2018-11-07T18:03:39.360Z</time>
      </trkpt>
      <trkpt lat="44.11319" lon="7.51399">
        <ele>1901.4886474609</ele>
        <time>2018-11-07T18:03:44.428Z</time>
      </trkpt>
      <trkpt lat="44.11304" lon="7.51401">
        <ele>1896.8453369141</ele>
        <time>2018-11-07T18:03:49.498Z</time>
      </trkpt>
      <trkpt lat="44.11296" lon="7.51408">
        <ele>1896.0775146484</ele>
        <time>2018-11-07T18:03:54.570Z</time>
      </trkpt>
      <trkpt lat="44.11294" lon="7.51413">
        <ele>1896.8214111328</ele>
        <time>2018-11-07T18:03:59.642Z</time>
      </trkpt>
      <trkpt lat="44.11281" lon="7.51435">
        <ele>1900.8376464844</ele>
        <time>2018-11-07T18:04:04.718Z</time>
      </trkpt>
      <trkpt lat="44.1127" lon="7.51453">
        <ele>1907.1512451172</ele>
        <time>2018-11-07T18:04:09.796Z</time>
      </trkpt>
      <trkpt lat="44.11239" lon="7.51484">
        <ele>1918.0926513672</ele>
        <time>2018-11-07T18:04:14.880Z</time>
      </trkpt>
      <trkpt lat="44.11229" lon="7.51499">
        <ele>1921.9920654297</ele>
        <time>2018-11-07T18:04:19.967Z</time>
      </trkpt>
      <trkpt lat="44.11217" lon="7.51523">
        <ele>1926.16015625</ele>
        <time>2018-11-07T18:04:25.057Z</time>
      </trkpt>
      <trkpt lat="44.11211" lon="7.51528">
        <ele>1927.0343017578</ele>
        <time>2018-11-07T18:04:30.148Z</time>
      </trkpt>
      <trkpt lat="44.11202" lon="7.51528">
        <ele>1926.4943847656</ele>
        <time>2018-11-07T18:04:35.241Z</time>
      </trkpt>
      <trkpt lat="44.11179" lon="7.51512">
        <ele>1921.2578125</ele>
        <time>2018-11-07T18:04:40.338Z</time>
      </trkpt>
      <trkpt lat="44.1116" lon="7.51507">
        <ele>1919.0861816406</ele>
        <time>2018-11-07T18:04:45.438Z</time>
      </trkpt>
      <trkpt lat="44.11133" lon="7.5151">
        <ele>1918.5462646484</ele>
        <time>2018-11-07T18:04:50.542Z</time>
      </trkpt>
      <trkpt lat="44.11114" lon="7.51515">
        <ele>1919.1567382812</ele>
        <time>2018-11-07T18:04:55.649Z</time>
      </trkpt>
      <trkpt lat="44.11073" lon="7.51545">
        <ele>1926.4515380859</ele>
        <time>2018-11-07T18:05:00.764Z</time>
      </trkpt>
      <trkpt lat="44.1106" lon="7.51556">
        <ele>1930.8012695312</ele>
        <time>2018-11-07T18:05:05.881Z</time>
      </trkpt>
      <trkpt lat="44.11045" lon="7.51564">
        <ele>1934.3046875</ele>
        <time>2018-11-07T18:05:11.001Z</time>
      </trkpt>
      <trkpt lat="44.11011" lon="7.51575">
        <ele>1938.8454589844</ele>
        <time>2018-11-07T18:05:16.126Z</time>
      </trkpt>
      <trkpt lat="44.10993" lon="7.5158">
        <ele>1939.697265625</ele>
        <time>2018-11-07T18:05:21.254Z</time>
      </trkpt>
      <trkpt lat="44.10977" lon="7.51578">
        <ele>1938.521484375</ele>
        <time>2018-11-07T18:05:26.385Z</time>
      </trkpt>
      <trkpt lat="44.10966" lon="7.51586">
        <ele>1940.095703125</ele>
        <time>2018-11-07T18:05:31.518Z</time>
      </trkpt>
      <trkpt lat="44.10956" lon="7.51595">
        <ele>1940.8156738281</ele>
        <time>2018-11-07T18:05:36.653Z</time>
      </trkpt>
      <trkpt lat="44.10947" lon="7.51611">
        <ele>1939.2575683594</ele>
        <time>2018-11-07T18:05:41.790Z</time>
      </trkpt>
      <trkpt lat="44.10938" lon="7.51634">
        <ele>1936.6104736328</ele>
        <time>2018-11-07T18:05:46.930Z</time>
      </trkpt>
      <trkpt lat="44.10937" lon="7.51647">
        <ele>1936.1304931641</ele>
        <time>2018-11-07T18:05:52.072Z</time>
      </trkpt>
      <trkpt lat="44.10938" lon="7.51668">
        <ele>1936.3011474609</ele>
        <time>2018-11-07T18:05:57.216Z</time>
      </trkpt>
      <trkpt lat="44.10943" lon="7.51692">
        <ele>1935.1492919922</ele>
        <time>2018-11-07T18:06:02.363Z</time>
      </trkpt>
      <trkpt lat="44.10951" lon="7.5171">
        <ele>1934.9700927734</ele>
        <time>2018-11-07T18:06:07.512Z</time>
      </trkpt>
      <trkpt lat="44.10962" lon="7.51732">
        <ele>1934.9700927734</ele>
        <time>2018-11-07T18:06:12.665Z</time>
      </trkpt>
      <trkpt lat="44.10972" lon="7.51746">
        <ele>1935.6180419922</ele>
        <time>2018-11-07T18:06:17.820Z</time>
      </trkpt>
      <trkpt lat="44.10982" lon="7.51753">
        <ele>1937.0540771484</ele>
        <time>2018-11-07T18:06:22.977Z</time>
      </trkpt>
      <trkpt lat="44.10993" lon="7.51755">
        <ele>1939.2376708984</ele>
        <time>2018-11-07T18:06:28.135Z</time>
      </trkpt>
      <trkpt lat="44.11015" lon="7.51755">
        <ele>1943.9888916016</ele>
        <time>2018-11-07T18:06:33.297Z</time>
      </trkpt>
      <trkpt lat="44.11214" lon="7.51771">
        <ele>1966.439453125</ele>
        <time>2018-11-07T18:06:38.491Z</time>
      </trkpt>
      <trkpt lat="44.11278" lon="7.51775">
        <ele>1971.7001953125</ele>
        <time>2018-11-07T18:06:43.695Z</time>
      </trkpt>
      <trkpt lat="44.11289" lon="7.51778">
        <ele>1973.583984375</ele>
        <time>2018-11-07T18:06:48.901Z</time>
      </trkpt>
      <trkpt lat="44.11291" lon="7.5178">
        <ele>1974.1358642578</ele>
        <time>2018-11-07T18:06:54.107Z</time>
      </trkpt>
      <trkpt lat="44.11294" lon="7.51785">
        <ele>1975.2517089844</ele>
        <time>2018-11-07T18:06:59.314Z</time>
      </trkpt>
      <trkpt lat="44.11296" lon="7.51797">
        <ele>1977.2432861328</ele>
        <time>2018-11-07T18:07:04.522Z</time>
      </trkpt>
      <trkpt lat="44.11293" lon="7.51807">
        <ele>1978.287109375</ele>
        <time>2018-11-07T18:07:09.732Z</time>
      </trkpt>
      <trkpt lat="44.11292" lon="7.51808">
        <ele>1978.2963867188</ele>
        <time>2018-11-07T18:07:14.942Z</time>
      </trkpt>
      <trkpt lat="44.11281" lon="7.51819">
        <ele>1978.4311523438</ele>
        <time>2018-11-07T18:07:20.154Z</time>
      </trkpt>
      <trkpt lat="44.11265" lon="7.51838">
        <ele>1978.8850097656</ele>
        <time>2018-11-07T18:07:25.369Z</time>
      </trkpt>
      <trkpt lat="44.11246" lon="7.51879">
        <ele>1979.5570068359</ele>
        <time>2018-11-07T18:07:30.590Z</time>
      </trkpt>
      <trkpt lat="44.11241" lon="7.51893">
        <ele>1979.2512207031</ele>
        <time>2018-11-07T18:07:35.813Z</time>
      </trkpt>
      <trkpt lat="44.11242" lon="7.51909">
        <ele>1979.6231689453</ele>
        <time>2018-11-07T18:07:41.038Z</time>
      </trkpt>
      <trkpt lat="44.11245" lon="7.5192">
        <ele>1980.1871337891</ele>
        <time>2018-11-07T18:07:46.264Z</time>
      </trkpt>
      <trkpt lat="44.11251" lon="7.51928">
        <ele>1981.0750732422</ele>
        <time>2018-11-07T18:07:51.491Z</time>
      </trkpt>
      <trkpt lat="44.11296" lon="7.51971">
        <ele>1987.6834716797</ele>
        <time>2018-11-07T18:07:56.727Z</time>
      </trkpt>
      <trkpt lat="44.1131" lon="7.51981">
        <ele>1989.6271972656</ele>
        <time>2018-11-07T18:08:01.966Z</time>
      </trkpt>
      <trkpt lat="44.11323" lon="7.51985">
        <ele>1991.5588378906</ele>
        <time>2018-11-07T18:08:07.207Z</time>
      </trkpt>
      <trkpt lat="44.11343" lon="7.51984">
        <ele>1994.7023925781</ele>
        <time>2018-11-07T18:08:12.451Z</time>
      </trkpt>
      <trkpt lat="44.11357" lon="7.51985">
        <ele>1997.4428710938</ele>
        <time>2018-11-07T18:08:17.697Z</time>
      </trkpt>
      <trkpt lat="44.11367" lon="7.5199">
        <ele>1999.6898193359</ele>
        <time>2018-11-07T18:08:22.945Z</time>
      </trkpt>
      <trkpt lat="44.11375" lon="7.51997">
        <ele>2001.4895019531</ele>
        <time>2018-11-07T18:08:28.194Z</time>
      </trkpt>
      <trkpt lat="44.11384" lon="7.5201">
        <ele>2003.3768310547</ele>
        <time>2018-11-07T18:08:33.445Z</time>
      </trkpt>
      <trkpt lat="44.11398" lon="7.52041">
        <ele>2006.0941162109</ele>
        <time>2018-11-07T18:08:38.701Z</time>
      </trkpt>
      <trkpt lat="44.11405" lon="7.52059">
        <ele>2007.9057617188</ele>
        <time>2018-11-07T18:08:43.959Z</time>
      </trkpt>
      <trkpt lat="44.11407" lon="7.52072">
        <ele>2008.5177001953</ele>
        <time>2018-11-07T18:08:49.219Z</time>
      </trkpt>
      <trkpt lat="44.11408" lon="7.52105">
        <ele>2009.9083251953</ele>
        <time>2018-11-07T18:08:54.482Z</time>
      </trkpt>
      <trkpt lat="44.11406" lon="7.52135">
        <ele>2011.6910400391</ele>
        <time>2018-11-07T18:08:59.749Z</time>
      </trkpt>
      <trkpt lat="44.11391" lon="7.52208">
        <ele>2021.6173095703</ele>
        <time>2018-11-07T18:09:05.025Z</time>
      </trkpt>
      <trkpt lat="44.11383" lon="7.52228">
        <ele>2024.7847900391</ele>
        <time>2018-11-07T18:09:10.303Z</time>
      </trkpt>
      <trkpt lat="44.11368" lon="7.52244">
        <ele>2027.1124267578</ele>
        <time>2018-11-07T18:09:15.584Z</time>
      </trkpt>
      <trkpt lat="44.11351" lon="7.5225">
        <ele>2030.4716796875</ele>
        <time>2018-11-07T18:09:20.868Z</time>
      </trkpt>
      <trkpt lat="44.11327" lon="7.52253">
        <ele>2037.6751708984</ele>
        <time>2018-11-07T18:09:26.156Z</time>
      </trkpt>
      <trkpt lat="44.11322" lon="7.52256">
        <ele>2039.630859375</ele>
        <time>2018-11-07T18:09:31.445Z</time>
      </trkpt>
      <trkpt lat="44.11322" lon="7.52261">
        <ele>2040.5906982422</ele>
        <time>2018-11-07T18:09:36.734Z</time>
      </trkpt>
      <trkpt lat="44.11328" lon="7.52263">
        <ele>2039.3188476562</ele>
        <time>2018-11-07T18:09:42.024Z</time>
      </trkpt>
      <trkpt lat="44.11348" lon="7.52268">
        <ele>2034.7596435547</ele>
        <time>2018-11-07T18:09:47.318Z</time>
      </trkpt>
      <trkpt lat="44.11374" lon="7.52279">
        <ele>2032.9968261719</ele>
        <time>2018-11-07T18:09:52.616Z</time>
      </trkpt>
      <trkpt lat="44.11389" lon="7.52283">
        <ele>2033.2247314453</ele>
        <time>2018-11-07T18:09:57.916Z</time>
      </trkpt>
      <trkpt lat="44.11399" lon="7.5228">
        <ele>2032.8375244141</ele>
        <time>2018-11-07T18:10:03.218Z</time>
      </trkpt>
      <trkpt lat="44.11421" lon="7.52271">
        <ele>2032.1281738281</ele>
        <time>2018-11-07T18:10:08.524Z</time>
      </trkpt>
      <trkpt lat="44.11421" lon="7.52271">
        <ele>2032.1276855469</ele>
        <time>2018-11-07T18:10:13.830Z</time>
      </trkpt>
      <trkpt lat="44.11462" lon="7.52253">
        <ele>2030.8815917969</ele>
        <time>2018-11-07T18:10:19.143Z</time>
      </trkpt>
      <trkpt lat="44.11474" lon="7.52244">
        <ele>2030.4041748047</ele>
        <time>2018-11-07T18:10:24.458Z</time>
      </trkpt>
      <trkpt lat="44.11493" lon="7.52225">
        <ele>2029.0364990234</ele>
        <time>2018-11-07T18:10:29.777Z</time>
      </trkpt>
      <trkpt lat="44.11512" lon="7.52195">
        <ele>2031.3342285156</ele>
        <time>2018-11-07T18:10:35.100Z</time>
      </trkpt>
      <trkpt lat="44.11551" lon="7.52125">
        <ele>2034.9360351562</ele>
        <time>2018-11-07T18:10:40.433Z</time>
      </trkpt>
      <trkpt lat="44.11569" lon="7.52093">
        <ele>2036.0489501953</ele>
        <time>2018-11-07T18:10:45.771Z</time>
      </trkpt>
      <trkpt lat="44.11582" lon="7.52062">
        <ele>2037.1203613281</ele>
        <time>2018-11-07T18:10:51.113Z</time>
      </trkpt>
      <trkpt lat="44.11633" lon="7.5193">
        <ele>2039.8449707031</ele>
        <time>2018-11-07T18:10:56.472Z</time>
      </trkpt>
      <trkpt lat="44.11648" lon="7.51889">
        <ele>2040.1687011719</ele>
        <time>2018-11-07T18:11:01.837Z</time>
      </trkpt>
      <trkpt lat="44.11659" lon="7.51861">
        <ele>2040.3576660156</ele>
        <time>2018-11-07T18:11:07.205Z</time>
      </trkpt>
      <trkpt lat="44.11666" lon="7.51842">
        <ele>2040.92578125</ele>
        <time>2018-11-07T18:11:12.576Z</time>
      </trkpt>
      <trkpt lat="44.11678" lon="7.51818">
        <ele>2040.0012207031</ele>
        <time>2018-11-07T18:11:17.950Z</time>
      </trkpt>
      <trkpt lat="44.11688" lon="7.51806">
        <ele>2041.3210449219</ele>
        <time>2018-11-07T18:11:23.326Z</time>
      </trkpt>
      <trkpt lat="44.11702" lon="7.51796">
        <ele>2040.8538818359</ele>
        <time>2018-11-07T18:11:28.705Z</time>
      </trkpt>
      <trkpt lat="44.11738" lon="7.51785">
        <ele>2036.5113525391</ele>
        <time>2018-11-07T18:11:34.090Z</time>
      </trkpt>
      <trkpt lat="44.11798" lon="7.5177">
        <ele>2031.3038330078</ele>
        <time>2018-11-07T18:11:39.484Z</time>
      </trkpt>
      <trkpt lat="44.11829" lon="7.51765">
        <ele>2028.2802734375</ele>
        <time>2018-11-07T18:11:44.883Z</time>
      </trkpt>
      <trkpt lat="44.11848" lon="7.51758">
        <ele>2027.5604248047</ele>
        <time>2018-11-07T18:11:50.286Z</time>
      </trkpt>
      <trkpt lat="44.11894" lon="7.51745">
        <ele>2023.0650634766</ele>
        <time>2018-11-07T18:11:55.696Z</time>
      </trkpt>
      <trkpt lat="44.11913" lon="7.51736">
        <ele>2022.0091552734</ele>
        <time>2018-11-07T18:12:01.109Z</time>
      </trkpt>
      <trkpt lat="44.1193" lon="7.51723">
        <ele>2022.3255615234</ele>
        <time>2018-11-07T18:12:06.525Z</time>
      </trkpt>
      <trkpt lat="44.1199" lon="7.51685">
        <ele>2017.2097167969</ele>
        <time>2018-11-07T18:12:11.952Z</time>
      </trkpt>
      <trkpt lat="44.12031" lon="7.51658">
        <ele>2010.5997314453</ele>
        <time>2018-11-07T18:12:17.386Z</time>
      </trkpt>
      <trkpt lat="44.12045" lon="7.51642">
        <ele>2009.3519287109</ele>
        <time>2018-11-07T18:12:22.823Z</time>
      </trkpt>
      <trkpt lat="44.12057" lon="7.5162">
        <ele>2010.0717773438</ele>
        <time>2018-11-07T18:12:28.263Z</time>
      </trkpt>
      <trkpt lat="44.12064" lon="7.51594">
        <ele>2009.8259277344</ele>
        <time>2018-11-07T18:12:33.707Z</time>
      </trkpt>
      <trkpt lat="44.1207" lon="7.5156">
        <ele>2013.2738037109</ele>
        <time>2018-11-07T18:12:39.155Z</time>
      </trkpt>
      <trkpt lat="44.12074" lon="7.51538">
        <ele>2016.3063964844</ele>
        <time>2018-11-07T18:12:44.605Z</time>
      </trkpt>
      <trkpt lat="44.12079" lon="7.51526">
        <ele>2016.4984130859</ele>
        <time>2018-11-07T18:12:50.057Z</time>
      </trkpt>
      <trkpt lat="44.12086" lon="7.51523">
        <ele>2013.7868652344</ele>
        <time>2018-11-07T18:12:55.510Z</time>
      </trkpt>
      <trkpt lat="44.12098" lon="7.51528">
        <ele>2006.9479980469</ele>
        <time>2018-11-07T18:13:00.965Z</time>
      </trkpt>
      <trkpt lat="44.12115" lon="7.51542">
        <ele>1997.1541748047</ele>
        <time>2018-11-07T18:13:06.423Z</time>
      </trkpt>
      <trkpt lat="44.1213" lon="7.51546">
        <ele>1993.5906982422</ele>
        <time>2018-11-07T18:13:11.884Z</time>
      </trkpt>
      <trkpt lat="44.12145" lon="7.51544">
        <ele>1991.3231201172</ele>
        <time>2018-11-07T18:13:17.347Z</time>
      </trkpt>
      <trkpt lat="44.12172" lon="7.51531">
        <ele>1990.0128173828</ele>
        <time>2018-11-07T18:13:22.815Z</time>
      </trkpt>
      <trkpt lat="44.1218" lon="7.5153">
        <ele>1989.0050048828</ele>
        <time>2018-11-07T18:13:28.284Z</time>
      </trkpt>
      <trkpt lat="44.12185" lon="7.51535">
        <ele>1987.025390625</ele>
        <time>2018-11-07T18:13:33.754Z</time>
      </trkpt>
      <trkpt lat="44.12205" lon="7.5156">
        <ele>1978.5836181641</ele>
        <time>2018-11-07T18:13:39.228Z</time>
      </trkpt>
      <trkpt lat="44.12215" lon="7.51565">
        <ele>1976.4239501953</ele>
        <time>2018-11-07T18:13:44.704Z</time>
      </trkpt>
      <trkpt lat="44.12223" lon="7.51565">
        <ele>1975.6561279297</ele>
        <time>2018-11-07T18:13:50.181Z</time>
      </trkpt>
      <trkpt lat="44.12247" lon="7.51555">
        <ele>1975.7520751953</ele>
        <time>2018-11-07T18:13:55.662Z</time>
      </trkpt>
      <trkpt lat="44.12263" lon="7.51537">
        <ele>1979.7071533203</ele>
        <time>2018-11-07T18:14:01.146Z</time>
      </trkpt>
      <trkpt lat="44.12286" lon="7.51503">
        <ele>1984.6844482422</ele>
        <time>2018-11-07T18:14:06.636Z</time>
      </trkpt>
      <trkpt lat="44.12322" lon="7.51458">
        <ele>1980.8778076172</ele>
        <time>2018-11-07T18:14:12.134Z</time>
      </trkpt>
      <trkpt lat="44.12338" lon="7.51436">
        <ele>1984.2373046875</ele>
        <time>2018-11-07T18:14:17.635Z</time>
      </trkpt>
      <trkpt lat="44.12347" lon="7.5143">
        <ele>1983.9853515625</ele>
        <time>2018-11-07T18:14:23.138Z</time>
      </trkpt>
      <trkpt lat="44.1235" lon="7.51429">
        <ele>1983.5653076172</ele>
        <time>2018-11-07T18:14:28.641Z</time>
      </trkpt>
      <trkpt lat="44.12375" lon="7.51421">
        <ele>1979.1546630859</ele>
        <time>2018-11-07T18:14:34.148Z</time>
      </trkpt>
      <trkpt lat="44.12375" lon="7.51421">
        <ele>1979.1517333984</ele>
        <time>2018-11-07T18:14:39.655Z</time>
      </trkpt>
      <trkpt lat="44.12387" lon="7.51417">
        <ele>1977.3095703125</ele>
        <time>2018-11-07T18:14:45.164Z</time>
      </trkpt>
      <trkpt lat="44.12403" lon="7.51413">
        <ele>1974.2889404297</ele>
        <time>2018-11-07T18:14:50.676Z</time>
      </trkpt>
      <trkpt lat="44.12419" lon="7.51411">
        <ele>1970.4736328125</ele>
        <time>2018-11-07T18:14:56.191Z</time>
      </trkpt>
      <trkpt lat="44.12436" lon="7.51405">
        <ele>1968.453125</ele>
        <time>2018-11-07T18:15:01.708Z</time>
      </trkpt>
      <trkpt lat="44.1247" lon="7.514">
        <ele>1965.6364746094</ele>
        <time>2018-11-07T18:15:07.231Z</time>
      </trkpt>
      <trkpt lat="44.12482" lon="7.51401">
        <ele>1963.2487792969</ele>
        <time>2018-11-07T18:15:12.756Z</time>
      </trkpt>
      <trkpt lat="44.12514" lon="7.51411">
        <ele>1953.0985107422</ele>
        <time>2018-11-07T18:15:18.286Z</time>
      </trkpt>
      <trkpt lat="44.1252" lon="7.51415">
        <ele>1950.0989990234</ele>
        <time>2018-11-07T18:15:23.817Z</time>
      </trkpt>
      <trkpt lat="44.12527" lon="7.51425">
        <ele>1945.3022460938</ele>
        <time>2018-11-07T18:15:29.350Z</time>
      </trkpt>
      <trkpt lat="44.12543" lon="7.5147">
        <ele>1933.4095458984</ele>
        <time>2018-11-07T18:15:34.888Z</time>
      </trkpt>
      <trkpt lat="44.1255" lon="7.51484">
        <ele>1930.1340332031</ele>
        <time>2018-11-07T18:15:40.428Z</time>
      </trkpt>
      <trkpt lat="44.12553" lon="7.51495">
        <ele>1927.0505371094</ele>
        <time>2018-11-07T18:15:45.970Z</time>
      </trkpt>
      <trkpt lat="44.12557" lon="7.5151">
        <ele>1923.2944335938</ele>
        <time>2018-11-07T18:15:51.514Z</time>
      </trkpt>
      <trkpt lat="44.12564" lon="7.51518">
        <ele>1922.4185791016</ele>
        <time>2018-11-07T18:15:57.059Z</time>
      </trkpt>
      <trkpt lat="44.12585" lon="7.51529">
        <ele>1923.5343017578</ele>
        <time>2018-11-07T18:16:02.608Z</time>
      </trkpt>
      <trkpt lat="44.12597" lon="7.51535">
        <ele>1924.2542724609</ele>
        <time>2018-11-07T18:16:08.159Z</time>
      </trkpt>
      <trkpt lat="44.12603" lon="7.5154">
        <ele>1924.0382080078</ele>
        <time>2018-11-07T18:16:13.711Z</time>
      </trkpt>
      <trkpt lat="44.1261" lon="7.51552">
        <ele>1922.0106201172</ele>
        <time>2018-11-07T18:16:19.265Z</time>
      </trkpt>
      <trkpt lat="44.12618" lon="7.51573">
        <ele>1918.0479736328</ele>
        <time>2018-11-07T18:16:24.821Z</time>
      </trkpt>
      <trkpt lat="44.12629" lon="7.5159">
        <ele>1915.9797363281</ele>
        <time>2018-11-07T18:16:30.380Z</time>
      </trkpt>
      <trkpt lat="44.1264" lon="7.51604">
        <ele>1914.6839599609</ele>
        <time>2018-11-07T18:16:35.941Z</time>
      </trkpt>
      <trkpt lat="44.1265" lon="7.51612">
        <ele>1914.923828125</ele>
        <time>2018-11-07T18:16:41.504Z</time>
      </trkpt>
      <trkpt lat="44.12689" lon="7.51629">
        <ele>1920.1190185547</ele>
        <time>2018-11-07T18:16:47.074Z</time>
      </trkpt>
      <trkpt lat="44.12694" lon="7.51637">
        <ele>1919.0225830078</ele>
        <time>2018-11-07T18:16:52.645Z</time>
      </trkpt>
      <trkpt lat="44.12703" lon="7.51659">
        <ele>1914.0433349609</ele>
        <time>2018-11-07T18:16:58.219Z</time>
      </trkpt>
      <trkpt lat="44.12736" lon="7.51711">
        <ele>1909.5804443359</ele>
        <time>2018-11-07T18:17:03.801Z</time>
      </trkpt>
      <trkpt lat="44.12745" lon="7.5172">
        <ele>1909.5804443359</ele>
        <time>2018-11-07T18:17:09.385Z</time>
      </trkpt>
      <trkpt lat="44.12762" lon="7.51725">
        <ele>1911.8283691406</ele>
        <time>2018-11-07T18:17:14.971Z</time>
      </trkpt>
      <trkpt lat="44.12783" lon="7.51734">
        <ele>1913.7774658203</ele>
        <time>2018-11-07T18:17:20.561Z</time>
      </trkpt>
      <trkpt lat="44.12787" lon="7.51738">
        <ele>1913.6334228516</ele>
        <time>2018-11-07T18:17:26.152Z</time>
      </trkpt>
      <trkpt lat="44.12791" lon="7.51745">
        <ele>1912.9495849609</ele>
        <time>2018-11-07T18:17:31.744Z</time>
      </trkpt>
      <trkpt lat="44.12796" lon="7.51774">
        <ele>1910.7762451172</ele>
        <time>2018-11-07T18:17:37.339Z</time>
      </trkpt>
      <trkpt lat="44.12794" lon="7.51802">
        <ele>1907.0328369141</ele>
        <time>2018-11-07T18:17:42.937Z</time>
      </trkpt>
      <trkpt lat="44.12773" lon="7.51871">
        <ele>1896.5151367188</ele>
        <time>2018-11-07T18:17:48.544Z</time>
      </trkpt>
      <trkpt lat="44.12765" lon="7.51917">
        <ele>1890.6478271484</ele>
        <time>2018-11-07T18:17:54.156Z</time>
      </trkpt>
      <trkpt lat="44.12756" lon="7.51945">
        <ele>1886.1483154297</ele>
        <time>2018-11-07T18:17:59.772Z</time>
      </trkpt>
      <trkpt lat="44.12756" lon="7.51954">
        <ele>1885.5004882812</ele>
        <time>2018-11-07T18:18:05.389Z</time>
      </trkpt>
      <trkpt lat="44.12762" lon="7.51962">
        <ele>1886.5803222656</ele>
        <time>2018-11-07T18:18:11.007Z</time>
      </trkpt>
      <trkpt lat="44.12772" lon="7.51963">
        <ele>1889.2678222656</ele>
        <time>2018-11-07T18:18:16.627Z</time>
      </trkpt>
      <trkpt lat="44.12787" lon="7.51959">
        <ele>1893.5769042969</ele>
        <time>2018-11-07T18:18:22.249Z</time>
      </trkpt>
      <trkpt lat="44.12797" lon="7.51961">
        <ele>1896.0725097656</ele>
        <time>2018-11-07T18:18:27.873Z</time>
      </trkpt>
      <trkpt lat="44.12806" lon="7.51968">
        <ele>1897.9442138672</ele>
        <time>2018-11-07T18:18:33.499Z</time>
      </trkpt>
      <trkpt lat="44.12811" lon="7.51979">
        <ele>1898.4720458984</ele>
        <time>2018-11-07T18:18:39.126Z</time>
      </trkpt>
      <trkpt lat="44.12813" lon="7.52001">
        <ele>1897.4552001953</ele>
        <time>2018-11-07T18:18:44.756Z</time>
      </trkpt>
      <trkpt lat="44.12805" lon="7.52035">
        <ele>1894.5345458984</ele>
        <time>2018-11-07T18:18:50.390Z</time>
      </trkpt>
      <trkpt lat="44.12797" lon="7.52069">
        <ele>1889.4886474609</ele>
        <time>2018-11-07T18:18:56.028Z</time>
      </trkpt>
      <trkpt lat="44.12794" lon="7.52092">
        <ele>1888.1560058594</ele>
        <time>2018-11-07T18:19:01.669Z</time>
      </trkpt>
      <trkpt lat="44.12795" lon="7.52122">
        <ele>1889.0364990234</ele>
        <time>2018-11-07T18:19:07.313Z</time>
      </trkpt>
      <trkpt lat="44.12792" lon="7.5215">
        <ele>1887.4407958984</ele>
        <time>2018-11-07T18:19:12.960Z</time>
      </trkpt>
      <trkpt lat="44.12781" lon="7.52176">
        <ele>1883.830078125</ele>
        <time>2018-11-07T18:19:18.611Z</time>
      </trkpt>
      <trkpt lat="44.12775" lon="7.52195">
        <ele>1883.6063232422</ele>
        <time>2018-11-07T18:19:24.264Z</time>
      </trkpt>
      <trkpt lat="44.12764" lon="7.52215">
        <ele>1882.1784667969</ele>
        <time>2018-11-07T18:19:29.920Z</time>
      </trkpt>
      <trkpt lat="44.12733" lon="7.52244">
        <ele>1873.0596923828</ele>
        <time>2018-11-07T18:19:35.582Z</time>
      </trkpt>
      <trkpt lat="44.12712" lon="7.52271">
        <ele>1868.1722412109</ele>
        <time>2018-11-07T18:19:41.249Z</time>
      </trkpt>
      <trkpt lat="44.12709" lon="7.52287">
        <ele>1869.2880859375</ele>
        <time>2018-11-07T18:19:46.918Z</time>
      </trkpt>
      <trkpt lat="44.12713" lon="7.52308">
        <ele>1873.8952636719</ele>
        <time>2018-11-07T18:19:52.589Z</time>
      </trkpt>
      <trkpt lat="44.12715" lon="7.52325">
        <ele>1877.134765625</ele>
        <time>2018-11-07T18:19:58.262Z</time>
      </trkpt>
      <trkpt lat="44.12711" lon="7.52343">
        <ele>1877.6981201172</ele>
        <time>2018-11-07T18:20:03.937Z</time>
      </trkpt>
      <trkpt lat="44.12699" lon="7.52377">
        <ele>1874.8403320312</ele>
        <time>2018-11-07T18:20:09.617Z</time>
      </trkpt>
      <trkpt lat="44.12679" lon="7.52421">
        <ele>1869.5620117188</ele>
        <time>2018-11-07T18:20:15.303Z</time>
      </trkpt>
      <trkpt lat="44.1265" lon="7.52476">
        <ele>1863.0893554688</ele>
        <time>2018-11-07T18:20:20.997Z</time>
      </trkpt>
      <trkpt lat="44.12633" lon="7.52504">
        <ele>1856.7624511719</ele>
        <time>2018-11-07T18:20:26.695Z</time>
      </trkpt>
      <trkpt lat="44.12629" lon="7.52511">
        <ele>1853.7114257812</ele>
        <time>2018-11-07T18:20:32.394Z</time>
      </trkpt>
      <trkpt lat="44.12615" lon="7.52546">
        <ele>1849.83984375</ele>
        <time>2018-11-07T18:20:38.097Z</time>
      </trkpt>
      <trkpt lat="44.1261" lon="7.52574">
        <ele>1849.3914794922</ele>
        <time>2018-11-07T18:20:43.804Z</time>
      </trkpt>
      <trkpt lat="44.12612" lon="7.5259">
        <ele>1849.8132324219</ele>
        <time>2018-11-07T18:20:49.513Z</time>
      </trkpt>
      <trkpt lat="44.12616" lon="7.52596">
        <ele>1849.6932373047</ele>
        <time>2018-11-07T18:20:55.223Z</time>
      </trkpt>
      <trkpt lat="44.12629" lon="7.52603">
        <ele>1849.7532958984</ele>
        <time>2018-11-07T18:21:00.935Z</time>
      </trkpt>
      <trkpt lat="44.12706" lon="7.5262">
        <ele>1863.46875</ele>
        <time>2018-11-07T18:21:06.659Z</time>
      </trkpt>
      <trkpt lat="44.12729" lon="7.5263">
        <ele>1863.46875</ele>
        <time>2018-11-07T18:21:12.387Z</time>
      </trkpt>
      <trkpt lat="44.12744" lon="7.52644">
        <ele>1861.4050292969</ele>
        <time>2018-11-07T18:21:18.118Z</time>
      </trkpt>
      <trkpt lat="44.1275" lon="7.52656">
        <ele>1858.8134765625</ele>
        <time>2018-11-07T18:21:23.851Z</time>
      </trkpt>
      <trkpt lat="44.12751" lon="7.52686">
        <ele>1851.560546875</ele>
        <time>2018-11-07T18:21:29.587Z</time>
      </trkpt>
      <trkpt lat="44.12756" lon="7.52709">
        <ele>1846.9173583984</ele>
        <time>2018-11-07T18:21:35.326Z</time>
      </trkpt>
      <trkpt lat="44.12771" lon="7.52744">
        <ele>1840.73828125</ele>
        <time>2018-11-07T18:21:41.070Z</time>
      </trkpt>
      <trkpt lat="44.12792" lon="7.52785">
        <ele>1837.1856689453</ele>
        <time>2018-11-07T18:21:46.819Z</time>
      </trkpt>
      <trkpt lat="44.12821" lon="7.52824">
        <ele>1839.8732910156</ele>
        <time>2018-11-07T18:21:52.575Z</time>
      </trkpt>
      <trkpt lat="44.12845" lon="7.52862">
        <ele>1841.4633789062</ele>
        <time>2018-11-07T18:21:58.337Z</time>
      </trkpt>
      <trkpt lat="44.12855" lon="7.52882">
        <ele>1841.2233886719</ele>
        <time>2018-11-07T18:22:04.101Z</time>
      </trkpt>
      <trkpt lat="44.12858" lon="7.52907">
        <ele>1836.3642578125</ele>
        <time>2018-11-07T18:22:09.868Z</time>
      </trkpt>
      <trkpt lat="44.12862" lon="7.52952">
        <ele>1829.5794677734</ele>
        <time>2018-11-07T18:22:15.641Z</time>
      </trkpt>
      <trkpt lat="44.12871" lon="7.52987">
        <ele>1828.3557128906</ele>
        <time>2018-11-07T18:22:21.418Z</time>
      </trkpt>
      <trkpt lat="44.12896" lon="7.53047">
        <ele>1828.7041015625</ele>
        <time>2018-11-07T18:22:27.203Z</time>
      </trkpt>
      <trkpt lat="44.12915" lon="7.53094">
        <ele>1827.9760742188</ele>
        <time>2018-11-07T18:22:32.994Z</time>
      </trkpt>
      <trkpt lat="44.12938" lon="7.53137">
        <ele>1828.2520751953</ele>
        <time>2018-11-07T18:22:38.791Z</time>
      </trkpt>
      <trkpt lat="44.12958" lon="7.53165">
        <ele>1831.2534179688</ele>
        <time>2018-11-07T18:22:44.593Z</time>
      </trkpt>
      <trkpt lat="44.1297" lon="7.53177">
        <ele>1835.2429199219</ele>
        <time>2018-11-07T18:22:50.397Z</time>
      </trkpt>
      <trkpt lat="44.12974" lon="7.53188">
        <ele>1835.291015625</ele>
        <time>2018-11-07T18:22:56.203Z</time>
      </trkpt>
      <trkpt lat="44.12977" lon="7.53217">
        <ele>1830.9444580078</ele>
        <time>2018-11-07T18:23:02.012Z</time>
      </trkpt>
      <trkpt lat="44.12984" lon="7.53273">
        <ele>1823.6055908203</ele>
        <time>2018-11-07T18:23:07.828Z</time>
      </trkpt>
      <trkpt lat="44.12998" lon="7.53321">
        <ele>1823.0571289062</ele>
        <time>2018-11-07T18:23:13.650Z</time>
      </trkpt>
      <trkpt lat="44.13001" lon="7.53332">
        <ele>1822.8651123047</ele>
        <time>2018-11-07T18:23:19.473Z</time>
      </trkpt>
      <trkpt lat="44.13012" lon="7.53365">
        <ele>1822.1534423828</ele>
        <time>2018-11-07T18:23:25.300Z</time>
      </trkpt>
      <trkpt lat="44.13016" lon="7.53378">
        <ele>1821.8299560547</ele>
        <time>2018-11-07T18:23:31.129Z</time>
      </trkpt>
      <trkpt lat="44.13036" lon="7.53429">
        <ele>1821.1623535156</ele>
        <time>2018-11-07T18:23:36.964Z</time>
      </trkpt>
      <trkpt lat="44.1305" lon="7.53474">
        <ele>1817.3229980469</ele>
        <time>2018-11-07T18:23:42.805Z</time>
      </trkpt>
      <trkpt lat="44.13056" lon="7.53482">
        <ele>1818.1147460938</ele>
        <time>2018-11-07T18:23:48.647Z</time>
      </trkpt>
      <trkpt lat="44.13082" lon="7.5349">
        <ele>1827.3052978516</ele>
        <time>2018-11-07T18:23:54.494Z</time>
      </trkpt>
      <trkpt lat="44.13109" lon="7.53498">
        <ele>1837.0303955078</ele>
        <time>2018-11-07T18:24:00.345Z</time>
      </trkpt>
      <trkpt lat="44.13118" lon="7.53505">
        <ele>1838.4763183594</ele>
        <time>2018-11-07T18:24:06.198Z</time>
      </trkpt>
      <trkpt lat="44.13126" lon="7.53522">
        <ele>1835.7191162109</ele>
        <time>2018-11-07T18:24:12.053Z</time>
      </trkpt>
      <trkpt lat="44.13137" lon="7.53561">
        <ele>1825.9647216797</ele>
        <time>2018-11-07T18:24:17.913Z</time>
      </trkpt>
      <trkpt lat="44.13147" lon="7.53577">
        <ele>1824.3330078125</ele>
        <time>2018-11-07T18:24:23.775Z</time>
      </trkpt>
      <trkpt lat="44.1317" lon="7.5359">
        <ele>1829.0689697266</ele>
        <time>2018-11-07T18:24:29.641Z</time>
      </trkpt>
      <trkpt lat="44.13202" lon="7.53608">
        <ele>1832.0979003906</ele>
        <time>2018-11-07T18:24:35.513Z</time>
      </trkpt>
      <trkpt lat="44.13216" lon="7.5361">
        <ele>1832.0738525391</ele>
        <time>2018-11-07T18:24:41.387Z</time>
      </trkpt>
      <trkpt lat="44.13236" lon="7.53604">
        <ele>1835.865234375</ele>
        <time>2018-11-07T18:24:47.264Z</time>
      </trkpt>
      <trkpt lat="44.13264" lon="7.53583">
        <ele>1846.5245361328</ele>
        <time>2018-11-07T18:24:53.146Z</time>
      </trkpt>
      <trkpt lat="44.13323" lon="7.53547">
        <ele>1850.5406494141</ele>
        <time>2018-11-07T18:24:59.039Z</time>
      </trkpt>
      <trkpt lat="44.1339" lon="7.53504">
        <ele>1853.0373535156</ele>
        <time>2018-11-07T18:25:04.944Z</time>
      </trkpt>
      <trkpt lat="44.13406" lon="7.53499">
        <ele>1851.3815917969</ele>
        <time>2018-11-07T18:25:10.851Z</time>
      </trkpt>
      <trkpt lat="44.13446" lon="7.53493">
        <ele>1844.9128417969</ele>
        <time>2018-11-07T18:25:16.765Z</time>
      </trkpt>
      <trkpt lat="44.13523" lon="7.53485">
        <ele>1845.0330810547</ele>
        <time>2018-11-07T18:25:22.691Z</time>
      </trkpt>
      <trkpt lat="44.13566" lon="7.5347">
        <ele>1847.87109375</ele>
        <time>2018-11-07T18:25:28.624Z</time>
      </trkpt>
      <trkpt lat="44.13599" lon="7.5345">
        <ele>1850.8724365234</ele>
        <time>2018-11-07T18:25:34.563Z</time>
      </trkpt>
      <trkpt lat="44.13622" lon="7.53428">
        <ele>1854.2712402344</ele>
        <time>2018-11-07T18:25:40.506Z</time>
      </trkpt>
      <trkpt lat="44.13656" lon="7.53384">
        <ele>1857.5980224609</ele>
        <time>2018-11-07T18:25:46.457Z</time>
      </trkpt>
      <trkpt lat="44.13669" lon="7.53366">
        <ele>1856.6401367188</ele>
        <time>2018-11-07T18:25:52.411Z</time>
      </trkpt>
      <trkpt lat="44.1368" lon="7.53343">
        <ele>1857.587890625</ele>
        <time>2018-11-07T18:25:58.368Z</time>
      </trkpt>
      <trkpt lat="44.13691" lon="7.53315">
        <ele>1861.8258056641</ele>
        <time>2018-11-07T18:26:04.328Z</time>
      </trkpt>
      <trkpt lat="44.13706" lon="7.53294">
        <ele>1865.1455078125</ele>
        <time>2018-11-07T18:26:10.292Z</time>
      </trkpt>
      <trkpt lat="44.13727" lon="7.53276">
        <ele>1865.6937255859</ele>
        <time>2018-11-07T18:26:16.260Z</time>
      </trkpt>
      <trkpt lat="44.13739" lon="7.53274">
        <ele>1861.7823486328</ele>
        <time>2018-11-07T18:26:22.230Z</time>
      </trkpt>
      <trkpt lat="44.13755" lon="7.5328">
        <ele>1854.1756591797</ele>
        <time>2018-11-07T18:26:28.202Z</time>
      </trkpt>
      <trkpt lat="44.13767" lon="7.5328">
        <ele>1849.7124023438</ele>
        <time>2018-11-07T18:26:34.176Z</time>
      </trkpt>
      <trkpt lat="44.138" lon="7.53278">
        <ele>1845.8830566406</ele>
        <time>2018-11-07T18:26:40.156Z</time>
      </trkpt>
      <trkpt lat="44.13837" lon="7.53282">
        <ele>1845.5856933594</ele>
        <time>2018-11-07T18:26:46.142Z</time>
      </trkpt>
      <trkpt lat="44.13871" lon="7.53293">
        <ele>1844.2303466797</ele>
        <time>2018-11-07T18:26:52.133Z</time>
      </trkpt>
      <trkpt lat="44.139" lon="7.53299">
        <ele>1846.3900146484</ele>
        <time>2018-11-07T18:26:58.129Z</time>
      </trkpt>
      <trkpt lat="44.13915" lon="7.53306">
        <ele>1846.1979980469</ele>
        <time>2018-11-07T18:27:04.127Z</time>
      </trkpt>
      <trkpt lat="44.13926" lon="7.53315">
        <ele>1844.7368164062</ele>
        <time>2018-11-07T18:27:10.127Z</time>
      </trkpt>
      <trkpt lat="44.13945" lon="7.53345">
        <ele>1839.3833007812</ele>
        <time>2018-11-07T18:27:16.132Z</time>
      </trkpt>
      <trkpt lat="44.13968" lon="7.53392">
        <ele>1839.7552490234</ele>
        <time>2018-11-07T18:27:22.144Z</time>
      </trkpt>
      <trkpt lat="44.13975" lon="7.53415">
        <ele>1838.3035888672</ele>
        <time>2018-11-07T18:27:28.158Z</time>
      </trkpt>
      <trkpt lat="44.13977" lon="7.53451">
        <ele>1836.6687011719</ele>
        <time>2018-11-07T18:27:34.177Z</time>
      </trkpt>
      <trkpt lat="44.13991" lon="7.53522">
        <ele>1838.8092041016</ele>
        <time>2018-11-07T18:27:40.204Z</time>
      </trkpt>
      <trkpt lat="44.14005" lon="7.53577">
        <ele>1839.5361328125</ele>
        <time>2018-11-07T18:27:46.238Z</time>
      </trkpt>
      <trkpt lat="44.14006" lon="7.53605">
        <ele>1838.3022460938</ele>
        <time>2018-11-07T18:27:52.275Z</time>
      </trkpt>
      <trkpt lat="44.14002" lon="7.53641">
        <ele>1835.134765625</ele>
        <time>2018-11-07T18:27:58.316Z</time>
      </trkpt>
      <trkpt lat="44.14003" lon="7.53703">
        <ele>1829.7528076172</ele>
        <time>2018-11-07T18:28:04.364Z</time>
      </trkpt>
      <trkpt lat="44.14003" lon="7.53731">
        <ele>1827.5073242188</ele>
        <time>2018-11-07T18:28:10.416Z</time>
      </trkpt>
      <trkpt lat="44.14011" lon="7.53775">
        <ele>1825.3648681641</ele>
        <time>2018-11-07T18:28:16.473Z</time>
      </trkpt>
      <trkpt lat="44.14034" lon="7.53859">
        <ele>1826.6853027344</ele>
        <time>2018-11-07T18:28:22.540Z</time>
      </trkpt>
      <trkpt lat="44.14047" lon="7.53882">
        <ele>1830.1166992188</ele>
        <time>2018-11-07T18:28:28.611Z</time>
      </trkpt>
      <trkpt lat="44.14061" lon="7.53912">
        <ele>1832.9962158203</ele>
        <time>2018-11-07T18:28:34.686Z</time>
      </trkpt>
      <trkpt lat="44.14066" lon="7.53936">
        <ele>1833.7437744141</ele>
        <time>2018-11-07T18:28:40.764Z</time>
      </trkpt>
      <trkpt lat="44.14066" lon="7.53986">
        <ele>1832.1850585938</ele>
        <time>2018-11-07T18:28:46.847Z</time>
      </trkpt>
      <trkpt lat="44.14066" lon="7.54037">
        <ele>1832.0089111328</ele>
        <time>2018-11-07T18:28:52.936Z</time>
      </trkpt>
      <trkpt lat="44.14071" lon="7.54077">
        <ele>1838.388671875</ele>
        <time>2018-11-07T18:28:59.030Z</time>
      </trkpt>
      <trkpt lat="44.1407" lon="7.54097">
        <ele>1840.7275390625</ele>
        <time>2018-11-07T18:29:05.126Z</time>
      </trkpt>
      <trkpt lat="44.14064" lon="7.54111">
        <ele>1840.5115966797</ele>
        <time>2018-11-07T18:29:11.224Z</time>
      </trkpt>
      <trkpt lat="44.14056" lon="7.54115">
        <ele>1838.3912353516</ele>
        <time>2018-11-07T18:29:17.323Z</time>
      </trkpt>
      <trkpt lat="44.14033" lon="7.54117">
        <ele>1833.1240234375</ele>
        <time>2018-11-07T18:29:23.426Z</time>
      </trkpt>
      <trkpt lat="44.14024" lon="7.54121">
        <ele>1831.6705322266</ele>
        <time>2018-11-07T18:29:29.531Z</time>
      </trkpt>
      <trkpt lat="44.13999" lon="7.54141">
        <ele>1829.0173339844</ele>
        <time>2018-11-07T18:29:35.640Z</time>
      </trkpt>
      <trkpt lat="44.13981" lon="7.5415">
        <ele>1827.8294677734</ele>
        <time>2018-11-07T18:29:41.752Z</time>
      </trkpt>
      <trkpt lat="44.13968" lon="7.54154">
        <ele>1826.1018066406</ele>
        <time>2018-11-07T18:29:47.866Z</time>
      </trkpt>
      <trkpt lat="44.1396" lon="7.54163">
        <ele>1827.3135986328</ele>
        <time>2018-11-07T18:29:53.982Z</time>
      </trkpt>
      <trkpt lat="44.13954" lon="7.5418">
        <ele>1828.4758300781</ele>
        <time>2018-11-07T18:30:00.100Z</time>
      </trkpt>
      <trkpt lat="44.13957" lon="7.54207">
        <ele>1829.5196533203</ele>
        <time>2018-11-07T18:30:06.221Z</time>
      </trkpt>
      <trkpt lat="44.13965" lon="7.54243">
        <ele>1832.3032226562</ele>
        <time>2018-11-07T18:30:12.347Z</time>
      </trkpt>
      <trkpt lat="44.13995" lon="7.54298">
        <ele>1839.3382568359</ele>
        <time>2018-11-07T18:30:18.481Z</time>
      </trkpt>
      <trkpt lat="44.14009" lon="7.54334">
        <ele>1839.4240722656</ele>
        <time>2018-11-07T18:30:24.619Z</time>
      </trkpt>
      <trkpt lat="44.1401" lon="7.54344">
        <ele>1840.9500732422</ele>
        <time>2018-11-07T18:30:30.759Z</time>
      </trkpt>
      <trkpt lat="44.14" lon="7.54365">
        <ele>1838.5384521484</ele>
        <time>2018-11-07T18:30:36.901Z</time>
      </trkpt>
      <trkpt lat="44.13971" lon="7.54417">
        <ele>1827.8991699219</ele>
        <time>2018-11-07T18:30:43.051Z</time>
      </trkpt>
      <trkpt lat="44.13947" lon="7.5447">
        <ele>1831.8371582031</ele>
        <time>2018-11-07T18:30:49.208Z</time>
      </trkpt>
      <trkpt lat="44.13932" lon="7.54495">
        <ele>1832.2814941406</ele>
        <time>2018-11-07T18:30:55.369Z</time>
      </trkpt>
      <trkpt lat="44.13904" lon="7.54527">
        <ele>1825.0235595703</ele>
        <time>2018-11-07T18:31:01.536Z</time>
      </trkpt>
      <trkpt lat="44.13885" lon="7.5455">
        <ele>1818.9935302734</ele>
        <time>2018-11-07T18:31:07.707Z</time>
      </trkpt>
      <trkpt lat="44.13884" lon="7.54552">
        <ele>1818.8333740234</ele>
        <time>2018-11-07T18:31:13.878Z</time>
      </trkpt>
      <trkpt lat="44.13876" lon="7.5457">
        <ele>1817.2778320312</ele>
        <time>2018-11-07T18:31:20.052Z</time>
      </trkpt>
      <trkpt lat="44.13876" lon="7.54584">
        <ele>1819.6293945312</ele>
        <time>2018-11-07T18:31:26.227Z</time>
      </trkpt>
      <trkpt lat="44.1388" lon="7.54629">
        <ele>1820.6781005859</ele>
        <time>2018-11-07T18:31:32.407Z</time>
      </trkpt>
      <trkpt lat="44.13889" lon="7.54692">
        <ele>1824.044921875</ele>
        <time>2018-11-07T18:31:38.595Z</time>
      </trkpt>
      <trkpt lat="44.13892" lon="7.54705">
        <ele>1825.5758056641</ele>
        <time>2018-11-07T18:31:44.784Z</time>
      </trkpt>
      <trkpt lat="44.13891" lon="7.54727">
        <ele>1824.1480712891</ele>
        <time>2018-11-07T18:31:50.976Z</time>
      </trkpt>
      <trkpt lat="44.13894" lon="7.54759">
        <ele>1825.4935302734</ele>
        <time>2018-11-07T18:31:57.172Z</time>
      </trkpt>
      <trkpt lat="44.13891" lon="7.54773">
        <ele>1824.08984375</ele>
        <time>2018-11-07T18:32:03.369Z</time>
      </trkpt>
      <trkpt lat="44.13879" lon="7.54799">
        <ele>1822.4096679688</ele>
        <time>2018-11-07T18:32:09.570Z</time>
      </trkpt>
      <trkpt lat="44.13861" lon="7.54861">
        <ele>1825.916015625</ele>
        <time>2018-11-07T18:32:15.779Z</time>
      </trkpt>
      <trkpt lat="44.13854" lon="7.54892">
        <ele>1828.0526123047</ele>
        <time>2018-11-07T18:32:21.991Z</time>
      </trkpt>
      <trkpt lat="44.13856" lon="7.54902">
        <ele>1830.8601074219</ele>
        <time>2018-11-07T18:32:28.205Z</time>
      </trkpt>
      <trkpt lat="44.13871" lon="7.54912">
        <ele>1837.6141357422</ele>
        <time>2018-11-07T18:32:34.421Z</time>
      </trkpt>
      <trkpt lat="44.13879" lon="7.54953">
        <ele>1835.8505859375</ele>
        <time>2018-11-07T18:32:40.642Z</time>
      </trkpt>
      <trkpt lat="44.13889" lon="7.54977">
        <ele>1835.4906005859</ele>
        <time>2018-11-07T18:32:46.866Z</time>
      </trkpt>
      <trkpt lat="44.13894" lon="7.54983">
        <ele>1835.6706542969</ele>
        <time>2018-11-07T18:32:53.091Z</time>
      </trkpt>
      <trkpt lat="44.13904" lon="7.54988">
        <ele>1836.4504394531</ele>
        <time>2018-11-07T18:32:59.318Z</time>
      </trkpt>
      <trkpt lat="44.13987" lon="7.54996">
        <ele>1849.7576904297</ele>
        <time>2018-11-07T18:33:05.558Z</time>
      </trkpt>
      <trkpt lat="44.13999" lon="7.54999">
        <ele>1851.5933837891</ele>
        <time>2018-11-07T18:33:11.800Z</time>
      </trkpt>
      <trkpt lat="44.14014" lon="7.55006">
        <ele>1852.5455322266</ele>
        <time>2018-11-07T18:33:18.045Z</time>
      </trkpt>
      <trkpt lat="44.14052" lon="7.55027">
        <ele>1854.4240722656</ele>
        <time>2018-11-07T18:33:24.296Z</time>
      </trkpt>
      <trkpt lat="44.14086" lon="7.55051">
        <ele>1855.4373779297</ele>
        <time>2018-11-07T18:33:30.553Z</time>
      </trkpt>
      <trkpt lat="44.14099" lon="7.55059">
        <ele>1856.3253173828</ele>
        <time>2018-11-07T18:33:36.813Z</time>
      </trkpt>
      <trkpt lat="44.14112" lon="7.55063">
        <ele>1858.5793457031</ele>
        <time>2018-11-07T18:33:43.075Z</time>
      </trkpt>
      <trkpt lat="44.14122" lon="7.55063">
        <ele>1860.0190429688</ele>
        <time>2018-11-07T18:33:49.339Z</time>
      </trkpt>
      <trkpt lat="44.14134" lon="7.55059">
        <ele>1863.3304443359</ele>
        <time>2018-11-07T18:33:55.604Z</time>
      </trkpt>
      <trkpt lat="44.14144" lon="7.55051">
        <ele>1867.9377441406</ele>
        <time>2018-11-07T18:34:01.871Z</time>
      </trkpt>
      <trkpt lat="44.14168" lon="7.55048">
        <ele>1873.5548095703</ele>
        <time>2018-11-07T18:34:08.142Z</time>
      </trkpt>
      <trkpt lat="44.14176" lon="7.55048">
        <ele>1875.4744873047</ele>
        <time>2018-11-07T18:34:14.414Z</time>
      </trkpt>
      <trkpt lat="44.14193" lon="7.55054">
        <ele>1876.6022949219</ele>
        <time>2018-11-07T18:34:20.689Z</time>
      </trkpt>
      <trkpt lat="44.14234" lon="7.55071">
        <ele>1875.2022705078</ele>
        <time>2018-11-07T18:34:26.971Z</time>
      </trkpt>
      <trkpt lat="44.14254" lon="7.55071">
        <ele>1878.5616455078</ele>
        <time>2018-11-07T18:34:33.256Z</time>
      </trkpt>
      <trkpt lat="44.14296" lon="7.55066">
        <ele>1889.6575927734</ele>
        <time>2018-11-07T18:34:39.548Z</time>
      </trkpt>
      <trkpt lat="44.14307" lon="7.55071">
        <ele>1890.7374267578</ele>
        <time>2018-11-07T18:34:45.842Z</time>
      </trkpt>
      <trkpt lat="44.14325" lon="7.55108">
        <ele>1881.4248046875</ele>
        <time>2018-11-07T18:34:52.141Z</time>
      </trkpt>
      <trkpt lat="44.14332" lon="7.55116">
        <ele>1880.5489501953</ele>
        <time>2018-11-07T18:34:58.442Z</time>
      </trkpt>
      <trkpt lat="44.14348" lon="7.55123">
        <ele>1882.7446289062</ele>
        <time>2018-11-07T18:35:04.745Z</time>
      </trkpt>
      <trkpt lat="44.14359" lon="7.55131">
        <ele>1883.0684814453</ele>
        <time>2018-11-07T18:35:11.050Z</time>
      </trkpt>
      <trkpt lat="44.14374" lon="7.55146">
        <ele>1884.3739013672</ele>
        <time>2018-11-07T18:35:17.358Z</time>
      </trkpt>
      <trkpt lat="44.1438" lon="7.55155">
        <ele>1883.9060058594</ele>
        <time>2018-11-07T18:35:23.668Z</time>
      </trkpt>
      <trkpt lat="44.14384" lon="7.55172">
        <ele>1879.9304199219</ele>
        <time>2018-11-07T18:35:29.980Z</time>
      </trkpt>
      <trkpt lat="44.14404" lon="7.5523">
        <ele>1872.6019287109</ele>
        <time>2018-11-07T18:35:36.299Z</time>
      </trkpt>
      <trkpt lat="44.14409" lon="7.55239">
        <ele>1872.3259277344</ele>
        <time>2018-11-07T18:35:42.619Z</time>
      </trkpt>
      <trkpt lat="44.14424" lon="7.55251">
        <ele>1876.3729248047</ele>
        <time>2018-11-07T18:35:48.942Z</time>
      </trkpt>
      <trkpt lat="44.14433" lon="7.55262">
        <ele>1879.1444091797</ele>
        <time>2018-11-07T18:35:55.267Z</time>
      </trkpt>
      <trkpt lat="44.14435" lon="7.55295">
        <ele>1874.2612304688</ele>
        <time>2018-11-07T18:36:01.596Z</time>
      </trkpt>
      <trkpt lat="44.14438" lon="7.55312">
        <ele>1872.7855224609</ele>
        <time>2018-11-07T18:36:07.927Z</time>
      </trkpt>
      <trkpt lat="44.14442" lon="7.55319">
        <ele>1873.6373291016</ele>
        <time>2018-11-07T18:36:14.259Z</time>
      </trkpt>
      <trkpt lat="44.14452" lon="7.55326">
        <ele>1878.4155273438</ele>
        <time>2018-11-07T18:36:20.593Z</time>
      </trkpt>
      <trkpt lat="44.14467" lon="7.55336">
        <ele>1885.9953613281</ele>
        <time>2018-11-07T18:36:26.929Z</time>
      </trkpt>
      <trkpt lat="44.14474" lon="7.55343">
        <ele>1889.1868896484</ele>
        <time>2018-11-07T18:36:33.267Z</time>
      </trkpt>
      <trkpt lat="44.14479" lon="7.55353">
        <ele>1890.6265869141</ele>
        <time>2018-11-07T18:36:39.606Z</time>
      </trkpt>
      <trkpt lat="44.14482" lon="7.55378">
        <ele>1888.2287597656</ele>
        <time>2018-11-07T18:36:45.948Z</time>
      </trkpt>
      <trkpt lat="44.14482" lon="7.55389">
        <ele>1886.2491455078</ele>
        <time>2018-11-07T18:36:52.291Z</time>
      </trkpt>
      <trkpt lat="44.14478" lon="7.55412">
        <ele>1879.5662841797</ele>
        <time>2018-11-07T18:36:58.637Z</time>
      </trkpt>
      <trkpt lat="44.14478" lon="7.55418">
        <ele>1878.5062255859</ele>
        <time>2018-11-07T18:37:04.984Z</time>
      </trkpt>
      <trkpt lat="44.14484" lon="7.55431">
        <ele>1880.6059570312</ele>
        <time>2018-11-07T18:37:11.332Z</time>
      </trkpt>
      <trkpt lat="44.14486" lon="7.55448">
        <ele>1879.6340332031</ele>
        <time>2018-11-07T18:37:17.682Z</time>
      </trkpt>
      <trkpt lat="44.14483" lon="7.55471">
        <ele>1875.0390625</ele>
        <time>2018-11-07T18:37:24.035Z</time>
      </trkpt>
      <trkpt lat="44.14481" lon="7.55531">
        <ele>1863.3681640625</ele>
        <time>2018-11-07T18:37:30.395Z</time>
      </trkpt>
      <trkpt lat="44.14485" lon="7.55549">
        <ele>1862.7850341797</ele>
        <time>2018-11-07T18:37:36.757Z</time>
      </trkpt>
      <trkpt lat="44.1449" lon="7.55555">
        <ele>1864.5848388672</ele>
        <time>2018-11-07T18:37:43.120Z</time>
      </trkpt>
      <trkpt lat="44.14516" lon="7.55565">
        <ele>1876.6259765625</ele>
        <time>2018-11-07T18:37:49.488Z</time>
      </trkpt>
      <trkpt lat="44.14528" lon="7.55572">
        <ele>1882.1883544922</ele>
        <time>2018-11-07T18:37:55.858Z</time>
      </trkpt>
      <trkpt lat="44.14541" lon="7.55584">
        <ele>1884.9239501953</ele>
        <time>2018-11-07T18:38:02.230Z</time>
      </trkpt>
      <trkpt lat="44.14561" lon="7.55615">
        <ele>1878.0152587891</ele>
        <time>2018-11-07T18:38:08.607Z</time>
      </trkpt>
      <trkpt lat="44.1457" lon="7.55622">
        <ele>1878.3752441406</ele>
        <time>2018-11-07T18:38:14.986Z</time>
      </trkpt>
      <trkpt lat="44.14594" lon="7.55622">
        <ele>1888.7414550781</ele>
        <time>2018-11-07T18:38:21.369Z</time>
      </trkpt>
      <trkpt lat="44.14603" lon="7.55625">
        <ele>1891.1170654297</ele>
        <time>2018-11-07T18:38:27.753Z</time>
      </trkpt>
      <trkpt lat="44.14614" lon="7.55634">
        <ele>1891.2559814453</ele>
        <time>2018-11-07T18:38:34.139Z</time>
      </trkpt>
      <trkpt lat="44.14621" lon="7.55644">
        <ele>1889.072265625</ele>
        <time>2018-11-07T18:38:40.527Z</time>
      </trkpt>
      <trkpt lat="44.14624" lon="7.5566">
        <ele>1882.2333984375</ele>
        <time>2018-11-07T18:38:46.917Z</time>
      </trkpt>
      <trkpt lat="44.1463" lon="7.55674">
        <ele>1878.4671630859</ele>
        <time>2018-11-07T18:38:53.308Z</time>
      </trkpt>
      <trkpt lat="44.14638" lon="7.55678">
        <ele>1880.2429199219</ele>
        <time>2018-11-07T18:38:59.701Z</time>
      </trkpt>
      <trkpt lat="44.14657" lon="7.55683">
        <ele>1886.1339111328</ele>
        <time>2018-11-07T18:39:06.097Z</time>
      </trkpt>
      <trkpt lat="44.14675" lon="7.55683">
        <ele>1893.4766845703</ele>
        <time>2018-11-07T18:39:12.496Z</time>
      </trkpt>
      <trkpt lat="44.14682" lon="7.55683">
        <ele>1896.3321533203</ele>
        <time>2018-11-07T18:39:18.896Z</time>
      </trkpt>
      <trkpt lat="44.14689" lon="7.55687">
        <ele>1897.6999511719</ele>
        <time>2018-11-07T18:39:25.297Z</time>
      </trkpt>
      <trkpt lat="44.14704" lon="7.55704">
        <ele>1895.9573974609</ele>
        <time>2018-11-07T18:39:31.701Z</time>
      </trkpt>
      <trkpt lat="44.14712" lon="7.55714">
        <ele>1894.2536621094</ele>
        <time>2018-11-07T18:39:38.107Z</time>
      </trkpt>
      <trkpt lat="44.14716" lon="7.55722">
        <ele>1892.2860107422</ele>
        <time>2018-11-07T18:39:44.514Z</time>
      </trkpt>
      <trkpt lat="44.14724" lon="7.55728">
        <ele>1891.8878173828</ele>
        <time>2018-11-07T18:39:50.922Z</time>
      </trkpt>
      <trkpt lat="44.14724" lon="7.55728">
        <ele>1891.8878173828</ele>
        <time>2018-11-07T18:39:57.330Z</time>
      </trkpt>
      <trkpt lat="44.14727" lon="7.55731">
        <ele>1891.7100830078</ele>
        <time>2018-11-07T18:40:03.739Z</time>
      </trkpt>
      <trkpt lat="44.14737" lon="7.55748">
        <ele>1887.9067382812</ele>
        <time>2018-11-07T18:40:10.151Z</time>
      </trkpt>
      <trkpt lat="44.14764" lon="7.55814">
        <ele>1891.3344726562</ele>
        <time>2018-11-07T18:40:16.571Z</time>
      </trkpt>
      <trkpt lat="44.14781" lon="7.5584">
        <ele>1894.1206054688</ele>
        <time>2018-11-07T18:40:22.995Z</time>
      </trkpt>
      <trkpt lat="44.14799" lon="7.5586">
        <ele>1895.8243408203</ele>
        <time>2018-11-07T18:40:29.423Z</time>
      </trkpt>
      <trkpt lat="44.14814" lon="7.55868">
        <ele>1897.7047119141</ele>
        <time>2018-11-07T18:40:35.854Z</time>
      </trkpt>
      <trkpt lat="44.14843" lon="7.55867">
        <ele>1898.3166503906</ele>
        <time>2018-11-07T18:40:42.289Z</time>
      </trkpt>
      <trkpt lat="44.14857" lon="7.55871">
        <ele>1898.9885253906</ele>
        <time>2018-11-07T18:40:48.727Z</time>
      </trkpt>
      <trkpt lat="44.14915" lon="7.55905">
        <ele>1897.3863525391</ele>
        <time>2018-11-07T18:40:55.175Z</time>
      </trkpt>
      <trkpt lat="44.14929" lon="7.55917">
        <ele>1897.2183837891</ele>
        <time>2018-11-07T18:41:01.625Z</time>
      </trkpt>
      <trkpt lat="44.14937" lon="7.55931">
        <ele>1896.2828369141</ele>
        <time>2018-11-07T18:41:08.077Z</time>
      </trkpt>
      <trkpt lat="44.14942" lon="7.55949">
        <ele>1895.4310302734</ele>
        <time>2018-11-07T18:41:14.532Z</time>
      </trkpt>
      <trkpt lat="44.14942" lon="7.55969">
        <ele>1894.951171875</ele>
        <time>2018-11-07T18:41:20.989Z</time>
      </trkpt>
      <trkpt lat="44.14931" lon="7.56056">
        <ele>1885.6094970703</ele>
        <time>2018-11-07T18:41:27.456Z</time>
      </trkpt>
      <trkpt lat="44.14922" lon="7.56079">
        <ele>1879.1500244141</ele>
        <time>2018-11-07T18:41:33.926Z</time>
      </trkpt>
      <trkpt lat="44.14905" lon="7.56097">
        <ele>1872.0383300781</ele>
        <time>2018-11-07T18:41:40.399Z</time>
      </trkpt>
      <trkpt lat="44.14885" lon="7.56111">
        <ele>1865.5091552734</ele>
        <time>2018-11-07T18:41:46.876Z</time>
      </trkpt>
      <trkpt lat="44.14883" lon="7.56118">
        <ele>1863.0375976562</ele>
        <time>2018-11-07T18:41:53.354Z</time>
      </trkpt>
      <trkpt lat="44.14885" lon="7.56123">
        <ele>1862.3416748047</ele>
        <time>2018-11-07T18:41:59.833Z</time>
      </trkpt>
      <trkpt lat="44.149" lon="7.56133">
        <ele>1864.5583496094</ele>
        <time>2018-11-07T18:42:06.314Z</time>
      </trkpt>
      <trkpt lat="44.149" lon="7.56133">
        <ele>1864.5592041016</ele>
        <time>2018-11-07T18:42:12.795Z</time>
      </trkpt>
      <trkpt lat="44.14907" lon="7.56137">
        <ele>1865.5091552734</ele>
        <time>2018-11-07T18:42:19.277Z</time>
      </trkpt>
      <trkpt lat="44.14935" lon="7.56152">
        <ele>1869.5787353516</ele>
        <time>2018-11-07T18:42:25.764Z</time>
      </trkpt>
      <trkpt lat="44.14948" lon="7.56164">
        <ele>1869.1202392578</ele>
        <time>2018-11-07T18:42:32.254Z</time>
      </trkpt>
      <trkpt lat="44.14961" lon="7.56182">
        <ele>1868.181640625</ele>
        <time>2018-11-07T18:42:38.747Z</time>
      </trkpt>
      <trkpt lat="44.14974" lon="7.56194">
        <ele>1867.6297607422</ele>
        <time>2018-11-07T18:42:45.242Z</time>
      </trkpt>
      <trkpt lat="44.14985" lon="7.56206">
        <ele>1867.3177490234</ele>
        <time>2018-11-07T18:42:51.739Z</time>
      </trkpt>
      <trkpt lat="44.15001" lon="7.56229">
        <ele>1866.3653564453</ele>
        <time>2018-11-07T18:42:58.240Z</time>
      </trkpt>
      <trkpt lat="44.15024" lon="7.56278">
        <ele>1866.6314697266</ele>
        <time>2018-11-07T18:43:04.748Z</time>
      </trkpt>
      <trkpt lat="44.1505" lon="7.56334">
        <ele>1862.7830810547</ele>
        <time>2018-11-07T18:43:11.264Z</time>
      </trkpt>
      <trkpt lat="44.15104" lon="7.56415">
        <ele>1866.3955078125</ele>
        <time>2018-11-07T18:43:17.792Z</time>
      </trkpt>
      <trkpt lat="44.15111" lon="7.56429">
        <ele>1867.8382568359</ele>
        <time>2018-11-07T18:43:24.322Z</time>
      </trkpt>
      <trkpt lat="44.15127" lon="7.56458">
        <ele>1866.3804931641</ele>
        <time>2018-11-07T18:43:30.856Z</time>
      </trkpt>
      <trkpt lat="44.1516" lon="7.56518">
        <ele>1863.3869628906</ele>
        <time>2018-11-07T18:43:37.399Z</time>
      </trkpt>
      <trkpt lat="44.15178" lon="7.56541">
        <ele>1860.1235351562</ele>
        <time>2018-11-07T18:43:43.946Z</time>
      </trkpt>
      <trkpt lat="44.1519" lon="7.56549">
        <ele>1856.7160644531</ele>
        <time>2018-11-07T18:43:50.495Z</time>
      </trkpt>
      <trkpt lat="44.15201" lon="7.56553">
        <ele>1855.7990722656</ele>
        <time>2018-11-07T18:43:57.046Z</time>
      </trkpt>
      <trkpt lat="44.15215" lon="7.56553">
        <ele>1855.9670410156</ele>
        <time>2018-11-07T18:44:03.599Z</time>
      </trkpt>
      <trkpt lat="44.15229" lon="7.56549">
        <ele>1855.4631347656</ele>
        <time>2018-11-07T18:44:10.155Z</time>
      </trkpt>
      <trkpt lat="44.15244" lon="7.5654">
        <ele>1852.0423583984</ele>
        <time>2018-11-07T18:44:16.713Z</time>
      </trkpt>
      <trkpt lat="44.1532" lon="7.56475">
        <ele>1828.7937011719</ele>
        <time>2018-11-07T18:44:23.285Z</time>
      </trkpt>
      <trkpt lat="44.1543" lon="7.56402">
        <ele>1815.0803222656</ele>
        <time>2018-11-07T18:44:29.877Z</time>
      </trkpt>
      <trkpt lat="44.15474" lon="7.5638">
        <ele>1808.1442871094</ele>
        <time>2018-11-07T18:44:36.476Z</time>
      </trkpt>
      <trkpt lat="44.15535" lon="7.56377">
        <ele>1807.158203125</ele>
        <time>2018-11-07T18:44:43.085Z</time>
      </trkpt>
      <trkpt lat="44.15565" lon="7.56385">
        <ele>1801.4230957031</ele>
        <time>2018-11-07T18:44:49.699Z</time>
      </trkpt>
      <trkpt lat="44.15591" lon="7.56388">
        <ele>1797.3621826172</ele>
        <time>2018-11-07T18:44:56.317Z</time>
      </trkpt>
      <trkpt lat="44.15591" lon="7.56388">
        <ele>1797.3615722656</ele>
        <time>2018-11-07T18:45:02.935Z</time>
      </trkpt>
      <trkpt lat="44.15596" lon="7.56388">
        <ele>1797.2545166016</ele>
        <time>2018-11-07T18:45:09.554Z</time>
      </trkpt>
      <trkpt lat="44.1559" lon="7.5641">
        <ele>1804.1226806641</ele>
        <time>2018-11-07T18:45:16.176Z</time>
      </trkpt>
      <trkpt lat="44.15584" lon="7.56423">
        <ele>1808.2667236328</ele>
        <time>2018-11-07T18:45:22.800Z</time>
      </trkpt>
      <trkpt lat="44.15572" lon="7.56435">
        <ele>1809.9943847656</ele>
        <time>2018-11-07T18:45:29.426Z</time>
      </trkpt>
      <trkpt lat="44.15549" lon="7.56479">
        <ele>1823.8974609375</ele>
        <time>2018-11-07T18:45:36.058Z</time>
      </trkpt>
      <trkpt lat="44.15511" lon="7.56598">
        <ele>1844.5397949219</ele>
        <time>2018-11-07T18:45:42.705Z</time>
      </trkpt>
      <trkpt lat="44.15499" lon="7.56652">
        <ele>1845.6062011719</ele>
        <time>2018-11-07T18:45:49.359Z</time>
      </trkpt>
      <trkpt lat="44.15468" lon="7.56744">
        <ele>1847.5518798828</ele>
        <time>2018-11-07T18:45:56.024Z</time>
      </trkpt>
      <trkpt lat="44.15462" lon="7.5676">
        <ele>1847.0411376953</ele>
        <time>2018-11-07T18:46:02.691Z</time>
      </trkpt>
      <trkpt lat="44.15454" lon="7.5677">
        <ele>1848.2535400391</ele>
        <time>2018-11-07T18:46:09.360Z</time>
      </trkpt>
      <trkpt lat="44.15417" lon="7.56798">
        <ele>1852.7757568359</ele>
        <time>2018-11-07T18:46:16.036Z</time>
      </trkpt>
      <trkpt lat="44.15383" lon="7.56816">
        <ele>1862.4962158203</ele>
        <time>2018-11-07T18:46:22.718Z</time>
      </trkpt>
      <trkpt lat="44.15377" lon="7.56821">
        <ele>1863.9959716797</ele>
        <time>2018-11-07T18:46:29.401Z</time>
      </trkpt>
      <trkpt lat="44.15368" lon="7.56836">
        <ele>1864.6433105469</ele>
        <time>2018-11-07T18:46:36.086Z</time>
      </trkpt>
      <trkpt lat="44.15335" lon="7.56914">
        <ele>1865.6068115234</ele>
        <time>2018-11-07T18:46:42.782Z</time>
      </trkpt>
      <trkpt lat="44.15313" lon="7.56958">
        <ele>1869.6491699219</ele>
        <time>2018-11-07T18:46:49.484Z</time>
      </trkpt>
      <trkpt lat="44.15306" lon="7.5697">
        <ele>1870.3210449219</ele>
        <time>2018-11-07T18:46:56.187Z</time>
      </trkpt>
      <trkpt lat="44.1529" lon="7.56999">
        <ele>1871.8297119141</ele>
        <time>2018-11-07T18:47:02.895Z</time>
      </trkpt>
      <trkpt lat="44.15233" lon="7.57097">
        <ele>1878.2457275391</ele>
        <time>2018-11-07T18:47:09.617Z</time>
      </trkpt>
      <trkpt lat="44.15188" lon="7.5719">
        <ele>1880.7646484375</ele>
        <time>2018-11-07T18:47:16.352Z</time>
      </trkpt>
      <trkpt lat="44.15182" lon="7.57207">
        <ele>1879.6248779297</ele>
        <time>2018-11-07T18:47:23.089Z</time>
      </trkpt>
      <trkpt lat="44.1518" lon="7.57247">
        <ele>1876.9145507812</ele>
        <time>2018-11-07T18:47:29.831Z</time>
      </trkpt>
      <trkpt lat="44.15183" lon="7.5726">
        <ele>1878.3598632812</ele>
        <time>2018-11-07T18:47:36.574Z</time>
      </trkpt>
      <trkpt lat="44.15192" lon="7.57278">
        <ele>1884.0830078125</ele>
        <time>2018-11-07T18:47:43.320Z</time>
      </trkpt>
      <trkpt lat="44.15216" lon="7.57316">
        <ele>1885.3607177734</ele>
        <time>2018-11-07T18:47:50.072Z</time>
      </trkpt>
      <trkpt lat="44.1523" lon="7.57336">
        <ele>1885.3570556641</ele>
        <time>2018-11-07T18:47:56.827Z</time>
      </trkpt>
      <trkpt lat="44.15252" lon="7.57363">
        <ele>1890.0603027344</ele>
        <time>2018-11-07T18:48:03.587Z</time>
      </trkpt>
      <trkpt lat="44.15277" lon="7.57386">
        <ele>1892.6397705078</ele>
        <time>2018-11-07T18:48:10.352Z</time>
      </trkpt>
      <trkpt lat="44.15326" lon="7.57446">
        <ele>1892.2940673828</ele>
        <time>2018-11-07T18:48:17.127Z</time>
      </trkpt>
      <trkpt lat="44.15339" lon="7.57468">
        <ele>1892.1020507812</ele>
        <time>2018-11-07T18:48:23.905Z</time>
      </trkpt>
      <trkpt lat="44.15363" lon="7.57535">
        <ele>1895.9942626953</ele>
        <time>2018-11-07T18:48:30.692Z</time>
      </trkpt>
      <trkpt lat="44.15382" lon="7.5759">
        <ele>1893.634765625</ele>
        <time>2018-11-07T18:48:37.486Z</time>
      </trkpt>
      <trkpt lat="44.15378" lon="7.57614">
        <ele>1890.6987304688</ele>
        <time>2018-11-07T18:48:44.283Z</time>
      </trkpt>
      <trkpt lat="44.15372" lon="7.57641">
        <ele>1890.6987304688</ele>
        <time>2018-11-07T18:48:51.083Z</time>
      </trkpt>
      <trkpt lat="44.15352" lon="7.57658">
        <ele>1897.6799316406</ele>
        <time>2018-11-07T18:48:57.887Z</time>
      </trkpt>
      <trkpt lat="44.15341" lon="7.57681">
        <ele>1893.4509277344</ele>
        <time>2018-11-07T18:49:04.694Z</time>
      </trkpt>
      <trkpt lat="44.15323" lon="7.57704">
        <ele>1888.7836914062</ele>
        <time>2018-11-07T18:49:11.505Z</time>
      </trkpt>
      <trkpt lat="44.1529" lon="7.57739">
        <ele>1892.0334472656</ele>
        <time>2018-11-07T18:49:18.322Z</time>
      </trkpt>
      <trkpt lat="44.15275" lon="7.57764">
        <ele>1890.6059570312</ele>
        <time>2018-11-07T18:49:25.143Z</time>
      </trkpt>
      <trkpt lat="44.15261" lon="7.57793">
        <ele>1878.6081542969</ele>
        <time>2018-11-07T18:49:31.968Z</time>
      </trkpt>
      <trkpt lat="44.15258" lon="7.57799">
        <ele>1876.3643798828</ele>
        <time>2018-11-07T18:49:38.794Z</time>
      </trkpt>
      <trkpt lat="44.15245" lon="7.57838">
        <ele>1871.7546386719</ele>
        <time>2018-11-07T18:49:45.625Z</time>
      </trkpt>
      <trkpt lat="44.15236" lon="7.5789">
        <ele>1871.9549560547</ele>
        <time>2018-11-07T18:49:52.462Z</time>
      </trkpt>
      <trkpt lat="44.15236" lon="7.5792">
        <ele>1878.1463623047</ele>
        <time>2018-11-07T18:49:59.303Z</time>
      </trkpt>
      <trkpt lat="44.1524" lon="7.57962">
        <ele>1881.2658691406</ele>
        <time>2018-11-07T18:50:06.149Z</time>
      </trkpt>
      <trkpt lat="44.15245" lon="7.58014">
        <ele>1889.1656494141</ele>
        <time>2018-11-07T18:50:13.001Z</time>
      </trkpt>
      <trkpt lat="44.15254" lon="7.58051">
        <ele>1893.8448486328</ele>
        <time>2018-11-07T18:50:19.857Z</time>
      </trkpt>
      <trkpt lat="44.15285" lon="7.58118">
        <ele>1903.8209228516</ele>
        <time>2018-11-07T18:50:26.722Z</time>
      </trkpt>
      <trkpt lat="44.15299" lon="7.58139">
        <ele>1903.6528320312</ele>
        <time>2018-11-07T18:50:33.591Z</time>
      </trkpt>
      <trkpt lat="44.15304" lon="7.58153">
        <ele>1905.6206054688</ele>
        <time>2018-11-07T18:50:40.461Z</time>
      </trkpt>
      <trkpt lat="44.15312" lon="7.58186">
        <ele>1909.2749023438</ele>
        <time>2018-11-07T18:50:47.335Z</time>
      </trkpt>
      <trkpt lat="44.15326" lon="7.58222">
        <ele>1908.5023193359</ele>
        <time>2018-11-07T18:50:54.214Z</time>
      </trkpt>
      <trkpt lat="44.15339" lon="7.58264">
        <ele>1907.8310546875</ele>
        <time>2018-11-07T18:51:01.098Z</time>
      </trkpt>
      <trkpt lat="44.15337" lon="7.5827">
        <ele>1908.9108886719</ele>
        <time>2018-11-07T18:51:07.983Z</time>
      </trkpt>
      <trkpt lat="44.1533" lon="7.58277">
        <ele>1912.6903076172</ele>
        <time>2018-11-07T18:51:14.869Z</time>
      </trkpt>
      <trkpt lat="44.15317" lon="7.58306">
        <ele>1921.5296630859</ele>
        <time>2018-11-07T18:51:21.759Z</time>
      </trkpt>
      <trkpt lat="44.15306" lon="7.58358">
        <ele>1930.5621337891</ele>
        <time>2018-11-07T18:51:28.656Z</time>
      </trkpt>
      <trkpt lat="44.15303" lon="7.58392">
        <ele>1933.5308837891</ele>
        <time>2018-11-07T18:51:35.557Z</time>
      </trkpt>
      <trkpt lat="44.15296" lon="7.58466">
        <ele>1941.658203125</ele>
        <time>2018-11-07T18:51:42.466Z</time>
      </trkpt>
      <trkpt lat="44.153" lon="7.58489">
        <ele>1939.2825927734</ele>
        <time>2018-11-07T18:51:49.378Z</time>
      </trkpt>
      <trkpt lat="44.15308" lon="7.5852">
        <ele>1937.5128173828</ele>
        <time>2018-11-07T18:51:56.294Z</time>
      </trkpt>
      <trkpt lat="44.15317" lon="7.58541">
        <ele>1935.1965332031</ele>
        <time>2018-11-07T18:52:03.213Z</time>
      </trkpt>
      <trkpt lat="44.15328" lon="7.58589">
        <ele>1934.1441650391</ele>
        <time>2018-11-07T18:52:10.137Z</time>
      </trkpt>
      <trkpt lat="44.15342" lon="7.58639">
        <ele>1939.6392822266</ele>
        <time>2018-11-07T18:52:17.068Z</time>
      </trkpt>
      <trkpt lat="44.15351" lon="7.5866">
        <ele>1939.8347167969</ele>
        <time>2018-11-07T18:52:24.001Z</time>
      </trkpt>
      <trkpt lat="44.15356" lon="7.5868">
        <ele>1940.9071044922</ele>
        <time>2018-11-07T18:52:30.937Z</time>
      </trkpt>
      <trkpt lat="44.15363" lon="7.58731">
        <ele>1945.8127441406</ele>
        <time>2018-11-07T18:52:37.879Z</time>
      </trkpt>
      <trkpt lat="44.15374" lon="7.58753">
        <ele>1941.8900146484</ele>
        <time>2018-11-07T18:52:44.824Z</time>
      </trkpt>
      <trkpt lat="44.15379" lon="7.58788">
        <ele>1942.9959716797</ele>
        <time>2018-11-07T18:52:51.773Z</time>
      </trkpt>
      <trkpt lat="44.15384" lon="7.58823">
        <ele>1942.5760498047</ele>
        <time>2018-11-07T18:52:58.726Z</time>
      </trkpt>
      <trkpt lat="44.15394" lon="7.5884">
        <ele>1938.1693115234</ele>
        <time>2018-11-07T18:53:05.682Z</time>
      </trkpt>
      <trkpt lat="44.15401" lon="7.58861">
        <ele>1936.5736083984</ele>
        <time>2018-11-07T18:53:12.640Z</time>
      </trkpt>
      <trkpt lat="44.15404" lon="7.58881">
        <ele>1937.1353759766</ele>
        <time>2018-11-07T18:53:19.601Z</time>
      </trkpt>
      <trkpt lat="44.15402" lon="7.58901">
        <ele>1940.1828613281</ele>
        <time>2018-11-07T18:53:26.564Z</time>
      </trkpt>
      <trkpt lat="44.15406" lon="7.58931">
        <ele>1940.3449707031</ele>
        <time>2018-11-07T18:53:33.530Z</time>
      </trkpt>
      <trkpt lat="44.1542" lon="7.58988">
        <ele>1937.4165039062</ele>
        <time>2018-11-07T18:53:40.503Z</time>
      </trkpt>
      <trkpt lat="44.15415" lon="7.59008">
        <ele>1944.3350830078</ele>
        <time>2018-11-07T18:53:47.479Z</time>
      </trkpt>
      <trkpt lat="44.15419" lon="7.59023">
        <ele>1942.943359375</ele>
        <time>2018-11-07T18:53:54.457Z</time>
      </trkpt>
      <trkpt lat="44.15425" lon="7.59035">
        <ele>1939.8479003906</ele>
        <time>2018-11-07T18:54:01.436Z</time>
      </trkpt>
      <trkpt lat="44.15427" lon="7.59044">
        <ele>1939.2960205078</ele>
        <time>2018-11-07T18:54:08.416Z</time>
      </trkpt>
      <trkpt lat="44.15428" lon="7.59068">
        <ele>1940.8917236328</ele>
        <time>2018-11-07T18:54:15.399Z</time>
      </trkpt>
      <trkpt lat="44.15432" lon="7.59084">
        <ele>1942.7407226562</ele>
        <time>2018-11-07T18:54:22.384Z</time>
      </trkpt>
      <trkpt lat="44.15461" lon="7.59114">
        <ele>1930.1064453125</ele>
        <time>2018-11-07T18:54:29.375Z</time>
      </trkpt>
      <trkpt lat="44.15464" lon="7.59117">
        <ele>1929.3865966797</ele>
        <time>2018-11-07T18:54:36.367Z</time>
      </trkpt>
      <trkpt lat="44.15464" lon="7.59116">
        <ele>1929.1346435547</ele>
        <time>2018-11-07T18:54:43.359Z</time>
      </trkpt>
      <trkpt lat="44.15475" lon="7.59125">
        <ele>1925.9910888672</ele>
        <time>2018-11-07T18:54:50.353Z</time>
      </trkpt>
      <trkpt lat="44.15479" lon="7.59131">
        <ele>1925.5352783203</ele>
        <time>2018-11-07T18:54:57.348Z</time>
      </trkpt>
      <trkpt lat="44.15482" lon="7.59139">
        <ele>1926.1922607422</ele>
        <time>2018-11-07T18:55:04.344Z</time>
      </trkpt>
      <trkpt lat="44.15488" lon="7.59157">
        <ele>1927.6588134766</ele>
        <time>2018-11-07T18:55:11.342Z</time>
      </trkpt>
      <trkpt lat="44.15493" lon="7.59177">
        <ele>1930.2384033203</ele>
        <time>2018-11-07T18:55:18.342Z</time>
      </trkpt>
      <trkpt lat="44.15498" lon="7.59187">
        <ele>1930.2984619141</ele>
        <time>2018-11-07T18:55:25.344Z</time>
      </trkpt>
      <trkpt lat="44.15509" lon="7.59193">
        <ele>1926.3990478516</ele>
        <time>2018-11-07T18:55:32.348Z</time>
      </trkpt>
      <trkpt lat="44.15518" lon="7.59191">
        <ele>1921.4678955078</ele>
        <time>2018-11-07T18:55:39.353Z</time>
      </trkpt>
      <trkpt lat="44.15533" lon="7.59179">
        <ele>1914.6887207031</ele>
        <time>2018-11-07T18:55:46.361Z</time>
      </trkpt>
      <trkpt lat="44.15539" lon="7.59173">
        <ele>1913.3060302734</ele>
        <time>2018-11-07T18:55:53.370Z</time>
      </trkpt>
      <trkpt lat="44.15548" lon="7.59169">
        <ele>1912.0462646484</ele>
        <time>2018-11-07T18:56:00.381Z</time>
      </trkpt>
      <trkpt lat="44.15553" lon="7.5917">
        <ele>1912.6221923828</ele>
        <time>2018-11-07T18:56:07.392Z</time>
      </trkpt>
      <trkpt lat="44.15561" lon="7.59176">
        <ele>1915.2856445312</ele>
        <time>2018-11-07T18:56:14.405Z</time>
      </trkpt>
      <trkpt lat="44.15572" lon="7.59187">
        <ele>1920.0368652344</ele>
        <time>2018-11-07T18:56:21.420Z</time>
      </trkpt>
      <trkpt lat="44.15578" lon="7.59191">
        <ele>1921.8366699219</ele>
        <time>2018-11-07T18:56:28.436Z</time>
      </trkpt>
      <trkpt lat="44.1559" lon="7.5919">
        <ele>1921.8725585938</ele>
        <time>2018-11-07T18:56:35.454Z</time>
      </trkpt>
      <trkpt lat="44.15596" lon="7.5919">
        <ele>1922.0886230469</ele>
        <time>2018-11-07T18:56:42.473Z</time>
      </trkpt>
      <trkpt lat="44.15607" lon="7.59195">
        <ele>1924.4642333984</ele>
        <time>2018-11-07T18:56:49.494Z</time>
      </trkpt>
      <trkpt lat="44.15622" lon="7.59202">
        <ele>1929.630859375</ele>
        <time>2018-11-07T18:56:56.517Z</time>
      </trkpt>
      <trkpt lat="44.15631" lon="7.59202">
        <ele>1931.4665527344</ele>
        <time>2018-11-07T18:57:03.542Z</time>
      </trkpt>
      <trkpt lat="44.15638" lon="7.59197">
        <ele>1930.9146728516</ele>
        <time>2018-11-07T18:57:10.568Z</time>
      </trkpt>
      <trkpt lat="44.15652" lon="7.59182">
        <ele>1926.8500976562</ele>
        <time>2018-11-07T18:57:17.597Z</time>
      </trkpt>
      <trkpt lat="44.15663" lon="7.59176">
        <ele>1926.1062011719</ele>
        <time>2018-11-07T18:57:24.628Z</time>
      </trkpt>
      <trkpt lat="44.15671" lon="7.59167">
        <ele>1923.6063232422</ele>
        <time>2018-11-07T18:57:31.660Z</time>
      </trkpt>
      <trkpt lat="44.15691" lon="7.59156">
        <ele>1922.2897949219</ele>
        <time>2018-11-07T18:57:38.696Z</time>
      </trkpt>
      <trkpt lat="44.15713" lon="7.59152">
        <ele>1926.8306884766</ele>
        <time>2018-11-07T18:57:45.735Z</time>
      </trkpt>
      <trkpt lat="44.15722" lon="7.59153">
        <ele>1930.0700683594</ele>
        <time>2018-11-07T18:57:52.776Z</time>
      </trkpt>
      <trkpt lat="44.15734" lon="7.59149">
        <ele>1932.0858154297</ele>
        <time>2018-11-07T18:57:59.819Z</time>
      </trkpt>
      <trkpt lat="44.15761" lon="7.59138">
        <ele>1934.1300048828</ele>
        <time>2018-11-07T18:58:06.866Z</time>
      </trkpt>
      <trkpt lat="44.15773" lon="7.59129">
        <ele>1931.4664306641</ele>
        <time>2018-11-07T18:58:13.916Z</time>
      </trkpt>
      <trkpt lat="44.15781" lon="7.59125">
        <ele>1930.6336669922</ele>
        <time>2018-11-07T18:58:20.967Z</time>
      </trkpt>
      <trkpt lat="44.15787" lon="7.5912">
        <ele>1928.7380371094</ele>
        <time>2018-11-07T18:58:28.019Z</time>
      </trkpt>
      <trkpt lat="44.15803" lon="7.59106">
        <ele>1923.9217529297</ele>
        <time>2018-11-07T18:58:35.074Z</time>
      </trkpt>
      <trkpt lat="44.15824" lon="7.591">
        <ele>1927.5212402344</ele>
        <time>2018-11-07T18:58:42.132Z</time>
      </trkpt>
      <trkpt lat="44.15852" lon="7.59097">
        <ele>1934.3601074219</ele>
        <time>2018-11-07T18:58:49.195Z</time>
      </trkpt>
      <trkpt lat="44.15879" lon="7.5909">
        <ele>1937.3073730469</ele>
        <time>2018-11-07T18:58:56.262Z</time>
      </trkpt>
      <trkpt lat="44.15903" lon="7.59072">
        <ele>1938.5385742188</ele>
        <time>2018-11-07T18:59:03.334Z</time>
      </trkpt>
      <trkpt lat="44.15923" lon="7.59051">
        <ele>1935.8280029297</ele>
        <time>2018-11-07T18:59:10.410Z</time>
      </trkpt>
      <trkpt lat="44.15937" lon="7.59033">
        <ele>1933.6203613281</ele>
        <time>2018-11-07T18:59:17.489Z</time>
      </trkpt>
      <trkpt lat="44.15942" lon="7.59029">
        <ele>1933.7644042969</ele>
        <time>2018-11-07T18:59:24.569Z</time>
      </trkpt>
      <trkpt lat="44.15949" lon="7.5903">
        <ele>1934.376953125</ele>
        <time>2018-11-07T18:59:31.650Z</time>
      </trkpt>
      <trkpt lat="44.15971" lon="7.59044">
        <ele>1937.1125488281</ele>
        <time>2018-11-07T18:59:38.735Z</time>
      </trkpt>
      <trkpt lat="44.15983" lon="7.59057">
        <ele>1940.6639404297</ele>
        <time>2018-11-07T18:59:45.822Z</time>
      </trkpt>
      <trkpt lat="44.15988" lon="7.5907">
        <ele>1945.0551757812</ele>
        <time>2018-11-07T18:59:52.911Z</time>
      </trkpt>
      <trkpt lat="44.15982" lon="7.59088">
        <ele>1951.0305175781</ele>
        <time>2018-11-07T19:00:00.002Z</time>
      </trkpt>
      <trkpt lat="44.15981" lon="7.59089">
        <ele>1951.0305175781</ele>
        <time>2018-11-07T19:00:07.093Z</time>
      </trkpt>
      <trkpt lat="44.15976" lon="7.59093">
        <ele>1951.0305175781</ele>
        <time>2018-11-07T19:00:14.185Z</time>
      </trkpt>
      <trkpt lat="44.15959" lon="7.591">
        <ele>1952.1428222656</ele>
        <time>2018-11-07T19:00:21.280Z</time>
      </trkpt>
      <trkpt lat="44.15932" lon="7.59114">
        <ele>1953.1447753906</ele>
        <time>2018-11-07T19:00:28.380Z</time>
      </trkpt>
      <trkpt lat="44.15928" lon="7.5911">
        <ele>1951.8969726562</ele>
        <time>2018-11-07T19:00:35.480Z</time>
      </trkpt>
      <trkpt lat="44.15918" lon="7.59119">
        <ele>1949.2333984375</ele>
        <time>2018-11-07T19:00:42.582Z</time>
      </trkpt>
      <trkpt lat="44.15898" lon="7.59134">
        <ele>1948.4923095703</ele>
        <time>2018-11-07T19:00:49.688Z</time>
      </trkpt>
      <trkpt lat="44.15882" lon="7.59151">
        <ele>1956.962890625</ele>
        <time>2018-11-07T19:00:56.797Z</time>
      </trkpt>
      <trkpt lat="44.15871" lon="7.59165">
        <ele>1963.7297363281</ele>
        <time>2018-11-07T19:01:03.909Z</time>
      </trkpt>
      <trkpt lat="44.15864" lon="7.59178">
        <ele>1966.0119628906</ele>
        <time>2018-11-07T19:01:11.023Z</time>
      </trkpt>
      <trkpt lat="44.15847" lon="7.59204">
        <ele>1967.8493652344</ele>
        <time>2018-11-07T19:01:18.141Z</time>
      </trkpt>
      <trkpt lat="44.15827" lon="7.59231">
        <ele>1973.2058105469</ele>
        <time>2018-11-07T19:01:25.263Z</time>
      </trkpt>
      <trkpt lat="44.15804" lon="7.59264">
        <ele>1989.3607177734</ele>
        <time>2018-11-07T19:01:32.390Z</time>
      </trkpt>
      <trkpt lat="44.15783" lon="7.5929">
        <ele>1999.8131103516</ele>
        <time>2018-11-07T19:01:39.522Z</time>
      </trkpt>
      <trkpt lat="44.15777" lon="7.59301">
        <ele>2003.4622802734</ele>
        <time>2018-11-07T19:01:46.655Z</time>
      </trkpt>
      <trkpt lat="44.15775" lon="7.59312">
        <ele>2004.41015625</ele>
        <time>2018-11-07T19:01:53.790Z</time>
      </trkpt>
      <trkpt lat="44.15775" lon="7.59355">
        <ele>2009.5139160156</ele>
        <time>2018-11-07T19:02:00.930Z</time>
      </trkpt>
      <trkpt lat="44.15773" lon="7.59426">
        <ele>2012.2829589844</ele>
        <time>2018-11-07T19:02:08.078Z</time>
      </trkpt>
      <trkpt lat="44.1577" lon="7.59464">
        <ele>2014.2985839844</ele>
        <time>2018-11-07T19:02:15.230Z</time>
      </trkpt>
      <trkpt lat="44.15764" lon="7.59486">
        <ele>2016.3862304688</ele>
        <time>2018-11-07T19:02:22.385Z</time>
      </trkpt>
      <trkpt lat="44.1576" lon="7.59494">
        <ele>2017.4174804688</ele>
        <time>2018-11-07T19:02:29.541Z</time>
      </trkpt>
      <trkpt lat="44.15745" lon="7.59522">
        <ele>2020.8421630859</ele>
        <time>2018-11-07T19:02:36.701Z</time>
      </trkpt>
      <trkpt lat="44.15743" lon="7.59527">
        <ele>2021.3719482422</ele>
        <time>2018-11-07T19:02:43.862Z</time>
      </trkpt>
      <trkpt lat="44.15725" lon="7.5955">
        <ele>2024.6822509766</ele>
        <time>2018-11-07T19:02:51.027Z</time>
      </trkpt>
      <trkpt lat="44.1572" lon="7.59552">
        <ele>2025.4741210938</ele>
        <time>2018-11-07T19:02:58.193Z</time>
      </trkpt>
      <trkpt lat="44.15717" lon="7.5955">
        <ele>2026.0260009766</ele>
        <time>2018-11-07T19:03:05.359Z</time>
      </trkpt>
      <trkpt lat="44.15722" lon="7.59534">
        <ele>2025.5700683594</ele>
        <time>2018-11-07T19:03:12.527Z</time>
      </trkpt>
      <trkpt lat="44.15724" lon="7.59518">
        <ele>2025.1394042969</ele>
        <time>2018-11-07T19:03:19.697Z</time>
      </trkpt>
      <trkpt lat="44.15717" lon="7.59506">
        <ele>2026.4232177734</ele>
        <time>2018-11-07T19:03:26.869Z</time>
      </trkpt>
      <trkpt lat="44.15711" lon="7.59502">
        <ele>2027.5989990234</ele>
        <time>2018-11-07T19:03:34.042Z</time>
      </trkpt>
      <trkpt lat="44.15704" lon="7.59502">
        <ele>2029.0267333984</ele>
        <time>2018-11-07T19:03:41.216Z</time>
      </trkpt>
      <trkpt lat="44.15694" lon="7.59504">
        <ele>2030.9423828125</ele>
        <time>2018-11-07T19:03:48.392Z</time>
      </trkpt>
      <trkpt lat="44.15662" lon="7.59521">
        <ele>2030.5344238281</ele>
        <time>2018-11-07T19:03:55.573Z</time>
      </trkpt>
      <trkpt lat="44.15638" lon="7.59532">
        <ele>2030.7937011719</ele>
        <time>2018-11-07T19:04:02.758Z</time>
      </trkpt>
      <trkpt lat="44.15619" lon="7.59528">
        <ele>2033.2293701172</ele>
        <time>2018-11-07T19:04:09.946Z</time>
      </trkpt>
      <trkpt lat="44.15605" lon="7.59517">
        <ele>2031.6749267578</ele>
        <time>2018-11-07T19:04:17.137Z</time>
      </trkpt>
      <trkpt lat="44.15597" lon="7.59498">
        <ele>2026.609375</ele>
        <time>2018-11-07T19:04:24.330Z</time>
      </trkpt>
      <trkpt lat="44.15594" lon="7.59495">
        <ele>2024.9176025391</ele>
        <time>2018-11-07T19:04:31.524Z</time>
      </trkpt>
      <trkpt lat="44.15591" lon="7.59495">
        <ele>2024.2337646484</ele>
        <time>2018-11-07T19:04:38.718Z</time>
      </trkpt>
      <trkpt lat="44.15588" lon="7.59503">
        <ele>2025.9519042969</ele>
        <time>2018-11-07T19:04:45.913Z</time>
      </trkpt>
      <trkpt lat="44.15588" lon="7.59534">
        <ele>2030.0432128906</ele>
        <time>2018-11-07T19:04:53.112Z</time>
      </trkpt>
      <trkpt lat="44.15584" lon="7.59554">
        <ele>2031.7709960938</ele>
        <time>2018-11-07T19:05:00.313Z</time>
      </trkpt>
      <trkpt lat="44.15577" lon="7.59572">
        <ele>2036.3315429688</ele>
        <time>2018-11-07T19:05:07.517Z</time>
      </trkpt>
      <trkpt lat="44.15567" lon="7.59598">
        <ele>2042.7093505859</ele>
        <time>2018-11-07T19:05:14.724Z</time>
      </trkpt>
      <trkpt lat="44.15564" lon="7.59606">
        <ele>2044.2930908203</ele>
        <time>2018-11-07T19:05:21.932Z</time>
      </trkpt>
      <trkpt lat="44.15565" lon="7.59615">
        <ele>2046.2847900391</ele>
        <time>2018-11-07T19:05:29.141Z</time>
      </trkpt>
      <trkpt lat="44.15574" lon="7.59635">
        <ele>2051.8703613281</ele>
        <time>2018-11-07T19:05:36.353Z</time>
      </trkpt>
      <trkpt lat="44.15587" lon="7.59651">
        <ele>2056.6335449219</ele>
        <time>2018-11-07T19:05:43.568Z</time>
      </trkpt>
      <trkpt lat="44.15591" lon="7.59672">
        <ele>2064.7915039062</ele>
        <time>2018-11-07T19:05:50.785Z</time>
      </trkpt>
      <trkpt lat="44.15587" lon="7.59698">
        <ele>2073.9340820312</ele>
        <time>2018-11-07T19:05:58.005Z</time>
      </trkpt>
      <trkpt lat="44.15586" lon="7.59708">
        <ele>2077.353515625</ele>
        <time>2018-11-07T19:06:05.226Z</time>
      </trkpt>
      <trkpt lat="44.15588" lon="7.59721">
        <ele>2081.2048339844</ele>
        <time>2018-11-07T19:06:12.449Z</time>
      </trkpt>
      <trkpt lat="44.15593" lon="7.59727">
        <ele>2082.2487792969</ele>
        <time>2018-11-07T19:06:19.673Z</time>
      </trkpt>
      <trkpt lat="44.15596" lon="7.59727">
        <ele>2081.7087402344</ele>
        <time>2018-11-07T19:06:26.897Z</time>
      </trkpt>
      <trkpt lat="44.15606" lon="7.59721">
        <ele>2077.9653320312</ele>
        <time>2018-11-07T19:06:34.123Z</time>
      </trkpt>
      <trkpt lat="44.15613" lon="7.59725">
        <ele>2077.755859375</ele>
        <time>2018-11-07T19:06:41.350Z</time>
      </trkpt>
      <trkpt lat="44.15629" lon="7.59745">
        <ele>2079.4357910156</ele>
        <time>2018-11-07T19:06:48.581Z</time>
      </trkpt>
      <trkpt lat="44.15646" lon="7.59762">
        <ele>2082.7019042969</ele>
        <time>2018-11-07T19:06:55.815Z</time>
      </trkpt>
      <trkpt lat="44.15672" lon="7.59799">
        <ele>2097.099609375</ele>
        <time>2018-11-07T19:07:03.055Z</time>
      </trkpt>
      <trkpt lat="44.15697" lon="7.59823">
        <ele>2104.2573242188</ele>
        <time>2018-11-07T19:07:10.300Z</time>
      </trkpt>
      <trkpt lat="44.15717" lon="7.59837">
        <ele>2108.5043945312</ele>
        <time>2018-11-07T19:07:17.549Z</time>
      </trkpt>
      <trkpt lat="44.15727" lon="7.5984">
        <ele>2108.15625</ele>
        <time>2018-11-07T19:07:24.799Z</time>
      </trkpt>
      <trkpt lat="44.15737" lon="7.5984">
        <ele>2106.1166992188</ele>
        <time>2018-11-07T19:07:32.051Z</time>
      </trkpt>
      <trkpt lat="44.15753" lon="7.59831">
        <ele>2097.6345214844</ele>
        <time>2018-11-07T19:07:39.306Z</time>
      </trkpt>
      <trkpt lat="44.15758" lon="7.59831">
        <ele>2096.6147460938</ele>
        <time>2018-11-07T19:07:46.561Z</time>
      </trkpt>
      <trkpt lat="44.15761" lon="7.59834">
        <ele>2097.8024902344</ele>
        <time>2018-11-07T19:07:53.817Z</time>
      </trkpt>
      <trkpt lat="44.15761" lon="7.5984">
        <ele>2101.2214355469</ele>
        <time>2018-11-07T19:08:01.074Z</time>
      </trkpt>
      <trkpt lat="44.15759" lon="7.59844">
        <ele>2103.8850097656</ele>
        <time>2018-11-07T19:08:08.331Z</time>
      </trkpt>
      <trkpt lat="44.15754" lon="7.59845">
        <ele>2105.46875</ele>
        <time>2018-11-07T19:08:15.589Z</time>
      </trkpt>
      <trkpt lat="44.1574" lon="7.59848">
        <ele>2110.0161132812</ele>
        <time>2018-11-07T19:08:22.849Z</time>
      </trkpt>
      <trkpt lat="44.15724" lon="7.59852">
        <ele>2115.53515625</ele>
        <time>2018-11-07T19:08:30.112Z</time>
      </trkpt>
      <trkpt lat="44.15711" lon="7.59852">
        <ele>2118.1640625</ele>
        <time>2018-11-07T19:08:37.377Z</time>
      </trkpt>
      <trkpt lat="44.1569" lon="7.59846">
        <ele>2117.9326171875</ele>
        <time>2018-11-07T19:08:44.645Z</time>
      </trkpt>
      <trkpt lat="44.15664" lon="7.59834">
        <ele>2115.2202148438</ele>
        <time>2018-11-07T19:08:51.918Z</time>
      </trkpt>
      <trkpt lat="44.15642" lon="7.59821">
        <ele>2112.4006347656</ele>
        <time>2018-11-07T19:08:59.195Z</time>
      </trkpt>
      <trkpt lat="44.15627" lon="7.59815">
        <ele>2111.6809082031</ele>
        <time>2018-11-07T19:09:06.474Z</time>
      </trkpt>
      <trkpt lat="44.15613" lon="7.59815">
        <ele>2113.3605957031</ele>
        <time>2018-11-07T19:09:13.755Z</time>
      </trkpt>
      <trkpt lat="44.15602" lon="7.59819">
        <ele>2117.5419921875</ele>
        <time>2018-11-07T19:09:21.038Z</time>
      </trkpt>
      <trkpt lat="44.15592" lon="7.5983">
        <ele>2124.1779785156</ele>
        <time>2018-11-07T19:09:28.323Z</time>
      </trkpt>
      <trkpt lat="44.15582" lon="7.59835">
        <ele>2128.2556152344</ele>
        <time>2018-11-07T19:09:35.610Z</time>
      </trkpt>
      <trkpt lat="44.15566" lon="7.59822">
        <ele>2126.7216796875</ele>
        <time>2018-11-07T19:09:42.900Z</time>
      </trkpt>
      <trkpt lat="44.15542" lon="7.59797">
        <ele>2122.3063964844</ele>
        <time>2018-11-07T19:09:50.195Z</time>
      </trkpt>
      <trkpt lat="44.1553" lon="7.59795">
        <ele>2124.1301269531</ele>
        <time>2018-11-07T19:09:57.492Z</time>
      </trkpt>
      <trkpt lat="44.15522" lon="7.59788">
        <ele>2123.9775390625</ele>
        <time>2018-11-07T19:10:04.790Z</time>
      </trkpt>
      <trkpt lat="44.15512" lon="7.59761">
        <ele>2117.2106933594</ele>
        <time>2018-11-07T19:10:12.092Z</time>
      </trkpt>
      <trkpt lat="44.15506" lon="7.59753">
        <ele>2116.298828125</ele>
        <time>2018-11-07T19:10:19.395Z</time>
      </trkpt>
      <trkpt lat="44.15504" lon="7.59753">
        <ele>2117.0187988281</ele>
        <time>2018-11-07T19:10:26.698Z</time>
      </trkpt>
      <trkpt lat="44.15501" lon="7.59756">
        <ele>2119.2502441406</ele>
        <time>2018-11-07T19:10:34.002Z</time>
      </trkpt>
      <trkpt lat="44.155" lon="7.59761">
        <ele>2121.5300292969</ele>
        <time>2018-11-07T19:10:41.306Z</time>
      </trkpt>
      <trkpt lat="44.15504" lon="7.59767">
        <ele>2122.3937988281</ele>
        <time>2018-11-07T19:10:48.611Z</time>
      </trkpt>
      <trkpt lat="44.15511" lon="7.59787">
        <ele>2127.5529785156</ele>
        <time>2018-11-07T19:10:55.919Z</time>
      </trkpt>
      <trkpt lat="44.1552" lon="7.59806">
        <ele>2131.6081542969</ele>
        <time>2018-11-07T19:11:03.230Z</time>
      </trkpt>
      <trkpt lat="44.15535" lon="7.5982">
        <ele>2132.6486816406</ele>
        <time>2018-11-07T19:11:10.543Z</time>
      </trkpt>
      <trkpt lat="44.15549" lon="7.59848">
        <ele>2138.3459472656</ele>
        <time>2018-11-07T19:11:17.860Z</time>
      </trkpt>
      <trkpt lat="44.15559" lon="7.59877">
        <ele>2139.9943847656</ele>
        <time>2018-11-07T19:11:25.181Z</time>
      </trkpt>
      <trkpt lat="44.15557" lon="7.59885">
        <ele>2139.6105957031</ele>
        <time>2018-11-07T19:11:32.503Z</time>
      </trkpt>
      <trkpt lat="44.15547" lon="7.59887">
        <ele>2139.05859375</ele>
        <time>2018-11-07T19:11:39.827Z</time>
      </trkpt>
      <trkpt lat="44.15535" lon="7.59898">
        <ele>2138.0866699219</ele>
        <time>2018-11-07T19:11:47.153Z</time>
      </trkpt>
      <trkpt lat="44.15511" lon="7.59904">
        <ele>2139.2360839844</ele>
        <time>2018-11-07T19:11:54.483Z</time>
      </trkpt>
      <trkpt lat="44.15504" lon="7.59905">
        <ele>2139.080078125</ele>
        <time>2018-11-07T19:12:01.814Z</time>
      </trkpt>
      <trkpt lat="44.15483" lon="7.59907">
        <ele>2138.7680664062</ele>
        <time>2018-11-07T19:12:09.148Z</time>
      </trkpt>
      <trkpt lat="44.15477" lon="7.59909">
        <ele>2138.419921875</ele>
        <time>2018-11-07T19:12:16.483Z</time>
      </trkpt>
      <trkpt lat="44.15477" lon="7.59909">
        <ele>2138.4196777344</ele>
        <time>2018-11-07T19:12:23.818Z</time>
      </trkpt>
      <trkpt lat="44.15462" lon="7.59915">
        <ele>2137.5205078125</ele>
        <time>2018-11-07T19:12:31.156Z</time>
      </trkpt>
      <trkpt lat="44.1545" lon="7.59918">
        <ele>2137.0524902344</ele>
        <time>2018-11-07T19:12:38.496Z</time>
      </trkpt>
      <trkpt lat="44.15442" lon="7.59914">
        <ele>2138.4357910156</ele>
        <time>2018-11-07T19:12:45.837Z</time>
      </trkpt>
      <trkpt lat="44.15432" lon="7.59904">
        <ele>2143.3549804688</ele>
        <time>2018-11-07T19:12:53.180Z</time>
      </trkpt>
      <trkpt lat="44.1542" lon="7.59894">
        <ele>2148.9460449219</ele>
        <time>2018-11-07T19:13:00.525Z</time>
      </trkpt>
      <trkpt lat="44.15412" lon="7.59894">
        <ele>2150.5876464844</ele>
        <time>2018-11-07T19:13:07.872Z</time>
      </trkpt>
      <trkpt lat="44.15403" lon="7.59908">
        <ele>2148.3920898438</ele>
        <time>2018-11-07T19:13:15.221Z</time>
      </trkpt>
      <trkpt lat="44.15388" lon="7.59925">
        <ele>2146.8762207031</ele>
        <time>2018-11-07T19:13:22.573Z</time>
      </trkpt>
      <trkpt lat="44.15379" lon="7.59937">
        <ele>2145.7700195312</ele>
        <time>2018-11-07T19:13:29.927Z</time>
      </trkpt>
      <trkpt lat="44.15368" lon="7.59952">
        <ele>2141.6066894531</ele>
        <time>2018-11-07T19:13:37.283Z</time>
      </trkpt>
      <trkpt lat="44.15348" lon="7.5996">
        <ele>2144.6162109375</ele>
        <time>2018-11-07T19:13:44.643Z</time>
      </trkpt>
      <trkpt lat="44.15309" lon="7.59993">
        <ele>2147.5383300781</ele>
        <time>2018-11-07T19:13:52.010Z</time>
      </trkpt>
      <trkpt lat="44.15285" lon="7.60027">
        <ele>2147.1069335938</ele>
        <time>2018-11-07T19:13:59.383Z</time>
      </trkpt>
      <trkpt lat="44.15274" lon="7.60038">
        <ele>2149.6892089844</ele>
        <time>2018-11-07T19:14:06.758Z</time>
      </trkpt>
      <trkpt lat="44.15264" lon="7.60056">
        <ele>2151.1049804688</ele>
        <time>2018-11-07T19:14:14.135Z</time>
      </trkpt>
      <trkpt lat="44.15256" lon="7.60082">
        <ele>2151.3723144531</ele>
        <time>2018-11-07T19:14:21.516Z</time>
      </trkpt>
      <trkpt lat="44.15246" lon="7.601">
        <ele>2154.2185058594</ele>
        <time>2018-11-07T19:14:28.899Z</time>
      </trkpt>
      <trkpt lat="44.15239" lon="7.60113">
        <ele>2155.9462890625</ele>
        <time>2018-11-07T19:14:36.284Z</time>
      </trkpt>
      <trkpt lat="44.15236" lon="7.6014">
        <ele>2152.5334472656</ele>
        <time>2018-11-07T19:14:43.672Z</time>
      </trkpt>
      <trkpt lat="44.1523" lon="7.60167">
        <ele>2151.7775878906</ele>
        <time>2018-11-07T19:14:51.063Z</time>
      </trkpt>
      <trkpt lat="44.15224" lon="7.60217">
        <ele>2148.6325683594</ele>
        <time>2018-11-07T19:14:58.460Z</time>
      </trkpt>
      <trkpt lat="44.15226" lon="7.60246">
        <ele>2143.0895996094</ele>
        <time>2018-11-07T19:15:05.861Z</time>
      </trkpt>
      <trkpt lat="44.15224" lon="7.60268">
        <ele>2142.4614257812</ele>
        <time>2018-11-07T19:15:13.264Z</time>
      </trkpt>
      <trkpt lat="44.15203" lon="7.60368">
        <ele>2143.4118652344</ele>
        <time>2018-11-07T19:15:20.679Z</time>
      </trkpt>
      <trkpt lat="44.152" lon="7.60402">
        <ele>2139.4284667969</ele>
        <time>2018-11-07T19:15:28.098Z</time>
      </trkpt>
      <trkpt lat="44.15199" lon="7.60432">
        <ele>2135.3669433594</ele>
        <time>2018-11-07T19:15:35.521Z</time>
      </trkpt>
      <trkpt lat="44.15182" lon="7.60505">
        <ele>2131.06640625</ele>
        <time>2018-11-07T19:15:42.952Z</time>
      </trkpt>
      <trkpt lat="44.15174" lon="7.60522">
        <ele>2132.0622558594</ele>
        <time>2018-11-07T19:15:50.386Z</time>
      </trkpt>
      <trkpt lat="44.1516" lon="7.60542">
        <ele>2135.3256835938</ele>
        <time>2018-11-07T19:15:57.823Z</time>
      </trkpt>
      <trkpt lat="44.15156" lon="7.60552">
        <ele>2136.1342773438</ele>
        <time>2018-11-07T19:16:05.261Z</time>
      </trkpt>
      <trkpt lat="44.15153" lon="7.60559">
        <ele>2137.3154296875</ele>
        <time>2018-11-07T19:16:12.700Z</time>
      </trkpt>
      <trkpt lat="44.15146" lon="7.606">
        <ele>2138.8979492188</ele>
        <time>2018-11-07T19:16:20.144Z</time>
      </trkpt>
      <trkpt lat="44.15141" lon="7.60616">
        <ele>2140.8896484375</ele>
        <time>2018-11-07T19:16:27.590Z</time>
      </trkpt>
      <trkpt lat="44.15151" lon="7.6069">
        <ele>2131.560546875</ele>
        <time>2018-11-07T19:16:35.045Z</time>
      </trkpt>
      <trkpt lat="44.1515" lon="7.60706">
        <ele>2131.1525878906</ele>
        <time>2018-11-07T19:16:42.502Z</time>
      </trkpt>
      <trkpt lat="44.15144" lon="7.6072">
        <ele>2134.7287597656</ele>
        <time>2018-11-07T19:16:49.961Z</time>
      </trkpt>
      <trkpt lat="44.15144" lon="7.60772">
        <ele>2136.4245605469</ele>
        <time>2018-11-07T19:16:57.426Z</time>
      </trkpt>
      <trkpt lat="44.15144" lon="7.60787">
        <ele>2137.5109863281</ele>
        <time>2018-11-07T19:17:04.892Z</time>
      </trkpt>
      <trkpt lat="44.15151" lon="7.6083">
        <ele>2133.8156738281</ele>
        <time>2018-11-07T19:17:12.363Z</time>
      </trkpt>
      <trkpt lat="44.1516" lon="7.60905">
        <ele>2139.0280761719</ele>
        <time>2018-11-07T19:17:19.843Z</time>
      </trkpt>
      <trkpt lat="44.15166" lon="7.60926">
        <ele>2138.7221679688</ele>
        <time>2018-11-07T19:17:27.326Z</time>
      </trkpt>
      <trkpt lat="44.15183" lon="7.60955">
        <ele>2132.2673339844</ele>
        <time>2018-11-07T19:17:34.813Z</time>
      </trkpt>
      <trkpt lat="44.15199" lon="7.60976">
        <ele>2125.9140625</ele>
        <time>2018-11-07T19:17:42.304Z</time>
      </trkpt>
      <trkpt lat="44.15206" lon="7.60987">
        <ele>2123.7424316406</ele>
        <time>2018-11-07T19:17:49.796Z</time>
      </trkpt>
      <trkpt lat="44.15216" lon="7.61026">
        <ele>2128.1086425781</ele>
        <time>2018-11-07T19:17:57.293Z</time>
      </trkpt>
      <trkpt lat="44.15231" lon="7.61072">
        <ele>2135.6313476562</ele>
        <time>2018-11-07T19:18:04.796Z</time>
      </trkpt>
      <trkpt lat="44.15242" lon="7.61089">
        <ele>2135.8186035156</ele>
        <time>2018-11-07T19:18:12.301Z</time>
      </trkpt>
      <trkpt lat="44.15258" lon="7.61108">
        <ele>2134.5588378906</ele>
        <time>2018-11-07T19:18:19.810Z</time>
      </trkpt>
      <trkpt lat="44.15285" lon="7.61129">
        <ele>2128.5837402344</ele>
        <time>2018-11-07T19:18:27.324Z</time>
      </trkpt>
      <trkpt lat="44.15307" lon="7.61148">
        <ele>2124.3725585938</ele>
        <time>2018-11-07T19:18:34.842Z</time>
      </trkpt>
      <trkpt lat="44.15322" lon="7.61164">
        <ele>2122.5607910156</ele>
        <time>2018-11-07T19:18:42.363Z</time>
      </trkpt>
      <trkpt lat="44.15338" lon="7.61172">
        <ele>2117.4736328125</ele>
        <time>2018-11-07T19:18:49.887Z</time>
      </trkpt>
      <trkpt lat="44.15369" lon="7.61189">
        <ele>2109.7885742188</ele>
        <time>2018-11-07T19:18:57.416Z</time>
      </trkpt>
      <trkpt lat="44.15386" lon="7.61196">
        <ele>2107.3291015625</ele>
        <time>2018-11-07T19:19:04.948Z</time>
      </trkpt>
      <trkpt lat="44.15402" lon="7.61202">
        <ele>2105.2673339844</ele>
        <time>2018-11-07T19:19:12.482Z</time>
      </trkpt>
      <trkpt lat="44.15414" lon="7.61205">
        <ele>2103.3518066406</ele>
        <time>2018-11-07T19:19:20.018Z</time>
      </trkpt>
      <trkpt lat="44.15414" lon="7.61205">
        <ele>2103.3500976562</ele>
        <time>2018-11-07T19:19:27.554Z</time>
      </trkpt>
      <trkpt lat="44.15415" lon="7.61205">
        <ele>2103.1677246094</ele>
        <time>2018-11-07T19:19:35.091Z</time>
      </trkpt>
      <trkpt lat="44.15433" lon="7.61214">
        <ele>2101.6557617188</ele>
        <time>2018-11-07T19:19:42.631Z</time>
      </trkpt>
      <trkpt lat="44.1545" lon="7.61228">
        <ele>2101.4675292969</ele>
        <time>2018-11-07T19:19:50.174Z</time>
      </trkpt>
      <trkpt lat="44.15464" lon="7.61246">
        <ele>2102.6193847656</ele>
        <time>2018-11-07T19:19:57.720Z</time>
      </trkpt>
      <trkpt lat="44.15463" lon="7.61256">
        <ele>2103.9138183594</ele>
        <time>2018-11-07T19:20:05.267Z</time>
      </trkpt>
      <trkpt lat="44.15448" lon="7.61275">
        <ele>2106.9006347656</ele>
        <time>2018-11-07T19:20:12.817Z</time>
      </trkpt>
      <trkpt lat="44.15438" lon="7.61286">
        <ele>2109.3474121094</ele>
        <time>2018-11-07T19:20:20.369Z</time>
      </trkpt>
      <trkpt lat="44.15425" lon="7.61308">
        <ele>2111.5068359375</ele>
        <time>2018-11-07T19:20:27.925Z</time>
      </trkpt>
      <trkpt lat="44.15412" lon="7.61336">
        <ele>2114.5546875</ele>
        <time>2018-11-07T19:20:35.484Z</time>
      </trkpt>
      <trkpt lat="44.15409" lon="7.61351">
        <ele>2109.9833984375</ele>
        <time>2018-11-07T19:20:43.045Z</time>
      </trkpt>
      <trkpt lat="44.15402" lon="7.61365">
        <ele>2107.1279296875</ele>
        <time>2018-11-07T19:20:50.608Z</time>
      </trkpt>
      <trkpt lat="44.15381" lon="7.61395">
        <ele>2103.9765625</ele>
        <time>2018-11-07T19:20:58.176Z</time>
      </trkpt>
      <trkpt lat="44.15369" lon="7.61409">
        <ele>2103.4248046875</ele>
        <time>2018-11-07T19:21:05.747Z</time>
      </trkpt>
      <trkpt lat="44.15355" lon="7.61416">
        <ele>2104.3654785156</ele>
        <time>2018-11-07T19:21:13.320Z</time>
      </trkpt>
      <trkpt lat="44.15335" lon="7.6142">
        <ele>2104.7014160156</ele>
        <time>2018-11-07T19:21:20.896Z</time>
      </trkpt>
      <trkpt lat="44.15321" lon="7.61426">
        <ele>2103.8615722656</ele>
        <time>2018-11-07T19:21:28.474Z</time>
      </trkpt>
      <trkpt lat="44.15318" lon="7.6143">
        <ele>2102.7697753906</ele>
        <time>2018-11-07T19:21:36.053Z</time>
      </trkpt>
      <trkpt lat="44.15315" lon="7.61446">
        <ele>2097.6467285156</ele>
        <time>2018-11-07T19:21:43.634Z</time>
      </trkpt>
      <trkpt lat="44.15304" lon="7.61465">
        <ele>2093.6257324219</ele>
        <time>2018-11-07T19:21:51.218Z</time>
      </trkpt>
      <trkpt lat="44.15294" lon="7.61483">
        <ele>2090.4343261719</ele>
        <time>2018-11-07T19:21:58.804Z</time>
      </trkpt>
      <trkpt lat="44.15288" lon="7.61488">
        <ele>2090.0502929688</ele>
        <time>2018-11-07T19:22:06.392Z</time>
      </trkpt>
      <trkpt lat="44.15282" lon="7.61489">
        <ele>2090.7224121094</ele>
        <time>2018-11-07T19:22:13.981Z</time>
      </trkpt>
      <trkpt lat="44.15271" lon="7.61483">
        <ele>2093.5490722656</ele>
        <time>2018-11-07T19:22:21.571Z</time>
      </trkpt>
      <trkpt lat="44.15261" lon="7.61468">
        <ele>2098.3483886719</ele>
        <time>2018-11-07T19:22:29.164Z</time>
      </trkpt>
      <trkpt lat="44.15253" lon="7.61452">
        <ele>2103.2434082031</ele>
        <time>2018-11-07T19:22:36.759Z</time>
      </trkpt>
      <trkpt lat="44.15247" lon="7.61444">
        <ele>2105.8591308594</ele>
        <time>2018-11-07T19:22:44.355Z</time>
      </trkpt>
      <trkpt lat="44.15236" lon="7.61437">
        <ele>2108.6306152344</ele>
        <time>2018-11-07T19:22:51.953Z</time>
      </trkpt>
      <trkpt lat="44.15218" lon="7.61438">
        <ele>2109.8784179688</ele>
        <time>2018-11-07T19:22:59.554Z</time>
      </trkpt>
      <trkpt lat="44.15206" lon="7.61444">
        <ele>2110.2839355469</ele>
        <time>2018-11-07T19:23:07.157Z</time>
      </trkpt>
      <trkpt lat="44.15191" lon="7.61463">
        <ele>2110.2504882812</ele>
        <time>2018-11-07T19:23:14.763Z</time>
      </trkpt>
      <trkpt lat="44.15186" lon="7.61468">
        <ele>2112.0500488281</ele>
        <time>2018-11-07T19:23:22.370Z</time>
      </trkpt>
      <trkpt lat="44.15181" lon="7.61485">
        <ele>2111.5461425781</ele>
        <time>2018-11-07T19:23:29.980Z</time>
      </trkpt>
      <trkpt lat="44.1518" lon="7.61524">
        <ele>2103.9821777344</ele>
        <time>2018-11-07T19:23:37.594Z</time>
      </trkpt>
      <trkpt lat="44.15183" lon="7.61545">
        <ele>2100.2746582031</ele>
        <time>2018-11-07T19:23:45.211Z</time>
      </trkpt>
      <trkpt lat="44.15179" lon="7.6156">
        <ele>2100.0588378906</ele>
        <time>2018-11-07T19:23:52.829Z</time>
      </trkpt>
      <trkpt lat="44.15173" lon="7.61572">
        <ele>2100.4230957031</ele>
        <time>2018-11-07T19:24:00.449Z</time>
      </trkpt>
      <trkpt lat="44.1517" lon="7.61592">
        <ele>2098.2006835938</ele>
        <time>2018-11-07T19:24:08.071Z</time>
      </trkpt>
      <trkpt lat="44.15161" lon="7.61603">
        <ele>2100.0603027344</ele>
        <time>2018-11-07T19:24:15.695Z</time>
      </trkpt>
      <trkpt lat="44.15152" lon="7.61612">
        <ele>2102.1120605469</ele>
        <time>2018-11-07T19:24:23.321Z</time>
      </trkpt>
      <trkpt lat="44.15153" lon="7.61626">
        <ele>2100.4443359375</ele>
        <time>2018-11-07T19:24:30.949Z</time>
      </trkpt>
      <trkpt lat="44.15153" lon="7.61642">
        <ele>2099.43359375</ele>
        <time>2018-11-07T19:24:38.579Z</time>
      </trkpt>
      <trkpt lat="44.15149" lon="7.61668">
        <ele>2099.3137207031</ele>
        <time>2018-11-07T19:24:46.212Z</time>
      </trkpt>
      <trkpt lat="44.15153" lon="7.61719">
        <ele>2097.2099609375</ele>
        <time>2018-11-07T19:24:53.851Z</time>
      </trkpt>
      <trkpt lat="44.15165" lon="7.61758">
        <ele>2095.3742675781</ele>
        <time>2018-11-07T19:25:01.494Z</time>
      </trkpt>
      <trkpt lat="44.15182" lon="7.61792">
        <ele>2090.4790039062</ele>
        <time>2018-11-07T19:25:09.142Z</time>
      </trkpt>
      <trkpt lat="44.15183" lon="7.61795">
        <ele>2090.2990722656</ele>
        <time>2018-11-07T19:25:16.791Z</time>
      </trkpt>
      <trkpt lat="44.15201" lon="7.61829">
        <ele>2085.6616210938</ele>
        <time>2018-11-07T19:25:24.444Z</time>
      </trkpt>
      <trkpt lat="44.15203" lon="7.61832">
        <ele>2085.375</ele>
        <time>2018-11-07T19:25:32.098Z</time>
      </trkpt>
      <trkpt lat="44.1521" lon="7.61851">
        <ele>2086.5161132812</ele>
        <time>2018-11-07T19:25:39.754Z</time>
      </trkpt>
      <trkpt lat="44.15223" lon="7.61876">
        <ele>2088.3645019531</ele>
        <time>2018-11-07T19:25:47.414Z</time>
      </trkpt>
      <trkpt lat="44.15232" lon="7.61887">
        <ele>2087.6086425781</ele>
        <time>2018-11-07T19:25:55.076Z</time>
      </trkpt>
      <trkpt lat="44.15247" lon="7.619">
        <ele>2084.62109375</ele>
        <time>2018-11-07T19:26:02.741Z</time>
      </trkpt>
      <trkpt lat="44.15272" lon="7.61915">
        <ele>2077.482421875</ele>
        <time>2018-11-07T19:26:10.410Z</time>
      </trkpt>
      <trkpt lat="44.1531" lon="7.61933">
        <ele>2076.4338378906</ele>
        <time>2018-11-07T19:26:18.085Z</time>
      </trkpt>
      <trkpt lat="44.15349" lon="7.61942">
        <ele>2072.9064941406</ele>
        <time>2018-11-07T19:26:25.767Z</time>
      </trkpt>
      <trkpt lat="44.15375" lon="7.61943">
        <ele>2066.2360839844</ele>
        <time>2018-11-07T19:26:33.453Z</time>
      </trkpt>
      <trkpt lat="44.15386" lon="7.61945">
        <ele>2063.5246582031</ele>
        <time>2018-11-07T19:26:41.141Z</time>
      </trkpt>
      <trkpt lat="44.15412" lon="7.61942">
        <ele>2057.9765625</ele>
        <time>2018-11-07T19:26:48.833Z</time>
      </trkpt>
      <trkpt lat="44.1542" lon="7.61943">
        <ele>2056.9567871094</ele>
        <time>2018-11-07T19:26:56.526Z</time>
      </trkpt>
      <trkpt lat="44.15428" lon="7.61949">
        <ele>2057.556640625</ele>
        <time>2018-11-07T19:27:04.221Z</time>
      </trkpt>
      <trkpt lat="44.15443" lon="7.61971">
        <ele>2062.1638183594</ele>
        <time>2018-11-07T19:27:11.919Z</time>
      </trkpt>
      <trkpt lat="44.15467" lon="7.62015">
        <ele>2063.8510742188</ele>
        <time>2018-11-07T19:27:19.623Z</time>
      </trkpt>
      <trkpt lat="44.15491" lon="7.62061">
        <ele>2068.5698242188</ele>
        <time>2018-11-07T19:27:27.334Z</time>
      </trkpt>
      <trkpt lat="44.15503" lon="7.62098">
        <ele>2076.2814941406</ele>
        <time>2018-11-07T19:27:35.050Z</time>
      </trkpt>
      <trkpt lat="44.15513" lon="7.62122">
        <ele>2072.7060546875</ele>
        <time>2018-11-07T19:27:42.769Z</time>
      </trkpt>
      <trkpt lat="44.15521" lon="7.62145">
        <ele>2070.6665039062</ele>
        <time>2018-11-07T19:27:50.491Z</time>
      </trkpt>
      <trkpt lat="44.15525" lon="7.6217">
        <ele>2072.3913574219</ele>
        <time>2018-11-07T19:27:58.216Z</time>
      </trkpt>
      <trkpt lat="44.15532" lon="7.62189">
        <ele>2069.1994628906</ele>
        <time>2018-11-07T19:28:05.943Z</time>
      </trkpt>
      <trkpt lat="44.15547" lon="7.62209">
        <ele>2059.9609375</ele>
        <time>2018-11-07T19:28:13.674Z</time>
      </trkpt>
      <trkpt lat="44.1555" lon="7.62219">
        <ele>2058.9050292969</ele>
        <time>2018-11-07T19:28:21.406Z</time>
      </trkpt>
      <trkpt lat="44.15543" lon="7.62231">
        <ele>2066.0319824219</ele>
        <time>2018-11-07T19:28:29.140Z</time>
      </trkpt>
      <trkpt lat="44.15525" lon="7.62241">
        <ele>2081.76171875</ele>
        <time>2018-11-07T19:28:36.877Z</time>
      </trkpt>
      <trkpt lat="44.15518" lon="7.62249">
        <ele>2087.9948730469</ele>
        <time>2018-11-07T19:28:44.615Z</time>
      </trkpt>
      <trkpt lat="44.15507" lon="7.6228">
        <ele>2094.0708007812</ele>
        <time>2018-11-07T19:28:52.357Z</time>
      </trkpt>
      <trkpt lat="44.15496" lon="7.62305">
        <ele>2100.0766601562</ele>
        <time>2018-11-07T19:29:00.103Z</time>
      </trkpt>
      <trkpt lat="44.15499" lon="7.62328">
        <ele>2092.1459960938</ele>
        <time>2018-11-07T19:29:07.851Z</time>
      </trkpt>
      <trkpt lat="44.15512" lon="7.62367">
        <ele>2081.5778808594</ele>
        <time>2018-11-07T19:29:15.604Z</time>
      </trkpt>
      <trkpt lat="44.15518" lon="7.62387">
        <ele>2076.9768066406</ele>
        <time>2018-11-07T19:29:23.360Z</time>
      </trkpt>
      <trkpt lat="44.15522" lon="7.62401">
        <ele>2074.025390625</ele>
        <time>2018-11-07T19:29:31.117Z</time>
      </trkpt>
      <trkpt lat="44.1553" lon="7.62413">
        <ele>2069.943359375</ele>
        <time>2018-11-07T19:29:38.876Z</time>
      </trkpt>
      <trkpt lat="44.15549" lon="7.62442">
        <ele>2072.51171875</ele>
        <time>2018-11-07T19:29:46.640Z</time>
      </trkpt>
      <trkpt lat="44.15559" lon="7.62452">
        <ele>2073.8315429688</ele>
        <time>2018-11-07T19:29:54.406Z</time>
      </trkpt>
      <trkpt lat="44.15568" lon="7.62459">
        <ele>2075.2873535156</ele>
        <time>2018-11-07T19:30:02.173Z</time>
      </trkpt>
      <trkpt lat="44.15577" lon="7.62474">
        <ele>2075.5354003906</ele>
        <time>2018-11-07T19:30:09.943Z</time>
      </trkpt>
      <trkpt lat="44.15592" lon="7.62484">
        <ele>2078.3547363281</ele>
        <time>2018-11-07T19:30:17.715Z</time>
      </trkpt>
      <trkpt lat="44.15607" lon="7.62492">
        <ele>2078.634765625</ele>
        <time>2018-11-07T19:30:25.490Z</time>
      </trkpt>
      <trkpt lat="44.1562" lon="7.62501">
        <ele>2080.3444824219</ele>
        <time>2018-11-07T19:30:33.267Z</time>
      </trkpt>
      <trkpt lat="44.15635" lon="7.62506">
        <ele>2081.1171875</ele>
        <time>2018-11-07T19:30:41.047Z</time>
      </trkpt>
      <trkpt lat="44.15646" lon="7.6251">
        <ele>2081.7290039062</ele>
        <time>2018-11-07T19:30:48.828Z</time>
      </trkpt>
      <trkpt lat="44.15661" lon="7.62511">
        <ele>2081.4409179688</ele>
        <time>2018-11-07T19:30:56.612Z</time>
      </trkpt>
      <trkpt lat="44.1567" lon="7.62513">
        <ele>2081.62109375</ele>
        <time>2018-11-07T19:31:04.397Z</time>
      </trkpt>
      <trkpt lat="44.15689" lon="7.62521">
        <ele>2082.9528808594</ele>
        <time>2018-11-07T19:31:12.186Z</time>
      </trkpt>
      <trkpt lat="44.15715" lon="7.62524">
        <ele>2089.2294921875</ele>
        <time>2018-11-07T19:31:19.979Z</time>
      </trkpt>
      <trkpt lat="44.15758" lon="7.62551">
        <ele>2103.6372070312</ele>
        <time>2018-11-07T19:31:27.779Z</time>
      </trkpt>
      <trkpt lat="44.15795" lon="7.62588">
        <ele>2120.671875</ele>
        <time>2018-11-07T19:31:35.587Z</time>
      </trkpt>
      <trkpt lat="44.15818" lon="7.6261">
        <ele>2128.9624023438</ele>
        <time>2018-11-07T19:31:43.399Z</time>
      </trkpt>
      <trkpt lat="44.15829" lon="7.62615">
        <ele>2129.9462890625</ele>
        <time>2018-11-07T19:31:51.213Z</time>
      </trkpt>
      <trkpt lat="44.15848" lon="7.62618">
        <ele>2128.6025390625</ele>
        <time>2018-11-07T19:31:59.030Z</time>
      </trkpt>
      <trkpt lat="44.15869" lon="7.62626">
        <ele>2130.2224121094</ele>
        <time>2018-11-07T19:32:06.850Z</time>
      </trkpt>
      <trkpt lat="44.15902" lon="7.62637">
        <ele>2133.3898925781</ele>
        <time>2018-11-07T19:32:14.676Z</time>
      </trkpt>
      <trkpt lat="44.15943" lon="7.62643">
        <ele>2133.4794921875</ele>
        <time>2018-11-07T19:32:22.508Z</time>
      </trkpt>
      <trkpt lat="44.15964" lon="7.62644">
        <ele>2137.4479980469</ele>
        <time>2018-11-07T19:32:30.344Z</time>
      </trkpt>
      <trkpt lat="44.15989" lon="7.62644">
        <ele>2141.947265625</ele>
        <time>2018-11-07T19:32:38.184Z</time>
      </trkpt>
      <trkpt lat="44.16025" lon="7.62636">
        <ele>2145.2866210938</ele>
        <time>2018-11-07T19:32:46.030Z</time>
      </trkpt>
      <trkpt lat="44.1605" lon="7.62641">
        <ele>2153.6806640625</ele>
        <time>2018-11-07T19:32:53.880Z</time>
      </trkpt>
      <trkpt lat="44.16059" lon="7.62637">
        <ele>2153.8725585938</ele>
        <time>2018-11-07T19:33:01.731Z</time>
      </trkpt>
      <trkpt lat="44.16064" lon="7.62626">
        <ele>2149.6611328125</ele>
        <time>2018-11-07T19:33:09.584Z</time>
      </trkpt>
      <trkpt lat="44.16071" lon="7.62621">
        <ele>2148.6022949219</ele>
        <time>2018-11-07T19:33:17.438Z</time>
      </trkpt>
      <trkpt lat="44.16083" lon="7.62619">
        <ele>2149.9938964844</ele>
        <time>2018-11-07T19:33:25.294Z</time>
      </trkpt>
      <trkpt lat="44.16088" lon="7.62612">
        <ele>2147.318359375</ele>
        <time>2018-11-07T19:33:33.151Z</time>
      </trkpt>
      <trkpt lat="44.16107" lon="7.62601">
        <ele>2145.38671875</ele>
        <time>2018-11-07T19:33:41.011Z</time>
      </trkpt>
      <trkpt lat="44.16117" lon="7.626">
        <ele>2147.1130371094</ele>
        <time>2018-11-07T19:33:48.873Z</time>
      </trkpt>
      <trkpt lat="44.16133" lon="7.62604">
        <ele>2152.9821777344</ele>
        <time>2018-11-07T19:33:56.738Z</time>
      </trkpt>
      <trkpt lat="44.16153" lon="7.62615">
        <ele>2163.3725585938</ele>
        <time>2018-11-07T19:34:04.606Z</time>
      </trkpt>
      <trkpt lat="44.16179" lon="7.62621">
        <ele>2172.2990722656</ele>
        <time>2018-11-07T19:34:12.478Z</time>
      </trkpt>
      <trkpt lat="44.16195" lon="7.62621">
        <ele>2175.6218261719</ele>
        <time>2018-11-07T19:34:20.353Z</time>
      </trkpt>
      <trkpt lat="44.16204" lon="7.62619">
        <ele>2174.5178222656</ele>
        <time>2018-11-07T19:34:28.229Z</time>
      </trkpt>
      <trkpt lat="44.16216" lon="7.62607">
        <ele>2167.8942871094</ele>
        <time>2018-11-07T19:34:36.108Z</time>
      </trkpt>
      <trkpt lat="44.16223" lon="7.62599">
        <ele>2163.4643554688</ele>
        <time>2018-11-07T19:34:43.988Z</time>
      </trkpt>
      <trkpt lat="44.16224" lon="7.62598">
        <ele>2162.7231445312</ele>
        <time>2018-11-07T19:34:51.868Z</time>
      </trkpt>
      <trkpt lat="44.1624" lon="7.62595">
        <ele>2160.8393554688</ele>
        <time>2018-11-07T19:34:59.751Z</time>
      </trkpt>
      <trkpt lat="44.16252" lon="7.62597">
        <ele>2161.8232421875</ele>
        <time>2018-11-07T19:35:07.636Z</time>
      </trkpt>
      <trkpt lat="44.1627" lon="7.626">
        <ele>2163.2990722656</ele>
        <time>2018-11-07T19:35:15.524Z</time>
      </trkpt>
      <trkpt lat="44.16296" lon="7.626">
        <ele>2162.1176757812</ele>
        <time>2018-11-07T19:35:23.416Z</time>
      </trkpt>
      <trkpt lat="44.16312" lon="7.62589">
        <ele>2157.810546875</ele>
        <time>2018-11-07T19:35:31.311Z</time>
      </trkpt>
      <trkpt lat="44.16334" lon="7.62575">
        <ele>2147.8747558594</ele>
        <time>2018-11-07T19:35:39.210Z</time>
      </trkpt>
      <trkpt lat="44.16343" lon="7.62574">
        <ele>2147.3229980469</ele>
        <time>2018-11-07T19:35:47.110Z</time>
      </trkpt>
      <trkpt lat="44.16367" lon="7.62577">
        <ele>2151.4111328125</ele>
        <time>2018-11-07T19:35:55.014Z</time>
      </trkpt>
      <trkpt lat="44.16382" lon="7.62581">
        <ele>2152.3950195312</ele>
        <time>2018-11-07T19:36:02.920Z</time>
      </trkpt>
      <trkpt lat="44.16423" lon="7.62586">
        <ele>2150.5510253906</ele>
        <time>2018-11-07T19:36:10.833Z</time>
      </trkpt>
      <trkpt lat="44.16443" lon="7.62578">
        <ele>2144.6499023438</ele>
        <time>2018-11-07T19:36:18.749Z</time>
      </trkpt>
      <trkpt lat="44.16459" lon="7.62572">
        <ele>2137.4572753906</ele>
        <time>2018-11-07T19:36:26.668Z</time>
      </trkpt>
      <trkpt lat="44.16473" lon="7.62561">
        <ele>2128.134765625</ele>
        <time>2018-11-07T19:36:34.589Z</time>
      </trkpt>
      <trkpt lat="44.16478" lon="7.62556">
        <ele>2124.35546875</ele>
        <time>2018-11-07T19:36:42.511Z</time>
      </trkpt>
      <trkpt lat="44.165" lon="7.62554">
        <ele>2117.7114257812</ele>
        <time>2018-11-07T19:36:50.437Z</time>
      </trkpt>
      <trkpt lat="44.1651" lon="7.62545">
        <ele>2118.779296875</ele>
        <time>2018-11-07T19:36:58.365Z</time>
      </trkpt>
      <trkpt lat="44.16515" lon="7.62531">
        <ele>2119.4272460938</ele>
        <time>2018-11-07T19:37:06.295Z</time>
      </trkpt>
      <trkpt lat="44.16518" lon="7.62525">
        <ele>2119.787109375</ele>
        <time>2018-11-07T19:37:14.225Z</time>
      </trkpt>
      <trkpt lat="44.16527" lon="7.62518">
        <ele>2120.7348632812</ele>
        <time>2018-11-07T19:37:22.157Z</time>
      </trkpt>
      <trkpt lat="44.1653" lon="7.62513">
        <ele>2119.3737792969</ele>
        <time>2018-11-07T19:37:30.090Z</time>
      </trkpt>
      <trkpt lat="44.16538" lon="7.62496">
        <ele>2114.759765625</ele>
        <time>2018-11-07T19:37:38.025Z</time>
      </trkpt>
      <trkpt lat="44.16545" lon="7.62488">
        <ele>2108.6528320312</ele>
        <time>2018-11-07T19:37:45.962Z</time>
      </trkpt>
      <trkpt lat="44.16549" lon="7.62487">
        <ele>2106.876953125</ele>
        <time>2018-11-07T19:37:53.899Z</time>
      </trkpt>
      <trkpt lat="44.16558" lon="7.62487">
        <ele>2103.9616699219</ele>
        <time>2018-11-07T19:38:01.838Z</time>
      </trkpt>
      <trkpt lat="44.16574" lon="7.6249">
        <ele>2100.2182617188</ele>
        <time>2018-11-07T19:38:09.779Z</time>
      </trkpt>
      <trkpt lat="44.16587" lon="7.62484">
        <ele>2093.1274414062</ele>
        <time>2018-11-07T19:38:17.723Z</time>
      </trkpt>
      <trkpt lat="44.16591" lon="7.62484">
        <ele>2091.8315429688</ele>
        <time>2018-11-07T19:38:25.667Z</time>
      </trkpt>
      <trkpt lat="44.16593" lon="7.6249">
        <ele>2094.0632324219</ele>
        <time>2018-11-07T19:38:33.612Z</time>
      </trkpt>
      <trkpt lat="44.16593" lon="7.62495">
        <ele>2096.462890625</ele>
        <time>2018-11-07T19:38:41.557Z</time>
      </trkpt>
      <trkpt lat="44.1659" lon="7.62498">
        <ele>2098.8745117188</ele>
        <time>2018-11-07T19:38:49.503Z</time>
      </trkpt>
      <trkpt lat="44.16579" lon="7.62496">
        <ele>2101.4780273438</ele>
        <time>2018-11-07T19:38:57.451Z</time>
      </trkpt>
      <trkpt lat="44.16564" lon="7.62498">
        <ele>2107.296875</ele>
        <time>2018-11-07T19:39:05.401Z</time>
      </trkpt>
      <trkpt lat="44.16554" lon="7.62499">
        <ele>2111.0163574219</ele>
        <time>2018-11-07T19:39:13.353Z</time>
      </trkpt>
      <trkpt lat="44.16545" lon="7.62505">
        <ele>2114.3759765625</ele>
        <time>2018-11-07T19:39:21.306Z</time>
      </trkpt>
      <trkpt lat="44.16535" lon="7.62521">
        <ele>2115.9182128906</ele>
        <time>2018-11-07T19:39:29.262Z</time>
      </trkpt>
      <trkpt lat="44.16527" lon="7.62533">
        <ele>2120.5549316406</ele>
        <time>2018-11-07T19:39:37.220Z</time>
      </trkpt>
      <trkpt lat="44.16524" lon="7.62542">
        <ele>2120.1589355469</ele>
        <time>2018-11-07T19:39:45.179Z</time>
      </trkpt>
      <trkpt lat="44.16517" lon="7.62566">
        <ele>2119.19921875</ele>
        <time>2018-11-07T19:39:53.141Z</time>
      </trkpt>
      <trkpt lat="44.16512" lon="7.62584">
        <ele>2124.69140625</ele>
        <time>2018-11-07T19:40:01.105Z</time>
      </trkpt>
      <trkpt lat="44.16498" lon="7.62612">
        <ele>2118.8522949219</ele>
        <time>2018-11-07T19:40:09.073Z</time>
      </trkpt>
      <trkpt lat="44.16491" lon="7.62623">
        <ele>2116.580078125</ele>
        <time>2018-11-07T19:40:17.043Z</time>
      </trkpt>
      <trkpt lat="44.16468" lon="7.62658">
        <ele>2128.4187011719</ele>
        <time>2018-11-07T19:40:25.018Z</time>
      </trkpt>
      <trkpt lat="44.16448" lon="7.62694">
        <ele>2135.9033203125</ele>
        <time>2018-11-07T19:40:32.998Z</time>
      </trkpt>
      <trkpt lat="44.16435" lon="7.62717">
        <ele>2137.9311523438</ele>
        <time>2018-11-07T19:40:40.982Z</time>
      </trkpt>
      <trkpt lat="44.16426" lon="7.6273">
        <ele>2139.8989257812</ele>
        <time>2018-11-07T19:40:48.968Z</time>
      </trkpt>
      <trkpt lat="44.1642" lon="7.62742">
        <ele>2141.1877441406</ele>
        <time>2018-11-07T19:40:56.956Z</time>
      </trkpt>
      <trkpt lat="44.16415" lon="7.62757">
        <ele>2141.1945800781</ele>
        <time>2018-11-07T19:41:04.945Z</time>
      </trkpt>
      <trkpt lat="44.16406" lon="7.62776">
        <ele>2142.3464355469</ele>
        <time>2018-11-07T19:41:12.937Z</time>
      </trkpt>
      <trkpt lat="44.16401" lon="7.62801">
        <ele>2137.8454589844</ele>
        <time>2018-11-07T19:41:20.932Z</time>
      </trkpt>
      <trkpt lat="44.16401" lon="7.62806">
        <ele>2135.7458496094</ele>
        <time>2018-11-07T19:41:28.928Z</time>
      </trkpt>
      <trkpt lat="44.164" lon="7.62835">
        <ele>2124.0598144531</ele>
        <time>2018-11-07T19:41:36.927Z</time>
      </trkpt>
      <trkpt lat="44.16396" lon="7.62855">
        <ele>2124.5080566406</ele>
        <time>2018-11-07T19:41:44.928Z</time>
      </trkpt>
      <trkpt lat="44.16392" lon="7.62873">
        <ele>2122.8754882812</ele>
        <time>2018-11-07T19:41:52.932Z</time>
      </trkpt>
      <trkpt lat="44.16386" lon="7.62889">
        <ele>2117.2844238281</ele>
        <time>2018-11-07T19:42:00.938Z</time>
      </trkpt>
      <trkpt lat="44.16367" lon="7.62943">
        <ele>2102.33203125</ele>
        <time>2018-11-07T19:42:08.951Z</time>
      </trkpt>
      <trkpt lat="44.16357" lon="7.62966">
        <ele>2097.4045410156</ele>
        <time>2018-11-07T19:42:16.967Z</time>
      </trkpt>
      <trkpt lat="44.16351" lon="7.6299">
        <ele>2092.8693847656</ele>
        <time>2018-11-07T19:42:24.986Z</time>
      </trkpt>
      <trkpt lat="44.16351" lon="7.63009">
        <ele>2087.0422363281</ele>
        <time>2018-11-07T19:42:33.007Z</time>
      </trkpt>
      <trkpt lat="44.16354" lon="7.63032">
        <ele>2085.2307128906</ele>
        <time>2018-11-07T19:42:41.030Z</time>
      </trkpt>
      <trkpt lat="44.16358" lon="7.63097">
        <ele>2081.4968261719</ele>
        <time>2018-11-07T19:42:49.061Z</time>
      </trkpt>
      <trkpt lat="44.16357" lon="7.63144">
        <ele>2082.6967773438</ele>
        <time>2018-11-07T19:42:57.097Z</time>
      </trkpt>
      <trkpt lat="44.16358" lon="7.63146">
        <ele>2082.6882324219</ele>
        <time>2018-11-07T19:43:05.134Z</time>
      </trkpt>
      <trkpt lat="44.16359" lon="7.63149">
        <ele>2082.6726074219</ele>
        <time>2018-11-07T19:43:13.171Z</time>
      </trkpt>
      <trkpt lat="44.16362" lon="7.63151">
        <ele>2082.3723144531</ele>
        <time>2018-11-07T19:43:21.209Z</time>
      </trkpt>
      <trkpt lat="44.16366" lon="7.63151">
        <ele>2081.5083007812</ele>
        <time>2018-11-07T19:43:29.247Z</time>
      </trkpt>
      <trkpt lat="44.1637" lon="7.63147">
        <ele>2080.5485839844</ele>
        <time>2018-11-07T19:43:37.286Z</time>
      </trkpt>
      <trkpt lat="44.16372" lon="7.63125">
        <ele>2079.5886230469</ele>
        <time>2018-11-07T19:43:45.328Z</time>
      </trkpt>
      <trkpt lat="44.16376" lon="7.63111">
        <ele>2078.4538574219</ele>
        <time>2018-11-07T19:43:53.371Z</time>
      </trkpt>
      <trkpt lat="44.16378" lon="7.63103">
        <ele>2077.7651367188</ele>
        <time>2018-11-07T19:44:01.415Z</time>
      </trkpt>
      <trkpt lat="44.16386" lon="7.63088">
        <ele>2078.9099121094</ele>
        <time>2018-11-07T19:44:09.461Z</time>
      </trkpt>
      <trkpt lat="44.16392" lon="7.63083">
        <ele>2078.9260253906</ele>
        <time>2018-11-07T19:44:17.509Z</time>
      </trkpt>
      <trkpt lat="44.16404" lon="7.63085">
        <ele>2077.9421386719</ele>
        <time>2018-11-07T19:44:25.559Z</time>
      </trkpt>
      <trkpt lat="44.1641" lon="7.63091">
        <ele>2076.8220214844</ele>
        <time>2018-11-07T19:44:33.610Z</time>
      </trkpt>
      <trkpt lat="44.16415" lon="7.63098">
        <ele>2075.6223144531</ele>
        <time>2018-11-07T19:44:41.662Z</time>
      </trkpt>
      <trkpt lat="44.16418" lon="7.63114">
        <ele>2073.4868164062</ele>
        <time>2018-11-07T19:44:49.716Z</time>
      </trkpt>
      <trkpt lat="44.16418" lon="7.63129">
        <ele>2071.6870117188</ele>
        <time>2018-11-07T19:44:57.771Z</time>
      </trkpt>
      <trkpt lat="44.1642" lon="7.63137">
        <ele>2070.6403808594</ele>
        <time>2018-11-07T19:45:05.827Z</time>
      </trkpt>
      <trkpt lat="44.16421" lon="7.63141">
        <ele>2070.03125</ele>
        <time>2018-11-07T19:45:13.884Z</time>
      </trkpt>
      <trkpt lat="44.16433" lon="7.63153">
        <ele>2067.7275390625</ele>
        <time>2018-11-07T19:45:21.943Z</time>
      </trkpt>
      <trkpt lat="44.16446" lon="7.63152">
        <ele>2067.3081054688</ele>
        <time>2018-11-07T19:45:30.004Z</time>
      </trkpt>
      <trkpt lat="44.1646" lon="7.63141">
        <ele>2071.1474609375</ele>
        <time>2018-11-07T19:45:38.068Z</time>
      </trkpt>
      <trkpt lat="44.16473" lon="7.6314">
        <ele>2073.6071777344</ele>
        <time>2018-11-07T19:45:46.134Z</time>
      </trkpt>
      <trkpt lat="44.16479" lon="7.63145">
        <ele>2074.0869140625</ele>
        <time>2018-11-07T19:45:54.201Z</time>
      </trkpt>
      <trkpt lat="44.16485" lon="7.63156">
        <ele>2073.8469238281</ele>
        <time>2018-11-07T19:46:02.270Z</time>
      </trkpt>
      <trkpt lat="44.16488" lon="7.63188">
        <ele>2071.9240722656</ele>
        <time>2018-11-07T19:46:10.342Z</time>
      </trkpt>
      <trkpt lat="44.16501" lon="7.63261">
        <ele>2070.0126953125</ele>
        <time>2018-11-07T19:46:18.423Z</time>
      </trkpt>
      <trkpt lat="44.16516" lon="7.63326">
        <ele>2069.0671386719</ele>
        <time>2018-11-07T19:46:26.512Z</time>
      </trkpt>
      <trkpt lat="44.16524" lon="7.63356">
        <ele>2069.3137207031</ele>
        <time>2018-11-07T19:46:34.605Z</time>
      </trkpt>
      <trkpt lat="44.16528" lon="7.63378">
        <ele>2069.6057128906</ele>
        <time>2018-11-07T19:46:42.700Z</time>
      </trkpt>
      <trkpt lat="44.16527" lon="7.63405">
        <ele>2068.2199707031</ele>
        <time>2018-11-07T19:46:50.798Z</time>
      </trkpt>
      <trkpt lat="44.16525" lon="7.63442">
        <ele>2065.0297851562</ele>
        <time>2018-11-07T19:46:58.901Z</time>
      </trkpt>
      <trkpt lat="44.1653" lon="7.63465">
        <ele>2065.0378417969</ele>
        <time>2018-11-07T19:47:07.006Z</time>
      </trkpt>
      <trkpt lat="44.16539" lon="7.63493">
        <ele>2066.3576660156</ele>
        <time>2018-11-07T19:47:15.115Z</time>
      </trkpt>
      <trkpt lat="44.16546" lon="7.63509">
        <ele>2066.0114746094</ele>
        <time>2018-11-07T19:47:23.226Z</time>
      </trkpt>
      <trkpt lat="44.16551" lon="7.63515">
        <ele>2065.8913574219</ele>
        <time>2018-11-07T19:47:31.338Z</time>
      </trkpt>
      <trkpt lat="44.16561" lon="7.63524">
        <ele>2066.7312011719</ele>
        <time>2018-11-07T19:47:39.452Z</time>
      </trkpt>
      <trkpt lat="44.1658" lon="7.63534">
        <ele>2070.8825683594</ele>
        <time>2018-11-07T19:47:47.569Z</time>
      </trkpt>
      <trkpt lat="44.16589" lon="7.63539">
        <ele>2072.7541503906</ele>
        <time>2018-11-07T19:47:55.688Z</time>
      </trkpt>
      <trkpt lat="44.16597" lon="7.63539">
        <ele>2076.0178222656</ele>
        <time>2018-11-07T19:48:03.808Z</time>
      </trkpt>
      <trkpt lat="44.16609" lon="7.63539">
        <ele>2080.9128417969</ele>
        <time>2018-11-07T19:48:11.930Z</time>
      </trkpt>
      <trkpt lat="44.16623" lon="7.63536">
        <ele>2081.8605957031</ele>
        <time>2018-11-07T19:48:20.054Z</time>
      </trkpt>
      <trkpt lat="44.16642" lon="7.63518">
        <ele>2087.833984375</ele>
        <time>2018-11-07T19:48:28.182Z</time>
      </trkpt>
      <trkpt lat="44.16658" lon="7.63517">
        <ele>2088.0739746094</ele>
        <time>2018-11-07T19:48:36.313Z</time>
      </trkpt>
      <trkpt lat="44.1667" lon="7.63511">
        <ele>2090.521484375</ele>
        <time>2018-11-07T19:48:44.446Z</time>
      </trkpt>
      <trkpt lat="44.1668" lon="7.63505">
        <ele>2092.9931640625</ele>
        <time>2018-11-07T19:48:52.580Z</time>
      </trkpt>
      <trkpt lat="44.16689" lon="7.6349">
        <ele>2097.8745117188</ele>
        <time>2018-11-07T19:49:00.717Z</time>
      </trkpt>
      <trkpt lat="44.16696" lon="7.63466">
        <ele>2105.9206542969</ele>
        <time>2018-11-07T19:49:08.857Z</time>
      </trkpt>
      <trkpt lat="44.16709" lon="7.6343">
        <ele>2112.3125</ele>
        <time>2018-11-07T19:49:17.001Z</time>
      </trkpt>
      <trkpt lat="44.16733" lon="7.63364">
        <ele>2117.375</ele>
        <time>2018-11-07T19:49:25.154Z</time>
      </trkpt>
      <trkpt lat="44.16741" lon="7.63344">
        <ele>2117.8549804688</ele>
        <time>2018-11-07T19:49:33.309Z</time>
      </trkpt>
      <trkpt lat="44.16746" lon="7.63326">
        <ele>2118.326171875</ele>
        <time>2018-11-07T19:49:41.467Z</time>
      </trkpt>
      <trkpt lat="44.16751" lon="7.63313">
        <ele>2117.1865234375</ele>
        <time>2018-11-07T19:49:49.626Z</time>
      </trkpt>
      <trkpt lat="44.16759" lon="7.63309">
        <ele>2115.0222167969</ele>
        <time>2018-11-07T19:49:57.787Z</time>
      </trkpt>
      <trkpt lat="44.16762" lon="7.6331">
        <ele>2113.7495117188</ele>
        <time>2018-11-07T19:50:05.948Z</time>
      </trkpt>
      <trkpt lat="44.16762" lon="7.6331">
        <ele>2113.7482910156</ele>
        <time>2018-11-07T19:50:14.109Z</time>
      </trkpt>
      <trkpt lat="44.16776" lon="7.63312">
        <ele>2108.5073242188</ele>
        <time>2018-11-07T19:50:22.272Z</time>
      </trkpt>
      <trkpt lat="44.16796" lon="7.63314">
        <ele>2106.5925292969</ele>
        <time>2018-11-07T19:50:30.439Z</time>
      </trkpt>
      <trkpt lat="44.16826" lon="7.6331">
        <ele>2106.8566894531</ele>
        <time>2018-11-07T19:50:38.610Z</time>
      </trkpt>
      <trkpt lat="44.16862" lon="7.63312">
        <ele>2107.7373046875</ele>
        <time>2018-11-07T19:50:46.787Z</time>
      </trkpt>
      <trkpt lat="44.16884" lon="7.63303">
        <ele>2111.5766601562</ele>
        <time>2018-11-07T19:50:54.968Z</time>
      </trkpt>
      <trkpt lat="44.16899" lon="7.63292">
        <ele>2116.4118652344</ele>
        <time>2018-11-07T19:51:03.152Z</time>
      </trkpt>
      <trkpt lat="44.16909" lon="7.63291">
        <ele>2116.9650878906</ele>
        <time>2018-11-07T19:51:11.337Z</time>
      </trkpt>
      <trkpt lat="44.16925" lon="7.63287">
        <ele>2119.0769042969</ele>
        <time>2018-11-07T19:51:19.525Z</time>
      </trkpt>
      <trkpt lat="44.16937" lon="7.63289">
        <ele>2118.2609863281</ele>
        <time>2018-11-07T19:51:27.715Z</time>
      </trkpt>
      <trkpt lat="44.16944" lon="7.63288">
        <ele>2118.8249511719</ele>
        <time>2018-11-07T19:51:35.906Z</time>
      </trkpt>
      <trkpt lat="44.16948" lon="7.6329">
        <ele>2118.8342285156</ele>
        <time>2018-11-07T19:51:44.098Z</time>
      </trkpt>
      <trkpt lat="44.16967" lon="7.63309">
        <ele>2114.9587402344</ele>
        <time>2018-11-07T19:51:52.293Z</time>
      </trkpt>
      <trkpt lat="44.16984" lon="7.63327">
        <ele>2111.0114746094</ele>
        <time>2018-11-07T19:52:00.492Z</time>
      </trkpt>
      <trkpt lat="44.16992" lon="7.63332">
        <ele>2110.8195800781</ele>
        <time>2018-11-07T19:52:08.692Z</time>
      </trkpt>
      <trkpt lat="44.17" lon="7.63344">
        <ele>2108.4814453125</ele>
        <time>2018-11-07T19:52:16.894Z</time>
      </trkpt>
      <trkpt lat="44.17022" lon="7.6336">
        <ele>2109.1772460938</ele>
        <time>2018-11-07T19:52:25.100Z</time>
      </trkpt>
      <trkpt lat="44.17034" lon="7.63368">
        <ele>2111.7172851562</ele>
        <time>2018-11-07T19:52:33.308Z</time>
      </trkpt>
      <trkpt lat="44.17046" lon="7.63379">
        <ele>2115.0766601562</ele>
        <time>2018-11-07T19:52:41.518Z</time>
      </trkpt>
      <trkpt lat="44.17056" lon="7.63384">
        <ele>2119.2761230469</ele>
        <time>2018-11-07T19:52:49.730Z</time>
      </trkpt>
      <trkpt lat="44.17078" lon="7.63389">
        <ele>2130.5302734375</ele>
        <time>2018-11-07T19:52:57.946Z</time>
      </trkpt>
      <trkpt lat="44.17088" lon="7.63393">
        <ele>2135.1958007812</ele>
        <time>2018-11-07T19:53:06.163Z</time>
      </trkpt>
      <trkpt lat="44.17098" lon="7.63405">
        <ele>2136.9475097656</ele>
        <time>2018-11-07T19:53:14.382Z</time>
      </trkpt>
      <trkpt lat="44.17104" lon="7.63422">
        <ele>2134.6540527344</ele>
        <time>2018-11-07T19:53:22.604Z</time>
      </trkpt>
      <trkpt lat="44.17107" lon="7.63432">
        <ele>2133.4477539062</ele>
        <time>2018-11-07T19:53:30.827Z</time>
      </trkpt>
      <trkpt lat="44.17114" lon="7.6346">
        <ele>2128.8283691406</ele>
        <time>2018-11-07T19:53:39.053Z</time>
      </trkpt>
      <trkpt lat="44.1712" lon="7.63472">
        <ele>2128.6125488281</ele>
        <time>2018-11-07T19:53:47.281Z</time>
      </trkpt>
      <trkpt lat="44.1712" lon="7.63481">
        <ele>2125.8049316406</ele>
        <time>2018-11-07T19:53:55.510Z</time>
      </trkpt>
      <trkpt lat="44.17122" lon="7.63516">
        <ele>2115.9682617188</ele>
        <time>2018-11-07T19:54:03.743Z</time>
      </trkpt>
      <trkpt lat="44.17119" lon="7.63538">
        <ele>2107.677734375</ele>
        <time>2018-11-07T19:54:11.979Z</time>
      </trkpt>
      <trkpt lat="44.17122" lon="7.63554">
        <ele>2104.5700683594</ele>
        <time>2018-11-07T19:54:20.217Z</time>
      </trkpt>
      <trkpt lat="44.17132" lon="7.63566">
        <ele>2106.6098632812</ele>
        <time>2018-11-07T19:54:28.457Z</time>
      </trkpt>
      <trkpt lat="44.17148" lon="7.6357">
        <ele>2114.4326171875</ele>
        <time>2018-11-07T19:54:36.699Z</time>
      </trkpt>
      <trkpt lat="44.17165" lon="7.63573">
        <ele>2123.119140625</ele>
        <time>2018-11-07T19:54:44.944Z</time>
      </trkpt>
      <trkpt lat="44.17179" lon="7.6358">
        <ele>2128.9140625</ele>
        <time>2018-11-07T19:54:53.191Z</time>
      </trkpt>
      <trkpt lat="44.1719" lon="7.63587">
        <ele>2132.9177246094</ele>
        <time>2018-11-07T19:55:01.440Z</time>
      </trkpt>
      <trkpt lat="44.17198" lon="7.63588">
        <ele>2136.3061523438</ele>
        <time>2018-11-07T19:55:09.691Z</time>
      </trkpt>
      <trkpt lat="44.17211" lon="7.63595">
        <ele>2138.345703125</ele>
        <time>2018-11-07T19:55:17.944Z</time>
      </trkpt>
      <trkpt lat="44.1722" lon="7.63602">
        <ele>2138.8017578125</ele>
        <time>2018-11-07T19:55:26.198Z</time>
      </trkpt>
      <trkpt lat="44.17231" lon="7.63622">
        <ele>2134.2783203125</ele>
        <time>2018-11-07T19:55:34.455Z</time>
      </trkpt>
      <trkpt lat="44.17234" lon="7.63633">
        <ele>2131.33984375</ele>
        <time>2018-11-07T19:55:42.714Z</time>
      </trkpt>
      <trkpt lat="44.17237" lon="7.63642">
        <ele>2128.7788085938</ele>
        <time>2018-11-07T19:55:50.974Z</time>
      </trkpt>
      <trkpt lat="44.17243" lon="7.63646">
        <ele>2129.2348632812</ele>
        <time>2018-11-07T19:55:59.235Z</time>
      </trkpt>
      <trkpt lat="44.17277" lon="7.63658">
        <ele>2136.5100097656</ele>
        <time>2018-11-07T19:56:07.502Z</time>
      </trkpt>
      <trkpt lat="44.17278" lon="7.63658">
        <ele>2136.8403320312</ele>
        <time>2018-11-07T19:56:15.769Z</time>
      </trkpt>
      <trkpt lat="44.17278" lon="7.63658">
        <ele>2136.8405761719</ele>
        <time>2018-11-07T19:56:24.036Z</time>
      </trkpt>
      <trkpt lat="44.17295" lon="7.63663">
        <ele>2139.9809570312</ele>
        <time>2018-11-07T19:56:32.305Z</time>
      </trkpt>
      <trkpt lat="44.17305" lon="7.63665">
        <ele>2142.2126464844</ele>
        <time>2018-11-07T19:56:40.576Z</time>
      </trkpt>
      <trkpt lat="44.17312" lon="7.6367">
        <ele>2142.4382324219</ele>
        <time>2018-11-07T19:56:48.848Z</time>
      </trkpt>
      <trkpt lat="44.17334" lon="7.63691">
        <ele>2145.2697753906</ele>
        <time>2018-11-07T19:56:57.125Z</time>
      </trkpt>
      <trkpt lat="44.1735" lon="7.63707">
        <ele>2147.189453125</ele>
        <time>2018-11-07T19:57:05.405Z</time>
      </trkpt>
      <trkpt lat="44.17362" lon="7.63712">
        <ele>2149.9187011719</ele>
        <time>2018-11-07T19:57:13.687Z</time>
      </trkpt>
      <trkpt lat="44.17374" lon="7.63713">
        <ele>2152.6064453125</ele>
        <time>2018-11-07T19:57:21.971Z</time>
      </trkpt>
      <trkpt lat="44.17383" lon="7.63721">
        <ele>2153.2302246094</ele>
        <time>2018-11-07T19:57:30.256Z</time>
      </trkpt>
      <trkpt lat="44.17384" lon="7.63741">
        <ele>2149.630859375</ele>
        <time>2018-11-07T19:57:38.544Z</time>
      </trkpt>
      <trkpt lat="44.17379" lon="7.63754">
        <ele>2146.2805175781</ele>
        <time>2018-11-07T19:57:46.833Z</time>
      </trkpt>
      <trkpt lat="44.17374" lon="7.63766">
        <ele>2145.224609375</ele>
        <time>2018-11-07T19:57:55.124Z</time>
      </trkpt>
      <trkpt lat="44.17372" lon="7.63779">
        <ele>2144.9006347656</ele>
        <time>2018-11-07T19:58:03.417Z</time>
      </trkpt>
      <trkpt lat="44.17375" lon="7.63787">
        <ele>2145.7165527344</ele>
        <time>2018-11-07T19:58:11.711Z</time>
      </trkpt>
      <trkpt lat="44.17378" lon="7.63801">
        <ele>2146.5959472656</ele>
        <time>2018-11-07T19:58:20.006Z</time>
      </trkpt>
      <trkpt lat="44.17379" lon="7.63806">
        <ele>2146.904296875</ele>
        <time>2018-11-07T19:58:28.302Z</time>
      </trkpt>
      <trkpt lat="44.17377" lon="7.63832">
        <ele>2146.736328125</ele>
        <time>2018-11-07T19:58:36.601Z</time>
      </trkpt>
      <trkpt lat="44.17372" lon="7.63847">
        <ele>2147.0705566406</ele>
        <time>2018-11-07T19:58:44.902Z</time>
      </trkpt>
      <trkpt lat="44.1736" lon="7.63856">
        <ele>2145.3063964844</ele>
        <time>2018-11-07T19:58:53.205Z</time>
      </trkpt>
      <trkpt lat="44.1732" lon="7.63878">
        <ele>2143.6411132812</ele>
        <time>2018-11-07T19:59:01.515Z</time>
      </trkpt>
      <trkpt lat="44.17275" lon="7.63917">
        <ele>2148.3884277344</ele>
        <time>2018-11-07T19:59:09.833Z</time>
      </trkpt>
      <trkpt lat="44.17274" lon="7.63917">
        <ele>2148.3764648438</ele>
        <time>2018-11-07T19:59:18.151Z</time>
      </trkpt>
      <trkpt lat="44.1726" lon="7.63919">
        <ele>2148.7844238281</ele>
        <time>2018-11-07T19:59:26.472Z</time>
      </trkpt>
      <trkpt lat="44.17242" lon="7.63915">
        <ele>2147.4165039062</ele>
        <time>2018-11-07T19:59:34.796Z</time>
      </trkpt>
      <trkpt lat="44.17238" lon="7.63913">
        <ele>2146.77734375</ele>
        <time>2018-11-07T19:59:43.120Z</time>
      </trkpt>
      <trkpt lat="44.17238" lon="7.63913">
        <ele>2146.7768554688</ele>
        <time>2018-11-07T19:59:51.444Z</time>
      </trkpt>
      <trkpt lat="44.1723" lon="7.63909">
        <ele>2145.544921875</ele>
        <time>2018-11-07T19:59:59.770Z</time>
      </trkpt>
      <trkpt lat="44.17222" lon="7.63906">
        <ele>2144.5849609375</ele>
        <time>2018-11-07T20:00:08.097Z</time>
      </trkpt>
      <trkpt lat="44.17214" lon="7.63906">
        <ele>2144.4890136719</ele>
        <time>2018-11-07T20:00:16.425Z</time>
      </trkpt>
      <trkpt lat="44.17198" lon="7.6391">
        <ele>2145.4489746094</ele>
        <time>2018-11-07T20:00:24.756Z</time>
      </trkpt>
      <trkpt lat="44.17193" lon="7.63909">
        <ele>2144.970703125</ele>
        <time>2018-11-07T20:00:33.088Z</time>
      </trkpt>
      <trkpt lat="44.1717" lon="7.63895">
        <ele>2138.73828125</ele>
        <time>2018-11-07T20:00:41.424Z</time>
      </trkpt>
      <trkpt lat="44.17161" lon="7.63892">
        <ele>2137.0825195312</ele>
        <time>2018-11-07T20:00:49.761Z</time>
      </trkpt>
      <trkpt lat="44.17155" lon="7.63894">
        <ele>2137.1784667969</ele>
        <time>2018-11-07T20:00:58.099Z</time>
      </trkpt>
      <trkpt lat="44.1714" lon="7.63908">
        <ele>2140.1179199219</ele>
        <time>2018-11-07T20:01:06.440Z</time>
      </trkpt>
      <trkpt lat="44.17122" lon="7.63917">
        <ele>2141.3059082031</ele>
        <time>2018-11-07T20:01:14.784Z</time>
      </trkpt>
      <trkpt lat="44.17114" lon="7.63927">
        <ele>2142.7028808594</ele>
        <time>2018-11-07T20:01:23.130Z</time>
      </trkpt>
      <trkpt lat="44.17102" lon="7.63934">
        <ele>2142.7746582031</ele>
        <time>2018-11-07T20:01:31.478Z</time>
      </trkpt>
      <trkpt lat="44.17049" lon="7.63946">
        <ele>2139.0002441406</ele>
        <time>2018-11-07T20:01:39.835Z</time>
      </trkpt>
      <trkpt lat="44.17042" lon="7.6395">
        <ele>2139.4560546875</ele>
        <time>2018-11-07T20:01:48.193Z</time>
      </trkpt>
      <trkpt lat="44.17037" lon="7.63957">
        <ele>2140.7758789062</ele>
        <time>2018-11-07T20:01:56.552Z</time>
      </trkpt>
      <trkpt lat="44.17036" lon="7.63966">
        <ele>2142.8635253906</ele>
        <time>2018-11-07T20:02:04.912Z</time>
      </trkpt>
      <trkpt lat="44.17042" lon="7.64004">
        <ele>2151.9191894531</ele>
        <time>2018-11-07T20:02:13.276Z</time>
      </trkpt>
      <trkpt lat="44.17046" lon="7.64016">
        <ele>2151.4873046875</ele>
        <time>2018-11-07T20:02:21.642Z</time>
      </trkpt>
      <trkpt lat="44.17046" lon="7.64016">
        <ele>2151.4885253906</ele>
        <time>2018-11-07T20:02:30.008Z</time>
      </trkpt>
      <trkpt lat="44.17054" lon="7.64024">
        <ele>2151.5832519531</ele>
        <time>2018-11-07T20:02:38.376Z</time>
      </trkpt>
      <trkpt lat="44.17076" lon="7.64032">
        <ele>2152.6870117188</ele>
        <time>2018-11-07T20:02:46.747Z</time>
      </trkpt>
      <trkpt lat="44.1709" lon="7.64047">
        <ele>2152.794921875</ele>
        <time>2018-11-07T20:02:55.121Z</time>
      </trkpt>
      <trkpt lat="44.17099" lon="7.64078">
        <ele>2151.6372070312</ele>
        <time>2018-11-07T20:03:03.499Z</time>
      </trkpt>
      <trkpt lat="44.17115" lon="7.64113">
        <ele>2149.2075195312</ele>
        <time>2018-11-07T20:03:11.882Z</time>
      </trkpt>
      <trkpt lat="44.17156" lon="7.64172">
        <ele>2153.330078125</ele>
        <time>2018-11-07T20:03:20.274Z</time>
      </trkpt>
      <trkpt lat="44.17165" lon="7.64214">
        <ele>2154.5178222656</ele>
        <time>2018-11-07T20:03:28.671Z</time>
      </trkpt>
      <trkpt lat="44.17175" lon="7.64242">
        <ele>2156.2895507812</ele>
        <time>2018-11-07T20:03:37.072Z</time>
      </trkpt>
      <trkpt lat="44.17177" lon="7.64263">
        <ele>2156.3142089844</ele>
        <time>2018-11-07T20:03:45.475Z</time>
      </trkpt>
      <trkpt lat="44.17175" lon="7.64275">
        <ele>2155.6662597656</ele>
        <time>2018-11-07T20:03:53.880Z</time>
      </trkpt>
      <trkpt lat="44.17174" lon="7.64298">
        <ele>2155.3422851562</ele>
        <time>2018-11-07T20:04:02.287Z</time>
      </trkpt>
      <trkpt lat="44.1718" lon="7.64325">
        <ele>2157.7026367188</ele>
        <time>2018-11-07T20:04:10.697Z</time>
      </trkpt>
      <trkpt lat="44.17181" lon="7.64328">
        <ele>2158.1677246094</ele>
        <time>2018-11-07T20:04:19.108Z</time>
      </trkpt>
      <trkpt lat="44.17191" lon="7.64353">
        <ele>2163.2612304688</ele>
        <time>2018-11-07T20:04:27.522Z</time>
      </trkpt>
      <trkpt lat="44.17223" lon="7.6444">
        <ele>2181.9479980469</ele>
        <time>2018-11-07T20:04:35.947Z</time>
      </trkpt>
      <trkpt lat="44.17224" lon="7.64451">
        <ele>2183.3374023438</ele>
        <time>2018-11-07T20:04:44.374Z</time>
      </trkpt>
      <trkpt lat="44.17223" lon="7.64459">
        <ele>2184.369140625</ele>
        <time>2018-11-07T20:04:52.802Z</time>
      </trkpt>
      <trkpt lat="44.1721" lon="7.64478">
        <ele>2184.5251464844</ele>
        <time>2018-11-07T20:05:01.233Z</time>
      </trkpt>
      <trkpt lat="44.17203" lon="7.64496">
        <ele>2185.8210449219</ele>
        <time>2018-11-07T20:05:09.666Z</time>
      </trkpt>
      <trkpt lat="44.17203" lon="7.64509">
        <ele>2187.2185058594</ele>
        <time>2018-11-07T20:05:18.100Z</time>
      </trkpt>
      <trkpt lat="44.17209" lon="7.64528">
        <ele>2190.4543457031</ele>
        <time>2018-11-07T20:05:26.537Z</time>
      </trkpt>
      <trkpt lat="44.1722" lon="7.64561">
        <ele>2196.3933105469</ele>
        <time>2018-11-07T20:05:34.978Z</time>
      </trkpt>
      <trkpt lat="44.17225" lon="7.64566">
        <ele>2197.7731933594</ele>
        <time>2018-11-07T20:05:43.420Z</time>
      </trkpt>
      <trkpt lat="44.17239" lon="7.6457">
        <ele>2200.3166503906</ele>
        <time>2018-11-07T20:05:51.864Z</time>
      </trkpt>
      <trkpt lat="44.17244" lon="7.64573">
        <ele>2201.4326171875</ele>
        <time>2018-11-07T20:06:00.309Z</time>
      </trkpt>
      <trkpt lat="44.17246" lon="7.64577">
        <ele>2202.2482910156</ele>
        <time>2018-11-07T20:06:08.755Z</time>
      </trkpt>
      <trkpt lat="44.17246" lon="7.64585">
        <ele>2203.3041992188</ele>
        <time>2018-11-07T20:06:17.202Z</time>
      </trkpt>
      <trkpt lat="44.17243" lon="7.64589">
        <ele>2203.0139160156</ele>
        <time>2018-11-07T20:06:25.649Z</time>
      </trkpt>
      <trkpt lat="44.17233" lon="7.6459">
        <ele>2201.5861816406</ele>
        <time>2018-11-07T20:06:34.098Z</time>
      </trkpt>
      <trkpt lat="44.1722" lon="7.64593">
        <ele>2199.7504882812</ele>
        <time>2018-11-07T20:06:42.549Z</time>
      </trkpt>
      <trkpt lat="44.17215" lon="7.646">
        <ele>2199.1147460938</ele>
        <time>2018-11-07T20:06:51.001Z</time>
      </trkpt>
      <trkpt lat="44.17212" lon="7.6461">
        <ele>2199.6962890625</ele>
        <time>2018-11-07T20:06:59.454Z</time>
      </trkpt>
      <trkpt lat="44.17207" lon="7.64633">
        <ele>2202.9477539062</ele>
        <time>2018-11-07T20:07:07.910Z</time>
      </trkpt>
      <trkpt lat="44.17196" lon="7.64641">
        <ele>2203.9675292969</ele>
        <time>2018-11-07T20:07:16.368Z</time>
      </trkpt>
      <trkpt lat="44.17157" lon="7.64638">
        <ele>2197.4418945312</ele>
        <time>2018-11-07T20:07:24.832Z</time>
      </trkpt>
      <trkpt lat="44.17137" lon="7.64641">
        <ele>2195.3422851562</ele>
        <time>2018-11-07T20:07:33.300Z</time>
      </trkpt>
      <trkpt lat="44.17125" lon="7.64646">
        <ele>2194.658203125</ele>
        <time>2018-11-07T20:07:41.770Z</time>
      </trkpt>
      <trkpt lat="44.17112" lon="7.64657">
        <ele>2194.9223632812</ele>
        <time>2018-11-07T20:07:50.242Z</time>
      </trkpt>
      <trkpt lat="44.17106" lon="7.64676">
        <ele>2198.3190917969</ele>
        <time>2018-11-07T20:07:58.717Z</time>
      </trkpt>
      <trkpt lat="44.17097" lon="7.64693">
        <ele>2201.5827636719</ele>
        <time>2018-11-07T20:08:07.194Z</time>
      </trkpt>
      <trkpt lat="44.17089" lon="7.64704">
        <ele>2203.6943359375</ele>
        <time>2018-11-07T20:08:15.673Z</time>
      </trkpt>
      <trkpt lat="44.17087" lon="7.64712">
        <ele>2205.2299804688</ele>
        <time>2018-11-07T20:08:24.153Z</time>
      </trkpt>
      <trkpt lat="44.17091" lon="7.64751">
        <ele>2215.6381835938</ele>
        <time>2018-11-07T20:08:32.637Z</time>
      </trkpt>
      <trkpt lat="44.1709" lon="7.64757">
        <ele>2217.2810058594</ele>
        <time>2018-11-07T20:08:41.122Z</time>
      </trkpt>
      <trkpt lat="44.17089" lon="7.64771">
        <ele>2220.9084472656</ele>
        <time>2018-11-07T20:08:49.609Z</time>
      </trkpt>
      <trkpt lat="44.17084" lon="7.64781">
        <ele>2224.0881347656</ele>
        <time>2018-11-07T20:08:58.097Z</time>
      </trkpt>
      <trkpt lat="44.17078" lon="7.64786">
        <ele>2226.2236328125</ele>
        <time>2018-11-07T20:09:06.586Z</time>
      </trkpt>
      <trkpt lat="44.17066" lon="7.64795">
        <ele>2229.8869628906</ele>
        <time>2018-11-07T20:09:15.077Z</time>
      </trkpt>
      <trkpt lat="44.17059" lon="7.64795">
        <ele>2230.3908691406</ele>
        <time>2018-11-07T20:09:23.569Z</time>
      </trkpt>
      <trkpt lat="44.17048" lon="7.64792">
        <ele>2230.71484375</ele>
        <time>2018-11-07T20:09:32.063Z</time>
      </trkpt>
      <trkpt lat="44.17036" lon="7.64792">
        <ele>2231.5786132812</ele>
        <time>2018-11-07T20:09:40.559Z</time>
      </trkpt>
      <trkpt lat="44.17032" lon="7.64791">
        <ele>2231.7106933594</ele>
        <time>2018-11-07T20:09:49.056Z</time>
      </trkpt>
      <trkpt lat="44.17027" lon="7.64787">
        <ele>2231.7038574219</ele>
        <time>2018-11-07T20:09:57.554Z</time>
      </trkpt>
      <trkpt lat="44.17012" lon="7.6476">
        <ele>2233.0717773438</ele>
        <time>2018-11-07T20:10:06.056Z</time>
      </trkpt>
      <trkpt lat="44.17003" lon="7.64753">
        <ele>2235.3273925781</ele>
        <time>2018-11-07T20:10:14.559Z</time>
      </trkpt>
      <trkpt lat="44.16998" lon="7.64756">
        <ele>2237.6550292969</ele>
        <time>2018-11-07T20:10:23.063Z</time>
      </trkpt>
      <trkpt lat="44.16997" lon="7.64764">
        <ele>2239.2746582031</ele>
        <time>2018-11-07T20:10:31.568Z</time>
      </trkpt>
      <trkpt lat="44.17004" lon="7.6478">
        <ele>2239.1667480469</ele>
        <time>2018-11-07T20:10:40.075Z</time>
      </trkpt>
      <trkpt lat="44.17012" lon="7.64827">
        <ele>2243.1843261719</ele>
        <time>2018-11-07T20:10:48.588Z</time>
      </trkpt>
      <trkpt lat="44.17014" lon="7.64847">
        <ele>2242.8186035156</ele>
        <time>2018-11-07T20:10:57.103Z</time>
      </trkpt>
      <trkpt lat="44.17008" lon="7.64868">
        <ele>2243.5024414062</ele>
        <time>2018-11-07T20:11:05.621Z</time>
      </trkpt>
      <trkpt lat="44.17008" lon="7.64925">
        <ele>2237.5190429688</ele>
        <time>2018-11-07T20:11:14.145Z</time>
      </trkpt>
      <trkpt lat="44.17015" lon="7.64959">
        <ele>2231.5200195312</ele>
        <time>2018-11-07T20:11:22.673Z</time>
      </trkpt>
      <trkpt lat="44.17014" lon="7.64975">
        <ele>2229.6242675781</ele>
        <time>2018-11-07T20:11:31.203Z</time>
      </trkpt>
      <trkpt lat="44.16986" lon="7.65032">
        <ele>2223.5720214844</ele>
        <time>2018-11-07T20:11:39.741Z</time>
      </trkpt>
      <trkpt lat="44.16968" lon="7.65091">
        <ele>2224.4916992188</ele>
        <time>2018-11-07T20:11:48.287Z</time>
      </trkpt>
      <trkpt lat="44.16964" lon="7.65119">
        <ele>2224.6862792969</ele>
        <time>2018-11-07T20:11:56.836Z</time>
      </trkpt>
      <trkpt lat="44.16965" lon="7.65161">
        <ele>2224.3625488281</ele>
        <time>2018-11-07T20:12:05.390Z</time>
      </trkpt>
      <trkpt lat="44.16971" lon="7.65206">
        <ele>2226.2326660156</ele>
        <time>2018-11-07T20:12:13.949Z</time>
      </trkpt>
      <trkpt lat="44.16974" lon="7.65222">
        <ele>2225.6926269531</ele>
        <time>2018-11-07T20:12:22.510Z</time>
      </trkpt>
      <trkpt lat="44.16985" lon="7.65248">
        <ele>2223.7131347656</ele>
        <time>2018-11-07T20:12:31.074Z</time>
      </trkpt>
      <trkpt lat="44.16988" lon="7.65255">
        <ele>2223.0910644531</ele>
        <time>2018-11-07T20:12:39.639Z</time>
      </trkpt>
      <trkpt lat="44.16996" lon="7.6527">
        <ele>2221.7333984375</ele>
        <time>2018-11-07T20:12:48.206Z</time>
      </trkpt>
      <trkpt lat="44.17008" lon="7.65284">
        <ele>2219.5737304688</ele>
        <time>2018-11-07T20:12:56.776Z</time>
      </trkpt>
      <trkpt lat="44.17031" lon="7.65307">
        <ele>2216.1508789062</ele>
        <time>2018-11-07T20:13:05.350Z</time>
      </trkpt>
      <trkpt lat="44.17038" lon="7.6532">
        <ele>2216.4868164062</ele>
        <time>2018-11-07T20:13:13.926Z</time>
      </trkpt>
      <trkpt lat="44.17044" lon="7.65324">
        <ele>2216.7746582031</ele>
        <time>2018-11-07T20:13:22.503Z</time>
      </trkpt>
      <trkpt lat="44.17052" lon="7.65326">
        <ele>2217.1586914062</ele>
        <time>2018-11-07T20:13:31.082Z</time>
      </trkpt>
      <trkpt lat="44.17062" lon="7.65328">
        <ele>2217.638671875</ele>
        <time>2018-11-07T20:13:39.662Z</time>
      </trkpt>
      <trkpt lat="44.17067" lon="7.65336">
        <ele>2217.8740234375</ele>
        <time>2018-11-07T20:13:48.244Z</time>
      </trkpt>
      <trkpt lat="44.17071" lon="7.65349">
        <ele>2217.4421386719</ele>
        <time>2018-11-07T20:13:56.827Z</time>
      </trkpt>
      <trkpt lat="44.1707" lon="7.65362">
        <ele>2216.7702636719</ele>
        <time>2018-11-07T20:14:05.412Z</time>
      </trkpt>
      <trkpt lat="44.17061" lon="7.6538">
        <ele>2215.3430175781</ele>
        <time>2018-11-07T20:14:13.999Z</time>
      </trkpt>
      <trkpt lat="44.17046" lon="7.65385">
        <ele>2214.1433105469</ele>
        <time>2018-11-07T20:14:22.589Z</time>
      </trkpt>
      <trkpt lat="44.17024" lon="7.65381">
        <ele>2214.0354003906</ele>
        <time>2018-11-07T20:14:31.182Z</time>
      </trkpt>
      <trkpt lat="44.17009" lon="7.65383">
        <ele>2216.794921875</ele>
        <time>2018-11-07T20:14:39.778Z</time>
      </trkpt>
      <trkpt lat="44.16987" lon="7.654">
        <ele>2221.5537109375</ele>
        <time>2018-11-07T20:14:48.378Z</time>
      </trkpt>
      <trkpt lat="44.16978" lon="7.65408">
        <ele>2224.0251464844</ele>
        <time>2018-11-07T20:14:56.979Z</time>
      </trkpt>
      <trkpt lat="44.16974" lon="7.6542">
        <ele>2225.1442871094</ele>
        <time>2018-11-07T20:15:05.582Z</time>
      </trkpt>
      <trkpt lat="44.16971" lon="7.65441">
        <ele>2223.9204101562</ele>
        <time>2018-11-07T20:15:14.187Z</time>
      </trkpt>
      <trkpt lat="44.1697" lon="7.65512">
        <ele>2216.9536132812</ele>
        <time>2018-11-07T20:15:22.800Z</time>
      </trkpt>
      <trkpt lat="44.16952" lon="7.65543">
        <ele>2215.1843261719</ele>
        <time>2018-11-07T20:15:31.418Z</time>
      </trkpt>
      <trkpt lat="44.16943" lon="7.65573">
        <ele>2210.4440917969</ele>
        <time>2018-11-07T20:15:40.040Z</time>
      </trkpt>
      <trkpt lat="44.16932" lon="7.65592">
        <ele>2203.2163085938</ele>
        <time>2018-11-07T20:15:48.665Z</time>
      </trkpt>
      <trkpt lat="44.16925" lon="7.65596">
        <ele>2200.4807128906</ele>
        <time>2018-11-07T20:15:57.291Z</time>
      </trkpt>
      <trkpt lat="44.16912" lon="7.65596">
        <ele>2196.1135253906</ele>
        <time>2018-11-07T20:16:05.919Z</time>
      </trkpt>
      <trkpt lat="44.16902" lon="7.656">
        <ele>2192.3701171875</ele>
        <time>2018-11-07T20:16:14.549Z</time>
      </trkpt>
      <trkpt lat="44.16882" lon="7.65612">
        <ele>2185.5632324219</ele>
        <time>2018-11-07T20:16:23.182Z</time>
      </trkpt>
      <trkpt lat="44.16879" lon="7.65622">
        <ele>2186.2470703125</ele>
        <time>2018-11-07T20:16:31.816Z</time>
      </trkpt>
      <trkpt lat="44.1688" lon="7.65627">
        <ele>2186.9189453125</ele>
        <time>2018-11-07T20:16:40.451Z</time>
      </trkpt>
      <trkpt lat="44.16884" lon="7.65629">
        <ele>2187.6628417969</ele>
        <time>2018-11-07T20:16:49.087Z</time>
      </trkpt>
      <trkpt lat="44.16893" lon="7.65622">
        <ele>2188.0947265625</ele>
        <time>2018-11-07T20:16:57.724Z</time>
      </trkpt>
      <trkpt lat="44.16903" lon="7.65614">
        <ele>2191.3623046875</ele>
        <time>2018-11-07T20:17:06.363Z</time>
      </trkpt>
      <trkpt lat="44.16911" lon="7.65612">
        <ele>2194.2416992188</ele>
        <time>2018-11-07T20:17:15.003Z</time>
      </trkpt>
      <trkpt lat="44.1693" lon="7.65613">
        <ele>2200.5288085938</ele>
        <time>2018-11-07T20:17:23.646Z</time>
      </trkpt>
      <trkpt lat="44.16943" lon="7.65602">
        <ele>2205.9519042969</ele>
        <time>2018-11-07T20:17:32.292Z</time>
      </trkpt>
      <trkpt lat="44.16977" lon="7.65568">
        <ele>2200.7868652344</ele>
        <time>2018-11-07T20:17:40.945Z</time>
      </trkpt>
      <trkpt lat="44.16989" lon="7.65561">
        <ele>2198.2072753906</ele>
        <time>2018-11-07T20:17:49.600Z</time>
      </trkpt>
      <trkpt lat="44.17009" lon="7.65558">
        <ele>2192.4775390625</ele>
        <time>2018-11-07T20:17:58.258Z</time>
      </trkpt>
      <trkpt lat="44.17015" lon="7.65558">
        <ele>2190.75</ele>
        <time>2018-11-07T20:18:06.917Z</time>
      </trkpt>
      <trkpt lat="44.17021" lon="7.65555">
        <ele>2189.8859863281</ele>
        <time>2018-11-07T20:18:15.577Z</time>
      </trkpt>
      <trkpt lat="44.17035" lon="7.65538">
        <ele>2192.0354003906</ele>
        <time>2018-11-07T20:18:24.240Z</time>
      </trkpt>
      <trkpt lat="44.17052" lon="7.65532">
        <ele>2191.9272460938</ele>
        <time>2018-11-07T20:18:32.906Z</time>
      </trkpt>
      <trkpt lat="44.17057" lon="7.65535">
        <ele>2190.5236816406</ele>
        <time>2018-11-07T20:18:41.573Z</time>
      </trkpt>
      <trkpt lat="44.17075" lon="7.65557">
        <ele>2182.2448730469</ele>
        <time>2018-11-07T20:18:50.243Z</time>
      </trkpt>
      <trkpt lat="44.17084" lon="7.65579">
        <ele>2174.9382324219</ele>
        <time>2018-11-07T20:18:58.916Z</time>
      </trkpt>
      <trkpt lat="44.1709" lon="7.65584">
        <ele>2172.8505859375</ele>
        <time>2018-11-07T20:19:07.590Z</time>
      </trkpt>
      <trkpt lat="44.17097" lon="7.65587">
        <ele>2171.2307128906</ele>
        <time>2018-11-07T20:19:16.266Z</time>
      </trkpt>
      <trkpt lat="44.17114" lon="7.65591">
        <ele>2168.8806152344</ele>
        <time>2018-11-07T20:19:24.944Z</time>
      </trkpt>
      <trkpt lat="44.17125" lon="7.65595">
        <ele>2169.0485839844</ele>
        <time>2018-11-07T20:19:33.624Z</time>
      </trkpt>
      <trkpt lat="44.17129" lon="7.65599">
        <ele>2168.3764648438</ele>
        <time>2018-11-07T20:19:42.305Z</time>
      </trkpt>
      <trkpt lat="44.1713" lon="7.65606">
        <ele>2166.4809570312</ele>
        <time>2018-11-07T20:19:50.987Z</time>
      </trkpt>
      <trkpt lat="44.17128" lon="7.65613">
        <ele>2164.2253417969</ele>
        <time>2018-11-07T20:19:59.670Z</time>
      </trkpt>
      <trkpt lat="44.17123" lon="7.65617">
        <ele>2162.4736328125</ele>
        <time>2018-11-07T20:20:08.354Z</time>
      </trkpt>
      <trkpt lat="44.17119" lon="7.65619">
        <ele>2161.4177246094</ele>
        <time>2018-11-07T20:20:17.038Z</time>
      </trkpt>
      <trkpt lat="44.17112" lon="7.65617">
        <ele>2161.1538085938</ele>
        <time>2018-11-07T20:20:25.723Z</time>
      </trkpt>
      <trkpt lat="44.17097" lon="7.65609">
        <ele>2164.8957519531</ele>
        <time>2018-11-07T20:20:34.411Z</time>
      </trkpt>
      <trkpt lat="44.17079" lon="7.65607">
        <ele>2167.4155273438</ele>
        <time>2018-11-07T20:20:43.102Z</time>
      </trkpt>
      <trkpt lat="44.17073" lon="7.65608">
        <ele>2167.775390625</ele>
        <time>2018-11-07T20:20:51.794Z</time>
      </trkpt>
      <trkpt lat="44.17065" lon="7.65615">
        <ele>2166.6235351562</ele>
        <time>2018-11-07T20:21:00.487Z</time>
      </trkpt>
      <trkpt lat="44.17052" lon="7.65637">
        <ele>2163.9523925781</ele>
        <time>2018-11-07T20:21:09.184Z</time>
      </trkpt>
      <trkpt lat="44.17043" lon="7.65646">
        <ele>2163.8444824219</ele>
        <time>2018-11-07T20:21:17.882Z</time>
      </trkpt>
      <trkpt lat="44.17032" lon="7.65652">
        <ele>2164.732421875</ele>
        <time>2018-11-07T20:21:26.582Z</time>
      </trkpt>
      <trkpt lat="44.17019" lon="7.65659">
        <ele>2167.181640625</ele>
        <time>2018-11-07T20:21:35.284Z</time>
      </trkpt>
      <trkpt lat="44.17003" lon="7.65673">
        <ele>2172.6662597656</ele>
        <time>2018-11-07T20:21:43.989Z</time>
      </trkpt>
      <trkpt lat="44.16998" lon="7.65682">
        <ele>2173.326171875</ele>
        <time>2018-11-07T20:21:52.696Z</time>
      </trkpt>
      <trkpt lat="44.16993" lon="7.65743">
        <ele>2168.86328125</ele>
        <time>2018-11-07T20:22:01.410Z</time>
      </trkpt>
      <trkpt lat="44.16988" lon="7.65777">
        <ele>2168.9445800781</ele>
        <time>2018-11-07T20:22:10.128Z</time>
      </trkpt>
      <trkpt lat="44.16983" lon="7.65799">
        <ele>2168.1970214844</ele>
        <time>2018-11-07T20:22:18.849Z</time>
      </trkpt>
      <trkpt lat="44.16976" lon="7.65882">
        <ele>2150.1970214844</ele>
        <time>2018-11-07T20:22:27.579Z</time>
      </trkpt>
      <trkpt lat="44.16973" lon="7.65893">
        <ele>2146.93359375</ele>
        <time>2018-11-07T20:22:36.311Z</time>
      </trkpt>
      <trkpt lat="44.16963" lon="7.65917">
        <ele>2140.7666015625</ele>
        <time>2018-11-07T20:22:45.046Z</time>
      </trkpt>
      <trkpt lat="44.16954" lon="7.65927">
        <ele>2141.6281738281</ele>
        <time>2018-11-07T20:22:53.782Z</time>
      </trkpt>
      <trkpt lat="44.16929" lon="7.65954">
        <ele>2143.5563964844</ele>
        <time>2018-11-07T20:23:02.524Z</time>
      </trkpt>
      <trkpt lat="44.16915" lon="7.66001">
        <ele>2136.5661621094</ele>
        <time>2018-11-07T20:23:11.271Z</time>
      </trkpt>
      <trkpt lat="44.16904" lon="7.66048">
        <ele>2136.703125</ele>
        <time>2018-11-07T20:23:20.024Z</time>
      </trkpt>
      <trkpt lat="44.16908" lon="7.66069">
        <ele>2132.3356933594</ele>
        <time>2018-11-07T20:23:28.780Z</time>
      </trkpt>
      <trkpt lat="44.16916" lon="7.66083">
        <ele>2128.9763183594</ele>
        <time>2018-11-07T20:23:37.538Z</time>
      </trkpt>
      <trkpt lat="44.16924" lon="7.66104">
        <ele>2128.5849609375</ele>
        <time>2018-11-07T20:23:46.298Z</time>
      </trkpt>
      <trkpt lat="44.16931" lon="7.66114">
        <ele>2128.4770507812</ele>
        <time>2018-11-07T20:23:55.060Z</time>
      </trkpt>
      <trkpt lat="44.16949" lon="7.66127">
        <ele>2127.3198242188</ele>
        <time>2018-11-07T20:24:03.825Z</time>
      </trkpt>
      <trkpt lat="44.1697" lon="7.66141">
        <ele>2124.9682617188</ele>
        <time>2018-11-07T20:24:12.594Z</time>
      </trkpt>
      <trkpt lat="44.1698" lon="7.66152">
        <ele>2124.0563964844</ele>
        <time>2018-11-07T20:24:21.365Z</time>
      </trkpt>
      <trkpt lat="44.16986" lon="7.66164">
        <ele>2123.7683105469</ele>
        <time>2018-11-07T20:24:30.138Z</time>
      </trkpt>
      <trkpt lat="44.16986" lon="7.6617">
        <ele>2123.966796875</ele>
        <time>2018-11-07T20:24:38.911Z</time>
      </trkpt>
      <trkpt lat="44.16986" lon="7.66191">
        <ele>2121.951171875</ele>
        <time>2018-11-07T20:24:47.687Z</time>
      </trkpt>
      <trkpt lat="44.16989" lon="7.66211">
        <ele>2119.599609375</ele>
        <time>2018-11-07T20:24:56.465Z</time>
      </trkpt>
      <trkpt lat="44.16997" lon="7.66221">
        <ele>2117.4877929688</ele>
        <time>2018-11-07T20:25:05.245Z</time>
      </trkpt>
      <trkpt lat="44.17015" lon="7.66228">
        <ele>2114.2243652344</ele>
        <time>2018-11-07T20:25:14.028Z</time>
      </trkpt>
      <trkpt lat="44.17025" lon="7.66237">
        <ele>2111.9208984375</ele>
        <time>2018-11-07T20:25:22.813Z</time>
      </trkpt>
      <trkpt lat="44.17036" lon="7.66246">
        <ele>2110.9387207031</ele>
        <time>2018-11-07T20:25:31.600Z</time>
      </trkpt>
      <trkpt lat="44.17088" lon="7.66285">
        <ele>2110.228515625</ele>
        <time>2018-11-07T20:25:40.396Z</time>
      </trkpt>
      <trkpt lat="44.17098" lon="7.66298">
        <ele>2109.80859375</ele>
        <time>2018-11-07T20:25:49.195Z</time>
      </trkpt>
      <trkpt lat="44.171" lon="7.66315">
        <ele>2108.8608398438</ele>
        <time>2018-11-07T20:25:57.996Z</time>
      </trkpt>
      <trkpt lat="44.17096" lon="7.66326">
        <ele>2107.7490234375</ele>
        <time>2018-11-07T20:26:06.798Z</time>
      </trkpt>
      <trkpt lat="44.17095" lon="7.66327">
        <ele>2107.533203125</ele>
        <time>2018-11-07T20:26:15.600Z</time>
      </trkpt>
      <trkpt lat="44.17091" lon="7.66334">
        <ele>2106.3093261719</ele>
        <time>2018-11-07T20:26:24.403Z</time>
      </trkpt>
      <trkpt lat="44.1709" lon="7.66342">
        <ele>2106.67578125</ele>
        <time>2018-11-07T20:26:33.207Z</time>
      </trkpt>
      <trkpt lat="44.17097" lon="7.66358">
        <ele>2109.2673339844</ele>
        <time>2018-11-07T20:26:42.013Z</time>
      </trkpt>
      <trkpt lat="44.17095" lon="7.66369">
        <ele>2110.3952636719</ele>
        <time>2018-11-07T20:26:50.821Z</time>
      </trkpt>
      <trkpt lat="44.17091" lon="7.66378">
        <ele>2111.1630859375</ele>
        <time>2018-11-07T20:26:59.630Z</time>
      </trkpt>
      <trkpt lat="44.17081" lon="7.66405">
        <ele>2111.8557128906</ele>
        <time>2018-11-07T20:27:08.442Z</time>
      </trkpt>
      <trkpt lat="44.17076" lon="7.66419">
        <ele>2111.2316894531</ele>
        <time>2018-11-07T20:27:17.256Z</time>
      </trkpt>
      <trkpt lat="44.17068" lon="7.6643">
        <ele>2110.7216796875</ele>
        <time>2018-11-07T20:27:26.072Z</time>
      </trkpt>
      <trkpt lat="44.1705" lon="7.66455">
        <ele>2109.5046386719</ele>
        <time>2018-11-07T20:27:34.892Z</time>
      </trkpt>
      <trkpt lat="44.1704" lon="7.66472">
        <ele>2108.892578125</ele>
        <time>2018-11-07T20:27:43.714Z</time>
      </trkpt>
      <trkpt lat="44.1703" lon="7.66483">
        <ele>2107.7768554688</ele>
        <time>2018-11-07T20:27:52.539Z</time>
      </trkpt>
      <trkpt lat="44.17008" lon="7.66491">
        <ele>2109.1501464844</ele>
        <time>2018-11-07T20:28:01.367Z</time>
      </trkpt>
      <trkpt lat="44.17002" lon="7.66494">
        <ele>2109.5100097656</ele>
        <time>2018-11-07T20:28:10.196Z</time>
      </trkpt>
      <trkpt lat="44.16998" lon="7.665">
        <ele>2109.9418945312</ele>
        <time>2018-11-07T20:28:19.026Z</time>
      </trkpt>
      <trkpt lat="44.16994" lon="7.66516">
        <ele>2109.1071777344</ele>
        <time>2018-11-07T20:28:27.858Z</time>
      </trkpt>
      <trkpt lat="44.16997" lon="7.66536">
        <ele>2107.3195800781</ele>
        <time>2018-11-07T20:28:36.692Z</time>
      </trkpt>
      <trkpt lat="44.17012" lon="7.66571">
        <ele>2103.7509765625</ele>
        <time>2018-11-07T20:28:45.531Z</time>
      </trkpt>
      <trkpt lat="44.1702" lon="7.66593">
        <ele>2101.7531738281</ele>
        <time>2018-11-07T20:28:54.373Z</time>
      </trkpt>
      <trkpt lat="44.17019" lon="7.66612">
        <ele>2102.8090820312</ele>
        <time>2018-11-07T20:29:03.217Z</time>
      </trkpt>
      <trkpt lat="44.17011" lon="7.6663">
        <ele>2103.216796875</ele>
        <time>2018-11-07T20:29:12.064Z</time>
      </trkpt>
      <trkpt lat="44.17003" lon="7.66637">
        <ele>2102.96484375</ele>
        <time>2018-11-07T20:29:20.912Z</time>
      </trkpt>
      <trkpt lat="44.16973" lon="7.66657">
        <ele>2096.0498046875</ele>
        <time>2018-11-07T20:29:29.765Z</time>
      </trkpt>
      <trkpt lat="44.16936" lon="7.66701">
        <ele>2092.7661132812</ele>
        <time>2018-11-07T20:29:38.626Z</time>
      </trkpt>
      <trkpt lat="44.16923" lon="7.66718">
        <ele>2093.2819824219</ele>
        <time>2018-11-07T20:29:47.490Z</time>
      </trkpt>
      <trkpt lat="44.16905" lon="7.66724">
        <ele>2090.2797851562</ele>
        <time>2018-11-07T20:29:56.357Z</time>
      </trkpt>
      <trkpt lat="44.16891" lon="7.66735">
        <ele>2087.8083496094</ele>
        <time>2018-11-07T20:30:05.227Z</time>
      </trkpt>
      <trkpt lat="44.16871" lon="7.66752">
        <ele>2084.4008789062</ele>
        <time>2018-11-07T20:30:14.100Z</time>
      </trkpt>
      <trkpt lat="44.16859" lon="7.66751">
        <ele>2081.5625</ele>
        <time>2018-11-07T20:30:22.975Z</time>
      </trkpt>
      <trkpt lat="44.16853" lon="7.66745">
        <ele>2080.2722167969</ele>
        <time>2018-11-07T20:30:31.851Z</time>
      </trkpt>
      <trkpt lat="44.16851" lon="7.66743">
        <ele>2079.8349609375</ele>
        <time>2018-11-07T20:30:40.728Z</time>
      </trkpt>
      <trkpt lat="44.16844" lon="7.6674">
        <ele>2078.6591796875</ele>
        <time>2018-11-07T20:30:49.606Z</time>
      </trkpt>
      <trkpt lat="44.16836" lon="7.66742">
        <ele>2077.7712402344</ele>
        <time>2018-11-07T20:30:58.485Z</time>
      </trkpt>
      <trkpt lat="44.16827" lon="7.66746">
        <ele>2076.9194335938</ele>
        <time>2018-11-07T20:31:07.366Z</time>
      </trkpt>
      <trkpt lat="44.16816" lon="7.66765">
        <ele>2078.96484375</ele>
        <time>2018-11-07T20:31:16.250Z</time>
      </trkpt>
      <trkpt lat="44.16804" lon="7.66776">
        <ele>2080.0207519531</ele>
        <time>2018-11-07T20:31:25.136Z</time>
      </trkpt>
      <trkpt lat="44.16796" lon="7.66779">
        <ele>2079.5886230469</ele>
        <time>2018-11-07T20:31:34.023Z</time>
      </trkpt>
      <trkpt lat="44.1679" lon="7.6678">
        <ele>2078.9528808594</ele>
        <time>2018-11-07T20:31:42.911Z</time>
      </trkpt>
      <trkpt lat="44.16784" lon="7.66777">
        <ele>2077.4050292969</ele>
        <time>2018-11-07T20:31:51.800Z</time>
      </trkpt>
      <trkpt lat="44.16774" lon="7.66777">
        <ele>2076.3774414062</ele>
        <time>2018-11-07T20:32:00.691Z</time>
      </trkpt>
      <trkpt lat="44.16764" lon="7.66782">
        <ele>2077.1572265625</ele>
        <time>2018-11-07T20:32:09.584Z</time>
      </trkpt>
      <trkpt lat="44.16746" lon="7.66784">
        <ele>2076.9653320312</ele>
        <time>2018-11-07T20:32:18.479Z</time>
      </trkpt>
      <trkpt lat="44.16734" lon="7.66779">
        <ele>2075.3935546875</ele>
        <time>2018-11-07T20:32:27.376Z</time>
      </trkpt>
      <trkpt lat="44.16729" lon="7.66774">
        <ele>2074.0737304688</ele>
        <time>2018-11-07T20:32:36.274Z</time>
      </trkpt>
      <trkpt lat="44.16722" lon="7.66772">
        <ele>2073.3659667969</ele>
        <time>2018-11-07T20:32:45.174Z</time>
      </trkpt>
      <trkpt lat="44.16714" lon="7.66773">
        <ele>2073.2663574219</ele>
        <time>2018-11-07T20:32:54.075Z</time>
      </trkpt>
      <trkpt lat="44.16704" lon="7.66777">
        <ele>2072.9782714844</ele>
        <time>2018-11-07T20:33:02.978Z</time>
      </trkpt>
      <trkpt lat="44.1668" lon="7.66783">
        <ele>2071.6826171875</ele>
        <time>2018-11-07T20:33:11.884Z</time>
      </trkpt>
      <trkpt lat="44.16672" lon="7.6679">
        <ele>2072.0905761719</ele>
        <time>2018-11-07T20:33:20.792Z</time>
      </trkpt>
      <trkpt lat="44.16672" lon="7.66804">
        <ele>2074.4421386719</ele>
        <time>2018-11-07T20:33:29.702Z</time>
      </trkpt>
      <trkpt lat="44.16672" lon="7.66804">
        <ele>2074.4626464844</ele>
        <time>2018-11-07T20:33:38.612Z</time>
      </trkpt>
      <trkpt lat="44.16674" lon="7.66814">
        <ele>2076.3137207031</ele>
        <time>2018-11-07T20:33:47.523Z</time>
      </trkpt>
      <trkpt lat="44.16673" lon="7.66825">
        <ele>2077.9416503906</ele>
        <time>2018-11-07T20:33:56.435Z</time>
      </trkpt>
      <trkpt lat="44.16669" lon="7.66837">
        <ele>2079.4221191406</ele>
        <time>2018-11-07T20:34:05.349Z</time>
      </trkpt>
      <trkpt lat="44.1666" lon="7.66843">
        <ele>2079.6740722656</ele>
        <time>2018-11-07T20:34:14.264Z</time>
      </trkpt>
      <trkpt lat="44.16653" lon="7.66841">
        <ele>2078.5102539062</ele>
        <time>2018-11-07T20:34:23.180Z</time>
      </trkpt>
      <trkpt lat="44.16647" lon="7.66835">
        <ele>2076.6938476562</ele>
        <time>2018-11-07T20:34:32.097Z</time>
      </trkpt>
      <trkpt lat="44.16637" lon="7.66829">
        <ele>2074.6782226562</ele>
        <time>2018-11-07T20:34:41.016Z</time>
      </trkpt>
      <trkpt lat="44.16612" lon="7.66828">
        <ele>2071.8227539062</ele>
        <time>2018-11-07T20:34:49.939Z</time>
      </trkpt>
      <trkpt lat="44.16602" lon="7.6683">
        <ele>2071.4953613281</ele>
        <time>2018-11-07T20:34:58.864Z</time>
      </trkpt>
      <trkpt lat="44.16593" lon="7.66836">
        <ele>2071.4594726562</ele>
        <time>2018-11-07T20:35:07.790Z</time>
      </trkpt>
      <trkpt lat="44.16585" lon="7.66849">
        <ele>2072.9636230469</ele>
        <time>2018-11-07T20:35:16.718Z</time>
      </trkpt>
      <trkpt lat="44.16575" lon="7.66855">
        <ele>2073.1315917969</ele>
        <time>2018-11-07T20:35:25.648Z</time>
      </trkpt>
      <trkpt lat="44.16556" lon="7.66854">
        <ele>2071.3679199219</ele>
        <time>2018-11-07T20:35:34.581Z</time>
      </trkpt>
      <trkpt lat="44.16541" lon="7.66867">
        <ele>2071.8688964844</ele>
        <time>2018-11-07T20:35:43.517Z</time>
      </trkpt>
      <trkpt lat="44.16534" lon="7.66872">
        <ele>2071.8330078125</ele>
        <time>2018-11-07T20:35:52.454Z</time>
      </trkpt>
      <trkpt lat="44.16529" lon="7.66872">
        <ele>2071.29296875</ele>
        <time>2018-11-07T20:36:01.392Z</time>
      </trkpt>
      <trkpt lat="44.16523" lon="7.6687">
        <ele>2070.6435546875</ele>
        <time>2018-11-07T20:36:10.331Z</time>
      </trkpt>
      <trkpt lat="44.16514" lon="7.66863">
        <ele>2069.2038574219</ele>
        <time>2018-11-07T20:36:19.272Z</time>
      </trkpt>
      <trkpt lat="44.16506" lon="7.66857">
        <ele>2067.9560546875</ele>
        <time>2018-11-07T20:36:28.214Z</time>
      </trkpt>
      <trkpt lat="44.16497" lon="7.66856">
        <ele>2067.3801269531</ele>
        <time>2018-11-07T20:36:37.158Z</time>
      </trkpt>
      <trkpt lat="44.16487" lon="7.66859">
        <ele>2067.3322753906</ele>
        <time>2018-11-07T20:36:46.103Z</time>
      </trkpt>
      <trkpt lat="44.1648" lon="7.66868">
        <ele>2068.2919921875</ele>
        <time>2018-11-07T20:36:55.050Z</time>
      </trkpt>
      <trkpt lat="44.16479" lon="7.66877">
        <ele>2069.1635742188</ele>
        <time>2018-11-07T20:37:03.998Z</time>
      </trkpt>
      <trkpt lat="44.16483" lon="7.66885">
        <ele>2070.2673339844</ele>
        <time>2018-11-07T20:37:12.947Z</time>
      </trkpt>
      <trkpt lat="44.16488" lon="7.66896">
        <ele>2071.7312011719</ele>
        <time>2018-11-07T20:37:21.897Z</time>
      </trkpt>
      <trkpt lat="44.16486" lon="7.66907">
        <ele>2072.4389648438</ele>
        <time>2018-11-07T20:37:30.849Z</time>
      </trkpt>
      <trkpt lat="44.1648" lon="7.66912">
        <ele>2072.2111816406</ele>
        <time>2018-11-07T20:37:39.802Z</time>
      </trkpt>
      <trkpt lat="44.16464" lon="7.66911">
        <ele>2070.3994140625</ele>
        <time>2018-11-07T20:37:48.757Z</time>
      </trkpt>
      <trkpt lat="44.16454" lon="7.66916">
        <ele>2069.7395019531</ele>
        <time>2018-11-07T20:37:57.714Z</time>
      </trkpt>
      <trkpt lat="44.1644" lon="7.66934">
        <ele>2072.4401855469</ele>
        <time>2018-11-07T20:38:06.674Z</time>
      </trkpt>
      <trkpt lat="44.16426" lon="7.66949">
        <ele>2075.5476074219</ele>
        <time>2018-11-07T20:38:15.637Z</time>
      </trkpt>
      <trkpt lat="44.16415" lon="7.66952">
        <ele>2075.7756347656</ele>
        <time>2018-11-07T20:38:24.602Z</time>
      </trkpt>
      <trkpt lat="44.16406" lon="7.6695">
        <ele>2074.83984375</ele>
        <time>2018-11-07T20:38:33.568Z</time>
      </trkpt>
      <trkpt lat="44.16394" lon="7.66956">
        <ele>2075.8186035156</ele>
        <time>2018-11-07T20:38:42.536Z</time>
      </trkpt>
      <trkpt lat="44.16372" lon="7.6697">
        <ele>2078.7219238281</ele>
        <time>2018-11-07T20:38:51.508Z</time>
      </trkpt>
      <trkpt lat="44.16361" lon="7.66968">
        <ele>2077.8000488281</ele>
        <time>2018-11-07T20:39:00.482Z</time>
      </trkpt>
      <trkpt lat="44.16351" lon="7.66966">
        <ele>2077.1520996094</ele>
        <time>2018-11-07T20:39:09.458Z</time>
      </trkpt>
      <trkpt lat="44.1634" lon="7.66961">
        <ele>2075.7004394531</ele>
        <time>2018-11-07T20:39:18.435Z</time>
      </trkpt>
      <trkpt lat="44.16332" lon="7.66955">
        <ele>2074.0207519531</ele>
        <time>2018-11-07T20:39:27.414Z</time>
      </trkpt>
      <trkpt lat="44.16322" lon="7.66951">
        <ele>2072.8449707031</ele>
        <time>2018-11-07T20:39:36.395Z</time>
      </trkpt>
      <trkpt lat="44.16307" lon="7.66948">
        <ele>2071.873046875</ele>
        <time>2018-11-07T20:39:45.378Z</time>
      </trkpt>
      <trkpt lat="44.16297" lon="7.66949">
        <ele>2072.8762207031</ele>
        <time>2018-11-07T20:39:54.363Z</time>
      </trkpt>
      <trkpt lat="44.16283" lon="7.66962">
        <ele>2078.4072265625</ele>
        <time>2018-11-07T20:40:03.350Z</time>
      </trkpt>
      <trkpt lat="44.16263" lon="7.66974">
        <ele>2083.6687011719</ele>
        <time>2018-11-07T20:40:12.341Z</time>
      </trkpt>
      <trkpt lat="44.16246" lon="7.66974">
        <ele>2084.623046875</ele>
        <time>2018-11-07T20:40:21.334Z</time>
      </trkpt>
      <trkpt lat="44.16225" lon="7.66967">
        <ele>2083.8671875</ele>
        <time>2018-11-07T20:40:30.331Z</time>
      </trkpt>
      <trkpt lat="44.16202" lon="7.66957">
        <ele>2082.1154785156</ele>
        <time>2018-11-07T20:40:39.332Z</time>
      </trkpt>
      <trkpt lat="44.1619" lon="7.66955">
        <ele>2082.3701171875</ele>
        <time>2018-11-07T20:40:48.335Z</time>
      </trkpt>
      <trkpt lat="44.16178" lon="7.66952">
        <ele>2082.0461425781</ele>
        <time>2018-11-07T20:40:57.340Z</time>
      </trkpt>
      <trkpt lat="44.16163" lon="7.66953">
        <ele>2083.5219726562</ele>
        <time>2018-11-07T20:41:06.347Z</time>
      </trkpt>
      <trkpt lat="44.16149" lon="7.66954">
        <ele>2084.92578125</ele>
        <time>2018-11-07T20:41:15.356Z</time>
      </trkpt>
      <trkpt lat="44.16142" lon="7.66952">
        <ele>2084.3337402344</ele>
        <time>2018-11-07T20:41:24.367Z</time>
      </trkpt>
      <trkpt lat="44.16142" lon="7.66952">
        <ele>2084.3330078125</ele>
        <time>2018-11-07T20:41:33.378Z</time>
      </trkpt>
      <trkpt lat="44.16136" lon="7.6695">
        <ele>2083.4809570312</ele>
        <time>2018-11-07T20:41:42.389Z</time>
      </trkpt>
      <trkpt lat="44.1613" lon="7.6695">
        <ele>2083.0490722656</ele>
        <time>2018-11-07T20:41:51.401Z</time>
      </trkpt>
      <trkpt lat="44.16125" lon="7.66953">
        <ele>2083.4448242188</ele>
        <time>2018-11-07T20:42:00.414Z</time>
      </trkpt>
      <trkpt lat="44.1611" lon="7.66986">
        <ele>2090.779296875</ele>
        <time>2018-11-07T20:42:09.432Z</time>
      </trkpt>
      <trkpt lat="44.161" lon="7.66997">
        <ele>2093.6662597656</ele>
        <time>2018-11-07T20:42:18.452Z</time>
      </trkpt>
      <trkpt lat="44.16095" lon="7.66999">
        <ele>2094.1223144531</ele>
        <time>2018-11-07T20:42:27.473Z</time>
      </trkpt>
      <trkpt lat="44.16078" lon="7.66998">
        <ele>2093.8942871094</ele>
        <time>2018-11-07T20:42:36.496Z</time>
      </trkpt>
      <trkpt lat="44.16042" lon="7.66987">
        <ele>2091.38671875</ele>
        <time>2018-11-07T20:42:45.525Z</time>
      </trkpt>
      <trkpt lat="44.16028" lon="7.6698">
        <ele>2089.791015625</ele>
        <time>2018-11-07T20:42:54.557Z</time>
      </trkpt>
      <trkpt lat="44.16014" lon="7.66971">
        <ele>2085.6040039062</ele>
        <time>2018-11-07T20:43:03.591Z</time>
      </trkpt>
      <trkpt lat="44.16007" lon="7.66973">
        <ele>2084.9680175781</ele>
        <time>2018-11-07T20:43:12.626Z</time>
      </trkpt>
      <trkpt lat="44.15998" lon="7.6698">
        <ele>2084.9138183594</ele>
        <time>2018-11-07T20:43:21.663Z</time>
      </trkpt>
      <trkpt lat="44.15987" lon="7.66993">
        <ele>2085.2976074219</ele>
        <time>2018-11-07T20:43:30.702Z</time>
      </trkpt>
      <trkpt lat="44.15973" lon="7.6701">
        <ele>2085.7021484375</ele>
        <time>2018-11-07T20:43:39.744Z</time>
      </trkpt>
      <trkpt lat="44.15961" lon="7.67021">
        <ele>2085.3715820312</ele>
        <time>2018-11-07T20:43:48.789Z</time>
      </trkpt>
      <trkpt lat="44.15942" lon="7.67043">
        <ele>2088.8911132812</ele>
        <time>2018-11-07T20:43:57.837Z</time>
      </trkpt>
      <trkpt lat="44.15933" lon="7.67064">
        <ele>2093.318359375</ele>
        <time>2018-11-07T20:44:06.888Z</time>
      </trkpt>
      <trkpt lat="44.15929" lon="7.67083">
        <ele>2098.7416992188</ele>
        <time>2018-11-07T20:44:15.942Z</time>
      </trkpt>
      <trkpt lat="44.15923" lon="7.67099">
        <ele>2101.5871582031</ele>
        <time>2018-11-07T20:44:24.998Z</time>
      </trkpt>
      <trkpt lat="44.15914" lon="7.67112">
        <ele>2103.3508300781</ele>
        <time>2018-11-07T20:44:34.056Z</time>
      </trkpt>
      <trkpt lat="44.15903" lon="7.67114">
        <ele>2103.5068359375</ele>
        <time>2018-11-07T20:44:43.115Z</time>
      </trkpt>
      <trkpt lat="44.15887" lon="7.67115">
        <ele>2103.291015625</ele>
        <time>2018-11-07T20:44:52.177Z</time>
      </trkpt>
      <trkpt lat="44.15869" lon="7.67124">
        <ele>2102.7509765625</ele>
        <time>2018-11-07T20:45:01.242Z</time>
      </trkpt>
      <trkpt lat="44.15833" lon="7.67149">
        <ele>2106.0893554688</ele>
        <time>2018-11-07T20:45:10.314Z</time>
      </trkpt>
      <trkpt lat="44.15835" lon="7.67163">
        <ele>2106.2333984375</ele>
        <time>2018-11-07T20:45:19.387Z</time>
      </trkpt>
      <trkpt lat="44.15828" lon="7.67174">
        <ele>2105.861328125</ele>
        <time>2018-11-07T20:45:28.462Z</time>
      </trkpt>
      <trkpt lat="44.15811" lon="7.67191">
        <ele>2104.0256347656</ele>
        <time>2018-11-07T20:45:37.540Z</time>
      </trkpt>
      <trkpt lat="44.15806" lon="7.67194">
        <ele>2103.7255859375</ele>
        <time>2018-11-07T20:45:46.619Z</time>
      </trkpt>
      <trkpt lat="44.158" lon="7.67194">
        <ele>2103.6967773438</ele>
        <time>2018-11-07T20:45:55.699Z</time>
      </trkpt>
      <trkpt lat="44.15788" lon="7.67188">
        <ele>2104.2727050781</ele>
        <time>2018-11-07T20:46:04.781Z</time>
      </trkpt>
      <trkpt lat="44.15774" lon="7.67183">
        <ele>2104.8713378906</ele>
        <time>2018-11-07T20:46:13.865Z</time>
      </trkpt>
      <trkpt lat="44.15756" lon="7.67184">
        <ele>2105.3537597656</ele>
        <time>2018-11-07T20:46:22.952Z</time>
      </trkpt>
      <trkpt lat="44.15756" lon="7.67184">
        <ele>2105.3542480469</ele>
        <time>2018-11-07T20:46:32.039Z</time>
      </trkpt>
      <trkpt lat="44.15755" lon="7.67184">
        <ele>2105.3872070312</ele>
        <time>2018-11-07T20:46:41.126Z</time>
      </trkpt>
      <trkpt lat="44.15744" lon="7.67188">
        <ele>2105.1110839844</ele>
        <time>2018-11-07T20:46:50.215Z</time>
      </trkpt>
      <trkpt lat="44.15741" lon="7.672">
        <ele>2103.2036132812</ele>
        <time>2018-11-07T20:46:59.306Z</time>
      </trkpt>
      <trkpt lat="44.15746" lon="7.6722">
        <ele>2099.6640625</ele>
        <time>2018-11-07T20:47:08.399Z</time>
      </trkpt>
      <trkpt lat="44.15753" lon="7.67237">
        <ele>2095.7160644531</ele>
        <time>2018-11-07T20:47:17.494Z</time>
      </trkpt>
      <trkpt lat="44.15762" lon="7.67251">
        <ele>2092.560546875</ele>
        <time>2018-11-07T20:47:26.592Z</time>
      </trkpt>
      <trkpt lat="44.15772" lon="7.67261">
        <ele>2091.2990722656</ele>
        <time>2018-11-07T20:47:35.692Z</time>
      </trkpt>
      <trkpt lat="44.15781" lon="7.67266">
        <ele>2091.2807617188</ele>
        <time>2018-11-07T20:47:44.793Z</time>
      </trkpt>
      <trkpt lat="44.15798" lon="7.67269">
        <ele>2092.7661132812</ele>
        <time>2018-11-07T20:47:53.897Z</time>
      </trkpt>
      <trkpt lat="44.15803" lon="7.6727">
        <ele>2092.8862304688</ele>
        <time>2018-11-07T20:48:03.002Z</time>
      </trkpt>
      <trkpt lat="44.15807" lon="7.67275">
        <ele>2092.7302246094</ele>
        <time>2018-11-07T20:48:12.108Z</time>
      </trkpt>
      <trkpt lat="44.15808" lon="7.67281">
        <ele>2092.40625</ele>
        <time>2018-11-07T20:48:21.214Z</time>
      </trkpt>
      <trkpt lat="44.15803" lon="7.6727">
        <ele>2092.8862304688</ele>
        <time>2018-11-07T20:48:30.322Z</time>
      </trkpt>
      <trkpt lat="44.15791" lon="7.67269">
        <ele>2092.2165527344</ele>
        <time>2018-11-07T20:48:39.432Z</time>
      </trkpt>
      <trkpt lat="44.15772" lon="7.67261">
        <ele>2091.2990722656</ele>
        <time>2018-11-07T20:48:48.545Z</time>
      </trkpt>
      <trkpt lat="44.15764" lon="7.67251">
        <ele>2092.5959472656</ele>
        <time>2018-11-07T20:48:57.659Z</time>
      </trkpt>
      <trkpt lat="44.15753" lon="7.67237">
        <ele>2095.7160644531</ele>
        <time>2018-11-07T20:49:06.776Z</time>
      </trkpt>
      <trkpt lat="44.15742" lon="7.67206">
        <ele>2102.1596679688</ele>
        <time>2018-11-07T20:49:15.897Z</time>
      </trkpt>
      <trkpt lat="44.15741" lon="7.672">
        <ele>2103.2036132812</ele>
        <time>2018-11-07T20:49:25.019Z</time>
      </trkpt>
      <trkpt lat="44.15742" lon="7.67193">
        <ele>2104.3432617188</ele>
        <time>2018-11-07T20:49:34.141Z</time>
      </trkpt>
      <trkpt lat="44.15744" lon="7.67188">
        <ele>2105.1110839844</ele>
        <time>2018-11-07T20:49:43.264Z</time>
      </trkpt>
      <trkpt lat="44.15749" lon="7.67185">
        <ele>2105.4350585938</ele>
        <time>2018-11-07T20:49:52.388Z</time>
      </trkpt>
      <trkpt lat="44.15766" lon="7.67183">
        <ele>2105.1591796875</ele>
        <time>2018-11-07T20:50:01.515Z</time>
      </trkpt>
      <trkpt lat="44.15782" lon="7.67186">
        <ele>2104.392578125</ele>
        <time>2018-11-07T20:50:10.644Z</time>
      </trkpt>
      <trkpt lat="44.15794" lon="7.67193">
        <ele>2103.6486816406</ele>
        <time>2018-11-07T20:50:19.775Z</time>
      </trkpt>
      <trkpt lat="44.15806" lon="7.67194">
        <ele>2103.7255859375</ele>
        <time>2018-11-07T20:50:28.908Z</time>
      </trkpt>
      <trkpt lat="44.15817" lon="7.67184">
        <ele>2104.7934570312</ele>
        <time>2018-11-07T20:50:38.043Z</time>
      </trkpt>
      <trkpt lat="44.15833" lon="7.67168">
        <ele>2106.3173828125</ele>
        <time>2018-11-07T20:50:47.182Z</time>
      </trkpt>
      <trkpt lat="44.15835" lon="7.67163">
        <ele>2106.2333984375</ele>
        <time>2018-11-07T20:50:56.321Z</time>
      </trkpt>
      <trkpt lat="44.15835" lon="7.67155">
        <ele>2106.1374511719</ele>
        <time>2018-11-07T20:51:05.461Z</time>
      </trkpt>
      <trkpt lat="44.15833" lon="7.67149">
        <ele>2106.0893554688</ele>
        <time>2018-11-07T20:51:14.602Z</time>
      </trkpt>
      <trkpt lat="44.15821" lon="7.67154">
        <ele>2106.2934570312</ele>
        <time>2018-11-07T20:51:23.745Z</time>
      </trkpt>
      <trkpt lat="44.15807" lon="7.67153">
        <ele>2106.4494628906</ele>
        <time>2018-11-07T20:51:32.890Z</time>
      </trkpt>
      <trkpt lat="44.15797" lon="7.6715">
        <ele>2106.5334472656</ele>
        <time>2018-11-07T20:51:42.037Z</time>
      </trkpt>
      <trkpt lat="44.15784" lon="7.6714">
        <ele>2106.5693359375</ele>
        <time>2018-11-07T20:51:51.186Z</time>
      </trkpt>
      <trkpt lat="44.1577" lon="7.67126">
        <ele>2108.6801757812</ele>
        <time>2018-11-07T20:52:00.338Z</time>
      </trkpt>
      <trkpt lat="44.15743" lon="7.67126">
        <ele>2116.4548339844</ele>
        <time>2018-11-07T20:52:09.494Z</time>
      </trkpt>
      <trkpt lat="44.15727" lon="7.67119">
        <ele>2120.9516601562</ele>
        <time>2018-11-07T20:52:18.653Z</time>
      </trkpt>
      <trkpt lat="44.15713" lon="7.67117">
        <ele>2121.935546875</ele>
        <time>2018-11-07T20:52:27.814Z</time>
      </trkpt>
      <trkpt lat="44.15711" lon="7.67117">
        <ele>2122.0075683594</ele>
        <time>2018-11-07T20:52:36.976Z</time>
      </trkpt>
      <trkpt lat="44.15692" lon="7.67118">
        <ele>2122.810546875</ele>
        <time>2018-11-07T20:52:46.141Z</time>
      </trkpt>
      <trkpt lat="44.15658" lon="7.67126">
        <ele>2127.4672851562</ele>
        <time>2018-11-07T20:52:55.311Z</time>
      </trkpt>
      <trkpt lat="44.15658" lon="7.67126">
        <ele>2127.4716796875</ele>
        <time>2018-11-07T20:53:04.481Z</time>
      </trkpt>
      <trkpt lat="44.15657" lon="7.67126">
        <ele>2127.6098632812</ele>
        <time>2018-11-07T20:53:13.651Z</time>
      </trkpt>
      <trkpt lat="44.15637" lon="7.67145">
        <ele>2124.5317382812</ele>
        <time>2018-11-07T20:53:22.825Z</time>
      </trkpt>
      <trkpt lat="44.15636" lon="7.67146">
        <ele>2124.33984375</ele>
        <time>2018-11-07T20:53:31.999Z</time>
      </trkpt>
      <trkpt lat="44.1561" lon="7.6715">
        <ele>2126.2229003906</ele>
        <time>2018-11-07T20:53:41.177Z</time>
      </trkpt>
      <trkpt lat="44.15584" lon="7.67144">
        <ele>2131.5979003906</ele>
        <time>2018-11-07T20:53:50.360Z</time>
      </trkpt>
      <trkpt lat="44.15584" lon="7.67144">
        <ele>2131.6018066406</ele>
        <time>2018-11-07T20:53:59.543Z</time>
      </trkpt>
      <trkpt lat="44.15573" lon="7.67141">
        <ele>2133.4621582031</ele>
        <time>2018-11-07T20:54:08.728Z</time>
      </trkpt>
      <trkpt lat="44.15559" lon="7.67128">
        <ele>2139.3171386719</ele>
        <time>2018-11-07T20:54:17.915Z</time>
      </trkpt>
      <trkpt lat="44.15554" lon="7.67125">
        <ele>2140.8168945312</ele>
        <time>2018-11-07T20:54:27.103Z</time>
      </trkpt>
      <trkpt lat="44.15543" lon="7.67125">
        <ele>2141.7407226562</ele>
        <time>2018-11-07T20:54:36.293Z</time>
      </trkpt>
      <trkpt lat="44.15536" lon="7.67124">
        <ele>2142.6884765625</ele>
        <time>2018-11-07T20:54:45.484Z</time>
      </trkpt>
      <trkpt lat="44.1553" lon="7.67118">
        <ele>2145.3520507812</ele>
        <time>2018-11-07T20:54:54.676Z</time>
      </trkpt>
      <trkpt lat="44.15517" lon="7.67099">
        <ele>2155.1918945312</ele>
        <time>2018-11-07T20:55:03.871Z</time>
      </trkpt>
      <trkpt lat="44.15511" lon="7.67093">
        <ele>2158.9350585938</ele>
        <time>2018-11-07T20:55:13.067Z</time>
      </trkpt>
      <trkpt lat="44.15502" lon="7.6709">
        <ele>2162.390625</ele>
        <time>2018-11-07T20:55:22.265Z</time>
      </trkpt>
      <trkpt lat="44.15494" lon="7.67091">
        <ele>2164.1423339844</ele>
        <time>2018-11-07T20:55:31.464Z</time>
      </trkpt>
      <trkpt lat="44.15485" lon="7.67099">
        <ele>2163.6384277344</ele>
        <time>2018-11-07T20:55:40.665Z</time>
      </trkpt>
      <trkpt lat="44.15474" lon="7.67114">
        <ele>2161.1428222656</ele>
        <time>2018-11-07T20:55:49.868Z</time>
      </trkpt>
      <trkpt lat="44.15466" lon="7.67112">
        <ele>2163.7307128906</ele>
        <time>2018-11-07T20:55:59.073Z</time>
      </trkpt>
      <trkpt lat="44.15454" lon="7.67114">
        <ele>2165.3383789062</ele>
        <time>2018-11-07T20:56:08.280Z</time>
      </trkpt>
      <trkpt lat="44.15443" lon="7.67122">
        <ele>2164.3132324219</ele>
        <time>2018-11-07T20:56:17.489Z</time>
      </trkpt>
      <trkpt lat="44.15423" lon="7.67128">
        <ele>2167.3127441406</ele>
        <time>2018-11-07T20:56:26.701Z</time>
      </trkpt>
      <trkpt lat="44.1541" lon="7.67127">
        <ele>2171.3200683594</ele>
        <time>2018-11-07T20:56:35.915Z</time>
      </trkpt>
      <trkpt lat="44.15382" lon="7.67127">
        <ele>2181.4123535156</ele>
        <time>2018-11-07T20:56:45.133Z</time>
      </trkpt>
      <trkpt lat="44.15375" lon="7.67127">
        <ele>2184.1838378906</ele>
        <time>2018-11-07T20:56:54.352Z</time>
      </trkpt>
      <trkpt lat="44.15362" lon="7.67145">
        <ele>2183.9318847656</ele>
        <time>2018-11-07T20:57:03.574Z</time>
      </trkpt>
      <trkpt lat="44.15351" lon="7.67159">
        <ele>2180.5197753906</ele>
        <time>2018-11-07T20:57:12.799Z</time>
      </trkpt>
      <trkpt lat="44.15343" lon="7.67174">
        <ele>2182.0009765625</ele>
        <time>2018-11-07T20:57:22.026Z</time>
      </trkpt>
      <trkpt lat="44.15335" lon="7.6719">
        <ele>2178.4245605469</ele>
        <time>2018-11-07T20:57:31.255Z</time>
      </trkpt>
      <trkpt lat="44.15323" lon="7.67199">
        <ele>2179.2885742188</ele>
        <time>2018-11-07T20:57:40.486Z</time>
      </trkpt>
      <trkpt lat="44.15306" lon="7.67206">
        <ele>2184.5356445312</ele>
        <time>2018-11-07T20:57:49.720Z</time>
      </trkpt>
      <trkpt lat="44.15294" lon="7.67214">
        <ele>2189.6708984375</ele>
        <time>2018-11-07T20:57:58.956Z</time>
      </trkpt>
      <trkpt lat="44.15286" lon="7.67228">
        <ele>2191.0146484375</ele>
        <time>2018-11-07T20:58:08.194Z</time>
      </trkpt>
      <trkpt lat="44.15268" lon="7.67254">
        <ele>2190.8852539062</ele>
        <time>2018-11-07T20:58:17.437Z</time>
      </trkpt>
      <trkpt lat="44.15258" lon="7.67264">
        <ele>2187.8857421875</ele>
        <time>2018-11-07T20:58:26.682Z</time>
      </trkpt>
      <trkpt lat="44.15251" lon="7.6728">
        <ele>2181.7907714844</ele>
        <time>2018-11-07T20:58:35.929Z</time>
      </trkpt>
      <trkpt lat="44.15242" lon="7.67287">
        <ele>2179.9792480469</ele>
        <time>2018-11-07T20:58:45.177Z</time>
      </trkpt>
      <trkpt lat="44.15223" lon="7.67291">
        <ele>2183.5126953125</ele>
        <time>2018-11-07T20:58:54.428Z</time>
      </trkpt>
      <trkpt lat="44.15211" lon="7.67301">
        <ele>2186.8723144531</ele>
        <time>2018-11-07T20:59:03.682Z</time>
      </trkpt>
      <trkpt lat="44.15199" lon="7.67302">
        <ele>2191.7434082031</ele>
        <time>2018-11-07T20:59:12.938Z</time>
      </trkpt>
      <trkpt lat="44.15186" lon="7.67304">
        <ele>2190.654296875</ele>
        <time>2018-11-07T20:59:22.196Z</time>
      </trkpt>
      <trkpt lat="44.15176" lon="7.67312">
        <ele>2185.951171875</ele>
        <time>2018-11-07T20:59:31.456Z</time>
      </trkpt>
      <trkpt lat="44.15164" lon="7.67327">
        <ele>2189.9719238281</ele>
        <time>2018-11-07T20:59:40.718Z</time>
      </trkpt>
      <trkpt lat="44.15155" lon="7.67352">
        <ele>2191.1838378906</ele>
        <time>2018-11-07T20:59:49.983Z</time>
      </trkpt>
      <trkpt lat="44.15135" lon="7.67405">
        <ele>2199.162109375</ele>
        <time>2018-11-07T20:59:59.255Z</time>
      </trkpt>
      <trkpt lat="44.15122" lon="7.67466">
        <ele>2203.8491210938</ele>
        <time>2018-11-07T21:00:08.535Z</time>
      </trkpt>
      <trkpt lat="44.15121" lon="7.67493">
        <ele>2202.5173339844</ele>
        <time>2018-11-07T21:00:17.818Z</time>
      </trkpt>
      <trkpt lat="44.15116" lon="7.67516">
        <ele>2203.4113769531</ele>
        <time>2018-11-07T21:00:27.103Z</time>
      </trkpt>
      <trkpt lat="44.15094" lon="7.67596">
        <ele>2205.5249023438</ele>
        <time>2018-11-07T21:00:36.398Z</time>
      </trkpt>
      <trkpt lat="44.15077" lon="7.67639">
        <ele>2207.7861328125</ele>
        <time>2018-11-07T21:00:45.699Z</time>
      </trkpt>
      <trkpt lat="44.15052" lon="7.67662">
        <ele>2223.3955078125</ele>
        <time>2018-11-07T21:00:55.005Z</time>
      </trkpt>
      <trkpt lat="44.15034" lon="7.67686">
        <ele>2233.27734375</ele>
        <time>2018-11-07T21:01:04.315Z</time>
      </trkpt>
      <trkpt lat="44.15028" lon="7.67695">
        <ele>2236.3728027344</ele>
        <time>2018-11-07T21:01:13.626Z</time>
      </trkpt>
      <trkpt lat="44.15018" lon="7.67735">
        <ele>2237.2185058594</ele>
        <time>2018-11-07T21:01:22.942Z</time>
      </trkpt>
      <trkpt lat="44.15013" lon="7.67777">
        <ele>2232.9040527344</ele>
        <time>2018-11-07T21:01:32.263Z</time>
      </trkpt>
      <trkpt lat="44.15003" lon="7.67802">
        <ele>2235.2436523438</ele>
        <time>2018-11-07T21:01:41.587Z</time>
      </trkpt>
      <trkpt lat="44.15003" lon="7.67824">
        <ele>2231.9274902344</ele>
        <time>2018-11-07T21:01:50.914Z</time>
      </trkpt>
      <trkpt lat="44.14999" lon="7.67845">
        <ele>2233.3317871094</ele>
        <time>2018-11-07T21:02:00.243Z</time>
      </trkpt>
      <trkpt lat="44.1499" lon="7.67909">
        <ele>2233.0612792969</ele>
        <time>2018-11-07T21:02:09.580Z</time>
      </trkpt>
      <trkpt lat="44.14984" lon="7.6793">
        <ele>2233.5969238281</ele>
        <time>2018-11-07T21:02:18.919Z</time>
      </trkpt>
      <trkpt lat="44.14967" lon="7.67952">
        <ele>2243.2802734375</ele>
        <time>2018-11-07T21:02:28.262Z</time>
      </trkpt>
      <trkpt lat="44.14967" lon="7.67966">
        <ele>2242.6083984375</ele>
        <time>2018-11-07T21:02:37.607Z</time>
      </trkpt>
      <trkpt lat="44.14973" lon="7.67983">
        <ele>2236.7534179688</ele>
        <time>2018-11-07T21:02:46.954Z</time>
      </trkpt>
      <trkpt lat="44.14969" lon="7.68034">
        <ele>2235.7326660156</ele>
        <time>2018-11-07T21:02:56.307Z</time>
      </trkpt>
      <trkpt lat="44.1494" lon="7.68174">
        <ele>2249.0412597656</ele>
        <time>2018-11-07T21:03:05.677Z</time>
      </trkpt>
      <trkpt lat="44.14931" lon="7.68245">
        <ele>2244.9858398438</ele>
        <time>2018-11-07T21:03:15.055Z</time>
      </trkpt>
      <trkpt lat="44.1491" lon="7.68294">
        <ele>2240.6264648438</ele>
        <time>2018-11-07T21:03:24.439Z</time>
      </trkpt>
      <trkpt lat="44.14904" lon="7.6831">
        <ele>2237.5556640625</ele>
        <time>2018-11-07T21:03:33.826Z</time>
      </trkpt>
      <trkpt lat="44.14898" lon="7.68317">
        <ele>2236.8356933594</ele>
        <time>2018-11-07T21:03:43.214Z</time>
      </trkpt>
      <trkpt lat="44.14848" lon="7.68323">
        <ele>2250.9050292969</ele>
        <time>2018-11-07T21:03:52.610Z</time>
      </trkpt>
      <trkpt lat="44.14823" lon="7.68339">
        <ele>2255.2934570312</ele>
        <time>2018-11-07T21:04:02.010Z</time>
      </trkpt>
      <trkpt lat="44.14802" lon="7.68373">
        <ele>2255.7927246094</ele>
        <time>2018-11-07T21:04:11.415Z</time>
      </trkpt>
      <trkpt lat="44.14787" lon="7.68406">
        <ele>2257.6284179688</ele>
        <time>2018-11-07T21:04:20.825Z</time>
      </trkpt>
      <trkpt lat="44.14776" lon="7.68464">
        <ele>2251.2419433594</ele>
        <time>2018-11-07T21:04:30.242Z</time>
      </trkpt>
      <trkpt lat="44.1476" lon="7.68529">
        <ele>2242.4252929688</ele>
        <time>2018-11-07T21:04:39.667Z</time>
      </trkpt>
      <trkpt lat="44.14746" lon="7.6857">
        <ele>2238.2009277344</ele>
        <time>2018-11-07T21:04:49.097Z</time>
      </trkpt>
      <trkpt lat="44.14724" lon="7.6863">
        <ele>2231.533203125</ele>
        <time>2018-11-07T21:04:58.535Z</time>
      </trkpt>
      <trkpt lat="44.14719" lon="7.68662">
        <ele>2229.0737304688</ele>
        <time>2018-11-07T21:05:07.976Z</time>
      </trkpt>
      <trkpt lat="44.14724" lon="7.68701">
        <ele>2228.2080078125</ele>
        <time>2018-11-07T21:05:17.422Z</time>
      </trkpt>
      <trkpt lat="44.14735" lon="7.68732">
        <ele>2225.9404296875</ele>
        <time>2018-11-07T21:05:26.872Z</time>
      </trkpt>
      <trkpt lat="44.14753" lon="7.68761">
        <ele>2222.8176269531</ele>
        <time>2018-11-07T21:05:36.326Z</time>
      </trkpt>
      <trkpt lat="44.14769" lon="7.68794">
        <ele>2222.9375</ele>
        <time>2018-11-07T21:05:45.785Z</time>
      </trkpt>
      <trkpt lat="44.14776" lon="7.6882">
        <ele>2224.3774414062</ele>
        <time>2018-11-07T21:05:55.247Z</time>
      </trkpt>
      <trkpt lat="44.14773" lon="7.68918">
        <ele>2225.6577148438</ele>
        <time>2018-11-07T21:06:04.720Z</time>
      </trkpt>
      <trkpt lat="44.14763" lon="7.69028">
        <ele>2218.5935058594</ele>
        <time>2018-11-07T21:06:14.206Z</time>
      </trkpt>
      <trkpt lat="44.14762" lon="7.69069">
        <ele>2213.2424316406</ele>
        <time>2018-11-07T21:06:23.697Z</time>
      </trkpt>
      <trkpt lat="44.14755" lon="7.69138">
        <ele>2209.8796386719</ele>
        <time>2018-11-07T21:06:33.196Z</time>
      </trkpt>
      <trkpt lat="44.14739" lon="7.69288">
        <ele>2198.3586425781</ele>
        <time>2018-11-07T21:06:42.712Z</time>
      </trkpt>
      <trkpt lat="44.14739" lon="7.693">
        <ele>2195.9240722656</ele>
        <time>2018-11-07T21:06:52.230Z</time>
      </trkpt>
      <trkpt lat="44.14739" lon="7.69299">
        <ele>2196.248046875</ele>
        <time>2018-11-07T21:07:01.748Z</time>
      </trkpt>
      <trkpt lat="44.14738" lon="7.6933">
        <ele>2186.181640625</ele>
        <time>2018-11-07T21:07:11.270Z</time>
      </trkpt>
      <trkpt lat="44.1474" lon="7.69369">
        <ele>2181.3842773438</ele>
        <time>2018-11-07T21:07:20.796Z</time>
      </trkpt>
      <trkpt lat="44.14741" lon="7.69388">
        <ele>2179.5864257812</ele>
        <time>2018-11-07T21:07:30.324Z</time>
      </trkpt>
      <trkpt lat="44.14743" lon="7.69445">
        <ele>2176.7214355469</ele>
        <time>2018-11-07T21:07:39.859Z</time>
      </trkpt>
      <trkpt lat="44.14752" lon="7.69528">
        <ele>2169.9323730469</ele>
        <time>2018-11-07T21:07:49.404Z</time>
      </trkpt>
      <trkpt lat="44.14757" lon="7.69574">
        <ele>2161.5065917969</ele>
        <time>2018-11-07T21:07:58.954Z</time>
      </trkpt>
      <trkpt lat="44.14751" lon="7.69597">
        <ele>2156.2746582031</ele>
        <time>2018-11-07T21:08:08.507Z</time>
      </trkpt>
      <trkpt lat="44.14746" lon="7.69598">
        <ele>2154.9428710938</ele>
        <time>2018-11-07T21:08:18.060Z</time>
      </trkpt>
      <trkpt lat="44.1474" lon="7.69595">
        <ele>2153.8989257812</ele>
        <time>2018-11-07T21:08:27.615Z</time>
      </trkpt>
      <trkpt lat="44.14727" lon="7.69578">
        <ele>2153.5397949219</ele>
        <time>2018-11-07T21:08:37.172Z</time>
      </trkpt>
      <trkpt lat="44.14721" lon="7.69528">
        <ele>2161.7497558594</ele>
        <time>2018-11-07T21:08:46.735Z</time>
      </trkpt>
      <trkpt lat="44.1471" lon="7.69499">
        <ele>2164.8020019531</ele>
        <time>2018-11-07T21:08:56.302Z</time>
      </trkpt>
      <trkpt lat="44.14678" lon="7.69422">
        <ele>2162.408203125</ele>
        <time>2018-11-07T21:09:05.879Z</time>
      </trkpt>
      <trkpt lat="44.14641" lon="7.69306">
        <ele>2167.8483886719</ele>
        <time>2018-11-07T21:09:15.471Z</time>
      </trkpt>
      <trkpt lat="44.1463" lon="7.69287">
        <ele>2168.2084960938</ele>
        <time>2018-11-07T21:09:25.066Z</time>
      </trkpt>
      <trkpt lat="44.14612" lon="7.69265">
        <ele>2166.2888183594</ele>
        <time>2018-11-07T21:09:34.664Z</time>
      </trkpt>
      <trkpt lat="44.14596" lon="7.69239">
        <ele>2159.2346191406</ele>
        <time>2018-11-07T21:09:44.266Z</time>
      </trkpt>
      <trkpt lat="44.14585" lon="7.69214">
        <ele>2153.43359375</ele>
        <time>2018-11-07T21:09:53.872Z</time>
      </trkpt>
      <trkpt lat="44.14575" lon="7.69178">
        <ele>2149.6423339844</ele>
        <time>2018-11-07T21:10:03.482Z</time>
      </trkpt>
      <trkpt lat="44.14554" lon="7.69067">
        <ele>2143.9321289062</ele>
        <time>2018-11-07T21:10:13.105Z</time>
      </trkpt>
      <trkpt lat="44.14538" lon="7.68973">
        <ele>2138.330078125</ele>
        <time>2018-11-07T21:10:22.740Z</time>
      </trkpt>
      <trkpt lat="44.14534" lon="7.6892">
        <ele>2136.6333007812</ele>
        <time>2018-11-07T21:10:32.381Z</time>
      </trkpt>
      <trkpt lat="44.14532" lon="7.68882">
        <ele>2139.3129882812</ele>
        <time>2018-11-07T21:10:42.026Z</time>
      </trkpt>
      <trkpt lat="44.14528" lon="7.68862">
        <ele>2138.6411132812</ele>
        <time>2018-11-07T21:10:51.674Z</time>
      </trkpt>
      <trkpt lat="44.14521" lon="7.68834">
        <ele>2136.2878417969</ele>
        <time>2018-11-07T21:11:01.325Z</time>
      </trkpt>
      <trkpt lat="44.14511" lon="7.68818">
        <ele>2130.7419433594</ele>
        <time>2018-11-07T21:11:10.978Z</time>
      </trkpt>
      <trkpt lat="44.14494" lon="7.68785">
        <ele>2121.4675292969</ele>
        <time>2018-11-07T21:11:20.636Z</time>
      </trkpt>
      <trkpt lat="44.14493" lon="7.68765">
        <ele>2122.6552734375</ele>
        <time>2018-11-07T21:11:30.296Z</time>
      </trkpt>
      <trkpt lat="44.14484" lon="7.68733">
        <ele>2116.4816894531</ele>
        <time>2018-11-07T21:11:39.960Z</time>
      </trkpt>
      <trkpt lat="44.14484" lon="7.68734">
        <ele>2116.517578125</ele>
        <time>2018-11-07T21:11:49.624Z</time>
      </trkpt>
      <trkpt lat="44.1448" lon="7.68704">
        <ele>2112.5307617188</ele>
        <time>2018-11-07T21:11:59.292Z</time>
      </trkpt>
      <trkpt lat="44.1449" lon="7.68671">
        <ele>2118.970703125</ele>
        <time>2018-11-07T21:12:08.964Z</time>
      </trkpt>
      <trkpt lat="44.1449" lon="7.6867">
        <ele>2119.1535644531</ele>
        <time>2018-11-07T21:12:18.636Z</time>
      </trkpt>
      <trkpt lat="44.14497" lon="7.68655">
        <ele>2123.11328125</ele>
        <time>2018-11-07T21:12:28.310Z</time>
      </trkpt>
      <trkpt lat="44.14495" lon="7.6864">
        <ele>2120.3657226562</ele>
        <time>2018-11-07T21:12:37.986Z</time>
      </trkpt>
      <trkpt lat="44.14492" lon="7.68616">
        <ele>2115.8981933594</ele>
        <time>2018-11-07T21:12:47.665Z</time>
      </trkpt>
      <trkpt lat="44.14495" lon="7.68597">
        <ele>2116.2700195312</ele>
        <time>2018-11-07T21:12:57.346Z</time>
      </trkpt>
      <trkpt lat="44.14505" lon="7.68563">
        <ele>2123.2231445312</ele>
        <time>2018-11-07T21:13:07.031Z</time>
      </trkpt>
      <trkpt lat="44.14501" lon="7.68534">
        <ele>2123.0913085938</ele>
        <time>2018-11-07T21:13:16.720Z</time>
      </trkpt>
      <trkpt lat="44.14486" lon="7.68508">
        <ele>2113.6608886719</ele>
        <time>2018-11-07T21:13:26.413Z</time>
      </trkpt>
      <trkpt lat="44.14477" lon="7.68492">
        <ele>2107.6462402344</ele>
        <time>2018-11-07T21:13:36.108Z</time>
      </trkpt>
      <trkpt lat="44.14476" lon="7.68473">
        <ele>2108.1979980469</ele>
        <time>2018-11-07T21:13:45.805Z</time>
      </trkpt>
      <trkpt lat="44.14476" lon="7.68435">
        <ele>2111.9331054688</ele>
        <time>2018-11-07T21:13:55.506Z</time>
      </trkpt>
      <trkpt lat="44.1447" lon="7.68366">
        <ele>2114.4946289062</ele>
        <time>2018-11-07T21:14:05.215Z</time>
      </trkpt>
      <trkpt lat="44.14456" lon="7.68321">
        <ele>2108.7302246094</ele>
        <time>2018-11-07T21:14:14.930Z</time>
      </trkpt>
      <trkpt lat="44.14445" lon="7.68302">
        <ele>2101.6274414062</ele>
        <time>2018-11-07T21:14:24.648Z</time>
      </trkpt>
      <trkpt lat="44.14444" lon="7.68282">
        <ele>2104.064453125</ele>
        <time>2018-11-07T21:14:34.368Z</time>
      </trkpt>
      <trkpt lat="44.14434" lon="7.68239">
        <ele>2101.9975585938</ele>
        <time>2018-11-07T21:14:44.093Z</time>
      </trkpt>
      <trkpt lat="44.14424" lon="7.68208">
        <ele>2095.6745605469</ele>
        <time>2018-11-07T21:14:53.822Z</time>
      </trkpt>
      <trkpt lat="44.14419" lon="7.68185">
        <ele>2092.783203125</ele>
        <time>2018-11-07T21:15:03.554Z</time>
      </trkpt>
      <trkpt lat="44.14422" lon="7.68156">
        <ele>2095.4006347656</ele>
        <time>2018-11-07T21:15:13.289Z</time>
      </trkpt>
      <trkpt lat="44.1443" lon="7.68119">
        <ele>2097.8322753906</ele>
        <time>2018-11-07T21:15:23.029Z</time>
      </trkpt>
      <trkpt lat="44.1443" lon="7.68063">
        <ele>2095.5407714844</ele>
        <time>2018-11-07T21:15:32.775Z</time>
      </trkpt>
      <trkpt lat="44.14428" lon="7.68045">
        <ele>2094.8688964844</ele>
        <time>2018-11-07T21:15:42.523Z</time>
      </trkpt>
      <trkpt lat="44.1442" lon="7.68021">
        <ele>2090.4536132812</ele>
        <time>2018-11-07T21:15:52.275Z</time>
      </trkpt>
      <trkpt lat="44.14418" lon="7.6798">
        <ele>2091.7141113281</ele>
        <time>2018-11-07T21:16:02.031Z</time>
      </trkpt>
      <trkpt lat="44.14412" lon="7.67954">
        <ele>2090.9536132812</ele>
        <time>2018-11-07T21:16:11.790Z</time>
      </trkpt>
      <trkpt lat="44.14394" lon="7.67871">
        <ele>2089.3618164062</ele>
        <time>2018-11-07T21:16:21.559Z</time>
      </trkpt>
      <trkpt lat="44.14393" lon="7.67853">
        <ele>2090.6437988281</ele>
        <time>2018-11-07T21:16:31.330Z</time>
      </trkpt>
      <trkpt lat="44.14385" lon="7.6783">
        <ele>2088.7741699219</ele>
        <time>2018-11-07T21:16:41.104Z</time>
      </trkpt>
      <trkpt lat="44.14378" lon="7.67809">
        <ele>2090.2019042969</ele>
        <time>2018-11-07T21:16:50.881Z</time>
      </trkpt>
      <trkpt lat="44.14364" lon="7.67783">
        <ele>2088.2583007812</ele>
        <time>2018-11-07T21:17:00.662Z</time>
      </trkpt>
      <trkpt lat="44.14346" lon="7.67761">
        <ele>2087.4621582031</ele>
        <time>2018-11-07T21:17:10.447Z</time>
      </trkpt>
      <trkpt lat="44.14329" lon="7.6775">
        <ele>2084.7036132812</ele>
        <time>2018-11-07T21:17:20.235Z</time>
      </trkpt>
      <trkpt lat="44.14315" lon="7.67732">
        <ele>2084.3676757812</ele>
        <time>2018-11-07T21:17:30.026Z</time>
      </trkpt>
      <trkpt lat="44.14296" lon="7.67715">
        <ele>2082.0402832031</ele>
        <time>2018-11-07T21:17:39.820Z</time>
      </trkpt>
      <trkpt lat="44.14261" lon="7.67701">
        <ele>2079.6857910156</ele>
        <time>2018-11-07T21:17:49.620Z</time>
      </trkpt>
      <trkpt lat="44.14235" lon="7.67693">
        <ele>2082.6374511719</ele>
        <time>2018-11-07T21:17:59.424Z</time>
      </trkpt>
      <trkpt lat="44.14182" lon="7.67684">
        <ele>2085.8669433594</ele>
        <time>2018-11-07T21:18:09.237Z</time>
      </trkpt>
      <trkpt lat="44.14103" lon="7.67698">
        <ele>2084.1237792969</ele>
        <time>2018-11-07T21:18:19.063Z</time>
      </trkpt>
      <trkpt lat="44.14076" lon="7.67702">
        <ele>2076.8530273438</ele>
        <time>2018-11-07T21:18:28.893Z</time>
      </trkpt>
      <trkpt lat="44.14077" lon="7.67702">
        <ele>2077.0690917969</ele>
        <time>2018-11-07T21:18:38.723Z</time>
      </trkpt>
      <trkpt lat="44.14052" lon="7.67706">
        <ele>2070.65234375</ele>
        <time>2018-11-07T21:18:48.557Z</time>
      </trkpt>
      <trkpt lat="44.14033" lon="7.67704">
        <ele>2067.880859375</ele>
        <time>2018-11-07T21:18:58.394Z</time>
      </trkpt>
      <trkpt lat="44.14032" lon="7.67704">
        <ele>2067.8884277344</ele>
        <time>2018-11-07T21:19:08.231Z</time>
      </trkpt>
      <trkpt lat="44.14013" lon="7.67692">
        <ele>2067.6520996094</ele>
        <time>2018-11-07T21:19:18.072Z</time>
      </trkpt>
      <trkpt lat="44.13981" lon="7.67678">
        <ele>2065.2763671875</ele>
        <time>2018-11-07T21:19:27.918Z</time>
      </trkpt>
      <trkpt lat="44.13953" lon="7.67661">
        <ele>2065.5646972656</ele>
        <time>2018-11-07T21:19:37.769Z</time>
      </trkpt>
      <trkpt lat="44.13939" lon="7.67641">
        <ele>2072.2021484375</ele>
        <time>2018-11-07T21:19:47.623Z</time>
      </trkpt>
      <trkpt lat="44.13925" lon="7.6764">
        <ele>2073.1259765625</ele>
        <time>2018-11-07T21:19:57.479Z</time>
      </trkpt>
      <trkpt lat="44.13911" lon="7.67639">
        <ele>2074.1069335938</ele>
        <time>2018-11-07T21:20:07.338Z</time>
      </trkpt>
      <trkpt lat="44.13883" lon="7.67655">
        <ele>2069.4516601562</ele>
        <time>2018-11-07T21:20:17.202Z</time>
      </trkpt>
      <trkpt lat="44.13814" lon="7.67692">
        <ele>2045.4816894531</ele>
        <time>2018-11-07T21:20:27.077Z</time>
      </trkpt>
      <trkpt lat="44.13772" lon="7.67724">
        <ele>2032.0894775391</ele>
        <time>2018-11-07T21:20:36.960Z</time>
      </trkpt>
      <trkpt lat="44.13764" lon="7.67724">
        <ele>2027.3862304688</ele>
        <time>2018-11-07T21:20:46.844Z</time>
      </trkpt>
      <trkpt lat="44.13756" lon="7.67716">
        <ele>2024.1228027344</ele>
        <time>2018-11-07T21:20:56.730Z</time>
      </trkpt>
      <trkpt lat="44.13747" lon="7.67697">
        <ele>2022.2510986328</ele>
        <time>2018-11-07T21:21:06.619Z</time>
      </trkpt>
      <trkpt lat="44.13742" lon="7.67679">
        <ele>2022.5510253906</ele>
        <time>2018-11-07T21:21:16.510Z</time>
      </trkpt>
      <trkpt lat="44.13734" lon="7.67652">
        <ele>2024.1875</ele>
        <time>2018-11-07T21:21:26.404Z</time>
      </trkpt>
      <trkpt lat="44.13725" lon="7.6764">
        <ele>2022.0638427734</ele>
        <time>2018-11-07T21:21:36.300Z</time>
      </trkpt>
      <trkpt lat="44.13712" lon="7.67627">
        <ele>2017.8525390625</ele>
        <time>2018-11-07T21:21:46.199Z</time>
      </trkpt>
      <trkpt lat="44.137" lon="7.676">
        <ele>2017.9245605469</ele>
        <time>2018-11-07T21:21:56.101Z</time>
      </trkpt>
      <trkpt lat="44.13683" lon="7.67579">
        <ele>2013.7841796875</ele>
        <time>2018-11-07T21:22:06.007Z</time>
      </trkpt>
      <trkpt lat="44.1367" lon="7.67556">
        <ele>2011.3110351562</ele>
        <time>2018-11-07T21:22:15.916Z</time>
      </trkpt>
      <trkpt lat="44.13666" lon="7.67509">
        <ele>2019.2537841797</ele>
        <time>2018-11-07T21:22:25.831Z</time>
      </trkpt>
      <trkpt lat="44.13641" lon="7.67485">
        <ele>2013.4364013672</ele>
        <time>2018-11-07T21:22:35.751Z</time>
      </trkpt>
      <trkpt lat="44.13621" lon="7.67442">
        <ele>2018.3916015625</ele>
        <time>2018-11-07T21:22:45.677Z</time>
      </trkpt>
      <trkpt lat="44.13594" lon="7.67428">
        <ele>2012.8850097656</ele>
        <time>2018-11-07T21:22:55.607Z</time>
      </trkpt>
      <trkpt lat="44.13563" lon="7.6741">
        <ele>2008.7862548828</ele>
        <time>2018-11-07T21:23:05.543Z</time>
      </trkpt>
      <trkpt lat="44.13564" lon="7.6741">
        <ele>2009.0861816406</ele>
        <time>2018-11-07T21:23:15.479Z</time>
      </trkpt>
      <trkpt lat="44.13543" lon="7.67401">
        <ele>2004.7309570312</ele>
        <time>2018-11-07T21:23:25.418Z</time>
      </trkpt>
      <trkpt lat="44.13523" lon="7.67387">
        <ele>2002.8129882812</ele>
        <time>2018-11-07T21:23:35.361Z</time>
      </trkpt>
      <trkpt lat="44.13523" lon="7.67387">
        <ele>2002.8133544922</ele>
        <time>2018-11-07T21:23:45.304Z</time>
      </trkpt>
      <trkpt lat="44.13521" lon="7.67385">
        <ele>2003.0177001953</ele>
        <time>2018-11-07T21:23:55.247Z</time>
      </trkpt>
      <trkpt lat="44.13501" lon="7.67367">
        <ele>2005.4653320312</ele>
        <time>2018-11-07T21:24:05.194Z</time>
      </trkpt>
      <trkpt lat="44.13491" lon="7.67353">
        <ele>2007.7689208984</ele>
        <time>2018-11-07T21:24:15.143Z</time>
      </trkpt>
      <trkpt lat="44.13475" lon="7.67332">
        <ele>2011.0506591797</ele>
        <time>2018-11-07T21:24:25.096Z</time>
      </trkpt>
      <trkpt lat="44.13467" lon="7.67328">
        <ele>2011.2426757812</ele>
        <time>2018-11-07T21:24:35.050Z</time>
      </trkpt>
      <trkpt lat="44.13453" lon="7.67334">
        <ele>2009.0830078125</ele>
        <time>2018-11-07T21:24:45.007Z</time>
      </trkpt>
      <trkpt lat="44.13443" lon="7.67355">
        <ele>2004.1569824219</ele>
        <time>2018-11-07T21:24:54.966Z</time>
      </trkpt>
      <trkpt lat="44.13426" lon="7.67381">
        <ele>2006.1846923828</ele>
        <time>2018-11-07T21:25:04.929Z</time>
      </trkpt>
      <trkpt lat="44.13392" lon="7.67431">
        <ele>2013.0374755859</ele>
        <time>2018-11-07T21:25:14.900Z</time>
      </trkpt>
      <trkpt lat="44.13381" lon="7.67455">
        <ele>2014.2017822266</ele>
        <time>2018-11-07T21:25:24.875Z</time>
      </trkpt>
      <trkpt lat="44.13378" lon="7.67469">
        <ele>2012.6060791016</ele>
        <time>2018-11-07T21:25:34.851Z</time>
      </trkpt>
      <trkpt lat="44.1338" lon="7.67481">
        <ele>2009.3186035156</ele>
        <time>2018-11-07T21:25:44.829Z</time>
      </trkpt>
      <trkpt lat="44.13382" lon="7.675">
        <ele>2004.6033935547</ele>
        <time>2018-11-07T21:25:54.809Z</time>
      </trkpt>
      <trkpt lat="44.13377" lon="7.67514">
        <ele>2004.6441650391</ele>
        <time>2018-11-07T21:26:04.791Z</time>
      </trkpt>
      <trkpt lat="44.13369" lon="7.67532">
        <ele>2004.6370849609</ele>
        <time>2018-11-07T21:26:14.775Z</time>
      </trkpt>
      <trkpt lat="44.13362" lon="7.67585">
        <ele>1997.7022705078</ele>
        <time>2018-11-07T21:26:24.765Z</time>
      </trkpt>
      <trkpt lat="44.13342" lon="7.67738">
        <ele>1993.5472412109</ele>
        <time>2018-11-07T21:26:34.773Z</time>
      </trkpt>
      <trkpt lat="44.13347" lon="7.67765">
        <ele>1986.1939697266</ele>
        <time>2018-11-07T21:26:44.785Z</time>
      </trkpt>
      <trkpt lat="44.13347" lon="7.67779">
        <ele>1983.8422851562</ele>
        <time>2018-11-07T21:26:54.798Z</time>
      </trkpt>
      <trkpt lat="44.13342" lon="7.67791">
        <ele>1983.7463378906</ele>
        <time>2018-11-07T21:27:04.813Z</time>
      </trkpt>
      <trkpt lat="44.13331" lon="7.67804">
        <ele>1985.7860107422</ele>
        <time>2018-11-07T21:27:14.830Z</time>
      </trkpt>
      <trkpt lat="44.13307" lon="7.67824">
        <ele>1986.6910400391</ele>
        <time>2018-11-07T21:27:24.852Z</time>
      </trkpt>
      <trkpt lat="44.13297" lon="7.67826">
        <ele>1988.7546386719</ele>
        <time>2018-11-07T21:27:34.875Z</time>
      </trkpt>
      <trkpt lat="44.13281" lon="7.67832">
        <ele>1991.2502441406</ele>
        <time>2018-11-07T21:27:44.901Z</time>
      </trkpt>
      <trkpt lat="44.1327" lon="7.67847">
        <ele>1991.9915771484</ele>
        <time>2018-11-07T21:27:54.929Z</time>
      </trkpt>
      <trkpt lat="44.13232" lon="7.67912">
        <ele>1992.5749511719</ele>
        <time>2018-11-07T21:28:04.967Z</time>
      </trkpt>
      <trkpt lat="44.13216" lon="7.67946">
        <ele>1991.6065673828</ele>
        <time>2018-11-07T21:28:15.010Z</time>
      </trkpt>
      <trkpt lat="44.13216" lon="7.67945">
        <ele>1991.7625732422</ele>
        <time>2018-11-07T21:28:25.053Z</time>
      </trkpt>
      <trkpt lat="44.13198" lon="7.67985">
        <ele>1993.0822753906</ele>
        <time>2018-11-07T21:28:35.101Z</time>
      </trkpt>
      <trkpt lat="44.13195" lon="7.67994">
        <ele>1992.9368896484</ele>
        <time>2018-11-07T21:28:45.150Z</time>
      </trkpt>
      <trkpt lat="44.13191" lon="7.68006">
        <ele>1992.7164306641</ele>
        <time>2018-11-07T21:28:55.201Z</time>
      </trkpt>
      <trkpt lat="44.13184" lon="7.68074">
        <ele>1987.8931884766</ele>
        <time>2018-11-07T21:29:05.260Z</time>
      </trkpt>
      <trkpt lat="44.13178" lon="7.68107">
        <ele>1979.9541015625</ele>
        <time>2018-11-07T21:29:15.323Z</time>
      </trkpt>
      <trkpt lat="44.13169" lon="7.68129">
        <ele>1975.7548828125</ele>
        <time>2018-11-07T21:29:25.389Z</time>
      </trkpt>
      <trkpt lat="44.13159" lon="7.68135">
        <ele>1975.4772949219</ele>
        <time>2018-11-07T21:29:35.456Z</time>
      </trkpt>
      <trkpt lat="44.13146" lon="7.6814">
        <ele>1971.9499511719</ele>
        <time>2018-11-07T21:29:45.526Z</time>
      </trkpt>
      <trkpt lat="44.13131" lon="7.68147">
        <ele>1967.3187255859</ele>
        <time>2018-11-07T21:29:55.598Z</time>
      </trkpt>
      <trkpt lat="44.13119" lon="7.68164">
        <ele>1958.4161376953</ele>
        <time>2018-11-07T21:30:05.673Z</time>
      </trkpt>
      <trkpt lat="44.13106" lon="7.68166">
        <ele>1954.8459472656</ele>
        <time>2018-11-07T21:30:15.750Z</time>
      </trkpt>
      <trkpt lat="44.13099" lon="7.68166">
        <ele>1952.4104003906</ele>
        <time>2018-11-07T21:30:25.828Z</time>
      </trkpt>
      <trkpt lat="44.1308" lon="7.68149">
        <ele>1952.3264160156</ele>
        <time>2018-11-07T21:30:35.910Z</time>
      </trkpt>
      <trkpt lat="44.13055" lon="7.68108">
        <ele>1959.8135986328</ele>
        <time>2018-11-07T21:30:45.998Z</time>
      </trkpt>
      <trkpt lat="44.1302" lon="7.68049">
        <ele>1971.7922363281</ele>
        <time>2018-11-07T21:30:56.095Z</time>
      </trkpt>
      <trkpt lat="44.13013" lon="7.6803">
        <ele>1977.9232177734</ele>
        <time>2018-11-07T21:31:06.194Z</time>
      </trkpt>
      <trkpt lat="44.12987" lon="7.67987">
        <ele>1986.4270019531</ele>
        <time>2018-11-07T21:31:16.300Z</time>
      </trkpt>
      <trkpt lat="44.12973" lon="7.67975">
        <ele>1985.7551269531</ele>
        <time>2018-11-07T21:31:26.408Z</time>
      </trkpt>
      <trkpt lat="44.12957" lon="7.67968">
        <ele>1983.2955322266</ele>
        <time>2018-11-07T21:31:36.519Z</time>
      </trkpt>
      <trkpt lat="44.12938" lon="7.6797">
        <ele>1979.1787109375</ele>
        <time>2018-11-07T21:31:46.633Z</time>
      </trkpt>
      <trkpt lat="44.12932" lon="7.67984">
        <ele>1975.5073242188</ele>
        <time>2018-11-07T21:31:56.749Z</time>
      </trkpt>
      <trkpt lat="44.12917" lon="7.68014">
        <ele>1967.7935791016</ele>
        <time>2018-11-07T21:32:06.869Z</time>
      </trkpt>
      <trkpt lat="44.12896" lon="7.68032">
        <ele>1963.3663330078</ele>
        <time>2018-11-07T21:32:16.993Z</time>
      </trkpt>
      <trkpt lat="44.12876" lon="7.68042">
        <ele>1961.1702880859</ele>
        <time>2018-11-07T21:32:27.120Z</time>
      </trkpt>
      <trkpt lat="44.12867" lon="7.6804">
        <ele>1961.4222412109</ele>
        <time>2018-11-07T21:32:37.249Z</time>
      </trkpt>
      <trkpt lat="44.12856" lon="7.68033">
        <ele>1963.1434326172</ele>
        <time>2018-11-07T21:32:47.380Z</time>
      </trkpt>
      <trkpt lat="44.12843" lon="7.68007">
        <ele>1969.3824462891</ele>
        <time>2018-11-07T21:32:57.514Z</time>
      </trkpt>
      <trkpt lat="44.12834" lon="7.67993">
        <ele>1974.3038330078</ele>
        <time>2018-11-07T21:33:07.651Z</time>
      </trkpt>
      <trkpt lat="44.12826" lon="7.6799">
        <ele>1976.1994628906</ele>
        <time>2018-11-07T21:33:17.789Z</time>
      </trkpt>
      <trkpt lat="44.12815" lon="7.67993">
        <ele>1976.5833740234</ele>
        <time>2018-11-07T21:33:27.929Z</time>
      </trkpt>
      <trkpt lat="44.12796" lon="7.68013">
        <ele>1973.9416503906</ele>
        <time>2018-11-07T21:33:38.072Z</time>
      </trkpt>
      <trkpt lat="44.12787" lon="7.68019">
        <ele>1973.2794189453</ele>
        <time>2018-11-07T21:33:48.217Z</time>
      </trkpt>
      <trkpt lat="44.12774" lon="7.68021">
        <ele>1972.7462158203</ele>
        <time>2018-11-07T21:33:58.364Z</time>
      </trkpt>
      <trkpt lat="44.12729" lon="7.68002">
        <ele>1977.1252441406</ele>
        <time>2018-11-07T21:34:08.519Z</time>
      </trkpt>
      <trkpt lat="44.12697" lon="7.6799">
        <ele>1979.6688232422</ele>
        <time>2018-11-07T21:34:18.679Z</time>
      </trkpt>
      <trkpt lat="44.12691" lon="7.6799">
        <ele>1979.6929931641</ele>
        <time>2018-11-07T21:34:28.840Z</time>
      </trkpt>
      <trkpt lat="44.12683" lon="7.67997">
        <ele>1978.8529052734</ele>
        <time>2018-11-07T21:34:39.002Z</time>
      </trkpt>
      <trkpt lat="44.12664" lon="7.68033">
        <ele>1978.4812011719</ele>
        <time>2018-11-07T21:34:49.170Z</time>
      </trkpt>
      <trkpt lat="44.12655" lon="7.68052">
        <ele>1978.8891601562</ele>
        <time>2018-11-07T21:34:59.340Z</time>
      </trkpt>
      <trkpt lat="44.12657" lon="7.68063">
        <ele>1978.8891601562</ele>
        <time>2018-11-07T21:35:09.512Z</time>
      </trkpt>
      <trkpt lat="44.1266" lon="7.68077">
        <ele>1978.7092285156</ele>
        <time>2018-11-07T21:35:19.685Z</time>
      </trkpt>
      <trkpt lat="44.12665" lon="7.68085">
        <ele>1977.3055419922</ele>
        <time>2018-11-07T21:35:29.859Z</time>
      </trkpt>
      <trkpt lat="44.12682" lon="7.68119">
        <ele>1972.6306152344</ele>
        <time>2018-11-07T21:35:40.038Z</time>
      </trkpt>
      <trkpt lat="44.12686" lon="7.68137">
        <ele>1972.1267089844</ele>
        <time>2018-11-07T21:35:50.219Z</time>
      </trkpt>
      <trkpt lat="44.12685" lon="7.68153">
        <ele>1973.4825439453</ele>
        <time>2018-11-07T21:36:00.402Z</time>
      </trkpt>
      <trkpt lat="44.1268" lon="7.68163">
        <ele>1977.0828857422</ele>
        <time>2018-11-07T21:36:10.587Z</time>
      </trkpt>
      <trkpt lat="44.12671" lon="7.68177">
        <ele>1983.5733642578</ele>
        <time>2018-11-07T21:36:20.774Z</time>
      </trkpt>
      <trkpt lat="44.12667" lon="7.68199">
        <ele>1986.5249023438</ele>
        <time>2018-11-07T21:36:30.963Z</time>
      </trkpt>
      <trkpt lat="44.12667" lon="7.6823">
        <ele>1987.73046875</ele>
        <time>2018-11-07T21:36:41.156Z</time>
      </trkpt>
      <trkpt lat="44.12665" lon="7.6827">
        <ele>1991.2579345703</ele>
        <time>2018-11-07T21:36:51.354Z</time>
      </trkpt>
      <trkpt lat="44.12661" lon="7.68293">
        <ele>1994.8933105469</ele>
        <time>2018-11-07T21:37:01.554Z</time>
      </trkpt>
      <trkpt lat="44.1266" lon="7.68316">
        <ele>1996.8370361328</ele>
        <time>2018-11-07T21:37:11.757Z</time>
      </trkpt>
      <trkpt lat="44.12663" lon="7.68331">
        <ele>1996.0451660156</ele>
        <time>2018-11-07T21:37:21.962Z</time>
      </trkpt>
      <trkpt lat="44.12675" lon="7.68356">
        <ele>1991.4832763672</ele>
        <time>2018-11-07T21:37:32.170Z</time>
      </trkpt>
      <trkpt lat="44.12687" lon="7.68383">
        <ele>1987.3079833984</ele>
        <time>2018-11-07T21:37:42.382Z</time>
      </trkpt>
      <trkpt lat="44.12695" lon="7.68406">
        <ele>1985.1193847656</ele>
        <time>2018-11-07T21:37:52.597Z</time>
      </trkpt>
      <trkpt lat="44.12714" lon="7.68452">
        <ele>1981.9534912109</ele>
        <time>2018-11-07T21:38:02.818Z</time>
      </trkpt>
      <trkpt lat="44.12726" lon="7.68498">
        <ele>1981.2097167969</ele>
        <time>2018-11-07T21:38:13.045Z</time>
      </trkpt>
      <trkpt lat="44.12754" lon="7.68541">
        <ele>1976.7991943359</ele>
        <time>2018-11-07T21:38:23.278Z</time>
      </trkpt>
      <trkpt lat="44.12763" lon="7.68563">
        <ele>1976.7751464844</ele>
        <time>2018-11-07T21:38:33.514Z</time>
      </trkpt>
      <trkpt lat="44.1278" lon="7.68582">
        <ele>1973.0065917969</ele>
        <time>2018-11-07T21:38:43.754Z</time>
      </trkpt>
      <trkpt lat="44.12799" lon="7.68594">
        <ele>1966.6688232422</ele>
        <time>2018-11-07T21:38:53.997Z</time>
      </trkpt>
      <trkpt lat="44.12813" lon="7.68596">
        <ele>1960.7177734375</ele>
        <time>2018-11-07T21:39:04.242Z</time>
      </trkpt>
      <trkpt lat="44.12821" lon="7.686">
        <ele>1957.9342041016</ele>
        <time>2018-11-07T21:39:14.489Z</time>
      </trkpt>
      <trkpt lat="44.12826" lon="7.68612">
        <ele>1958.2462158203</ele>
        <time>2018-11-07T21:39:24.737Z</time>
      </trkpt>
      <trkpt lat="44.12829" lon="7.68622">
        <ele>1959.0380859375</ele>
        <time>2018-11-07T21:39:34.986Z</time>
      </trkpt>
      <trkpt lat="44.12834" lon="7.68667">
        <ele>1966.0357666016</ele>
        <time>2018-11-07T21:39:45.241Z</time>
      </trkpt>
      <trkpt lat="44.12834" lon="7.68671">
        <ele>1966.5024414062</ele>
        <time>2018-11-07T21:39:55.496Z</time>
      </trkpt>
      <trkpt lat="44.12829" lon="7.68725">
        <ele>1971.2536621094</ele>
        <time>2018-11-07T21:40:05.757Z</time>
      </trkpt>
      <trkpt lat="44.12813" lon="7.68772">
        <ele>1979.2888183594</ele>
        <time>2018-11-07T21:40:16.024Z</time>
      </trkpt>
      <trkpt lat="44.12817" lon="7.68805">
        <ele>1976.30078125</ele>
        <time>2018-11-07T21:40:26.295Z</time>
      </trkpt>
      <trkpt lat="44.12823" lon="7.68845">
        <ele>1971.5986328125</ele>
        <time>2018-11-07T21:40:36.571Z</time>
      </trkpt>
      <trkpt lat="44.12836" lon="7.6888">
        <ele>1967.3392333984</ele>
        <time>2018-11-07T21:40:46.852Z</time>
      </trkpt>
      <trkpt lat="44.12845" lon="7.68903">
        <ele>1964.3757324219</ele>
        <time>2018-11-07T21:40:57.136Z</time>
      </trkpt>
      <trkpt lat="44.12846" lon="7.68916">
        <ele>1963.0207519531</ele>
        <time>2018-11-07T21:41:07.421Z</time>
      </trkpt>
      <trkpt lat="44.12845" lon="7.68942">
        <ele>1961.5748291016</ele>
        <time>2018-11-07T21:41:17.709Z</time>
      </trkpt>
      <trkpt lat="44.12832" lon="7.6899">
        <ele>1961.0521240234</ele>
        <time>2018-11-07T21:41:28.003Z</time>
      </trkpt>
      <trkpt lat="44.12826" lon="7.69026">
        <ele>1957.6109619141</ele>
        <time>2018-11-07T21:41:38.301Z</time>
      </trkpt>
      <trkpt lat="44.12816" lon="7.6905">
        <ele>1956.0764160156</ele>
        <time>2018-11-07T21:41:48.602Z</time>
      </trkpt>
      <trkpt lat="44.12805" lon="7.69069">
        <ele>1954.6007080078</ele>
        <time>2018-11-07T21:41:58.906Z</time>
      </trkpt>
      <trkpt lat="44.1279" lon="7.69083">
        <ele>1954.5887451172</ele>
        <time>2018-11-07T21:42:09.213Z</time>
      </trkpt>
      <trkpt lat="44.12767" lon="7.69101">
        <ele>1954.1109619141</ele>
        <time>2018-11-07T21:42:19.524Z</time>
      </trkpt>
      <trkpt lat="44.1273" lon="7.69119">
        <ele>1955.5627441406</ele>
        <time>2018-11-07T21:42:29.842Z</time>
      </trkpt>
      <trkpt lat="44.12693" lon="7.6915">
        <ele>1952.3143310547</ele>
        <time>2018-11-07T21:42:40.167Z</time>
      </trkpt>
      <trkpt lat="44.12659" lon="7.69171">
        <ele>1950.4349365234</ele>
        <time>2018-11-07T21:42:50.498Z</time>
      </trkpt>
      <trkpt lat="44.12596" lon="7.69204">
        <ele>1943.919921875</ele>
        <time>2018-11-07T21:43:00.839Z</time>
      </trkpt>
      <trkpt lat="44.1257" lon="7.69214">
        <ele>1936.9703369141</ele>
        <time>2018-11-07T21:43:11.185Z</time>
      </trkpt>
      <trkpt lat="44.12545" lon="7.69226">
        <ele>1929.1716308594</ele>
        <time>2018-11-07T21:43:21.535Z</time>
      </trkpt>
      <trkpt lat="44.12531" lon="7.69228">
        <ele>1926.2200927734</ele>
        <time>2018-11-07T21:43:31.887Z</time>
      </trkpt>
      <trkpt lat="44.12523" lon="7.69224">
        <ele>1924.7947998047</ele>
        <time>2018-11-07T21:43:42.240Z</time>
      </trkpt>
      <trkpt lat="44.12512" lon="7.69211">
        <ele>1923.4150390625</ele>
        <time>2018-11-07T21:43:52.596Z</time>
      </trkpt>
      <trkpt lat="44.125" lon="7.69181">
        <ele>1926.6545410156</ele>
        <time>2018-11-07T21:44:02.956Z</time>
      </trkpt>
      <trkpt lat="44.12483" lon="7.69138">
        <ele>1936.7482910156</ele>
        <time>2018-11-07T21:44:13.321Z</time>
      </trkpt>
      <trkpt lat="44.12453" lon="7.691">
        <ele>1940.1318359375</ele>
        <time>2018-11-07T21:44:23.693Z</time>
      </trkpt>
      <trkpt lat="44.12422" lon="7.69078">
        <ele>1941.9064941406</ele>
        <time>2018-11-07T21:44:34.070Z</time>
      </trkpt>
      <trkpt lat="44.12402" lon="7.69067">
        <ele>1943.5261230469</ele>
        <time>2018-11-07T21:44:44.451Z</time>
      </trkpt>
      <trkpt lat="44.12384" lon="7.69063">
        <ele>1941.7984619141</ele>
        <time>2018-11-07T21:44:54.835Z</time>
      </trkpt>
      <trkpt lat="44.12362" lon="7.69062">
        <ele>1937.5871582031</ele>
        <time>2018-11-07T21:45:05.222Z</time>
      </trkpt>
      <trkpt lat="44.12337" lon="7.69057">
        <ele>1931.7976074219</ele>
        <time>2018-11-07T21:45:15.613Z</time>
      </trkpt>
      <trkpt lat="44.12322" lon="7.6905">
        <ele>1930.8997802734</ele>
        <time>2018-11-07T21:45:26.007Z</time>
      </trkpt>
      <trkpt lat="44.12318" lon="7.6905">
        <ele>1930.6599121094</ele>
        <time>2018-11-07T21:45:36.402Z</time>
      </trkpt>
      <trkpt lat="44.12294" lon="7.69053">
        <ele>1928.4642333984</ele>
        <time>2018-11-07T21:45:46.800Z</time>
      </trkpt>
      <trkpt lat="44.12284" lon="7.69053">
        <ele>1927.8643798828</ele>
        <time>2018-11-07T21:45:57.200Z</time>
      </trkpt>
      <trkpt lat="44.12279" lon="7.69048">
        <ele>1928.9155273438</ele>
        <time>2018-11-07T21:46:07.601Z</time>
      </trkpt>
      <trkpt lat="44.12274" lon="7.69042">
        <ele>1930.1831054688</ele>
        <time>2018-11-07T21:46:18.003Z</time>
      </trkpt>
      <trkpt lat="44.1225" lon="7.69023">
        <ele>1934.6823730469</ele>
        <time>2018-11-07T21:46:28.409Z</time>
      </trkpt>
      <trkpt lat="44.1222" lon="7.69022">
        <ele>1934.5743408203</ele>
        <time>2018-11-07T21:46:38.820Z</time>
      </trkpt>
      <trkpt lat="44.12209" lon="7.69026">
        <ele>1934.7001953125</ele>
        <time>2018-11-07T21:46:49.233Z</time>
      </trkpt>
      <trkpt lat="44.12203" lon="7.69033">
        <ele>1935.0482177734</ele>
        <time>2018-11-07T21:46:59.647Z</time>
      </trkpt>
      <trkpt lat="44.12198" lon="7.69041">
        <ele>1935.1561279297</ele>
        <time>2018-11-07T21:47:10.063Z</time>
      </trkpt>
      <trkpt lat="44.12198" lon="7.69048">
        <ele>1934.5682373047</ele>
        <time>2018-11-07T21:47:20.479Z</time>
      </trkpt>
      <trkpt lat="44.12197" lon="7.69067">
        <ele>1933.0660400391</ele>
        <time>2018-11-07T21:47:30.898Z</time>
      </trkpt>
      <trkpt lat="44.12197" lon="7.69084">
        <ele>1931.6693115234</ele>
        <time>2018-11-07T21:47:41.318Z</time>
      </trkpt>
      <trkpt lat="44.12197" lon="7.691">
        <ele>1929.1906738281</ele>
        <time>2018-11-07T21:47:51.740Z</time>
      </trkpt>
      <trkpt lat="44.12196" lon="7.69103">
        <ele>1928.5675048828</ele>
        <time>2018-11-07T21:48:02.163Z</time>
      </trkpt>
      <trkpt lat="44.12193" lon="7.69112">
        <ele>1926.9848632812</ele>
        <time>2018-11-07T21:48:12.587Z</time>
      </trkpt>
      <trkpt lat="44.12188" lon="7.69118">
        <ele>1926.6711425781</ele>
        <time>2018-11-07T21:48:23.012Z</time>
      </trkpt>
      <trkpt lat="44.12185" lon="7.69122">
        <ele>1926.4583740234</ele>
        <time>2018-11-07T21:48:33.438Z</time>
      </trkpt>
      <trkpt lat="44.12177" lon="7.69125">
        <ele>1927.3856201172</ele>
        <time>2018-11-07T21:48:43.865Z</time>
      </trkpt>
      <trkpt lat="44.12177" lon="7.69125">
        <ele>1927.3863525391</ele>
        <time>2018-11-07T21:48:54.292Z</time>
      </trkpt>
      <trkpt lat="44.12166" lon="7.69128">
        <ele>1928.8103027344</ele>
        <time>2018-11-07T21:49:04.721Z</time>
      </trkpt>
      <trkpt lat="44.12166" lon="7.69128">
        <ele>1928.8122558594</ele>
        <time>2018-11-07T21:49:15.150Z</time>
      </trkpt>
      <trkpt lat="44.12163" lon="7.69129">
        <ele>1929.17578125</ele>
        <time>2018-11-07T21:49:25.579Z</time>
      </trkpt>
      <trkpt lat="44.12157" lon="7.69131">
        <ele>1930.0515136719</ele>
        <time>2018-11-07T21:49:36.009Z</time>
      </trkpt>
      <trkpt lat="44.12157" lon="7.69131">
        <ele>1930.0522460938</ele>
        <time>2018-11-07T21:49:46.439Z</time>
      </trkpt>
      <trkpt lat="44.12146" lon="7.69134">
        <ele>1931.1862792969</ele>
        <time>2018-11-07T21:49:56.871Z</time>
      </trkpt>
      <trkpt lat="44.12146" lon="7.69134">
        <ele>1931.1877441406</ele>
        <time>2018-11-07T21:50:07.303Z</time>
      </trkpt>
      <trkpt lat="44.12141" lon="7.69136">
        <ele>1931.7059326172</ele>
        <time>2018-11-07T21:50:17.736Z</time>
      </trkpt>
      <trkpt lat="44.12125" lon="7.69138">
        <ele>1933.9334716797</ele>
        <time>2018-11-07T21:50:28.171Z</time>
      </trkpt>
      <trkpt lat="44.12124" lon="7.69137">
        <ele>1934.1043701172</ele>
        <time>2018-11-07T21:50:38.607Z</time>
      </trkpt>
      <trkpt lat="44.12124" lon="7.69137">
        <ele>1934.1046142578</ele>
        <time>2018-11-07T21:50:49.043Z</time>
      </trkpt>
      <trkpt lat="44.12109" lon="7.69132">
        <ele>1938.1453857422</ele>
        <time>2018-11-07T21:50:59.481Z</time>
      </trkpt>
      <trkpt lat="44.12102" lon="7.69131">
        <ele>1941.3173828125</ele>
        <time>2018-11-07T21:51:09.920Z</time>
      </trkpt>
      <trkpt lat="44.12102" lon="7.69131">
        <ele>1941.3203125</ele>
        <time>2018-11-07T21:51:20.359Z</time>
      </trkpt>
      <trkpt lat="44.12095" lon="7.6913">
        <ele>1944.0933837891</ele>
        <time>2018-11-07T21:51:30.799Z</time>
      </trkpt>
      <trkpt lat="44.12086" lon="7.69133">
        <ele>1947.1669921875</ele>
        <time>2018-11-07T21:51:41.241Z</time>
      </trkpt>
      <trkpt lat="44.12086" lon="7.69133">
        <ele>1947.1695556641</ele>
        <time>2018-11-07T21:51:51.683Z</time>
      </trkpt>
      <trkpt lat="44.12086" lon="7.69133">
        <ele>1947.1715087891</ele>
        <time>2018-11-07T21:52:02.125Z</time>
      </trkpt>
      <trkpt lat="44.12081" lon="7.69155">
        <ele>1944.7152099609</ele>
        <time>2018-11-07T21:52:12.569Z</time>
      </trkpt>
      <trkpt lat="44.12081" lon="7.69155">
        <ele>1944.7142333984</ele>
        <time>2018-11-07T21:52:23.013Z</time>
      </trkpt>
      <trkpt lat="44.12081" lon="7.69156">
        <ele>1944.5494384766</ele>
        <time>2018-11-07T21:52:33.458Z</time>
      </trkpt>
      <trkpt lat="44.12077" lon="7.69172">
        <ele>1943.5206298828</ele>
        <time>2018-11-07T21:52:43.905Z</time>
      </trkpt>
      <trkpt lat="44.12076" lon="7.69172">
        <ele>1943.51953125</ele>
        <time>2018-11-07T21:52:54.352Z</time>
      </trkpt>
      <trkpt lat="44.12073" lon="7.69185">
        <ele>1942.3110351562</ele>
        <time>2018-11-07T21:53:04.800Z</time>
      </trkpt>
      <trkpt lat="44.12073" lon="7.69185">
        <ele>1942.2811279297</ele>
        <time>2018-11-07T21:53:15.248Z</time>
      </trkpt>
      <trkpt lat="44.12073" lon="7.69185">
        <ele>1942.279296875</ele>
        <time>2018-11-07T21:53:25.696Z</time>
      </trkpt>
      <trkpt lat="44.12069" lon="7.69209">
        <ele>1938.7021484375</ele>
        <time>2018-11-07T21:53:36.147Z</time>
      </trkpt>
      <trkpt lat="44.12069" lon="7.69209">
        <ele>1938.7003173828</ele>
        <time>2018-11-07T21:53:46.598Z</time>
      </trkpt>
      <trkpt lat="44.12068" lon="7.6922">
        <ele>1937.8780517578</ele>
        <time>2018-11-07T21:53:57.050Z</time>
      </trkpt>
      <trkpt lat="44.12063" lon="7.69238">
        <ele>1937.927734375</ele>
        <time>2018-11-07T21:54:07.504Z</time>
      </trkpt>
      <trkpt lat="44.12063" lon="7.69238">
        <ele>1937.927734375</ele>
        <time>2018-11-07T21:54:17.958Z</time>
      </trkpt>
      <trkpt lat="44.12062" lon="7.69244">
        <ele>1937.9448242188</ele>
        <time>2018-11-07T21:54:28.413Z</time>
      </trkpt>
      <trkpt lat="44.1205" lon="7.69267">
        <ele>1941.1086425781</ele>
        <time>2018-11-07T21:54:38.871Z</time>
      </trkpt>
      <trkpt lat="44.12049" lon="7.69268">
        <ele>1941.1594238281</ele>
        <time>2018-11-07T21:54:49.330Z</time>
      </trkpt>
      <trkpt lat="44.12049" lon="7.69268">
        <ele>1941.1597900391</ele>
        <time>2018-11-07T21:54:59.789Z</time>
      </trkpt>
      <trkpt lat="44.12046" lon="7.69277">
        <ele>1941.2338867188</ele>
        <time>2018-11-07T21:55:10.249Z</time>
      </trkpt>
      <trkpt lat="44.12048" lon="7.69291">
        <ele>1937.9200439453</ele>
        <time>2018-11-07T21:55:20.710Z</time>
      </trkpt>
      <trkpt lat="44.12047" lon="7.69293">
        <ele>1937.6760253906</ele>
        <time>2018-11-07T21:55:31.172Z</time>
      </trkpt>
      <trkpt lat="44.12047" lon="7.69293">
        <ele>1937.6748046875</ele>
        <time>2018-11-07T21:55:41.634Z</time>
      </trkpt>
      <trkpt lat="44.12043" lon="7.6932">
        <ele>1934.6708984375</ele>
        <time>2018-11-07T21:55:52.099Z</time>
      </trkpt>
      <trkpt lat="44.12043" lon="7.6932">
        <ele>1934.6689453125</ele>
        <time>2018-11-07T21:56:02.564Z</time>
      </trkpt>
      <trkpt lat="44.12042" lon="7.69322">
        <ele>1934.4317626953</ele>
        <time>2018-11-07T21:56:13.029Z</time>
      </trkpt>
      <trkpt lat="44.12041" lon="7.69331">
        <ele>1933.5440673828</ele>
        <time>2018-11-07T21:56:23.495Z</time>
      </trkpt>
      <trkpt lat="44.12041" lon="7.69331">
        <ele>1933.5428466797</ele>
        <time>2018-11-07T21:56:33.961Z</time>
      </trkpt>
      <trkpt lat="44.12038" lon="7.69344">
        <ele>1933.4932861328</ele>
        <time>2018-11-07T21:56:44.429Z</time>
      </trkpt>
      <trkpt lat="44.12038" lon="7.69344">
        <ele>1933.4954833984</ele>
        <time>2018-11-07T21:56:54.897Z</time>
      </trkpt>
      <trkpt lat="44.12036" lon="7.69353">
        <ele>1933.8250732422</ele>
        <time>2018-11-07T21:57:05.366Z</time>
      </trkpt>
      <trkpt lat="44.12036" lon="7.69376">
        <ele>1932.5609130859</ele>
        <time>2018-11-07T21:57:15.837Z</time>
      </trkpt>
      <trkpt lat="44.12036" lon="7.69376">
        <ele>1932.5601806641</ele>
        <time>2018-11-07T21:57:26.308Z</time>
      </trkpt>
      <trkpt lat="44.12036" lon="7.6938">
        <ele>1932.3870849609</ele>
        <time>2018-11-07T21:57:36.780Z</time>
      </trkpt>
      <trkpt lat="44.12036" lon="7.69408">
        <ele>1930.6846923828</ele>
        <time>2018-11-07T21:57:47.255Z</time>
      </trkpt>
      <trkpt lat="44.12036" lon="7.69408">
        <ele>1930.6839599609</ele>
        <time>2018-11-07T21:57:57.730Z</time>
      </trkpt>
      <trkpt lat="44.12036" lon="7.69435">
        <ele>1929.7233886719</ele>
        <time>2018-11-07T21:58:08.208Z</time>
      </trkpt>
      <trkpt lat="44.12036" lon="7.69435">
        <ele>1929.7214355469</ele>
        <time>2018-11-07T21:58:18.686Z</time>
      </trkpt>
      <trkpt lat="44.12036" lon="7.69437">
        <ele>1929.6833496094</ele>
        <time>2018-11-07T21:58:29.164Z</time>
      </trkpt>
      <trkpt lat="44.12036" lon="7.69461">
        <ele>1928.9249267578</ele>
        <time>2018-11-07T21:58:39.645Z</time>
      </trkpt>
      <trkpt lat="44.12035" lon="7.69476">
        <ele>1929.0634765625</ele>
        <time>2018-11-07T21:58:50.128Z</time>
      </trkpt>
      <trkpt lat="44.12032" lon="7.69491">
        <ele>1930.2641601562</ele>
        <time>2018-11-07T21:59:00.613Z</time>
      </trkpt>
      <trkpt lat="44.12032" lon="7.69491">
        <ele>1930.2651367188</ele>
        <time>2018-11-07T21:59:11.098Z</time>
      </trkpt>
      <trkpt lat="44.12031" lon="7.69493">
        <ele>1930.4812011719</ele>
        <time>2018-11-07T21:59:21.583Z</time>
      </trkpt>
      <trkpt lat="44.12027" lon="7.69507">
        <ele>1931.6689453125</ele>
        <time>2018-11-07T21:59:32.070Z</time>
      </trkpt>
      <trkpt lat="44.12025" lon="7.69513">
        <ele>1931.8891601562</ele>
        <time>2018-11-07T21:59:42.558Z</time>
      </trkpt>
      <trkpt lat="44.12025" lon="7.69513">
        <ele>1931.8895263672</ele>
        <time>2018-11-07T21:59:53.046Z</time>
      </trkpt>
      <trkpt lat="44.1202" lon="7.69527">
        <ele>1932.3830566406</ele>
        <time>2018-11-07T22:00:03.535Z</time>
      </trkpt>
      <trkpt lat="44.1202" lon="7.69527">
        <ele>1932.3839111328</ele>
        <time>2018-11-07T22:00:14.024Z</time>
      </trkpt>
      <trkpt lat="44.1202" lon="7.69527">
        <ele>1932.3974609375</ele>
        <time>2018-11-07T22:00:24.513Z</time>
      </trkpt>
      <trkpt lat="44.12016" lon="7.69544">
        <ele>1932.0577392578</ele>
        <time>2018-11-07T22:00:35.004Z</time>
      </trkpt>
      <trkpt lat="44.12016" lon="7.69544">
        <ele>1932.0574951172</ele>
        <time>2018-11-07T22:00:45.495Z</time>
      </trkpt>
      <trkpt lat="44.12016" lon="7.69545">
        <ele>1932.0329589844</ele>
        <time>2018-11-07T22:00:55.987Z</time>
      </trkpt>
      <trkpt lat="44.12015" lon="7.69559">
        <ele>1930.8853759766</ele>
        <time>2018-11-07T22:01:06.480Z</time>
      </trkpt>
      <trkpt lat="44.12015" lon="7.69559">
        <ele>1930.8843994141</ele>
        <time>2018-11-07T22:01:16.973Z</time>
      </trkpt>
      <trkpt lat="44.12015" lon="7.69567">
        <ele>1930.2506103516</ele>
        <time>2018-11-07T22:01:27.467Z</time>
      </trkpt>
      <trkpt lat="44.12014" lon="7.69581">
        <ele>1928.9317626953</ele>
        <time>2018-11-07T22:01:37.963Z</time>
      </trkpt>
      <trkpt lat="44.12014" lon="7.69581">
        <ele>1928.9304199219</ele>
        <time>2018-11-07T22:01:48.459Z</time>
      </trkpt>
      <trkpt lat="44.12013" lon="7.69589">
        <ele>1928.2025146484</ele>
        <time>2018-11-07T22:01:58.956Z</time>
      </trkpt>
      <trkpt lat="44.12013" lon="7.696">
        <ele>1927.3692626953</ele>
        <time>2018-11-07T22:02:09.454Z</time>
      </trkpt>
      <trkpt lat="44.12013" lon="7.696">
        <ele>1927.3682861328</ele>
        <time>2018-11-07T22:02:19.952Z</time>
      </trkpt>
      <trkpt lat="44.12012" lon="7.69608">
        <ele>1926.7883300781</ele>
        <time>2018-11-07T22:02:30.451Z</time>
      </trkpt>
      <trkpt lat="44.1201" lon="7.69622">
        <ele>1926.0198974609</ele>
        <time>2018-11-07T22:02:40.951Z</time>
      </trkpt>
      <trkpt lat="44.1201" lon="7.69622">
        <ele>1926.0191650391</ele>
        <time>2018-11-07T22:02:51.451Z</time>
      </trkpt>
      <trkpt lat="44.12009" lon="7.69638">
        <ele>1925.0791015625</ele>
        <time>2018-11-07T22:03:01.953Z</time>
      </trkpt>
      <trkpt lat="44.12007" lon="7.69643">
        <ele>1924.9155273438</ele>
        <time>2018-11-07T22:03:12.456Z</time>
      </trkpt>
      <trkpt lat="44.12007" lon="7.69643">
        <ele>1924.9151611328</ele>
        <time>2018-11-07T22:03:22.959Z</time>
      </trkpt>
      <trkpt lat="44.12004" lon="7.69662">
        <ele>1924.1572265625</ele>
        <time>2018-11-07T22:03:33.464Z</time>
      </trkpt>
      <trkpt lat="44.12004" lon="7.69662">
        <ele>1924.15625</ele>
        <time>2018-11-07T22:03:43.969Z</time>
      </trkpt>
      <trkpt lat="44.12003" lon="7.69663">
        <ele>1924.1389160156</ele>
        <time>2018-11-07T22:03:54.474Z</time>
      </trkpt>
      <trkpt lat="44.11994" lon="7.69687">
        <ele>1924.8170166016</ele>
        <time>2018-11-07T22:04:04.982Z</time>
      </trkpt>
      <trkpt lat="44.11993" lon="7.69688">
        <ele>1924.9206542969</ele>
        <time>2018-11-07T22:04:15.491Z</time>
      </trkpt>
      <trkpt lat="44.11993" lon="7.69688">
        <ele>1924.9212646484</ele>
        <time>2018-11-07T22:04:26.000Z</time>
      </trkpt>
      <trkpt lat="44.11985" lon="7.69706">
        <ele>1925.9581298828</ele>
        <time>2018-11-07T22:04:36.511Z</time>
      </trkpt>
      <trkpt lat="44.11983" lon="7.6971">
        <ele>1926.2779541016</ele>
        <time>2018-11-07T22:04:47.023Z</time>
      </trkpt>
      <trkpt lat="44.11983" lon="7.6971">
        <ele>1926.2778320312</ele>
        <time>2018-11-07T22:04:57.535Z</time>
      </trkpt>
      <trkpt lat="44.11975" lon="7.69725">
        <ele>1925.9328613281</ele>
        <time>2018-11-07T22:05:08.049Z</time>
      </trkpt>
      <trkpt lat="44.11972" lon="7.69732">
        <ele>1925.5498046875</ele>
        <time>2018-11-07T22:05:18.564Z</time>
      </trkpt>
      <trkpt lat="44.11972" lon="7.69732">
        <ele>1925.5491943359</ele>
        <time>2018-11-07T22:05:29.079Z</time>
      </trkpt>
      <trkpt lat="44.11965" lon="7.69749">
        <ele>1924.6627197266</ele>
        <time>2018-11-07T22:05:39.596Z</time>
      </trkpt>
      <trkpt lat="44.11963" lon="7.69752">
        <ele>1924.5191650391</ele>
        <time>2018-11-07T22:05:50.113Z</time>
      </trkpt>
      <trkpt lat="44.11963" lon="7.69752">
        <ele>1924.5185546875</ele>
        <time>2018-11-07T22:06:00.630Z</time>
      </trkpt>
      <trkpt lat="44.11955" lon="7.69772">
        <ele>1923.0559082031</ele>
        <time>2018-11-07T22:06:11.150Z</time>
      </trkpt>
      <trkpt lat="44.11955" lon="7.69772">
        <ele>1923.0544433594</ele>
        <time>2018-11-07T22:06:21.670Z</time>
      </trkpt>
      <trkpt lat="44.11955" lon="7.69772">
        <ele>1923.0567626953</ele>
        <time>2018-11-07T22:06:32.190Z</time>
      </trkpt>
      <trkpt lat="44.11943" lon="7.69791">
        <ele>1921.8581542969</ele>
        <time>2018-11-07T22:06:42.713Z</time>
      </trkpt>
      <trkpt lat="44.11941" lon="7.69792">
        <ele>1921.6207275391</ele>
        <time>2018-11-07T22:06:53.236Z</time>
      </trkpt>
      <trkpt lat="44.11941" lon="7.69792">
        <ele>1921.6153564453</ele>
        <time>2018-11-07T22:07:03.759Z</time>
      </trkpt>
      <trkpt lat="44.1193" lon="7.69803">
        <ele>1920.1180419922</ele>
        <time>2018-11-07T22:07:14.285Z</time>
      </trkpt>
      <trkpt lat="44.11924" lon="7.69807">
        <ele>1919.6574707031</ele>
        <time>2018-11-07T22:07:24.811Z</time>
      </trkpt>
      <trkpt lat="44.11924" lon="7.69807">
        <ele>1919.6535644531</ele>
        <time>2018-11-07T22:07:35.337Z</time>
      </trkpt>
      <trkpt lat="44.11909" lon="7.69818">
        <ele>1918.2326660156</ele>
        <time>2018-11-07T22:07:45.866Z</time>
      </trkpt>
      <trkpt lat="44.11908" lon="7.69818">
        <ele>1918.2080078125</ele>
        <time>2018-11-07T22:07:56.395Z</time>
      </trkpt>
      <trkpt lat="44.11908" lon="7.69818">
        <ele>1918.2043457031</ele>
        <time>2018-11-07T22:08:06.924Z</time>
      </trkpt>
      <trkpt lat="44.11896" lon="7.69827">
        <ele>1917.1103515625</ele>
        <time>2018-11-07T22:08:17.456Z</time>
      </trkpt>
      <trkpt lat="44.11895" lon="7.69829">
        <ele>1916.8214111328</ele>
        <time>2018-11-07T22:08:27.988Z</time>
      </trkpt>
      <trkpt lat="44.11895" lon="7.69829">
        <ele>1916.8100585938</ele>
        <time>2018-11-07T22:08:38.520Z</time>
      </trkpt>
      <trkpt lat="44.11884" lon="7.69852">
        <ele>1913.3126220703</ele>
        <time>2018-11-07T22:08:49.055Z</time>
      </trkpt>
      <trkpt lat="44.11882" lon="7.69856">
        <ele>1912.6662597656</ele>
        <time>2018-11-07T22:08:59.591Z</time>
      </trkpt>
      <trkpt lat="44.11882" lon="7.69856">
        <ele>1912.6556396484</ele>
        <time>2018-11-07T22:09:10.127Z</time>
      </trkpt>
      <trkpt lat="44.11875" lon="7.69874">
        <ele>1910.2399902344</ele>
        <time>2018-11-07T22:09:20.665Z</time>
      </trkpt>
      <trkpt lat="44.11875" lon="7.69874">
        <ele>1910.2296142578</ele>
        <time>2018-11-07T22:09:31.203Z</time>
      </trkpt>
      <trkpt lat="44.11865" lon="7.69901">
        <ele>1906.7332763672</ele>
        <time>2018-11-07T22:09:41.744Z</time>
      </trkpt>
      <trkpt lat="44.11865" lon="7.69901">
        <ele>1906.71875</ele>
        <time>2018-11-07T22:09:52.285Z</time>
      </trkpt>
      <trkpt lat="44.11862" lon="7.6991">
        <ele>1905.4954833984</ele>
        <time>2018-11-07T22:10:02.828Z</time>
      </trkpt>
      <trkpt lat="44.11857" lon="7.69927">
        <ele>1902.5343017578</ele>
        <time>2018-11-07T22:10:13.373Z</time>
      </trkpt>
      <trkpt lat="44.11857" lon="7.69949">
        <ele>1900.5808105469</ele>
        <time>2018-11-07T22:10:23.920Z</time>
      </trkpt>
      <trkpt lat="44.11856" lon="7.69964">
        <ele>1899.0572509766</ele>
        <time>2018-11-07T22:10:34.469Z</time>
      </trkpt>
      <trkpt lat="44.11856" lon="7.69964">
        <ele>1899.0489501953</ele>
        <time>2018-11-07T22:10:45.018Z</time>
      </trkpt>
      <trkpt lat="44.11854" lon="7.6998">
        <ele>1897.3751220703</ele>
        <time>2018-11-07T22:10:55.569Z</time>
      </trkpt>
      <trkpt lat="44.11854" lon="7.69982">
        <ele>1897.0689697266</ele>
        <time>2018-11-07T22:11:06.120Z</time>
      </trkpt>
      <trkpt lat="44.11854" lon="7.69982">
        <ele>1897.0574951172</ele>
        <time>2018-11-07T22:11:16.671Z</time>
      </trkpt>
      <trkpt lat="44.11851" lon="7.69994">
        <ele>1895.2037353516</ele>
        <time>2018-11-07T22:11:27.224Z</time>
      </trkpt>
      <trkpt lat="44.11846" lon="7.69999">
        <ele>1893.5727539062</ele>
        <time>2018-11-07T22:11:37.778Z</time>
      </trkpt>
      <trkpt lat="44.11846" lon="7.69999">
        <ele>1893.5579833984</ele>
        <time>2018-11-07T22:11:48.332Z</time>
      </trkpt>
      <trkpt lat="44.11844" lon="7.70001">
        <ele>1892.9417724609</ele>
        <time>2018-11-07T22:11:58.886Z</time>
      </trkpt>
      <trkpt lat="44.11837" lon="7.69999">
        <ele>1891.3239746094</ele>
        <time>2018-11-07T22:12:09.441Z</time>
      </trkpt>
      <trkpt lat="44.11831" lon="7.69987">
        <ele>1890.6734619141</ele>
        <time>2018-11-07T22:12:19.998Z</time>
      </trkpt>
      <trkpt lat="44.11831" lon="7.69984">
        <ele>1890.6633300781</ele>
        <time>2018-11-07T22:12:30.555Z</time>
      </trkpt>
      <trkpt lat="44.11831" lon="7.69984">
        <ele>1890.6630859375</ele>
        <time>2018-11-07T22:12:41.112Z</time>
      </trkpt>
      <trkpt lat="44.11827" lon="7.69969">
        <ele>1890.6315917969</ele>
        <time>2018-11-07T22:12:51.671Z</time>
      </trkpt>
      <trkpt lat="44.11827" lon="7.69969">
        <ele>1890.6328125</ele>
        <time>2018-11-07T22:13:02.230Z</time>
      </trkpt>
      <trkpt lat="44.11824" lon="7.69958">
        <ele>1890.8045654297</ele>
        <time>2018-11-07T22:13:12.790Z</time>
      </trkpt>
      <trkpt lat="44.11824" lon="7.69958">
        <ele>1890.8062744141</ele>
        <time>2018-11-07T22:13:23.350Z</time>
      </trkpt>
      <trkpt lat="44.11822" lon="7.69948">
        <ele>1890.9429931641</ele>
        <time>2018-11-07T22:13:33.911Z</time>
      </trkpt>
      <trkpt lat="44.11822" lon="7.69948">
        <ele>1890.9450683594</ele>
        <time>2018-11-07T22:13:44.472Z</time>
      </trkpt>
      <trkpt lat="44.1182" lon="7.69941">
        <ele>1891.0543212891</ele>
        <time>2018-11-07T22:13:55.034Z</time>
      </trkpt>
      <trkpt lat="44.11819" lon="7.69935">
        <ele>1891.23828125</ele>
        <time>2018-11-07T22:14:05.597Z</time>
      </trkpt>
      <trkpt lat="44.11819" lon="7.69935">
        <ele>1891.2407226562</ele>
        <time>2018-11-07T22:14:16.160Z</time>
      </trkpt>
      <trkpt lat="44.1181" lon="7.69888">
        <ele>1896.2030029297</ele>
        <time>2018-11-07T22:14:26.729Z</time>
      </trkpt>
      <trkpt lat="44.1181" lon="7.69888">
        <ele>1896.2156982422</ele>
        <time>2018-11-07T22:14:37.298Z</time>
      </trkpt>
      <trkpt lat="44.11808" lon="7.69878">
        <ele>1897.5441894531</ele>
        <time>2018-11-07T22:14:47.868Z</time>
      </trkpt>
      <trkpt lat="44.11801" lon="7.6985">
        <ele>1900.6071777344</ele>
        <time>2018-11-07T22:14:58.441Z</time>
      </trkpt>
      <trkpt lat="44.1179" lon="7.6983">
        <ele>1901.5306396484</ele>
        <time>2018-11-07T22:15:09.017Z</time>
      </trkpt>
      <trkpt lat="44.1179" lon="7.6983">
        <ele>1901.537109375</ele>
        <time>2018-11-07T22:15:19.593Z</time>
      </trkpt>
      <trkpt lat="44.1179" lon="7.6983">
        <ele>1901.5413818359</ele>
        <time>2018-11-07T22:15:30.169Z</time>
      </trkpt>
      <trkpt lat="44.11777" lon="7.69806">
        <ele>1903.2094726562</ele>
        <time>2018-11-07T22:15:40.749Z</time>
      </trkpt>
      <trkpt lat="44.11777" lon="7.69806">
        <ele>1903.2214355469</ele>
        <time>2018-11-07T22:15:51.329Z</time>
      </trkpt>
      <trkpt lat="44.11774" lon="7.69801">
        <ele>1904.1989746094</ele>
        <time>2018-11-07T22:16:01.909Z</time>
      </trkpt>
      <trkpt lat="44.11764" lon="7.69789">
        <ele>1906.5163574219</ele>
        <time>2018-11-07T22:16:12.491Z</time>
      </trkpt>
      <trkpt lat="44.11764" lon="7.69788">
        <ele>1906.5267333984</ele>
        <time>2018-11-07T22:16:23.073Z</time>
      </trkpt>
      <trkpt lat="44.1175" lon="7.69769">
        <ele>1910.0908203125</ele>
        <time>2018-11-07T22:16:33.659Z</time>
      </trkpt>
      <trkpt lat="44.11744" lon="7.69765">
        <ele>1910.8463134766</ele>
        <time>2018-11-07T22:16:44.246Z</time>
      </trkpt>
      <trkpt lat="44.11744" lon="7.69765">
        <ele>1910.8527832031</ele>
        <time>2018-11-07T22:16:54.833Z</time>
      </trkpt>
      <trkpt lat="44.11737" lon="7.6976">
        <ele>1911.74609375</ele>
        <time>2018-11-07T22:17:05.421Z</time>
      </trkpt>
      <trkpt lat="44.1173" lon="7.69761">
        <ele>1911.2607421875</ele>
        <time>2018-11-07T22:17:16.010Z</time>
      </trkpt>
      <trkpt lat="44.1172" lon="7.69773">
        <ele>1908.6041259766</ele>
        <time>2018-11-07T22:17:26.601Z</time>
      </trkpt>
      <trkpt lat="44.11718" lon="7.69778">
        <ele>1907.5040283203</ele>
        <time>2018-11-07T22:17:37.193Z</time>
      </trkpt>
      <trkpt lat="44.11718" lon="7.69779">
        <ele>1907.4926757812</ele>
        <time>2018-11-07T22:17:47.785Z</time>
      </trkpt>
      <trkpt lat="44.11715" lon="7.69785">
        <ele>1906.5729980469</ele>
        <time>2018-11-07T22:17:58.378Z</time>
      </trkpt>
      <trkpt lat="44.11708" lon="7.69794">
        <ele>1905.3308105469</ele>
        <time>2018-11-07T22:18:08.972Z</time>
      </trkpt>
      <trkpt lat="44.11708" lon="7.69794">
        <ele>1905.3218994141</ele>
        <time>2018-11-07T22:18:19.566Z</time>
      </trkpt>
      <trkpt lat="44.11703" lon="7.698">
        <ele>1904.4481201172</ele>
        <time>2018-11-07T22:18:30.161Z</time>
      </trkpt>
      <trkpt lat="44.11703" lon="7.698">
        <ele>1904.4384765625</ele>
        <time>2018-11-07T22:18:40.756Z</time>
      </trkpt>
      <trkpt lat="44.11695" lon="7.69811">
        <ele>1903.0189208984</ele>
        <time>2018-11-07T22:18:51.353Z</time>
      </trkpt>
      <trkpt lat="44.11694" lon="7.69813">
        <ele>1902.6270751953</ele>
        <time>2018-11-07T22:19:01.951Z</time>
      </trkpt>
      <trkpt lat="44.11694" lon="7.69813">
        <ele>1902.6187744141</ele>
        <time>2018-11-07T22:19:12.549Z</time>
      </trkpt>
      <trkpt lat="44.11687" lon="7.69824">
        <ele>1901.3912353516</ele>
        <time>2018-11-07T22:19:23.148Z</time>
      </trkpt>
      <trkpt lat="44.11687" lon="7.69824">
        <ele>1901.3826904297</ele>
        <time>2018-11-07T22:19:33.747Z</time>
      </trkpt>
      <trkpt lat="44.11687" lon="7.69825">
        <ele>1901.3110351562</ele>
        <time>2018-11-07T22:19:44.346Z</time>
      </trkpt>
      <trkpt lat="44.11677" lon="7.6984">
        <ele>1898.7086181641</ele>
        <time>2018-11-07T22:19:54.948Z</time>
      </trkpt>
      <trkpt lat="44.11666" lon="7.69845">
        <ele>1897.9138183594</ele>
        <time>2018-11-07T22:20:05.551Z</time>
      </trkpt>
      <trkpt lat="44.11666" lon="7.69845">
        <ele>1897.9093017578</ele>
        <time>2018-11-07T22:20:16.154Z</time>
      </trkpt>
      <trkpt lat="44.11664" lon="7.69846">
        <ele>1897.7797851562</ele>
        <time>2018-11-07T22:20:26.758Z</time>
      </trkpt>
      <trkpt lat="44.11653" lon="7.69849">
        <ele>1897.4300537109</ele>
        <time>2018-11-07T22:20:37.364Z</time>
      </trkpt>
      <trkpt lat="44.11653" lon="7.69849">
        <ele>1897.4279785156</ele>
        <time>2018-11-07T22:20:47.970Z</time>
      </trkpt>
      <trkpt lat="44.1165" lon="7.6985">
        <ele>1897.3245849609</ele>
        <time>2018-11-07T22:20:58.576Z</time>
      </trkpt>
      <trkpt lat="44.11641" lon="7.69859">
        <ele>1895.8154296875</ele>
        <time>2018-11-07T22:21:09.184Z</time>
      </trkpt>
      <trkpt lat="44.11641" lon="7.69859">
        <ele>1895.8063964844</ele>
        <time>2018-11-07T22:21:19.792Z</time>
      </trkpt>
      <trkpt lat="44.1164" lon="7.69861">
        <ele>1895.6379394531</ele>
        <time>2018-11-07T22:21:30.400Z</time>
      </trkpt>
      <trkpt lat="44.11635" lon="7.69873">
        <ele>1894.0407714844</ele>
        <time>2018-11-07T22:21:41.010Z</time>
      </trkpt>
      <trkpt lat="44.11634" lon="7.69876">
        <ele>1893.708984375</ele>
        <time>2018-11-07T22:21:51.620Z</time>
      </trkpt>
      <trkpt lat="44.11634" lon="7.69876">
        <ele>1893.6979980469</ele>
        <time>2018-11-07T22:22:02.230Z</time>
      </trkpt>
      <trkpt lat="44.11633" lon="7.69883">
        <ele>1892.8587646484</ele>
        <time>2018-11-07T22:22:12.841Z</time>
      </trkpt>
      <trkpt lat="44.11626" lon="7.6989">
        <ele>1892.1818847656</ele>
        <time>2018-11-07T22:22:23.453Z</time>
      </trkpt>
      <trkpt lat="44.11625" lon="7.69891">
        <ele>1892.1704101562</ele>
        <time>2018-11-07T22:22:34.065Z</time>
      </trkpt>
      <trkpt lat="44.11625" lon="7.69891">
        <ele>1892.1697998047</ele>
        <time>2018-11-07T22:22:44.677Z</time>
      </trkpt>
      <trkpt lat="44.11619" lon="7.69893">
        <ele>1892.1082763672</ele>
        <time>2018-11-07T22:22:55.290Z</time>
      </trkpt>
      <trkpt lat="44.11614" lon="7.69889">
        <ele>1892.9154052734</ele>
        <time>2018-11-07T22:23:05.904Z</time>
      </trkpt>
      <trkpt lat="44.11614" lon="7.69889">
        <ele>1892.9245605469</ele>
        <time>2018-11-07T22:23:16.518Z</time>
      </trkpt>
      <trkpt lat="44.1161" lon="7.69885">
        <ele>1893.6547851562</ele>
        <time>2018-11-07T22:23:27.133Z</time>
      </trkpt>
      <trkpt lat="44.11607" lon="7.69879">
        <ele>1894.8889160156</ele>
        <time>2018-11-07T22:23:37.749Z</time>
      </trkpt>
      <trkpt lat="44.11607" lon="7.69879">
        <ele>1894.9050292969</ele>
        <time>2018-11-07T22:23:48.365Z</time>
      </trkpt>
      <trkpt lat="44.11603" lon="7.69871">
        <ele>1896.6219482422</ele>
        <time>2018-11-07T22:23:58.982Z</time>
      </trkpt>
      <trkpt lat="44.11603" lon="7.69871">
        <ele>1896.6395263672</ele>
        <time>2018-11-07T22:24:09.599Z</time>
      </trkpt>
      <trkpt lat="44.11602" lon="7.69871">
        <ele>1896.7677001953</ele>
        <time>2018-11-07T22:24:20.216Z</time>
      </trkpt>
      <trkpt lat="44.11598" lon="7.69861">
        <ele>1898.6363525391</ele>
        <time>2018-11-07T22:24:30.835Z</time>
      </trkpt>
      <trkpt lat="44.11598" lon="7.69861">
        <ele>1898.6522216797</ele>
        <time>2018-11-07T22:24:41.454Z</time>
      </trkpt>
      <trkpt lat="44.11596" lon="7.69856">
        <ele>1899.6403808594</ele>
        <time>2018-11-07T22:24:52.073Z</time>
      </trkpt>
      <trkpt lat="44.11595" lon="7.69852">
        <ele>1900.4047851562</ele>
        <time>2018-11-07T22:25:02.693Z</time>
      </trkpt>
      <trkpt lat="44.11595" lon="7.69852">
        <ele>1900.4196777344</ele>
        <time>2018-11-07T22:25:13.313Z</time>
      </trkpt>
      <trkpt lat="44.11592" lon="7.69837">
        <ele>1902.8409423828</ele>
        <time>2018-11-07T22:25:23.935Z</time>
      </trkpt>
      <trkpt lat="44.11591" lon="7.69837">
        <ele>1902.8575439453</ele>
        <time>2018-11-07T22:25:34.557Z</time>
      </trkpt>
      <trkpt lat="44.11591" lon="7.69837">
        <ele>1902.9100341797</ele>
        <time>2018-11-07T22:25:45.179Z</time>
      </trkpt>
      <trkpt lat="44.11586" lon="7.69827">
        <ele>1905.6335449219</ele>
        <time>2018-11-07T22:25:55.802Z</time>
      </trkpt>
      <trkpt lat="44.11583" lon="7.69825">
        <ele>1906.4522705078</ele>
        <time>2018-11-07T22:26:06.426Z</time>
      </trkpt>
      <trkpt lat="44.11583" lon="7.69825">
        <ele>1906.4688720703</ele>
        <time>2018-11-07T22:26:17.050Z</time>
      </trkpt>
      <trkpt lat="44.11577" lon="7.69821">
        <ele>1908.0771484375</ele>
        <time>2018-11-07T22:26:27.675Z</time>
      </trkpt>
      <trkpt lat="44.11571" lon="7.6982">
        <ele>1909.0155029297</ele>
        <time>2018-11-07T22:26:38.301Z</time>
      </trkpt>
      <trkpt lat="44.11571" lon="7.6982">
        <ele>1909.0267333984</ele>
        <time>2018-11-07T22:26:48.927Z</time>
      </trkpt>
      <trkpt lat="44.11569" lon="7.6982">
        <ele>1909.3751220703</ele>
        <time>2018-11-07T22:26:59.553Z</time>
      </trkpt>
      <trkpt lat="44.11558" lon="7.69828">
        <ele>1909.6881103516</ele>
        <time>2018-11-07T22:27:10.181Z</time>
      </trkpt>
      <trkpt lat="44.11558" lon="7.69828">
        <ele>1909.6898193359</ele>
        <time>2018-11-07T22:27:20.809Z</time>
      </trkpt>
      <trkpt lat="44.1155" lon="7.69834">
        <ele>1909.9050292969</ele>
        <time>2018-11-07T22:27:31.438Z</time>
      </trkpt>
      <trkpt lat="44.1155" lon="7.69834">
        <ele>1909.8817138672</ele>
        <time>2018-11-07T22:27:42.067Z</time>
      </trkpt>
      <trkpt lat="44.1155" lon="7.69834">
        <ele>1909.8793945312</ele>
        <time>2018-11-07T22:27:52.696Z</time>
      </trkpt>
      <trkpt lat="44.11542" lon="7.69843">
        <ele>1909.8352050781</ele>
        <time>2018-11-07T22:28:03.327Z</time>
      </trkpt>
      <trkpt lat="44.11542" lon="7.69843">
        <ele>1909.8356933594</ele>
        <time>2018-11-07T22:28:13.958Z</time>
      </trkpt>
      <trkpt lat="44.11537" lon="7.69849">
        <ele>1909.9095458984</ele>
        <time>2018-11-07T22:28:24.590Z</time>
      </trkpt>
      <trkpt lat="44.11536" lon="7.6985">
        <ele>1909.9100341797</ele>
        <time>2018-11-07T22:28:35.222Z</time>
      </trkpt>
      <trkpt lat="44.11536" lon="7.6985">
        <ele>1909.91015625</ele>
        <time>2018-11-07T22:28:45.854Z</time>
      </trkpt>
      <trkpt lat="44.1153" lon="7.69858">
        <ele>1909.9154052734</ele>
        <time>2018-11-07T22:28:56.488Z</time>
      </trkpt>
      <trkpt lat="44.11526" lon="7.69874">
        <ele>1908.8266601562</ele>
        <time>2018-11-07T22:29:07.123Z</time>
      </trkpt>
      <trkpt lat="44.11526" lon="7.69874">
        <ele>1908.822265625</ele>
        <time>2018-11-07T22:29:17.759Z</time>
      </trkpt>
      <trkpt lat="44.11526" lon="7.69875">
        <ele>1908.8215332031</ele>
        <time>2018-11-07T22:29:28.395Z</time>
      </trkpt>
      <trkpt lat="44.11521" lon="7.69888">
        <ele>1908.7061767578</ele>
        <time>2018-11-07T22:29:39.032Z</time>
      </trkpt>
      <trkpt lat="44.11518" lon="7.69896">
        <ele>1908.7509765625</ele>
        <time>2018-11-07T22:29:49.670Z</time>
      </trkpt>
      <trkpt lat="44.11518" lon="7.69896">
        <ele>1908.7514648438</ele>
        <time>2018-11-07T22:30:00.308Z</time>
      </trkpt>
      <trkpt lat="44.11513" lon="7.69907">
        <ele>1908.8448486328</ele>
        <time>2018-11-07T22:30:10.948Z</time>
      </trkpt>
      <trkpt lat="44.11513" lon="7.69907">
        <ele>1908.8469238281</ele>
        <time>2018-11-07T22:30:21.588Z</time>
      </trkpt>
      <trkpt lat="44.11507" lon="7.6992">
        <ele>1909.1286621094</ele>
        <time>2018-11-07T22:30:32.230Z</time>
      </trkpt>
      <trkpt lat="44.11507" lon="7.69922">
        <ele>1909.1912841797</ele>
        <time>2018-11-07T22:30:42.872Z</time>
      </trkpt>
      <trkpt lat="44.11507" lon="7.69922">
        <ele>1909.1940917969</ele>
        <time>2018-11-07T22:30:53.514Z</time>
      </trkpt>
      <trkpt lat="44.11501" lon="7.69936">
        <ele>1909.673828125</ele>
        <time>2018-11-07T22:31:04.158Z</time>
      </trkpt>
      <trkpt lat="44.11501" lon="7.69936">
        <ele>1909.6766357422</ele>
        <time>2018-11-07T22:31:14.802Z</time>
      </trkpt>
      <trkpt lat="44.11491" lon="7.69959">
        <ele>1910.4787597656</ele>
        <time>2018-11-07T22:31:25.449Z</time>
      </trkpt>
      <trkpt lat="44.11488" lon="7.69967">
        <ele>1910.7677001953</ele>
        <time>2018-11-07T22:31:36.097Z</time>
      </trkpt>
      <trkpt lat="44.11488" lon="7.69967">
        <ele>1910.7697753906</ele>
        <time>2018-11-07T22:31:46.745Z</time>
      </trkpt>
      <trkpt lat="44.11484" lon="7.69975">
        <ele>1910.9754638672</ele>
        <time>2018-11-07T22:31:57.394Z</time>
      </trkpt>
      <trkpt lat="44.11478" lon="7.6999">
        <ele>1911.0284423828</ele>
        <time>2018-11-07T22:32:08.045Z</time>
      </trkpt>
      <trkpt lat="44.11468" lon="7.70002">
        <ele>1912.978515625</ele>
        <time>2018-11-07T22:32:18.698Z</time>
      </trkpt>
      <trkpt lat="44.11467" lon="7.70002">
        <ele>1912.9880371094</ele>
        <time>2018-11-07T22:32:29.351Z</time>
      </trkpt>
      <trkpt lat="44.11466" lon="7.70004">
        <ele>1913.2677001953</ele>
        <time>2018-11-07T22:32:40.004Z</time>
      </trkpt>
      <trkpt lat="44.11457" lon="7.70012">
        <ele>1914.9720458984</ele>
        <time>2018-11-07T22:32:50.659Z</time>
      </trkpt>
      <trkpt lat="44.11456" lon="7.70012">
        <ele>1914.9821777344</ele>
        <time>2018-11-07T22:33:01.314Z</time>
      </trkpt>
      <trkpt lat="44.11452" lon="7.70016">
        <ele>1916.0051269531</ele>
        <time>2018-11-07T22:33:11.970Z</time>
      </trkpt>
      <trkpt lat="44.11448" lon="7.70025">
        <ele>1916.5063476562</ele>
        <time>2018-11-07T22:33:22.627Z</time>
      </trkpt>
      <trkpt lat="44.11448" lon="7.70025">
        <ele>1916.5108642578</ele>
        <time>2018-11-07T22:33:33.284Z</time>
      </trkpt>
      <trkpt lat="44.11447" lon="7.70028">
        <ele>1916.7110595703</ele>
        <time>2018-11-07T22:33:43.942Z</time>
      </trkpt>
      <trkpt lat="44.11445" lon="7.70038">
        <ele>1916.6151123047</ele>
        <time>2018-11-07T22:33:54.601Z</time>
      </trkpt>
      <trkpt lat="44.11446" lon="7.70045">
        <ele>1915.4897460938</ele>
        <time>2018-11-07T22:34:05.261Z</time>
      </trkpt>
      <trkpt lat="44.11446" lon="7.70046">
        <ele>1915.4750976562</ele>
        <time>2018-11-07T22:34:15.921Z</time>
      </trkpt>
      <trkpt lat="44.1145" lon="7.70068">
        <ele>1912.3150634766</ele>
        <time>2018-11-07T22:34:26.583Z</time>
      </trkpt>
      <trkpt lat="44.1145" lon="7.70068">
        <ele>1912.2978515625</ele>
        <time>2018-11-07T22:34:37.245Z</time>
      </trkpt>
      <trkpt lat="44.11452" lon="7.70079">
        <ele>1910.7338867188</ele>
        <time>2018-11-07T22:34:47.909Z</time>
      </trkpt>
      <trkpt lat="44.11452" lon="7.70081">
        <ele>1910.3859863281</ele>
        <time>2018-11-07T22:34:58.573Z</time>
      </trkpt>
      <trkpt lat="44.11452" lon="7.70082">
        <ele>1910.3724365234</ele>
        <time>2018-11-07T22:35:09.237Z</time>
      </trkpt>
      <trkpt lat="44.11454" lon="7.70091">
        <ele>1909.1630859375</ele>
        <time>2018-11-07T22:35:19.902Z</time>
      </trkpt>
      <trkpt lat="44.11454" lon="7.70091">
        <ele>1909.1486816406</ele>
        <time>2018-11-07T22:35:30.567Z</time>
      </trkpt>
      <trkpt lat="44.11458" lon="7.70122">
        <ele>1905.6202392578</ele>
        <time>2018-11-07T22:35:41.236Z</time>
      </trkpt>
      <trkpt lat="44.11457" lon="7.70133">
        <ele>1905.2384033203</ele>
        <time>2018-11-07T22:35:51.906Z</time>
      </trkpt>
      <trkpt lat="44.11457" lon="7.70133">
        <ele>1905.2347412109</ele>
        <time>2018-11-07T22:36:02.576Z</time>
      </trkpt>
      <trkpt lat="44.11457" lon="7.70139">
        <ele>1905.0202636719</ele>
        <time>2018-11-07T22:36:13.247Z</time>
      </trkpt>
      <trkpt lat="44.11452" lon="7.70152">
        <ele>1905.9346923828</ele>
        <time>2018-11-07T22:36:23.919Z</time>
      </trkpt>
      <trkpt lat="44.11444" lon="7.70162">
        <ele>1908.3636474609</ele>
        <time>2018-11-07T22:36:34.593Z</time>
      </trkpt>
      <trkpt lat="44.11439" lon="7.70164">
        <ele>1909.9481201172</ele>
        <time>2018-11-07T22:36:45.268Z</time>
      </trkpt>
      <trkpt lat="44.11439" lon="7.70164">
        <ele>1909.9694824219</ele>
        <time>2018-11-07T22:36:55.943Z</time>
      </trkpt>
      <trkpt lat="44.1143" lon="7.70168">
        <ele>1912.1278076172</ele>
        <time>2018-11-07T22:37:06.619Z</time>
      </trkpt>
      <trkpt lat="44.11427" lon="7.70171">
        <ele>1912.7099609375</ele>
        <time>2018-11-07T22:37:17.296Z</time>
      </trkpt>
      <trkpt lat="44.11427" lon="7.70171">
        <ele>1912.7174072266</ele>
        <time>2018-11-07T22:37:27.973Z</time>
      </trkpt>
      <trkpt lat="44.11422" lon="7.70176">
        <ele>1913.3127441406</ele>
        <time>2018-11-07T22:37:38.651Z</time>
      </trkpt>
      <trkpt lat="44.11419" lon="7.70181">
        <ele>1913.4145507812</ele>
        <time>2018-11-07T22:37:49.330Z</time>
      </trkpt>
      <trkpt lat="44.11419" lon="7.70181">
        <ele>1913.4162597656</ele>
        <time>2018-11-07T22:38:00.009Z</time>
      </trkpt>
      <trkpt lat="44.11412" lon="7.70191">
        <ele>1913.6517333984</ele>
        <time>2018-11-07T22:38:10.689Z</time>
      </trkpt>
      <trkpt lat="44.11412" lon="7.70191">
        <ele>1913.6535644531</ele>
        <time>2018-11-07T22:38:21.369Z</time>
      </trkpt>
      <trkpt lat="44.11405" lon="7.70202">
        <ele>1913.8771972656</ele>
        <time>2018-11-07T22:38:32.051Z</time>
      </trkpt>
      <trkpt lat="44.11402" lon="7.70206">
        <ele>1913.8902587891</ele>
        <time>2018-11-07T22:38:42.734Z</time>
      </trkpt>
      <trkpt lat="44.11402" lon="7.70206">
        <ele>1913.8905029297</ele>
        <time>2018-11-07T22:38:53.417Z</time>
      </trkpt>
      <trkpt lat="44.11396" lon="7.70216">
        <ele>1914.4331054688</ele>
        <time>2018-11-07T22:39:04.101Z</time>
      </trkpt>
      <trkpt lat="44.11396" lon="7.70217">
        <ele>1914.4398193359</ele>
        <time>2018-11-07T22:39:14.785Z</time>
      </trkpt>
      <trkpt lat="44.11392" lon="7.70223">
        <ele>1914.9713134766</ele>
        <time>2018-11-07T22:39:25.470Z</time>
      </trkpt>
      <trkpt lat="44.11383" lon="7.70246">
        <ele>1915.01953125</ele>
        <time>2018-11-07T22:39:36.158Z</time>
      </trkpt>
      <trkpt lat="44.11383" lon="7.70247">
        <ele>1915.0196533203</ele>
        <time>2018-11-07T22:39:46.846Z</time>
      </trkpt>
      <trkpt lat="44.11373" lon="7.70271">
        <ele>1914.7557373047</ele>
        <time>2018-11-07T22:39:57.538Z</time>
      </trkpt>
      <trkpt lat="44.11373" lon="7.70271">
        <ele>1914.7572021484</ele>
        <time>2018-11-07T22:40:08.230Z</time>
      </trkpt>
      <trkpt lat="44.11367" lon="7.70289">
        <ele>1914.9575195312</ele>
        <time>2018-11-07T22:40:18.924Z</time>
      </trkpt>
      <trkpt lat="44.11347" lon="7.70336">
        <ele>1914.2229003906</ele>
        <time>2018-11-07T22:40:29.624Z</time>
      </trkpt>
      <trkpt lat="44.11346" lon="7.70336">
        <ele>1914.2164306641</ele>
        <time>2018-11-07T22:40:40.324Z</time>
      </trkpt>
      <trkpt lat="44.11313" lon="7.70415">
        <ele>1906.7183837891</ele>
        <time>2018-11-07T22:40:51.035Z</time>
      </trkpt>
      <trkpt lat="44.11306" lon="7.7043">
        <ele>1905.6062011719</ele>
        <time>2018-11-07T22:41:01.748Z</time>
      </trkpt>
      <trkpt lat="44.1129" lon="7.70459">
        <ele>1904.0910644531</ele>
        <time>2018-11-07T22:41:12.465Z</time>
      </trkpt>
      <trkpt lat="44.1129" lon="7.7046">
        <ele>1904.0880126953</ele>
        <time>2018-11-07T22:41:23.182Z</time>
      </trkpt>
      <trkpt lat="44.11282" lon="7.70474">
        <ele>1903.5858154297</ele>
        <time>2018-11-07T22:41:33.901Z</time>
      </trkpt>
      <trkpt lat="44.11282" lon="7.70474">
        <ele>1903.5814208984</ele>
        <time>2018-11-07T22:41:44.620Z</time>
      </trkpt>
      <trkpt lat="44.11273" lon="7.70492">
        <ele>1901.5070800781</ele>
        <time>2018-11-07T22:41:55.342Z</time>
      </trkpt>
      <trkpt lat="44.11263" lon="7.70503">
        <ele>1897.05078125</ele>
        <time>2018-11-07T22:42:06.066Z</time>
      </trkpt>
      <trkpt lat="44.11248" lon="7.7051">
        <ele>1892.8502197266</ele>
        <time>2018-11-07T22:42:16.792Z</time>
      </trkpt>
      <trkpt lat="44.11237" lon="7.7051">
        <ele>1890.5631103516</ele>
        <time>2018-11-07T22:42:27.520Z</time>
      </trkpt>
      <trkpt lat="44.11237" lon="7.7051">
        <ele>1890.5473632812</ele>
        <time>2018-11-07T22:42:38.248Z</time>
      </trkpt>
      <trkpt lat="44.11236" lon="7.7051">
        <ele>1890.2657470703</ele>
        <time>2018-11-07T22:42:48.976Z</time>
      </trkpt>
      <trkpt lat="44.11226" lon="7.70501">
        <ele>1889.8823242188</ele>
        <time>2018-11-07T22:42:59.706Z</time>
      </trkpt>
      <trkpt lat="44.11226" lon="7.70501">
        <ele>1889.8851318359</ele>
        <time>2018-11-07T22:43:10.436Z</time>
      </trkpt>
      <trkpt lat="44.11226" lon="7.705">
        <ele>1889.8889160156</ele>
        <time>2018-11-07T22:43:21.166Z</time>
      </trkpt>
      <trkpt lat="44.11216" lon="7.70485">
        <ele>1892.0856933594</ele>
        <time>2018-11-07T22:43:31.899Z</time>
      </trkpt>
      <trkpt lat="44.11216" lon="7.70484">
        <ele>1892.0965576172</ele>
        <time>2018-11-07T22:43:42.632Z</time>
      </trkpt>
      <trkpt lat="44.11214" lon="7.70481">
        <ele>1892.5563964844</ele>
        <time>2018-11-07T22:43:53.365Z</time>
      </trkpt>
      <trkpt lat="44.1121" lon="7.7047">
        <ele>1894.7001953125</ele>
        <time>2018-11-07T22:44:04.100Z</time>
      </trkpt>
      <trkpt lat="44.1121" lon="7.7047">
        <ele>1894.7180175781</ele>
        <time>2018-11-07T22:44:14.835Z</time>
      </trkpt>
      <trkpt lat="44.11208" lon="7.70465">
        <ele>1895.6665039062</ele>
        <time>2018-11-07T22:44:25.570Z</time>
      </trkpt>
      <trkpt lat="44.11205" lon="7.70455">
        <ele>1897.7628173828</ele>
        <time>2018-11-07T22:44:36.306Z</time>
      </trkpt>
      <trkpt lat="44.11205" lon="7.70455">
        <ele>1897.7836914062</ele>
        <time>2018-11-07T22:44:47.042Z</time>
      </trkpt>
      <trkpt lat="44.11198" lon="7.70431">
        <ele>1902.9122314453</ele>
        <time>2018-11-07T22:44:57.781Z</time>
      </trkpt>
      <trkpt lat="44.11198" lon="7.70431">
        <ele>1902.9130859375</ele>
        <time>2018-11-07T22:45:08.520Z</time>
      </trkpt>
      <trkpt lat="44.11198" lon="7.70431">
        <ele>1902.9150390625</ele>
        <time>2018-11-07T22:45:19.259Z</time>
      </trkpt>
      <trkpt lat="44.11188" lon="7.70421">
        <ele>1904.2498779297</ele>
        <time>2018-11-07T22:45:30.000Z</time>
      </trkpt>
      <trkpt lat="44.11188" lon="7.7042">
        <ele>1904.2625732422</ele>
        <time>2018-11-07T22:45:40.741Z</time>
      </trkpt>
      <trkpt lat="44.11188" lon="7.7042">
        <ele>1904.2698974609</ele>
        <time>2018-11-07T22:45:51.482Z</time>
      </trkpt>
      <trkpt lat="44.11168" lon="7.70405">
        <ele>1904.7919921875</ele>
        <time>2018-11-07T22:46:02.227Z</time>
      </trkpt>
      <trkpt lat="44.11164" lon="7.70404">
        <ele>1904.4996337891</ele>
        <time>2018-11-07T22:46:12.973Z</time>
      </trkpt>
      <trkpt lat="44.11164" lon="7.70404">
        <ele>1904.4936523438</ele>
        <time>2018-11-07T22:46:23.719Z</time>
      </trkpt>
      <trkpt lat="44.11152" lon="7.70402">
        <ele>1903.4749755859</ele>
        <time>2018-11-07T22:46:34.467Z</time>
      </trkpt>
      <trkpt lat="44.11152" lon="7.70402">
        <ele>1903.4693603516</ele>
        <time>2018-11-07T22:46:45.215Z</time>
      </trkpt>
      <trkpt lat="44.11146" lon="7.70401">
        <ele>1903.0106201172</ele>
        <time>2018-11-07T22:46:55.964Z</time>
      </trkpt>
      <trkpt lat="44.11131" lon="7.704">
        <ele>1901.7004394531</ele>
        <time>2018-11-07T22:47:06.715Z</time>
      </trkpt>
      <trkpt lat="44.11129" lon="7.70399">
        <ele>1901.5853271484</ele>
        <time>2018-11-07T22:47:17.466Z</time>
      </trkpt>
      <trkpt lat="44.11129" lon="7.70399">
        <ele>1901.5811767578</ele>
        <time>2018-11-07T22:47:28.217Z</time>
      </trkpt>
      <trkpt lat="44.1111" lon="7.70393">
        <ele>1900.4916992188</ele>
        <time>2018-11-07T22:47:38.971Z</time>
      </trkpt>
      <trkpt lat="44.11107" lon="7.70391">
        <ele>1900.5130615234</ele>
        <time>2018-11-07T22:47:49.726Z</time>
      </trkpt>
      <trkpt lat="44.11107" lon="7.70391">
        <ele>1900.513671875</ele>
        <time>2018-11-07T22:48:00.481Z</time>
      </trkpt>
      <trkpt lat="44.11095" lon="7.70381">
        <ele>1900.6218261719</ele>
        <time>2018-11-07T22:48:11.238Z</time>
      </trkpt>
      <trkpt lat="44.11095" lon="7.70381">
        <ele>1900.6224365234</ele>
        <time>2018-11-07T22:48:21.995Z</time>
      </trkpt>
      <trkpt lat="44.1109" lon="7.70378">
        <ele>1900.6579589844</ele>
        <time>2018-11-07T22:48:32.753Z</time>
      </trkpt>
      <trkpt lat="44.11076" lon="7.70367">
        <ele>1900.8865966797</ele>
        <time>2018-11-07T22:48:43.514Z</time>
      </trkpt>
      <trkpt lat="44.11076" lon="7.70367">
        <ele>1900.8017578125</ele>
        <time>2018-11-07T22:48:54.275Z</time>
      </trkpt>
      <trkpt lat="44.11076" lon="7.70367">
        <ele>1900.7921142578</ele>
        <time>2018-11-07T22:49:05.036Z</time>
      </trkpt>
      <trkpt lat="44.1106" lon="7.70366">
        <ele>1898.9895019531</ele>
        <time>2018-11-07T22:49:15.799Z</time>
      </trkpt>
      <trkpt lat="44.11054" lon="7.70364">
        <ele>1898.6405029297</ele>
        <time>2018-11-07T22:49:26.563Z</time>
      </trkpt>
      <trkpt lat="44.11053" lon="7.70364">
        <ele>1898.638671875</ele>
        <time>2018-11-07T22:49:37.327Z</time>
      </trkpt>
      <trkpt lat="44.11041" lon="7.7036">
        <ele>1898.3697509766</ele>
        <time>2018-11-07T22:49:48.093Z</time>
      </trkpt>
      <trkpt lat="44.11038" lon="7.70358">
        <ele>1898.3502197266</ele>
        <time>2018-11-07T22:49:58.860Z</time>
      </trkpt>
      <trkpt lat="44.11038" lon="7.70358">
        <ele>1898.3498535156</ele>
        <time>2018-11-07T22:50:09.627Z</time>
      </trkpt>
      <trkpt lat="44.11022" lon="7.7035">
        <ele>1898.7850341797</ele>
        <time>2018-11-07T22:50:20.397Z</time>
      </trkpt>
      <trkpt lat="44.11022" lon="7.7035">
        <ele>1898.794921875</ele>
        <time>2018-11-07T22:50:31.167Z</time>
      </trkpt>
      <trkpt lat="44.11018" lon="7.70348">
        <ele>1899.3049316406</ele>
        <time>2018-11-07T22:50:41.937Z</time>
      </trkpt>
      <trkpt lat="44.11004" lon="7.70342">
        <ele>1900.8035888672</ele>
        <time>2018-11-07T22:50:52.710Z</time>
      </trkpt>
      <trkpt lat="44.11004" lon="7.70342">
        <ele>1900.8134765625</ele>
        <time>2018-11-07T22:51:03.483Z</time>
      </trkpt>
      <trkpt lat="44.1099" lon="7.70335">
        <ele>1902.4641113281</ele>
        <time>2018-11-07T22:51:14.258Z</time>
      </trkpt>
      <trkpt lat="44.1098" lon="7.70334">
        <ele>1903.0590820312</ele>
        <time>2018-11-07T22:51:25.035Z</time>
      </trkpt>
      <trkpt lat="44.1098" lon="7.70334">
        <ele>1903.0649414062</ele>
        <time>2018-11-07T22:51:35.812Z</time>
      </trkpt>
      <trkpt lat="44.10967" lon="7.70334">
        <ele>1903.8686523438</ele>
        <time>2018-11-07T22:51:46.591Z</time>
      </trkpt>
      <trkpt lat="44.10951" lon="7.70335">
        <ele>1904.7103271484</ele>
        <time>2018-11-07T22:51:57.372Z</time>
      </trkpt>
      <trkpt lat="44.10951" lon="7.70336">
        <ele>1904.7192382812</ele>
        <time>2018-11-07T22:52:08.153Z</time>
      </trkpt>
      <trkpt lat="44.10951" lon="7.70336">
        <ele>1904.7204589844</ele>
        <time>2018-11-07T22:52:18.934Z</time>
      </trkpt>
      <trkpt lat="44.10941" lon="7.70339">
        <ele>1905.1049804688</ele>
        <time>2018-11-07T22:52:29.717Z</time>
      </trkpt>
      <trkpt lat="44.10932" lon="7.70349">
        <ele>1905.5216064453</ele>
        <time>2018-11-07T22:52:40.502Z</time>
      </trkpt>
      <trkpt lat="44.10932" lon="7.7035">
        <ele>1905.5065917969</ele>
        <time>2018-11-07T22:52:51.287Z</time>
      </trkpt>
      <trkpt lat="44.10931" lon="7.7035">
        <ele>1905.5056152344</ele>
        <time>2018-11-07T22:53:02.072Z</time>
      </trkpt>
      <trkpt lat="44.10921" lon="7.70367">
        <ele>1905.3327636719</ele>
        <time>2018-11-07T22:53:12.860Z</time>
      </trkpt>
      <trkpt lat="44.10921" lon="7.70367">
        <ele>1905.3316650391</ele>
        <time>2018-11-07T22:53:23.648Z</time>
      </trkpt>
      <trkpt lat="44.10921" lon="7.70367">
        <ele>1905.3310546875</ele>
        <time>2018-11-07T22:53:34.436Z</time>
      </trkpt>
      <trkpt lat="44.10913" lon="7.70376">
        <ele>1905.4896240234</ele>
        <time>2018-11-07T22:53:45.225Z</time>
      </trkpt>
      <trkpt lat="44.10913" lon="7.70377">
        <ele>1905.4912109375</ele>
        <time>2018-11-07T22:53:56.014Z</time>
      </trkpt>
      <trkpt lat="44.10907" lon="7.70384">
        <ele>1905.6079101562</ele>
        <time>2018-11-07T22:54:06.804Z</time>
      </trkpt>
      <trkpt lat="44.10904" lon="7.70385">
        <ele>1906.0087890625</ele>
        <time>2018-11-07T22:54:17.595Z</time>
      </trkpt>
      <trkpt lat="44.10904" lon="7.70385">
        <ele>1906.01953125</ele>
        <time>2018-11-07T22:54:28.386Z</time>
      </trkpt>
      <trkpt lat="44.10891" lon="7.70389">
        <ele>1907.3748779297</ele>
        <time>2018-11-07T22:54:39.179Z</time>
      </trkpt>
      <trkpt lat="44.10887" lon="7.70389">
        <ele>1908.0875244141</ele>
        <time>2018-11-07T22:54:49.973Z</time>
      </trkpt>
      <trkpt lat="44.10886" lon="7.70389">
        <ele>1908.1027832031</ele>
        <time>2018-11-07T22:55:00.767Z</time>
      </trkpt>
      <trkpt lat="44.10875" lon="7.70391">
        <ele>1909.7377929688</ele>
        <time>2018-11-07T22:55:11.563Z</time>
      </trkpt>
      <trkpt lat="44.10869" lon="7.70394">
        <ele>1910.2457275391</ele>
        <time>2018-11-07T22:55:22.360Z</time>
      </trkpt>
      <trkpt lat="44.10869" lon="7.70394">
        <ele>1910.2534179688</ele>
        <time>2018-11-07T22:55:33.157Z</time>
      </trkpt>
      <trkpt lat="44.10853" lon="7.70401">
        <ele>1913.1129150391</ele>
        <time>2018-11-07T22:55:43.956Z</time>
      </trkpt>
      <trkpt lat="44.10853" lon="7.70401">
        <ele>1913.1424560547</ele>
        <time>2018-11-07T22:55:54.755Z</time>
      </trkpt>
      <trkpt lat="44.10851" lon="7.70402">
        <ele>1913.8380126953</ele>
        <time>2018-11-07T22:56:05.555Z</time>
      </trkpt>
      <trkpt lat="44.10839" lon="7.70409">
        <ele>1918.3562011719</ele>
        <time>2018-11-07T22:56:16.357Z</time>
      </trkpt>
      <trkpt lat="44.10839" lon="7.70409">
        <ele>1918.39453125</ele>
        <time>2018-11-07T22:56:27.159Z</time>
      </trkpt>
      <trkpt lat="44.1083" lon="7.70414">
        <ele>1921.6939697266</ele>
        <time>2018-11-07T22:56:37.962Z</time>
      </trkpt>
      <trkpt lat="44.10822" lon="7.70419">
        <ele>1925.0155029297</ele>
        <time>2018-11-07T22:56:48.767Z</time>
      </trkpt>
      <trkpt lat="44.10817" lon="7.70427">
        <ele>1926.0196533203</ele>
        <time>2018-11-07T22:56:59.573Z</time>
      </trkpt>
      <trkpt lat="44.10817" lon="7.70427">
        <ele>1926.0325927734</ele>
        <time>2018-11-07T22:57:10.379Z</time>
      </trkpt>
      <trkpt lat="44.10813" lon="7.70434">
        <ele>1926.8696289062</ele>
        <time>2018-11-07T22:57:21.186Z</time>
      </trkpt>
      <trkpt lat="44.10812" lon="7.70456">
        <ele>1923.7377929688</ele>
        <time>2018-11-07T22:57:31.996Z</time>
      </trkpt>
      <trkpt lat="44.10812" lon="7.70456">
        <ele>1923.7189941406</ele>
        <time>2018-11-07T22:57:42.806Z</time>
      </trkpt>
      <trkpt lat="44.10812" lon="7.70458">
        <ele>1923.4796142578</ele>
        <time>2018-11-07T22:57:53.616Z</time>
      </trkpt>
      <trkpt lat="44.10812" lon="7.70469">
        <ele>1921.7092285156</ele>
        <time>2018-11-07T22:58:04.427Z</time>
      </trkpt>
      <trkpt lat="44.10812" lon="7.70469">
        <ele>1921.6861572266</ele>
        <time>2018-11-07T22:58:15.238Z</time>
      </trkpt>
      <trkpt lat="44.10812" lon="7.70488">
        <ele>1918.5087890625</ele>
        <time>2018-11-07T22:58:26.051Z</time>
      </trkpt>
      <trkpt lat="44.10812" lon="7.70489">
        <ele>1918.4813232422</ele>
        <time>2018-11-07T22:58:36.864Z</time>
      </trkpt>
      <trkpt lat="44.10812" lon="7.70489">
        <ele>1918.4417724609</ele>
        <time>2018-11-07T22:58:47.677Z</time>
      </trkpt>
      <trkpt lat="44.10805" lon="7.7051">
        <ele>1917.9890136719</ele>
        <time>2018-11-07T22:58:58.493Z</time>
      </trkpt>
      <trkpt lat="44.10805" lon="7.7051">
        <ele>1917.9797363281</ele>
        <time>2018-11-07T22:59:09.309Z</time>
      </trkpt>
      <trkpt lat="44.10802" lon="7.70518">
        <ele>1917.3944091797</ele>
        <time>2018-11-07T22:59:20.126Z</time>
      </trkpt>
      <trkpt lat="44.10796" lon="7.70539">
        <ele>1916.380859375</ele>
        <time>2018-11-07T22:59:30.946Z</time>
      </trkpt>
      <trkpt lat="44.10796" lon="7.70539">
        <ele>1916.3775634766</ele>
        <time>2018-11-07T22:59:41.766Z</time>
      </trkpt>
      <trkpt lat="44.10789" lon="7.70563">
        <ele>1915.7834472656</ele>
        <time>2018-11-07T22:59:52.589Z</time>
      </trkpt>
      <trkpt lat="44.10787" lon="7.70568">
        <ele>1916.1605224609</ele>
        <time>2018-11-07T23:00:03.412Z</time>
      </trkpt>
      <trkpt lat="44.10787" lon="7.70568">
        <ele>1916.1690673828</ele>
        <time>2018-11-07T23:00:14.235Z</time>
      </trkpt>
      <trkpt lat="44.10781" lon="7.7058">
        <ele>1917.0710449219</ele>
        <time>2018-11-07T23:00:25.060Z</time>
      </trkpt>
      <trkpt lat="44.10767" lon="7.70605">
        <ele>1918.1759033203</ele>
        <time>2018-11-07T23:00:35.889Z</time>
      </trkpt>
      <trkpt lat="44.10766" lon="7.70607">
        <ele>1918.2052001953</ele>
        <time>2018-11-07T23:00:46.718Z</time>
      </trkpt>
      <trkpt lat="44.10766" lon="7.70607">
        <ele>1918.2072753906</ele>
        <time>2018-11-07T23:00:57.547Z</time>
      </trkpt>
      <trkpt lat="44.10757" lon="7.70624">
        <ele>1918.5045166016</ele>
        <time>2018-11-07T23:01:08.378Z</time>
      </trkpt>
      <trkpt lat="44.10757" lon="7.70624">
        <ele>1918.5064697266</ele>
        <time>2018-11-07T23:01:19.209Z</time>
      </trkpt>
      <trkpt lat="44.10745" lon="7.70646">
        <ele>1919.1557617188</ele>
        <time>2018-11-07T23:01:30.044Z</time>
      </trkpt>
      <trkpt lat="44.10744" lon="7.70649">
        <ele>1919.2077636719</ele>
        <time>2018-11-07T23:01:40.879Z</time>
      </trkpt>
      <trkpt lat="44.10744" lon="7.70649">
        <ele>1919.2099609375</ele>
        <time>2018-11-07T23:01:51.714Z</time>
      </trkpt>
      <trkpt lat="44.10738" lon="7.70663">
        <ele>1919.4605712891</ele>
        <time>2018-11-07T23:02:02.551Z</time>
      </trkpt>
      <trkpt lat="44.1073" lon="7.70695">
        <ele>1918.2736816406</ele>
        <time>2018-11-07T23:02:13.392Z</time>
      </trkpt>
      <trkpt lat="44.1073" lon="7.70696">
        <ele>1918.2698974609</ele>
        <time>2018-11-07T23:02:24.233Z</time>
      </trkpt>
      <trkpt lat="44.10725" lon="7.70714">
        <ele>1916.9652099609</ele>
        <time>2018-11-07T23:02:35.076Z</time>
      </trkpt>
      <trkpt lat="44.10725" lon="7.70714">
        <ele>1916.9442138672</ele>
        <time>2018-11-07T23:02:45.919Z</time>
      </trkpt>
      <trkpt lat="44.10714" lon="7.70757">
        <ele>1912.6739501953</ele>
        <time>2018-11-07T23:02:56.767Z</time>
      </trkpt>
      <trkpt lat="44.10707" lon="7.70775">
        <ele>1912.4908447266</ele>
        <time>2018-11-07T23:03:07.618Z</time>
      </trkpt>
      <trkpt lat="44.10692" lon="7.70798">
        <ele>1916.0775146484</ele>
        <time>2018-11-07T23:03:18.472Z</time>
      </trkpt>
      <trkpt lat="44.10691" lon="7.708">
        <ele>1916.2911376953</ele>
        <time>2018-11-07T23:03:29.327Z</time>
      </trkpt>
      <trkpt lat="44.10691" lon="7.708">
        <ele>1916.3023681641</ele>
        <time>2018-11-07T23:03:40.182Z</time>
      </trkpt>
      <trkpt lat="44.10681" lon="7.70815">
        <ele>1917.8822021484</ele>
        <time>2018-11-07T23:03:51.039Z</time>
      </trkpt>
      <trkpt lat="44.10681" lon="7.70815">
        <ele>1917.8936767578</ele>
        <time>2018-11-07T23:04:01.896Z</time>
      </trkpt>
      <trkpt lat="44.10679" lon="7.70818">
        <ele>1918.2341308594</ele>
        <time>2018-11-07T23:04:12.753Z</time>
      </trkpt>
      <trkpt lat="44.10669" lon="7.70842">
        <ele>1917.4732666016</ele>
        <time>2018-11-07T23:04:23.614Z</time>
      </trkpt>
      <trkpt lat="44.10669" lon="7.70842">
        <ele>1917.4608154297</ele>
        <time>2018-11-07T23:04:34.475Z</time>
      </trkpt>
      <trkpt lat="44.1066" lon="7.70866">
        <ele>1915.0686035156</ele>
        <time>2018-11-07T23:04:45.339Z</time>
      </trkpt>
      <trkpt lat="44.1066" lon="7.70866">
        <ele>1915.0521240234</ele>
        <time>2018-11-07T23:04:56.203Z</time>
      </trkpt>
      <trkpt lat="44.10658" lon="7.70871">
        <ele>1914.5902099609</ele>
        <time>2018-11-07T23:05:07.067Z</time>
      </trkpt>
      <trkpt lat="44.10652" lon="7.70883">
        <ele>1913.8988037109</ele>
        <time>2018-11-07T23:05:17.933Z</time>
      </trkpt>
      <trkpt lat="44.1063" lon="7.70908">
        <ele>1916.3764648438</ele>
        <time>2018-11-07T23:05:28.804Z</time>
      </trkpt>
      <trkpt lat="44.1063" lon="7.70908">
        <ele>1916.3854980469</ele>
        <time>2018-11-07T23:05:39.675Z</time>
      </trkpt>
      <trkpt lat="44.10622" lon="7.70917">
        <ele>1917.3237304688</ele>
        <time>2018-11-07T23:05:50.547Z</time>
      </trkpt>
      <trkpt lat="44.10622" lon="7.70917">
        <ele>1917.3336181641</ele>
        <time>2018-11-07T23:06:01.419Z</time>
      </trkpt>
      <trkpt lat="44.10585" lon="7.70959">
        <ele>1921.3781738281</ele>
        <time>2018-11-07T23:06:12.299Z</time>
      </trkpt>
      <trkpt lat="44.10576" lon="7.70972">
        <ele>1921.5737304688</ele>
        <time>2018-11-07T23:06:23.181Z</time>
      </trkpt>
      <trkpt lat="44.10567" lon="7.70993">
        <ele>1915.6827392578</ele>
        <time>2018-11-07T23:06:34.066Z</time>
      </trkpt>
      <trkpt lat="44.10562" lon="7.71002">
        <ele>1913.6381835938</ele>
        <time>2018-11-07T23:06:44.952Z</time>
      </trkpt>
      <trkpt lat="44.10562" lon="7.71002">
        <ele>1913.6125488281</ele>
        <time>2018-11-07T23:06:55.838Z</time>
      </trkpt>
      <trkpt lat="44.10558" lon="7.71008">
        <ele>1912.6375732422</ele>
        <time>2018-11-07T23:07:06.725Z</time>
      </trkpt>
      <trkpt lat="44.10552" lon="7.71015">
        <ele>1912.6665039062</ele>
        <time>2018-11-07T23:07:17.613Z</time>
      </trkpt>
      <trkpt lat="44.10552" lon="7.71015">
        <ele>1912.6668701172</ele>
        <time>2018-11-07T23:07:28.501Z</time>
      </trkpt>
      <trkpt lat="44.10545" lon="7.71022">
        <ele>1912.7004394531</ele>
        <time>2018-11-07T23:07:39.391Z</time>
      </trkpt>
      <trkpt lat="44.10538" lon="7.71029">
        <ele>1911.3221435547</ele>
        <time>2018-11-07T23:07:50.282Z</time>
      </trkpt>
      <trkpt lat="44.10538" lon="7.71029">
        <ele>1911.3054199219</ele>
        <time>2018-11-07T23:08:01.173Z</time>
      </trkpt>
      <trkpt lat="44.10535" lon="7.71033">
        <ele>1910.5407714844</ele>
        <time>2018-11-07T23:08:12.065Z</time>
      </trkpt>
      <trkpt lat="44.10526" lon="7.71039">
        <ele>1909.5734863281</ele>
        <time>2018-11-07T23:08:22.958Z</time>
      </trkpt>
      <trkpt lat="44.10526" lon="7.71039">
        <ele>1909.53125</ele>
        <time>2018-11-07T23:08:33.851Z</time>
      </trkpt>
      <trkpt lat="44.1052" lon="7.71043">
        <ele>1906.7275390625</ele>
        <time>2018-11-07T23:08:44.745Z</time>
      </trkpt>
      <trkpt lat="44.10511" lon="7.71047">
        <ele>1903.3292236328</ele>
        <time>2018-11-07T23:08:55.641Z</time>
      </trkpt>
      <trkpt lat="44.10511" lon="7.71047">
        <ele>1903.2890625</ele>
        <time>2018-11-07T23:09:06.537Z</time>
      </trkpt>
      <trkpt lat="44.1051" lon="7.71048">
        <ele>1903.0249023438</ele>
        <time>2018-11-07T23:09:17.433Z</time>
      </trkpt>
      <trkpt lat="44.10502" lon="7.71049">
        <ele>1901.0621337891</ele>
        <time>2018-11-07T23:09:28.330Z</time>
      </trkpt>
      <trkpt lat="44.10498" lon="7.71046">
        <ele>1901.5668945312</ele>
        <time>2018-11-07T23:09:39.228Z</time>
      </trkpt>
      <trkpt lat="44.10498" lon="7.71046">
        <ele>1901.5811767578</ele>
        <time>2018-11-07T23:09:50.126Z</time>
      </trkpt>
      <trkpt lat="44.10494" lon="7.71043">
        <ele>1902.1520996094</ele>
        <time>2018-11-07T23:10:01.025Z</time>
      </trkpt>
      <trkpt lat="44.10485" lon="7.71033">
        <ele>1904.6472167969</ele>
        <time>2018-11-07T23:10:11.926Z</time>
      </trkpt>
      <trkpt lat="44.10485" lon="7.71033">
        <ele>1904.6705322266</ele>
        <time>2018-11-07T23:10:22.827Z</time>
      </trkpt>
      <trkpt lat="44.10477" lon="7.71024">
        <ele>1906.8051757812</ele>
        <time>2018-11-07T23:10:33.729Z</time>
      </trkpt>
      <trkpt lat="44.10477" lon="7.71024">
        <ele>1906.8293457031</ele>
        <time>2018-11-07T23:10:44.631Z</time>
      </trkpt>
      <trkpt lat="44.10471" lon="7.71016">
        <ele>1908.5968017578</ele>
        <time>2018-11-07T23:10:55.535Z</time>
      </trkpt>
      <trkpt lat="44.1047" lon="7.71016">
        <ele>1908.6236572266</ele>
        <time>2018-11-07T23:11:06.439Z</time>
      </trkpt>
      <trkpt lat="44.10464" lon="7.71009">
        <ele>1910.380859375</ele>
        <time>2018-11-07T23:11:17.344Z</time>
      </trkpt>
      <trkpt lat="44.10464" lon="7.71009">
        <ele>1910.4083251953</ele>
        <time>2018-11-07T23:11:28.249Z</time>
      </trkpt>
      <trkpt lat="44.10461" lon="7.71006">
        <ele>1911.0706787109</ele>
        <time>2018-11-07T23:11:39.154Z</time>
      </trkpt>
      <trkpt lat="44.10448" lon="7.70992">
        <ele>1915.6789550781</ele>
        <time>2018-11-07T23:11:50.062Z</time>
      </trkpt>
      <trkpt lat="44.10432" lon="7.70979">
        <ele>1917.2977294922</ele>
        <time>2018-11-07T23:12:00.973Z</time>
      </trkpt>
      <trkpt lat="44.10428" lon="7.70978">
        <ele>1916.6798095703</ele>
        <time>2018-11-07T23:12:11.885Z</time>
      </trkpt>
      <trkpt lat="44.10428" lon="7.70978">
        <ele>1916.658203125</ele>
        <time>2018-11-07T23:12:22.797Z</time>
      </trkpt>
      <trkpt lat="44.10412" lon="7.70974">
        <ele>1914.2916259766</ele>
        <time>2018-11-07T23:12:33.711Z</time>
      </trkpt>
      <trkpt lat="44.10411" lon="7.70974">
        <ele>1914.2960205078</ele>
        <time>2018-11-07T23:12:44.625Z</time>
      </trkpt>
      <trkpt lat="44.10405" lon="7.70972">
        <ele>1914.5375976562</ele>
        <time>2018-11-07T23:12:55.541Z</time>
      </trkpt>
      <trkpt lat="44.10393" lon="7.70971">
        <ele>1914.5716552734</ele>
        <time>2018-11-07T23:13:06.458Z</time>
      </trkpt>
      <trkpt lat="44.10393" lon="7.70971">
        <ele>1914.5718994141</ele>
        <time>2018-11-07T23:13:17.375Z</time>
      </trkpt>
      <trkpt lat="44.10384" lon="7.70971">
        <ele>1914.5969238281</ele>
        <time>2018-11-07T23:13:28.294Z</time>
      </trkpt>
      <trkpt lat="44.10367" lon="7.70966">
        <ele>1915.2082519531</ele>
        <time>2018-11-07T23:13:39.216Z</time>
      </trkpt>
      <trkpt lat="44.10366" lon="7.70966">
        <ele>1915.2084960938</ele>
        <time>2018-11-07T23:13:50.138Z</time>
      </trkpt>
      <trkpt lat="44.10366" lon="7.70966">
        <ele>1915.2087402344</ele>
        <time>2018-11-07T23:14:01.060Z</time>
      </trkpt>
      <trkpt lat="44.10352" lon="7.70965">
        <ele>1915.7215576172</ele>
        <time>2018-11-07T23:14:11.984Z</time>
      </trkpt>
      <trkpt lat="44.10346" lon="7.70962">
        <ele>1916.6131591797</ele>
        <time>2018-11-07T23:14:22.909Z</time>
      </trkpt>
      <trkpt lat="44.10346" lon="7.70962">
        <ele>1916.6300048828</ele>
        <time>2018-11-07T23:14:33.834Z</time>
      </trkpt>
      <trkpt lat="44.10342" lon="7.7096">
        <ele>1917.2319335938</ele>
        <time>2018-11-07T23:14:44.760Z</time>
      </trkpt>
      <trkpt lat="44.1033" lon="7.70952">
        <ele>1919.3106689453</ele>
        <time>2018-11-07T23:14:55.688Z</time>
      </trkpt>
      <trkpt lat="44.1033" lon="7.70952">
        <ele>1919.3289794922</ele>
        <time>2018-11-07T23:15:06.616Z</time>
      </trkpt>
      <trkpt lat="44.10316" lon="7.70944">
        <ele>1921.5531005859</ele>
        <time>2018-11-07T23:15:17.546Z</time>
      </trkpt>
      <trkpt lat="44.10316" lon="7.70944">
        <ele>1921.5705566406</ele>
        <time>2018-11-07T23:15:28.476Z</time>
      </trkpt>
      <trkpt lat="44.10308" lon="7.70939">
        <ele>1922.8565673828</ele>
        <time>2018-11-07T23:15:39.408Z</time>
      </trkpt>
      <trkpt lat="44.10306" lon="7.70938">
        <ele>1923.1400146484</ele>
        <time>2018-11-07T23:15:50.340Z</time>
      </trkpt>
      <trkpt lat="44.10306" lon="7.70938">
        <ele>1923.1553955078</ele>
        <time>2018-11-07T23:16:01.272Z</time>
      </trkpt>
      <trkpt lat="44.10295" lon="7.70933">
        <ele>1924.6179199219</ele>
        <time>2018-11-07T23:16:12.206Z</time>
      </trkpt>
      <trkpt lat="44.1028" lon="7.7093">
        <ele>1926.4893798828</ele>
        <time>2018-11-07T23:16:23.142Z</time>
      </trkpt>
      <trkpt lat="44.10271" lon="7.70935">
        <ele>1929.4799804688</ele>
        <time>2018-11-07T23:16:34.080Z</time>
      </trkpt>
      <trkpt lat="44.10271" lon="7.70935">
        <ele>1929.5308837891</ele>
        <time>2018-11-07T23:16:45.018Z</time>
      </trkpt>
      <trkpt lat="44.1027" lon="7.70935">
        <ele>1929.8735351562</ele>
        <time>2018-11-07T23:16:55.956Z</time>
      </trkpt>
      <trkpt lat="44.10263" lon="7.70946">
        <ele>1932.4440917969</ele>
        <time>2018-11-07T23:17:06.896Z</time>
      </trkpt>
      <trkpt lat="44.10262" lon="7.70949">
        <ele>1932.4484863281</ele>
        <time>2018-11-07T23:17:17.836Z</time>
      </trkpt>
      <trkpt lat="44.10262" lon="7.70949">
        <ele>1932.4487304688</ele>
        <time>2018-11-07T23:17:28.776Z</time>
      </trkpt>
      <trkpt lat="44.1026" lon="7.70962">
        <ele>1932.4669189453</ele>
        <time>2018-11-07T23:17:39.718Z</time>
      </trkpt>
      <trkpt lat="44.10259" lon="7.70969">
        <ele>1932.0147705078</ele>
        <time>2018-11-07T23:17:50.661Z</time>
      </trkpt>
      <trkpt lat="44.10259" lon="7.7097">
        <ele>1932.0046386719</ele>
        <time>2018-11-07T23:18:01.604Z</time>
      </trkpt>
      <trkpt lat="44.10258" lon="7.70985">
        <ele>1931.1519775391</ele>
        <time>2018-11-07T23:18:12.548Z</time>
      </trkpt>
      <trkpt lat="44.10258" lon="7.70985">
        <ele>1931.1560058594</ele>
        <time>2018-11-07T23:18:23.492Z</time>
      </trkpt>
      <trkpt lat="44.10258" lon="7.70986">
        <ele>1931.1875</ele>
        <time>2018-11-07T23:18:34.436Z</time>
      </trkpt>
      <trkpt lat="44.10257" lon="7.70999">
        <ele>1931.0426025391</ele>
        <time>2018-11-07T23:18:45.382Z</time>
      </trkpt>
      <trkpt lat="44.10257" lon="7.71">
        <ele>1931.0405273438</ele>
        <time>2018-11-07T23:18:56.328Z</time>
      </trkpt>
      <trkpt lat="44.10257" lon="7.71015">
        <ele>1929.8601074219</ele>
        <time>2018-11-07T23:19:07.276Z</time>
      </trkpt>
      <trkpt lat="44.10257" lon="7.71016">
        <ele>1929.8399658203</ele>
        <time>2018-11-07T23:19:18.224Z</time>
      </trkpt>
      <trkpt lat="44.10257" lon="7.7102">
        <ele>1929.4162597656</ele>
        <time>2018-11-07T23:19:29.172Z</time>
      </trkpt>
      <trkpt lat="44.10255" lon="7.7104">
        <ele>1928.0217285156</ele>
        <time>2018-11-07T23:19:40.123Z</time>
      </trkpt>
      <trkpt lat="44.10255" lon="7.7104">
        <ele>1928.0093994141</ele>
        <time>2018-11-07T23:19:51.074Z</time>
      </trkpt>
      <trkpt lat="44.10254" lon="7.71059">
        <ele>1926.7082519531</ele>
        <time>2018-11-07T23:20:02.027Z</time>
      </trkpt>
      <trkpt lat="44.10253" lon="7.71074">
        <ele>1925.7869873047</ele>
        <time>2018-11-07T23:20:12.982Z</time>
      </trkpt>
      <trkpt lat="44.10253" lon="7.71074">
        <ele>1925.7757568359</ele>
        <time>2018-11-07T23:20:23.937Z</time>
      </trkpt>
      <trkpt lat="44.10251" lon="7.71103">
        <ele>1923.7808837891</ele>
        <time>2018-11-07T23:20:34.895Z</time>
      </trkpt>
      <trkpt lat="44.1025" lon="7.71113">
        <ele>1922.9002685547</ele>
        <time>2018-11-07T23:20:45.854Z</time>
      </trkpt>
      <trkpt lat="44.1025" lon="7.71113">
        <ele>1922.8850097656</ele>
        <time>2018-11-07T23:20:56.813Z</time>
      </trkpt>
      <trkpt lat="44.10249" lon="7.71134">
        <ele>1921.0697021484</ele>
        <time>2018-11-07T23:21:07.775Z</time>
      </trkpt>
      <trkpt lat="44.1025" lon="7.71157">
        <ele>1917.1328125</ele>
        <time>2018-11-07T23:21:18.739Z</time>
      </trkpt>
      <trkpt lat="44.10251" lon="7.71157">
        <ele>1917.099609375</ele>
        <time>2018-11-07T23:21:29.703Z</time>
      </trkpt>
      <trkpt lat="44.10251" lon="7.71159">
        <ele>1916.6655273438</ele>
        <time>2018-11-07T23:21:40.667Z</time>
      </trkpt>
      <trkpt lat="44.1025" lon="7.71174">
        <ele>1914.8947753906</ele>
        <time>2018-11-07T23:21:51.633Z</time>
      </trkpt>
      <trkpt lat="44.10247" lon="7.71188">
        <ele>1913.5931396484</ele>
        <time>2018-11-07T23:22:02.601Z</time>
      </trkpt>
      <trkpt lat="44.10247" lon="7.71188">
        <ele>1913.5766601562</ele>
        <time>2018-11-07T23:22:13.569Z</time>
      </trkpt>
      <trkpt lat="44.10242" lon="7.71212">
        <ele>1911.3012695312</ele>
        <time>2018-11-07T23:22:24.540Z</time>
      </trkpt>
      <trkpt lat="44.10242" lon="7.71212">
        <ele>1911.2818603516</ele>
        <time>2018-11-07T23:22:35.511Z</time>
      </trkpt>
      <trkpt lat="44.1024" lon="7.7122">
        <ele>1910.7368164062</ele>
        <time>2018-11-07T23:22:46.483Z</time>
      </trkpt>
      <trkpt lat="44.10238" lon="7.71226">
        <ele>1911.4267578125</ele>
        <time>2018-11-07T23:22:57.455Z</time>
      </trkpt>
      <trkpt lat="44.10238" lon="7.71226">
        <ele>1911.4468994141</ele>
        <time>2018-11-07T23:23:08.427Z</time>
      </trkpt>
      <trkpt lat="44.10233" lon="7.7124">
        <ele>1913.2265625</ele>
        <time>2018-11-07T23:23:19.401Z</time>
      </trkpt>
      <trkpt lat="44.10219" lon="7.71265">
        <ele>1917.6461181641</ele>
        <time>2018-11-07T23:23:30.379Z</time>
      </trkpt>
      <trkpt lat="44.10219" lon="7.71265">
        <ele>1917.6633300781</ele>
        <time>2018-11-07T23:23:41.357Z</time>
      </trkpt>
      <trkpt lat="44.10212" lon="7.71278">
        <ele>1920.1761474609</ele>
        <time>2018-11-07T23:23:52.337Z</time>
      </trkpt>
      <trkpt lat="44.1021" lon="7.71283">
        <ele>1921.1158447266</ele>
        <time>2018-11-07T23:24:03.318Z</time>
      </trkpt>
      <trkpt lat="44.1021" lon="7.71284">
        <ele>1921.1448974609</ele>
        <time>2018-11-07T23:24:14.299Z</time>
      </trkpt>
      <trkpt lat="44.10204" lon="7.71302">
        <ele>1924.4360351562</ele>
        <time>2018-11-07T23:24:25.282Z</time>
      </trkpt>
      <trkpt lat="44.10201" lon="7.71322">
        <ele>1926.2495117188</ele>
        <time>2018-11-07T23:24:36.267Z</time>
      </trkpt>
      <trkpt lat="44.10202" lon="7.71329">
        <ele>1924.7458496094</ele>
        <time>2018-11-07T23:24:47.253Z</time>
      </trkpt>
      <trkpt lat="44.10202" lon="7.71329">
        <ele>1924.7086181641</ele>
        <time>2018-11-07T23:24:58.239Z</time>
      </trkpt>
      <trkpt lat="44.10204" lon="7.71337">
        <ele>1922.9427490234</ele>
        <time>2018-11-07T23:25:09.226Z</time>
      </trkpt>
      <trkpt lat="44.10208" lon="7.71351">
        <ele>1917.6300048828</ele>
        <time>2018-11-07T23:25:20.215Z</time>
      </trkpt>
      <trkpt lat="44.10208" lon="7.71354">
        <ele>1917.3548583984</ele>
        <time>2018-11-07T23:25:31.204Z</time>
      </trkpt>
      <trkpt lat="44.10208" lon="7.71354">
        <ele>1917.3358154297</ele>
        <time>2018-11-07T23:25:42.193Z</time>
      </trkpt>
      <trkpt lat="44.10208" lon="7.71374">
        <ele>1915.1604003906</ele>
        <time>2018-11-07T23:25:53.184Z</time>
      </trkpt>
      <trkpt lat="44.10208" lon="7.71375">
        <ele>1915.140625</ele>
        <time>2018-11-07T23:26:04.175Z</time>
      </trkpt>
      <trkpt lat="44.10208" lon="7.71381">
        <ele>1914.4219970703</ele>
        <time>2018-11-07T23:26:15.167Z</time>
      </trkpt>
      <trkpt lat="44.10208" lon="7.7139">
        <ele>1913.578125</ele>
        <time>2018-11-07T23:26:26.160Z</time>
      </trkpt>
      <trkpt lat="44.10208" lon="7.7139">
        <ele>1913.5609130859</ele>
        <time>2018-11-07T23:26:37.153Z</time>
      </trkpt>
      <trkpt lat="44.10208" lon="7.71405">
        <ele>1912.1237792969</ele>
        <time>2018-11-07T23:26:48.148Z</time>
      </trkpt>
      <trkpt lat="44.10208" lon="7.71405">
        <ele>1912.1043701172</ele>
        <time>2018-11-07T23:26:59.143Z</time>
      </trkpt>
      <trkpt lat="44.10208" lon="7.71417">
        <ele>1911.0236816406</ele>
        <time>2018-11-07T23:27:10.139Z</time>
      </trkpt>
      <trkpt lat="44.10206" lon="7.71435">
        <ele>1910.4567871094</ele>
        <time>2018-11-07T23:27:21.137Z</time>
      </trkpt>
      <trkpt lat="44.10206" lon="7.71435">
        <ele>1910.4287109375</ele>
        <time>2018-11-07T23:27:32.136Z</time>
      </trkpt>
      <trkpt lat="44.10204" lon="7.71449">
        <ele>1908.2489013672</ele>
        <time>2018-11-07T23:27:43.136Z</time>
      </trkpt>
      <trkpt lat="44.10199" lon="7.71469">
        <ele>1906.7940673828</ele>
        <time>2018-11-07T23:27:54.139Z</time>
      </trkpt>
      <trkpt lat="44.10199" lon="7.71469">
        <ele>1906.7817382812</ele>
        <time>2018-11-07T23:28:05.142Z</time>
      </trkpt>
      <trkpt lat="44.10197" lon="7.71476">
        <ele>1906.2640380859</ele>
        <time>2018-11-07T23:28:16.145Z</time>
      </trkpt>
      <trkpt lat="44.10187" lon="7.71497">
        <ele>1906.6337890625</ele>
        <time>2018-11-07T23:28:27.151Z</time>
      </trkpt>
      <trkpt lat="44.10187" lon="7.71497">
        <ele>1906.6313476562</ele>
        <time>2018-11-07T23:28:38.157Z</time>
      </trkpt>
      <trkpt lat="44.10184" lon="7.71506">
        <ele>1906.5625</ele>
        <time>2018-11-07T23:28:49.164Z</time>
      </trkpt>
      <trkpt lat="44.10177" lon="7.71512">
        <ele>1908.5870361328</ele>
        <time>2018-11-07T23:29:00.173Z</time>
      </trkpt>
      <trkpt lat="44.10172" lon="7.71517">
        <ele>1910.4144287109</ele>
        <time>2018-11-07T23:29:11.183Z</time>
      </trkpt>
      <trkpt lat="44.10172" lon="7.71517">
        <ele>1910.4539794922</ele>
        <time>2018-11-07T23:29:22.193Z</time>
      </trkpt>
      <trkpt lat="44.10162" lon="7.71525">
        <ele>1913.9951171875</ele>
        <time>2018-11-07T23:29:33.205Z</time>
      </trkpt>
      <trkpt lat="44.10157" lon="7.71536">
        <ele>1914.7165527344</ele>
        <time>2018-11-07T23:29:44.218Z</time>
      </trkpt>
      <trkpt lat="44.10157" lon="7.71542">
        <ele>1913.7741699219</ele>
        <time>2018-11-07T23:29:55.232Z</time>
      </trkpt>
      <trkpt lat="44.10157" lon="7.71542">
        <ele>1913.7457275391</ele>
        <time>2018-11-07T23:30:06.246Z</time>
      </trkpt>
      <trkpt lat="44.10157" lon="7.71552">
        <ele>1912.0744628906</ele>
        <time>2018-11-07T23:30:17.261Z</time>
      </trkpt>
      <trkpt lat="44.10157" lon="7.71553">
        <ele>1912.0435791016</ele>
        <time>2018-11-07T23:30:28.276Z</time>
      </trkpt>
      <trkpt lat="44.10157" lon="7.71557">
        <ele>1911.396484375</ele>
        <time>2018-11-07T23:30:39.291Z</time>
      </trkpt>
      <trkpt lat="44.10161" lon="7.71573">
        <ele>1906.6619873047</ele>
        <time>2018-11-07T23:30:50.308Z</time>
      </trkpt>
      <trkpt lat="44.10162" lon="7.71576">
        <ele>1905.7725830078</ele>
        <time>2018-11-07T23:31:01.326Z</time>
      </trkpt>
      <trkpt lat="44.10162" lon="7.71576">
        <ele>1905.7144775391</ele>
        <time>2018-11-07T23:31:12.344Z</time>
      </trkpt>
      <trkpt lat="44.10166" lon="7.71587">
        <ele>1901.6221923828</ele>
        <time>2018-11-07T23:31:23.363Z</time>
      </trkpt>
      <trkpt lat="44.10166" lon="7.71587">
        <ele>1901.5904541016</ele>
        <time>2018-11-07T23:31:34.382Z</time>
      </trkpt>
      <trkpt lat="44.10174" lon="7.71605">
        <ele>1899.1981201172</ele>
        <time>2018-11-07T23:31:45.404Z</time>
      </trkpt>
      <trkpt lat="44.10174" lon="7.71605">
        <ele>1899.1745605469</ele>
        <time>2018-11-07T23:31:56.426Z</time>
      </trkpt>
      <trkpt lat="44.10174" lon="7.71607">
        <ele>1899.0028076172</ele>
        <time>2018-11-07T23:32:07.448Z</time>
      </trkpt>
      <trkpt lat="44.10179" lon="7.71621">
        <ele>1897.6961669922</ele>
        <time>2018-11-07T23:32:18.472Z</time>
      </trkpt>
      <trkpt lat="44.10179" lon="7.71621">
        <ele>1897.6812744141</ele>
        <time>2018-11-07T23:32:29.496Z</time>
      </trkpt>
      <trkpt lat="44.10188" lon="7.7165">
        <ele>1895.1038818359</ele>
        <time>2018-11-07T23:32:40.523Z</time>
      </trkpt>
      <trkpt lat="44.10191" lon="7.71655">
        <ele>1894.2489013672</ele>
        <time>2018-11-07T23:32:51.551Z</time>
      </trkpt>
      <trkpt lat="44.10191" lon="7.71656">
        <ele>1894.2265625</ele>
        <time>2018-11-07T23:33:02.579Z</time>
      </trkpt>
      <trkpt lat="44.10197" lon="7.71671">
        <ele>1892.2142333984</ele>
        <time>2018-11-07T23:33:13.609Z</time>
      </trkpt>
      <trkpt lat="44.1021" lon="7.71681">
        <ele>1888.5462646484</ele>
        <time>2018-11-07T23:33:24.641Z</time>
      </trkpt>
      <trkpt lat="44.10216" lon="7.7168">
        <ele>1885.4781494141</ele>
        <time>2018-11-07T23:33:35.674Z</time>
      </trkpt>
      <trkpt lat="44.10217" lon="7.7168">
        <ele>1885.4154052734</ele>
        <time>2018-11-07T23:33:46.708Z</time>
      </trkpt>
      <trkpt lat="44.10231" lon="7.7168">
        <ele>1878.4279785156</ele>
        <time>2018-11-07T23:33:57.744Z</time>
      </trkpt>
      <trkpt lat="44.10234" lon="7.71683">
        <ele>1877.7430419922</ele>
        <time>2018-11-07T23:34:08.780Z</time>
      </trkpt>
      <trkpt lat="44.10234" lon="7.71683">
        <ele>1877.7178955078</ele>
        <time>2018-11-07T23:34:19.816Z</time>
      </trkpt>
      <trkpt lat="44.10246" lon="7.71694">
        <ele>1874.9223632812</ele>
        <time>2018-11-07T23:34:30.855Z</time>
      </trkpt>
      <trkpt lat="44.10246" lon="7.71694">
        <ele>1874.8972167969</ele>
        <time>2018-11-07T23:34:41.894Z</time>
      </trkpt>
      <trkpt lat="44.10246" lon="7.71695">
        <ele>1874.8671875</ele>
        <time>2018-11-07T23:34:52.933Z</time>
      </trkpt>
      <trkpt lat="44.10263" lon="7.71711">
        <ele>1871.142578125</ele>
        <time>2018-11-07T23:35:03.975Z</time>
      </trkpt>
      <trkpt lat="44.10263" lon="7.71711">
        <ele>1871.119140625</ele>
        <time>2018-11-07T23:35:15.017Z</time>
      </trkpt>
      <trkpt lat="44.10263" lon="7.71712">
        <ele>1871.0579833984</ele>
        <time>2018-11-07T23:35:26.059Z</time>
      </trkpt>
      <trkpt lat="44.1028" lon="7.71716">
        <ele>1864.3572998047</ele>
        <time>2018-11-07T23:35:37.104Z</time>
      </trkpt>
      <trkpt lat="44.1028" lon="7.71717">
        <ele>1864.3190917969</ele>
        <time>2018-11-07T23:35:48.149Z</time>
      </trkpt>
      <trkpt lat="44.1028" lon="7.71717">
        <ele>1864.3139648438</ele>
        <time>2018-11-07T23:35:59.194Z</time>
      </trkpt>
      <trkpt lat="44.10291" lon="7.71732">
        <ele>1863.7210693359</ele>
        <time>2018-11-07T23:36:10.241Z</time>
      </trkpt>
      <trkpt lat="44.10293" lon="7.7174">
        <ele>1864.685546875</ele>
        <time>2018-11-07T23:36:21.289Z</time>
      </trkpt>
      <trkpt lat="44.10293" lon="7.7174">
        <ele>1864.7067871094</ele>
        <time>2018-11-07T23:36:32.337Z</time>
      </trkpt>
      <trkpt lat="44.10297" lon="7.71753">
        <ele>1866.4040527344</ele>
        <time>2018-11-07T23:36:43.387Z</time>
      </trkpt>
      <trkpt lat="44.10297" lon="7.71762">
        <ele>1868.1485595703</ele>
        <time>2018-11-07T23:36:54.438Z</time>
      </trkpt>
      <trkpt lat="44.10297" lon="7.71762">
        <ele>1868.1829833984</ele>
        <time>2018-11-07T23:37:05.489Z</time>
      </trkpt>
      <trkpt lat="44.10297" lon="7.71776">
        <ele>1870.1556396484</ele>
        <time>2018-11-07T23:37:16.542Z</time>
      </trkpt>
      <trkpt lat="44.10297" lon="7.71784">
        <ele>1869.2589111328</ele>
        <time>2018-11-07T23:37:27.596Z</time>
      </trkpt>
      <trkpt lat="44.10297" lon="7.71785">
        <ele>1869.2392578125</ele>
        <time>2018-11-07T23:37:38.650Z</time>
      </trkpt>
      <trkpt lat="44.10297" lon="7.71807">
        <ele>1866.7794189453</ele>
        <time>2018-11-07T23:37:49.706Z</time>
      </trkpt>
      <trkpt lat="44.10297" lon="7.71807">
        <ele>1866.7574462891</ele>
        <time>2018-11-07T23:38:00.762Z</time>
      </trkpt>
      <trkpt lat="44.10298" lon="7.7183">
        <ele>1864.2530517578</ele>
        <time>2018-11-07T23:38:11.821Z</time>
      </trkpt>
      <trkpt lat="44.10298" lon="7.7183">
        <ele>1864.2249755859</ele>
        <time>2018-11-07T23:38:22.880Z</time>
      </trkpt>
      <trkpt lat="44.10298" lon="7.71834">
        <ele>1863.8651123047</ele>
        <time>2018-11-07T23:38:33.939Z</time>
      </trkpt>
      <trkpt lat="44.10295" lon="7.71846">
        <ele>1863.6027832031</ele>
        <time>2018-11-07T23:38:45.000Z</time>
      </trkpt>
      <trkpt lat="44.10287" lon="7.7185">
        <ele>1863.9737548828</ele>
        <time>2018-11-07T23:38:56.062Z</time>
      </trkpt>
      <trkpt lat="44.10277" lon="7.7185">
        <ele>1863.0124511719</ele>
        <time>2018-11-07T23:39:07.126Z</time>
      </trkpt>
      <trkpt lat="44.10266" lon="7.71847">
        <ele>1864.7064208984</ele>
        <time>2018-11-07T23:39:18.191Z</time>
      </trkpt>
      <trkpt lat="44.10266" lon="7.71847">
        <ele>1864.7268066406</ele>
        <time>2018-11-07T23:39:29.256Z</time>
      </trkpt>
      <trkpt lat="44.10257" lon="7.71845">
        <ele>1866.1812744141</ele>
        <time>2018-11-07T23:39:40.323Z</time>
      </trkpt>
      <trkpt lat="44.10257" lon="7.71845">
        <ele>1866.2000732422</ele>
        <time>2018-11-07T23:39:51.390Z</time>
      </trkpt>
      <trkpt lat="44.10255" lon="7.71845">
        <ele>1866.4436035156</ele>
        <time>2018-11-07T23:40:02.457Z</time>
      </trkpt>
      <trkpt lat="44.10249" lon="7.71845">
        <ele>1867.2144775391</ele>
        <time>2018-11-07T23:40:13.525Z</time>
      </trkpt>
      <trkpt lat="44.10249" lon="7.71845">
        <ele>1867.2297363281</ele>
        <time>2018-11-07T23:40:24.593Z</time>
      </trkpt>
      <trkpt lat="44.10239" lon="7.71844">
        <ele>1868.3985595703</ele>
        <time>2018-11-07T23:40:35.663Z</time>
      </trkpt>
      <trkpt lat="44.10239" lon="7.71844">
        <ele>1868.4130859375</ele>
        <time>2018-11-07T23:40:46.733Z</time>
      </trkpt>
      <trkpt lat="44.10231" lon="7.71844">
        <ele>1869.3631591797</ele>
        <time>2018-11-07T23:40:57.804Z</time>
      </trkpt>
      <trkpt lat="44.10217" lon="7.7185">
        <ele>1869.4029541016</ele>
        <time>2018-11-07T23:41:08.877Z</time>
      </trkpt>
      <trkpt lat="44.10217" lon="7.7185">
        <ele>1869.4030761719</ele>
        <time>2018-11-07T23:41:19.950Z</time>
      </trkpt>
      <trkpt lat="44.10217" lon="7.7185">
        <ele>1869.3946533203</ele>
        <time>2018-11-07T23:41:31.023Z</time>
      </trkpt>
      <trkpt lat="44.10199" lon="7.71867">
        <ele>1866.8137207031</ele>
        <time>2018-11-07T23:41:42.100Z</time>
      </trkpt>
      <trkpt lat="44.10197" lon="7.71869">
        <ele>1866.4559326172</ele>
        <time>2018-11-07T23:41:53.177Z</time>
      </trkpt>
      <trkpt lat="44.10197" lon="7.7187">
        <ele>1866.4371337891</ele>
        <time>2018-11-07T23:42:04.254Z</time>
      </trkpt>
      <trkpt lat="44.10186" lon="7.71882">
        <ele>1863.0069580078</ele>
        <time>2018-11-07T23:42:15.334Z</time>
      </trkpt>
      <trkpt lat="44.10186" lon="7.71882">
        <ele>1862.96875</ele>
        <time>2018-11-07T23:42:26.414Z</time>
      </trkpt>
      <trkpt lat="44.10185" lon="7.71883">
        <ele>1862.6437988281</ele>
        <time>2018-11-07T23:42:37.494Z</time>
      </trkpt>
      <trkpt lat="44.10171" lon="7.71901">
        <ele>1856.9288330078</ele>
        <time>2018-11-07T23:42:48.577Z</time>
      </trkpt>
      <trkpt lat="44.10169" lon="7.71901">
        <ele>1856.7507324219</ele>
        <time>2018-11-07T23:42:59.660Z</time>
      </trkpt>
      <trkpt lat="44.10169" lon="7.71901">
        <ele>1856.7352294922</ele>
        <time>2018-11-07T23:43:10.743Z</time>
      </trkpt>
      <trkpt lat="44.1016" lon="7.71904">
        <ele>1855.6822509766</ele>
        <time>2018-11-07T23:43:21.828Z</time>
      </trkpt>
      <trkpt lat="44.10152" lon="7.71905">
        <ele>1855.0748291016</ele>
        <time>2018-11-07T23:43:32.914Z</time>
      </trkpt>
      <trkpt lat="44.10151" lon="7.71905">
        <ele>1855.0654296875</ele>
        <time>2018-11-07T23:43:44.000Z</time>
      </trkpt>
      <trkpt lat="44.10144" lon="7.71906">
        <ele>1854.5775146484</ele>
        <time>2018-11-07T23:43:55.087Z</time>
      </trkpt>
      <trkpt lat="44.10132" lon="7.71903">
        <ele>1854.5943603516</ele>
        <time>2018-11-07T23:44:06.176Z</time>
      </trkpt>
      <trkpt lat="44.10132" lon="7.71903">
        <ele>1854.5944824219</ele>
        <time>2018-11-07T23:44:17.265Z</time>
      </trkpt>
      <trkpt lat="44.10127" lon="7.71902">
        <ele>1854.6024169922</ele>
        <time>2018-11-07T23:44:28.355Z</time>
      </trkpt>
      <trkpt lat="44.10123" lon="7.71898">
        <ele>1855.0651855469</ele>
        <time>2018-11-07T23:44:39.446Z</time>
      </trkpt>
      <trkpt lat="44.10123" lon="7.71898">
        <ele>1855.0794677734</ele>
        <time>2018-11-07T23:44:50.537Z</time>
      </trkpt>
      <trkpt lat="44.10114" lon="7.71892">
        <ele>1856.0491943359</ele>
        <time>2018-11-07T23:45:01.629Z</time>
      </trkpt>
      <trkpt lat="44.10109" lon="7.71886">
        <ele>1856.611328125</ele>
        <time>2018-11-07T23:45:12.722Z</time>
      </trkpt>
      <trkpt lat="44.10109" lon="7.71886">
        <ele>1856.5963134766</ele>
        <time>2018-11-07T23:45:23.815Z</time>
      </trkpt>
      <trkpt lat="44.10094" lon="7.71872">
        <ele>1854.6663818359</ele>
        <time>2018-11-07T23:45:34.911Z</time>
      </trkpt>
      <trkpt lat="44.10094" lon="7.71872">
        <ele>1854.6512451172</ele>
        <time>2018-11-07T23:45:46.007Z</time>
      </trkpt>
      <trkpt lat="44.10093" lon="7.7187">
        <ele>1854.4602050781</ele>
        <time>2018-11-07T23:45:57.104Z</time>
      </trkpt>
      <trkpt lat="44.10084" lon="7.71859">
        <ele>1853.6740722656</ele>
        <time>2018-11-07T23:46:08.202Z</time>
      </trkpt>
      <trkpt lat="44.10084" lon="7.71859">
        <ele>1853.6651611328</ele>
        <time>2018-11-07T23:46:19.301Z</time>
      </trkpt>
      <trkpt lat="44.10071" lon="7.71843">
        <ele>1852.5343017578</ele>
        <time>2018-11-07T23:46:30.402Z</time>
      </trkpt>
      <trkpt lat="44.10063" lon="7.71836">
        <ele>1851.7902832031</ele>
        <time>2018-11-07T23:46:41.505Z</time>
      </trkpt>
      <trkpt lat="44.10063" lon="7.71836">
        <ele>1851.7985839844</ele>
        <time>2018-11-07T23:46:52.608Z</time>
      </trkpt>
      <trkpt lat="44.10051" lon="7.71824">
        <ele>1852.6693115234</ele>
        <time>2018-11-07T23:47:03.713Z</time>
      </trkpt>
      <trkpt lat="44.10039" lon="7.71812">
        <ele>1853.8410644531</ele>
        <time>2018-11-07T23:47:14.821Z</time>
      </trkpt>
      <trkpt lat="44.10039" lon="7.71811">
        <ele>1853.8518066406</ele>
        <time>2018-11-07T23:47:25.929Z</time>
      </trkpt>
      <trkpt lat="44.10034" lon="7.71806">
        <ele>1854.3753662109</ele>
        <time>2018-11-07T23:47:37.038Z</time>
      </trkpt>
      <trkpt lat="44.1002" lon="7.71793">
        <ele>1855.6909179688</ele>
        <time>2018-11-07T23:47:48.149Z</time>
      </trkpt>
      <trkpt lat="44.1002" lon="7.71792">
        <ele>1855.7039794922</ele>
        <time>2018-11-07T23:47:59.260Z</time>
      </trkpt>
      <trkpt lat="44.10019" lon="7.71791">
        <ele>1855.8182373047</ele>
        <time>2018-11-07T23:48:10.371Z</time>
      </trkpt>
      <trkpt lat="44.1" lon="7.71779">
        <ele>1855.6782226562</ele>
        <time>2018-11-07T23:48:21.486Z</time>
      </trkpt>
      <trkpt lat="44.1" lon="7.71778">
        <ele>1855.6773681641</ele>
        <time>2018-11-07T23:48:32.601Z</time>
      </trkpt>
      <trkpt lat="44.09996" lon="7.71775">
        <ele>1855.6433105469</ele>
        <time>2018-11-07T23:48:43.717Z</time>
      </trkpt>
      <trkpt lat="44.09984" lon="7.71768">
        <ele>1855.4261474609</ele>
        <time>2018-11-07T23:48:54.835Z</time>
      </trkpt>
      <trkpt lat="44.09984" lon="7.71768">
        <ele>1855.423828125</ele>
        <time>2018-11-07T23:49:05.953Z</time>
      </trkpt>
      <trkpt lat="44.09976" lon="7.71762">
        <ele>1855.2663574219</ele>
        <time>2018-11-07T23:49:17.072Z</time>
      </trkpt>
      <trkpt lat="44.09963" lon="7.71754">
        <ele>1854.6069335938</ele>
        <time>2018-11-07T23:49:28.193Z</time>
      </trkpt>
      <trkpt lat="44.09961" lon="7.71754">
        <ele>1854.1604003906</ele>
        <time>2018-11-07T23:49:39.315Z</time>
      </trkpt>
      <trkpt lat="44.0996" lon="7.71754">
        <ele>1854.1315917969</ele>
        <time>2018-11-07T23:49:50.437Z</time>
      </trkpt>
      <trkpt lat="44.09952" lon="7.71751">
        <ele>1852.3979492188</ele>
        <time>2018-11-07T23:50:01.560Z</time>
      </trkpt>
      <trkpt lat="44.09939" lon="7.71749">
        <ele>1849.1444091797</ele>
        <time>2018-11-07T23:50:12.685Z</time>
      </trkpt>
      <trkpt lat="44.09938" lon="7.71749">
        <ele>1849.1141357422</ele>
        <time>2018-11-07T23:50:23.810Z</time>
      </trkpt>
      <trkpt lat="44.09926" lon="7.71746">
        <ele>1847.2530517578</ele>
        <time>2018-11-07T23:50:34.937Z</time>
      </trkpt>
      <trkpt lat="44.09925" lon="7.71745">
        <ele>1847.3205566406</ele>
        <time>2018-11-07T23:50:46.065Z</time>
      </trkpt>
      <trkpt lat="44.09925" lon="7.71745">
        <ele>1847.3264160156</ele>
        <time>2018-11-07T23:50:57.193Z</time>
      </trkpt>
      <trkpt lat="44.09917" lon="7.71735">
        <ele>1847.7758789062</ele>
        <time>2018-11-07T23:51:08.322Z</time>
      </trkpt>
      <trkpt lat="44.09917" lon="7.71735">
        <ele>1847.81640625</ele>
        <time>2018-11-07T23:51:19.451Z</time>
      </trkpt>
      <trkpt lat="44.09917" lon="7.71735">
        <ele>1847.8345947266</ele>
        <time>2018-11-07T23:51:30.580Z</time>
      </trkpt>
      <trkpt lat="44.09905" lon="7.71709">
        <ele>1851.3211669922</ele>
        <time>2018-11-07T23:51:41.713Z</time>
      </trkpt>
      <trkpt lat="44.09902" lon="7.71705">
        <ele>1851.7062988281</ele>
        <time>2018-11-07T23:51:52.847Z</time>
      </trkpt>
      <trkpt lat="44.09902" lon="7.71705">
        <ele>1851.7215576172</ele>
        <time>2018-11-07T23:52:03.981Z</time>
      </trkpt>
      <trkpt lat="44.09894" lon="7.71692">
        <ele>1853.0710449219</ele>
        <time>2018-11-07T23:52:15.116Z</time>
      </trkpt>
      <trkpt lat="44.09894" lon="7.71692">
        <ele>1853.0866699219</ele>
        <time>2018-11-07T23:52:26.252Z</time>
      </trkpt>
      <trkpt lat="44.09882" lon="7.71673">
        <ele>1855.1375732422</ele>
        <time>2018-11-07T23:52:37.390Z</time>
      </trkpt>
      <trkpt lat="44.09879" lon="7.71669">
        <ele>1855.5141601562</ele>
        <time>2018-11-07T23:52:48.529Z</time>
      </trkpt>
      <trkpt lat="44.09879" lon="7.71669">
        <ele>1855.5186767578</ele>
        <time>2018-11-07T23:52:59.668Z</time>
      </trkpt>
      <trkpt lat="44.09866" lon="7.71648">
        <ele>1856.1606445312</ele>
        <time>2018-11-07T23:53:10.810Z</time>
      </trkpt>
      <trkpt lat="44.09854" lon="7.71636">
        <ele>1856.9897460938</ele>
        <time>2018-11-07T23:53:21.955Z</time>
      </trkpt>
      <trkpt lat="44.09854" lon="7.71636">
        <ele>1857.0134277344</ele>
        <time>2018-11-07T23:53:33.100Z</time>
      </trkpt>
      <trkpt lat="44.09834" lon="7.71617">
        <ele>1861.1179199219</ele>
        <time>2018-11-07T23:53:44.248Z</time>
      </trkpt>
      <trkpt lat="44.09834" lon="7.71617">
        <ele>1861.1419677734</ele>
        <time>2018-11-07T23:53:55.397Z</time>
      </trkpt>
      <trkpt lat="44.09832" lon="7.71615">
        <ele>1861.5732421875</ele>
        <time>2018-11-07T23:54:06.546Z</time>
      </trkpt>
      <trkpt lat="44.09818" lon="7.71598">
        <ele>1865.2454833984</ele>
        <time>2018-11-07T23:54:17.698Z</time>
      </trkpt>
      <trkpt lat="44.0981" lon="7.71579">
        <ele>1868.8825683594</ele>
        <time>2018-11-07T23:54:28.852Z</time>
      </trkpt>
      <trkpt lat="44.09808" lon="7.71574">
        <ele>1869.5877685547</ele>
        <time>2018-11-07T23:54:40.007Z</time>
      </trkpt>
      <trkpt lat="44.09808" lon="7.71574">
        <ele>1869.6130371094</ele>
        <time>2018-11-07T23:54:51.162Z</time>
      </trkpt>
      <trkpt lat="44.09803" lon="7.71565">
        <ele>1871.0574951172</ele>
        <time>2018-11-07T23:55:02.318Z</time>
      </trkpt>
      <trkpt lat="44.09794" lon="7.71558">
        <ele>1872.353515625</ele>
        <time>2018-11-07T23:55:13.476Z</time>
      </trkpt>
      <trkpt lat="44.09794" lon="7.71558">
        <ele>1872.3699951172</ele>
        <time>2018-11-07T23:55:24.634Z</time>
      </trkpt>
      <trkpt lat="44.09789" lon="7.71554">
        <ele>1872.9809570312</ele>
        <time>2018-11-07T23:55:35.793Z</time>
      </trkpt>
      <trkpt lat="44.09779" lon="7.71551">
        <ele>1873.5155029297</ele>
        <time>2018-11-07T23:55:46.954Z</time>
      </trkpt>
      <trkpt lat="44.09779" lon="7.71551">
        <ele>1873.5223388672</ele>
        <time>2018-11-07T23:55:58.115Z</time>
      </trkpt>
      <trkpt lat="44.09774" lon="7.7155">
        <ele>1873.9913330078</ele>
        <time>2018-11-07T23:56:09.276Z</time>
      </trkpt>
      <trkpt lat="44.09767" lon="7.71552">
        <ele>1874.5457763672</ele>
        <time>2018-11-07T23:56:20.439Z</time>
      </trkpt>
      <trkpt lat="44.09767" lon="7.71552">
        <ele>1874.5561523438</ele>
        <time>2018-11-07T23:56:31.602Z</time>
      </trkpt>
      <trkpt lat="44.09763" lon="7.71552">
        <ele>1874.8215332031</ele>
        <time>2018-11-07T23:56:42.765Z</time>
      </trkpt>
      <trkpt lat="44.09754" lon="7.71563">
        <ele>1874.1826171875</ele>
        <time>2018-11-07T23:56:53.930Z</time>
      </trkpt>
      <trkpt lat="44.09753" lon="7.71563">
        <ele>1874.1755371094</ele>
        <time>2018-11-07T23:57:05.095Z</time>
      </trkpt>
      <trkpt lat="44.09752" lon="7.71565">
        <ele>1874.2178955078</ele>
        <time>2018-11-07T23:57:16.261Z</time>
      </trkpt>
      <trkpt lat="44.09745" lon="7.71581">
        <ele>1873.5811767578</ele>
        <time>2018-11-07T23:57:27.429Z</time>
      </trkpt>
      <trkpt lat="44.09745" lon="7.71581">
        <ele>1873.5744628906</ele>
        <time>2018-11-07T23:57:38.597Z</time>
      </trkpt>
      <trkpt lat="44.09742" lon="7.71588">
        <ele>1873.265625</ele>
        <time>2018-11-07T23:57:49.766Z</time>
      </trkpt>
      <trkpt lat="44.09738" lon="7.71592">
        <ele>1873.2478027344</ele>
        <time>2018-11-07T23:58:00.935Z</time>
      </trkpt>
      <trkpt lat="44.09738" lon="7.71592">
        <ele>1873.2473144531</ele>
        <time>2018-11-07T23:58:12.104Z</time>
      </trkpt>
      <trkpt lat="44.0973" lon="7.71603">
        <ele>1873.2060546875</ele>
        <time>2018-11-07T23:58:23.275Z</time>
      </trkpt>
      <trkpt lat="44.09727" lon="7.71606">
        <ele>1873.1878662109</ele>
        <time>2018-11-07T23:58:34.447Z</time>
      </trkpt>
      <trkpt lat="44.09727" lon="7.71606">
        <ele>1873.1870117188</ele>
        <time>2018-11-07T23:58:45.619Z</time>
      </trkpt>
      <trkpt lat="44.09719" lon="7.71616">
        <ele>1873.2913818359</ele>
        <time>2018-11-07T23:58:56.792Z</time>
      </trkpt>
      <trkpt lat="44.09714" lon="7.71624">
        <ele>1873.9655761719</ele>
        <time>2018-11-07T23:59:07.967Z</time>
      </trkpt>
      <trkpt lat="44.09713" lon="7.71624">
        <ele>1873.9768066406</ele>
        <time>2018-11-07T23:59:19.142Z</time>
      </trkpt>
      <trkpt lat="44.09705" lon="7.71636">
        <ele>1874.9409179688</ele>
        <time>2018-11-07T23:59:30.319Z</time>
      </trkpt>
      <trkpt lat="44.09702" lon="7.7164">
        <ele>1875.2253417969</ele>
        <time>2018-11-07T23:59:41.496Z</time>
      </trkpt>
      <trkpt lat="44.09702" lon="7.7164">
        <ele>1875.2342529297</ele>
        <time>2018-11-07T23:59:52.673Z</time>
      </trkpt>
      <trkpt lat="44.09693" lon="7.71655">
        <ele>1876.1088867188</ele>
        <time>2018-11-08T00:00:03.853Z</time>
      </trkpt>
      <trkpt lat="44.09693" lon="7.71655">
        <ele>1876.1102294922</ele>
        <time>2018-11-08T00:00:15.033Z</time>
      </trkpt>
      <trkpt lat="44.09692" lon="7.71658">
        <ele>1876.1317138672</ele>
        <time>2018-11-08T00:00:26.213Z</time>
      </trkpt>
      <trkpt lat="44.09682" lon="7.71676">
        <ele>1878.5922851562</ele>
        <time>2018-11-08T00:00:37.396Z</time>
      </trkpt>
      <trkpt lat="44.09681" lon="7.71677">
        <ele>1878.759765625</ele>
        <time>2018-11-08T00:00:48.579Z</time>
      </trkpt>
      <trkpt lat="44.09681" lon="7.71677">
        <ele>1878.7785644531</ele>
        <time>2018-11-08T00:00:59.762Z</time>
      </trkpt>
      <trkpt lat="44.09671" lon="7.71694">
        <ele>1880.8587646484</ele>
        <time>2018-11-08T00:01:10.947Z</time>
      </trkpt>
      <trkpt lat="44.0967" lon="7.71701">
        <ele>1880.5772705078</ele>
        <time>2018-11-08T00:01:22.133Z</time>
      </trkpt>
      <trkpt lat="44.0967" lon="7.71701">
        <ele>1880.5700683594</ele>
        <time>2018-11-08T00:01:33.319Z</time>
      </trkpt>
      <trkpt lat="44.09669" lon="7.71705">
        <ele>1880.4038085938</ele>
        <time>2018-11-08T00:01:44.506Z</time>
      </trkpt>
      <trkpt lat="44.0967" lon="7.71724">
        <ele>1878.4938964844</ele>
        <time>2018-11-08T00:01:55.695Z</time>
      </trkpt>
      <trkpt lat="44.0967" lon="7.71724">
        <ele>1878.4738769531</ele>
        <time>2018-11-08T00:02:06.884Z</time>
      </trkpt>
      <trkpt lat="44.0967" lon="7.71725">
        <ele>1878.3347167969</ele>
        <time>2018-11-08T00:02:18.073Z</time>
      </trkpt>
      <trkpt lat="44.0967" lon="7.71747">
        <ele>1879.1730957031</ele>
        <time>2018-11-08T00:02:29.264Z</time>
      </trkpt>
      <trkpt lat="44.0967" lon="7.71747">
        <ele>1879.1887207031</ele>
        <time>2018-11-08T00:02:40.455Z</time>
      </trkpt>
      <trkpt lat="44.09669" lon="7.71759">
        <ele>1879.2271728516</ele>
        <time>2018-11-08T00:02:51.648Z</time>
      </trkpt>
      <trkpt lat="44.09669" lon="7.71759">
        <ele>1879.2036132812</ele>
        <time>2018-11-08T00:03:02.841Z</time>
      </trkpt>
      <trkpt lat="44.09669" lon="7.7176">
        <ele>1879.1082763672</ele>
        <time>2018-11-08T00:03:14.034Z</time>
      </trkpt>
      <trkpt lat="44.09667" lon="7.71778">
        <ele>1878.1667480469</ele>
        <time>2018-11-08T00:03:25.229Z</time>
      </trkpt>
      <trkpt lat="44.09667" lon="7.71779">
        <ele>1878.1563720703</ele>
        <time>2018-11-08T00:03:36.424Z</time>
      </trkpt>
      <trkpt lat="44.09666" lon="7.7179">
        <ele>1877.5699462891</ele>
        <time>2018-11-08T00:03:47.620Z</time>
      </trkpt>
      <trkpt lat="44.09662" lon="7.71813">
        <ele>1877.2313232422</ele>
        <time>2018-11-08T00:03:58.819Z</time>
      </trkpt>
      <trkpt lat="44.09662" lon="7.71813">
        <ele>1877.2386474609</ele>
        <time>2018-11-08T00:04:10.018Z</time>
      </trkpt>
      <trkpt lat="44.09659" lon="7.71838">
        <ele>1878.0510253906</ele>
        <time>2018-11-08T00:04:21.220Z</time>
      </trkpt>
      <trkpt lat="44.09658" lon="7.71842">
        <ele>1877.7668457031</ele>
        <time>2018-11-08T00:04:32.423Z</time>
      </trkpt>
      <trkpt lat="44.09658" lon="7.71843">
        <ele>1877.7545166016</ele>
        <time>2018-11-08T00:04:43.626Z</time>
      </trkpt>
      <trkpt lat="44.09654" lon="7.71864">
        <ele>1876.3999023438</ele>
        <time>2018-11-08T00:04:54.831Z</time>
      </trkpt>
      <trkpt lat="44.0965" lon="7.7189">
        <ele>1874.2369384766</ele>
        <time>2018-11-08T00:05:06.039Z</time>
      </trkpt>
      <trkpt lat="44.0965" lon="7.7189">
        <ele>1874.2218017578</ele>
        <time>2018-11-08T00:05:17.247Z</time>
      </trkpt>
      <trkpt lat="44.09648" lon="7.71905">
        <ele>1873.1024169922</ele>
        <time>2018-11-08T00:05:28.457Z</time>
      </trkpt>
      <trkpt lat="44.09647" lon="7.71917">
        <ele>1871.7014160156</ele>
        <time>2018-11-08T00:05:39.668Z</time>
      </trkpt>
      <trkpt lat="44.09647" lon="7.71917">
        <ele>1871.6774902344</ele>
        <time>2018-11-08T00:05:50.879Z</time>
      </trkpt>
      <trkpt lat="44.09646" lon="7.71933">
        <ele>1869.1311035156</ele>
        <time>2018-11-08T00:06:02.092Z</time>
      </trkpt>
      <trkpt lat="44.09642" lon="7.71953">
        <ele>1867.5657958984</ele>
        <time>2018-11-08T00:06:13.308Z</time>
      </trkpt>
      <trkpt lat="44.09641" lon="7.71957">
        <ele>1867.0594482422</ele>
        <time>2018-11-08T00:06:24.524Z</time>
      </trkpt>
      <trkpt lat="44.09641" lon="7.71957">
        <ele>1867.0377197266</ele>
        <time>2018-11-08T00:06:35.740Z</time>
      </trkpt>
      <trkpt lat="44.09639" lon="7.71963">
        <ele>1866.3680419922</ele>
        <time>2018-11-08T00:06:46.957Z</time>
      </trkpt>
      <trkpt lat="44.09633" lon="7.71973">
        <ele>1867.8471679688</ele>
        <time>2018-11-08T00:06:58.175Z</time>
      </trkpt>
      <trkpt lat="44.09628" lon="7.71979">
        <ele>1869.1420898438</ele>
        <time>2018-11-08T00:07:09.394Z</time>
      </trkpt>
      <trkpt lat="44.09628" lon="7.71979">
        <ele>1869.1716308594</ele>
        <time>2018-11-08T00:07:20.614Z</time>
      </trkpt>
      <trkpt lat="44.09624" lon="7.71983">
        <ele>1870.0997314453</ele>
        <time>2018-11-08T00:07:31.834Z</time>
      </trkpt>
      <trkpt lat="44.0962" lon="7.71995">
        <ele>1869.4449462891</ele>
        <time>2018-11-08T00:07:43.056Z</time>
      </trkpt>
      <trkpt lat="44.0962" lon="7.71995">
        <ele>1869.4351806641</ele>
        <time>2018-11-08T00:07:54.278Z</time>
      </trkpt>
      <trkpt lat="44.09619" lon="7.71999">
        <ele>1869.2208251953</ele>
        <time>2018-11-08T00:08:05.500Z</time>
      </trkpt>
      <trkpt lat="44.09617" lon="7.72006">
        <ele>1868.7294921875</ele>
        <time>2018-11-08T00:08:16.723Z</time>
      </trkpt>
      <trkpt lat="44.09617" lon="7.72006">
        <ele>1868.7220458984</ele>
        <time>2018-11-08T00:08:27.946Z</time>
      </trkpt>
      <trkpt lat="44.09615" lon="7.72014">
        <ele>1868.2288818359</ele>
        <time>2018-11-08T00:08:39.170Z</time>
      </trkpt>
      <trkpt lat="44.09615" lon="7.72018">
        <ele>1867.3615722656</ele>
        <time>2018-11-08T00:08:50.395Z</time>
      </trkpt>
      <trkpt lat="44.09615" lon="7.72019">
        <ele>1867.3212890625</ele>
        <time>2018-11-08T00:09:01.620Z</time>
      </trkpt>
      <trkpt lat="44.09615" lon="7.72034">
        <ele>1864.2800292969</ele>
        <time>2018-11-08T00:09:12.846Z</time>
      </trkpt>
      <trkpt lat="44.09615" lon="7.72034">
        <ele>1864.2374267578</ele>
        <time>2018-11-08T00:09:24.072Z</time>
      </trkpt>
      <trkpt lat="44.09615" lon="7.72045">
        <ele>1862.0769042969</ele>
        <time>2018-11-08T00:09:35.300Z</time>
      </trkpt>
      <trkpt lat="44.09614" lon="7.72052">
        <ele>1860.8590087891</ele>
        <time>2018-11-08T00:09:46.529Z</time>
      </trkpt>
      <trkpt lat="44.09614" lon="7.72052">
        <ele>1860.8238525391</ele>
        <time>2018-11-08T00:09:57.758Z</time>
      </trkpt>
      <trkpt lat="44.09614" lon="7.72064">
        <ele>1858.8298339844</ele>
        <time>2018-11-08T00:10:08.988Z</time>
      </trkpt>
      <trkpt lat="44.09613" lon="7.72067">
        <ele>1858.3765869141</ele>
        <time>2018-11-08T00:10:20.218Z</time>
      </trkpt>
      <trkpt lat="44.09613" lon="7.72067">
        <ele>1858.3499755859</ele>
        <time>2018-11-08T00:10:31.448Z</time>
      </trkpt>
      <trkpt lat="44.09609" lon="7.72094">
        <ele>1854.9425048828</ele>
        <time>2018-11-08T00:10:42.681Z</time>
      </trkpt>
      <trkpt lat="44.09609" lon="7.72098">
        <ele>1854.4692382812</ele>
        <time>2018-11-08T00:10:53.915Z</time>
      </trkpt>
      <trkpt lat="44.09609" lon="7.72098">
        <ele>1854.4448242188</ele>
        <time>2018-11-08T00:11:05.149Z</time>
      </trkpt>
      <trkpt lat="44.09605" lon="7.72116">
        <ele>1852.2219238281</ele>
        <time>2018-11-08T00:11:16.385Z</time>
      </trkpt>
      <trkpt lat="44.09605" lon="7.72116">
        <ele>1852.1965332031</ele>
        <time>2018-11-08T00:11:27.621Z</time>
      </trkpt>
      <trkpt lat="44.09603" lon="7.72124">
        <ele>1851.1422119141</ele>
        <time>2018-11-08T00:11:38.858Z</time>
      </trkpt>
      <trkpt lat="44.09599" lon="7.72144">
        <ele>1848.6055908203</ele>
        <time>2018-11-08T00:11:50.097Z</time>
      </trkpt>
      <trkpt lat="44.09599" lon="7.72145">
        <ele>1848.3515625</ele>
        <time>2018-11-08T00:12:01.337Z</time>
      </trkpt>
      <trkpt lat="44.09599" lon="7.72146">
        <ele>1848.3193359375</ele>
        <time>2018-11-08T00:12:12.577Z</time>
      </trkpt>
      <trkpt lat="44.09598" lon="7.72168">
        <ele>1843.7613525391</ele>
        <time>2018-11-08T00:12:23.819Z</time>
      </trkpt>
      <trkpt lat="44.09598" lon="7.72177">
        <ele>1842.4320068359</ele>
        <time>2018-11-08T00:12:35.062Z</time>
      </trkpt>
      <trkpt lat="44.09598" lon="7.72177">
        <ele>1842.4075927734</ele>
        <time>2018-11-08T00:12:46.305Z</time>
      </trkpt>
      <trkpt lat="44.09598" lon="7.7219">
        <ele>1840.9122314453</ele>
        <time>2018-11-08T00:12:57.550Z</time>
      </trkpt>
      <trkpt lat="44.096" lon="7.72197">
        <ele>1839.9188232422</ele>
        <time>2018-11-08T00:13:08.796Z</time>
      </trkpt>
      <trkpt lat="44.096" lon="7.72197">
        <ele>1839.8907470703</ele>
        <time>2018-11-08T00:13:20.042Z</time>
      </trkpt>
      <trkpt lat="44.09603" lon="7.72212">
        <ele>1837.6682128906</ele>
        <time>2018-11-08T00:13:31.289Z</time>
      </trkpt>
      <trkpt lat="44.09604" lon="7.72221">
        <ele>1836.5980224609</ele>
        <time>2018-11-08T00:13:42.537Z</time>
      </trkpt>
      <trkpt lat="44.09604" lon="7.72221">
        <ele>1836.5718994141</ele>
        <time>2018-11-08T00:13:53.785Z</time>
      </trkpt>
      <trkpt lat="44.09604" lon="7.72227">
        <ele>1835.8056640625</ele>
        <time>2018-11-08T00:14:05.034Z</time>
      </trkpt>
      <trkpt lat="44.09603" lon="7.72242">
        <ele>1834.0958251953</ele>
        <time>2018-11-08T00:14:16.285Z</time>
      </trkpt>
      <trkpt lat="44.09603" lon="7.72242">
        <ele>1834.0729980469</ele>
        <time>2018-11-08T00:14:27.536Z</time>
      </trkpt>
      <trkpt lat="44.09603" lon="7.72244">
        <ele>1833.9351806641</ele>
        <time>2018-11-08T00:14:38.787Z</time>
      </trkpt>
      <trkpt lat="44.09598" lon="7.72264">
        <ele>1830.025390625</ele>
        <time>2018-11-08T00:14:50.041Z</time>
      </trkpt>
      <trkpt lat="44.09598" lon="7.72265">
        <ele>1829.9959716797</ele>
        <time>2018-11-08T00:15:01.295Z</time>
      </trkpt>
      <trkpt lat="44.09598" lon="7.72266">
        <ele>1829.7708740234</ele>
        <time>2018-11-08T00:15:12.549Z</time>
      </trkpt>
      <trkpt lat="44.09591" lon="7.72275">
        <ele>1828.1943359375</ele>
        <time>2018-11-08T00:15:23.804Z</time>
      </trkpt>
      <trkpt lat="44.09591" lon="7.72276">
        <ele>1828.1691894531</ele>
        <time>2018-11-08T00:15:35.059Z</time>
      </trkpt>
      <trkpt lat="44.09588" lon="7.7228">
        <ele>1827.4299316406</ele>
        <time>2018-11-08T00:15:46.315Z</time>
      </trkpt>
      <trkpt lat="44.09582" lon="7.72285">
        <ele>1826.4339599609</ele>
        <time>2018-11-08T00:15:57.572Z</time>
      </trkpt>
      <trkpt lat="44.09582" lon="7.72285">
        <ele>1826.4146728516</ele>
        <time>2018-11-08T00:16:08.829Z</time>
      </trkpt>
      <trkpt lat="44.09576" lon="7.7229">
        <ele>1825.6098632812</ele>
        <time>2018-11-08T00:16:20.087Z</time>
      </trkpt>
      <trkpt lat="44.09566" lon="7.72294">
        <ele>1824.5689697266</ele>
        <time>2018-11-08T00:16:31.347Z</time>
      </trkpt>
      <trkpt lat="44.09566" lon="7.72294">
        <ele>1824.5307617188</ele>
        <time>2018-11-08T00:16:42.607Z</time>
      </trkpt>
      <trkpt lat="44.09563" lon="7.72295">
        <ele>1823.8929443359</ele>
        <time>2018-11-08T00:16:53.867Z</time>
      </trkpt>
      <trkpt lat="44.09552" lon="7.72296">
        <ele>1821.7849121094</ele>
        <time>2018-11-08T00:17:05.129Z</time>
      </trkpt>
      <trkpt lat="44.09552" lon="7.72295">
        <ele>1821.7772216797</ele>
        <time>2018-11-08T00:17:16.391Z</time>
      </trkpt>
      <trkpt lat="44.09552" lon="7.72295">
        <ele>1821.7727050781</ele>
        <time>2018-11-08T00:17:27.653Z</time>
      </trkpt>
      <trkpt lat="44.09539" lon="7.72289">
        <ele>1821.3610839844</ele>
        <time>2018-11-08T00:17:38.917Z</time>
      </trkpt>
      <trkpt lat="44.09539" lon="7.72289">
        <ele>1821.3942871094</ele>
        <time>2018-11-08T00:17:50.181Z</time>
      </trkpt>
      <trkpt lat="44.09539" lon="7.72289">
        <ele>1821.4229736328</ele>
        <time>2018-11-08T00:18:01.445Z</time>
      </trkpt>
      <trkpt lat="44.09533" lon="7.72278">
        <ele>1823.2862548828</ele>
        <time>2018-11-08T00:18:12.711Z</time>
      </trkpt>
      <trkpt lat="44.09532" lon="7.72274">
        <ele>1824.3458251953</ele>
        <time>2018-11-08T00:18:23.978Z</time>
      </trkpt>
      <trkpt lat="44.09532" lon="7.72273">
        <ele>1824.3864746094</ele>
        <time>2018-11-08T00:18:35.245Z</time>
      </trkpt>
      <trkpt lat="44.09528" lon="7.72262">
        <ele>1826.8212890625</ele>
        <time>2018-11-08T00:18:46.513Z</time>
      </trkpt>
      <trkpt lat="44.09526" lon="7.72261">
        <ele>1826.9305419922</ele>
        <time>2018-11-08T00:18:57.781Z</time>
      </trkpt>
      <trkpt lat="44.09526" lon="7.72261">
        <ele>1826.9289550781</ele>
        <time>2018-11-08T00:19:09.049Z</time>
      </trkpt>
      <trkpt lat="44.09515" lon="7.7225">
        <ele>1827.0950927734</ele>
        <time>2018-11-08T00:19:20.319Z</time>
      </trkpt>
      <trkpt lat="44.09515" lon="7.7225">
        <ele>1827.1032714844</ele>
        <time>2018-11-08T00:19:31.589Z</time>
      </trkpt>
      <trkpt lat="44.09513" lon="7.72248">
        <ele>1827.2064208984</ele>
        <time>2018-11-08T00:19:42.860Z</time>
      </trkpt>
      <trkpt lat="44.09506" lon="7.72243">
        <ele>1827.2066650391</ele>
        <time>2018-11-08T00:19:54.132Z</time>
      </trkpt>
      <trkpt lat="44.09506" lon="7.72243">
        <ele>1827.2066650391</ele>
        <time>2018-11-08T00:20:05.404Z</time>
      </trkpt>
      <trkpt lat="44.09502" lon="7.7224">
        <ele>1827.2069091797</ele>
        <time>2018-11-08T00:20:16.677Z</time>
      </trkpt>
      <trkpt lat="44.09495" lon="7.72234">
        <ele>1827.2915039062</ele>
        <time>2018-11-08T00:20:27.951Z</time>
      </trkpt>
      <trkpt lat="44.09495" lon="7.72234">
        <ele>1827.2930908203</ele>
        <time>2018-11-08T00:20:39.225Z</time>
      </trkpt>
      <trkpt lat="44.09484" lon="7.72226">
        <ele>1827.4233398438</ele>
        <time>2018-11-08T00:20:50.501Z</time>
      </trkpt>
      <trkpt lat="44.0948" lon="7.72221">
        <ele>1827.9781494141</ele>
        <time>2018-11-08T00:21:01.778Z</time>
      </trkpt>
      <trkpt lat="44.0948" lon="7.72221">
        <ele>1827.9942626953</ele>
        <time>2018-11-08T00:21:13.055Z</time>
      </trkpt>
      <trkpt lat="44.09471" lon="7.7221">
        <ele>1829.3529052734</ele>
        <time>2018-11-08T00:21:24.334Z</time>
      </trkpt>
      <trkpt lat="44.09471" lon="7.7221">
        <ele>1829.3692626953</ele>
        <time>2018-11-08T00:21:35.613Z</time>
      </trkpt>
      <trkpt lat="44.0947" lon="7.72209">
        <ele>1829.4753417969</ele>
        <time>2018-11-08T00:21:46.892Z</time>
      </trkpt>
      <trkpt lat="44.09452" lon="7.72196">
        <ele>1829.1188964844</ele>
        <time>2018-11-08T00:21:58.174Z</time>
      </trkpt>
      <trkpt lat="44.09452" lon="7.72196">
        <ele>1829.1162109375</ele>
        <time>2018-11-08T00:22:09.456Z</time>
      </trkpt>
      <trkpt lat="44.09451" lon="7.72196">
        <ele>1829.0930175781</ele>
        <time>2018-11-08T00:22:20.739Z</time>
      </trkpt>
      <trkpt lat="44.09435" lon="7.72188">
        <ele>1829.7149658203</ele>
        <time>2018-11-08T00:22:32.024Z</time>
      </trkpt>
      <trkpt lat="44.09435" lon="7.72188">
        <ele>1829.7393798828</ele>
        <time>2018-11-08T00:22:43.309Z</time>
      </trkpt>
      <trkpt lat="44.09415" lon="7.72179">
        <ele>1833.2337646484</ele>
        <time>2018-11-08T00:22:54.598Z</time>
      </trkpt>
      <trkpt lat="44.09414" lon="7.72179">
        <ele>1833.2561035156</ele>
        <time>2018-11-08T00:23:05.887Z</time>
      </trkpt>
      <trkpt lat="44.09408" lon="7.72176">
        <ele>1834.3276367188</ele>
        <time>2018-11-08T00:23:17.177Z</time>
      </trkpt>
      <trkpt lat="44.09399" lon="7.72175">
        <ele>1835.0179443359</ele>
        <time>2018-11-08T00:23:28.468Z</time>
      </trkpt>
      <trkpt lat="44.09388" lon="7.72183">
        <ele>1832.2556152344</ele>
        <time>2018-11-08T00:23:39.761Z</time>
      </trkpt>
      <trkpt lat="44.09372" lon="7.7219">
        <ele>1828.1496582031</ele>
        <time>2018-11-08T00:23:51.057Z</time>
      </trkpt>
      <trkpt lat="44.09372" lon="7.72191">
        <ele>1828.0863037109</ele>
        <time>2018-11-08T00:24:02.353Z</time>
      </trkpt>
      <trkpt lat="44.09371" lon="7.72191">
        <ele>1827.4729003906</ele>
        <time>2018-11-08T00:24:13.649Z</time>
      </trkpt>
      <trkpt lat="44.09364" lon="7.72195">
        <ele>1824.2668457031</ele>
        <time>2018-11-08T00:24:24.946Z</time>
      </trkpt>
      <trkpt lat="44.09363" lon="7.72195">
        <ele>1824.2061767578</ele>
        <time>2018-11-08T00:24:36.243Z</time>
      </trkpt>
      <trkpt lat="44.09356" lon="7.72198">
        <ele>1820.2359619141</ele>
        <time>2018-11-08T00:24:47.542Z</time>
      </trkpt>
      <trkpt lat="44.09351" lon="7.72198">
        <ele>1818.9655761719</ele>
        <time>2018-11-08T00:24:58.841Z</time>
      </trkpt>
      <trkpt lat="44.09351" lon="7.72198">
        <ele>1818.9240722656</ele>
        <time>2018-11-08T00:25:10.140Z</time>
      </trkpt>
      <trkpt lat="44.09337" lon="7.72196">
        <ele>1814.9855957031</ele>
        <time>2018-11-08T00:25:21.442Z</time>
      </trkpt>
      <trkpt lat="44.09334" lon="7.72194">
        <ele>1815.1147460938</ele>
        <time>2018-11-08T00:25:32.744Z</time>
      </trkpt>
      <trkpt lat="44.09334" lon="7.72193">
        <ele>1815.1195068359</ele>
        <time>2018-11-08T00:25:44.046Z</time>
      </trkpt>
      <trkpt lat="44.09327" lon="7.72189">
        <ele>1815.3770751953</ele>
        <time>2018-11-08T00:25:55.350Z</time>
      </trkpt>
      <trkpt lat="44.0932" lon="7.72182">
        <ele>1816.5489501953</ele>
        <time>2018-11-08T00:26:06.655Z</time>
      </trkpt>
      <trkpt lat="44.0932" lon="7.72182">
        <ele>1816.5710449219</ele>
        <time>2018-11-08T00:26:17.960Z</time>
      </trkpt>
      <trkpt lat="44.09305" lon="7.72168">
        <ele>1819.1293945312</ele>
        <time>2018-11-08T00:26:29.268Z</time>
      </trkpt>
      <trkpt lat="44.09305" lon="7.72168">
        <ele>1819.1419677734</ele>
        <time>2018-11-08T00:26:40.576Z</time>
      </trkpt>
      <trkpt lat="44.09302" lon="7.72164">
        <ele>1819.4835205078</ele>
        <time>2018-11-08T00:26:51.884Z</time>
      </trkpt>
      <trkpt lat="44.09296" lon="7.72157">
        <ele>1820.7061767578</ele>
        <time>2018-11-08T00:27:03.194Z</time>
      </trkpt>
      <trkpt lat="44.09295" lon="7.72157">
        <ele>1820.7288818359</ele>
        <time>2018-11-08T00:27:14.504Z</time>
      </trkpt>
      <trkpt lat="44.09286" lon="7.72147">
        <ele>1822.5388183594</ele>
        <time>2018-11-08T00:27:25.816Z</time>
      </trkpt>
      <trkpt lat="44.09278" lon="7.7213">
        <ele>1827.2370605469</ele>
        <time>2018-11-08T00:27:37.130Z</time>
      </trkpt>
      <trkpt lat="44.09275" lon="7.72126">
        <ele>1828.5698242188</ele>
        <time>2018-11-08T00:27:48.445Z</time>
      </trkpt>
      <trkpt lat="44.09275" lon="7.72126">
        <ele>1828.6278076172</ele>
        <time>2018-11-08T00:27:59.760Z</time>
      </trkpt>
      <trkpt lat="44.09269" lon="7.72115">
        <ele>1832.6343994141</ele>
        <time>2018-11-08T00:28:11.076Z</time>
      </trkpt>
      <trkpt lat="44.09262" lon="7.72106">
        <ele>1835.0828857422</ele>
        <time>2018-11-08T00:28:22.394Z</time>
      </trkpt>
      <trkpt lat="44.09262" lon="7.72106">
        <ele>1835.1209716797</ele>
        <time>2018-11-08T00:28:33.712Z</time>
      </trkpt>
      <trkpt lat="44.09255" lon="7.72098">
        <ele>1837.3356933594</ele>
        <time>2018-11-08T00:28:45.031Z</time>
      </trkpt>
      <trkpt lat="44.0925" lon="7.72095">
        <ele>1837.9650878906</ele>
        <time>2018-11-08T00:28:56.351Z</time>
      </trkpt>
      <trkpt lat="44.0925" lon="7.72095">
        <ele>1837.9808349609</ele>
        <time>2018-11-08T00:29:07.671Z</time>
      </trkpt>
      <trkpt lat="44.09242" lon="7.72089">
        <ele>1838.8525390625</ele>
        <time>2018-11-08T00:29:18.992Z</time>
      </trkpt>
      <trkpt lat="44.09237" lon="7.72087">
        <ele>1838.9287109375</ele>
        <time>2018-11-08T00:29:30.314Z</time>
      </trkpt>
      <trkpt lat="44.09237" lon="7.72087">
        <ele>1838.923828125</ele>
        <time>2018-11-08T00:29:41.636Z</time>
      </trkpt>
      <trkpt lat="44.09223" lon="7.7208">
        <ele>1838.4494628906</ele>
        <time>2018-11-08T00:29:52.961Z</time>
      </trkpt>
      <trkpt lat="44.0922" lon="7.7208">
        <ele>1838.0291748047</ele>
        <time>2018-11-08T00:30:04.286Z</time>
      </trkpt>
      <trkpt lat="44.09219" lon="7.7208">
        <ele>1838.0074462891</ele>
        <time>2018-11-08T00:30:15.611Z</time>
      </trkpt>
      <trkpt lat="44.0921" lon="7.72078">
        <ele>1836.7071533203</ele>
        <time>2018-11-08T00:30:26.938Z</time>
      </trkpt>
      <trkpt lat="44.09205" lon="7.7208">
        <ele>1834.9682617188</ele>
        <time>2018-11-08T00:30:38.266Z</time>
      </trkpt>
      <trkpt lat="44.09205" lon="7.7208">
        <ele>1834.9195556641</ele>
        <time>2018-11-08T00:30:49.594Z</time>
      </trkpt>
      <trkpt lat="44.092" lon="7.72081">
        <ele>1833.5222167969</ele>
        <time>2018-11-08T00:31:00.922Z</time>
      </trkpt>
      <trkpt lat="44.09191" lon="7.72087">
        <ele>1829.8795166016</ele>
        <time>2018-11-08T00:31:12.252Z</time>
      </trkpt>
      <trkpt lat="44.09186" lon="7.7209">
        <ele>1827.9964599609</ele>
        <time>2018-11-08T00:31:23.583Z</time>
      </trkpt>
      <trkpt lat="44.09186" lon="7.7209">
        <ele>1827.9431152344</ele>
        <time>2018-11-08T00:31:34.914Z</time>
      </trkpt>
      <trkpt lat="44.09186" lon="7.7209">
        <ele>1827.9382324219</ele>
        <time>2018-11-08T00:31:46.245Z</time>
      </trkpt>
      <trkpt lat="44.09176" lon="7.72091">
        <ele>1826.421875</ele>
        <time>2018-11-08T00:31:57.577Z</time>
      </trkpt>
      <trkpt lat="44.09173" lon="7.7209">
        <ele>1826.4837646484</ele>
        <time>2018-11-08T00:32:08.910Z</time>
      </trkpt>
      <trkpt lat="44.09173" lon="7.7209">
        <ele>1826.4875488281</ele>
        <time>2018-11-08T00:32:20.243Z</time>
      </trkpt>
      <trkpt lat="44.09165" lon="7.72088">
        <ele>1826.6857910156</ele>
        <time>2018-11-08T00:32:31.577Z</time>
      </trkpt>
      <trkpt lat="44.09164" lon="7.72087">
        <ele>1826.8498535156</ele>
        <time>2018-11-08T00:32:42.911Z</time>
      </trkpt>
      <trkpt lat="44.09163" lon="7.72087">
        <ele>1826.8546142578</ele>
        <time>2018-11-08T00:32:54.246Z</time>
      </trkpt>
      <trkpt lat="44.09154" lon="7.72082">
        <ele>1827.1589355469</ele>
        <time>2018-11-08T00:33:05.582Z</time>
      </trkpt>
      <trkpt lat="44.09154" lon="7.72082">
        <ele>1827.1636962891</ele>
        <time>2018-11-08T00:33:16.918Z</time>
      </trkpt>
      <trkpt lat="44.09154" lon="7.72082">
        <ele>1827.1762695312</ele>
        <time>2018-11-08T00:33:28.254Z</time>
      </trkpt>
      <trkpt lat="44.09149" lon="7.72079">
        <ele>1827.3179931641</ele>
        <time>2018-11-08T00:33:39.591Z</time>
      </trkpt>
      <trkpt lat="44.09149" lon="7.72079">
        <ele>1827.3221435547</ele>
        <time>2018-11-08T00:33:50.928Z</time>
      </trkpt>
      <trkpt lat="44.09142" lon="7.72076">
        <ele>1827.5148925781</ele>
        <time>2018-11-08T00:34:02.266Z</time>
      </trkpt>
      <trkpt lat="44.0914" lon="7.72075">
        <ele>1827.6071777344</ele>
        <time>2018-11-08T00:34:13.605Z</time>
      </trkpt>
      <trkpt lat="44.09139" lon="7.72075">
        <ele>1827.6135253906</ele>
        <time>2018-11-08T00:34:24.944Z</time>
      </trkpt>
      <trkpt lat="44.09129" lon="7.72069">
        <ele>1828.0521240234</ele>
        <time>2018-11-08T00:34:36.284Z</time>
      </trkpt>
      <trkpt lat="44.09129" lon="7.72069">
        <ele>1828.0583496094</ele>
        <time>2018-11-08T00:34:47.624Z</time>
      </trkpt>
      <trkpt lat="44.09129" lon="7.72069">
        <ele>1828.06640625</ele>
        <time>2018-11-08T00:34:58.964Z</time>
      </trkpt>
      <trkpt lat="44.09118" lon="7.72064">
        <ele>1828.0672607422</ele>
        <time>2018-11-08T00:35:10.306Z</time>
      </trkpt>
      <trkpt lat="44.09117" lon="7.72064">
        <ele>1828.0672607422</ele>
        <time>2018-11-08T00:35:21.648Z</time>
      </trkpt>
      <trkpt lat="44.09117" lon="7.72064">
        <ele>1828.0673828125</ele>
        <time>2018-11-08T00:35:32.990Z</time>
      </trkpt>
      <trkpt lat="44.09106" lon="7.72058">
        <ele>1828.5621337891</ele>
        <time>2018-11-08T00:35:44.334Z</time>
      </trkpt>
      <trkpt lat="44.09106" lon="7.72058">
        <ele>1828.5697021484</ele>
        <time>2018-11-08T00:35:55.678Z</time>
      </trkpt>
      <trkpt lat="44.09095" lon="7.72052">
        <ele>1829.1345214844</ele>
        <time>2018-11-08T00:36:07.024Z</time>
      </trkpt>
      <trkpt lat="44.09093" lon="7.72052">
        <ele>1829.1634521484</ele>
        <time>2018-11-08T00:36:18.371Z</time>
      </trkpt>
      <trkpt lat="44.09093" lon="7.72051">
        <ele>1829.1657714844</ele>
        <time>2018-11-08T00:36:29.718Z</time>
      </trkpt>
      <trkpt lat="44.09083" lon="7.72047">
        <ele>1829.3203125</ele>
        <time>2018-11-08T00:36:41.066Z</time>
      </trkpt>
      <trkpt lat="44.09081" lon="7.72047">
        <ele>1829.3204345703</ele>
        <time>2018-11-08T00:36:52.415Z</time>
      </trkpt>
      <trkpt lat="44.0908" lon="7.72047">
        <ele>1829.3204345703</ele>
        <time>2018-11-08T00:37:03.764Z</time>
      </trkpt>
      <trkpt lat="44.09074" lon="7.72044">
        <ele>1829.3209228516</ele>
        <time>2018-11-08T00:37:15.114Z</time>
      </trkpt>
      <trkpt lat="44.09063" lon="7.72037">
        <ele>1830.2098388672</ele>
        <time>2018-11-08T00:37:26.466Z</time>
      </trkpt>
      <trkpt lat="44.09059" lon="7.72034">
        <ele>1830.7325439453</ele>
        <time>2018-11-08T00:37:37.818Z</time>
      </trkpt>
      <trkpt lat="44.09059" lon="7.72034">
        <ele>1830.7509765625</ele>
        <time>2018-11-08T00:37:49.170Z</time>
      </trkpt>
      <trkpt lat="44.09049" lon="7.72025">
        <ele>1832.1352539062</ele>
        <time>2018-11-08T00:38:00.524Z</time>
      </trkpt>
      <trkpt lat="44.09048" lon="7.72025">
        <ele>1832.2144775391</ele>
        <time>2018-11-08T00:38:11.878Z</time>
      </trkpt>
      <trkpt lat="44.09048" lon="7.72025">
        <ele>1832.2355957031</ele>
        <time>2018-11-08T00:38:23.232Z</time>
      </trkpt>
      <trkpt lat="44.0904" lon="7.72018">
        <ele>1833.5070800781</ele>
        <time>2018-11-08T00:38:34.588Z</time>
      </trkpt>
      <trkpt lat="44.0904" lon="7.72017">
        <ele>1833.5283203125</ele>
        <time>2018-11-08T00:38:45.944Z</time>
      </trkpt>
      <trkpt lat="44.09036" lon="7.72013">
        <ele>1834.3155517578</ele>
        <time>2018-11-08T00:38:57.301Z</time>
      </trkpt>
      <trkpt lat="44.0903" lon="7.7201">
        <ele>1835.1041259766</ele>
        <time>2018-11-08T00:39:08.659Z</time>
      </trkpt>
      <trkpt lat="44.0903" lon="7.72009">
        <ele>1835.1239013672</ele>
        <time>2018-11-08T00:39:20.017Z</time>
      </trkpt>
      <trkpt lat="44.09027" lon="7.72008">
        <ele>1835.5050048828</ele>
        <time>2018-11-08T00:39:31.375Z</time>
      </trkpt>
      <trkpt lat="44.09018" lon="7.72007">
        <ele>1836.6938476562</ele>
        <time>2018-11-08T00:39:42.735Z</time>
      </trkpt>
      <trkpt lat="44.09015" lon="7.72009">
        <ele>1836.8353271484</ele>
        <time>2018-11-08T00:39:54.095Z</time>
      </trkpt>
      <trkpt lat="44.09014" lon="7.72009">
        <ele>1836.8415527344</ele>
        <time>2018-11-08T00:40:05.455Z</time>
      </trkpt>
      <trkpt lat="44.09009" lon="7.72013">
        <ele>1837.0736083984</ele>
        <time>2018-11-08T00:40:16.816Z</time>
      </trkpt>
      <trkpt lat="44.09003" lon="7.72023">
        <ele>1836.7127685547</ele>
        <time>2018-11-08T00:40:28.179Z</time>
      </trkpt>
      <trkpt lat="44.09003" lon="7.72024">
        <ele>1836.6806640625</ele>
        <time>2018-11-08T00:40:39.542Z</time>
      </trkpt>
      <trkpt lat="44.09003" lon="7.72024">
        <ele>1836.6634521484</ele>
        <time>2018-11-08T00:40:50.905Z</time>
      </trkpt>
      <trkpt lat="44.09" lon="7.72036">
        <ele>1835.6517333984</ele>
        <time>2018-11-08T00:41:02.269Z</time>
      </trkpt>
      <trkpt lat="44.09" lon="7.72036">
        <ele>1835.6343994141</ele>
        <time>2018-11-08T00:41:13.633Z</time>
      </trkpt>
      <trkpt lat="44.08998" lon="7.72045">
        <ele>1834.8924560547</ele>
        <time>2018-11-08T00:41:24.998Z</time>
      </trkpt>
      <trkpt lat="44.08998" lon="7.72049">
        <ele>1834.5819091797</ele>
        <time>2018-11-08T00:41:36.364Z</time>
      </trkpt>
      <trkpt lat="44.08998" lon="7.72049">
        <ele>1834.5638427734</ele>
        <time>2018-11-08T00:41:47.730Z</time>
      </trkpt>
      <trkpt lat="44.08995" lon="7.72062">
        <ele>1833.7492675781</ele>
        <time>2018-11-08T00:41:59.097Z</time>
      </trkpt>
      <trkpt lat="44.08995" lon="7.72062">
        <ele>1833.7429199219</ele>
        <time>2018-11-08T00:42:10.464Z</time>
      </trkpt>
      <trkpt lat="44.08993" lon="7.72074">
        <ele>1833.3713378906</ele>
        <time>2018-11-08T00:42:21.833Z</time>
      </trkpt>
      <trkpt lat="44.08993" lon="7.72075">
        <ele>1833.3641357422</ele>
        <time>2018-11-08T00:42:33.202Z</time>
      </trkpt>
      <trkpt lat="44.08993" lon="7.72077">
        <ele>1833.3015136719</ele>
        <time>2018-11-08T00:42:44.571Z</time>
      </trkpt>
      <trkpt lat="44.08988" lon="7.72096">
        <ele>1832.8764648438</ele>
        <time>2018-11-08T00:42:55.943Z</time>
      </trkpt>
      <trkpt lat="44.08988" lon="7.72097">
        <ele>1832.8719482422</ele>
        <time>2018-11-08T00:43:07.315Z</time>
      </trkpt>
      <trkpt lat="44.08985" lon="7.72109">
        <ele>1832.6002197266</ele>
        <time>2018-11-08T00:43:18.688Z</time>
      </trkpt>
      <trkpt lat="44.08982" lon="7.72125">
        <ele>1832.1848144531</ele>
        <time>2018-11-08T00:43:30.063Z</time>
      </trkpt>
      <trkpt lat="44.08982" lon="7.72128">
        <ele>1832.0258789062</ele>
        <time>2018-11-08T00:43:41.438Z</time>
      </trkpt>
      <trkpt lat="44.08982" lon="7.72128">
        <ele>1832.0163574219</ele>
        <time>2018-11-08T00:43:52.813Z</time>
      </trkpt>
      <trkpt lat="44.08981" lon="7.7216">
        <ele>1830.6052246094</ele>
        <time>2018-11-08T00:44:04.192Z</time>
      </trkpt>
      <trkpt lat="44.08981" lon="7.72161">
        <ele>1830.6019287109</ele>
        <time>2018-11-08T00:44:15.571Z</time>
      </trkpt>
      <trkpt lat="44.08981" lon="7.72162">
        <ele>1830.6014404297</ele>
        <time>2018-11-08T00:44:26.950Z</time>
      </trkpt>
      <trkpt lat="44.08979" lon="7.72169">
        <ele>1830.5836181641</ele>
        <time>2018-11-08T00:44:38.330Z</time>
      </trkpt>
      <trkpt lat="44.08975" lon="7.72175">
        <ele>1830.5251464844</ele>
        <time>2018-11-08T00:44:49.711Z</time>
      </trkpt>
      <trkpt lat="44.08975" lon="7.72175">
        <ele>1830.5201416016</ele>
        <time>2018-11-08T00:45:01.092Z</time>
      </trkpt>
      <trkpt lat="44.08974" lon="7.72178">
        <ele>1830.4456787109</ele>
        <time>2018-11-08T00:45:12.474Z</time>
      </trkpt>
      <trkpt lat="44.08965" lon="7.72182">
        <ele>1831.4147949219</ele>
        <time>2018-11-08T00:45:23.857Z</time>
      </trkpt>
      <trkpt lat="44.08954" lon="7.72185">
        <ele>1833.056640625</ele>
        <time>2018-11-08T00:45:35.242Z</time>
      </trkpt>
      <trkpt lat="44.08952" lon="7.72187">
        <ele>1833.1259765625</ele>
        <time>2018-11-08T00:45:46.627Z</time>
      </trkpt>
      <trkpt lat="44.08952" lon="7.72187">
        <ele>1833.1300048828</ele>
        <time>2018-11-08T00:45:58.012Z</time>
      </trkpt>
      <trkpt lat="44.08948" lon="7.72193">
        <ele>1833.2700195312</ele>
        <time>2018-11-08T00:46:09.398Z</time>
      </trkpt>
      <trkpt lat="44.08948" lon="7.72195">
        <ele>1833.15625</ele>
        <time>2018-11-08T00:46:20.784Z</time>
      </trkpt>
      <trkpt lat="44.08948" lon="7.72195">
        <ele>1833.1439208984</ele>
        <time>2018-11-08T00:46:32.170Z</time>
      </trkpt>
      <trkpt lat="44.08945" lon="7.72205">
        <ele>1832.5065917969</ele>
        <time>2018-11-08T00:46:43.558Z</time>
      </trkpt>
      <trkpt lat="44.08945" lon="7.72205">
        <ele>1832.4940185547</ele>
        <time>2018-11-08T00:46:54.946Z</time>
      </trkpt>
      <trkpt lat="44.08941" lon="7.72217">
        <ele>1831.7252197266</ele>
        <time>2018-11-08T00:47:06.335Z</time>
      </trkpt>
      <trkpt lat="44.08941" lon="7.72218">
        <ele>1831.6531982422</ele>
        <time>2018-11-08T00:47:17.724Z</time>
      </trkpt>
      <trkpt lat="44.08941" lon="7.72218">
        <ele>1831.6387939453</ele>
        <time>2018-11-08T00:47:29.113Z</time>
      </trkpt>
      <trkpt lat="44.08938" lon="7.72228">
        <ele>1830.9556884766</ele>
        <time>2018-11-08T00:47:40.503Z</time>
      </trkpt>
      <trkpt lat="44.08937" lon="7.72231">
        <ele>1830.7596435547</ele>
        <time>2018-11-08T00:47:51.894Z</time>
      </trkpt>
      <trkpt lat="44.08937" lon="7.72231">
        <ele>1830.7493896484</ele>
        <time>2018-11-08T00:48:03.285Z</time>
      </trkpt>
      <trkpt lat="44.08934" lon="7.72239">
        <ele>1830.31640625</ele>
        <time>2018-11-08T00:48:14.677Z</time>
      </trkpt>
      <trkpt lat="44.08933" lon="7.7224">
        <ele>1830.3852539062</ele>
        <time>2018-11-08T00:48:26.069Z</time>
      </trkpt>
      <trkpt lat="44.08932" lon="7.72241">
        <ele>1830.392578125</ele>
        <time>2018-11-08T00:48:37.461Z</time>
      </trkpt>
      <trkpt lat="44.08926" lon="7.72247">
        <ele>1829.8786621094</ele>
        <time>2018-11-08T00:48:48.855Z</time>
      </trkpt>
      <trkpt lat="44.08916" lon="7.7225">
        <ele>1830.03125</ele>
        <time>2018-11-08T00:49:00.250Z</time>
      </trkpt>
      <trkpt lat="44.08915" lon="7.7225">
        <ele>1830.0477294922</ele>
        <time>2018-11-08T00:49:11.645Z</time>
      </trkpt>
      <trkpt lat="44.08915" lon="7.7225">
        <ele>1830.0524902344</ele>
        <time>2018-11-08T00:49:23.040Z</time>
      </trkpt>
      <trkpt lat="44.08907" lon="7.72252">
        <ele>1830.2990722656</ele>
        <time>2018-11-08T00:49:34.437Z</time>
      </trkpt>
      <trkpt lat="44.08907" lon="7.72252">
        <ele>1830.3037109375</ele>
        <time>2018-11-08T00:49:45.834Z</time>
      </trkpt>
      <trkpt lat="44.08898" lon="7.72255">
        <ele>1830.4737548828</ele>
        <time>2018-11-08T00:49:57.232Z</time>
      </trkpt>
      <trkpt lat="44.08898" lon="7.72255">
        <ele>1830.4741210938</ele>
        <time>2018-11-08T00:50:08.630Z</time>
      </trkpt>
      <trkpt lat="44.08888" lon="7.72257">
        <ele>1830.4981689453</ele>
        <time>2018-11-08T00:50:20.030Z</time>
      </trkpt>
      <trkpt lat="44.08888" lon="7.72257">
        <ele>1830.4985351562</ele>
        <time>2018-11-08T00:50:31.430Z</time>
      </trkpt>
      <trkpt lat="44.08885" lon="7.72258">
        <ele>1830.5059814453</ele>
        <time>2018-11-08T00:50:42.830Z</time>
      </trkpt>
      <trkpt lat="44.08878" lon="7.72259">
        <ele>1830.947265625</ele>
        <time>2018-11-08T00:50:54.231Z</time>
      </trkpt>
      <trkpt lat="44.08878" lon="7.72259">
        <ele>1830.9573974609</ele>
        <time>2018-11-08T00:51:05.632Z</time>
      </trkpt>
      <trkpt lat="44.08872" lon="7.72259">
        <ele>1831.3365478516</ele>
        <time>2018-11-08T00:51:17.034Z</time>
      </trkpt>
      <trkpt lat="44.08854" lon="7.72262">
        <ele>1835.5162353516</ele>
        <time>2018-11-08T00:51:28.439Z</time>
      </trkpt>
      <trkpt lat="44.08847" lon="7.72264">
        <ele>1838.1871337891</ele>
        <time>2018-11-08T00:51:39.845Z</time>
      </trkpt>
      <trkpt lat="44.08847" lon="7.72264">
        <ele>1838.2485351562</ele>
        <time>2018-11-08T00:51:51.251Z</time>
      </trkpt>
      <trkpt lat="44.08842" lon="7.72267">
        <ele>1840.6160888672</ele>
        <time>2018-11-08T00:52:02.658Z</time>
      </trkpt>
      <trkpt lat="44.08836" lon="7.72272">
        <ele>1842.3900146484</ele>
        <time>2018-11-08T00:52:14.066Z</time>
      </trkpt>
      <trkpt lat="44.08836" lon="7.72272">
        <ele>1842.4315185547</ele>
        <time>2018-11-08T00:52:25.474Z</time>
      </trkpt>
      <trkpt lat="44.0883" lon="7.72278">
        <ele>1844.4644775391</ele>
        <time>2018-11-08T00:52:36.884Z</time>
      </trkpt>
      <trkpt lat="44.08822" lon="7.72289">
        <ele>1846.4097900391</ele>
        <time>2018-11-08T00:52:48.295Z</time>
      </trkpt>
      <trkpt lat="44.08822" lon="7.72289">
        <ele>1846.4377441406</ele>
        <time>2018-11-08T00:52:59.706Z</time>
      </trkpt>
      <trkpt lat="44.08819" lon="7.72293">
        <ele>1847.1649169922</ele>
        <time>2018-11-08T00:53:11.118Z</time>
      </trkpt>
      <trkpt lat="44.08814" lon="7.72303">
        <ele>1849.080078125</ele>
        <time>2018-11-08T00:53:22.531Z</time>
      </trkpt>
      <trkpt lat="44.08814" lon="7.72303">
        <ele>1849.1229248047</ele>
        <time>2018-11-08T00:53:33.944Z</time>
      </trkpt>
      <trkpt lat="44.08812" lon="7.72309">
        <ele>1850.4907226562</ele>
        <time>2018-11-08T00:53:45.358Z</time>
      </trkpt>
      <trkpt lat="44.08809" lon="7.72322">
        <ele>1851.6229248047</ele>
        <time>2018-11-08T00:53:56.774Z</time>
      </trkpt>
      <trkpt lat="44.08809" lon="7.72322">
        <ele>1851.6418457031</ele>
        <time>2018-11-08T00:54:08.190Z</time>
      </trkpt>
      <trkpt lat="44.08808" lon="7.72329">
        <ele>1852.2457275391</ele>
        <time>2018-11-08T00:54:19.606Z</time>
      </trkpt>
      <trkpt lat="44.08807" lon="7.72342">
        <ele>1852.3540039062</ele>
        <time>2018-11-08T00:54:31.024Z</time>
      </trkpt>
      <trkpt lat="44.08807" lon="7.72342">
        <ele>1852.3557128906</ele>
        <time>2018-11-08T00:54:42.442Z</time>
      </trkpt>
      <trkpt lat="44.08806" lon="7.72357">
        <ele>1852.466796875</ele>
        <time>2018-11-08T00:54:53.862Z</time>
      </trkpt>
      <trkpt lat="44.08806" lon="7.72361">
        <ele>1852.3259277344</ele>
        <time>2018-11-08T00:55:05.282Z</time>
      </trkpt>
      <trkpt lat="44.08806" lon="7.72362">
        <ele>1852.3197021484</ele>
        <time>2018-11-08T00:55:16.702Z</time>
      </trkpt>
      <trkpt lat="44.08806" lon="7.72381">
        <ele>1850.8439941406</ele>
        <time>2018-11-08T00:55:28.125Z</time>
      </trkpt>
      <trkpt lat="44.08806" lon="7.72382">
        <ele>1850.8234863281</ele>
        <time>2018-11-08T00:55:39.548Z</time>
      </trkpt>
      <trkpt lat="44.08806" lon="7.72391">
        <ele>1850.0034179688</ele>
        <time>2018-11-08T00:55:50.972Z</time>
      </trkpt>
      <trkpt lat="44.08808" lon="7.72409">
        <ele>1846.7393798828</ele>
        <time>2018-11-08T00:56:02.398Z</time>
      </trkpt>
      <trkpt lat="44.08808" lon="7.72409">
        <ele>1846.7014160156</ele>
        <time>2018-11-08T00:56:13.824Z</time>
      </trkpt>
      <trkpt lat="44.0881" lon="7.7242">
        <ele>1844.7305908203</ele>
        <time>2018-11-08T00:56:25.251Z</time>
      </trkpt>
      <trkpt lat="44.08813" lon="7.72443">
        <ele>1842.6387939453</ele>
        <time>2018-11-08T00:56:36.681Z</time>
      </trkpt>
      <trkpt lat="44.08813" lon="7.72443">
        <ele>1842.6190185547</ele>
        <time>2018-11-08T00:56:48.111Z</time>
      </trkpt>
      <trkpt lat="44.08813" lon="7.72445">
        <ele>1842.4320068359</ele>
        <time>2018-11-08T00:56:59.541Z</time>
      </trkpt>
      <trkpt lat="44.08811" lon="7.72473">
        <ele>1841.1633300781</ele>
        <time>2018-11-08T00:57:10.974Z</time>
      </trkpt>
      <trkpt lat="44.08811" lon="7.72473">
        <ele>1841.1418457031</ele>
        <time>2018-11-08T00:57:22.407Z</time>
      </trkpt>
      <trkpt lat="44.08811" lon="7.72477">
        <ele>1840.7170410156</ele>
        <time>2018-11-08T00:57:33.841Z</time>
      </trkpt>
      <trkpt lat="44.08807" lon="7.72497">
        <ele>1839.8367919922</ele>
        <time>2018-11-08T00:57:45.277Z</time>
      </trkpt>
      <trkpt lat="44.08807" lon="7.72497">
        <ele>1839.8275146484</ele>
        <time>2018-11-08T00:57:56.713Z</time>
      </trkpt>
      <trkpt lat="44.08806" lon="7.72506">
        <ele>1839.7341308594</ele>
        <time>2018-11-08T00:58:08.150Z</time>
      </trkpt>
      <trkpt lat="44.08803" lon="7.72528">
        <ele>1840.7064208984</ele>
        <time>2018-11-08T00:58:19.590Z</time>
      </trkpt>
      <trkpt lat="44.08803" lon="7.72529">
        <ele>1840.796875</ele>
        <time>2018-11-08T00:58:31.030Z</time>
      </trkpt>
      <trkpt lat="44.08803" lon="7.72529">
        <ele>1840.8162841797</ele>
        <time>2018-11-08T00:58:42.470Z</time>
      </trkpt>
      <trkpt lat="44.08796" lon="7.72557">
        <ele>1840.212890625</ele>
        <time>2018-11-08T00:58:53.913Z</time>
      </trkpt>
      <trkpt lat="44.08796" lon="7.72558">
        <ele>1840.2077636719</ele>
        <time>2018-11-08T00:59:05.356Z</time>
      </trkpt>
      <trkpt lat="44.08794" lon="7.72566">
        <ele>1840.0086669922</ele>
        <time>2018-11-08T00:59:16.800Z</time>
      </trkpt>
      <trkpt lat="44.08791" lon="7.72578">
        <ele>1839.5595703125</ele>
        <time>2018-11-08T00:59:28.246Z</time>
      </trkpt>
      <trkpt lat="44.08791" lon="7.72578">
        <ele>1839.5520019531</ele>
        <time>2018-11-08T00:59:39.692Z</time>
      </trkpt>
      <trkpt lat="44.08788" lon="7.72595">
        <ele>1839.5148925781</ele>
        <time>2018-11-08T00:59:51.140Z</time>
      </trkpt>
      <trkpt lat="44.08784" lon="7.72617">
        <ele>1838.1882324219</ele>
        <time>2018-11-08T01:00:02.590Z</time>
      </trkpt>
      <trkpt lat="44.08784" lon="7.72617">
        <ele>1838.1711425781</ele>
        <time>2018-11-08T01:00:14.040Z</time>
      </trkpt>
      <trkpt lat="44.08784" lon="7.72617">
        <ele>1838.1453857422</ele>
        <time>2018-11-08T01:00:25.491Z</time>
      </trkpt>
      <trkpt lat="44.0878" lon="7.72638">
        <ele>1836.3703613281</ele>
        <time>2018-11-08T01:00:36.944Z</time>
      </trkpt>
      <trkpt lat="44.0878" lon="7.72646">
        <ele>1835.3745117188</ele>
        <time>2018-11-08T01:00:48.398Z</time>
      </trkpt>
      <trkpt lat="44.0878" lon="7.72646">
        <ele>1835.3477783203</ele>
        <time>2018-11-08T01:00:59.852Z</time>
      </trkpt>
      <trkpt lat="44.08779" lon="7.72652">
        <ele>1834.7330322266</ele>
        <time>2018-11-08T01:01:11.307Z</time>
      </trkpt>
      <trkpt lat="44.08774" lon="7.72667">
        <ele>1834.4652099609</ele>
        <time>2018-11-08T01:01:22.763Z</time>
      </trkpt>
      <trkpt lat="44.08774" lon="7.72668">
        <ele>1834.62890625</ele>
        <time>2018-11-08T01:01:34.220Z</time>
      </trkpt>
      <trkpt lat="44.08774" lon="7.72668">
        <ele>1834.6593017578</ele>
        <time>2018-11-08T01:01:45.677Z</time>
      </trkpt>
      <trkpt lat="44.08766" lon="7.7268">
        <ele>1836.3292236328</ele>
        <time>2018-11-08T01:01:57.135Z</time>
      </trkpt>
      <trkpt lat="44.08765" lon="7.72684">
        <ele>1836.154296875</ele>
        <time>2018-11-08T01:02:08.594Z</time>
      </trkpt>
      <trkpt lat="44.08764" lon="7.72684">
        <ele>1836.1461181641</ele>
        <time>2018-11-08T01:02:20.053Z</time>
      </trkpt>
      <trkpt lat="44.08761" lon="7.72697">
        <ele>1835.6527099609</ele>
        <time>2018-11-08T01:02:31.514Z</time>
      </trkpt>
      <trkpt lat="44.08761" lon="7.72697">
        <ele>1835.6441650391</ele>
        <time>2018-11-08T01:02:42.975Z</time>
      </trkpt>
      <trkpt lat="44.08759" lon="7.72703">
        <ele>1835.4410400391</ele>
        <time>2018-11-08T01:02:54.436Z</time>
      </trkpt>
      <trkpt lat="44.08756" lon="7.72713">
        <ele>1835.0759277344</ele>
        <time>2018-11-08T01:03:05.899Z</time>
      </trkpt>
      <trkpt lat="44.08756" lon="7.72713">
        <ele>1835.0679931641</ele>
        <time>2018-11-08T01:03:17.362Z</time>
      </trkpt>
      <trkpt lat="44.08752" lon="7.72729">
        <ele>1834.4766845703</ele>
        <time>2018-11-08T01:03:28.827Z</time>
      </trkpt>
      <trkpt lat="44.08752" lon="7.72729">
        <ele>1834.4680175781</ele>
        <time>2018-11-08T01:03:40.292Z</time>
      </trkpt>
      <trkpt lat="44.08752" lon="7.72729">
        <ele>1834.4559326172</ele>
        <time>2018-11-08T01:03:51.757Z</time>
      </trkpt>
      <trkpt lat="44.08748" lon="7.72749">
        <ele>1833.1630859375</ele>
        <time>2018-11-08T01:04:03.224Z</time>
      </trkpt>
      <trkpt lat="44.08747" lon="7.72753">
        <ele>1833.0211181641</ele>
        <time>2018-11-08T01:04:14.691Z</time>
      </trkpt>
      <trkpt lat="44.08747" lon="7.72753">
        <ele>1833.0115966797</ele>
        <time>2018-11-08T01:04:26.158Z</time>
      </trkpt>
      <trkpt lat="44.08743" lon="7.72769">
        <ele>1831.9591064453</ele>
        <time>2018-11-08T01:04:37.627Z</time>
      </trkpt>
      <trkpt lat="44.08738" lon="7.72778">
        <ele>1832.525390625</ele>
        <time>2018-11-08T01:04:49.098Z</time>
      </trkpt>
      <trkpt lat="44.08738" lon="7.72779">
        <ele>1832.5362548828</ele>
        <time>2018-11-08T01:05:00.569Z</time>
      </trkpt>
      <trkpt lat="44.08737" lon="7.72781">
        <ele>1832.7071533203</ele>
        <time>2018-11-08T01:05:12.040Z</time>
      </trkpt>
      <trkpt lat="44.08726" lon="7.72788">
        <ele>1836.5249023438</ele>
        <time>2018-11-08T01:05:23.513Z</time>
      </trkpt>
      <trkpt lat="44.08726" lon="7.72788">
        <ele>1836.5318603516</ele>
        <time>2018-11-08T01:05:34.986Z</time>
      </trkpt>
      <trkpt lat="44.08725" lon="7.72788">
        <ele>1836.5356445312</ele>
        <time>2018-11-08T01:05:46.459Z</time>
      </trkpt>
      <trkpt lat="44.08717" lon="7.72803">
        <ele>1836.8618164062</ele>
        <time>2018-11-08T01:05:57.934Z</time>
      </trkpt>
      <trkpt lat="44.08716" lon="7.72804">
        <ele>1836.8858642578</ele>
        <time>2018-11-08T01:06:09.409Z</time>
      </trkpt>
      <trkpt lat="44.08716" lon="7.72804">
        <ele>1836.8952636719</ele>
        <time>2018-11-08T01:06:20.885Z</time>
      </trkpt>
      <trkpt lat="44.08708" lon="7.72815">
        <ele>1837.5291748047</ele>
        <time>2018-11-08T01:06:32.362Z</time>
      </trkpt>
      <trkpt lat="44.08708" lon="7.72816">
        <ele>1837.5385742188</ele>
        <time>2018-11-08T01:06:43.839Z</time>
      </trkpt>
      <trkpt lat="44.08704" lon="7.72822">
        <ele>1837.8818359375</ele>
        <time>2018-11-08T01:06:55.317Z</time>
      </trkpt>
      <trkpt lat="44.087" lon="7.72827">
        <ele>1838.1787109375</ele>
        <time>2018-11-08T01:07:06.796Z</time>
      </trkpt>
      <trkpt lat="44.087" lon="7.72827">
        <ele>1838.1876220703</ele>
        <time>2018-11-08T01:07:18.275Z</time>
      </trkpt>
      <trkpt lat="44.08691" lon="7.72842">
        <ele>1838.8299560547</ele>
        <time>2018-11-08T01:07:29.756Z</time>
      </trkpt>
      <trkpt lat="44.0869" lon="7.72842">
        <ele>1838.8315429688</ele>
        <time>2018-11-08T01:07:41.238Z</time>
      </trkpt>
      <trkpt lat="44.08688" lon="7.72845">
        <ele>1838.8585205078</ele>
        <time>2018-11-08T01:07:52.720Z</time>
      </trkpt>
      <trkpt lat="44.08679" lon="7.72861">
        <ele>1838.5207519531</ele>
        <time>2018-11-08T01:08:04.204Z</time>
      </trkpt>
      <trkpt lat="44.08679" lon="7.72862">
        <ele>1838.5170898438</ele>
        <time>2018-11-08T01:08:15.688Z</time>
      </trkpt>
      <trkpt lat="44.08672" lon="7.72874">
        <ele>1838.2528076172</ele>
        <time>2018-11-08T01:08:27.174Z</time>
      </trkpt>
      <trkpt lat="44.08666" lon="7.72888">
        <ele>1837.4891357422</ele>
        <time>2018-11-08T01:08:38.662Z</time>
      </trkpt>
      <trkpt lat="44.08666" lon="7.72888">
        <ele>1837.4781494141</ele>
        <time>2018-11-08T01:08:50.150Z</time>
      </trkpt>
      <trkpt lat="44.0866" lon="7.72902">
        <ele>1836.69921875</ele>
        <time>2018-11-08T01:09:01.640Z</time>
      </trkpt>
      <trkpt lat="44.08652" lon="7.72919">
        <ele>1835.5744628906</ele>
        <time>2018-11-08T01:09:13.132Z</time>
      </trkpt>
      <trkpt lat="44.08652" lon="7.72919">
        <ele>1835.5618896484</ele>
        <time>2018-11-08T01:09:24.624Z</time>
      </trkpt>
      <trkpt lat="44.0865" lon="7.72924">
        <ele>1834.955078125</ele>
        <time>2018-11-08T01:09:36.117Z</time>
      </trkpt>
      <trkpt lat="44.08643" lon="7.7294">
        <ele>1832.7425537109</ele>
        <time>2018-11-08T01:09:47.612Z</time>
      </trkpt>
      <trkpt lat="44.08638" lon="7.72944">
        <ele>1833.0969238281</ele>
        <time>2018-11-08T01:09:59.108Z</time>
      </trkpt>
      <trkpt lat="44.08638" lon="7.72944">
        <ele>1833.1068115234</ele>
        <time>2018-11-08T01:10:10.604Z</time>
      </trkpt>
      <trkpt lat="44.08629" lon="7.72951">
        <ele>1833.4196777344</ele>
        <time>2018-11-08T01:10:22.102Z</time>
      </trkpt>
      <trkpt lat="44.08621" lon="7.72956">
        <ele>1834.1867675781</ele>
        <time>2018-11-08T01:10:33.601Z</time>
      </trkpt>
      <trkpt lat="44.08621" lon="7.72956">
        <ele>1834.2006835938</ele>
        <time>2018-11-08T01:10:45.100Z</time>
      </trkpt>
      <trkpt lat="44.08616" lon="7.7296">
        <ele>1834.7038574219</ele>
        <time>2018-11-08T01:10:56.600Z</time>
      </trkpt>
      <trkpt lat="44.08609" lon="7.72964">
        <ele>1835.0947265625</ele>
        <time>2018-11-08T01:11:08.101Z</time>
      </trkpt>
      <trkpt lat="44.08609" lon="7.72964">
        <ele>1835.095703125</ele>
        <time>2018-11-08T01:11:19.602Z</time>
      </trkpt>
      <trkpt lat="44.08602" lon="7.72969">
        <ele>1835.1489257812</ele>
        <time>2018-11-08T01:11:31.105Z</time>
      </trkpt>
      <trkpt lat="44.08595" lon="7.72972">
        <ele>1835.7032470703</ele>
        <time>2018-11-08T01:11:42.609Z</time>
      </trkpt>
      <trkpt lat="44.08595" lon="7.72972">
        <ele>1835.7164306641</ele>
        <time>2018-11-08T01:11:54.113Z</time>
      </trkpt>
      <trkpt lat="44.08586" lon="7.72976">
        <ele>1836.3858642578</ele>
        <time>2018-11-08T01:12:05.618Z</time>
      </trkpt>
      <trkpt lat="44.0858" lon="7.72978">
        <ele>1837.6635742188</ele>
        <time>2018-11-08T01:12:17.124Z</time>
      </trkpt>
      <trkpt lat="44.0858" lon="7.72978">
        <ele>1837.7127685547</ele>
        <time>2018-11-08T01:12:28.630Z</time>
      </trkpt>
      <trkpt lat="44.08565" lon="7.72982">
        <ele>1842.0570068359</ele>
        <time>2018-11-08T01:12:40.139Z</time>
      </trkpt>
      <trkpt lat="44.08565" lon="7.72982">
        <ele>1842.1071777344</ele>
        <time>2018-11-08T01:12:51.648Z</time>
      </trkpt>
      <trkpt lat="44.08558" lon="7.72984">
        <ele>1844.1134033203</ele>
        <time>2018-11-08T01:13:03.158Z</time>
      </trkpt>
      <trkpt lat="44.0855" lon="7.72991">
        <ele>1845.2918701172</ele>
        <time>2018-11-08T01:13:14.669Z</time>
      </trkpt>
      <trkpt lat="44.0855" lon="7.72991">
        <ele>1845.3157958984</ele>
        <time>2018-11-08T01:13:26.180Z</time>
      </trkpt>
      <trkpt lat="44.08546" lon="7.72995">
        <ele>1845.9694824219</ele>
        <time>2018-11-08T01:13:37.692Z</time>
      </trkpt>
      <trkpt lat="44.08537" lon="7.73009">
        <ele>1846.3316650391</ele>
        <time>2018-11-08T01:13:49.206Z</time>
      </trkpt>
      <trkpt lat="44.08532" lon="7.73021">
        <ele>1845.7218017578</ele>
        <time>2018-11-08T01:14:00.722Z</time>
      </trkpt>
      <trkpt lat="44.08532" lon="7.73021">
        <ele>1845.7132568359</ele>
        <time>2018-11-08T01:14:12.238Z</time>
      </trkpt>
      <trkpt lat="44.08528" lon="7.73031">
        <ele>1845.3450927734</ele>
        <time>2018-11-08T01:14:23.755Z</time>
      </trkpt>
      <trkpt lat="44.08525" lon="7.73038">
        <ele>1844.8364257812</ele>
        <time>2018-11-08T01:14:35.273Z</time>
      </trkpt>
      <trkpt lat="44.08525" lon="7.73039">
        <ele>1844.8226318359</ele>
        <time>2018-11-08T01:14:46.791Z</time>
      </trkpt>
      <trkpt lat="44.0852" lon="7.73057">
        <ele>1843.7662353516</ele>
        <time>2018-11-08T01:14:58.311Z</time>
      </trkpt>
      <trkpt lat="44.0852" lon="7.73057">
        <ele>1843.7515869141</ele>
        <time>2018-11-08T01:15:09.831Z</time>
      </trkpt>
      <trkpt lat="44.08519" lon="7.73058">
        <ele>1843.6958007812</ele>
        <time>2018-11-08T01:15:21.352Z</time>
      </trkpt>
      <trkpt lat="44.08511" lon="7.73078">
        <ele>1843.0859375</ele>
        <time>2018-11-08T01:15:32.875Z</time>
      </trkpt>
      <trkpt lat="44.08511" lon="7.73079">
        <ele>1843.0792236328</ele>
        <time>2018-11-08T01:15:44.398Z</time>
      </trkpt>
      <trkpt lat="44.08511" lon="7.73079">
        <ele>1843.0776367188</ele>
        <time>2018-11-08T01:15:55.921Z</time>
      </trkpt>
      <trkpt lat="44.08498" lon="7.73102">
        <ele>1844.5084228516</ele>
        <time>2018-11-08T01:16:07.448Z</time>
      </trkpt>
      <trkpt lat="44.08498" lon="7.73102">
        <ele>1844.5236816406</ele>
        <time>2018-11-08T01:16:18.975Z</time>
      </trkpt>
      <trkpt lat="44.08495" lon="7.73109">
        <ele>1845.0412597656</ele>
        <time>2018-11-08T01:16:30.503Z</time>
      </trkpt>
      <trkpt lat="44.08488" lon="7.7312">
        <ele>1846.0164794922</ele>
        <time>2018-11-08T01:16:42.032Z</time>
      </trkpt>
      <trkpt lat="44.08488" lon="7.7312">
        <ele>1846.0330810547</ele>
        <time>2018-11-08T01:16:53.561Z</time>
      </trkpt>
      <trkpt lat="44.08483" lon="7.7313">
        <ele>1846.4158935547</ele>
        <time>2018-11-08T01:17:05.092Z</time>
      </trkpt>
      <trkpt lat="44.08473" lon="7.73145">
        <ele>1844.8211669922</ele>
        <time>2018-11-08T01:17:16.625Z</time>
      </trkpt>
      <trkpt lat="44.0847" lon="7.73149">
        <ele>1844.4899902344</ele>
        <time>2018-11-08T01:17:28.159Z</time>
      </trkpt>
      <trkpt lat="44.0847" lon="7.73149">
        <ele>1844.4735107422</ele>
        <time>2018-11-08T01:17:39.693Z</time>
      </trkpt>
      <trkpt lat="44.08457" lon="7.73168">
        <ele>1842.7574462891</ele>
        <time>2018-11-08T01:17:51.230Z</time>
      </trkpt>
      <trkpt lat="44.08457" lon="7.73168">
        <ele>1842.7407226562</ele>
        <time>2018-11-08T01:18:02.767Z</time>
      </trkpt>
      <trkpt lat="44.08455" lon="7.73171">
        <ele>1842.5437011719</ele>
        <time>2018-11-08T01:18:14.304Z</time>
      </trkpt>
      <trkpt lat="44.08446" lon="7.73182">
        <ele>1842.2490234375</ele>
        <time>2018-11-08T01:18:25.843Z</time>
      </trkpt>
      <trkpt lat="44.08446" lon="7.73183">
        <ele>1842.232421875</ele>
        <time>2018-11-08T01:18:37.382Z</time>
      </trkpt>
      <trkpt lat="44.08445" lon="7.73184">
        <ele>1842.1431884766</ele>
        <time>2018-11-08T01:18:48.921Z</time>
      </trkpt>
      <trkpt lat="44.0843" lon="7.73201">
        <ele>1838.0274658203</ele>
        <time>2018-11-08T01:19:00.464Z</time>
      </trkpt>
      <trkpt lat="44.08426" lon="7.73205">
        <ele>1836.8959960938</ele>
        <time>2018-11-08T01:19:12.007Z</time>
      </trkpt>
      <trkpt lat="44.08426" lon="7.73205">
        <ele>1836.8548583984</ele>
        <time>2018-11-08T01:19:23.550Z</time>
      </trkpt>
      <trkpt lat="44.08416" lon="7.73216">
        <ele>1834.0627441406</ele>
        <time>2018-11-08T01:19:35.095Z</time>
      </trkpt>
      <trkpt lat="44.08415" lon="7.73216">
        <ele>1833.8912353516</ele>
        <time>2018-11-08T01:19:46.640Z</time>
      </trkpt>
      <trkpt lat="44.08415" lon="7.73217">
        <ele>1833.8548583984</ele>
        <time>2018-11-08T01:19:58.185Z</time>
      </trkpt>
      <trkpt lat="44.08403" lon="7.73228">
        <ele>1831.9379882812</ele>
        <time>2018-11-08T01:20:09.733Z</time>
      </trkpt>
      <trkpt lat="44.08399" lon="7.73232">
        <ele>1831.4401855469</ele>
        <time>2018-11-08T01:20:21.282Z</time>
      </trkpt>
      <trkpt lat="44.08399" lon="7.73232">
        <ele>1831.4208984375</ele>
        <time>2018-11-08T01:20:32.831Z</time>
      </trkpt>
      <trkpt lat="44.08393" lon="7.73238">
        <ele>1830.599609375</ele>
        <time>2018-11-08T01:20:44.381Z</time>
      </trkpt>
      <trkpt lat="44.08386" lon="7.73248">
        <ele>1829.2021484375</ele>
        <time>2018-11-08T01:20:55.932Z</time>
      </trkpt>
      <trkpt lat="44.08386" lon="7.73248">
        <ele>1829.1756591797</ele>
        <time>2018-11-08T01:21:07.483Z</time>
      </trkpt>
      <trkpt lat="44.0838" lon="7.73257">
        <ele>1827.8343505859</ele>
        <time>2018-11-08T01:21:19.036Z</time>
      </trkpt>
      <trkpt lat="44.08376" lon="7.73264">
        <ele>1826.6441650391</ele>
        <time>2018-11-08T01:21:30.590Z</time>
      </trkpt>
      <trkpt lat="44.08376" lon="7.73264">
        <ele>1826.6116943359</ele>
        <time>2018-11-08T01:21:42.144Z</time>
      </trkpt>
      <trkpt lat="44.08372" lon="7.7327">
        <ele>1825.7661132812</ele>
        <time>2018-11-08T01:21:53.699Z</time>
      </trkpt>
      <trkpt lat="44.08367" lon="7.73277">
        <ele>1825.2009277344</ele>
        <time>2018-11-08T01:22:05.255Z</time>
      </trkpt>
      <trkpt lat="44.08367" lon="7.73277">
        <ele>1825.1850585938</ele>
        <time>2018-11-08T01:22:16.811Z</time>
      </trkpt>
      <trkpt lat="44.08365" lon="7.73281">
        <ele>1824.8862304688</ele>
        <time>2018-11-08T01:22:28.367Z</time>
      </trkpt>
      <trkpt lat="44.08355" lon="7.73292">
        <ele>1821.1901855469</ele>
        <time>2018-11-08T01:22:39.926Z</time>
      </trkpt>
      <trkpt lat="44.08353" lon="7.73293">
        <ele>1820.0689697266</ele>
        <time>2018-11-08T01:22:51.485Z</time>
      </trkpt>
      <trkpt lat="44.08353" lon="7.73293">
        <ele>1819.9711914062</ele>
        <time>2018-11-08T01:23:03.044Z</time>
      </trkpt>
      <trkpt lat="44.08347" lon="7.73294">
        <ele>1816.8350830078</ele>
        <time>2018-11-08T01:23:14.604Z</time>
      </trkpt>
      <trkpt lat="44.08341" lon="7.7329">
        <ele>1814.0886230469</ele>
        <time>2018-11-08T01:23:26.165Z</time>
      </trkpt>
      <trkpt lat="44.08341" lon="7.7329">
        <ele>1814.0150146484</ele>
        <time>2018-11-08T01:23:37.726Z</time>
      </trkpt>
      <trkpt lat="44.0834" lon="7.7329">
        <ele>1813.6885986328</ele>
        <time>2018-11-08T01:23:49.287Z</time>
      </trkpt>
      <trkpt lat="44.08337" lon="7.73278">
        <ele>1814.0325927734</ele>
        <time>2018-11-08T01:24:00.850Z</time>
      </trkpt>
      <trkpt lat="44.08337" lon="7.73278">
        <ele>1814.0394287109</ele>
        <time>2018-11-08T01:24:12.413Z</time>
      </trkpt>
      <trkpt lat="44.08336" lon="7.73277">
        <ele>1814.0618896484</ele>
        <time>2018-11-08T01:24:23.976Z</time>
      </trkpt>
      <trkpt lat="44.08333" lon="7.73261">
        <ele>1814.857421875</ele>
        <time>2018-11-08T01:24:35.541Z</time>
      </trkpt>
      <trkpt lat="44.08333" lon="7.73261">
        <ele>1814.8695068359</ele>
        <time>2018-11-08T01:24:47.106Z</time>
      </trkpt>
      <trkpt lat="44.0833" lon="7.7325">
        <ele>1815.7868652344</ele>
        <time>2018-11-08T01:24:58.672Z</time>
      </trkpt>
      <trkpt lat="44.0833" lon="7.7325">
        <ele>1815.8323974609</ele>
        <time>2018-11-08T01:25:10.238Z</time>
      </trkpt>
      <trkpt lat="44.08328" lon="7.7324">
        <ele>1817.4145507812</ele>
        <time>2018-11-08T01:25:21.805Z</time>
      </trkpt>
      <trkpt lat="44.08328" lon="7.7324">
        <ele>1817.4155273438</ele>
        <time>2018-11-08T01:25:33.372Z</time>
      </trkpt>
      <trkpt lat="44.08328" lon="7.7324">
        <ele>1817.4577636719</ele>
        <time>2018-11-08T01:25:44.939Z</time>
      </trkpt>
      <trkpt lat="44.08326" lon="7.73229">
        <ele>1819.3822021484</ele>
        <time>2018-11-08T01:25:56.507Z</time>
      </trkpt>
      <trkpt lat="44.08325" lon="7.73227">
        <ele>1819.5383300781</ele>
        <time>2018-11-08T01:26:08.076Z</time>
      </trkpt>
      <trkpt lat="44.08325" lon="7.73227">
        <ele>1819.5540771484</ele>
        <time>2018-11-08T01:26:19.645Z</time>
      </trkpt>
      <trkpt lat="44.08319" lon="7.73212">
        <ele>1820.4448242188</ele>
        <time>2018-11-08T01:26:31.216Z</time>
      </trkpt>
      <trkpt lat="44.0831" lon="7.73194">
        <ele>1820.2163085938</ele>
        <time>2018-11-08T01:26:42.789Z</time>
      </trkpt>
      <trkpt lat="44.0831" lon="7.73194">
        <ele>1820.2135009766</ele>
        <time>2018-11-08T01:26:54.362Z</time>
      </trkpt>
      <trkpt lat="44.08306" lon="7.73185">
        <ele>1820.1007080078</ele>
        <time>2018-11-08T01:27:05.937Z</time>
      </trkpt>
      <trkpt lat="44.08306" lon="7.73184">
        <ele>1820.09765625</ele>
        <time>2018-11-08T01:27:17.512Z</time>
      </trkpt>
      <trkpt lat="44.08298" lon="7.73168">
        <ele>1819.9534912109</ele>
        <time>2018-11-08T01:27:29.089Z</time>
      </trkpt>
      <trkpt lat="44.08298" lon="7.73168">
        <ele>1819.9565429688</ele>
        <time>2018-11-08T01:27:40.666Z</time>
      </trkpt>
      <trkpt lat="44.08297" lon="7.73165">
        <ele>1819.9910888672</ele>
        <time>2018-11-08T01:27:52.243Z</time>
      </trkpt>
      <trkpt lat="44.08288" lon="7.73147">
        <ele>1820.1019287109</ele>
        <time>2018-11-08T01:28:03.823Z</time>
      </trkpt>
      <trkpt lat="44.0828" lon="7.73133">
        <ele>1819.5030517578</ele>
        <time>2018-11-08T01:28:15.405Z</time>
      </trkpt>
      <trkpt lat="44.08273" lon="7.73125">
        <ele>1817.9411621094</ele>
        <time>2018-11-08T01:28:26.988Z</time>
      </trkpt>
      <trkpt lat="44.08272" lon="7.73124">
        <ele>1817.9035644531</ele>
        <time>2018-11-08T01:28:38.571Z</time>
      </trkpt>
      <trkpt lat="44.08269" lon="7.7312">
        <ele>1816.9946289062</ele>
        <time>2018-11-08T01:28:50.155Z</time>
      </trkpt>
      <trkpt lat="44.0826" lon="7.73111">
        <ele>1814.6439208984</ele>
        <time>2018-11-08T01:29:01.741Z</time>
      </trkpt>
      <trkpt lat="44.0826" lon="7.73111">
        <ele>1814.6030273438</ele>
        <time>2018-11-08T01:29:13.327Z</time>
      </trkpt>
      <trkpt lat="44.08258" lon="7.73108">
        <ele>1813.8839111328</ele>
        <time>2018-11-08T01:29:24.913Z</time>
      </trkpt>
      <trkpt lat="44.08252" lon="7.73098">
        <ele>1813.1669921875</ele>
        <time>2018-11-08T01:29:36.501Z</time>
      </trkpt>
      <trkpt lat="44.08252" lon="7.73097">
        <ele>1813.1518554688</ele>
        <time>2018-11-08T01:29:48.089Z</time>
      </trkpt>
      <trkpt lat="44.08249" lon="7.73093">
        <ele>1812.8370361328</ele>
        <time>2018-11-08T01:29:59.678Z</time>
      </trkpt>
      <trkpt lat="44.08244" lon="7.73082">
        <ele>1812.7595214844</ele>
        <time>2018-11-08T01:30:11.268Z</time>
      </trkpt>
      <trkpt lat="44.08244" lon="7.73081">
        <ele>1812.7647705078</ele>
        <time>2018-11-08T01:30:22.858Z</time>
      </trkpt>
      <trkpt lat="44.08243" lon="7.7308">
        <ele>1812.8038330078</ele>
        <time>2018-11-08T01:30:34.448Z</time>
      </trkpt>
      <trkpt lat="44.08236" lon="7.73064">
        <ele>1813.5246582031</ele>
        <time>2018-11-08T01:30:46.040Z</time>
      </trkpt>
      <trkpt lat="44.08236" lon="7.73064">
        <ele>1813.5352783203</ele>
        <time>2018-11-08T01:30:57.632Z</time>
      </trkpt>
      <trkpt lat="44.08235" lon="7.73061">
        <ele>1813.6619873047</ele>
        <time>2018-11-08T01:31:09.225Z</time>
      </trkpt>
      <trkpt lat="44.08231" lon="7.73048">
        <ele>1815.3974609375</ele>
        <time>2018-11-08T01:31:20.820Z</time>
      </trkpt>
      <trkpt lat="44.08231" lon="7.73047">
        <ele>1815.4285888672</ele>
        <time>2018-11-08T01:31:32.415Z</time>
      </trkpt>
      <trkpt lat="44.08229" lon="7.73042">
        <ele>1816.1571044922</ele>
        <time>2018-11-08T01:31:44.010Z</time>
      </trkpt>
      <trkpt lat="44.08227" lon="7.73032">
        <ele>1817.7191162109</ele>
        <time>2018-11-08T01:31:55.606Z</time>
      </trkpt>
      <trkpt lat="44.08227" lon="7.73032">
        <ele>1817.7626953125</ele>
        <time>2018-11-08T01:32:07.202Z</time>
      </trkpt>
      <trkpt lat="44.08224" lon="7.73021">
        <ele>1819.7192382812</ele>
        <time>2018-11-08T01:32:18.800Z</time>
      </trkpt>
      <trkpt lat="44.08221" lon="7.73013">
        <ele>1819.9583740234</ele>
        <time>2018-11-08T01:32:30.399Z</time>
      </trkpt>
      <trkpt lat="44.08221" lon="7.73013">
        <ele>1819.9655761719</ele>
        <time>2018-11-08T01:32:41.998Z</time>
      </trkpt>
      <trkpt lat="44.08216" lon="7.73002">
        <ele>1820.3092041016</ele>
        <time>2018-11-08T01:32:53.598Z</time>
      </trkpt>
      <trkpt lat="44.08212" lon="7.72996">
        <ele>1820.1375732422</ele>
        <time>2018-11-08T01:33:05.199Z</time>
      </trkpt>
      <trkpt lat="44.08211" lon="7.72996">
        <ele>1820.1320800781</ele>
        <time>2018-11-08T01:33:16.800Z</time>
      </trkpt>
      <trkpt lat="44.08201" lon="7.72979">
        <ele>1819.701171875</ele>
        <time>2018-11-08T01:33:28.404Z</time>
      </trkpt>
      <trkpt lat="44.08201" lon="7.72979">
        <ele>1819.7001953125</ele>
        <time>2018-11-08T01:33:40.008Z</time>
      </trkpt>
      <trkpt lat="44.08201" lon="7.72979">
        <ele>1819.6948242188</ele>
        <time>2018-11-08T01:33:51.612Z</time>
      </trkpt>
      <trkpt lat="44.08191" lon="7.72963">
        <ele>1819.404296875</ele>
        <time>2018-11-08T01:34:03.218Z</time>
      </trkpt>
      <trkpt lat="44.08191" lon="7.72962">
        <ele>1819.4067382812</ele>
        <time>2018-11-08T01:34:14.824Z</time>
      </trkpt>
      <trkpt lat="44.0819" lon="7.72961">
        <ele>1819.4279785156</ele>
        <time>2018-11-08T01:34:26.431Z</time>
      </trkpt>
      <trkpt lat="44.08179" lon="7.72938">
        <ele>1821.4783935547</ele>
        <time>2018-11-08T01:34:38.041Z</time>
      </trkpt>
      <trkpt lat="44.08179" lon="7.72937">
        <ele>1821.5533447266</ele>
        <time>2018-11-08T01:34:49.651Z</time>
      </trkpt>
      <trkpt lat="44.08179" lon="7.72937">
        <ele>1821.5939941406</ele>
        <time>2018-11-08T01:35:01.261Z</time>
      </trkpt>
      <trkpt lat="44.08172" lon="7.72914">
        <ele>1825.7537841797</ele>
        <time>2018-11-08T01:35:12.874Z</time>
      </trkpt>
      <trkpt lat="44.08172" lon="7.72914">
        <ele>1825.8194580078</ele>
        <time>2018-11-08T01:35:24.487Z</time>
      </trkpt>
      <trkpt lat="44.08172" lon="7.72913">
        <ele>1825.9753417969</ele>
        <time>2018-11-08T01:35:36.100Z</time>
      </trkpt>
      <trkpt lat="44.08164" lon="7.72896">
        <ele>1829.1656494141</ele>
        <time>2018-11-08T01:35:47.715Z</time>
      </trkpt>
      <trkpt lat="44.08161" lon="7.72893">
        <ele>1828.83984375</ele>
        <time>2018-11-08T01:35:59.331Z</time>
      </trkpt>
      <trkpt lat="44.08161" lon="7.72893">
        <ele>1828.8245849609</ele>
        <time>2018-11-08T01:36:10.947Z</time>
      </trkpt>
      <trkpt lat="44.08149" lon="7.72881">
        <ele>1827.7198486328</ele>
        <time>2018-11-08T01:36:22.565Z</time>
      </trkpt>
      <trkpt lat="44.08145" lon="7.72878">
        <ele>1827.6931152344</ele>
        <time>2018-11-08T01:36:34.184Z</time>
      </trkpt>
      <trkpt lat="44.08145" lon="7.72877">
        <ele>1827.6917724609</ele>
        <time>2018-11-08T01:36:45.803Z</time>
      </trkpt>
      <trkpt lat="44.08134" lon="7.72865">
        <ele>1827.5968017578</ele>
        <time>2018-11-08T01:36:57.424Z</time>
      </trkpt>
      <trkpt lat="44.08134" lon="7.72864">
        <ele>1827.5954589844</ele>
        <time>2018-11-08T01:37:09.045Z</time>
      </trkpt>
      <trkpt lat="44.0813" lon="7.7286">
        <ele>1827.5604248047</ele>
        <time>2018-11-08T01:37:20.667Z</time>
      </trkpt>
      <trkpt lat="44.08119" lon="7.7285">
        <ele>1826.2496337891</ele>
        <time>2018-11-08T01:37:32.291Z</time>
      </trkpt>
      <trkpt lat="44.08118" lon="7.72849">
        <ele>1826.2303466797</ele>
        <time>2018-11-08T01:37:43.915Z</time>
      </trkpt>
      <trkpt lat="44.08098" lon="7.72831">
        <ele>1826.4637451172</ele>
        <time>2018-11-08T01:37:55.543Z</time>
      </trkpt>
      <trkpt lat="44.08098" lon="7.72831">
        <ele>1826.4731445312</ele>
        <time>2018-11-08T01:38:07.171Z</time>
      </trkpt>
      <trkpt lat="44.08084" lon="7.72818">
        <ele>1827.2728271484</ele>
        <time>2018-11-08T01:38:18.802Z</time>
      </trkpt>
      <trkpt lat="44.08085" lon="7.72816">
        <ele>1828.1380615234</ele>
        <time>2018-11-08T01:38:30.433Z</time>
      </trkpt>
      <trkpt lat="44.0805" lon="7.72804">
        <ele>1824.9558105469</ele>
        <time>2018-11-08T01:38:42.070Z</time>
      </trkpt>
      <trkpt lat="44.0805" lon="7.72804">
        <ele>1824.9378662109</ele>
        <time>2018-11-08T01:38:53.707Z</time>
      </trkpt>
      <trkpt lat="44.08049" lon="7.72804">
        <ele>1824.8266601562</ele>
        <time>2018-11-08T01:39:05.344Z</time>
      </trkpt>
      <trkpt lat="44.08014" lon="7.72786">
        <ele>1820.1652832031</ele>
        <time>2018-11-08T01:39:16.987Z</time>
      </trkpt>
      <trkpt lat="44.08004" lon="7.7278">
        <ele>1817.4298095703</ele>
        <time>2018-11-08T01:39:28.632Z</time>
      </trkpt>
      <trkpt lat="44.07997" lon="7.72769">
        <ele>1817.3098144531</ele>
        <time>2018-11-08T01:39:40.279Z</time>
      </trkpt>
      <trkpt lat="44.07991" lon="7.72751">
        <ele>1818.9302978516</ele>
        <time>2018-11-08T01:39:51.928Z</time>
      </trkpt>
      <trkpt lat="44.07986" lon="7.72724">
        <ele>1818.7143554688</ele>
        <time>2018-11-08T01:40:03.580Z</time>
      </trkpt>
      <trkpt lat="44.07986" lon="7.72652">
        <ele>1828.7641601562</ele>
        <time>2018-11-08T01:40:15.240Z</time>
      </trkpt>
      <trkpt lat="44.07989" lon="7.72626">
        <ele>1834.6431884766</ele>
        <time>2018-11-08T01:40:26.903Z</time>
      </trkpt>
      <trkpt lat="44.07984" lon="7.7261">
        <ele>1834.8111572266</ele>
        <time>2018-11-08T01:40:38.568Z</time>
      </trkpt>
      <trkpt lat="44.0796" lon="7.72586">
        <ele>1826.8287353516</ele>
        <time>2018-11-08T01:40:50.238Z</time>
      </trkpt>
      <trkpt lat="44.0795" lon="7.72569">
        <ele>1825.8688964844</ele>
        <time>2018-11-08T01:41:01.911Z</time>
      </trkpt>
      <trkpt lat="44.07944" lon="7.72553">
        <ele>1826.6846923828</ele>
        <time>2018-11-08T01:41:13.586Z</time>
      </trkpt>
      <trkpt lat="44.0793" lon="7.72508">
        <ele>1831.4154052734</ele>
        <time>2018-11-08T01:41:25.266Z</time>
      </trkpt>
      <trkpt lat="44.0793" lon="7.72508">
        <ele>1831.4427490234</ele>
        <time>2018-11-08T01:41:36.947Z</time>
      </trkpt>
      <trkpt lat="44.07919" lon="7.72474">
        <ele>1834.138671875</ele>
        <time>2018-11-08T01:41:48.632Z</time>
      </trkpt>
      <trkpt lat="44.07886" lon="7.72377">
        <ele>1835.8002929688</ele>
        <time>2018-11-08T01:42:00.329Z</time>
      </trkpt>
      <trkpt lat="44.07876" lon="7.72325">
        <ele>1837.9167480469</ele>
        <time>2018-11-08T01:42:12.032Z</time>
      </trkpt>
      <trkpt lat="44.07873" lon="7.72313">
        <ele>1838.1687011719</ele>
        <time>2018-11-08T01:42:23.737Z</time>
      </trkpt>
      <trkpt lat="44.07875" lon="7.72291">
        <ele>1841.6002197266</ele>
        <time>2018-11-08T01:42:35.444Z</time>
      </trkpt>
      <trkpt lat="44.07872" lon="7.72277">
        <ele>1842.0920410156</ele>
        <time>2018-11-08T01:42:47.153Z</time>
      </trkpt>
      <trkpt lat="44.07866" lon="7.72265">
        <ele>1841.15625</ele>
        <time>2018-11-08T01:42:58.864Z</time>
      </trkpt>
      <trkpt lat="44.07835" lon="7.72237">
        <ele>1839.7448730469</ele>
        <time>2018-11-08T01:43:10.581Z</time>
      </trkpt>
      <trkpt lat="44.07802" lon="7.72215">
        <ele>1839.3488769531</ele>
        <time>2018-11-08T01:43:22.304Z</time>
      </trkpt>
      <trkpt lat="44.07782" lon="7.72215">
        <ele>1837.1893310547</ele>
        <time>2018-11-08T01:43:34.030Z</time>
      </trkpt>
      <trkpt lat="44.07774" lon="7.72213">
        <ele>1836.5855712891</ele>
        <time>2018-11-08T01:43:45.757Z</time>
      </trkpt>
      <trkpt lat="44.07768" lon="7.72205">
        <ele>1837.017578125</ele>
        <time>2018-11-08T01:43:57.485Z</time>
      </trkpt>
      <trkpt lat="44.07763" lon="7.72195">
        <ele>1837.857421875</ele>
        <time>2018-11-08T01:44:09.215Z</time>
      </trkpt>
      <trkpt lat="44.0776" lon="7.7219">
        <ele>1838.2172851562</ele>
        <time>2018-11-08T01:44:20.946Z</time>
      </trkpt>
      <trkpt lat="44.07754" lon="7.72185">
        <ele>1838.2172851562</ele>
        <time>2018-11-08T01:44:32.678Z</time>
      </trkpt>
      <trkpt lat="44.07742" lon="7.72178">
        <ele>1837.7854003906</ele>
        <time>2018-11-08T01:44:44.412Z</time>
      </trkpt>
      <trkpt lat="44.07732" lon="7.72175">
        <ele>1837.0006103516</ele>
        <time>2018-11-08T01:44:56.147Z</time>
      </trkpt>
      <trkpt lat="44.07732" lon="7.72175">
        <ele>1836.9851074219</ele>
        <time>2018-11-08T01:45:07.882Z</time>
      </trkpt>
      <trkpt lat="44.07728" lon="7.72174">
        <ele>1836.681640625</ele>
        <time>2018-11-08T01:45:19.618Z</time>
      </trkpt>
      <trkpt lat="44.07717" lon="7.7217">
        <ele>1835.9332275391</ele>
        <time>2018-11-08T01:45:31.356Z</time>
      </trkpt>
      <trkpt lat="44.07712" lon="7.72165">
        <ele>1835.9931640625</ele>
        <time>2018-11-08T01:45:43.095Z</time>
      </trkpt>
      <trkpt lat="44.07706" lon="7.72155">
        <ele>1836.5930175781</ele>
        <time>2018-11-08T01:45:54.835Z</time>
      </trkpt>
      <trkpt lat="44.07706" lon="7.72129">
        <ele>1840.0245361328</ele>
        <time>2018-11-08T01:46:06.578Z</time>
      </trkpt>
      <trkpt lat="44.07703" lon="7.72104">
        <ele>1842.9639892578</ele>
        <time>2018-11-08T01:46:18.324Z</time>
      </trkpt>
      <trkpt lat="44.07694" lon="7.72093">
        <ele>1843.3359375</ele>
        <time>2018-11-08T01:46:30.072Z</time>
      </trkpt>
      <trkpt lat="44.07685" lon="7.72089">
        <ele>1844.5050048828</ele>
        <time>2018-11-08T01:46:41.822Z</time>
      </trkpt>
      <trkpt lat="44.07668" lon="7.72092">
        <ele>1845.7407226562</ele>
        <time>2018-11-08T01:46:53.574Z</time>
      </trkpt>
      <trkpt lat="44.07647" lon="7.72099">
        <ele>1846.8326416016</ele>
        <time>2018-11-08T01:47:05.330Z</time>
      </trkpt>
      <trkpt lat="44.07636" lon="7.72106">
        <ele>1846.9645996094</ele>
        <time>2018-11-08T01:47:17.088Z</time>
      </trkpt>
      <trkpt lat="44.07634" lon="7.72105">
        <ele>1847.2639160156</ele>
        <time>2018-11-08T01:47:28.846Z</time>
      </trkpt>
      <trkpt lat="44.07634" lon="7.72105">
        <ele>1847.2961425781</ele>
        <time>2018-11-08T01:47:40.604Z</time>
      </trkpt>
      <trkpt lat="44.07631" lon="7.72103">
        <ele>1847.8404541016</ele>
        <time>2018-11-08T01:47:52.363Z</time>
      </trkpt>
      <trkpt lat="44.07625" lon="7.72104">
        <ele>1848.1507568359</ele>
        <time>2018-11-08T01:48:04.123Z</time>
      </trkpt>
      <trkpt lat="44.07613" lon="7.72112">
        <ele>1846.5670166016</ele>
        <time>2018-11-08T01:48:15.885Z</time>
      </trkpt>
      <trkpt lat="44.07582" lon="7.72129">
        <ele>1844.26171875</ele>
        <time>2018-11-08T01:48:27.652Z</time>
      </trkpt>
      <trkpt lat="44.07566" lon="7.72135">
        <ele>1842.84375</ele>
        <time>2018-11-08T01:48:39.422Z</time>
      </trkpt>
      <trkpt lat="44.07559" lon="7.72135">
        <ele>1842.423828125</ele>
        <time>2018-11-08T01:48:51.193Z</time>
      </trkpt>
      <trkpt lat="44.0755" lon="7.72126">
        <ele>1844.7994384766</ele>
        <time>2018-11-08T01:49:02.966Z</time>
      </trkpt>
      <trkpt lat="44.07554" lon="7.72114">
        <ele>1848.8449707031</ele>
        <time>2018-11-08T01:49:14.740Z</time>
      </trkpt>
      <trkpt lat="44.07572" lon="7.72101">
        <ele>1850.7886962891</ele>
        <time>2018-11-08T01:49:26.517Z</time>
      </trkpt>
      <trkpt lat="44.07589" lon="7.72063">
        <ele>1860.2814941406</ele>
        <time>2018-11-08T01:49:38.300Z</time>
      </trkpt>
      <trkpt lat="44.07607" lon="7.72041">
        <ele>1863.880859375</ele>
        <time>2018-11-08T01:49:50.086Z</time>
      </trkpt>
      <trkpt lat="44.07646" lon="7.72022">
        <ele>1864.6765136719</ele>
        <time>2018-11-08T01:50:01.879Z</time>
      </trkpt>
      <trkpt lat="44.07674" lon="7.72007">
        <ele>1865.2524414062</ele>
        <time>2018-11-08T01:50:13.677Z</time>
      </trkpt>
      <trkpt lat="44.07676" lon="7.72">
        <ele>1866.6719970703</ele>
        <time>2018-11-08T01:50:25.476Z</time>
      </trkpt>
      <trkpt lat="44.07674" lon="7.71994">
        <ele>1868.2557373047</ele>
        <time>2018-11-08T01:50:37.275Z</time>
      </trkpt>
      <trkpt lat="44.0767" lon="7.71991">
        <ele>1869.3715820312</ele>
        <time>2018-11-08T01:50:49.075Z</time>
      </trkpt>
      <trkpt lat="44.07656" lon="7.71992">
        <ele>1870.6553955078</ele>
        <time>2018-11-08T01:51:00.877Z</time>
      </trkpt>
      <trkpt lat="44.07633" lon="7.71989">
        <ele>1873.8228759766</ele>
        <time>2018-11-08T01:51:12.683Z</time>
      </trkpt>
      <trkpt lat="44.0761" lon="7.71988">
        <ele>1876.5344238281</ele>
        <time>2018-11-08T01:51:24.493Z</time>
      </trkpt>
      <trkpt lat="44.07598" lon="7.71989">
        <ele>1877.6021728516</ele>
        <time>2018-11-08T01:51:36.305Z</time>
      </trkpt>
      <trkpt lat="44.07589" lon="7.71985">
        <ele>1879.4858398438</ele>
        <time>2018-11-08T01:51:48.118Z</time>
      </trkpt>
      <trkpt lat="44.07575" lon="7.71982">
        <ele>1881.6815185547</ele>
        <time>2018-11-08T01:51:59.934Z</time>
      </trkpt>
      <trkpt lat="44.07553" lon="7.7199">
        <ele>1882.2333984375</ele>
        <time>2018-11-08T01:52:11.753Z</time>
      </trkpt>
      <trkpt lat="44.07541" lon="7.71995">
        <ele>1882.3894042969</ele>
        <time>2018-11-08T01:52:23.574Z</time>
      </trkpt>
      <trkpt lat="44.07537" lon="7.71991">
        <ele>1883.7331542969</ele>
        <time>2018-11-08T01:52:35.396Z</time>
      </trkpt>
      <trkpt lat="44.07538" lon="7.71983">
        <ele>1885.4488525391</ele>
        <time>2018-11-08T01:52:47.219Z</time>
      </trkpt>
      <trkpt lat="44.07547" lon="7.71975">
        <ele>1886.30078125</ele>
        <time>2018-11-08T01:52:59.044Z</time>
      </trkpt>
      <trkpt lat="44.07568" lon="7.71948">
        <ele>1890.1881103516</ele>
        <time>2018-11-08T01:53:10.873Z</time>
      </trkpt>
      <trkpt lat="44.07576" lon="7.71938">
        <ele>1891.6038818359</ele>
        <time>2018-11-08T01:53:22.704Z</time>
      </trkpt>
      <trkpt lat="44.07586" lon="7.71933">
        <ele>1891.6638183594</ele>
        <time>2018-11-08T01:53:34.537Z</time>
      </trkpt>
      <trkpt lat="44.07609" lon="7.71918">
        <ele>1892.6015625</ele>
        <time>2018-11-08T01:53:46.374Z</time>
      </trkpt>
      <trkpt lat="44.07621" lon="7.71914">
        <ele>1893.2319335938</ele>
        <time>2018-11-08T01:53:58.213Z</time>
      </trkpt>
      <trkpt lat="44.07637" lon="7.71905">
        <ele>1894.9836425781</ele>
        <time>2018-11-08T01:54:10.054Z</time>
      </trkpt>
      <trkpt lat="44.0766" lon="7.7189">
        <ele>1897.9471435547</ele>
        <time>2018-11-08T01:54:21.899Z</time>
      </trkpt>
      <trkpt lat="44.07676" lon="7.71885">
        <ele>1899.7164306641</ele>
        <time>2018-11-08T01:54:33.747Z</time>
      </trkpt>
      <trkpt lat="44.0768" lon="7.71876">
        <ele>1902.2360839844</ele>
        <time>2018-11-08T01:54:45.596Z</time>
      </trkpt>
      <trkpt lat="44.07678" lon="7.71871">
        <ele>1903.4838867188</ele>
        <time>2018-11-08T01:54:57.446Z</time>
      </trkpt>
      <trkpt lat="44.07675" lon="7.71869">
        <ele>1903.9038085938</ele>
        <time>2018-11-08T01:55:09.296Z</time>
      </trkpt>
      <trkpt lat="44.07658" lon="7.7187">
        <ele>1903.0279541016</ele>
        <time>2018-11-08T01:55:21.149Z</time>
      </trkpt>
      <trkpt lat="44.07641" lon="7.71868">
        <ele>1902.9439697266</ele>
        <time>2018-11-08T01:55:33.005Z</time>
      </trkpt>
      <trkpt lat="44.07628" lon="7.71863">
        <ele>1904.162109375</ele>
        <time>2018-11-08T01:55:44.863Z</time>
      </trkpt>
      <trkpt lat="44.07617" lon="7.71863">
        <ele>1904.2940673828</ele>
        <time>2018-11-08T01:55:56.723Z</time>
      </trkpt>
      <trkpt lat="44.07604" lon="7.71859">
        <ele>1906.1232910156</ele>
        <time>2018-11-08T01:56:08.585Z</time>
      </trkpt>
      <trkpt lat="44.07592" lon="7.71852">
        <ele>1909.5067138672</ele>
        <time>2018-11-08T01:56:20.449Z</time>
      </trkpt>
      <trkpt lat="44.07569" lon="7.71846">
        <ele>1914.3898925781</ele>
        <time>2018-11-08T01:56:32.317Z</time>
      </trkpt>
      <trkpt lat="44.07551" lon="7.71849">
        <ele>1916.5495605469</ele>
        <time>2018-11-08T01:56:44.188Z</time>
      </trkpt>
      <trkpt lat="44.07517" lon="7.71863">
        <ele>1918.1372070312</ele>
        <time>2018-11-08T01:56:56.064Z</time>
      </trkpt>
      <trkpt lat="44.075" lon="7.71873">
        <ele>1919.1690673828</ele>
        <time>2018-11-08T01:57:07.943Z</time>
      </trkpt>
      <trkpt lat="44.07478" lon="7.7188">
        <ele>1921.5010986328</ele>
        <time>2018-11-08T01:57:19.826Z</time>
      </trkpt>
      <trkpt lat="44.07463" lon="7.71889">
        <ele>1920.6372070312</ele>
        <time>2018-11-08T01:57:31.712Z</time>
      </trkpt>
      <trkpt lat="44.07432" lon="7.719">
        <ele>1920.2252197266</ele>
        <time>2018-11-08T01:57:43.603Z</time>
      </trkpt>
      <trkpt lat="44.07422" lon="7.71901">
        <ele>1920.1728515625</ele>
        <time>2018-11-08T01:57:55.495Z</time>
      </trkpt>
      <trkpt lat="44.0742" lon="7.71894">
        <ele>1922.6727294922</ele>
        <time>2018-11-08T01:58:07.388Z</time>
      </trkpt>
      <trkpt lat="44.07433" lon="7.71885">
        <ele>1925.2283935547</ele>
        <time>2018-11-08T01:58:19.283Z</time>
      </trkpt>
      <trkpt lat="44.07448" lon="7.71871">
        <ele>1928.8438720703</ele>
        <time>2018-11-08T01:58:31.181Z</time>
      </trkpt>
      <trkpt lat="44.07457" lon="7.71857">
        <ele>1932.2513427734</ele>
        <time>2018-11-08T01:58:43.082Z</time>
      </trkpt>
      <trkpt lat="44.07465" lon="7.7185">
        <ele>1932.7987060547</ele>
        <time>2018-11-08T01:58:54.984Z</time>
      </trkpt>
      <trkpt lat="44.07471" lon="7.71837">
        <ele>1934.9343261719</ele>
        <time>2018-11-08T01:59:06.888Z</time>
      </trkpt>
      <trkpt lat="44.0747" lon="7.71834">
        <ele>1935.9422607422</ele>
        <time>2018-11-08T01:59:18.792Z</time>
      </trkpt>
      <trkpt lat="44.07466" lon="7.71833">
        <ele>1937.0700683594</ele>
        <time>2018-11-08T01:59:30.697Z</time>
      </trkpt>
      <trkpt lat="44.07446" lon="7.71847">
        <ele>1937.1944580078</ele>
        <time>2018-11-08T01:59:42.605Z</time>
      </trkpt>
      <trkpt lat="44.0742" lon="7.71859">
        <ele>1934.4307861328</ele>
        <time>2018-11-08T01:59:54.518Z</time>
      </trkpt>
      <trkpt lat="44.07404" lon="7.71863">
        <ele>1933.6629638672</ele>
        <time>2018-11-08T02:00:06.433Z</time>
      </trkpt>
      <trkpt lat="44.07401" lon="7.7186">
        <ele>1934.7788085938</ele>
        <time>2018-11-08T02:00:18.349Z</time>
      </trkpt>
      <trkpt lat="44.07401" lon="7.71855">
        <ele>1936.4584960938</ele>
        <time>2018-11-08T02:00:30.266Z</time>
      </trkpt>
      <trkpt lat="44.07403" lon="7.71852">
        <ele>1937.3942871094</ele>
        <time>2018-11-08T02:00:42.183Z</time>
      </trkpt>
      <trkpt lat="44.07408" lon="7.71849">
        <ele>1938.2221679688</ele>
        <time>2018-11-08T02:00:54.101Z</time>
      </trkpt>
      <trkpt lat="44.07422" lon="7.71838">
        <ele>1941.4136962891</ele>
        <time>2018-11-08T02:01:06.022Z</time>
      </trkpt>
      <trkpt lat="44.07439" lon="7.71817">
        <ele>1946.6531982422</ele>
        <time>2018-11-08T02:01:17.946Z</time>
      </trkpt>
      <trkpt lat="44.07454" lon="7.71801">
        <ele>1948.1081542969</ele>
        <time>2018-11-08T02:01:29.873Z</time>
      </trkpt>
      <trkpt lat="44.07485" lon="7.71772">
        <ele>1949.9216308594</ele>
        <time>2018-11-08T02:01:41.806Z</time>
      </trkpt>
      <trkpt lat="44.07487" lon="7.71771">
        <ele>1949.8615722656</ele>
        <time>2018-11-08T02:01:53.740Z</time>
      </trkpt>
      <trkpt lat="44.07498" lon="7.71757">
        <ele>1952.0812988281</ele>
        <time>2018-11-08T02:02:05.676Z</time>
      </trkpt>
      <trkpt lat="44.07509" lon="7.71747">
        <ele>1953.1010742188</ele>
        <time>2018-11-08T02:02:17.614Z</time>
      </trkpt>
      <trkpt lat="44.07516" lon="7.71741">
        <ele>1953.5617675781</ele>
        <time>2018-11-08T02:02:29.553Z</time>
      </trkpt>
      <trkpt lat="44.07517" lon="7.71741">
        <ele>1953.5726318359</ele>
        <time>2018-11-08T02:02:41.492Z</time>
      </trkpt>
      <trkpt lat="44.0753" lon="7.7173">
        <ele>1954.4655761719</ele>
        <time>2018-11-08T02:02:53.434Z</time>
      </trkpt>
      <trkpt lat="44.07546" lon="7.71724">
        <ele>1953.5777587891</ele>
        <time>2018-11-08T02:03:05.379Z</time>
      </trkpt>
      <trkpt lat="44.07554" lon="7.71716">
        <ele>1954.6335449219</ele>
        <time>2018-11-08T02:03:17.325Z</time>
      </trkpt>
      <trkpt lat="44.07554" lon="7.71712">
        <ele>1955.8333740234</ele>
        <time>2018-11-08T02:03:29.272Z</time>
      </trkpt>
      <trkpt lat="44.07551" lon="7.7171">
        <ele>1956.9371337891</ele>
        <time>2018-11-08T02:03:41.219Z</time>
      </trkpt>
      <trkpt lat="44.07527" lon="7.71713">
        <ele>1960.0686035156</ele>
        <time>2018-11-08T02:03:53.170Z</time>
      </trkpt>
      <trkpt lat="44.07512" lon="7.71716">
        <ele>1961.8596191406</ele>
        <time>2018-11-08T02:04:05.123Z</time>
      </trkpt>
      <trkpt lat="44.07489" lon="7.71724">
        <ele>1963.5993652344</ele>
        <time>2018-11-08T02:04:17.080Z</time>
      </trkpt>
      <trkpt lat="44.07448" lon="7.71737">
        <ele>1967.0787353516</ele>
        <time>2018-11-08T02:04:29.044Z</time>
      </trkpt>
      <trkpt lat="44.07442" lon="7.71736">
        <ele>1968.4473876953</ele>
        <time>2018-11-08T02:04:41.009Z</time>
      </trkpt>
      <trkpt lat="44.07441" lon="7.71726">
        <ele>1971.6148681641</ele>
        <time>2018-11-08T02:04:52.975Z</time>
      </trkpt>
      <trkpt lat="44.07454" lon="7.71718">
        <ele>1971.6979980469</ele>
        <time>2018-11-08T02:05:04.943Z</time>
      </trkpt>
      <trkpt lat="44.07473" lon="7.717">
        <ele>1973.6776123047</ele>
        <time>2018-11-08T02:05:16.915Z</time>
      </trkpt>
      <trkpt lat="44.07485" lon="7.71686">
        <ele>1975.7172851562</ele>
        <time>2018-11-08T02:05:28.890Z</time>
      </trkpt>
      <trkpt lat="44.07493" lon="7.71672">
        <ele>1978.4768066406</ele>
        <time>2018-11-08T02:05:40.867Z</time>
      </trkpt>
      <trkpt lat="44.07503" lon="7.71661">
        <ele>1979.6420898438</ele>
        <time>2018-11-08T02:05:52.846Z</time>
      </trkpt>
      <trkpt lat="44.07516" lon="7.71659">
        <ele>1977.9038085938</ele>
        <time>2018-11-08T02:06:04.827Z</time>
      </trkpt>
      <trkpt lat="44.07525" lon="7.71658">
        <ele>1977.2679443359</ele>
        <time>2018-11-08T02:06:16.809Z</time>
      </trkpt>
      <trkpt lat="44.07541" lon="7.7165">
        <ele>1979.4644775391</ele>
        <time>2018-11-08T02:06:28.794Z</time>
      </trkpt>
      <trkpt lat="44.07555" lon="7.71645">
        <ele>1980.8083496094</ele>
        <time>2018-11-08T02:06:40.781Z</time>
      </trkpt>
      <trkpt lat="44.07557" lon="7.71636">
        <ele>1983.7838134766</ele>
        <time>2018-11-08T02:06:52.769Z</time>
      </trkpt>
      <trkpt lat="44.07549" lon="7.71634">
        <ele>1984.6477050781</ele>
        <time>2018-11-08T02:07:04.759Z</time>
      </trkpt>
      <trkpt lat="44.07525" lon="7.71636">
        <ele>1984.6586914062</ele>
        <time>2018-11-08T02:07:16.752Z</time>
      </trkpt>
      <trkpt lat="44.07496" lon="7.71637">
        <ele>1987.4542236328</ele>
        <time>2018-11-08T02:07:28.750Z</time>
      </trkpt>
      <trkpt lat="44.07461" lon="7.71645">
        <ele>1991.4240722656</ele>
        <time>2018-11-08T02:07:40.754Z</time>
      </trkpt>
      <trkpt lat="44.07415" lon="7.71662">
        <ele>1995.2784423828</ele>
        <time>2018-11-08T02:07:52.765Z</time>
      </trkpt>
      <trkpt lat="44.07381" lon="7.71676">
        <ele>1996.6906738281</ele>
        <time>2018-11-08T02:08:04.782Z</time>
      </trkpt>
      <trkpt lat="44.07378" lon="7.71678">
        <ele>1996.7453613281</ele>
        <time>2018-11-08T02:08:16.800Z</time>
      </trkpt>
      <trkpt lat="44.07378" lon="7.71678">
        <ele>1996.7487792969</ele>
        <time>2018-11-08T02:08:28.818Z</time>
      </trkpt>
      <trkpt lat="44.07373" lon="7.7168">
        <ele>1996.8347167969</ele>
        <time>2018-11-08T02:08:40.836Z</time>
      </trkpt>
      <trkpt lat="44.0737" lon="7.71677">
        <ele>1998.2384033203</ele>
        <time>2018-11-08T02:08:52.855Z</time>
      </trkpt>
      <trkpt lat="44.07372" lon="7.7167">
        <ele>2000.0057373047</ele>
        <time>2018-11-08T02:09:04.875Z</time>
      </trkpt>
      <trkpt lat="44.0744" lon="7.71609">
        <ele>2004.8112792969</ele>
        <time>2018-11-08T02:09:16.908Z</time>
      </trkpt>
      <trkpt lat="44.07477" lon="7.71584">
        <ele>2007.1694335938</ele>
        <time>2018-11-08T02:09:28.947Z</time>
      </trkpt>
      <trkpt lat="44.07493" lon="7.71569">
        <ele>2009.7609863281</ele>
        <time>2018-11-08T02:09:40.990Z</time>
      </trkpt>
      <trkpt lat="44.07504" lon="7.71565">
        <ele>2009.7250976562</ele>
        <time>2018-11-08T02:09:53.034Z</time>
      </trkpt>
      <trkpt lat="44.07576" lon="7.71565">
        <ele>2012.6193847656</ele>
        <time>2018-11-08T02:10:05.090Z</time>
      </trkpt>
      <trkpt lat="44.07617" lon="7.71572">
        <ele>2016.1575927734</ele>
        <time>2018-11-08T02:10:17.152Z</time>
      </trkpt>
      <trkpt lat="44.07685" lon="7.71581">
        <ele>2024.0163574219</ele>
        <time>2018-11-08T02:10:29.225Z</time>
      </trkpt>
      <trkpt lat="44.07731" lon="7.71588">
        <ele>2025.2957763672</ele>
        <time>2018-11-08T02:10:41.306Z</time>
      </trkpt>
      <trkpt lat="44.07743" lon="7.71585">
        <ele>2027.1857910156</ele>
        <time>2018-11-08T02:10:53.389Z</time>
      </trkpt>
      <trkpt lat="44.07772" lon="7.71577">
        <ele>2030.9974365234</ele>
        <time>2018-11-08T02:11:05.476Z</time>
      </trkpt>
      <trkpt lat="44.07781" lon="7.71574">
        <ele>2031.0992431641</ele>
        <time>2018-11-08T02:11:17.565Z</time>
      </trkpt>
      <trkpt lat="44.07781" lon="7.71574">
        <ele>2031.1003417969</ele>
        <time>2018-11-08T02:11:29.654Z</time>
      </trkpt>
      <trkpt lat="44.07827" lon="7.71557">
        <ele>2031.3491210938</ele>
        <time>2018-11-08T02:11:41.751Z</time>
      </trkpt>
      <trkpt lat="44.07838" lon="7.71543">
        <ele>2032.94140625</ele>
        <time>2018-11-08T02:11:53.850Z</time>
      </trkpt>
      <trkpt lat="44.07849" lon="7.71525">
        <ele>2035.1730957031</ele>
        <time>2018-11-08T02:12:05.952Z</time>
      </trkpt>
      <trkpt lat="44.07865" lon="7.71512">
        <ele>2036.2048339844</ele>
        <time>2018-11-08T02:12:18.057Z</time>
      </trkpt>
      <trkpt lat="44.07874" lon="7.71507">
        <ele>2036.3968505859</ele>
        <time>2018-11-08T02:12:30.163Z</time>
      </trkpt>
      <trkpt lat="44.07886" lon="7.715">
        <ele>2034.6785888672</ele>
        <time>2018-11-08T02:12:42.271Z</time>
      </trkpt>
      <trkpt lat="44.07912" lon="7.71507">
        <ele>2033.6378173828</ele>
        <time>2018-11-08T02:12:54.383Z</time>
      </trkpt>
      <trkpt lat="44.07912" lon="7.71507">
        <ele>2033.6143798828</ele>
        <time>2018-11-08T02:13:06.495Z</time>
      </trkpt>
      <trkpt lat="44.07928" lon="7.71512">
        <ele>2031.6696777344</ele>
        <time>2018-11-08T02:13:18.610Z</time>
      </trkpt>
      <trkpt lat="44.07948" lon="7.71497">
        <ele>2030.5590820312</ele>
        <time>2018-11-08T02:13:30.729Z</time>
      </trkpt>
      <trkpt lat="44.07955" lon="7.71492">
        <ele>2029.8151855469</ele>
        <time>2018-11-08T02:13:42.849Z</time>
      </trkpt>
      <trkpt lat="44.07971" lon="7.71479">
        <ele>2027.6435546875</ele>
        <time>2018-11-08T02:13:54.972Z</time>
      </trkpt>
      <trkpt lat="44.0799" lon="7.71469">
        <ele>2026.8333740234</ele>
        <time>2018-11-08T02:14:07.098Z</time>
      </trkpt>
      <trkpt lat="44.0799" lon="7.71469">
        <ele>2026.8254394531</ele>
        <time>2018-11-08T02:14:19.224Z</time>
      </trkpt>
      <trkpt lat="44.07991" lon="7.71469">
        <ele>2026.8037109375</ele>
        <time>2018-11-08T02:14:31.350Z</time>
      </trkpt>
      <trkpt lat="44.08013" lon="7.71459">
        <ele>2028.4288330078</ele>
        <time>2018-11-08T02:14:43.480Z</time>
      </trkpt>
      <trkpt lat="44.08014" lon="7.71453">
        <ele>2027.2410888672</ele>
        <time>2018-11-08T02:14:55.611Z</time>
      </trkpt>
      <trkpt lat="44.08011" lon="7.71451">
        <ele>2026.2452392578</ele>
        <time>2018-11-08T02:15:07.742Z</time>
      </trkpt>
      <trkpt lat="44.08" lon="7.71455">
        <ele>2025.1773681641</ele>
        <time>2018-11-08T02:15:19.875Z</time>
      </trkpt>
      <trkpt lat="44.07975" lon="7.71464">
        <ele>2023.576171875</ele>
        <time>2018-11-08T02:15:32.012Z</time>
      </trkpt>
      <trkpt lat="44.07935" lon="7.71475">
        <ele>2023.2291259766</ele>
        <time>2018-11-08T02:15:44.156Z</time>
      </trkpt>
      <trkpt lat="44.07916" lon="7.71476">
        <ele>2023.0731201172</ele>
        <time>2018-11-08T02:15:56.303Z</time>
      </trkpt>
      <trkpt lat="44.07909" lon="7.71473">
        <ele>2022.3326416016</ele>
        <time>2018-11-08T02:16:08.451Z</time>
      </trkpt>
      <trkpt lat="44.0791" lon="7.71469">
        <ele>2020.8295898438</ele>
        <time>2018-11-08T02:16:20.600Z</time>
      </trkpt>
      <trkpt lat="44.07913" lon="7.71466">
        <ele>2020.0017089844</ele>
        <time>2018-11-08T02:16:32.749Z</time>
      </trkpt>
      <trkpt lat="44.07919" lon="7.71464">
        <ele>2019.4810791016</ele>
        <time>2018-11-08T02:16:44.899Z</time>
      </trkpt>
      <trkpt lat="44.07919" lon="7.71464">
        <ele>2019.4630126953</ele>
        <time>2018-11-08T02:16:57.049Z</time>
      </trkpt>
      <trkpt lat="44.07941" lon="7.71455">
        <ele>2017.3741455078</ele>
        <time>2018-11-08T02:17:09.203Z</time>
      </trkpt>
      <trkpt lat="44.07966" lon="7.71441">
        <ele>2015.8669433594</ele>
        <time>2018-11-08T02:17:21.361Z</time>
      </trkpt>
      <trkpt lat="44.07969" lon="7.71438">
        <ele>2015.7230224609</ele>
        <time>2018-11-08T02:17:33.520Z</time>
      </trkpt>
      <trkpt lat="44.07968" lon="7.71436">
        <ele>2015.0870361328</ele>
        <time>2018-11-08T02:17:45.679Z</time>
      </trkpt>
      <trkpt lat="44.07963" lon="7.71435">
        <ele>2013.9592285156</ele>
        <time>2018-11-08T02:17:57.839Z</time>
      </trkpt>
      <trkpt lat="44.07935" lon="7.71441">
        <ele>2013.0308837891</ele>
        <time>2018-11-08T02:18:10.003Z</time>
      </trkpt>
      <trkpt lat="44.07919" lon="7.71445">
        <ele>2013.8466796875</ele>
        <time>2018-11-08T02:18:22.170Z</time>
      </trkpt>
      <trkpt lat="44.07909" lon="7.71445">
        <ele>2013.6066894531</ele>
        <time>2018-11-08T02:18:34.339Z</time>
      </trkpt>
      <trkpt lat="44.07909" lon="7.71444">
        <ele>2013.3067626953</ele>
        <time>2018-11-08T02:18:46.508Z</time>
      </trkpt>
      <trkpt lat="44.07888" lon="7.71443">
        <ele>2012.5029296875</ele>
        <time>2018-11-08T02:18:58.680Z</time>
      </trkpt>
      <trkpt lat="44.07871" lon="7.71439">
        <ele>2011.6683349609</ele>
        <time>2018-11-08T02:19:10.855Z</time>
      </trkpt>
      <trkpt lat="44.0787" lon="7.71439">
        <ele>2011.6649169922</ele>
        <time>2018-11-08T02:19:23.030Z</time>
      </trkpt>
      <trkpt lat="44.07848" lon="7.71434">
        <ele>2013.3814697266</ele>
        <time>2018-11-08T02:19:35.208Z</time>
      </trkpt>
      <trkpt lat="44.07811" lon="7.71417">
        <ele>2015.8950195312</ele>
        <time>2018-11-08T02:19:47.393Z</time>
      </trkpt>
      <trkpt lat="44.07776" lon="7.71396">
        <ele>2015.9670410156</ele>
        <time>2018-11-08T02:19:59.584Z</time>
      </trkpt>
      <trkpt lat="44.07753" lon="7.71371">
        <ele>2016.5069580078</ele>
        <time>2018-11-08T02:20:11.779Z</time>
      </trkpt>
      <trkpt lat="44.07731" lon="7.71334">
        <ele>2011.9461669922</ele>
        <time>2018-11-08T02:20:23.980Z</time>
      </trkpt>
      <trkpt lat="44.07689" lon="7.71218">
        <ele>1997.6751708984</ele>
        <time>2018-11-08T02:20:36.196Z</time>
      </trkpt>
      <trkpt lat="44.07651" lon="7.71124">
        <ele>1982.3610839844</ele>
        <time>2018-11-08T02:20:48.424Z</time>
      </trkpt>
      <trkpt lat="44.07604" lon="7.7102">
        <ele>1965.267578125</ele>
        <time>2018-11-08T02:21:00.667Z</time>
      </trkpt>
      <trkpt lat="44.07569" lon="7.7096">
        <ele>1939.9144287109</ele>
        <time>2018-11-08T02:21:12.918Z</time>
      </trkpt>
      <trkpt lat="44.07553" lon="7.70936">
        <ele>1930.6038818359</ele>
        <time>2018-11-08T02:21:25.173Z</time>
      </trkpt>
      <trkpt lat="44.07546" lon="7.70934">
        <ele>1928.2642822266</ele>
        <time>2018-11-08T02:21:37.429Z</time>
      </trkpt>
      <trkpt lat="44.07539" lon="7.70939">
        <ele>1928.8840332031</ele>
        <time>2018-11-08T02:21:49.687Z</time>
      </trkpt>
      <trkpt lat="44.07539" lon="7.70939">
        <ele>1928.9356689453</ele>
        <time>2018-11-08T02:22:01.945Z</time>
      </trkpt>
      <trkpt lat="44.07536" lon="7.70942">
        <ele>1929.8958740234</ele>
        <time>2018-11-08T02:22:14.203Z</time>
      </trkpt>
      <trkpt lat="44.07503" lon="7.70977">
        <ele>1933.0975341797</ele>
        <time>2018-11-08T02:22:26.468Z</time>
      </trkpt>
      <trkpt lat="44.07478" lon="7.71005">
        <ele>1939.2647705078</ele>
        <time>2018-11-08T02:22:38.738Z</time>
      </trkpt>
      <trkpt lat="44.07467" lon="7.71013">
        <ele>1938.7608642578</ele>
        <time>2018-11-08T02:22:51.010Z</time>
      </trkpt>
      <trkpt lat="44.07454" lon="7.71017">
        <ele>1936.01171875</ele>
        <time>2018-11-08T02:23:03.284Z</time>
      </trkpt>
      <trkpt lat="44.07427" lon="7.71014">
        <ele>1925.4844970703</ele>
        <time>2018-11-08T02:23:15.562Z</time>
      </trkpt>
      <trkpt lat="44.07399" lon="7.71006">
        <ele>1910.9428710938</ele>
        <time>2018-11-08T02:23:27.845Z</time>
      </trkpt>
      <trkpt lat="44.07394" lon="7.71009">
        <ele>1910.6309814453</ele>
        <time>2018-11-08T02:23:40.129Z</time>
      </trkpt>
      <trkpt lat="44.07378" lon="7.71046">
        <ele>1924.9235839844</ele>
        <time>2018-11-08T02:23:52.418Z</time>
      </trkpt>
      <trkpt lat="44.07374" lon="7.7105">
        <ele>1925.8834228516</ele>
        <time>2018-11-08T02:24:04.708Z</time>
      </trkpt>
      <trkpt lat="44.07363" lon="7.71057">
        <ele>1926.2673339844</ele>
        <time>2018-11-08T02:24:17.000Z</time>
      </trkpt>
      <trkpt lat="44.07344" lon="7.71063">
        <ele>1925.5520019531</ele>
        <time>2018-11-08T02:24:29.295Z</time>
      </trkpt>
      <trkpt lat="44.07322" lon="7.71061">
        <ele>1920.3414306641</ele>
        <time>2018-11-08T02:24:41.593Z</time>
      </trkpt>
      <trkpt lat="44.0731" lon="7.71057">
        <ele>1915.8781738281</ele>
        <time>2018-11-08T02:24:53.893Z</time>
      </trkpt>
      <trkpt lat="44.07294" lon="7.71042">
        <ele>1904.3601074219</ele>
        <time>2018-11-08T02:25:06.196Z</time>
      </trkpt>
      <trkpt lat="44.07285" lon="7.71037">
        <ele>1899.8609619141</ele>
        <time>2018-11-08T02:25:18.501Z</time>
      </trkpt>
      <trkpt lat="44.07263" lon="7.71033">
        <ele>1892.3278808594</ele>
        <time>2018-11-08T02:25:30.809Z</time>
      </trkpt>
      <trkpt lat="44.07247" lon="7.71032">
        <ele>1887.3366699219</ele>
        <time>2018-11-08T02:25:43.120Z</time>
      </trkpt>
      <trkpt lat="44.0724" lon="7.71035">
        <ele>1887.1326904297</ele>
        <time>2018-11-08T02:25:55.432Z</time>
      </trkpt>
      <trkpt lat="44.07216" lon="7.71063">
        <ele>1895.7624511719</ele>
        <time>2018-11-08T02:26:07.749Z</time>
      </trkpt>
      <trkpt lat="44.07195" lon="7.71091">
        <ele>1905.0899658203</ele>
        <time>2018-11-08T02:26:20.071Z</time>
      </trkpt>
      <trkpt lat="44.07189" lon="7.71095">
        <ele>1906.0882568359</ele>
        <time>2018-11-08T02:26:32.394Z</time>
      </trkpt>
      <trkpt lat="44.07174" lon="7.71092">
        <ele>1901.2290039062</ele>
        <time>2018-11-08T02:26:44.719Z</time>
      </trkpt>
      <trkpt lat="44.07152" lon="7.71082">
        <ele>1891.0345458984</ele>
        <time>2018-11-08T02:26:57.048Z</time>
      </trkpt>
      <trkpt lat="44.0713" lon="7.71069">
        <ele>1879.5284423828</ele>
        <time>2018-11-08T02:27:09.381Z</time>
      </trkpt>
      <trkpt lat="44.07122" lon="7.71069">
        <ele>1877.8967285156</ele>
        <time>2018-11-08T02:27:21.715Z</time>
      </trkpt>
      <trkpt lat="44.07111" lon="7.71072">
        <ele>1877.2728271484</ele>
        <time>2018-11-08T02:27:34.051Z</time>
      </trkpt>
      <trkpt lat="44.07097" lon="7.71077">
        <ele>1877.5903320312</ele>
        <time>2018-11-08T02:27:46.389Z</time>
      </trkpt>
      <trkpt lat="44.07091" lon="7.71083">
        <ele>1879.3179931641</ele>
        <time>2018-11-08T02:27:58.728Z</time>
      </trkpt>
      <trkpt lat="44.07077" lon="7.71102">
        <ele>1886.1721191406</ele>
        <time>2018-11-08T02:28:11.071Z</time>
      </trkpt>
      <trkpt lat="44.07066" lon="7.71111">
        <ele>1888.5717773438</ele>
        <time>2018-11-08T02:28:23.416Z</time>
      </trkpt>
      <trkpt lat="44.07056" lon="7.71112">
        <ele>1887.0479736328</ele>
        <time>2018-11-08T02:28:35.762Z</time>
      </trkpt>
      <trkpt lat="44.07031" lon="7.71105">
        <ele>1879.1368408203</ele>
        <time>2018-11-08T02:28:48.112Z</time>
      </trkpt>
      <trkpt lat="44.07002" lon="7.71104">
        <ele>1885.705078125</ele>
        <time>2018-11-08T02:29:00.467Z</time>
      </trkpt>
      <trkpt lat="44.0699" lon="7.71108">
        <ele>1891.8961181641</ele>
        <time>2018-11-08T02:29:12.824Z</time>
      </trkpt>
      <trkpt lat="44.06981" lon="7.71114">
        <ele>1898.2670898438</ele>
        <time>2018-11-08T02:29:25.183Z</time>
      </trkpt>
      <trkpt lat="44.06974" lon="7.71112">
        <ele>1899.3828125</ele>
        <time>2018-11-08T02:29:37.543Z</time>
      </trkpt>
      <trkpt lat="44.06947" lon="7.71075">
        <ele>1889.6678466797</ele>
        <time>2018-11-08T02:29:49.909Z</time>
      </trkpt>
      <trkpt lat="44.06925" lon="7.71016">
        <ele>1877.1881103516</ele>
        <time>2018-11-08T02:30:02.282Z</time>
      </trkpt>
      <trkpt lat="44.06921" lon="7.71008">
        <ele>1875.8443603516</ele>
        <time>2018-11-08T02:30:14.657Z</time>
      </trkpt>
      <trkpt lat="44.06906" lon="7.7099">
        <ele>1875.1607666016</ele>
        <time>2018-11-08T02:30:27.035Z</time>
      </trkpt>
      <trkpt lat="44.06898" lon="7.70959">
        <ele>1868.1779785156</ele>
        <time>2018-11-08T02:30:39.417Z</time>
      </trkpt>
      <trkpt lat="44.06891" lon="7.70949">
        <ele>1866.9931640625</ele>
        <time>2018-11-08T02:30:51.800Z</time>
      </trkpt>
      <trkpt lat="44.06878" lon="7.70942">
        <ele>1869.59375</ele>
        <time>2018-11-08T02:31:04.185Z</time>
      </trkpt>
      <trkpt lat="44.06856" lon="7.70934">
        <ele>1874.111328125</ele>
        <time>2018-11-08T02:31:16.574Z</time>
      </trkpt>
      <trkpt lat="44.06848" lon="7.70894">
        <ele>1862.8201904297</ele>
        <time>2018-11-08T02:31:28.968Z</time>
      </trkpt>
      <trkpt lat="44.06842" lon="7.70854">
        <ele>1852.9577636719</ele>
        <time>2018-11-08T02:31:41.366Z</time>
      </trkpt>
      <trkpt lat="44.06837" lon="7.70797">
        <ele>1830.8720703125</ele>
        <time>2018-11-08T02:31:53.771Z</time>
      </trkpt>
      <trkpt lat="44.06837" lon="7.70797">
        <ele>1830.7639160156</ele>
        <time>2018-11-08T02:32:06.176Z</time>
      </trkpt>
      <trkpt lat="44.06836" lon="7.70788">
        <ele>1827.2818603516</ele>
        <time>2018-11-08T02:32:18.582Z</time>
      </trkpt>
      <trkpt lat="44.06826" lon="7.70764">
        <ele>1817.2275390625</ele>
        <time>2018-11-08T02:32:30.991Z</time>
      </trkpt>
      <trkpt lat="44.06819" lon="7.70757">
        <ele>1813.9521484375</ele>
        <time>2018-11-08T02:32:43.402Z</time>
      </trkpt>
      <trkpt lat="44.06814" lon="7.70757">
        <ele>1813.5322265625</ele>
        <time>2018-11-08T02:32:55.814Z</time>
      </trkpt>
      <trkpt lat="44.06806" lon="7.70765">
        <ele>1815.9317626953</ele>
        <time>2018-11-08T02:33:08.227Z</time>
      </trkpt>
      <trkpt lat="44.06794" lon="7.70774">
        <ele>1818.7001953125</ele>
        <time>2018-11-08T02:33:20.642Z</time>
      </trkpt>
      <trkpt lat="44.0678" lon="7.70776">
        <ele>1820.2119140625</ele>
        <time>2018-11-08T02:33:33.060Z</time>
      </trkpt>
      <trkpt lat="44.0677" lon="7.70776">
        <ele>1817.9896240234</ele>
        <time>2018-11-08T02:33:45.479Z</time>
      </trkpt>
      <trkpt lat="44.06764" lon="7.70783">
        <ele>1819.2135009766</ele>
        <time>2018-11-08T02:33:57.899Z</time>
      </trkpt>
      <trkpt lat="44.06757" lon="7.70788">
        <ele>1819.0455322266</ele>
        <time>2018-11-08T02:34:10.321Z</time>
      </trkpt>
      <trkpt lat="44.06747" lon="7.70787">
        <ele>1814.7022705078</ele>
        <time>2018-11-08T02:34:22.744Z</time>
      </trkpt>
      <trkpt lat="44.06741" lon="7.70789">
        <ele>1813.4063720703</ele>
        <time>2018-11-08T02:34:35.168Z</time>
      </trkpt>
      <trkpt lat="44.06731" lon="7.70799">
        <ele>1814.7819824219</ele>
        <time>2018-11-08T02:34:47.594Z</time>
      </trkpt>
      <trkpt lat="44.06721" lon="7.70801">
        <ele>1812.2384033203</ele>
        <time>2018-11-08T02:35:00.022Z</time>
      </trkpt>
      <trkpt lat="44.06714" lon="7.70808">
        <ele>1813.4143066406</ele>
        <time>2018-11-08T02:35:12.451Z</time>
      </trkpt>
      <trkpt lat="44.06705" lon="7.70825">
        <ele>1819.1492919922</ele>
        <time>2018-11-08T02:35:24.883Z</time>
      </trkpt>
      <trkpt lat="44.06696" lon="7.7083">
        <ele>1818.5494384766</ele>
        <time>2018-11-08T02:35:37.316Z</time>
      </trkpt>
      <trkpt lat="44.06678" lon="7.70834">
        <ele>1822.6818847656</ele>
        <time>2018-11-08T02:35:49.752Z</time>
      </trkpt>
      <trkpt lat="44.06671" lon="7.70836">
        <ele>1824.6375732422</ele>
        <time>2018-11-08T02:36:02.189Z</time>
      </trkpt>
      <trkpt lat="44.06648" lon="7.7086">
        <ele>1844.0795898438</ele>
        <time>2018-11-08T02:36:14.631Z</time>
      </trkpt>
      <trkpt lat="44.06641" lon="7.7086">
        <ele>1845.3393554688</ele>
        <time>2018-11-08T02:36:27.074Z</time>
      </trkpt>
      <trkpt lat="44.06633" lon="7.70852">
        <ele>1841.5959472656</ele>
        <time>2018-11-08T02:36:39.519Z</time>
      </trkpt>
      <trkpt lat="44.06616" lon="7.70832">
        <ele>1833.1440429688</ele>
        <time>2018-11-08T02:36:51.967Z</time>
      </trkpt>
      <trkpt lat="44.06609" lon="7.70824">
        <ele>1831.7131347656</ele>
        <time>2018-11-08T02:37:04.417Z</time>
      </trkpt>
      <trkpt lat="44.06599" lon="7.70806">
        <ele>1829.2895507812</ele>
        <time>2018-11-08T02:37:16.869Z</time>
      </trkpt>
      <trkpt lat="44.06581" lon="7.70765">
        <ele>1821.9346923828</ele>
        <time>2018-11-08T02:37:29.327Z</time>
      </trkpt>
      <trkpt lat="44.0656" lon="7.70718">
        <ele>1803.8546142578</ele>
        <time>2018-11-08T02:37:41.791Z</time>
      </trkpt>
      <trkpt lat="44.06551" lon="7.70703">
        <ele>1797.9515380859</ele>
        <time>2018-11-08T02:37:54.257Z</time>
      </trkpt>
      <trkpt lat="44.06538" lon="7.70695">
        <ele>1797.9515380859</ele>
        <time>2018-11-08T02:38:06.726Z</time>
      </trkpt>
      <trkpt lat="44.06523" lon="7.70692">
        <ele>1801.9880371094</ele>
        <time>2018-11-08T02:38:19.197Z</time>
      </trkpt>
      <trkpt lat="44.06504" lon="7.70696">
        <ele>1812.6903076172</ele>
        <time>2018-11-08T02:38:31.671Z</time>
      </trkpt>
      <trkpt lat="44.06491" lon="7.70698">
        <ele>1819.5531005859</ele>
        <time>2018-11-08T02:38:44.147Z</time>
      </trkpt>
      <trkpt lat="44.06486" lon="7.70692">
        <ele>1817.9693603516</ele>
        <time>2018-11-08T02:38:56.624Z</time>
      </trkpt>
      <trkpt lat="44.06475" lon="7.70667">
        <ele>1808.4367675781</ele>
        <time>2018-11-08T02:39:09.105Z</time>
      </trkpt>
      <trkpt lat="44.06464" lon="7.70659">
        <ele>1811.5562744141</ele>
        <time>2018-11-08T02:39:21.588Z</time>
      </trkpt>
      <trkpt lat="44.06456" lon="7.70657">
        <ele>1814.6037597656</ele>
        <time>2018-11-08T02:39:34.072Z</time>
      </trkpt>
      <trkpt lat="44.06452" lon="7.70654">
        <ele>1815.7196044922</ele>
        <time>2018-11-08T02:39:46.557Z</time>
      </trkpt>
      <trkpt lat="44.06449" lon="7.70634">
        <ele>1812.9360351562</ele>
        <time>2018-11-08T02:39:59.044Z</time>
      </trkpt>
      <trkpt lat="44.06443" lon="7.70619">
        <ele>1812.4681396484</ele>
        <time>2018-11-08T02:40:11.533Z</time>
      </trkpt>
      <trkpt lat="44.06441" lon="7.70607">
        <ele>1810.3563232422</ele>
        <time>2018-11-08T02:40:24.023Z</time>
      </trkpt>
      <trkpt lat="44.06444" lon="7.70581">
        <ele>1804.0227050781</ele>
        <time>2018-11-08T02:40:36.516Z</time>
      </trkpt>
      <trkpt lat="44.06454" lon="7.70554">
        <ele>1792.3127441406</ele>
        <time>2018-11-08T02:40:49.013Z</time>
      </trkpt>
      <trkpt lat="44.06458" lon="7.70536">
        <ele>1786.0737304688</ele>
        <time>2018-11-08T02:41:01.512Z</time>
      </trkpt>
      <trkpt lat="44.06457" lon="7.70515">
        <ele>1782.3188476562</ele>
        <time>2018-11-08T02:41:14.014Z</time>
      </trkpt>
      <trkpt lat="44.06452" lon="7.70491">
        <ele>1778.1610107422</ele>
        <time>2018-11-08T02:41:26.518Z</time>
      </trkpt>
      <trkpt lat="44.0644" lon="7.70459">
        <ele>1768.8806152344</ele>
        <time>2018-11-08T02:41:39.027Z</time>
      </trkpt>
      <trkpt lat="44.0643" lon="7.70442">
        <ele>1758.3463134766</ele>
        <time>2018-11-08T02:41:51.538Z</time>
      </trkpt>
      <trkpt lat="44.06429" lon="7.70434">
        <ele>1754.7229003906</ele>
        <time>2018-11-08T02:42:04.050Z</time>
      </trkpt>
      <trkpt lat="44.06433" lon="7.7043">
        <ele>1754.5310058594</ele>
        <time>2018-11-08T02:42:16.563Z</time>
      </trkpt>
      <trkpt lat="44.06437" lon="7.70436">
        <ele>1758.4183349609</ele>
        <time>2018-11-08T02:42:29.077Z</time>
      </trkpt>
      <trkpt lat="44.06454" lon="7.70469">
        <ele>1768.1546630859</ele>
        <time>2018-11-08T02:42:41.596Z</time>
      </trkpt>
      <trkpt lat="44.06467" lon="7.70497">
        <ele>1772.8698730469</ele>
        <time>2018-11-08T02:42:54.118Z</time>
      </trkpt>
      <trkpt lat="44.06475" lon="7.70508">
        <ele>1772.0245361328</ele>
        <time>2018-11-08T02:43:06.642Z</time>
      </trkpt>
      <trkpt lat="44.06479" lon="7.70506">
        <ele>1769.6729736328</ele>
        <time>2018-11-08T02:43:19.167Z</time>
      </trkpt>
      <trkpt lat="44.06479" lon="7.705">
        <ele>1767.9027099609</ele>
        <time>2018-11-08T02:43:31.693Z</time>
      </trkpt>
      <trkpt lat="44.06476" lon="7.70492">
        <ele>1766.1870117188</ele>
        <time>2018-11-08T02:43:44.220Z</time>
      </trkpt>
      <trkpt lat="44.06461" lon="7.70467">
        <ele>1763.7274169922</ele>
        <time>2018-11-08T02:43:56.750Z</time>
      </trkpt>
      <trkpt lat="44.0645" lon="7.70433">
        <ele>1755.5328369141</ele>
        <time>2018-11-08T02:44:09.285Z</time>
      </trkpt>
      <trkpt lat="44.06446" lon="7.7041">
        <ele>1747.0639648438</ele>
        <time>2018-11-08T02:44:21.822Z</time>
      </trkpt>
      <trkpt lat="44.0644" lon="7.70402">
        <ele>1742.6898193359</ele>
        <time>2018-11-08T02:44:34.361Z</time>
      </trkpt>
      <trkpt lat="44.06436" lon="7.704">
        <ele>1740.2421875</ele>
        <time>2018-11-08T02:44:46.900Z</time>
      </trkpt>
      <trkpt lat="44.0643" lon="7.70401">
        <ele>1738.8743896484</ele>
        <time>2018-11-08T02:44:59.440Z</time>
      </trkpt>
      <trkpt lat="44.06417" lon="7.70406">
        <ele>1737.1224365234</ele>
        <time>2018-11-08T02:45:11.983Z</time>
      </trkpt>
      <trkpt lat="44.06406" lon="7.70407">
        <ele>1733.7030029297</ele>
        <time>2018-11-08T02:45:24.527Z</time>
      </trkpt>
      <trkpt lat="44.06397" lon="7.70403">
        <ele>1728.3039550781</ele>
        <time>2018-11-08T02:45:37.073Z</time>
      </trkpt>
      <trkpt lat="44.06391" lon="7.70402">
        <ele>1725.6043701172</ele>
        <time>2018-11-08T02:45:49.620Z</time>
      </trkpt>
      <trkpt lat="44.06383" lon="7.7041">
        <ele>1727.0440673828</ele>
        <time>2018-11-08T02:46:02.168Z</time>
      </trkpt>
      <trkpt lat="44.06373" lon="7.70425">
        <ele>1730.8948974609</ele>
        <time>2018-11-08T02:46:14.719Z</time>
      </trkpt>
      <trkpt lat="44.06365" lon="7.70441">
        <ele>1736.0134277344</ele>
        <time>2018-11-08T02:46:27.272Z</time>
      </trkpt>
      <trkpt lat="44.0636" lon="7.70457">
        <ele>1742.7562255859</ele>
        <time>2018-11-08T02:46:39.827Z</time>
      </trkpt>
      <trkpt lat="44.06351" lon="7.70471">
        <ele>1749.6561279297</ele>
        <time>2018-11-08T02:46:52.384Z</time>
      </trkpt>
      <trkpt lat="44.06334" lon="7.70486">
        <ele>1758.9382324219</ele>
        <time>2018-11-08T02:47:04.944Z</time>
      </trkpt>
      <trkpt lat="44.06326" lon="7.70489">
        <ele>1762.8255615234</ele>
        <time>2018-11-08T02:47:17.506Z</time>
      </trkpt>
      <trkpt lat="44.06322" lon="7.70488">
        <ele>1762.9694824219</ele>
        <time>2018-11-08T02:47:30.068Z</time>
      </trkpt>
      <trkpt lat="44.06318" lon="7.70482">
        <ele>1759.5141601562</ele>
        <time>2018-11-08T02:47:42.631Z</time>
      </trkpt>
      <trkpt lat="44.06296" lon="7.70445">
        <ele>1737.6297607422</ele>
        <time>2018-11-08T02:47:55.200Z</time>
      </trkpt>
      <trkpt lat="44.0629" lon="7.70443">
        <ele>1737.4858398438</ele>
        <time>2018-11-08T02:48:07.770Z</time>
      </trkpt>
      <trkpt lat="44.06264" lon="7.7044">
        <ele>1739.4935302734</ele>
        <time>2018-11-08T02:48:20.344Z</time>
      </trkpt>
      <trkpt lat="44.06224" lon="7.70436">
        <ele>1740.4533691406</ele>
        <time>2018-11-08T02:48:32.924Z</time>
      </trkpt>
      <trkpt lat="44.06209" lon="7.70439">
        <ele>1744.0843505859</ele>
        <time>2018-11-08T02:48:45.507Z</time>
      </trkpt>
      <trkpt lat="44.06194" lon="7.70427">
        <ele>1736.9215087891</ele>
        <time>2018-11-08T02:48:58.093Z</time>
      </trkpt>
      <trkpt lat="44.06189" lon="7.70425">
        <ele>1735.953125</ele>
        <time>2018-11-08T02:49:10.679Z</time>
      </trkpt>
      <trkpt lat="44.06168" lon="7.70416">
        <ele>1732.55859375</ele>
        <time>2018-11-08T02:49:23.269Z</time>
      </trkpt>
      <trkpt lat="44.06153" lon="7.70421">
        <ele>1736.4809570312</ele>
        <time>2018-11-08T02:49:35.861Z</time>
      </trkpt>
      <trkpt lat="44.06149" lon="7.70425">
        <ele>1739.7924804688</ele>
        <time>2018-11-08T02:49:48.454Z</time>
      </trkpt>
      <trkpt lat="44.06146" lon="7.70426">
        <ele>1740.8122558594</ele>
        <time>2018-11-08T02:50:01.048Z</time>
      </trkpt>
      <trkpt lat="44.06146" lon="7.70426">
        <ele>1740.6623535156</ele>
        <time>2018-11-08T02:50:13.642Z</time>
      </trkpt>
      <trkpt lat="44.06145" lon="7.70426">
        <ele>1740.5899658203</ele>
        <time>2018-11-08T02:50:26.236Z</time>
      </trkpt>
      <trkpt lat="44.06124" lon="7.70411">
        <ele>1734.5622558594</ele>
        <time>2018-11-08T02:50:38.834Z</time>
      </trkpt>
      <trkpt lat="44.06111" lon="7.70405">
        <ele>1733.146484375</ele>
        <time>2018-11-08T02:50:51.434Z</time>
      </trkpt>
      <trkpt lat="44.06102" lon="7.70403">
        <ele>1733.2993164062</ele>
        <time>2018-11-08T02:51:04.035Z</time>
      </trkpt>
      <trkpt lat="44.06097" lon="7.70401">
        <ele>1733.0113525391</ele>
        <time>2018-11-08T02:51:16.637Z</time>
      </trkpt>
      <trkpt lat="44.06089" lon="7.70389">
        <ele>1728.6441650391</ele>
        <time>2018-11-08T02:51:29.241Z</time>
      </trkpt>
      <trkpt lat="44.06078" lon="7.70364">
        <ele>1718.8657226562</ele>
        <time>2018-11-08T02:51:41.848Z</time>
      </trkpt>
      <trkpt lat="44.06072" lon="7.70357">
        <ele>1716.4781494141</ele>
        <time>2018-11-08T02:51:54.457Z</time>
      </trkpt>
      <trkpt lat="44.0606" lon="7.70352">
        <ele>1715.6982421875</ele>
        <time>2018-11-08T02:52:07.068Z</time>
      </trkpt>
      <trkpt lat="44.06048" lon="7.70354">
        <ele>1718.0258789062</ele>
        <time>2018-11-08T02:52:19.681Z</time>
      </trkpt>
      <trkpt lat="44.06028" lon="7.70368">
        <ele>1727.6945800781</ele>
        <time>2018-11-08T02:52:32.297Z</time>
      </trkpt>
      <trkpt lat="44.06018" lon="7.70368">
        <ele>1727.6175537109</ele>
        <time>2018-11-08T02:52:44.915Z</time>
      </trkpt>
      <trkpt lat="44.05956" lon="7.70344">
        <ele>1713.1240234375</ele>
        <time>2018-11-08T02:52:57.543Z</time>
      </trkpt>
      <trkpt lat="44.05943" lon="7.70336">
        <ele>1708.8736572266</ele>
        <time>2018-11-08T02:53:10.173Z</time>
      </trkpt>
      <trkpt lat="44.05922" lon="7.70313">
        <ele>1695.7600097656</ele>
        <time>2018-11-08T02:53:22.808Z</time>
      </trkpt>
      <trkpt lat="44.05917" lon="7.70313">
        <ele>1693.5672607422</ele>
        <time>2018-11-08T02:53:35.443Z</time>
      </trkpt>
      <trkpt lat="44.05914" lon="7.70321">
        <ele>1693.3153076172</ele>
        <time>2018-11-08T02:53:48.079Z</time>
      </trkpt>
      <trkpt lat="44.05911" lon="7.70342">
        <ele>1695.376953125</ele>
        <time>2018-11-08T02:54:00.718Z</time>
      </trkpt>
      <trkpt lat="44.05905" lon="7.70372">
        <ele>1699.408203125</ele>
        <time>2018-11-08T02:54:13.360Z</time>
      </trkpt>
      <trkpt lat="44.05901" lon="7.70402">
        <ele>1705.2244873047</ele>
        <time>2018-11-08T02:54:26.006Z</time>
      </trkpt>
      <trkpt lat="44.05902" lon="7.7042">
        <ele>1710.4077148438</ele>
        <time>2018-11-08T02:54:38.654Z</time>
      </trkpt>
      <trkpt lat="44.05901" lon="7.70433">
        <ele>1713.5621337891</ele>
        <time>2018-11-08T02:54:51.304Z</time>
      </trkpt>
      <trkpt lat="44.05899" lon="7.70444">
        <ele>1715.7337646484</ele>
        <time>2018-11-08T02:55:03.955Z</time>
      </trkpt>
      <trkpt lat="44.05891" lon="7.70455">
        <ele>1715.5861816406</ele>
        <time>2018-11-08T02:55:16.608Z</time>
      </trkpt>
      <trkpt lat="44.0587" lon="7.70481">
        <ele>1717.6378173828</ele>
        <time>2018-11-08T02:55:29.265Z</time>
      </trkpt>
      <trkpt lat="44.05854" lon="7.70492">
        <ele>1716.9254150391</ele>
        <time>2018-11-08T02:55:41.925Z</time>
      </trkpt>
      <trkpt lat="44.05827" lon="7.70495">
        <ele>1714.2928466797</ele>
        <time>2018-11-08T02:55:54.589Z</time>
      </trkpt>
      <trkpt lat="44.05761" lon="7.70491">
        <ele>1704.3369140625</ele>
        <time>2018-11-08T02:56:07.264Z</time>
      </trkpt>
      <trkpt lat="44.05721" lon="7.70491">
        <ele>1698.0980224609</ele>
        <time>2018-11-08T02:56:19.945Z</time>
      </trkpt>
      <trkpt lat="44.05705" lon="7.70494">
        <ele>1696.6462402344</ele>
        <time>2018-11-08T02:56:32.629Z</time>
      </trkpt>
      <trkpt lat="44.05693" lon="7.70504">
        <ele>1698.2791748047</ele>
        <time>2018-11-08T02:56:45.315Z</time>
      </trkpt>
      <trkpt lat="44.0567" lon="7.70531">
        <ele>1711.9609375</ele>
        <time>2018-11-08T02:56:58.006Z</time>
      </trkpt>
      <trkpt lat="44.05656" lon="7.70544">
        <ele>1718.9438476562</ele>
        <time>2018-11-08T02:57:10.700Z</time>
      </trkpt>
      <trkpt lat="44.05649" lon="7.70542">
        <ele>1718.9677734375</ele>
        <time>2018-11-08T02:57:23.395Z</time>
      </trkpt>
      <trkpt lat="44.05618" lon="7.70521">
        <ele>1713.8018798828</ele>
        <time>2018-11-08T02:57:36.095Z</time>
      </trkpt>
      <trkpt lat="44.05584" lon="7.70491">
        <ele>1707.8962402344</ele>
        <time>2018-11-08T02:57:48.802Z</time>
      </trkpt>
      <trkpt lat="44.05573" lon="7.70476">
        <ele>1705.6646728516</ele>
        <time>2018-11-08T02:58:01.511Z</time>
      </trkpt>
      <trkpt lat="44.05556" lon="7.70453">
        <ele>1702.2572021484</ele>
        <time>2018-11-08T02:58:14.224Z</time>
      </trkpt>
      <trkpt lat="44.05542" lon="7.70427">
        <ele>1697.1331787109</ele>
        <time>2018-11-08T02:58:26.941Z</time>
      </trkpt>
      <trkpt lat="44.05542" lon="7.70427">
        <ele>1697.0875244141</ele>
        <time>2018-11-08T02:58:39.658Z</time>
      </trkpt>
      <trkpt lat="44.05534" lon="7.70413">
        <ele>1694.4974365234</ele>
        <time>2018-11-08T02:58:52.377Z</time>
      </trkpt>
      <trkpt lat="44.05518" lon="7.70374">
        <ele>1682.5192871094</ele>
        <time>2018-11-08T02:59:05.101Z</time>
      </trkpt>
      <trkpt lat="44.05508" lon="7.70353">
        <ele>1673.2448730469</ele>
        <time>2018-11-08T02:59:17.828Z</time>
      </trkpt>
      <trkpt lat="44.05495" lon="7.70337">
        <ele>1664.3063964844</ele>
        <time>2018-11-08T02:59:30.558Z</time>
      </trkpt>
      <trkpt lat="44.05486" lon="7.70333">
        <ele>1659.9813232422</ele>
        <time>2018-11-08T02:59:43.289Z</time>
      </trkpt>
      <trkpt lat="44.05477" lon="7.70336">
        <ele>1657.7497558594</ele>
        <time>2018-11-08T02:59:56.022Z</time>
      </trkpt>
      <trkpt lat="44.05467" lon="7.70349">
        <ele>1657.8753662109</ele>
        <time>2018-11-08T03:00:08.757Z</time>
      </trkpt>
      <trkpt lat="44.05453" lon="7.7037">
        <ele>1659.8961181641</ele>
        <time>2018-11-08T03:00:21.495Z</time>
      </trkpt>
      <trkpt lat="44.05429" lon="7.70418">
        <ele>1669.3884277344</ele>
        <time>2018-11-08T03:00:34.240Z</time>
      </trkpt>
      <trkpt lat="44.05419" lon="7.70435">
        <ele>1670.9465332031</ele>
        <time>2018-11-08T03:00:46.987Z</time>
      </trkpt>
      <trkpt lat="44.05407" lon="7.70442">
        <ele>1669.7827148438</ele>
        <time>2018-11-08T03:00:59.737Z</time>
      </trkpt>
      <trkpt lat="44.054" lon="7.70446">
        <ele>1669.0867919922</ele>
        <time>2018-11-08T03:01:12.488Z</time>
      </trkpt>
      <trkpt lat="44.05379" lon="7.70452">
        <ele>1664.7540283203</ele>
        <time>2018-11-08T03:01:25.242Z</time>
      </trkpt>
      <trkpt lat="44.05356" lon="7.70456">
        <ele>1659.2309570312</ele>
        <time>2018-11-08T03:01:38.000Z</time>
      </trkpt>
      <trkpt lat="44.05354" lon="7.70456">
        <ele>1659.1318359375</ele>
        <time>2018-11-08T03:01:50.758Z</time>
      </trkpt>
      <trkpt lat="44.05353" lon="7.70456">
        <ele>1659.1234130859</ele>
        <time>2018-11-08T03:02:03.516Z</time>
      </trkpt>
      <trkpt lat="44.05336" lon="7.70453">
        <ele>1658.3911132812</ele>
        <time>2018-11-08T03:02:16.277Z</time>
      </trkpt>
      <trkpt lat="44.05314" lon="7.70442">
        <ele>1656.5434570312</ele>
        <time>2018-11-08T03:02:29.042Z</time>
      </trkpt>
      <trkpt lat="44.05293" lon="7.70423">
        <ele>1653.7598876953</ele>
        <time>2018-11-08T03:02:41.811Z</time>
      </trkpt>
      <trkpt lat="44.0527" lon="7.70399">
        <ele>1651.0061035156</ele>
        <time>2018-11-08T03:02:54.585Z</time>
      </trkpt>
      <trkpt lat="44.05246" lon="7.70384">
        <ele>1650.5382080078</ele>
        <time>2018-11-08T03:03:07.363Z</time>
      </trkpt>
      <trkpt lat="44.05216" lon="7.70367">
        <ele>1647.6900634766</ele>
        <time>2018-11-08T03:03:20.146Z</time>
      </trkpt>
      <trkpt lat="44.05208" lon="7.7036">
        <ele>1646.9582519531</ele>
        <time>2018-11-08T03:03:32.930Z</time>
      </trkpt>
      <trkpt lat="44.05187" lon="7.70325">
        <ele>1644.5036621094</ele>
        <time>2018-11-08T03:03:45.720Z</time>
      </trkpt>
      <trkpt lat="44.05174" lon="7.70293">
        <ele>1635.6131591797</ele>
        <time>2018-11-08T03:03:58.514Z</time>
      </trkpt>
      <trkpt lat="44.05166" lon="7.70287">
        <ele>1632.2777099609</ele>
        <time>2018-11-08T03:04:11.309Z</time>
      </trkpt>
      <trkpt lat="44.05153" lon="7.7029">
        <ele>1628.8463134766</ele>
        <time>2018-11-08T03:04:24.106Z</time>
      </trkpt>
      <trkpt lat="44.0514" lon="7.70299">
        <ele>1626.8839111328</ele>
        <time>2018-11-08T03:04:36.906Z</time>
      </trkpt>
      <trkpt lat="44.0512" lon="7.70317">
        <ele>1625.0601806641</ele>
        <time>2018-11-08T03:04:49.710Z</time>
      </trkpt>
      <trkpt lat="44.05106" lon="7.70333">
        <ele>1624.7823486328</ele>
        <time>2018-11-08T03:05:02.517Z</time>
      </trkpt>
      <trkpt lat="44.05103" lon="7.70333">
        <ele>1623.8707275391</ele>
        <time>2018-11-08T03:05:15.324Z</time>
      </trkpt>
      <trkpt lat="44.051" lon="7.70329">
        <ele>1622.8148193359</ele>
        <time>2018-11-08T03:05:28.132Z</time>
      </trkpt>
      <trkpt lat="44.05103" lon="7.70323">
        <ele>1622.3947753906</ele>
        <time>2018-11-08T03:05:40.941Z</time>
      </trkpt>
      <trkpt lat="44.05127" lon="7.70295">
        <ele>1622.6845703125</ele>
        <time>2018-11-08T03:05:53.755Z</time>
      </trkpt>
      <trkpt lat="44.05146" lon="7.70266">
        <ele>1623.0032958984</ele>
        <time>2018-11-08T03:06:06.573Z</time>
      </trkpt>
      <trkpt lat="44.05174" lon="7.7021">
        <ele>1617.6157226562</ele>
        <time>2018-11-08T03:06:19.399Z</time>
      </trkpt>
      <trkpt lat="44.05176" lon="7.70203">
        <ele>1616.9678955078</ele>
        <time>2018-11-08T03:06:32.226Z</time>
      </trkpt>
      <trkpt lat="44.05171" lon="7.70201">
        <ele>1614.3763427734</ele>
        <time>2018-11-08T03:06:45.054Z</time>
      </trkpt>
      <trkpt lat="44.05162" lon="7.70213">
        <ele>1613.0805664062</ele>
        <time>2018-11-08T03:06:57.884Z</time>
      </trkpt>
      <trkpt lat="44.05146" lon="7.70241">
        <ele>1616.7250976562</ele>
        <time>2018-11-08T03:07:10.718Z</time>
      </trkpt>
      <trkpt lat="44.05123" lon="7.70265">
        <ele>1615.9484863281</ele>
        <time>2018-11-08T03:07:23.556Z</time>
      </trkpt>
      <trkpt lat="44.05096" lon="7.70285">
        <ele>1614.0081787109</ele>
        <time>2018-11-08T03:07:36.399Z</time>
      </trkpt>
      <trkpt lat="44.05078" lon="7.70293">
        <ele>1612.736328125</ele>
        <time>2018-11-08T03:07:49.245Z</time>
      </trkpt>
      <trkpt lat="44.05056" lon="7.70298">
        <ele>1607.6613769531</ele>
        <time>2018-11-08T03:08:02.095Z</time>
      </trkpt>
      <trkpt lat="44.05039" lon="7.70305">
        <ele>1602.0343017578</ele>
        <time>2018-11-08T03:08:14.948Z</time>
      </trkpt>
      <trkpt lat="44.05026" lon="7.70306">
        <ele>1597.6790771484</ele>
        <time>2018-11-08T03:08:27.803Z</time>
      </trkpt>
      <trkpt lat="44.05008" lon="7.70302">
        <ele>1597.1546630859</ele>
        <time>2018-11-08T03:08:40.661Z</time>
      </trkpt>
      <trkpt lat="44.0499" lon="7.70296">
        <ele>1596.6507568359</ele>
        <time>2018-11-08T03:08:53.522Z</time>
      </trkpt>
      <trkpt lat="44.04977" lon="7.70288">
        <ele>1596.21875</ele>
        <time>2018-11-08T03:09:06.385Z</time>
      </trkpt>
      <trkpt lat="44.04969" lon="7.70282">
        <ele>1595.5467529297</ele>
        <time>2018-11-08T03:09:19.249Z</time>
      </trkpt>
      <trkpt lat="44.04962" lon="7.70278">
        <ele>1594.7189941406</ele>
        <time>2018-11-08T03:09:32.115Z</time>
      </trkpt>
      <trkpt lat="44.04917" lon="7.70253">
        <ele>1593.0789794922</ele>
        <time>2018-11-08T03:09:44.988Z</time>
      </trkpt>
      <trkpt lat="44.04917" lon="7.70253">
        <ele>1593.0373535156</ele>
        <time>2018-11-08T03:09:57.861Z</time>
      </trkpt>
      <trkpt lat="44.049" lon="7.70244">
        <ele>1589.3480224609</ele>
        <time>2018-11-08T03:10:10.737Z</time>
      </trkpt>
      <trkpt lat="44.04886" lon="7.70242">
        <ele>1587.7883300781</ele>
        <time>2018-11-08T03:10:23.615Z</time>
      </trkpt>
      <trkpt lat="44.04875" lon="7.70245">
        <ele>1587.82421875</ele>
        <time>2018-11-08T03:10:36.495Z</time>
      </trkpt>
      <trkpt lat="44.04848" lon="7.70268">
        <ele>1589.7722167969</ele>
        <time>2018-11-08T03:10:49.380Z</time>
      </trkpt>
      <trkpt lat="44.04835" lon="7.70277">
        <ele>1591.0560302734</ele>
        <time>2018-11-08T03:11:02.268Z</time>
      </trkpt>
      <trkpt lat="44.04818" lon="7.70284">
        <ele>1592.9636230469</ele>
        <time>2018-11-08T03:11:15.159Z</time>
      </trkpt>
      <trkpt lat="44.04789" lon="7.70288">
        <ele>1598.1413574219</ele>
        <time>2018-11-08T03:11:28.054Z</time>
      </trkpt>
      <trkpt lat="44.04768" lon="7.70287">
        <ele>1601.556640625</ele>
        <time>2018-11-08T03:11:40.953Z</time>
      </trkpt>
      <trkpt lat="44.04738" lon="7.70281">
        <ele>1604.2922363281</ele>
        <time>2018-11-08T03:11:53.856Z</time>
      </trkpt>
      <trkpt lat="44.0472" lon="7.70281">
        <ele>1606.0198974609</ele>
        <time>2018-11-08T03:12:06.762Z</time>
      </trkpt>
      <trkpt lat="44.04671" lon="7.70288">
        <ele>1614.1763916016</ele>
        <time>2018-11-08T03:12:19.676Z</time>
      </trkpt>
      <trkpt lat="44.04671" lon="7.70288">
        <ele>1614.2272949219</ele>
        <time>2018-11-08T03:12:32.590Z</time>
      </trkpt>
      <trkpt lat="44.04647" lon="7.70292">
        <ele>1620.2951660156</ele>
        <time>2018-11-08T03:12:45.508Z</time>
      </trkpt>
      <trkpt lat="44.04645" lon="7.70292">
        <ele>1620.5590820312</ele>
        <time>2018-11-08T03:12:58.426Z</time>
      </trkpt>
      <trkpt lat="44.04635" lon="7.70294">
        <ele>1621.5919189453</ele>
        <time>2018-11-08T03:13:11.346Z</time>
      </trkpt>
      <trkpt lat="44.04628" lon="7.70302">
        <ele>1621.8380126953</ele>
        <time>2018-11-08T03:13:24.267Z</time>
      </trkpt>
      <trkpt lat="44.04612" lon="7.70316">
        <ele>1622.5341796875</ele>
        <time>2018-11-08T03:13:37.191Z</time>
      </trkpt>
      <trkpt lat="44.04602" lon="7.70324">
        <ele>1625.0534667969</ele>
        <time>2018-11-08T03:13:50.117Z</time>
      </trkpt>
      <trkpt lat="44.04602" lon="7.70324">
        <ele>1625.1130371094</ele>
        <time>2018-11-08T03:14:03.043Z</time>
      </trkpt>
      <trkpt lat="44.046" lon="7.70326">
        <ele>1625.8344726562</ele>
        <time>2018-11-08T03:14:15.970Z</time>
      </trkpt>
      <trkpt lat="44.04594" lon="7.7033">
        <ele>1627.5089111328</ele>
        <time>2018-11-08T03:14:28.898Z</time>
      </trkpt>
      <trkpt lat="44.04593" lon="7.7033">
        <ele>1627.5531005859</ele>
        <time>2018-11-08T03:14:41.826Z</time>
      </trkpt>
      <trkpt lat="44.04586" lon="7.70336">
        <ele>1629.3161621094</ele>
        <time>2018-11-08T03:14:54.755Z</time>
      </trkpt>
      <trkpt lat="44.04586" lon="7.70336">
        <ele>1629.5026855469</ele>
        <time>2018-11-08T03:15:07.684Z</time>
      </trkpt>
      <trkpt lat="44.04585" lon="7.70337">
        <ele>1629.5456542969</ele>
        <time>2018-11-08T03:15:20.613Z</time>
      </trkpt>
      <trkpt lat="44.04583" lon="7.70339">
        <ele>1629.640625</ele>
        <time>2018-11-08T03:15:33.543Z</time>
      </trkpt>
      <trkpt lat="44.04584" lon="7.70347">
        <ele>1625.6641845703</ele>
        <time>2018-11-08T03:15:46.474Z</time>
      </trkpt>
      <trkpt lat="44.04593" lon="7.70342">
        <ele>1624.7122802734</ele>
        <time>2018-11-08T03:15:59.406Z</time>
      </trkpt>
      <trkpt lat="44.04593" lon="7.70342">
        <ele>1624.6906738281</ele>
        <time>2018-11-08T03:16:12.338Z</time>
      </trkpt>
      <trkpt lat="44.046" lon="7.70338">
        <ele>1623.9716796875</ele>
        <time>2018-11-08T03:16:25.271Z</time>
      </trkpt>
      <trkpt lat="44.04606" lon="7.70336">
        <ele>1622.2662353516</ele>
        <time>2018-11-08T03:16:38.206Z</time>
      </trkpt>
      <trkpt lat="44.04606" lon="7.70335">
        <ele>1622.2039794922</ele>
        <time>2018-11-08T03:16:51.141Z</time>
      </trkpt>
      <trkpt lat="44.04617" lon="7.70332">
        <ele>1620.4309082031</ele>
        <time>2018-11-08T03:17:04.077Z</time>
      </trkpt>
      <trkpt lat="44.04621" lon="7.70332">
        <ele>1619.9176025391</ele>
        <time>2018-11-08T03:17:17.014Z</time>
      </trkpt>
      <trkpt lat="44.04621" lon="7.70332">
        <ele>1619.8895263672</ele>
        <time>2018-11-08T03:17:29.951Z</time>
      </trkpt>
      <trkpt lat="44.04626" lon="7.70332">
        <ele>1619.3134765625</ele>
        <time>2018-11-08T03:17:42.889Z</time>
      </trkpt>
      <trkpt lat="44.04626" lon="7.70332">
        <ele>1619.2858886719</ele>
        <time>2018-11-08T03:17:55.827Z</time>
      </trkpt>
      <trkpt lat="44.04632" lon="7.70332">
        <ele>1618.4932861328</ele>
        <time>2018-11-08T03:18:08.766Z</time>
      </trkpt>
      <trkpt lat="44.04632" lon="7.70332">
        <ele>1618.4663085938</ele>
        <time>2018-11-08T03:18:21.705Z</time>
      </trkpt>
      <trkpt lat="44.0464" lon="7.70332">
        <ele>1617.4278564453</ele>
        <time>2018-11-08T03:18:34.645Z</time>
      </trkpt>
      <trkpt lat="44.0464" lon="7.70332">
        <ele>1617.3796386719</ele>
        <time>2018-11-08T03:18:47.585Z</time>
      </trkpt>
      <trkpt lat="44.04648" lon="7.70334">
        <ele>1616.1713867188</ele>
        <time>2018-11-08T03:19:00.526Z</time>
      </trkpt>
      <trkpt lat="44.04648" lon="7.70334">
        <ele>1616.1400146484</ele>
        <time>2018-11-08T03:19:13.467Z</time>
      </trkpt>
      <trkpt lat="44.0465" lon="7.70334">
        <ele>1615.8677978516</ele>
        <time>2018-11-08T03:19:26.409Z</time>
      </trkpt>
      <trkpt lat="44.04666" lon="7.70334">
        <ele>1613.7171630859</ele>
        <time>2018-11-08T03:19:39.353Z</time>
      </trkpt>
      <trkpt lat="44.04667" lon="7.70334">
        <ele>1613.6895751953</ele>
        <time>2018-11-08T03:19:52.297Z</time>
      </trkpt>
      <trkpt lat="44.0468" lon="7.70334">
        <ele>1611.9084472656</ele>
        <time>2018-11-08T03:20:05.243Z</time>
      </trkpt>
      <trkpt lat="44.04689" lon="7.70335">
        <ele>1610.6805419922</ele>
        <time>2018-11-08T03:20:18.191Z</time>
      </trkpt>
      <trkpt lat="44.04689" lon="7.70335">
        <ele>1610.6508789062</ele>
        <time>2018-11-08T03:20:31.139Z</time>
      </trkpt>
      <trkpt lat="44.04699" lon="7.70336">
        <ele>1609.3553466797</ele>
        <time>2018-11-08T03:20:44.088Z</time>
      </trkpt>
      <trkpt lat="44.04726" lon="7.70335">
        <ele>1606.7397460938</ele>
        <time>2018-11-08T03:20:57.042Z</time>
      </trkpt>
      <trkpt lat="44.04801" lon="7.70311">
        <ele>1596.2456054688</ele>
        <time>2018-11-08T03:21:10.008Z</time>
      </trkpt>
      <trkpt lat="44.04836" lon="7.703">
        <ele>1589.8201904297</ele>
        <time>2018-11-08T03:21:22.980Z</time>
      </trkpt>
      <trkpt lat="44.04848" lon="7.70295">
        <ele>1588.4822998047</ele>
        <time>2018-11-08T03:21:35.954Z</time>
      </trkpt>
      <trkpt lat="44.04848" lon="7.70295">
        <ele>1588.4602050781</ele>
        <time>2018-11-08T03:21:48.928Z</time>
      </trkpt>
      <trkpt lat="44.04852" lon="7.70293">
        <ele>1588.0445556641</ele>
        <time>2018-11-08T03:22:01.903Z</time>
      </trkpt>
      <trkpt lat="44.04861" lon="7.70288">
        <ele>1587.2069091797</ele>
        <time>2018-11-08T03:22:14.879Z</time>
      </trkpt>
      <trkpt lat="44.0487" lon="7.70287">
        <ele>1586.6069335938</ele>
        <time>2018-11-08T03:22:27.857Z</time>
      </trkpt>
      <trkpt lat="44.04883" lon="7.70289">
        <ele>1585.5750732422</ele>
        <time>2018-11-08T03:22:40.837Z</time>
      </trkpt>
      <trkpt lat="44.04893" lon="7.70294">
        <ele>1584.615234375</ele>
        <time>2018-11-08T03:22:53.818Z</time>
      </trkpt>
      <trkpt lat="44.04931" lon="7.70325">
        <ele>1580.4249267578</ele>
        <time>2018-11-08T03:23:06.806Z</time>
      </trkpt>
      <trkpt lat="44.04959" lon="7.70345">
        <ele>1579.884765625</ele>
        <time>2018-11-08T03:23:19.799Z</time>
      </trkpt>
      <trkpt lat="44.04993" lon="7.70364">
        <ele>1581.0245361328</ele>
        <time>2018-11-08T03:23:32.798Z</time>
      </trkpt>
      <trkpt lat="44.05011" lon="7.70376">
        <ele>1580.9525146484</ele>
        <time>2018-11-08T03:23:45.800Z</time>
      </trkpt>
      <trkpt lat="44.0502" lon="7.70392">
        <ele>1577.4371337891</ele>
        <time>2018-11-08T03:23:58.805Z</time>
      </trkpt>
      <trkpt lat="44.05027" lon="7.70426">
        <ele>1566.873046875</ele>
        <time>2018-11-08T03:24:11.814Z</time>
      </trkpt>
      <trkpt lat="44.05033" lon="7.70453">
        <ele>1557.4066162109</ele>
        <time>2018-11-08T03:24:24.826Z</time>
      </trkpt>
      <trkpt lat="44.0504" lon="7.70463">
        <ele>1555.3909912109</ele>
        <time>2018-11-08T03:24:37.840Z</time>
      </trkpt>
      <trkpt lat="44.05046" lon="7.70465">
        <ele>1556.4228515625</ele>
        <time>2018-11-08T03:24:50.855Z</time>
      </trkpt>
      <trkpt lat="44.05058" lon="7.70465">
        <ele>1560.1662597656</ele>
        <time>2018-11-08T03:25:03.872Z</time>
      </trkpt>
      <trkpt lat="44.05075" lon="7.70467">
        <ele>1564.7899169922</ele>
        <time>2018-11-08T03:25:16.891Z</time>
      </trkpt>
      <trkpt lat="44.05098" lon="7.70478">
        <ele>1568.2093505859</ele>
        <time>2018-11-08T03:25:29.914Z</time>
      </trkpt>
      <trkpt lat="44.05141" lon="7.70503">
        <ele>1572.8021240234</ele>
        <time>2018-11-08T03:25:42.945Z</time>
      </trkpt>
      <trkpt lat="44.05146" lon="7.7051">
        <ele>1572.5988769531</ele>
        <time>2018-11-08T03:25:55.977Z</time>
      </trkpt>
      <trkpt lat="44.05149" lon="7.70534">
        <ele>1566.587890625</ele>
        <time>2018-11-08T03:26:09.012Z</time>
      </trkpt>
      <trkpt lat="44.05148" lon="7.70554">
        <ele>1559.4868164062</ele>
        <time>2018-11-08T03:26:22.049Z</time>
      </trkpt>
      <trkpt lat="44.05152" lon="7.70591">
        <ele>1548.1951904297</ele>
        <time>2018-11-08T03:26:35.090Z</time>
      </trkpt>
      <trkpt lat="44.05158" lon="7.70614">
        <ele>1543.7559814453</ele>
        <time>2018-11-08T03:26:48.134Z</time>
      </trkpt>
      <trkpt lat="44.05161" lon="7.70619">
        <ele>1543.4473876953</ele>
        <time>2018-11-08T03:27:01.179Z</time>
      </trkpt>
      <trkpt lat="44.05161" lon="7.70619">
        <ele>1543.4327392578</ele>
        <time>2018-11-08T03:27:14.224Z</time>
      </trkpt>
      <trkpt lat="44.05164" lon="7.70625">
        <ele>1543.0600585938</ele>
        <time>2018-11-08T03:27:27.270Z</time>
      </trkpt>
      <trkpt lat="44.05176" lon="7.70638">
        <ele>1544.4758300781</ele>
        <time>2018-11-08T03:27:40.318Z</time>
      </trkpt>
      <trkpt lat="44.05301" lon="7.70751">
        <ele>1547.9479980469</ele>
        <time>2018-11-08T03:27:53.390Z</time>
      </trkpt>
      <trkpt lat="44.05317" lon="7.70768">
        <ele>1551.3562011719</ele>
        <time>2018-11-08T03:28:06.465Z</time>
      </trkpt>
      <trkpt lat="44.0532" lon="7.70774">
        <ele>1551.7521972656</ele>
        <time>2018-11-08T03:28:19.541Z</time>
      </trkpt>
      <trkpt lat="44.05321" lon="7.70782">
        <ele>1551.0922851562</ele>
        <time>2018-11-08T03:28:32.618Z</time>
      </trkpt>
      <trkpt lat="44.05316" lon="7.70796">
        <ele>1546.7414550781</ele>
        <time>2018-11-08T03:28:45.697Z</time>
      </trkpt>
      <trkpt lat="44.05308" lon="7.70809">
        <ele>1537.3229980469</ele>
        <time>2018-11-08T03:28:58.778Z</time>
      </trkpt>
      <trkpt lat="44.05305" lon="7.70819">
        <ele>1532.0079345703</ele>
        <time>2018-11-08T03:29:11.860Z</time>
      </trkpt>
      <trkpt lat="44.05303" lon="7.70835">
        <ele>1525.2170410156</ele>
        <time>2018-11-08T03:29:24.944Z</time>
      </trkpt>
      <trkpt lat="44.05297" lon="7.70864">
        <ele>1525.0046386719</ele>
        <time>2018-11-08T03:29:38.031Z</time>
      </trkpt>
      <trkpt lat="44.05297" lon="7.70877">
        <ele>1526.7204589844</ele>
        <time>2018-11-08T03:29:51.120Z</time>
      </trkpt>
      <trkpt lat="44.05299" lon="7.70893">
        <ele>1530.1038818359</ele>
        <time>2018-11-08T03:30:04.211Z</time>
      </trkpt>
      <trkpt lat="44.05294" lon="7.70903">
        <ele>1528.244140625</ele>
        <time>2018-11-08T03:30:17.303Z</time>
      </trkpt>
      <trkpt lat="44.05284" lon="7.70916">
        <ele>1523.6009521484</ele>
        <time>2018-11-08T03:30:30.397Z</time>
      </trkpt>
      <trkpt lat="44.05283" lon="7.70926">
        <ele>1524.0050048828</ele>
        <time>2018-11-08T03:30:43.493Z</time>
      </trkpt>
      <trkpt lat="44.05285" lon="7.70945">
        <ele>1526.8725585938</ele>
        <time>2018-11-08T03:30:56.591Z</time>
      </trkpt>
      <trkpt lat="44.05288" lon="7.70984">
        <ele>1532.0556640625</ele>
        <time>2018-11-08T03:31:09.693Z</time>
      </trkpt>
      <trkpt lat="44.05288" lon="7.71009">
        <ele>1533.234375</ele>
        <time>2018-11-08T03:31:22.798Z</time>
      </trkpt>
      <trkpt lat="44.05284" lon="7.71037">
        <ele>1530.4709472656</ele>
        <time>2018-11-08T03:31:35.906Z</time>
      </trkpt>
      <trkpt lat="44.05278" lon="7.71063">
        <ele>1527.1594238281</ele>
        <time>2018-11-08T03:31:49.018Z</time>
      </trkpt>
      <trkpt lat="44.05283" lon="7.71107">
        <ele>1530.0041503906</ele>
        <time>2018-11-08T03:32:02.135Z</time>
      </trkpt>
      <trkpt lat="44.05284" lon="7.71129">
        <ele>1530.5681152344</ele>
        <time>2018-11-08T03:32:15.254Z</time>
      </trkpt>
      <trkpt lat="44.05283" lon="7.71134">
        <ele>1530.0041503906</ele>
        <time>2018-11-08T03:32:28.374Z</time>
      </trkpt>
      <trkpt lat="44.05276" lon="7.71145">
        <ele>1526.0568847656</ele>
        <time>2018-11-08T03:32:41.496Z</time>
      </trkpt>
      <trkpt lat="44.05271" lon="7.71158">
        <ele>1523.4136962891</ele>
        <time>2018-11-08T03:32:54.619Z</time>
      </trkpt>
      <trkpt lat="44.05273" lon="7.71189">
        <ele>1527.66015625</ele>
        <time>2018-11-08T03:33:07.746Z</time>
      </trkpt>
      <trkpt lat="44.05272" lon="7.71209">
        <ele>1530.5037841797</ele>
        <time>2018-11-08T03:33:20.875Z</time>
      </trkpt>
      <trkpt lat="44.05264" lon="7.71228">
        <ele>1529.5678710938</ele>
        <time>2018-11-08T03:33:34.007Z</time>
      </trkpt>
      <trkpt lat="44.05246" lon="7.71249">
        <ele>1522.5926513672</ele>
        <time>2018-11-08T03:33:47.143Z</time>
      </trkpt>
      <trkpt lat="44.05242" lon="7.7127">
        <ele>1524.2375488281</ele>
        <time>2018-11-08T03:34:00.281Z</time>
      </trkpt>
      <trkpt lat="44.05244" lon="7.71298">
        <ele>1531.0764160156</ele>
        <time>2018-11-08T03:34:13.422Z</time>
      </trkpt>
      <trkpt lat="44.05242" lon="7.71311">
        <ele>1532.9837646484</ele>
        <time>2018-11-08T03:34:26.565Z</time>
      </trkpt>
      <trkpt lat="44.05236" lon="7.71324">
        <ele>1533.1636962891</ele>
        <time>2018-11-08T03:34:39.710Z</time>
      </trkpt>
      <trkpt lat="44.05173" lon="7.71388">
        <ele>1511.4661865234</ele>
        <time>2018-11-08T03:34:52.867Z</time>
      </trkpt>
      <trkpt lat="44.05168" lon="7.71397">
        <ele>1510.1020507812</ele>
        <time>2018-11-08T03:35:06.025Z</time>
      </trkpt>
      <trkpt lat="44.05167" lon="7.71403">
        <ele>1510.6658935547</ele>
        <time>2018-11-08T03:35:19.184Z</time>
      </trkpt>
      <trkpt lat="44.05171" lon="7.71416">
        <ele>1515.5130615234</ele>
        <time>2018-11-08T03:35:32.345Z</time>
      </trkpt>
      <trkpt lat="44.05208" lon="7.71448">
        <ele>1526.9106445312</ele>
        <time>2018-11-08T03:35:45.513Z</time>
      </trkpt>
      <trkpt lat="44.05236" lon="7.71471">
        <ele>1533.9294433594</ele>
        <time>2018-11-08T03:35:58.686Z</time>
      </trkpt>
      <trkpt lat="44.05252" lon="7.71482">
        <ele>1538.6674804688</ele>
        <time>2018-11-08T03:36:11.862Z</time>
      </trkpt>
      <trkpt lat="44.05252" lon="7.71482">
        <ele>1538.7237548828</ele>
        <time>2018-11-08T03:36:25.038Z</time>
      </trkpt>
      <trkpt lat="44.05318" lon="7.71528">
        <ele>1545.7677001953</ele>
        <time>2018-11-08T03:36:38.226Z</time>
      </trkpt>
      <trkpt lat="44.05328" lon="7.71541">
        <ele>1542.3842773438</ele>
        <time>2018-11-08T03:36:51.416Z</time>
      </trkpt>
      <trkpt lat="44.05336" lon="7.71544">
        <ele>1543.5841064453</ele>
        <time>2018-11-08T03:37:04.607Z</time>
      </trkpt>
      <trkpt lat="44.05354" lon="7.71543">
        <ele>1550.375</ele>
        <time>2018-11-08T03:37:17.801Z</time>
      </trkpt>
      <trkpt lat="44.05358" lon="7.71546">
        <ele>1550.1829833984</ele>
        <time>2018-11-08T03:37:30.996Z</time>
      </trkpt>
      <trkpt lat="44.05368" lon="7.71576">
        <ele>1538.8752441406</ele>
        <time>2018-11-08T03:37:44.195Z</time>
      </trkpt>
      <trkpt lat="44.05374" lon="7.71595">
        <ele>1532.8118896484</ele>
        <time>2018-11-08T03:37:57.396Z</time>
      </trkpt>
      <trkpt lat="44.05378" lon="7.71597">
        <ele>1533.9156494141</ele>
        <time>2018-11-08T03:38:10.598Z</time>
      </trkpt>
      <trkpt lat="44.05381" lon="7.716">
        <ele>1534.1676025391</ele>
        <time>2018-11-08T03:38:23.800Z</time>
      </trkpt>
      <trkpt lat="44.05383" lon="7.71603">
        <ele>1533.9516601562</ele>
        <time>2018-11-08T03:38:37.003Z</time>
      </trkpt>
      <trkpt lat="44.05384" lon="7.71619">
        <ele>1528.2766113281</ele>
        <time>2018-11-08T03:38:50.208Z</time>
      </trkpt>
      <trkpt lat="44.05401" lon="7.71645">
        <ele>1526.2490234375</ele>
        <time>2018-11-08T03:39:03.417Z</time>
      </trkpt>
      <trkpt lat="44.05408" lon="7.71648">
        <ele>1528.3725585938</ele>
        <time>2018-11-08T03:39:16.627Z</time>
      </trkpt>
      <trkpt lat="44.05417" lon="7.71651">
        <ele>1531.4321289062</ele>
        <time>2018-11-08T03:39:29.838Z</time>
      </trkpt>
      <trkpt lat="44.05433" lon="7.71661">
        <ele>1535.0794677734</ele>
        <time>2018-11-08T03:39:43.052Z</time>
      </trkpt>
      <trkpt lat="44.05438" lon="7.71666">
        <ele>1535.4993896484</ele>
        <time>2018-11-08T03:39:56.267Z</time>
      </trkpt>
      <trkpt lat="44.05439" lon="7.71671">
        <ele>1534.0053710938</ele>
        <time>2018-11-08T03:40:09.483Z</time>
      </trkpt>
      <trkpt lat="44.05442" lon="7.71675">
        <ele>1533.6334228516</ele>
        <time>2018-11-08T03:40:22.699Z</time>
      </trkpt>
      <trkpt lat="44.05449" lon="7.71676">
        <ele>1536.7471923828</ele>
        <time>2018-11-08T03:40:35.916Z</time>
      </trkpt>
      <trkpt lat="44.05462" lon="7.71683">
        <ele>1540.1306152344</ele>
        <time>2018-11-08T03:40:49.136Z</time>
      </trkpt>
      <trkpt lat="44.05467" lon="7.71689">
        <ele>1540.0826416016</ele>
        <time>2018-11-08T03:41:02.357Z</time>
      </trkpt>
      <trkpt lat="44.0547" lon="7.71696">
        <ele>1538.6668701172</ele>
        <time>2018-11-08T03:41:15.579Z</time>
      </trkpt>
      <trkpt lat="44.05471" lon="7.717">
        <ele>1537.4682617188</ele>
        <time>2018-11-08T03:41:28.801Z</time>
      </trkpt>
      <trkpt lat="44.05471" lon="7.71705">
        <ele>1535.2486572266</ele>
        <time>2018-11-08T03:41:42.024Z</time>
      </trkpt>
      <trkpt lat="44.05467" lon="7.71709">
        <ele>1531.4093017578</ele>
        <time>2018-11-08T03:41:55.248Z</time>
      </trkpt>
      <trkpt lat="44.05467" lon="7.71714">
        <ele>1529.1896972656</ele>
        <time>2018-11-08T03:42:08.472Z</time>
      </trkpt>
      <trkpt lat="44.05469" lon="7.71727">
        <ele>1524.4504394531</ele>
        <time>2018-11-08T03:42:21.698Z</time>
      </trkpt>
      <trkpt lat="44.05476" lon="7.71742">
        <ele>1521.4029541016</ele>
        <time>2018-11-08T03:42:34.926Z</time>
      </trkpt>
      <trkpt lat="44.05479" lon="7.71751">
        <ele>1518.9553222656</ele>
        <time>2018-11-08T03:42:48.155Z</time>
      </trkpt>
      <trkpt lat="44.05478" lon="7.71759">
        <ele>1519.1951904297</ele>
        <time>2018-11-08T03:43:01.385Z</time>
      </trkpt>
      <trkpt lat="44.05475" lon="7.71764">
        <ele>1519.4471435547</ele>
        <time>2018-11-08T03:43:14.616Z</time>
      </trkpt>
      <trkpt lat="44.0547" lon="7.71767">
        <ele>1517.9473876953</ele>
        <time>2018-11-08T03:43:27.847Z</time>
      </trkpt>
      <trkpt lat="44.05468" lon="7.71769">
        <ele>1517.6354980469</ele>
        <time>2018-11-08T03:43:41.079Z</time>
      </trkpt>
      <trkpt lat="44.05459" lon="7.71798">
        <ele>1513.7049560547</ele>
        <time>2018-11-08T03:43:54.314Z</time>
      </trkpt>
      <trkpt lat="44.05453" lon="7.71823">
        <ele>1508.8217773438</ele>
        <time>2018-11-08T03:44:07.552Z</time>
      </trkpt>
      <trkpt lat="44.0545" lon="7.71837">
        <ele>1506.2093505859</ele>
        <time>2018-11-08T03:44:20.792Z</time>
      </trkpt>
      <trkpt lat="44.0545" lon="7.71837">
        <ele>1506.1564941406</ele>
        <time>2018-11-08T03:44:34.032Z</time>
      </trkpt>
      <trkpt lat="44.05449" lon="7.7184">
        <ele>1505.7508544922</ele>
        <time>2018-11-08T03:44:47.273Z</time>
      </trkpt>
      <trkpt lat="44.05447" lon="7.71863">
        <ele>1507.4934082031</ele>
        <time>2018-11-08T03:45:00.516Z</time>
      </trkpt>
      <trkpt lat="44.05447" lon="7.7189">
        <ele>1511.7047119141</ele>
        <time>2018-11-08T03:45:13.762Z</time>
      </trkpt>
      <trkpt lat="44.05452" lon="7.71941">
        <ele>1519.6177978516</ele>
        <time>2018-11-08T03:45:27.014Z</time>
      </trkpt>
      <trkpt lat="44.0546" lon="7.71986">
        <ele>1521.2974853516</ele>
        <time>2018-11-08T03:45:40.272Z</time>
      </trkpt>
      <trkpt lat="44.05467" lon="7.72035">
        <ele>1529.6811523438</ele>
        <time>2018-11-08T03:45:53.535Z</time>
      </trkpt>
      <trkpt lat="44.05464" lon="7.72048">
        <ele>1530.4010009766</ele>
        <time>2018-11-08T03:46:06.800Z</time>
      </trkpt>
      <trkpt lat="44.05456" lon="7.72057">
        <ele>1525.8537597656</ele>
        <time>2018-11-08T03:46:20.067Z</time>
      </trkpt>
      <trkpt lat="44.05429" lon="7.72074">
        <ele>1510.6632080078</ele>
        <time>2018-11-08T03:46:33.338Z</time>
      </trkpt>
      <trkpt lat="44.0539" lon="7.72117">
        <ele>1513.9376220703</ele>
        <time>2018-11-08T03:46:46.617Z</time>
      </trkpt>
      <trkpt lat="44.05354" lon="7.72144">
        <ele>1503.5665283203</ele>
        <time>2018-11-08T03:46:59.903Z</time>
      </trkpt>
      <trkpt lat="44.05342" lon="7.72154">
        <ele>1502.4138183594</ele>
        <time>2018-11-08T03:47:13.191Z</time>
      </trkpt>
      <trkpt lat="44.05336" lon="7.72161">
        <ele>1501.4299316406</ele>
        <time>2018-11-08T03:47:26.480Z</time>
      </trkpt>
      <trkpt lat="44.05332" lon="7.72167">
        <ele>1501.0939941406</ele>
        <time>2018-11-08T03:47:39.770Z</time>
      </trkpt>
      <trkpt lat="44.05332" lon="7.72178">
        <ele>1500.8072509766</ele>
        <time>2018-11-08T03:47:53.062Z</time>
      </trkpt>
      <trkpt lat="44.05352" lon="7.72229">
        <ele>1502.3430175781</ele>
        <time>2018-11-08T03:48:06.360Z</time>
      </trkpt>
      <trkpt lat="44.05362" lon="7.72259">
        <ele>1502.6448974609</ele>
        <time>2018-11-08T03:48:19.662Z</time>
      </trkpt>
      <trkpt lat="44.05371" lon="7.72284">
        <ele>1503.0767822266</ele>
        <time>2018-11-08T03:48:32.967Z</time>
      </trkpt>
      <trkpt lat="44.05393" lon="7.72314">
        <ele>1510.8514404297</ele>
        <time>2018-11-08T03:48:46.277Z</time>
      </trkpt>
      <trkpt lat="44.054" lon="7.72325">
        <ele>1513.0111083984</ele>
        <time>2018-11-08T03:48:59.589Z</time>
      </trkpt>
      <trkpt lat="44.05402" lon="7.72335">
        <ele>1512.1473388672</ele>
        <time>2018-11-08T03:49:12.902Z</time>
      </trkpt>
      <trkpt lat="44.05401" lon="7.72347">
        <ele>1510.6944580078</ele>
        <time>2018-11-08T03:49:26.217Z</time>
      </trkpt>
      <trkpt lat="44.05386" lon="7.7239">
        <ele>1498.1722412109</ele>
        <time>2018-11-08T03:49:39.537Z</time>
      </trkpt>
      <trkpt lat="44.05379" lon="7.72419">
        <ele>1490.8654785156</ele>
        <time>2018-11-08T03:49:52.861Z</time>
      </trkpt>
      <trkpt lat="44.05381" lon="7.72466">
        <ele>1491.6779785156</ele>
        <time>2018-11-08T03:50:06.190Z</time>
      </trkpt>
      <trkpt lat="44.05385" lon="7.72501">
        <ele>1491.8218994141</ele>
        <time>2018-11-08T03:50:19.523Z</time>
      </trkpt>
      <trkpt lat="44.05398" lon="7.72565">
        <ele>1502.9986572266</ele>
        <time>2018-11-08T03:50:32.864Z</time>
      </trkpt>
      <trkpt lat="44.05401" lon="7.72587">
        <ele>1508.5297851562</ele>
        <time>2018-11-08T03:50:46.207Z</time>
      </trkpt>
      <trkpt lat="44.054" lon="7.72601">
        <ele>1511.9354248047</ele>
        <time>2018-11-08T03:50:59.552Z</time>
      </trkpt>
      <trkpt lat="44.05395" lon="7.72612">
        <ele>1512.0434570312</ele>
        <time>2018-11-08T03:51:12.898Z</time>
      </trkpt>
      <trkpt lat="44.05384" lon="7.72617">
        <ele>1507.3065185547</ele>
        <time>2018-11-08T03:51:26.246Z</time>
      </trkpt>
      <trkpt lat="44.05375" lon="7.72617">
        <ele>1502.7712402344</ele>
        <time>2018-11-08T03:51:39.596Z</time>
      </trkpt>
      <trkpt lat="44.05363" lon="7.72615">
        <ele>1495.9323730469</ele>
        <time>2018-11-08T03:51:52.948Z</time>
      </trkpt>
      <trkpt lat="44.0533" lon="7.72623">
        <ele>1489.8395996094</ele>
        <time>2018-11-08T03:52:06.305Z</time>
      </trkpt>
      <trkpt lat="44.05279" lon="7.72639">
        <ele>1481.8040771484</ele>
        <time>2018-11-08T03:52:19.670Z</time>
      </trkpt>
      <trkpt lat="44.05279" lon="7.7264">
        <ele>1481.7692871094</ele>
        <time>2018-11-08T03:52:33.035Z</time>
      </trkpt>
      <trkpt lat="44.05256" lon="7.72647">
        <ele>1474.0052490234</ele>
        <time>2018-11-08T03:52:46.404Z</time>
      </trkpt>
      <trkpt lat="44.05235" lon="7.72672">
        <ele>1471.1579589844</ele>
        <time>2018-11-08T03:52:59.778Z</time>
      </trkpt>
      <trkpt lat="44.05207" lon="7.72707">
        <ele>1460.4710693359</ele>
        <time>2018-11-08T03:53:13.158Z</time>
      </trkpt>
      <trkpt lat="44.05202" lon="7.7272">
        <ele>1458.3474121094</ele>
        <time>2018-11-08T03:53:26.539Z</time>
      </trkpt>
      <trkpt lat="44.052" lon="7.72751">
        <ele>1459.3552246094</ele>
        <time>2018-11-08T03:53:39.924Z</time>
      </trkpt>
      <trkpt lat="44.05203" lon="7.72787">
        <ele>1462.7353515625</ele>
        <time>2018-11-08T03:53:53.313Z</time>
      </trkpt>
      <trkpt lat="44.05207" lon="7.72803">
        <ele>1465.8548583984</ele>
        <time>2018-11-08T03:54:06.704Z</time>
      </trkpt>
      <trkpt lat="44.05217" lon="7.72819">
        <ele>1472.5017089844</ele>
        <time>2018-11-08T03:54:20.098Z</time>
      </trkpt>
      <trkpt lat="44.05222" lon="7.72832">
        <ele>1476.0650634766</ele>
        <time>2018-11-08T03:54:33.493Z</time>
      </trkpt>
      <trkpt lat="44.05223" lon="7.72843">
        <ele>1478.1625976562</ele>
        <time>2018-11-08T03:54:46.890Z</time>
      </trkpt>
      <trkpt lat="44.05221" lon="7.72862">
        <ele>1481.0900878906</ele>
        <time>2018-11-08T03:55:00.289Z</time>
      </trkpt>
      <trkpt lat="44.05216" lon="7.72872">
        <ele>1481.4040527344</ele>
        <time>2018-11-08T03:55:13.689Z</time>
      </trkpt>
      <trkpt lat="44.05205" lon="7.72879">
        <ele>1478.1766357422</ele>
        <time>2018-11-08T03:55:27.091Z</time>
      </trkpt>
      <trkpt lat="44.05182" lon="7.7289">
        <ele>1472.3195800781</ele>
        <time>2018-11-08T03:55:40.497Z</time>
      </trkpt>
      <trkpt lat="44.05171" lon="7.72896">
        <ele>1470.8918457031</ele>
        <time>2018-11-08T03:55:53.905Z</time>
      </trkpt>
      <trkpt lat="44.05161" lon="7.7291">
        <ele>1473.5223388672</ele>
        <time>2018-11-08T03:56:07.315Z</time>
      </trkpt>
      <trkpt lat="44.05155" lon="7.72916">
        <ele>1474.3142089844</ele>
        <time>2018-11-08T03:56:20.726Z</time>
      </trkpt>
      <trkpt lat="44.05148" lon="7.72918">
        <ele>1473.3782958984</ele>
        <time>2018-11-08T03:56:34.138Z</time>
      </trkpt>
      <trkpt lat="44.05107" lon="7.72923">
        <ele>1466.2158203125</ele>
        <time>2018-11-08T03:56:47.557Z</time>
      </trkpt>
      <trkpt lat="44.05072" lon="7.72938">
        <ele>1472.21484375</ele>
        <time>2018-11-08T03:57:00.982Z</time>
      </trkpt>
      <trkpt lat="44.05062" lon="7.72945">
        <ele>1475.3942871094</ele>
        <time>2018-11-08T03:57:14.409Z</time>
      </trkpt>
      <trkpt lat="44.05057" lon="7.72948">
        <ele>1476.7141113281</ele>
        <time>2018-11-08T03:57:27.837Z</time>
      </trkpt>
      <trkpt lat="44.05024" lon="7.72946">
        <ele>1474.4892578125</ele>
        <time>2018-11-08T03:57:41.270Z</time>
      </trkpt>
      <trkpt lat="44.0498" lon="7.72945">
        <ele>1476.5649414062</ele>
        <time>2018-11-08T03:57:54.710Z</time>
      </trkpt>
      <trkpt lat="44.0497" lon="7.72948">
        <ele>1478.8552246094</ele>
        <time>2018-11-08T03:58:08.152Z</time>
      </trkpt>
      <trkpt lat="44.04966" lon="7.72948">
        <ele>1478.3753662109</ele>
        <time>2018-11-08T03:58:21.594Z</time>
      </trkpt>
      <trkpt lat="44.04958" lon="7.72944">
        <ele>1475.8797607422</ele>
        <time>2018-11-08T03:58:35.038Z</time>
      </trkpt>
      <trkpt lat="44.04944" lon="7.72932">
        <ele>1469.5927734375</ele>
        <time>2018-11-08T03:58:48.484Z</time>
      </trkpt>
      <trkpt lat="44.04933" lon="7.72921">
        <ele>1462.9086914062</ele>
        <time>2018-11-08T03:59:01.932Z</time>
      </trkpt>
      <trkpt lat="44.04925" lon="7.72917">
        <ele>1459.9576416016</ele>
        <time>2018-11-08T03:59:15.382Z</time>
      </trkpt>
      <trkpt lat="44.04915" lon="7.72914">
        <ele>1456.8381347656</ele>
        <time>2018-11-08T03:59:28.833Z</time>
      </trkpt>
      <trkpt lat="44.04906" lon="7.7292">
        <ele>1456.1182861328</ele>
        <time>2018-11-08T03:59:42.286Z</time>
      </trkpt>
      <trkpt lat="44.04894" lon="7.72931">
        <ele>1457.3896484375</ele>
        <time>2018-11-08T03:59:55.741Z</time>
      </trkpt>
      <trkpt lat="44.04888" lon="7.72934">
        <ele>1457.1016845703</ele>
        <time>2018-11-08T04:00:09.197Z</time>
      </trkpt>
      <trkpt lat="44.04881" lon="7.72933">
        <ele>1455.0379638672</ele>
        <time>2018-11-08T04:00:22.654Z</time>
      </trkpt>
      <trkpt lat="44.04876" lon="7.7293">
        <ele>1452.7506103516</ele>
        <time>2018-11-08T04:00:36.112Z</time>
      </trkpt>
      <trkpt lat="44.04876" lon="7.7293">
        <ele>1452.6649169922</ele>
        <time>2018-11-08T04:00:49.570Z</time>
      </trkpt>
      <trkpt lat="44.04844" lon="7.72914">
        <ele>1436.6058349609</ele>
        <time>2018-11-08T04:01:03.034Z</time>
      </trkpt>
      <trkpt lat="44.04834" lon="7.72911">
        <ele>1430.9307861328</ele>
        <time>2018-11-08T04:01:16.499Z</time>
      </trkpt>
      <trkpt lat="44.04827" lon="7.72914">
        <ele>1426.4075927734</ele>
        <time>2018-11-08T04:01:29.966Z</time>
      </trkpt>
      <trkpt lat="44.04822" lon="7.72922">
        <ele>1422.9931640625</ele>
        <time>2018-11-08T04:01:43.434Z</time>
      </trkpt>
      <trkpt lat="44.04815" lon="7.7299">
        <ele>1427.8471679688</ele>
        <time>2018-11-08T04:01:56.910Z</time>
      </trkpt>
      <trkpt lat="44.04816" lon="7.7301">
        <ele>1428.9671630859</ele>
        <time>2018-11-08T04:02:10.388Z</time>
      </trkpt>
      <trkpt lat="44.04814" lon="7.7302">
        <ele>1426.7835693359</ele>
        <time>2018-11-08T04:02:23.867Z</time>
      </trkpt>
      <trkpt lat="44.0481" lon="7.73034">
        <ele>1422.8481445312</ele>
        <time>2018-11-08T04:02:37.348Z</time>
      </trkpt>
      <trkpt lat="44.0481" lon="7.73043">
        <ele>1422.4981689453</ele>
        <time>2018-11-08T04:02:50.830Z</time>
      </trkpt>
      <trkpt lat="44.04813" lon="7.73052">
        <ele>1424.4058837891</ele>
        <time>2018-11-08T04:03:04.313Z</time>
      </trkpt>
      <trkpt lat="44.04826" lon="7.7307">
        <ele>1432.9244384766</ele>
        <time>2018-11-08T04:03:17.799Z</time>
      </trkpt>
      <trkpt lat="44.0485" lon="7.7311">
        <ele>1445.833984375</ele>
        <time>2018-11-08T04:03:31.291Z</time>
      </trkpt>
      <trkpt lat="44.04858" lon="7.73141">
        <ele>1447.1177978516</ele>
        <time>2018-11-08T04:03:44.787Z</time>
      </trkpt>
      <trkpt lat="44.04864" lon="7.7316">
        <ele>1448.0031738281</ele>
        <time>2018-11-08T04:03:58.285Z</time>
      </trkpt>
      <trkpt lat="44.04866" lon="7.73168">
        <ele>1448.0270996094</ele>
        <time>2018-11-08T04:04:11.784Z</time>
      </trkpt>
      <trkpt lat="44.04864" lon="7.73178">
        <ele>1448.298828125</ele>
        <time>2018-11-08T04:04:25.284Z</time>
      </trkpt>
      <trkpt lat="44.04837" lon="7.73215">
        <ele>1447.2312011719</ele>
        <time>2018-11-08T04:04:38.790Z</time>
      </trkpt>
      <trkpt lat="44.04828" lon="7.73223">
        <ele>1445.4400634766</ele>
        <time>2018-11-08T04:04:52.298Z</time>
      </trkpt>
      <trkpt lat="44.04818" lon="7.73227">
        <ele>1443.568359375</ele>
        <time>2018-11-08T04:05:05.808Z</time>
      </trkpt>
      <trkpt lat="44.04806" lon="7.7324">
        <ele>1444.8641357422</ele>
        <time>2018-11-08T04:05:19.320Z</time>
      </trkpt>
      <trkpt lat="44.04798" lon="7.73254">
        <ele>1448.0329589844</ele>
        <time>2018-11-08T04:05:32.834Z</time>
      </trkpt>
      <trkpt lat="44.04789" lon="7.73274">
        <ele>1453.6719970703</ele>
        <time>2018-11-08T04:05:46.351Z</time>
      </trkpt>
      <trkpt lat="44.04784" lon="7.7328">
        <ele>1454.5358886719</ele>
        <time>2018-11-08T04:05:59.869Z</time>
      </trkpt>
      <trkpt lat="44.04777" lon="7.73282">
        <ele>1452.9040527344</ele>
        <time>2018-11-08T04:06:13.388Z</time>
      </trkpt>
      <trkpt lat="44.04767" lon="7.73284">
        <ele>1451.9331054688</ele>
        <time>2018-11-08T04:06:26.909Z</time>
      </trkpt>
      <trkpt lat="44.04767" lon="7.73284">
        <ele>1451.9185791016</ele>
        <time>2018-11-08T04:06:40.430Z</time>
      </trkpt>
      <trkpt lat="44.04765" lon="7.73284">
        <ele>1451.8084716797</ele>
        <time>2018-11-08T04:06:53.951Z</time>
      </trkpt>
      <trkpt lat="44.04749" lon="7.73291">
        <ele>1452.6124267578</ele>
        <time>2018-11-08T04:07:07.475Z</time>
      </trkpt>
      <trkpt lat="44.04732" lon="7.73302">
        <ele>1454.9450683594</ele>
        <time>2018-11-08T04:07:21.002Z</time>
      </trkpt>
      <trkpt lat="44.04719" lon="7.73315">
        <ele>1458.5324707031</ele>
        <time>2018-11-08T04:07:34.531Z</time>
      </trkpt>
      <trkpt lat="44.04701" lon="7.73338">
        <ele>1465.6866455078</ele>
        <time>2018-11-08T04:07:48.064Z</time>
      </trkpt>
      <trkpt lat="44.04693" lon="7.73343">
        <ele>1466.8411865234</ele>
        <time>2018-11-08T04:08:01.599Z</time>
      </trkpt>
      <trkpt lat="44.04686" lon="7.73343">
        <ele>1468.3170166016</ele>
        <time>2018-11-08T04:08:15.135Z</time>
      </trkpt>
      <trkpt lat="44.04672" lon="7.73342">
        <ele>1471.1965332031</ele>
        <time>2018-11-08T04:08:28.673Z</time>
      </trkpt>
      <trkpt lat="44.0466" lon="7.73346">
        <ele>1475.9957275391</ele>
        <time>2018-11-08T04:08:42.213Z</time>
      </trkpt>
      <trkpt lat="44.04652" lon="7.73344">
        <ele>1476.9555664062</ele>
        <time>2018-11-08T04:08:55.754Z</time>
      </trkpt>
      <trkpt lat="44.04608" lon="7.73311">
        <ele>1471.3211669922</ele>
        <time>2018-11-08T04:09:09.303Z</time>
      </trkpt>
      <trkpt lat="44.04485" lon="7.73256">
        <ele>1453.59765625</ele>
        <time>2018-11-08T04:09:22.873Z</time>
      </trkpt>
      <trkpt lat="44.04471" lon="7.73253">
        <ele>1449.7142333984</ele>
        <time>2018-11-08T04:09:36.445Z</time>
      </trkpt>
      <trkpt lat="44.04464" lon="7.73255">
        <ele>1449.3743896484</ele>
        <time>2018-11-08T04:09:50.019Z</time>
      </trkpt>
      <trkpt lat="44.04456" lon="7.73261">
        <ele>1450.5981445312</ele>
        <time>2018-11-08T04:10:03.594Z</time>
      </trkpt>
      <trkpt lat="44.04409" lon="7.73314">
        <ele>1468.4971923828</ele>
        <time>2018-11-08T04:10:17.179Z</time>
      </trkpt>
      <trkpt lat="44.04393" lon="7.73323">
        <ele>1468.5572509766</ele>
        <time>2018-11-08T04:10:30.766Z</time>
      </trkpt>
      <trkpt lat="44.04358" lon="7.73325">
        <ele>1462.8062744141</ele>
        <time>2018-11-08T04:10:44.359Z</time>
      </trkpt>
      <trkpt lat="44.04336" lon="7.73325">
        <ele>1460.2241210938</ele>
        <time>2018-11-08T04:10:57.956Z</time>
      </trkpt>
      <trkpt lat="44.04326" lon="7.73323">
        <ele>1457.2485351562</ele>
        <time>2018-11-08T04:11:11.554Z</time>
      </trkpt>
      <trkpt lat="44.04301" lon="7.73315">
        <ele>1449.8458251953</ele>
        <time>2018-11-08T04:11:25.156Z</time>
      </trkpt>
      <trkpt lat="44.04292" lon="7.73317">
        <ele>1447.1221923828</ele>
        <time>2018-11-08T04:11:38.760Z</time>
      </trkpt>
      <trkpt lat="44.04287" lon="7.73324">
        <ele>1445.5385742188</ele>
        <time>2018-11-08T04:11:52.365Z</time>
      </trkpt>
      <trkpt lat="44.04287" lon="7.73336">
        <ele>1445.39453125</ele>
        <time>2018-11-08T04:12:05.971Z</time>
      </trkpt>
      <trkpt lat="44.04303" lon="7.73402">
        <ele>1445.23046875</ele>
        <time>2018-11-08T04:12:19.585Z</time>
      </trkpt>
      <trkpt lat="44.04315" lon="7.73458">
        <ele>1449.8099365234</ele>
        <time>2018-11-08T04:12:33.206Z</time>
      </trkpt>
      <trkpt lat="44.04316" lon="7.73481">
        <ele>1450.2966308594</ele>
        <time>2018-11-08T04:12:46.830Z</time>
      </trkpt>
      <trkpt lat="44.04314" lon="7.73489">
        <ele>1448.8088378906</ele>
        <time>2018-11-08T04:13:00.455Z</time>
      </trkpt>
      <trkpt lat="44.04308" lon="7.73503">
        <ele>1444.4655761719</ele>
        <time>2018-11-08T04:13:14.082Z</time>
      </trkpt>
      <trkpt lat="44.04284" lon="7.73538">
        <ele>1426.4755859375</ele>
        <time>2018-11-08T04:13:27.714Z</time>
      </trkpt>
      <trkpt lat="44.04283" lon="7.7354">
        <ele>1426.0076904297</ele>
        <time>2018-11-08T04:13:41.346Z</time>
      </trkpt>
      <trkpt lat="44.04279" lon="7.73551">
        <ele>1424.1719970703</ele>
        <time>2018-11-08T04:13:54.980Z</time>
      </trkpt>
      <trkpt lat="44.04278" lon="7.73566">
        <ele>1423.8601074219</ele>
        <time>2018-11-08T04:14:08.616Z</time>
      </trkpt>
      <trkpt lat="44.04291" lon="7.73598">
        <ele>1430.767578125</ele>
        <time>2018-11-08T04:14:22.256Z</time>
      </trkpt>
      <trkpt lat="44.04295" lon="7.73607">
        <ele>1432.6137695312</ele>
        <time>2018-11-08T04:14:35.897Z</time>
      </trkpt>
      <trkpt lat="44.04295" lon="7.73608">
        <ele>1432.646484375</ele>
        <time>2018-11-08T04:14:49.538Z</time>
      </trkpt>
      <trkpt lat="44.04321" lon="7.73675">
        <ele>1440.2116699219</ele>
        <time>2018-11-08T04:15:03.188Z</time>
      </trkpt>
      <trkpt lat="44.04337" lon="7.73699">
        <ele>1441.7474365234</ele>
        <time>2018-11-08T04:15:16.842Z</time>
      </trkpt>
      <trkpt lat="44.04349" lon="7.73711">
        <ele>1445.0588378906</ele>
        <time>2018-11-08T04:15:30.498Z</time>
      </trkpt>
      <trkpt lat="44.04379" lon="7.73742">
        <ele>1451.0655517578</ele>
        <time>2018-11-08T04:15:44.160Z</time>
      </trkpt>
      <trkpt lat="44.04394" lon="7.73766">
        <ele>1449.3714599609</ele>
        <time>2018-11-08T04:15:57.826Z</time>
      </trkpt>
      <trkpt lat="44.0441" lon="7.73798">
        <ele>1443.4204101562</ele>
        <time>2018-11-08T04:16:11.496Z</time>
      </trkpt>
      <trkpt lat="44.04434" lon="7.73832">
        <ele>1441.1375732422</ele>
        <time>2018-11-08T04:16:25.172Z</time>
      </trkpt>
      <trkpt lat="44.04448" lon="7.73848">
        <ele>1444.0541992188</ele>
        <time>2018-11-08T04:16:38.851Z</time>
      </trkpt>
      <trkpt lat="44.04453" lon="7.73862">
        <ele>1443.8862304688</ele>
        <time>2018-11-08T04:16:52.531Z</time>
      </trkpt>
      <trkpt lat="44.04457" lon="7.73889">
        <ele>1439.7708740234</ele>
        <time>2018-11-08T04:17:06.215Z</time>
      </trkpt>
      <trkpt lat="44.0446" lon="7.73909">
        <ele>1436.7474365234</ele>
        <time>2018-11-08T04:17:19.901Z</time>
      </trkpt>
      <trkpt lat="44.04477" lon="7.7398">
        <ele>1439.9597167969</ele>
        <time>2018-11-08T04:17:33.596Z</time>
      </trkpt>
      <trkpt lat="44.04483" lon="7.74011">
        <ele>1445.9912109375</ele>
        <time>2018-11-08T04:17:47.294Z</time>
      </trkpt>
      <trkpt lat="44.0448" lon="7.74023">
        <ele>1448.1148681641</ele>
        <time>2018-11-08T04:18:00.994Z</time>
      </trkpt>
      <trkpt lat="44.04475" lon="7.74031">
        <ele>1448.3428955078</ele>
        <time>2018-11-08T04:18:14.695Z</time>
      </trkpt>
      <trkpt lat="44.04466" lon="7.74036">
        <ele>1447.8745117188</ele>
        <time>2018-11-08T04:18:28.397Z</time>
      </trkpt>
      <trkpt lat="44.04425" lon="7.74043">
        <ele>1442.9451904297</ele>
        <time>2018-11-08T04:18:42.106Z</time>
      </trkpt>
      <trkpt lat="44.04402" lon="7.74048">
        <ele>1440.3265380859</ele>
        <time>2018-11-08T04:18:55.819Z</time>
      </trkpt>
      <trkpt lat="44.04384" lon="7.74058">
        <ele>1439.8946533203</ele>
        <time>2018-11-08T04:19:09.535Z</time>
      </trkpt>
      <trkpt lat="44.04375" lon="7.74066">
        <ele>1440.9744873047</ele>
        <time>2018-11-08T04:19:23.253Z</time>
      </trkpt>
      <trkpt lat="44.04363" lon="7.74078">
        <ele>1442.9901123047</ele>
        <time>2018-11-08T04:19:36.973Z</time>
      </trkpt>
      <trkpt lat="44.04347" lon="7.74099">
        <ele>1442.2755126953</ele>
        <time>2018-11-08T04:19:50.697Z</time>
      </trkpt>
      <trkpt lat="44.04331" lon="7.74132">
        <ele>1441.3516845703</ele>
        <time>2018-11-08T04:20:04.425Z</time>
      </trkpt>
      <trkpt lat="44.04322" lon="7.74155">
        <ele>1439.2797851562</ele>
        <time>2018-11-08T04:20:18.156Z</time>
      </trkpt>
      <trkpt lat="44.04319" lon="7.74177">
        <ele>1439.7116699219</ele>
        <time>2018-11-08T04:20:31.890Z</time>
      </trkpt>
      <trkpt lat="44.04319" lon="7.74219">
        <ele>1444.3071289062</ele>
        <time>2018-11-08T04:20:45.629Z</time>
      </trkpt>
      <trkpt lat="44.0432" lon="7.7424">
        <ele>1447.4626464844</ele>
        <time>2018-11-08T04:20:59.370Z</time>
      </trkpt>
      <trkpt lat="44.04323" lon="7.74259">
        <ele>1451.2941894531</ele>
        <time>2018-11-08T04:21:13.113Z</time>
      </trkpt>
      <trkpt lat="44.04324" lon="7.74269">
        <ele>1452.4100341797</ele>
        <time>2018-11-08T04:21:26.857Z</time>
      </trkpt>
      <trkpt lat="44.04322" lon="7.74297">
        <ele>1452.4820556641</ele>
        <time>2018-11-08T04:21:40.605Z</time>
      </trkpt>
      <trkpt lat="44.04323" lon="7.74305">
        <ele>1454.2512207031</ele>
        <time>2018-11-08T04:21:54.354Z</time>
      </trkpt>
      <trkpt lat="44.04334" lon="7.74339">
        <ele>1467.416015625</ele>
        <time>2018-11-08T04:22:08.107Z</time>
      </trkpt>
      <trkpt lat="44.04337" lon="7.74352">
        <ele>1470.7393798828</ele>
        <time>2018-11-08T04:22:21.861Z</time>
      </trkpt>
      <trkpt lat="44.04339" lon="7.74376">
        <ele>1475.369140625</ele>
        <time>2018-11-08T04:22:35.618Z</time>
      </trkpt>
      <trkpt lat="44.04339" lon="7.74376">
        <ele>1475.4255371094</ele>
        <time>2018-11-08T04:22:49.375Z</time>
      </trkpt>
      <trkpt lat="44.0434" lon="7.74385">
        <ele>1477.1823730469</ele>
        <time>2018-11-08T04:23:03.133Z</time>
      </trkpt>
      <trkpt lat="44.0434" lon="7.74412">
        <ele>1483.5</ele>
        <time>2018-11-08T04:23:16.894Z</time>
      </trkpt>
      <trkpt lat="44.04336" lon="7.7443">
        <ele>1489.3999023438</ele>
        <time>2018-11-08T04:23:30.658Z</time>
      </trkpt>
      <trkpt lat="44.04331" lon="7.74437">
        <ele>1491.0316162109</ele>
        <time>2018-11-08T04:23:44.423Z</time>
      </trkpt>
      <trkpt lat="44.04323" lon="7.74442">
        <ele>1491.1876220703</ele>
        <time>2018-11-08T04:23:58.189Z</time>
      </trkpt>
      <trkpt lat="44.04316" lon="7.74446">
        <ele>1491.1755371094</ele>
        <time>2018-11-08T04:24:11.956Z</time>
      </trkpt>
      <trkpt lat="44.04201" lon="7.74433">
        <ele>1470.9226074219</ele>
        <time>2018-11-08T04:24:25.742Z</time>
      </trkpt>
      <trkpt lat="44.04163" lon="7.74421">
        <ele>1457.1489257812</ele>
        <time>2018-11-08T04:24:39.534Z</time>
      </trkpt>
      <trkpt lat="44.04145" lon="7.74411">
        <ele>1452.1343994141</ele>
        <time>2018-11-08T04:24:53.329Z</time>
      </trkpt>
      <trkpt lat="44.04133" lon="7.74405">
        <ele>1448.7508544922</ele>
        <time>2018-11-08T04:25:07.126Z</time>
      </trkpt>
      <trkpt lat="44.04125" lon="7.74398">
        <ele>1446.8192138672</ele>
        <time>2018-11-08T04:25:20.925Z</time>
      </trkpt>
      <trkpt lat="44.04065" lon="7.74306">
        <ele>1439.39453125</ele>
        <time>2018-11-08T04:25:34.738Z</time>
      </trkpt>
      <trkpt lat="44.04058" lon="7.74299">
        <ele>1438.05078125</ele>
        <time>2018-11-08T04:25:48.552Z</time>
      </trkpt>
      <trkpt lat="44.04039" lon="7.74286">
        <ele>1434.3314208984</ele>
        <time>2018-11-08T04:26:02.370Z</time>
      </trkpt>
      <trkpt lat="44.03987" lon="7.74287">
        <ele>1427.4268798828</ele>
        <time>2018-11-08T04:26:16.196Z</time>
      </trkpt>
      <trkpt lat="44.03961" lon="7.74282">
        <ele>1422.4512939453</ele>
        <time>2018-11-08T04:26:30.026Z</time>
      </trkpt>
      <trkpt lat="44.03933" lon="7.74264">
        <ele>1419.8225097656</ele>
        <time>2018-11-08T04:26:43.861Z</time>
      </trkpt>
      <trkpt lat="44.03873" lon="7.74237">
        <ele>1415.1427001953</ele>
        <time>2018-11-08T04:26:57.706Z</time>
      </trkpt>
      <trkpt lat="44.03854" lon="7.74231">
        <ele>1412.4074707031</ele>
        <time>2018-11-08T04:27:11.554Z</time>
      </trkpt>
      <trkpt lat="44.03839" lon="7.74231">
        <ele>1410.2478027344</ele>
        <time>2018-11-08T04:27:25.405Z</time>
      </trkpt>
      <trkpt lat="44.038" lon="7.74245">
        <ele>1405.7860107422</ele>
        <time>2018-11-08T04:27:39.262Z</time>
      </trkpt>
      <trkpt lat="44.03774" lon="7.74249">
        <ele>1402.3706054688</ele>
        <time>2018-11-08T04:27:53.123Z</time>
      </trkpt>
      <trkpt lat="44.03759" lon="7.7425">
        <ele>1402.2059326172</ele>
        <time>2018-11-08T04:28:06.987Z</time>
      </trkpt>
      <trkpt lat="44.03722" lon="7.74235">
        <ele>1400.1613769531</ele>
        <time>2018-11-08T04:28:20.857Z</time>
      </trkpt>
      <trkpt lat="44.03721" lon="7.74235">
        <ele>1400.150390625</ele>
        <time>2018-11-08T04:28:34.727Z</time>
      </trkpt>
      <trkpt lat="44.03705" lon="7.74229">
        <ele>1399.2543945312</ele>
        <time>2018-11-08T04:28:48.600Z</time>
      </trkpt>
      <trkpt lat="44.03662" lon="7.74211">
        <ele>1403.0234375</ele>
        <time>2018-11-08T04:29:02.480Z</time>
      </trkpt>
      <trkpt lat="44.03532" lon="7.74053">
        <ele>1416.8873291016</ele>
        <time>2018-11-08T04:29:16.388Z</time>
      </trkpt>
      <trkpt lat="44.03498" lon="7.73976">
        <ele>1394.9821777344</ele>
        <time>2018-11-08T04:29:30.306Z</time>
      </trkpt>
      <trkpt lat="44.03491" lon="7.73972">
        <ele>1393.1087646484</ele>
        <time>2018-11-08T04:29:44.225Z</time>
      </trkpt>
      <trkpt lat="44.03483" lon="7.73975">
        <ele>1394.140625</ele>
        <time>2018-11-08T04:29:58.146Z</time>
      </trkpt>
      <trkpt lat="44.03453" lon="7.74014">
        <ele>1407.7730712891</ele>
        <time>2018-11-08T04:30:12.073Z</time>
      </trkpt>
      <trkpt lat="44.03428" lon="7.7403">
        <ele>1405.9730224609</ele>
        <time>2018-11-08T04:30:26.005Z</time>
      </trkpt>
      <trkpt lat="44.03387" lon="7.74034">
        <ele>1397.7423095703</ele>
        <time>2018-11-08T04:30:39.943Z</time>
      </trkpt>
      <trkpt lat="44.03336" lon="7.74043">
        <ele>1393.0803222656</ele>
        <time>2018-11-08T04:30:53.889Z</time>
      </trkpt>
      <trkpt lat="44.03317" lon="7.74052">
        <ele>1393.7769775391</ele>
        <time>2018-11-08T04:31:07.839Z</time>
      </trkpt>
      <trkpt lat="44.03293" lon="7.74076">
        <ele>1392.3371582031</ele>
        <time>2018-11-08T04:31:21.793Z</time>
      </trkpt>
      <trkpt lat="44.03285" lon="7.74087">
        <ele>1392.0012207031</ele>
        <time>2018-11-08T04:31:35.749Z</time>
      </trkpt>
      <trkpt lat="44.03266" lon="7.741">
        <ele>1389.1369628906</ele>
        <time>2018-11-08T04:31:49.709Z</time>
      </trkpt>
      <trkpt lat="44.03205" lon="7.74128">
        <ele>1400.6721191406</ele>
        <time>2018-11-08T04:32:03.679Z</time>
      </trkpt>
      <trkpt lat="44.03184" lon="7.74148">
        <ele>1401.0109863281</ele>
        <time>2018-11-08T04:32:17.653Z</time>
      </trkpt>
      <trkpt lat="44.03169" lon="7.74171">
        <ele>1394.8447265625</ele>
        <time>2018-11-08T04:32:31.631Z</time>
      </trkpt>
      <trkpt lat="44.03141" lon="7.74193">
        <ele>1387.7144775391</ele>
        <time>2018-11-08T04:32:45.614Z</time>
      </trkpt>
      <trkpt lat="44.03141" lon="7.74194">
        <ele>1387.6683349609</ele>
        <time>2018-11-08T04:32:59.597Z</time>
      </trkpt>
      <trkpt lat="44.03134" lon="7.74199">
        <ele>1386.0559082031</ele>
        <time>2018-11-08T04:33:13.581Z</time>
      </trkpt>
      <trkpt lat="44.03114" lon="7.74214">
        <ele>1382.8165283203</ele>
        <time>2018-11-08T04:33:27.569Z</time>
      </trkpt>
      <trkpt lat="44.03109" lon="7.74214">
        <ele>1384.0762939453</ele>
        <time>2018-11-08T04:33:41.557Z</time>
      </trkpt>
      <trkpt lat="44.03101" lon="7.74213">
        <ele>1385.6994628906</ele>
        <time>2018-11-08T04:33:55.547Z</time>
      </trkpt>
      <trkpt lat="44.03071" lon="7.74196">
        <ele>1399.0412597656</ele>
        <time>2018-11-08T04:34:09.542Z</time>
      </trkpt>
      <trkpt lat="44.03052" lon="7.74193">
        <ele>1403.2044677734</ele>
        <time>2018-11-08T04:34:23.540Z</time>
      </trkpt>
      <trkpt lat="44.03044" lon="7.74196">
        <ele>1403.2585449219</ele>
        <time>2018-11-08T04:34:37.539Z</time>
      </trkpt>
      <trkpt lat="44.0303" lon="7.74203">
        <ele>1403.2585449219</ele>
        <time>2018-11-08T04:34:51.541Z</time>
      </trkpt>
      <trkpt lat="44.0297" lon="7.74271">
        <ele>1382.7153320312</ele>
        <time>2018-11-08T04:35:05.555Z</time>
      </trkpt>
      <trkpt lat="44.02942" lon="7.74321">
        <ele>1377.6837158203</ele>
        <time>2018-11-08T04:35:19.576Z</time>
      </trkpt>
      <trkpt lat="44.02931" lon="7.74328">
        <ele>1373.01171875</ele>
        <time>2018-11-08T04:35:33.599Z</time>
      </trkpt>
      <trkpt lat="44.02917" lon="7.74324">
        <ele>1370.1322021484</ele>
        <time>2018-11-08T04:35:47.625Z</time>
      </trkpt>
      <trkpt lat="44.02848" lon="7.74251">
        <ele>1378.9877929688</ele>
        <time>2018-11-08T04:36:01.665Z</time>
      </trkpt>
      <trkpt lat="44.02837" lon="7.74241">
        <ele>1382.8032226562</ele>
        <time>2018-11-08T04:36:15.707Z</time>
      </trkpt>
      <trkpt lat="44.02832" lon="7.74241">
        <ele>1382.6832275391</ele>
        <time>2018-11-08T04:36:29.749Z</time>
      </trkpt>
      <trkpt lat="44.02809" lon="7.74245">
        <ele>1380.4996337891</ele>
        <time>2018-11-08T04:36:43.795Z</time>
      </trkpt>
      <trkpt lat="44.02789" lon="7.74253">
        <ele>1376.7562255859</ele>
        <time>2018-11-08T04:36:57.844Z</time>
      </trkpt>
      <trkpt lat="44.02772" lon="7.74264">
        <ele>1372.2309570312</ele>
        <time>2018-11-08T04:37:11.896Z</time>
      </trkpt>
      <trkpt lat="44.02746" lon="7.74273">
        <ele>1369.9154052734</ele>
        <time>2018-11-08T04:37:25.953Z</time>
      </trkpt>
      <trkpt lat="44.02639" lon="7.74286">
        <ele>1369.4147949219</ele>
        <time>2018-11-08T04:37:40.027Z</time>
      </trkpt>
      <trkpt lat="44.02619" lon="7.74291">
        <ele>1369.8347167969</ele>
        <time>2018-11-08T04:37:54.104Z</time>
      </trkpt>
      <trkpt lat="44.02583" lon="7.74316">
        <ele>1363.3134765625</ele>
        <time>2018-11-08T04:38:08.188Z</time>
      </trkpt>
      <trkpt lat="44.02551" lon="7.74331">
        <ele>1359.6900634766</ele>
        <time>2018-11-08T04:38:22.277Z</time>
      </trkpt>
      <trkpt lat="44.02443" lon="7.74364">
        <ele>1354.9578857422</ele>
        <time>2018-11-08T04:38:36.384Z</time>
      </trkpt>
      <trkpt lat="44.02436" lon="7.74367">
        <ele>1355.2198486328</ele>
        <time>2018-11-08T04:38:50.492Z</time>
      </trkpt>
      <trkpt lat="44.02421" lon="7.74392">
        <ele>1350.4206542969</ele>
        <time>2018-11-08T04:39:04.604Z</time>
      </trkpt>
      <trkpt lat="44.02392" lon="7.74435">
        <ele>1344.4622802734</ele>
        <time>2018-11-08T04:39:18.722Z</time>
      </trkpt>
      <trkpt lat="44.02375" lon="7.7446">
        <ele>1338.8115234375</ele>
        <time>2018-11-08T04:39:32.844Z</time>
      </trkpt>
      <trkpt lat="44.02351" lon="7.74486">
        <ele>1332.1387939453</ele>
        <time>2018-11-08T04:39:46.971Z</time>
      </trkpt>
      <trkpt lat="44.02351" lon="7.74486">
        <ele>1332.0743408203</ele>
        <time>2018-11-08T04:40:01.098Z</time>
      </trkpt>
      <trkpt lat="44.02349" lon="7.74488">
        <ele>1331.4154052734</ele>
        <time>2018-11-08T04:40:15.226Z</time>
      </trkpt>
      <trkpt lat="44.02322" lon="7.74505">
        <ele>1328.1492919922</ele>
        <time>2018-11-08T04:40:29.358Z</time>
      </trkpt>
      <trkpt lat="44.02302" lon="7.74506">
        <ele>1329.6490478516</ele>
        <time>2018-11-08T04:40:43.494Z</time>
      </trkpt>
      <trkpt lat="44.02287" lon="7.74506">
        <ele>1331.0887451172</ele>
        <time>2018-11-08T04:40:57.632Z</time>
      </trkpt>
      <trkpt lat="44.02277" lon="7.74511">
        <ele>1329.3767089844</ele>
        <time>2018-11-08T04:41:11.772Z</time>
      </trkpt>
      <trkpt lat="44.02254" lon="7.74531">
        <ele>1317.2587890625</ele>
        <time>2018-11-08T04:41:25.916Z</time>
      </trkpt>
      <trkpt lat="44.02241" lon="7.74539">
        <ele>1312.0997314453</ele>
        <time>2018-11-08T04:41:40.062Z</time>
      </trkpt>
      <trkpt lat="44.02198" lon="7.74538">
        <ele>1312.5504150391</ele>
        <time>2018-11-08T04:41:54.215Z</time>
      </trkpt>
      <trkpt lat="44.02151" lon="7.74549">
        <ele>1307.1988525391</ele>
        <time>2018-11-08T04:42:08.376Z</time>
      </trkpt>
      <trkpt lat="44.02118" lon="7.74571">
        <ele>1307.9907226562</ele>
        <time>2018-11-08T04:42:22.543Z</time>
      </trkpt>
      <trkpt lat="44.02071" lon="7.74613">
        <ele>1301.6030273438</ele>
        <time>2018-11-08T04:42:36.719Z</time>
      </trkpt>
      <trkpt lat="44.02035" lon="7.74634">
        <ele>1297.5030517578</ele>
        <time>2018-11-08T04:42:50.901Z</time>
      </trkpt>
      <trkpt lat="44.01975" lon="7.74661">
        <ele>1283.8802490234</ele>
        <time>2018-11-08T04:43:05.093Z</time>
      </trkpt>
      <trkpt lat="44.0194" lon="7.7467">
        <ele>1281.7155761719</ele>
        <time>2018-11-08T04:43:19.291Z</time>
      </trkpt>
      <trkpt lat="44.01913" lon="7.74672">
        <ele>1277.5205078125</ele>
        <time>2018-11-08T04:43:33.493Z</time>
      </trkpt>
      <trkpt lat="44.01887" lon="7.74671">
        <ele>1274.6290283203</ele>
        <time>2018-11-08T04:43:47.699Z</time>
      </trkpt>
      <trkpt lat="44.01842" lon="7.74667">
        <ele>1265.4377441406</ele>
        <time>2018-11-08T04:44:01.912Z</time>
      </trkpt>
      <trkpt lat="44.01785" lon="7.74649">
        <ele>1245.9289550781</ele>
        <time>2018-11-08T04:44:16.135Z</time>
      </trkpt>
      <trkpt lat="44.01764" lon="7.7465">
        <ele>1241.1032714844</ele>
        <time>2018-11-08T04:44:30.361Z</time>
      </trkpt>
      <trkpt lat="44.01737" lon="7.74654">
        <ele>1240.5668945312</ele>
        <time>2018-11-08T04:44:44.591Z</time>
      </trkpt>
      <trkpt lat="44.01689" lon="7.74652">
        <ele>1240.2171630859</ele>
        <time>2018-11-08T04:44:58.829Z</time>
      </trkpt>
      <trkpt lat="44.01639" lon="7.74651">
        <ele>1242.5546875</ele>
        <time>2018-11-08T04:45:13.075Z</time>
      </trkpt>
      <trkpt lat="44.01623" lon="7.74648">
        <ele>1242.5666503906</ele>
        <time>2018-11-08T04:45:27.324Z</time>
      </trkpt>
      <trkpt lat="44.01603" lon="7.74641">
        <ele>1241.7628173828</ele>
        <time>2018-11-08T04:45:41.576Z</time>
      </trkpt>
      <trkpt lat="44.01576" lon="7.74631">
        <ele>1240.5389404297</ele>
        <time>2018-11-08T04:45:55.833Z</time>
      </trkpt>
      <trkpt lat="44.01568" lon="7.74626">
        <ele>1239.6630859375</ele>
        <time>2018-11-08T04:46:10.091Z</time>
      </trkpt>
      <trkpt lat="44.01554" lon="7.74587">
        <ele>1230.4281005859</ele>
        <time>2018-11-08T04:46:24.354Z</time>
      </trkpt>
      <trkpt lat="44.01542" lon="7.74572">
        <ele>1224.5251464844</ele>
        <time>2018-11-08T04:46:38.620Z</time>
      </trkpt>
      <trkpt lat="44.01526" lon="7.74567">
        <ele>1223.1333007812</ele>
        <time>2018-11-08T04:46:52.888Z</time>
      </trkpt>
      <trkpt lat="44.01517" lon="7.74567">
        <ele>1220.0906982422</ele>
        <time>2018-11-08T04:47:07.158Z</time>
      </trkpt>
      <trkpt lat="44.01511" lon="7.74568">
        <ele>1218.291015625</ele>
        <time>2018-11-08T04:47:21.429Z</time>
      </trkpt>
      <trkpt lat="44.01505" lon="7.74575">
        <ele>1218.5194091797</ele>
        <time>2018-11-08T04:47:35.701Z</time>
      </trkpt>
      <trkpt lat="44.01492" lon="7.74607">
        <ele>1222.1551513672</ele>
        <time>2018-11-08T04:47:49.977Z</time>
      </trkpt>
      <trkpt lat="44.01492" lon="7.74606">
        <ele>1221.9031982422</ele>
        <time>2018-11-08T04:48:04.253Z</time>
      </trkpt>
      <trkpt lat="44.01475" lon="7.74633">
        <ele>1223.5549316406</ele>
        <time>2018-11-08T04:48:18.533Z</time>
      </trkpt>
      <trkpt lat="44.01463" lon="7.74644">
        <ele>1225.4146728516</ele>
        <time>2018-11-08T04:48:32.816Z</time>
      </trkpt>
      <trkpt lat="44.01449" lon="7.74649">
        <ele>1224.2188720703</ele>
        <time>2018-11-08T04:48:47.101Z</time>
      </trkpt>
      <trkpt lat="44.01448" lon="7.7465">
        <ele>1224.2020263672</ele>
        <time>2018-11-08T04:49:01.386Z</time>
      </trkpt>
      <trkpt lat="44.01434" lon="7.74655">
        <ele>1220.9937744141</ele>
        <time>2018-11-08T04:49:15.673Z</time>
      </trkpt>
      <trkpt lat="44.014" lon="7.74661">
        <ele>1204.5965576172</ele>
        <time>2018-11-08T04:49:29.966Z</time>
      </trkpt>
      <trkpt lat="44.01388" lon="7.74669">
        <ele>1200.9012451172</ele>
        <time>2018-11-08T04:49:44.261Z</time>
      </trkpt>
      <trkpt lat="44.01381" lon="7.74679">
        <ele>1198.0367431641</ele>
        <time>2018-11-08T04:49:58.558Z</time>
      </trkpt>
      <trkpt lat="44.01376" lon="7.74698">
        <ele>1199.8858642578</ele>
        <time>2018-11-08T04:50:12.857Z</time>
      </trkpt>
      <trkpt lat="44.0137" lon="7.74712">
        <ele>1204.8530273438</ele>
        <time>2018-11-08T04:50:27.158Z</time>
      </trkpt>
      <trkpt lat="44.01357" lon="7.7473">
        <ele>1209.7574462891</ele>
        <time>2018-11-08T04:50:41.462Z</time>
      </trkpt>
      <trkpt lat="44.01344" lon="7.74741">
        <ele>1208.0087890625</ele>
        <time>2018-11-08T04:50:55.768Z</time>
      </trkpt>
      <trkpt lat="44.0132" lon="7.74756">
        <ele>1206.3609619141</ele>
        <time>2018-11-08T04:51:10.078Z</time>
      </trkpt>
      <trkpt lat="44.01301" lon="7.74764">
        <ele>1198.0462646484</ele>
        <time>2018-11-08T04:51:24.392Z</time>
      </trkpt>
      <trkpt lat="44.01284" lon="7.74766">
        <ele>1192.5609130859</ele>
        <time>2018-11-08T04:51:38.708Z</time>
      </trkpt>
      <trkpt lat="44.01271" lon="7.74764">
        <ele>1190.91015625</ele>
        <time>2018-11-08T04:51:53.026Z</time>
      </trkpt>
      <trkpt lat="44.01266" lon="7.74765">
        <ele>1189.6864013672</ele>
        <time>2018-11-08T04:52:07.345Z</time>
      </trkpt>
      <trkpt lat="44.01246" lon="7.74786">
        <ele>1188.4626464844</ele>
        <time>2018-11-08T04:52:21.668Z</time>
      </trkpt>
      <trkpt lat="44.01232" lon="7.74799">
        <ele>1187.6372070312</ele>
        <time>2018-11-08T04:52:35.994Z</time>
      </trkpt>
      <trkpt lat="44.0122" lon="7.74803">
        <ele>1186.3894042969</ele>
        <time>2018-11-08T04:52:50.322Z</time>
      </trkpt>
      <trkpt lat="44.012" lon="7.74804">
        <ele>1182.6099853516</ele>
        <time>2018-11-08T04:53:04.653Z</time>
      </trkpt>
      <trkpt lat="44.01175" lon="7.74803">
        <ele>1178.6290283203</ele>
        <time>2018-11-08T04:53:18.988Z</time>
      </trkpt>
      <trkpt lat="44.01108" lon="7.74793">
        <ele>1160.6169433594</ele>
        <time>2018-11-08T04:53:33.334Z</time>
      </trkpt>
      <trkpt lat="44.01099" lon="7.74793">
        <ele>1159.8610839844</ele>
        <time>2018-11-08T04:53:47.681Z</time>
      </trkpt>
      <trkpt lat="44.01066" lon="7.74799">
        <ele>1157.4207763672</ele>
        <time>2018-11-08T04:54:02.034Z</time>
      </trkpt>
      <trkpt lat="44.01024" lon="7.74797">
        <ele>1149.9855957031</ele>
        <time>2018-11-08T04:54:16.393Z</time>
      </trkpt>
      <trkpt lat="44.00943" lon="7.748">
        <ele>1145.5330810547</ele>
        <time>2018-11-08T04:54:30.765Z</time>
      </trkpt>
      <trkpt lat="44.0091" lon="7.74804">
        <ele>1145.0197753906</ele>
        <time>2018-11-08T04:54:45.143Z</time>
      </trkpt>
      <trkpt lat="44.00867" lon="7.74821">
        <ele>1145</ele>
        <time>2018-11-08T04:54:59.528Z</time>
      </trkpt>
      <trkpt lat="44.00789" lon="7.74859">
        <ele>1156.0698242188</ele>
        <time>2018-11-08T04:55:13.926Z</time>
      </trkpt>
      <trkpt lat="44.00775" lon="7.74877">
        <ele>1153.0682373047</ele>
        <time>2018-11-08T04:55:28.327Z</time>
      </trkpt>
      <trkpt lat="44.0075" lon="7.74922">
        <ele>1142.4614257812</ele>
        <time>2018-11-08T04:55:42.735Z</time>
      </trkpt>
      <trkpt lat="44.00725" lon="7.74975">
        <ele>1130.8792724609</ele>
        <time>2018-11-08T04:55:57.150Z</time>
      </trkpt>
      <trkpt lat="44.00716" lon="7.74994">
        <ele>1129.1875</ele>
        <time>2018-11-08T04:56:11.568Z</time>
      </trkpt>
      <trkpt lat="44.00708" lon="7.75001">
        <ele>1129.4635009766</ele>
        <time>2018-11-08T04:56:25.987Z</time>
      </trkpt>
      <trkpt lat="44.00683" lon="7.75023">
        <ele>1127.1389160156</ele>
        <time>2018-11-08T04:56:40.411Z</time>
      </trkpt>
      <trkpt lat="44.00672" lon="7.75034">
        <ele>1124.3673095703</ele>
        <time>2018-11-08T04:56:54.837Z</time>
      </trkpt>
      <trkpt lat="44.00631" lon="7.75101">
        <ele>1122.6553955078</ele>
        <time>2018-11-08T04:57:09.273Z</time>
      </trkpt>
      <trkpt lat="44.00617" lon="7.75137">
        <ele>1117.2802734375</ele>
        <time>2018-11-08T04:57:23.714Z</time>
      </trkpt>
      <trkpt lat="44.006" lon="7.75185">
        <ele>1110.6221923828</ele>
        <time>2018-11-08T04:57:38.161Z</time>
      </trkpt>
      <trkpt lat="44.00581" lon="7.7522">
        <ele>1109.1463623047</ele>
        <time>2018-11-08T04:57:52.613Z</time>
      </trkpt>
      <trkpt lat="44.0055" lon="7.75262">
        <ele>1103.8894042969</ele>
        <time>2018-11-08T04:58:07.072Z</time>
      </trkpt>
      <trkpt lat="44.00535" lon="7.75282">
        <ele>1099.2680664062</ele>
        <time>2018-11-08T04:58:21.534Z</time>
      </trkpt>
      <trkpt lat="44.0052" lon="7.75294">
        <ele>1097.1385498047</ele>
        <time>2018-11-08T04:58:35.999Z</time>
      </trkpt>
      <trkpt lat="44.00508" lon="7.75303">
        <ele>1096.9945068359</ele>
        <time>2018-11-08T04:58:50.466Z</time>
      </trkpt>
      <trkpt lat="44.00506" lon="7.75311">
        <ele>1094.4749755859</ele>
        <time>2018-11-08T04:59:04.934Z</time>
      </trkpt>
      <trkpt lat="44.00507" lon="7.75318">
        <ele>1091.5114746094</ele>
        <time>2018-11-08T04:59:19.403Z</time>
      </trkpt>
      <trkpt lat="44.00512" lon="7.75323">
        <ele>1088.2120361328</ele>
        <time>2018-11-08T04:59:33.873Z</time>
      </trkpt>
      <trkpt lat="44.00521" lon="7.7532">
        <ele>1086.8802490234</ele>
        <time>2018-11-08T04:59:48.345Z</time>
      </trkpt>
      <trkpt lat="44.00556" lon="7.75301">
        <ele>1089.7056884766</ele>
        <time>2018-11-08T05:00:02.823Z</time>
      </trkpt>
      <trkpt lat="44.00577" lon="7.75282">
        <ele>1092.7072753906</ele>
        <time>2018-11-08T05:00:17.305Z</time>
      </trkpt>
      <trkpt lat="44.00615" lon="7.75253">
        <ele>1093.1934814453</ele>
        <time>2018-11-08T05:00:31.794Z</time>
      </trkpt>
      <trkpt lat="44.00663" lon="7.75223">
        <ele>1084.0953369141</ele>
        <time>2018-11-08T05:00:46.291Z</time>
      </trkpt>
      <trkpt lat="44.00686" lon="7.75199">
        <ele>1083.7833251953</ele>
        <time>2018-11-08T05:01:00.793Z</time>
      </trkpt>
      <trkpt lat="44.00705" lon="7.75178">
        <ele>1084.2823486328</ele>
        <time>2018-11-08T05:01:15.299Z</time>
      </trkpt>
      <trkpt lat="44.0072" lon="7.75166">
        <ele>1083.8010253906</ele>
        <time>2018-11-08T05:01:29.807Z</time>
      </trkpt>
      <trkpt lat="44.00772" lon="7.75137">
        <ele>1078.8850097656</ele>
        <time>2018-11-08T05:01:44.324Z</time>
      </trkpt>
      <trkpt lat="44.00779" lon="7.7514">
        <ele>1077.2247314453</ele>
        <time>2018-11-08T05:01:58.842Z</time>
      </trkpt>
      <trkpt lat="44.00781" lon="7.75145">
        <ele>1075.9289550781</ele>
        <time>2018-11-08T05:02:13.361Z</time>
      </trkpt>
      <trkpt lat="44.0078" lon="7.75152">
        <ele>1074.2971191406</ele>
        <time>2018-11-08T05:02:27.881Z</time>
      </trkpt>
      <trkpt lat="44.00763" lon="7.75172">
        <ele>1072.5003662109</ele>
        <time>2018-11-08T05:02:42.404Z</time>
      </trkpt>
      <trkpt lat="44.00744" lon="7.75203">
        <ele>1069.3928222656</ele>
        <time>2018-11-08T05:02:56.932Z</time>
      </trkpt>
      <trkpt lat="44.00721" lon="7.75236">
        <ele>1066.7172851562</ele>
        <time>2018-11-08T05:03:11.465Z</time>
      </trkpt>
      <trkpt lat="44.00703" lon="7.75263">
        <ele>1064.8680419922</ele>
        <time>2018-11-08T05:03:26.003Z</time>
      </trkpt>
      <trkpt lat="44.00676" lon="7.75319">
        <ele>1059.9404296875</ele>
        <time>2018-11-08T05:03:40.549Z</time>
      </trkpt>
      <trkpt lat="44.00663" lon="7.75342">
        <ele>1056.5032958984</ele>
        <time>2018-11-08T05:03:55.098Z</time>
      </trkpt>
      <trkpt lat="44.00562" lon="7.75434">
        <ele>1036.8654785156</ele>
        <time>2018-11-08T05:04:09.666Z</time>
      </trkpt>
      <trkpt lat="44.00546" lon="7.75441">
        <ele>1034.3338623047</ele>
        <time>2018-11-08T05:04:24.237Z</time>
      </trkpt>
      <trkpt lat="44.00529" lon="7.75435">
        <ele>1037.7315673828</ele>
        <time>2018-11-08T05:04:38.811Z</time>
      </trkpt>
      <trkpt lat="44.0051" lon="7.75424">
        <ele>1044.3009033203</ele>
        <time>2018-11-08T05:04:53.388Z</time>
      </trkpt>
      <trkpt lat="44.00503" lon="7.75422">
        <ele>1045.9206542969</ele>
        <time>2018-11-08T05:05:07.966Z</time>
      </trkpt>
      <trkpt lat="44.00491" lon="7.75426">
        <ele>1045.4886474609</ele>
        <time>2018-11-08T05:05:22.546Z</time>
      </trkpt>
      <trkpt lat="44.0046" lon="7.75445">
        <ele>1040.4193115234</ele>
        <time>2018-11-08T05:05:37.132Z</time>
      </trkpt>
      <trkpt lat="44.00438" lon="7.75462">
        <ele>1035.8980712891</ele>
        <time>2018-11-08T05:05:51.722Z</time>
      </trkpt>
      <trkpt lat="44.00424" lon="7.75469">
        <ele>1040.5173339844</ele>
        <time>2018-11-08T05:06:06.314Z</time>
      </trkpt>
      <trkpt lat="44.00391" lon="7.75482">
        <ele>1052.0177001953</ele>
        <time>2018-11-08T05:06:20.911Z</time>
      </trkpt>
      <trkpt lat="44.00381" lon="7.75492">
        <ele>1052.2575683594</ele>
        <time>2018-11-08T05:06:35.510Z</time>
      </trkpt>
      <trkpt lat="44.00376" lon="7.75504">
        <ele>1048.7916259766</ele>
        <time>2018-11-08T05:06:50.111Z</time>
      </trkpt>
      <trkpt lat="44.00376" lon="7.75505">
        <ele>1048.7299804688</ele>
        <time>2018-11-08T05:07:04.712Z</time>
      </trkpt>
      <trkpt lat="44.00373" lon="7.75511">
        <ele>1047.1488037109</ele>
        <time>2018-11-08T05:07:19.314Z</time>
      </trkpt>
      <trkpt lat="44.00365" lon="7.75533">
        <ele>1041.6092529297</ele>
        <time>2018-11-08T05:07:33.919Z</time>
      </trkpt>
      <trkpt lat="44.00359" lon="7.75545">
        <ele>1039.5936279297</ele>
        <time>2018-11-08T05:07:48.525Z</time>
      </trkpt>
      <trkpt lat="44.0034" lon="7.75564">
        <ele>1042.5289306641</ele>
        <time>2018-11-08T05:08:03.135Z</time>
      </trkpt>
      <trkpt lat="44.00332" lon="7.75574">
        <ele>1042.5817871094</ele>
        <time>2018-11-08T05:08:17.747Z</time>
      </trkpt>
      <trkpt lat="44.00323" lon="7.75589">
        <ele>1040.712890625</ele>
        <time>2018-11-08T05:08:32.361Z</time>
      </trkpt>
      <trkpt lat="44.00309" lon="7.75625">
        <ele>1030.9007568359</ele>
        <time>2018-11-08T05:08:46.980Z</time>
      </trkpt>
      <trkpt lat="44.00261" lon="7.75675">
        <ele>1026.4730224609</ele>
        <time>2018-11-08T05:09:01.609Z</time>
      </trkpt>
      <trkpt lat="44.0023" lon="7.75708">
        <ele>1019.4901733398</ele>
        <time>2018-11-08T05:09:16.244Z</time>
      </trkpt>
      <trkpt lat="44.00213" lon="7.7572">
        <ele>1019.1393432617</ele>
        <time>2018-11-08T05:09:30.882Z</time>
      </trkpt>
      <trkpt lat="44.00202" lon="7.75734">
        <ele>1015.7799072266</ele>
        <time>2018-11-08T05:09:45.522Z</time>
      </trkpt>
      <trkpt lat="44.00164" lon="7.75793">
        <ele>1006.6578369141</ele>
        <time>2018-11-08T05:10:00.171Z</time>
      </trkpt>
      <trkpt lat="44.00113" lon="7.75875">
        <ele>995.72003173828</ele>
        <time>2018-11-08T05:10:14.833Z</time>
      </trkpt>
      <trkpt lat="44.00093" lon="7.75905">
        <ele>985.45043945312</ele>
        <time>2018-11-08T05:10:29.500Z</time>
      </trkpt>
      <trkpt lat="44.00051" lon="7.7594">
        <ele>984.4541015625</ele>
        <time>2018-11-08T05:10:44.174Z</time>
      </trkpt>
      <trkpt lat="44.00003" lon="7.75986">
        <ele>968.41821289062</ele>
        <time>2018-11-08T05:10:58.858Z</time>
      </trkpt>
      <trkpt lat="43.99993" lon="7.75991">
        <ele>968.29821777344</ele>
        <time>2018-11-08T05:11:13.543Z</time>
      </trkpt>
      <trkpt lat="43.99971" lon="7.75998">
        <ele>969.76196289062</ele>
        <time>2018-11-08T05:11:28.232Z</time>
      </trkpt>
      <trkpt lat="43.99938" lon="7.76013">
        <ele>967.95892333984</ele>
        <time>2018-11-08T05:11:42.927Z</time>
      </trkpt>
      <trkpt lat="43.99913" lon="7.76029">
        <ele>958.85241699219</ele>
        <time>2018-11-08T05:11:57.626Z</time>
      </trkpt>
      <trkpt lat="43.9988" lon="7.76054">
        <ele>949.92199707031</ele>
        <time>2018-11-08T05:12:12.331Z</time>
      </trkpt>
      <trkpt lat="43.99861" lon="7.76059">
        <ele>951.81768798828</ele>
        <time>2018-11-08T05:12:27.039Z</time>
      </trkpt>
      <trkpt lat="43.99844" lon="7.76063">
        <ele>943.04180908203</ele>
        <time>2018-11-08T05:12:41.750Z</time>
      </trkpt>
      <trkpt lat="43.99831" lon="7.76072">
        <ele>936.36737060547</ele>
        <time>2018-11-08T05:12:56.463Z</time>
      </trkpt>
      <trkpt lat="43.99815" lon="7.76086">
        <ele>932.26403808594</ele>
        <time>2018-11-08T05:13:11.179Z</time>
      </trkpt>
      <trkpt lat="43.99797" lon="7.76098">
        <ele>922.68115234375</ele>
        <time>2018-11-08T05:13:25.898Z</time>
      </trkpt>
      <trkpt lat="43.99784" lon="7.76103">
        <ele>919.77392578125</ele>
        <time>2018-11-08T05:13:40.620Z</time>
      </trkpt>
      <trkpt lat="43.99774" lon="7.76105">
        <ele>920.81793212891</ele>
        <time>2018-11-08T05:13:55.343Z</time>
      </trkpt>
      <trkpt lat="43.9977" lon="7.76093">
        <ele>920.72192382812</ele>
        <time>2018-11-08T05:14:10.068Z</time>
      </trkpt>
      <trkpt lat="43.99769" lon="7.76075">
        <ele>921.45989990234</ele>
        <time>2018-11-08T05:14:24.795Z</time>
      </trkpt>
      <trkpt lat="43.99776" lon="7.75978">
        <ele>929.86547851562</ele>
        <time>2018-11-08T05:14:39.533Z</time>
      </trkpt>
      <trkpt lat="43.99777" lon="7.75923">
        <ele>931.06823730469</ele>
        <time>2018-11-08T05:14:54.277Z</time>
      </trkpt>
      <trkpt lat="43.99775" lon="7.75843">
        <ele>925.45300292969</ele>
        <time>2018-11-08T05:15:09.031Z</time>
      </trkpt>
      <trkpt lat="43.99775" lon="7.75843">
        <ele>925.43103027344</ele>
        <time>2018-11-08T05:15:23.785Z</time>
      </trkpt>
      <trkpt lat="43.99775" lon="7.75835">
        <ele>924.88513183594</ele>
        <time>2018-11-08T05:15:38.540Z</time>
      </trkpt>
      <trkpt lat="43.99776" lon="7.75756">
        <ele>921.81359863281</ele>
        <time>2018-11-08T05:15:53.304Z</time>
      </trkpt>
      <trkpt lat="43.99771" lon="7.75723">
        <ele>921.91595458984</ele>
        <time>2018-11-08T05:16:08.072Z</time>
      </trkpt>
      <trkpt lat="43.99757" lon="7.75672">
        <ele>920.88409423828</ele>
        <time>2018-11-08T05:16:22.846Z</time>
      </trkpt>
      <trkpt lat="43.99752" lon="7.75656">
        <ele>922.51025390625</ele>
        <time>2018-11-08T05:16:37.622Z</time>
      </trkpt>
      <trkpt lat="43.99743" lon="7.75649">
        <ele>920.99853515625</ele>
        <time>2018-11-08T05:16:52.400Z</time>
      </trkpt>
      <trkpt lat="43.99736" lon="7.7564">
        <ele>920.59057617188</ele>
        <time>2018-11-08T05:17:07.179Z</time>
      </trkpt>
      <trkpt lat="43.99725" lon="7.75633">
        <ele>918.40698242188</ele>
        <time>2018-11-08T05:17:21.960Z</time>
      </trkpt>
      <trkpt lat="43.99706" lon="7.75628">
        <ele>913.10382080078</ele>
        <time>2018-11-08T05:17:36.744Z</time>
      </trkpt>
      <trkpt lat="43.99698" lon="7.75627">
        <ele>910.63226318359</ele>
        <time>2018-11-08T05:17:51.529Z</time>
      </trkpt>
      <trkpt lat="43.99691" lon="7.75618">
        <ele>910.14050292969</ele>
        <time>2018-11-08T05:18:06.316Z</time>
      </trkpt>
      <trkpt lat="43.99682" lon="7.75602">
        <ele>909.38458251953</ele>
        <time>2018-11-08T05:18:21.105Z</time>
      </trkpt>
      <trkpt lat="43.99668" lon="7.75573">
        <ele>906.81719970703</ele>
        <time>2018-11-08T05:18:35.898Z</time>
      </trkpt>
      <trkpt lat="43.99658" lon="7.75547">
        <ele>903.27905273438</ele>
        <time>2018-11-08T05:18:50.695Z</time>
      </trkpt>
      <trkpt lat="43.99651" lon="7.75525">
        <ele>900.42352294922</ele>
        <time>2018-11-08T05:19:05.495Z</time>
      </trkpt>
      <trkpt lat="43.99648" lon="7.7551">
        <ele>899.19976806641</ele>
        <time>2018-11-08T05:19:20.296Z</time>
      </trkpt>
      <trkpt lat="43.99646" lon="7.75487">
        <ele>898.38391113281</ele>
        <time>2018-11-08T05:19:35.100Z</time>
      </trkpt>
      <trkpt lat="43.99648" lon="7.75415">
        <ele>894.98260498047</ele>
        <time>2018-11-08T05:19:49.912Z</time>
      </trkpt>
      <trkpt lat="43.99643" lon="7.75367">
        <ele>893.74176025391</ele>
        <time>2018-11-08T05:20:04.730Z</time>
      </trkpt>
      <trkpt lat="43.99637" lon="7.75351">
        <ele>891.53411865234</ele>
        <time>2018-11-08T05:20:19.550Z</time>
      </trkpt>
      <trkpt lat="43.99633" lon="7.75323">
        <ele>889.23052978516</ele>
        <time>2018-11-08T05:20:34.373Z</time>
      </trkpt>
      <trkpt lat="43.99622" lon="7.75269">
        <ele>883.99938964844</ele>
        <time>2018-11-08T05:20:49.203Z</time>
      </trkpt>
      <trkpt lat="43.99617" lon="7.75245">
        <ele>881.18041992188</ele>
        <time>2018-11-08T05:21:04.036Z</time>
      </trkpt>
      <trkpt lat="43.99614" lon="7.75233">
        <ele>878.58880615234</ele>
        <time>2018-11-08T05:21:18.870Z</time>
      </trkpt>
      <trkpt lat="43.99609" lon="7.7522">
        <ele>875.27734375</ele>
        <time>2018-11-08T05:21:33.706Z</time>
      </trkpt>
      <trkpt lat="43.99603" lon="7.75215">
        <ele>871.62426757812</ele>
        <time>2018-11-08T05:21:48.543Z</time>
      </trkpt>
      <trkpt lat="43.99591" lon="7.75229">
        <ele>867.44897460938</ele>
        <time>2018-11-08T05:22:03.382Z</time>
      </trkpt>
      <trkpt lat="43.99577" lon="7.75253">
        <ele>862.23883056641</ele>
        <time>2018-11-08T05:22:18.225Z</time>
      </trkpt>
      <trkpt lat="43.99569" lon="7.75286">
        <ele>859.3701171875</ele>
        <time>2018-11-08T05:22:33.072Z</time>
      </trkpt>
      <trkpt lat="43.99567" lon="7.75315">
        <ele>861.20593261719</ele>
        <time>2018-11-08T05:22:47.922Z</time>
      </trkpt>
      <trkpt lat="43.99569" lon="7.75345">
        <ele>865.05572509766</ele>
        <time>2018-11-08T05:23:02.776Z</time>
      </trkpt>
      <trkpt lat="43.99571" lon="7.75379">
        <ele>865.60766601562</ele>
        <time>2018-11-08T05:23:17.634Z</time>
      </trkpt>
      <trkpt lat="43.99571" lon="7.75402">
        <ele>866.43359375</ele>
        <time>2018-11-08T05:23:32.495Z</time>
      </trkpt>
      <trkpt lat="43.99572" lon="7.75439">
        <ele>867.76153564453</ele>
        <time>2018-11-08T05:23:47.360Z</time>
      </trkpt>
      <trkpt lat="43.99557" lon="7.75483">
        <ele>860.02178955078</ele>
        <time>2018-11-08T05:24:02.230Z</time>
      </trkpt>
      <trkpt lat="43.99554" lon="7.75495">
        <ele>858.04211425781</ele>
        <time>2018-11-08T05:24:17.102Z</time>
      </trkpt>
      <trkpt lat="43.99551" lon="7.75502">
        <ele>856.30242919922</ele>
        <time>2018-11-08T05:24:31.975Z</time>
      </trkpt>
      <trkpt lat="43.99552" lon="7.75517">
        <ele>855.89770507812</ele>
        <time>2018-11-08T05:24:46.850Z</time>
      </trkpt>
      <trkpt lat="43.99557" lon="7.75554">
        <ele>856.44177246094</ele>
        <time>2018-11-08T05:25:01.729Z</time>
      </trkpt>
      <trkpt lat="43.99564" lon="7.75597">
        <ele>856.98803710938</ele>
        <time>2018-11-08T05:25:16.613Z</time>
      </trkpt>
      <trkpt lat="43.99572" lon="7.75629">
        <ele>855.93218994141</ele>
        <time>2018-11-08T05:25:31.501Z</time>
      </trkpt>
      <trkpt lat="43.99579" lon="7.75668">
        <ele>856.26745605469</ele>
        <time>2018-11-08T05:25:46.394Z</time>
      </trkpt>
      <trkpt lat="43.99588" lon="7.75714">
        <ele>852.98779296875</ele>
        <time>2018-11-08T05:26:01.292Z</time>
      </trkpt>
      <trkpt lat="43.99591" lon="7.75754">
        <ele>849.25518798828</ele>
        <time>2018-11-08T05:26:16.195Z</time>
      </trkpt>
      <trkpt lat="43.99593" lon="7.75802">
        <ele>845.77575683594</ele>
        <time>2018-11-08T05:26:31.103Z</time>
      </trkpt>
      <trkpt lat="43.99595" lon="7.75832">
        <ele>843.71655273438</ele>
        <time>2018-11-08T05:26:46.015Z</time>
      </trkpt>
      <trkpt lat="43.99595" lon="7.75843">
        <ele>842.98132324219</ele>
        <time>2018-11-08T05:27:00.928Z</time>
      </trkpt>
      <trkpt lat="43.99596" lon="7.75869">
        <ele>842.33343505859</ele>
        <time>2018-11-08T05:27:15.844Z</time>
      </trkpt>
      <trkpt lat="43.99595" lon="7.75882">
        <ele>841.57751464844</ele>
        <time>2018-11-08T05:27:30.762Z</time>
      </trkpt>
      <trkpt lat="43.99586" lon="7.75916">
        <ele>836.9326171875</ele>
        <time>2018-11-08T05:27:45.684Z</time>
      </trkpt>
      <trkpt lat="43.99584" lon="7.75922">
        <ele>835.95483398438</ele>
        <time>2018-11-08T05:28:00.606Z</time>
      </trkpt>
      <trkpt lat="43.99584" lon="7.75922">
        <ele>835.92742919922</ele>
        <time>2018-11-08T05:28:15.529Z</time>
      </trkpt>
      <trkpt lat="43.99581" lon="7.75935">
        <ele>834.66479492188</ele>
        <time>2018-11-08T05:28:30.453Z</time>
      </trkpt>
      <trkpt lat="43.99576" lon="7.7596">
        <ele>832.68511962891</ele>
        <time>2018-11-08T05:28:45.380Z</time>
      </trkpt>
      <trkpt lat="43.99575" lon="7.75982">
        <ele>831.95397949219</ele>
        <time>2018-11-08T05:29:00.310Z</time>
      </trkpt>
      <trkpt lat="43.99579" lon="7.76009">
        <ele>832.865234375</ele>
        <time>2018-11-08T05:29:15.243Z</time>
      </trkpt>
      <trkpt lat="43.99581" lon="7.76033">
        <ele>833.84906005859</ele>
        <time>2018-11-08T05:29:30.179Z</time>
      </trkpt>
      <trkpt lat="43.99574" lon="7.76077">
        <ele>831.37530517578</ele>
        <time>2018-11-08T05:29:45.120Z</time>
      </trkpt>
      <trkpt lat="43.99571" lon="7.76096">
        <ele>830.33038330078</ele>
        <time>2018-11-08T05:30:00.063Z</time>
      </trkpt>
      <trkpt lat="43.9957" lon="7.7612">
        <ele>830.53430175781</ele>
        <time>2018-11-08T05:30:15.009Z</time>
      </trkpt>
      <trkpt lat="43.99566" lon="7.76199">
        <ele>831.93145751953</ele>
        <time>2018-11-08T05:30:29.964Z</time>
      </trkpt>
      <trkpt lat="43.99561" lon="7.76209">
        <ele>831.01507568359</ele>
        <time>2018-11-08T05:30:44.920Z</time>
      </trkpt>
      <trkpt lat="43.99556" lon="7.76216">
        <ele>828.97540283203</ele>
        <time>2018-11-08T05:30:59.877Z</time>
      </trkpt>
      <trkpt lat="43.99552" lon="7.76218">
        <ele>827.12774658203</ele>
        <time>2018-11-08T05:31:14.835Z</time>
      </trkpt>
      <trkpt lat="43.99547" lon="7.76215">
        <ele>824.48815917969</ele>
        <time>2018-11-08T05:31:29.794Z</time>
      </trkpt>
      <trkpt lat="43.99546" lon="7.76198">
        <ele>822.97637939453</ele>
        <time>2018-11-08T05:31:44.755Z</time>
      </trkpt>
      <trkpt lat="43.99547" lon="7.76181">
        <ele>821.5771484375</ele>
        <time>2018-11-08T05:31:59.718Z</time>
      </trkpt>
      <trkpt lat="43.99542" lon="7.76066">
        <ele>819.60528564453</ele>
        <time>2018-11-08T05:32:14.694Z</time>
      </trkpt>
      <trkpt lat="43.99539" lon="7.76011">
        <ele>818.97155761719</ele>
        <time>2018-11-08T05:32:29.677Z</time>
      </trkpt>
      <trkpt lat="43.99536" lon="7.75987">
        <ele>818.26428222656</ele>
        <time>2018-11-08T05:32:44.662Z</time>
      </trkpt>
      <trkpt lat="43.99535" lon="7.75985">
        <ele>818.09729003906</ele>
        <time>2018-11-08T05:32:59.648Z</time>
      </trkpt>
      <trkpt lat="43.99535" lon="7.75985">
        <ele>818.07147216797</ele>
        <time>2018-11-08T05:33:14.634Z</time>
      </trkpt>
      <trkpt lat="43.99524" lon="7.75953">
        <ele>814.97253417969</ele>
        <time>2018-11-08T05:33:29.624Z</time>
      </trkpt>
      <trkpt lat="43.99517" lon="7.75945">
        <ele>813.23284912109</ele>
        <time>2018-11-08T05:33:44.615Z</time>
      </trkpt>
      <trkpt lat="43.99502" lon="7.75934">
        <ele>809.35748291016</ele>
        <time>2018-11-08T05:33:59.609Z</time>
      </trkpt>
      <trkpt lat="43.99486" lon="7.75926">
        <ele>805.13421630859</ele>
        <time>2018-11-08T05:34:14.606Z</time>
      </trkpt>
      <trkpt lat="43.99481" lon="7.75921">
        <ele>803.87438964844</ele>
        <time>2018-11-08T05:34:29.604Z</time>
      </trkpt>
      <trkpt lat="43.9948" lon="7.75902">
        <ele>803.82635498047</ele>
        <time>2018-11-08T05:34:44.604Z</time>
      </trkpt>
      <trkpt lat="43.99479" lon="7.75883">
        <ele>803.77838134766</ele>
        <time>2018-11-08T05:34:59.606Z</time>
      </trkpt>
      <trkpt lat="43.99477" lon="7.75872">
        <ele>803.43493652344</ele>
        <time>2018-11-08T05:35:14.609Z</time>
      </trkpt>
      <trkpt lat="43.99474" lon="7.75867">
        <ele>802.81103515625</ele>
        <time>2018-11-08T05:35:29.613Z</time>
      </trkpt>
      <trkpt lat="43.99468" lon="7.75866">
        <ele>800.94683837891</ele>
        <time>2018-11-08T05:35:44.618Z</time>
      </trkpt>
      <trkpt lat="43.99465" lon="7.75867">
        <ele>800.10699462891</ele>
        <time>2018-11-08T05:35:59.624Z</time>
      </trkpt>
      <trkpt lat="43.99459" lon="7.75875">
        <ele>798.35528564453</ele>
        <time>2018-11-08T05:36:14.631Z</time>
      </trkpt>
      <trkpt lat="43.9946" lon="7.75887">
        <ele>798.48724365234</ele>
        <time>2018-11-08T05:36:29.639Z</time>
      </trkpt>
      <trkpt lat="43.9946" lon="7.75916">
        <ele>798.13934326172</ele>
        <time>2018-11-08T05:36:44.651Z</time>
      </trkpt>
      <trkpt lat="43.99463" lon="7.75932">
        <ele>798.64331054688</ele>
        <time>2018-11-08T05:36:59.665Z</time>
      </trkpt>
      <trkpt lat="43.9947" lon="7.75947">
        <ele>800.21502685547</ele>
        <time>2018-11-08T05:37:14.681Z</time>
      </trkpt>
      <trkpt lat="43.99471" lon="7.75965">
        <ele>800.4091796875</ele>
        <time>2018-11-08T05:37:29.699Z</time>
      </trkpt>
      <trkpt lat="43.99467" lon="7.7597">
        <ele>799.40130615234</ele>
        <time>2018-11-08T05:37:44.718Z</time>
      </trkpt>
      <trkpt lat="43.99461" lon="7.75973">
        <ele>797.88958740234</ele>
        <time>2018-11-08T05:37:59.738Z</time>
      </trkpt>
      <trkpt lat="43.99458" lon="7.75973">
        <ele>797.13372802734</ele>
        <time>2018-11-08T05:38:14.758Z</time>
      </trkpt>
      <trkpt lat="43.99455" lon="7.75971">
        <ele>796.37780761719</ele>
        <time>2018-11-08T05:38:29.779Z</time>
      </trkpt>
      <trkpt lat="43.99452" lon="7.75965">
        <ele>795.62194824219</ele>
        <time>2018-11-08T05:38:44.801Z</time>
      </trkpt>
      <trkpt lat="43.99447" lon="7.75941">
        <ele>794.36218261719</ele>
        <time>2018-11-08T05:38:59.825Z</time>
      </trkpt>
      <trkpt lat="43.99439" lon="7.75939">
        <ele>792.06646728516</ele>
        <time>2018-11-08T05:39:14.851Z</time>
      </trkpt>
      <trkpt lat="43.99432" lon="7.75942">
        <ele>789.546875</ele>
        <time>2018-11-08T05:39:29.878Z</time>
      </trkpt>
      <trkpt lat="43.99426" lon="7.7595">
        <ele>787.38720703125</ele>
        <time>2018-11-08T05:39:44.906Z</time>
      </trkpt>
      <trkpt lat="43.99407" lon="7.75982">
        <ele>780.84216308594</ele>
        <time>2018-11-08T05:39:59.939Z</time>
      </trkpt>
      <trkpt lat="43.994" lon="7.75999">
        <ele>778.89849853516</ele>
        <time>2018-11-08T05:40:14.974Z</time>
      </trkpt>
      <trkpt lat="43.99394" lon="7.76017">
        <ele>777.16296386719</ele>
        <time>2018-11-08T05:40:30.012Z</time>
      </trkpt>
      <trkpt lat="43.99391" lon="7.76027">
        <ele>776.27508544922</ele>
        <time>2018-11-08T05:40:45.051Z</time>
      </trkpt>
      <trkpt lat="43.99392" lon="7.76034">
        <ele>776.69506835938</ele>
        <time>2018-11-08T05:41:00.091Z</time>
      </trkpt>
      <trkpt lat="43.99397" lon="7.76056">
        <ele>779.47436523438</ele>
        <time>2018-11-08T05:41:15.133Z</time>
      </trkpt>
      <trkpt lat="43.99397" lon="7.76056">
        <ele>779.51239013672</ele>
        <time>2018-11-08T05:41:30.175Z</time>
      </trkpt>
      <trkpt lat="43.99403" lon="7.7608">
        <ele>782.79577636719</ele>
        <time>2018-11-08T05:41:45.220Z</time>
      </trkpt>
      <trkpt lat="43.9941" lon="7.76124">
        <ele>783.53936767578</ele>
        <time>2018-11-08T05:42:00.270Z</time>
      </trkpt>
      <trkpt lat="43.99423" lon="7.76193">
        <ele>785.41729736328</ele>
        <time>2018-11-08T05:42:15.329Z</time>
      </trkpt>
      <trkpt lat="43.99423" lon="7.76202">
        <ele>784.99340820312</ele>
        <time>2018-11-08T05:42:30.389Z</time>
      </trkpt>
      <trkpt lat="43.99423" lon="7.76202">
        <ele>784.97985839844</ele>
        <time>2018-11-08T05:42:45.449Z</time>
      </trkpt>
      <trkpt lat="43.99421" lon="7.76231">
        <ele>783.64154052734</ele>
        <time>2018-11-08T05:43:00.512Z</time>
      </trkpt>
      <trkpt lat="43.99417" lon="7.76245">
        <ele>782.32177734375</ele>
        <time>2018-11-08T05:43:15.577Z</time>
      </trkpt>
      <trkpt lat="43.99404" lon="7.76219">
        <ele>780.60607910156</ele>
        <time>2018-11-08T05:43:30.645Z</time>
      </trkpt>
      <trkpt lat="43.99397" lon="7.76196">
        <ele>780.00616455078</ele>
        <time>2018-11-08T05:43:45.716Z</time>
      </trkpt>
      <trkpt lat="43.99385" lon="7.76157">
        <ele>778.11981201172</ele>
        <time>2018-11-08T05:44:00.792Z</time>
      </trkpt>
      <trkpt lat="43.99373" lon="7.76123">
        <ele>774.83801269531</ele>
        <time>2018-11-08T05:44:15.873Z</time>
      </trkpt>
      <trkpt lat="43.99373" lon="7.76123">
        <ele>774.81274414062</ele>
        <time>2018-11-08T05:44:30.954Z</time>
      </trkpt>
      <trkpt lat="43.99351" lon="7.76062">
        <ele>766.02014160156</ele>
        <time>2018-11-08T05:44:46.042Z</time>
      </trkpt>
      <trkpt lat="43.99341" lon="7.76044">
        <ele>760.40509033203</ele>
        <time>2018-11-08T05:45:01.133Z</time>
      </trkpt>
      <trkpt lat="43.99337" lon="7.76043">
        <ele>758.60540771484</ele>
        <time>2018-11-08T05:45:16.225Z</time>
      </trkpt>
      <trkpt lat="43.99331" lon="7.76048">
        <ele>756.37377929688</ele>
        <time>2018-11-08T05:45:31.318Z</time>
      </trkpt>
      <trkpt lat="43.99329" lon="7.76054">
        <ele>755.94183349609</ele>
        <time>2018-11-08T05:45:46.412Z</time>
      </trkpt>
      <trkpt lat="43.99325" lon="7.76116">
        <ele>754.92572021484</ele>
        <time>2018-11-08T05:46:01.513Z</time>
      </trkpt>
      <trkpt lat="43.99321" lon="7.76172">
        <ele>755.98406982422</ele>
        <time>2018-11-08T05:46:16.620Z</time>
      </trkpt>
      <trkpt lat="43.99322" lon="7.76203">
        <ele>755.32415771484</ele>
        <time>2018-11-08T05:46:31.731Z</time>
      </trkpt>
      <trkpt lat="43.99329" lon="7.76262">
        <ele>758.31481933594</ele>
        <time>2018-11-08T05:46:46.849Z</time>
      </trkpt>
      <trkpt lat="43.99329" lon="7.76295">
        <ele>756.33514404297</ele>
        <time>2018-11-08T05:47:01.971Z</time>
      </trkpt>
      <trkpt lat="43.99325" lon="7.76333">
        <ele>754.22998046875</ele>
        <time>2018-11-08T05:47:17.097Z</time>
      </trkpt>
      <trkpt lat="43.99325" lon="7.76342">
        <ele>754.82794189453</ele>
        <time>2018-11-08T05:47:32.224Z</time>
      </trkpt>
      <trkpt lat="43.99325" lon="7.76342">
        <ele>754.86395263672</ele>
        <time>2018-11-08T05:47:47.351Z</time>
      </trkpt>
      <trkpt lat="43.99326" lon="7.76353">
        <ele>756.20178222656</ele>
        <time>2018-11-08T05:48:02.479Z</time>
      </trkpt>
      <trkpt lat="43.99321" lon="7.7639">
        <ele>757.32098388672</ele>
        <time>2018-11-08T05:48:17.612Z</time>
      </trkpt>
      <trkpt lat="43.99302" lon="7.76446">
        <ele>751.48077392578</ele>
        <time>2018-11-08T05:48:32.752Z</time>
      </trkpt>
      <trkpt lat="43.99281" lon="7.76481">
        <ele>745.30773925781</ele>
        <time>2018-11-08T05:48:47.897Z</time>
      </trkpt>
      <trkpt lat="43.99241" lon="7.76519">
        <ele>737.00775146484</ele>
        <time>2018-11-08T05:49:03.050Z</time>
      </trkpt>
      <trkpt lat="43.99206" lon="7.76539">
        <ele>728.78485107422</ele>
        <time>2018-11-08T05:49:18.209Z</time>
      </trkpt>
      <trkpt lat="43.99179" lon="7.76557">
        <ele>722.45654296875</ele>
        <time>2018-11-08T05:49:33.373Z</time>
      </trkpt>
      <trkpt lat="43.99168" lon="7.76571">
        <ele>721.86486816406</ele>
        <time>2018-11-08T05:49:48.539Z</time>
      </trkpt>
      <trkpt lat="43.99149" lon="7.76616">
        <ele>723.67279052734</ele>
        <time>2018-11-08T05:50:03.711Z</time>
      </trkpt>
      <trkpt lat="43.99122" lon="7.76696">
        <ele>726.82653808594</ele>
        <time>2018-11-08T05:50:18.893Z</time>
      </trkpt>
      <trkpt lat="43.9911" lon="7.76722">
        <ele>726.82653808594</ele>
        <time>2018-11-08T05:50:34.079Z</time>
      </trkpt>
      <trkpt lat="43.99089" lon="7.76747">
        <ele>724.55035400391</ele>
        <time>2018-11-08T05:50:49.269Z</time>
      </trkpt>
      <trkpt lat="43.99073" lon="7.76768">
        <ele>719.64587402344</ele>
        <time>2018-11-08T05:51:04.463Z</time>
      </trkpt>
      <trkpt lat="43.99056" lon="7.76801">
        <ele>714.80682373047</ele>
        <time>2018-11-08T05:51:19.662Z</time>
      </trkpt>
      <trkpt lat="43.99052" lon="7.76809">
        <ele>714.23828125</ele>
        <time>2018-11-08T05:51:34.862Z</time>
      </trkpt>
      <trkpt lat="43.99052" lon="7.76809">
        <ele>714.22106933594</ele>
        <time>2018-11-08T05:51:50.062Z</time>
      </trkpt>
      <trkpt lat="43.9904" lon="7.76829">
        <ele>712.69519042969</ele>
        <time>2018-11-08T05:52:05.265Z</time>
      </trkpt>
      <trkpt lat="43.99037" lon="7.76838">
        <ele>712.57611083984</ele>
        <time>2018-11-08T05:52:20.469Z</time>
      </trkpt>
      <trkpt lat="43.99034" lon="7.76851">
        <ele>707.80932617188</ele>
        <time>2018-11-08T05:52:35.674Z</time>
      </trkpt>
      <trkpt lat="43.99032" lon="7.76867">
        <ele>705.57769775391</ele>
        <time>2018-11-08T05:52:50.881Z</time>
      </trkpt>
      <trkpt lat="43.99032" lon="7.76874">
        <ele>704.65386962891</ele>
        <time>2018-11-08T05:53:06.089Z</time>
      </trkpt>
      <trkpt lat="43.99037" lon="7.76881">
        <ele>704.02996826172</ele>
        <time>2018-11-08T05:53:21.298Z</time>
      </trkpt>
      <trkpt lat="43.99048" lon="7.76884">
        <ele>704.29388427734</ele>
        <time>2018-11-08T05:53:36.509Z</time>
      </trkpt>
      <trkpt lat="43.99107" lon="7.76883">
        <ele>716.83538818359</ele>
        <time>2018-11-08T05:53:51.729Z</time>
      </trkpt>
      <trkpt lat="43.99118" lon="7.76882">
        <ele>718.86145019531</ele>
        <time>2018-11-08T05:54:06.951Z</time>
      </trkpt>
      <trkpt lat="43.9913" lon="7.76884">
        <ele>719.70135498047</ele>
        <time>2018-11-08T05:54:22.175Z</time>
      </trkpt>
      <trkpt lat="43.99148" lon="7.76901">
        <ele>715.75396728516</ele>
        <time>2018-11-08T05:54:37.403Z</time>
      </trkpt>
      <trkpt lat="43.99159" lon="7.76909">
        <ele>714.23022460938</ele>
        <time>2018-11-08T05:54:52.633Z</time>
      </trkpt>
      <trkpt lat="43.99185" lon="7.7692">
        <ele>713.57037353516</ele>
        <time>2018-11-08T05:55:07.867Z</time>
      </trkpt>
      <trkpt lat="43.99194" lon="7.76934">
        <ele>708.15850830078</ele>
        <time>2018-11-08T05:55:23.103Z</time>
      </trkpt>
      <trkpt lat="43.99216" lon="7.76976">
        <ele>691.72125244141</ele>
        <time>2018-11-08T05:55:38.345Z</time>
      </trkpt>
      <trkpt lat="43.99219" lon="7.76982">
        <ele>689.34564208984</ele>
        <time>2018-11-08T05:55:53.588Z</time>
      </trkpt>
      <trkpt lat="43.99224" lon="7.76983">
        <ele>689.81353759766</ele>
        <time>2018-11-08T05:56:08.832Z</time>
      </trkpt>
      <trkpt lat="43.99232" lon="7.76981">
        <ele>692.33312988281</ele>
        <time>2018-11-08T05:56:24.077Z</time>
      </trkpt>
      <trkpt lat="43.99244" lon="7.76969">
        <ele>699.70874023438</ele>
        <time>2018-11-08T05:56:39.324Z</time>
      </trkpt>
      <trkpt lat="43.99262" lon="7.76949">
        <ele>706.16363525391</ele>
        <time>2018-11-08T05:56:54.575Z</time>
      </trkpt>
      <trkpt lat="43.99268" lon="7.76939">
        <ele>709.35510253906</ele>
        <time>2018-11-08T05:57:09.828Z</time>
      </trkpt>
      <trkpt lat="43.99272" lon="7.76927">
        <ele>713.146484375</ele>
        <time>2018-11-08T05:57:25.082Z</time>
      </trkpt>
      <trkpt lat="43.99286" lon="7.76887">
        <ele>722.54595947266</ele>
        <time>2018-11-08T05:57:40.341Z</time>
      </trkpt>
      <trkpt lat="43.9931" lon="7.76843">
        <ele>725.23718261719</ele>
        <time>2018-11-08T05:57:55.607Z</time>
      </trkpt>
      <trkpt lat="43.99337" lon="7.76801">
        <ele>724.27423095703</ele>
        <time>2018-11-08T05:58:10.879Z</time>
      </trkpt>
      <trkpt lat="43.99346" lon="7.76789">
        <ele>722.65447998047</ele>
        <time>2018-11-08T05:58:26.153Z</time>
      </trkpt>
      <trkpt lat="43.9936" lon="7.76775">
        <ele>718.91802978516</ele>
        <time>2018-11-08T05:58:41.430Z</time>
      </trkpt>
      <trkpt lat="43.99392" lon="7.76766">
        <ele>712.95471191406</ele>
        <time>2018-11-08T05:58:56.712Z</time>
      </trkpt>
      <trkpt lat="43.99404" lon="7.7676">
        <ele>713.17071533203</ele>
        <time>2018-11-08T05:59:11.996Z</time>
      </trkpt>
      <trkpt lat="43.99412" lon="7.76759">
        <ele>711.76690673828</ele>
        <time>2018-11-08T05:59:27.281Z</time>
      </trkpt>
      <trkpt lat="43.99417" lon="7.7676">
        <ele>710.05120849609</ele>
        <time>2018-11-08T05:59:42.567Z</time>
      </trkpt>
      <trkpt lat="43.99422" lon="7.76765">
        <ele>706.27185058594</ele>
        <time>2018-11-08T05:59:57.854Z</time>
      </trkpt>
      <trkpt lat="43.99429" lon="7.76778">
        <ele>697.88525390625</ele>
        <time>2018-11-08T06:00:13.143Z</time>
      </trkpt>
      <trkpt lat="43.99438" lon="7.76788">
        <ele>690.56646728516</ele>
        <time>2018-11-08T06:00:28.434Z</time>
      </trkpt>
      <trkpt lat="43.99453" lon="7.76797">
        <ele>686.15570068359</ele>
        <time>2018-11-08T06:00:43.728Z</time>
      </trkpt>
      <trkpt lat="43.9947" lon="7.76799">
        <ele>686.75561523438</ele>
        <time>2018-11-08T06:00:59.024Z</time>
      </trkpt>
      <trkpt lat="43.9948" lon="7.76804">
        <ele>685.13592529297</ele>
        <time>2018-11-08T06:01:14.322Z</time>
      </trkpt>
      <trkpt lat="43.99493" lon="7.76816">
        <ele>680.19274902344</ele>
        <time>2018-11-08T06:01:29.623Z</time>
      </trkpt>
      <trkpt lat="43.99508" lon="7.76828">
        <ele>675.44152832031</ele>
        <time>2018-11-08T06:01:44.926Z</time>
      </trkpt>
      <trkpt lat="43.99522" lon="7.76832">
        <ele>674.75622558594</ele>
        <time>2018-11-08T06:02:00.232Z</time>
      </trkpt>
      <trkpt lat="43.99537" lon="7.76832">
        <ele>674.63970947266</ele>
        <time>2018-11-08T06:02:15.540Z</time>
      </trkpt>
      <trkpt lat="43.99557" lon="7.76827">
        <ele>676.55938720703</ele>
        <time>2018-11-08T06:02:30.851Z</time>
      </trkpt>
      <trkpt lat="43.99583" lon="7.76816">
        <ele>681.43060302734</ele>
        <time>2018-11-08T06:02:46.167Z</time>
      </trkpt>
      <trkpt lat="43.99625" lon="7.76778">
        <ele>690.14300537109</ele>
        <time>2018-11-08T06:03:01.491Z</time>
      </trkpt>
      <trkpt lat="43.99646" lon="7.76765">
        <ele>686.82781982422</ele>
        <time>2018-11-08T06:03:16.818Z</time>
      </trkpt>
      <trkpt lat="43.99666" lon="7.76756">
        <ele>681.90869140625</ele>
        <time>2018-11-08T06:03:32.149Z</time>
      </trkpt>
      <trkpt lat="43.99683" lon="7.76743">
        <ele>680.85809326172</ele>
        <time>2018-11-08T06:03:47.483Z</time>
      </trkpt>
      <trkpt lat="43.99693" lon="7.76736">
        <ele>680.01397705078</ele>
        <time>2018-11-08T06:04:02.819Z</time>
      </trkpt>
      <trkpt lat="43.99702" lon="7.76733">
        <ele>678.68218994141</ele>
        <time>2018-11-08T06:04:18.156Z</time>
      </trkpt>
      <trkpt lat="43.99718" lon="7.76733">
        <ele>673.88299560547</ele>
        <time>2018-11-08T06:04:33.496Z</time>
      </trkpt>
      <trkpt lat="43.99734" lon="7.76735">
        <ele>668.17193603516</ele>
        <time>2018-11-08T06:04:48.838Z</time>
      </trkpt>
      <trkpt lat="43.99745" lon="7.76737">
        <ele>663.96069335938</ele>
        <time>2018-11-08T06:05:04.182Z</time>
      </trkpt>
      <trkpt lat="43.99755" lon="7.7673">
        <ele>663.77532958984</ele>
        <time>2018-11-08T06:05:19.528Z</time>
      </trkpt>
      <trkpt lat="43.99773" lon="7.76717">
        <ele>661.69964599609</ele>
        <time>2018-11-08T06:05:34.877Z</time>
      </trkpt>
      <trkpt lat="43.99789" lon="7.76707">
        <ele>660.78967285156</ele>
        <time>2018-11-08T06:05:50.229Z</time>
      </trkpt>
      <trkpt lat="43.99806" lon="7.76687">
        <ele>662.62866210938</ele>
        <time>2018-11-08T06:06:05.584Z</time>
      </trkpt>
      <trkpt lat="43.99849" lon="7.76633">
        <ele>669.37896728516</ele>
        <time>2018-11-08T06:06:20.949Z</time>
      </trkpt>
      <trkpt lat="43.9986" lon="7.76622">
        <ele>671.09954833984</ele>
        <time>2018-11-08T06:06:36.316Z</time>
      </trkpt>
      <trkpt lat="43.99874" lon="7.7663">
        <ele>666.63629150391</ele>
        <time>2018-11-08T06:06:51.685Z</time>
      </trkpt>
      <trkpt lat="43.99921" lon="7.76678">
        <ele>642.60278320312</ele>
        <time>2018-11-08T06:07:07.064Z</time>
      </trkpt>
      <trkpt lat="43.99934" lon="7.76684">
        <ele>639.14733886719</ele>
        <time>2018-11-08T06:07:22.445Z</time>
      </trkpt>
      <trkpt lat="43.99953" lon="7.76686">
        <ele>638.02655029297</ele>
        <time>2018-11-08T06:07:37.829Z</time>
      </trkpt>
      <trkpt lat="43.99969" lon="7.76687">
        <ele>638.26531982422</ele>
        <time>2018-11-08T06:07:53.215Z</time>
      </trkpt>
      <trkpt lat="43.99999" lon="7.76699">
        <ele>634.37799072266</ele>
        <time>2018-11-08T06:08:08.606Z</time>
      </trkpt>
      <trkpt lat="44.00011" lon="7.76695">
        <ele>636.59252929688</ele>
        <time>2018-11-08T06:08:23.999Z</time>
      </trkpt>
      <trkpt lat="44.00011" lon="7.76695">
        <ele>636.630859375</ele>
        <time>2018-11-08T06:08:39.392Z</time>
      </trkpt>
      <trkpt lat="44.00018" lon="7.76693">
        <ele>637.95336914062</ele>
        <time>2018-11-08T06:08:54.787Z</time>
      </trkpt>
      <trkpt lat="44.00035" lon="7.76682">
        <ele>641.13891601562</ele>
        <time>2018-11-08T06:09:10.185Z</time>
      </trkpt>
      <trkpt lat="44.00056" lon="7.76677">
        <ele>641.18365478516</ele>
        <time>2018-11-08T06:09:25.586Z</time>
      </trkpt>
      <trkpt lat="44.00086" lon="7.76675">
        <ele>638.64007568359</ele>
        <time>2018-11-08T06:09:40.992Z</time>
      </trkpt>
      <trkpt lat="44.00112" lon="7.76674">
        <ele>635.75286865234</ele>
        <time>2018-11-08T06:09:56.402Z</time>
      </trkpt>
      <trkpt lat="44.0014" lon="7.76651">
        <ele>641.58819580078</ele>
        <time>2018-11-08T06:10:11.817Z</time>
      </trkpt>
      <trkpt lat="44.00145" lon="7.76652">
        <ele>640.1484375</ele>
        <time>2018-11-08T06:10:27.233Z</time>
      </trkpt>
      <trkpt lat="44.00146" lon="7.76655">
        <ele>638.51672363281</ele>
        <time>2018-11-08T06:10:42.649Z</time>
      </trkpt>
      <trkpt lat="44.00147" lon="7.76658">
        <ele>636.88494873047</ele>
        <time>2018-11-08T06:10:58.066Z</time>
      </trkpt>
      <trkpt lat="44.00142" lon="7.76664">
        <ele>634.96527099609</ele>
        <time>2018-11-08T06:11:13.484Z</time>
      </trkpt>
      <trkpt lat="44.00128" lon="7.76678">
        <ele>630.52172851562</ele>
        <time>2018-11-08T06:11:28.905Z</time>
      </trkpt>
      <trkpt lat="44.00113" lon="7.76684">
        <ele>630.26068115234</ele>
        <time>2018-11-08T06:11:44.328Z</time>
      </trkpt>
      <trkpt lat="44.00094" lon="7.76687">
        <ele>631.34527587891</ele>
        <time>2018-11-08T06:11:59.754Z</time>
      </trkpt>
      <trkpt lat="44.00074" lon="7.76692">
        <ele>631.10534667969</ele>
        <time>2018-11-08T06:12:15.183Z</time>
      </trkpt>
      <trkpt lat="44.00061" lon="7.76698">
        <ele>629.49761962891</ele>
        <time>2018-11-08T06:12:30.615Z</time>
      </trkpt>
      <trkpt lat="43.9999" lon="7.76748">
        <ele>612.87872314453</ele>
        <time>2018-11-08T06:12:46.059Z</time>
      </trkpt>
      <trkpt lat="43.99982" lon="7.76751">
        <ele>611.42694091797</ele>
        <time>2018-11-08T06:13:01.505Z</time>
      </trkpt>
      <trkpt lat="43.99977" lon="7.7675">
        <ele>611.72692871094</ele>
        <time>2018-11-08T06:13:16.951Z</time>
      </trkpt>
      <trkpt lat="43.99962" lon="7.76739">
        <ele>615.98620605469</ele>
        <time>2018-11-08T06:13:32.400Z</time>
      </trkpt>
      <trkpt lat="43.99949" lon="7.76738">
        <ele>616.09417724609</ele>
        <time>2018-11-08T06:13:47.851Z</time>
      </trkpt>
      <trkpt lat="43.99943" lon="7.76743">
        <ele>613.8505859375</ele>
        <time>2018-11-08T06:14:03.303Z</time>
      </trkpt>
      <trkpt lat="43.99942" lon="7.76748">
        <ele>611.72692871094</ele>
        <time>2018-11-08T06:14:18.756Z</time>
      </trkpt>
      <trkpt lat="43.99946" lon="7.76758">
        <ele>607.41217041016</ele>
        <time>2018-11-08T06:14:34.210Z</time>
      </trkpt>
      <trkpt lat="43.99959" lon="7.76762">
        <ele>605.80444335938</ele>
        <time>2018-11-08T06:14:49.666Z</time>
      </trkpt>
      <trkpt lat="44.00004" lon="7.76756">
        <ele>609.76373291016</ele>
        <time>2018-11-08T06:15:05.130Z</time>
      </trkpt>
      <trkpt lat="44.00058" lon="7.76731">
        <ele>614.69537353516</ele>
        <time>2018-11-08T06:15:20.603Z</time>
      </trkpt>
      <trkpt lat="44.00144" lon="7.76711">
        <ele>609.68408203125</ele>
        <time>2018-11-08T06:15:36.090Z</time>
      </trkpt>
      <trkpt lat="44.00179" lon="7.76699">
        <ele>609.39324951172</ele>
        <time>2018-11-08T06:15:51.582Z</time>
      </trkpt>
      <trkpt lat="44.00193" lon="7.7669">
        <ele>611.54949951172</ele>
        <time>2018-11-08T06:16:07.077Z</time>
      </trkpt>
      <trkpt lat="44.00206" lon="7.7668">
        <ele>613.45330810547</ele>
        <time>2018-11-08T06:16:22.574Z</time>
      </trkpt>
      <trkpt lat="44.00241" lon="7.76663">
        <ele>608.455078125</ele>
        <time>2018-11-08T06:16:38.077Z</time>
      </trkpt>
      <trkpt lat="44.0026" lon="7.76657">
        <ele>604.71166992188</ele>
        <time>2018-11-08T06:16:53.583Z</time>
      </trkpt>
      <trkpt lat="44.0028" lon="7.76641">
        <ele>607.55603027344</ele>
        <time>2018-11-08T06:17:09.093Z</time>
      </trkpt>
      <trkpt lat="44.00298" lon="7.76633">
        <ele>609.28375244141</ele>
        <time>2018-11-08T06:17:24.606Z</time>
      </trkpt>
      <trkpt lat="44.0032" lon="7.76636">
        <ele>604.49658203125</ele>
        <time>2018-11-08T06:17:40.123Z</time>
      </trkpt>
      <trkpt lat="44.00345" lon="7.76639">
        <ele>596.58294677734</ele>
        <time>2018-11-08T06:17:55.644Z</time>
      </trkpt>
      <trkpt lat="44.00364" lon="7.76649">
        <ele>588.69421386719</ele>
        <time>2018-11-08T06:18:11.168Z</time>
      </trkpt>
      <trkpt lat="44.00386" lon="7.76668">
        <ele>580.90753173828</ele>
        <time>2018-11-08T06:18:26.696Z</time>
      </trkpt>
      <trkpt lat="44.00414" lon="7.76668">
        <ele>580.57159423828</ele>
        <time>2018-11-08T06:18:42.228Z</time>
      </trkpt>
      <trkpt lat="44.00457" lon="7.76637">
        <ele>589.23669433594</ele>
        <time>2018-11-08T06:18:57.768Z</time>
      </trkpt>
      <trkpt lat="44.00466" lon="7.76638">
        <ele>588.93676757812</ele>
        <time>2018-11-08T06:19:13.310Z</time>
      </trkpt>
      <trkpt lat="44.00471" lon="7.76642">
        <ele>587.73693847656</ele>
        <time>2018-11-08T06:19:28.853Z</time>
      </trkpt>
      <trkpt lat="44.00476" lon="7.76647">
        <ele>586.23718261719</ele>
        <time>2018-11-08T06:19:44.397Z</time>
      </trkpt>
      <trkpt lat="44.00481" lon="7.76669">
        <ele>579.63830566406</ele>
        <time>2018-11-08T06:19:59.943Z</time>
      </trkpt>
      <trkpt lat="44.00484" lon="7.76702">
        <ele>589.00085449219</ele>
        <time>2018-11-08T06:20:15.493Z</time>
      </trkpt>
      <trkpt lat="44.00477" lon="7.76716">
        <ele>590.30017089844</ele>
        <time>2018-11-08T06:20:31.045Z</time>
      </trkpt>
      <trkpt lat="44.00452" lon="7.76732">
        <ele>581.70959472656</ele>
        <time>2018-11-08T06:20:46.601Z</time>
      </trkpt>
      <trkpt lat="44.00325" lon="7.76801">
        <ele>572.92047119141</ele>
        <time>2018-11-08T06:21:02.179Z</time>
      </trkpt>
      <trkpt lat="44.00188" lon="7.76856">
        <ele>553.97406005859</ele>
        <time>2018-11-08T06:21:17.780Z</time>
      </trkpt>
      <trkpt lat="44.00169" lon="7.76868">
        <ele>557.52545166016</ele>
        <time>2018-11-08T06:21:33.384Z</time>
      </trkpt>
      <trkpt lat="44.0016" lon="7.76882">
        <ele>560.40496826172</ele>
        <time>2018-11-08T06:21:48.991Z</time>
      </trkpt>
      <trkpt lat="44.00151" lon="7.76905">
        <ele>556.03869628906</ele>
        <time>2018-11-08T06:22:04.601Z</time>
      </trkpt>
      <trkpt lat="44.00134" lon="7.76937">
        <ele>553.9267578125</ele>
        <time>2018-11-08T06:22:20.215Z</time>
      </trkpt>
      <trkpt lat="44.00134" lon="7.76938">
        <ele>553.97497558594</ele>
        <time>2018-11-08T06:22:35.829Z</time>
      </trkpt>
      <trkpt lat="44.00126" lon="7.76953">
        <ele>556.28289794922</ele>
        <time>2018-11-08T06:22:51.445Z</time>
      </trkpt>
      <trkpt lat="44.00115" lon="7.76965">
        <ele>556.16290283203</ele>
        <time>2018-11-08T06:23:07.064Z</time>
      </trkpt>
      <trkpt lat="44.0009" lon="7.76966">
        <ele>554.81195068359</ele>
        <time>2018-11-08T06:23:22.687Z</time>
      </trkpt>
      <trkpt lat="44.00069" lon="7.76976">
        <ele>555.60095214844</ele>
        <time>2018-11-08T06:23:38.313Z</time>
      </trkpt>
      <trkpt lat="44.00038" lon="7.76998">
        <ele>550.33386230469</ele>
        <time>2018-11-08T06:23:53.945Z</time>
      </trkpt>
      <trkpt lat="44.00022" lon="7.77007">
        <ele>549.09582519531</ele>
        <time>2018-11-08T06:24:09.580Z</time>
      </trkpt>
      <trkpt lat="44.00008" lon="7.77011">
        <ele>550.75152587891</ele>
        <time>2018-11-08T06:24:25.217Z</time>
      </trkpt>
      <trkpt lat="43.99989" lon="7.77011">
        <ele>550.52355957031</ele>
        <time>2018-11-08T06:24:40.857Z</time>
      </trkpt>
      <trkpt lat="43.99968" lon="7.77004">
        <ele>547.32202148438</ele>
        <time>2018-11-08T06:24:56.500Z</time>
      </trkpt>
      <trkpt lat="43.99945" lon="7.77003">
        <ele>547.05804443359</ele>
        <time>2018-11-08T06:25:12.147Z</time>
      </trkpt>
      <trkpt lat="43.99875" lon="7.77006">
        <ele>542.75164794922</ele>
        <time>2018-11-08T06:25:27.805Z</time>
      </trkpt>
      <trkpt lat="43.99808" lon="7.77014">
        <ele>536.37060546875</ele>
        <time>2018-11-08T06:25:43.474Z</time>
      </trkpt>
      <trkpt lat="43.99788" lon="7.77025">
        <ele>536.34741210938</ele>
        <time>2018-11-08T06:25:59.146Z</time>
      </trkpt>
      <trkpt lat="43.99778" lon="7.77034">
        <ele>536.93536376953</ele>
        <time>2018-11-08T06:26:14.820Z</time>
      </trkpt>
      <trkpt lat="43.99743" lon="7.77051">
        <ele>548.38629150391</ele>
        <time>2018-11-08T06:26:30.500Z</time>
      </trkpt>
      <trkpt lat="43.99722" lon="7.77056">
        <ele>544.04339599609</ele>
        <time>2018-11-08T06:26:46.184Z</time>
      </trkpt>
      <trkpt lat="43.99711" lon="7.77062">
        <ele>539.62811279297</ele>
        <time>2018-11-08T06:27:01.870Z</time>
      </trkpt>
      <trkpt lat="43.99689" lon="7.77084">
        <ele>530.04864501953</ele>
        <time>2018-11-08T06:27:17.560Z</time>
      </trkpt>
      <trkpt lat="43.99661" lon="7.77111">
        <ele>537.30963134766</ele>
        <time>2018-11-08T06:27:33.255Z</time>
      </trkpt>
      <trkpt lat="43.99646" lon="7.77141">
        <ele>537.82604980469</ele>
        <time>2018-11-08T06:27:48.955Z</time>
      </trkpt>
      <trkpt lat="43.99599" lon="7.7719">
        <ele>519.93817138672</ele>
        <time>2018-11-08T06:28:04.664Z</time>
      </trkpt>
      <trkpt lat="43.9957" lon="7.77228">
        <ele>523.45654296875</ele>
        <time>2018-11-08T06:28:20.379Z</time>
      </trkpt>
      <trkpt lat="43.99514" lon="7.7725">
        <ele>514.23425292969</ele>
        <time>2018-11-08T06:28:36.104Z</time>
      </trkpt>
      <trkpt lat="43.99453" lon="7.77268">
        <ele>507.38494873047</ele>
        <time>2018-11-08T06:28:51.839Z</time>
      </trkpt>
      <trkpt lat="43.99444" lon="7.77275">
        <ele>503.88153076172</ele>
        <time>2018-11-08T06:29:07.575Z</time>
      </trkpt>
      <trkpt lat="43.99435" lon="7.77288">
        <ele>506.7868347168</ele>
        <time>2018-11-08T06:29:23.313Z</time>
      </trkpt>
      <trkpt lat="43.99421" lon="7.77309">
        <ele>514.59753417969</ele>
        <time>2018-11-08T06:29:39.055Z</time>
      </trkpt>
      <trkpt lat="43.99402" lon="7.77345">
        <ele>507.17199707031</ele>
        <time>2018-11-08T06:29:54.802Z</time>
      </trkpt>
      <trkpt lat="43.99387" lon="7.77381">
        <ele>510.7294921875</ele>
        <time>2018-11-08T06:30:10.554Z</time>
      </trkpt>
      <trkpt lat="43.99379" lon="7.77396">
        <ele>507.46603393555</ele>
        <time>2018-11-08T06:30:26.308Z</time>
      </trkpt>
      <trkpt lat="43.99366" lon="7.77412">
        <ele>502.16293334961</ele>
        <time>2018-11-08T06:30:42.065Z</time>
      </trkpt>
      <trkpt lat="43.99325" lon="7.77442">
        <ele>506.97473144531</ele>
        <time>2018-11-08T06:30:57.829Z</time>
      </trkpt>
      <trkpt lat="43.99302" lon="7.77453">
        <ele>510.49752807617</ele>
        <time>2018-11-08T06:31:13.597Z</time>
      </trkpt>
      <trkpt lat="43.99279" lon="7.77455">
        <ele>505.83032226562</ele>
        <time>2018-11-08T06:31:29.369Z</time>
      </trkpt>
      <trkpt lat="43.99266" lon="7.7745">
        <ele>506.84689331055</ele>
        <time>2018-11-08T06:31:45.143Z</time>
      </trkpt>
      <trkpt lat="43.99266" lon="7.77449">
        <ele>506.8766784668</ele>
        <time>2018-11-08T06:32:00.917Z</time>
      </trkpt>
      <trkpt lat="43.99258" lon="7.77446">
        <ele>508.076171875</ele>
        <time>2018-11-08T06:32:16.692Z</time>
      </trkpt>
      <trkpt lat="43.99254" lon="7.77447">
        <ele>507.95617675781</ele>
        <time>2018-11-08T06:32:32.468Z</time>
      </trkpt>
      <trkpt lat="43.99248" lon="7.77454">
        <ele>506.32446289062</ele>
        <time>2018-11-08T06:32:48.245Z</time>
      </trkpt>
      <trkpt lat="43.99242" lon="7.77472">
        <ele>501.80355834961</ele>
        <time>2018-11-08T06:33:04.024Z</time>
      </trkpt>
      <trkpt lat="43.9922" lon="7.77514">
        <ele>494.91909790039</ele>
        <time>2018-11-08T06:33:19.809Z</time>
      </trkpt>
      <trkpt lat="43.99193" lon="7.77561">
        <ele>485.43157958984</ele>
        <time>2018-11-08T06:33:35.601Z</time>
      </trkpt>
      <trkpt lat="43.99182" lon="7.77571">
        <ele>481.23303222656</ele>
        <time>2018-11-08T06:33:51.395Z</time>
      </trkpt>
      <trkpt lat="43.99172" lon="7.77575">
        <ele>480.09683227539</ele>
        <time>2018-11-08T06:34:07.191Z</time>
      </trkpt>
      <trkpt lat="43.99166" lon="7.77577">
        <ele>480.57675170898</ele>
        <time>2018-11-08T06:34:22.988Z</time>
      </trkpt>
      <trkpt lat="43.99156" lon="7.77581">
        <ele>481.39260864258</ele>
        <time>2018-11-08T06:34:38.787Z</time>
      </trkpt>
      <trkpt lat="43.99112" lon="7.7758">
        <ele>484.53607177734</ele>
        <time>2018-11-08T06:34:54.593Z</time>
      </trkpt>
      <trkpt lat="43.99106" lon="7.77579">
        <ele>484.55459594727</ele>
        <time>2018-11-08T06:35:10.400Z</time>
      </trkpt>
      <trkpt lat="43.99106" lon="7.77579">
        <ele>484.53396606445</ele>
        <time>2018-11-08T06:35:26.207Z</time>
      </trkpt>
      <trkpt lat="43.99089" lon="7.77577">
        <ele>485.1725769043</ele>
        <time>2018-11-08T06:35:42.016Z</time>
      </trkpt>
      <trkpt lat="43.99082" lon="7.77574">
        <ele>485.53253173828</ele>
        <time>2018-11-08T06:35:57.827Z</time>
      </trkpt>
      <trkpt lat="43.99073" lon="7.77562">
        <ele>483.55285644531</ele>
        <time>2018-11-08T06:36:13.640Z</time>
      </trkpt>
      <trkpt lat="43.99058" lon="7.77529">
        <ele>478.76663208008</ele>
        <time>2018-11-08T06:36:29.457Z</time>
      </trkpt>
      <trkpt lat="43.99045" lon="7.77499">
        <ele>476.53021240234</ele>
        <time>2018-11-08T06:36:45.278Z</time>
      </trkpt>
      <trkpt lat="43.99038" lon="7.77478">
        <ele>474.34655761719</ele>
        <time>2018-11-08T06:37:01.102Z</time>
      </trkpt>
      <trkpt lat="43.99028" lon="7.77438">
        <ele>470.50720214844</ele>
        <time>2018-11-08T06:37:16.931Z</time>
      </trkpt>
      <trkpt lat="43.99017" lon="7.77447">
        <ele>470.74884033203</ele>
        <time>2018-11-08T06:37:32.762Z</time>
      </trkpt>
      <trkpt lat="43.99017" lon="7.77447">
        <ele>470.75698852539</ele>
        <time>2018-11-08T06:37:48.593Z</time>
      </trkpt>
      <trkpt lat="43.99009" lon="7.77453">
        <ele>471.09515380859</ele>
        <time>2018-11-08T06:38:04.425Z</time>
      </trkpt>
      <trkpt lat="43.98994" lon="7.77462">
        <ele>471.56304931641</ele>
        <time>2018-11-08T06:38:20.260Z</time>
      </trkpt>
      <trkpt lat="43.98986" lon="7.77462">
        <ele>471.4670715332</ele>
        <time>2018-11-08T06:38:36.096Z</time>
      </trkpt>
      <trkpt lat="43.9898" lon="7.77459">
        <ele>471.17913818359</ele>
        <time>2018-11-08T06:38:51.933Z</time>
      </trkpt>
      <trkpt lat="43.98973" lon="7.77456">
        <ele>470.33206176758</ele>
        <time>2018-11-08T06:39:07.771Z</time>
      </trkpt>
      <trkpt lat="43.98961" lon="7.77462">
        <ele>467.59649658203</ele>
        <time>2018-11-08T06:39:23.611Z</time>
      </trkpt>
      <trkpt lat="43.98956" lon="7.77486">
        <ele>464.39303588867</ele>
        <time>2018-11-08T06:39:39.454Z</time>
      </trkpt>
      <trkpt lat="43.98955" lon="7.77508">
        <ele>463.44747924805</ele>
        <time>2018-11-08T06:39:55.300Z</time>
      </trkpt>
      <trkpt lat="43.98952" lon="7.77517">
        <ele>465.24044799805</ele>
        <time>2018-11-08T06:40:11.147Z</time>
      </trkpt>
      <trkpt lat="43.98949" lon="7.77525">
        <ele>464.98849487305</ele>
        <time>2018-11-08T06:40:26.995Z</time>
      </trkpt>
      <trkpt lat="43.98942" lon="7.77539">
        <ele>463.89666748047</ele>
        <time>2018-11-08T06:40:42.845Z</time>
      </trkpt>
      <trkpt lat="43.98933" lon="7.77556">
        <ele>465.85656738281</ele>
        <time>2018-11-08T06:40:58.697Z</time>
      </trkpt>
      <trkpt lat="43.98907" lon="7.77598">
        <ele>465.8205871582</ele>
        <time>2018-11-08T06:41:14.556Z</time>
      </trkpt>
      <trkpt lat="43.98889" lon="7.77622">
        <ele>470.59204101562</ele>
        <time>2018-11-08T06:41:30.419Z</time>
      </trkpt>
      <trkpt lat="43.98844" lon="7.77655">
        <ele>460.63436889648</ele>
        <time>2018-11-08T06:41:46.290Z</time>
      </trkpt>
      <trkpt lat="43.98811" lon="7.77665">
        <ele>455.77581787109</ele>
        <time>2018-11-08T06:42:02.166Z</time>
      </trkpt>
      <trkpt lat="43.98781" lon="7.77686">
        <ele>456.85934448242</ele>
        <time>2018-11-08T06:42:18.048Z</time>
      </trkpt>
      <trkpt lat="43.98771" lon="7.77693">
        <ele>456.14422607422</ele>
        <time>2018-11-08T06:42:33.932Z</time>
      </trkpt>
      <trkpt lat="43.98745" lon="7.77702">
        <ele>456.34820556641</ele>
        <time>2018-11-08T06:42:49.820Z</time>
      </trkpt>
      <trkpt lat="43.98736" lon="7.77701">
        <ele>455.18438720703</ele>
        <time>2018-11-08T06:43:05.709Z</time>
      </trkpt>
      <trkpt lat="43.98725" lon="7.77712">
        <ele>455.67337036133</ele>
        <time>2018-11-08T06:43:21.600Z</time>
      </trkpt>
      <trkpt lat="43.98724" lon="7.77712">
        <ele>455.62951660156</ele>
        <time>2018-11-08T06:43:37.491Z</time>
      </trkpt>
      <trkpt lat="43.98687" lon="7.77748">
        <ele>449.07669067383</ele>
        <time>2018-11-08T06:43:53.390Z</time>
      </trkpt>
      <trkpt lat="43.98666" lon="7.77768">
        <ele>454.45132446289</ele>
        <time>2018-11-08T06:44:09.293Z</time>
      </trkpt>
      <trkpt lat="43.98647" lon="7.77785">
        <ele>461.37417602539</ele>
        <time>2018-11-08T06:44:25.199Z</time>
      </trkpt>
      <trkpt lat="43.98642" lon="7.77785">
        <ele>461.85409545898</ele>
        <time>2018-11-08T06:44:41.106Z</time>
      </trkpt>
      <trkpt lat="43.98638" lon="7.77783">
        <ele>461.63812255859</ele>
        <time>2018-11-08T06:44:57.014Z</time>
      </trkpt>
      <trkpt lat="43.98637" lon="7.77776">
        <ele>459.63446044922</ele>
        <time>2018-11-08T06:45:12.923Z</time>
      </trkpt>
      <trkpt lat="43.98638" lon="7.77769">
        <ele>457.43884277344</ele>
        <time>2018-11-08T06:45:28.833Z</time>
      </trkpt>
      <trkpt lat="43.98653" lon="7.77743">
        <ele>453.78756713867</ele>
        <time>2018-11-08T06:45:44.746Z</time>
      </trkpt>
      <trkpt lat="43.98658" lon="7.7773">
        <ele>455.64727783203</ele>
        <time>2018-11-08T06:46:00.661Z</time>
      </trkpt>
      <trkpt lat="43.98657" lon="7.7772">
        <ele>457.4992980957</ele>
        <time>2018-11-08T06:46:16.577Z</time>
      </trkpt>
      <trkpt lat="43.98637" lon="7.77683">
        <ele>461.79458618164</ele>
        <time>2018-11-08T06:46:32.499Z</time>
      </trkpt>
      <trkpt lat="43.98631" lon="7.77673">
        <ele>463.16851806641</ele>
        <time>2018-11-08T06:46:48.422Z</time>
      </trkpt>
      <trkpt lat="43.98631" lon="7.77673">
        <ele>463.19976806641</ele>
        <time>2018-11-08T06:47:04.345Z</time>
      </trkpt>
      <trkpt lat="43.98618" lon="7.77652">
        <ele>470.80380249023</ele>
        <time>2018-11-08T06:47:20.271Z</time>
      </trkpt>
      <trkpt lat="43.98612" lon="7.77636">
        <ele>475.57901000977</ele>
        <time>2018-11-08T06:47:36.199Z</time>
      </trkpt>
      <trkpt lat="43.98613" lon="7.77618">
        <ele>478.25457763672</ele>
        <time>2018-11-08T06:47:52.130Z</time>
      </trkpt>
      <trkpt lat="43.98638" lon="7.77553">
        <ele>470.11975097656</ele>
        <time>2018-11-08T06:48:08.069Z</time>
      </trkpt>
      <trkpt lat="43.98647" lon="7.77514">
        <ele>466.38110351562</ele>
        <time>2018-11-08T06:48:24.013Z</time>
      </trkpt>
      <trkpt lat="43.98658" lon="7.77464">
        <ele>458.97961425781</ele>
        <time>2018-11-08T06:48:39.963Z</time>
      </trkpt>
      <trkpt lat="43.98663" lon="7.77432">
        <ele>459.33865356445</ele>
        <time>2018-11-08T06:48:55.917Z</time>
      </trkpt>
      <trkpt lat="43.98663" lon="7.77432">
        <ele>459.34191894531</ele>
        <time>2018-11-08T06:49:11.871Z</time>
      </trkpt>
      <trkpt lat="43.98667" lon="7.77405">
        <ele>458.48147583008</ele>
        <time>2018-11-08T06:49:27.828Z</time>
      </trkpt>
      <trkpt lat="43.98665" lon="7.77376">
        <ele>459.61776733398</ele>
        <time>2018-11-08T06:49:43.788Z</time>
      </trkpt>
      <trkpt lat="43.98658" lon="7.77321">
        <ele>462.82464599609</ele>
        <time>2018-11-08T06:49:59.755Z</time>
      </trkpt>
      <trkpt lat="43.9864" lon="7.77248">
        <ele>466.55563354492</ele>
        <time>2018-11-08T06:50:15.730Z</time>
      </trkpt>
      <trkpt lat="43.98608" lon="7.77163">
        <ele>465.74377441406</ele>
        <time>2018-11-08T06:50:31.717Z</time>
      </trkpt>
      <trkpt lat="43.98559" lon="7.77042">
        <ele>468.45739746094</ele>
        <time>2018-11-08T06:50:47.720Z</time>
      </trkpt>
      <trkpt lat="43.9853" lon="7.76983">
        <ele>468.80932617188</ele>
        <time>2018-11-08T06:51:03.731Z</time>
      </trkpt>
      <trkpt lat="43.9849" lon="7.76922">
        <ele>475.59631347656</ele>
        <time>2018-11-08T06:51:19.751Z</time>
      </trkpt>
      <trkpt lat="43.98477" lon="7.76898">
        <ele>477.97192382812</ele>
        <time>2018-11-08T06:51:35.775Z</time>
      </trkpt>
      <trkpt lat="43.98472" lon="7.76882">
        <ele>478.23587036133</ele>
        <time>2018-11-08T06:51:51.801Z</time>
      </trkpt>
      <trkpt lat="43.98469" lon="7.76858">
        <ele>477.81066894531</ele>
        <time>2018-11-08T06:52:07.830Z</time>
      </trkpt>
      <trkpt lat="43.98458" lon="7.7672">
        <ele>473.57760620117</ele>
        <time>2018-11-08T06:52:23.875Z</time>
      </trkpt>
      <trkpt lat="43.98456" lon="7.76699">
        <ele>473.20565795898</ele>
        <time>2018-11-08T06:52:39.922Z</time>
      </trkpt>
      <trkpt lat="43.98458" lon="7.76678">
        <ele>472.53143310547</ele>
        <time>2018-11-08T06:52:55.972Z</time>
      </trkpt>
      <trkpt lat="43.9847" lon="7.76642">
        <ele>475.77886962891</ele>
        <time>2018-11-08T06:53:12.026Z</time>
      </trkpt>
      <trkpt lat="43.98496" lon="7.76601">
        <ele>481.89932250977</ele>
        <time>2018-11-08T06:53:28.086Z</time>
      </trkpt>
      <trkpt lat="43.98525" lon="7.76561">
        <ele>490.98416137695</ele>
        <time>2018-11-08T06:53:44.153Z</time>
      </trkpt>
      <trkpt lat="43.9854" lon="7.76545">
        <ele>492.54388427734</ele>
        <time>2018-11-08T06:54:00.223Z</time>
      </trkpt>
      <trkpt lat="43.98554" lon="7.76525">
        <ele>494.79211425781</ele>
        <time>2018-11-08T06:54:16.296Z</time>
      </trkpt>
      <trkpt lat="43.98586" lon="7.76454">
        <ele>502.94757080078</ele>
        <time>2018-11-08T06:54:32.379Z</time>
      </trkpt>
      <trkpt lat="43.98595" lon="7.76439">
        <ele>504.20736694336</ele>
        <time>2018-11-08T06:54:48.464Z</time>
      </trkpt>
      <trkpt lat="43.98611" lon="7.76418">
        <ele>504.87966918945</ele>
        <time>2018-11-08T06:55:04.553Z</time>
      </trkpt>
      <trkpt lat="43.98625" lon="7.76397">
        <ele>505.80352783203</ele>
        <time>2018-11-08T06:55:20.645Z</time>
      </trkpt>
      <trkpt lat="43.98635" lon="7.76373">
        <ele>508.73104858398</ele>
        <time>2018-11-08T06:55:36.740Z</time>
      </trkpt>
      <trkpt lat="43.98657" lon="7.76295">
        <ele>512.14086914062</ele>
        <time>2018-11-08T06:55:52.845Z</time>
      </trkpt>
      <trkpt lat="43.98657" lon="7.76295">
        <ele>512.14721679688</ele>
        <time>2018-11-08T06:56:08.950Z</time>
      </trkpt>
      <trkpt lat="43.98659" lon="7.76287">
        <ele>512.32934570312</ele>
        <time>2018-11-08T06:56:25.056Z</time>
      </trkpt>
      <trkpt lat="43.98661" lon="7.76252">
        <ele>516.30377197266</ele>
        <time>2018-11-08T06:56:41.166Z</time>
      </trkpt>
      <trkpt lat="43.98642" lon="7.76094">
        <ele>533.70861816406</ele>
        <time>2018-11-08T06:56:57.294Z</time>
      </trkpt>
      <trkpt lat="43.98642" lon="7.76063">
        <ele>536.96813964844</ele>
        <time>2018-11-08T06:57:13.426Z</time>
      </trkpt>
      <trkpt lat="43.98646" lon="7.76031">
        <ele>537.41510009766</ele>
        <time>2018-11-08T06:57:29.562Z</time>
      </trkpt>
      <trkpt lat="43.98648" lon="7.7601">
        <ele>535.79541015625</ele>
        <time>2018-11-08T06:57:45.700Z</time>
      </trkpt>
      <trkpt lat="43.98646" lon="7.75988">
        <ele>538.27239990234</ele>
        <time>2018-11-08T06:58:01.841Z</time>
      </trkpt>
      <trkpt lat="43.98629" lon="7.7595">
        <ele>552.63403320312</ele>
        <time>2018-11-08T06:58:17.987Z</time>
      </trkpt>
      <trkpt lat="43.98627" lon="7.75941">
        <ele>554.64965820312</ele>
        <time>2018-11-08T06:58:34.134Z</time>
      </trkpt>
      <trkpt lat="43.98628" lon="7.75929">
        <ele>554.68707275391</ele>
        <time>2018-11-08T06:58:50.282Z</time>
      </trkpt>
      <trkpt lat="43.98633" lon="7.75903">
        <ele>552.76739501953</ele>
        <time>2018-11-08T06:59:06.434Z</time>
      </trkpt>
      <trkpt lat="43.98622" lon="7.75876">
        <ele>562.04187011719</ele>
        <time>2018-11-08T06:59:22.589Z</time>
      </trkpt>
      <trkpt lat="43.98619" lon="7.75856">
        <ele>565.32928466797</ele>
        <time>2018-11-08T06:59:38.746Z</time>
      </trkpt>
      <trkpt lat="43.98622" lon="7.75838">
        <ele>565.62054443359</ele>
        <time>2018-11-08T06:59:54.906Z</time>
      </trkpt>
      <trkpt lat="43.98628" lon="7.75825">
        <ele>564.95989990234</ele>
        <time>2018-11-08T07:00:11.067Z</time>
      </trkpt>
      <trkpt lat="43.9864" lon="7.75808">
        <ele>561.63647460938</ele>
        <time>2018-11-08T07:00:27.231Z</time>
      </trkpt>
      <trkpt lat="43.9867" lon="7.75761">
        <ele>552.36724853516</ele>
        <time>2018-11-08T07:00:43.402Z</time>
      </trkpt>
      <trkpt lat="43.98675" lon="7.75749">
        <ele>551.68249511719</ele>
        <time>2018-11-08T07:00:59.575Z</time>
      </trkpt>
      <trkpt lat="43.98674" lon="7.7574">
        <ele>554.37005615234</ele>
        <time>2018-11-08T07:01:15.749Z</time>
      </trkpt>
      <trkpt lat="43.98669" lon="7.75736">
        <ele>558.46136474609</ele>
        <time>2018-11-08T07:01:31.924Z</time>
      </trkpt>
      <trkpt lat="43.98662" lon="7.75739">
        <ele>562.22869873047</ele>
        <time>2018-11-08T07:01:48.100Z</time>
      </trkpt>
      <trkpt lat="43.98642" lon="7.75775">
        <ele>567.48474121094</ele>
        <time>2018-11-08T07:02:04.281Z</time>
      </trkpt>
      <trkpt lat="43.98615" lon="7.75811">
        <ele>575.95007324219</ele>
        <time>2018-11-08T07:02:20.468Z</time>
      </trkpt>
      <trkpt lat="43.986" lon="7.7584">
        <ele>579.80328369141</ele>
        <time>2018-11-08T07:02:36.659Z</time>
      </trkpt>
      <trkpt lat="43.98593" lon="7.75872">
        <ele>583.00671386719</ele>
        <time>2018-11-08T07:02:52.854Z</time>
      </trkpt>
      <trkpt lat="43.98583" lon="7.75922">
        <ele>584.90277099609</ele>
        <time>2018-11-08T07:03:09.055Z</time>
      </trkpt>
      <trkpt lat="43.98582" lon="7.7594">
        <ele>584.24291992188</ele>
        <time>2018-11-08T07:03:25.258Z</time>
      </trkpt>
      <trkpt lat="43.98583" lon="7.75953">
        <ele>582.67810058594</ele>
        <time>2018-11-08T07:03:41.463Z</time>
      </trkpt>
      <trkpt lat="43.98583" lon="7.75953">
        <ele>582.67120361328</ele>
        <time>2018-11-08T07:03:57.668Z</time>
      </trkpt>
      <trkpt lat="43.98583" lon="7.75953">
        <ele>582.64556884766</ele>
        <time>2018-11-08T07:04:13.873Z</time>
      </trkpt>
      <trkpt lat="43.98586" lon="7.75987">
        <ele>577.91516113281</ele>
        <time>2018-11-08T07:04:30.082Z</time>
      </trkpt>
      <trkpt lat="43.98585" lon="7.75995">
        <ele>577.21929931641</ele>
        <time>2018-11-08T07:04:46.292Z</time>
      </trkpt>
      <trkpt lat="43.98579" lon="7.76005">
        <ele>578.98663330078</ele>
        <time>2018-11-08T07:05:02.503Z</time>
      </trkpt>
      <trkpt lat="43.98566" lon="7.76023">
        <ele>583.78582763672</ele>
        <time>2018-11-08T07:05:18.717Z</time>
      </trkpt>
      <trkpt lat="43.98529" lon="7.76093">
        <ele>589.35968017578</ele>
        <time>2018-11-08T07:05:34.941Z</time>
      </trkpt>
      <trkpt lat="43.98508" lon="7.76136">
        <ele>591.98529052734</ele>
        <time>2018-11-08T07:05:51.171Z</time>
      </trkpt>
      <trkpt lat="43.985" lon="7.76151">
        <ele>593.01031494141</ele>
        <time>2018-11-08T07:06:07.403Z</time>
      </trkpt>
      <trkpt lat="43.9848" lon="7.76171">
        <ele>595.88983154297</ele>
        <time>2018-11-08T07:06:23.639Z</time>
      </trkpt>
      <trkpt lat="43.98452" lon="7.76216">
        <ele>599.07312011719</ele>
        <time>2018-11-08T07:06:39.882Z</time>
      </trkpt>
      <trkpt lat="43.9843" lon="7.76252">
        <ele>598.20880126953</ele>
        <time>2018-11-08T07:06:56.131Z</time>
      </trkpt>
      <trkpt lat="43.98419" lon="7.76264">
        <ele>598.61346435547</ele>
        <time>2018-11-08T07:07:12.382Z</time>
      </trkpt>
      <trkpt lat="43.98413" lon="7.76268">
        <ele>599.57330322266</ele>
        <time>2018-11-08T07:07:28.634Z</time>
      </trkpt>
      <trkpt lat="43.98408" lon="7.76267">
        <ele>601.20501708984</ele>
        <time>2018-11-08T07:07:44.887Z</time>
      </trkpt>
      <trkpt lat="43.98405" lon="7.76261">
        <ele>603.220703125</ele>
        <time>2018-11-08T07:08:01.141Z</time>
      </trkpt>
      <trkpt lat="43.98405" lon="7.76253">
        <ele>605.02362060547</ele>
        <time>2018-11-08T07:08:17.396Z</time>
      </trkpt>
      <trkpt lat="43.98426" lon="7.76224">
        <ele>607.77667236328</ele>
        <time>2018-11-08T07:08:33.655Z</time>
      </trkpt>
      <trkpt lat="43.98432" lon="7.76207">
        <ele>608.98846435547</ele>
        <time>2018-11-08T07:08:49.917Z</time>
      </trkpt>
      <trkpt lat="43.98436" lon="7.76189">
        <ele>611.31604003906</ele>
        <time>2018-11-08T07:09:06.181Z</time>
      </trkpt>
      <trkpt lat="43.98439" lon="7.76154">
        <ele>619.21911621094</ele>
        <time>2018-11-08T07:09:22.449Z</time>
      </trkpt>
      <trkpt lat="43.98442" lon="7.76137">
        <ele>622.95733642578</ele>
        <time>2018-11-08T07:09:38.719Z</time>
      </trkpt>
      <trkpt lat="43.98457" lon="7.76097">
        <ele>627.61932373047</ele>
        <time>2018-11-08T07:09:54.994Z</time>
      </trkpt>
      <trkpt lat="43.98464" lon="7.76078">
        <ele>628.39105224609</ele>
        <time>2018-11-08T07:10:11.272Z</time>
      </trkpt>
      <trkpt lat="43.98465" lon="7.76078">
        <ele>628.41625976562</ele>
        <time>2018-11-08T07:10:27.550Z</time>
      </trkpt>
      <trkpt lat="43.98486" lon="7.76022">
        <ele>630.98675537109</ele>
        <time>2018-11-08T07:10:43.835Z</time>
      </trkpt>
      <trkpt lat="43.98493" lon="7.75998">
        <ele>630.95794677734</ele>
        <time>2018-11-08T07:11:00.123Z</time>
      </trkpt>
      <trkpt lat="43.98496" lon="7.75979">
        <ele>631.94177246094</ele>
        <time>2018-11-08T07:11:16.413Z</time>
      </trkpt>
      <trkpt lat="43.985" lon="7.75911">
        <ele>639.78845214844</ele>
        <time>2018-11-08T07:11:32.711Z</time>
      </trkpt>
      <trkpt lat="43.98504" lon="7.75865">
        <ele>644.19445800781</ele>
        <time>2018-11-08T07:11:49.014Z</time>
      </trkpt>
      <trkpt lat="43.985" lon="7.7583">
        <ele>652.2451171875</ele>
        <time>2018-11-08T07:12:05.321Z</time>
      </trkpt>
      <trkpt lat="43.98497" lon="7.758">
        <ele>658.86804199219</ele>
        <time>2018-11-08T07:12:21.632Z</time>
      </trkpt>
      <trkpt lat="43.985" lon="7.75788">
        <ele>658.79602050781</ele>
        <time>2018-11-08T07:12:37.944Z</time>
      </trkpt>
      <trkpt lat="43.98514" lon="7.75755">
        <ele>654.87268066406</ele>
        <time>2018-11-08T07:12:54.261Z</time>
      </trkpt>
      <trkpt lat="43.98522" lon="7.75718">
        <ele>656.19873046875</ele>
        <time>2018-11-08T07:13:10.582Z</time>
      </trkpt>
      <trkpt lat="43.98525" lon="7.757">
        <ele>657.62493896484</ele>
        <time>2018-11-08T07:13:26.905Z</time>
      </trkpt>
      <trkpt lat="43.98535" lon="7.75683">
        <ele>654.08551025391</ele>
        <time>2018-11-08T07:13:43.231Z</time>
      </trkpt>
      <trkpt lat="43.98548" lon="7.75665">
        <ele>649.86108398438</ele>
        <time>2018-11-08T07:13:59.560Z</time>
      </trkpt>
      <trkpt lat="43.98549" lon="7.75646">
        <ele>652.66857910156</ele>
        <time>2018-11-08T07:14:15.891Z</time>
      </trkpt>
      <trkpt lat="43.98538" lon="7.75624">
        <ele>663.35882568359</ele>
        <time>2018-11-08T07:14:32.225Z</time>
      </trkpt>
      <trkpt lat="43.98535" lon="7.75614">
        <ele>666.99420166016</ele>
        <time>2018-11-08T07:14:48.560Z</time>
      </trkpt>
      <trkpt lat="43.98534" lon="7.75598">
        <ele>670.48559570312</ele>
        <time>2018-11-08T07:15:04.897Z</time>
      </trkpt>
      <trkpt lat="43.9854" lon="7.75568">
        <ele>667.14459228516</ele>
        <time>2018-11-08T07:15:21.238Z</time>
      </trkpt>
      <trkpt lat="43.9855" lon="7.75534">
        <ele>660.52166748047</ele>
        <time>2018-11-08T07:15:37.583Z</time>
      </trkpt>
      <trkpt lat="43.98551" lon="7.75515">
        <ele>660.79138183594</ele>
        <time>2018-11-08T07:15:53.930Z</time>
      </trkpt>
      <trkpt lat="43.98546" lon="7.7551">
        <ele>664.63073730469</ele>
        <time>2018-11-08T07:16:10.278Z</time>
      </trkpt>
      <trkpt lat="43.98538" lon="7.75512">
        <ele>670.17376708984</ele>
        <time>2018-11-08T07:16:26.628Z</time>
      </trkpt>
      <trkpt lat="43.98536" lon="7.75517">
        <ele>671.34387207031</ele>
        <time>2018-11-08T07:16:42.978Z</time>
      </trkpt>
      <trkpt lat="43.98534" lon="7.75537">
        <ele>672.35168457031</ele>
        <time>2018-11-08T07:16:59.331Z</time>
      </trkpt>
      <trkpt lat="43.98532" lon="7.75557">
        <ele>673.35949707031</ele>
        <time>2018-11-08T07:17:15.686Z</time>
      </trkpt>
      <trkpt lat="43.98527" lon="7.75576">
        <ele>676.62298583984</ele>
        <time>2018-11-08T07:17:32.043Z</time>
      </trkpt>
      <trkpt lat="43.98523" lon="7.75596">
        <ele>677.40612792969</ele>
        <time>2018-11-08T07:17:48.403Z</time>
      </trkpt>
      <trkpt lat="43.98523" lon="7.75636">
        <ele>670.20733642578</ele>
        <time>2018-11-08T07:18:04.767Z</time>
      </trkpt>
      <trkpt lat="43.9852" lon="7.75645">
        <ele>670.13537597656</ele>
        <time>2018-11-08T07:18:21.132Z</time>
      </trkpt>
      <trkpt lat="43.98513" lon="7.75652">
        <ele>672.48693847656</ele>
        <time>2018-11-08T07:18:37.499Z</time>
      </trkpt>
      <trkpt lat="43.98497" lon="7.75664">
        <ele>680.32995605469</ele>
        <time>2018-11-08T07:18:53.869Z</time>
      </trkpt>
      <trkpt lat="43.98489" lon="7.75676">
        <ele>683.55413818359</ele>
        <time>2018-11-08T07:19:10.241Z</time>
      </trkpt>
      <trkpt lat="43.98484" lon="7.75689">
        <ele>684.21405029297</ele>
        <time>2018-11-08T07:19:26.614Z</time>
      </trkpt>
      <trkpt lat="43.98451" lon="7.75781">
        <ele>691.63458251953</ele>
        <time>2018-11-08T07:19:42.999Z</time>
      </trkpt>
      <trkpt lat="43.9844" lon="7.75839">
        <ele>689.47418212891</ele>
        <time>2018-11-08T07:19:59.391Z</time>
      </trkpt>
      <trkpt lat="43.98429" lon="7.75885">
        <ele>687.99841308594</ele>
        <time>2018-11-08T07:20:15.789Z</time>
      </trkpt>
      <trkpt lat="43.98417" lon="7.75918">
        <ele>687.74694824219</ele>
        <time>2018-11-08T07:20:32.191Z</time>
      </trkpt>
      <trkpt lat="43.98417" lon="7.75918">
        <ele>687.73376464844</ele>
        <time>2018-11-08T07:20:48.593Z</time>
      </trkpt>
      <trkpt lat="43.98414" lon="7.75925">
        <ele>687.56494140625</ele>
        <time>2018-11-08T07:21:04.996Z</time>
      </trkpt>
      <trkpt lat="43.98392" lon="7.75969">
        <ele>689.0009765625</ele>
        <time>2018-11-08T07:21:21.405Z</time>
      </trkpt>
      <trkpt lat="43.98355" lon="7.76032">
        <ele>688.17645263672</ele>
        <time>2018-11-08T07:21:37.823Z</time>
      </trkpt>
      <trkpt lat="43.98344" lon="7.7604">
        <ele>686.97668457031</ele>
        <time>2018-11-08T07:21:54.243Z</time>
      </trkpt>
      <trkpt lat="43.98338" lon="7.7604">
        <ele>687.26458740234</ele>
        <time>2018-11-08T07:22:10.664Z</time>
      </trkpt>
      <trkpt lat="43.98325" lon="7.76034">
        <ele>689.18426513672</ele>
        <time>2018-11-08T07:22:27.088Z</time>
      </trkpt>
      <trkpt lat="43.98285" lon="7.76001">
        <ele>698.27099609375</ele>
        <time>2018-11-08T07:22:43.519Z</time>
      </trkpt>
      <trkpt lat="43.98275" lon="7.75996">
        <ele>699.89068603516</ele>
        <time>2018-11-08T07:22:59.952Z</time>
      </trkpt>
      <trkpt lat="43.98265" lon="7.75991">
        <ele>700.10919189453</ele>
        <time>2018-11-08T07:23:16.386Z</time>
      </trkpt>
      <trkpt lat="43.98253" lon="7.7599">
        <ele>699.53961181641</ele>
        <time>2018-11-08T07:23:32.822Z</time>
      </trkpt>
      <trkpt lat="43.98242" lon="7.75991">
        <ele>698.83172607422</ele>
        <time>2018-11-08T07:23:49.260Z</time>
      </trkpt>
      <trkpt lat="43.98205" lon="7.76011">
        <ele>693.13751220703</ele>
        <time>2018-11-08T07:24:05.704Z</time>
      </trkpt>
      <trkpt lat="43.98199" lon="7.76012">
        <ele>692.61865234375</ele>
        <time>2018-11-08T07:24:22.149Z</time>
      </trkpt>
      <trkpt lat="43.98197" lon="7.76008">
        <ele>693.43743896484</ele>
        <time>2018-11-08T07:24:38.595Z</time>
      </trkpt>
      <trkpt lat="43.98197" lon="7.76001">
        <ele>694.87243652344</ele>
        <time>2018-11-08T07:24:55.042Z</time>
      </trkpt>
      <trkpt lat="43.98201" lon="7.75995">
        <ele>696.14422607422</ele>
        <time>2018-11-08T07:25:11.490Z</time>
      </trkpt>
      <trkpt lat="43.98272" lon="7.75926">
        <ele>715.5986328125</ele>
        <time>2018-11-08T07:25:27.952Z</time>
      </trkpt>
      <trkpt lat="43.98299" lon="7.75906">
        <ele>719.21319580078</ele>
        <time>2018-11-08T07:25:44.419Z</time>
      </trkpt>
      <trkpt lat="43.98329" lon="7.7589">
        <ele>721.24591064453</ele>
        <time>2018-11-08T07:26:00.891Z</time>
      </trkpt>
      <trkpt lat="43.98329" lon="7.7589">
        <ele>721.24188232422</ele>
        <time>2018-11-08T07:26:17.363Z</time>
      </trkpt>
      <trkpt lat="43.98332" lon="7.75888">
        <ele>721.17346191406</ele>
        <time>2018-11-08T07:26:33.835Z</time>
      </trkpt>
      <trkpt lat="43.98348" lon="7.75874">
        <ele>721.91735839844</ele>
        <time>2018-11-08T07:26:50.310Z</time>
      </trkpt>
      <trkpt lat="43.98364" lon="7.75851">
        <ele>722.86322021484</ele>
        <time>2018-11-08T07:27:06.789Z</time>
      </trkpt>
      <trkpt lat="43.98374" lon="7.75811">
        <ele>724.70819091797</ele>
        <time>2018-11-08T07:27:23.273Z</time>
      </trkpt>
      <trkpt lat="43.98397" lon="7.75696">
        <ele>728.35168457031</ele>
        <time>2018-11-08T07:27:39.771Z</time>
      </trkpt>
      <trkpt lat="43.98396" lon="7.75683">
        <ele>730.4873046875</ele>
        <time>2018-11-08T07:27:56.270Z</time>
      </trkpt>
      <trkpt lat="43.98392" lon="7.75679">
        <ele>732.69494628906</ele>
        <time>2018-11-08T07:28:12.770Z</time>
      </trkpt>
      <trkpt lat="43.98387" lon="7.75679">
        <ele>734.79461669922</ele>
        <time>2018-11-08T07:28:29.271Z</time>
      </trkpt>
      <trkpt lat="43.9838" lon="7.75686">
        <ele>736.81024169922</ele>
        <time>2018-11-08T07:28:45.773Z</time>
      </trkpt>
      <trkpt lat="43.98376" lon="7.75708">
        <ele>736.50402832031</ele>
        <time>2018-11-08T07:29:02.278Z</time>
      </trkpt>
      <trkpt lat="43.98369" lon="7.75748">
        <ele>736.42004394531</ele>
        <time>2018-11-08T07:29:18.787Z</time>
      </trkpt>
      <trkpt lat="43.98354" lon="7.7579">
        <ele>736.06939697266</ele>
        <time>2018-11-08T07:29:35.302Z</time>
      </trkpt>
      <trkpt lat="43.98343" lon="7.75808">
        <ele>734.97760009766</ele>
        <time>2018-11-08T07:29:51.820Z</time>
      </trkpt>
      <trkpt lat="43.98338" lon="7.75812">
        <ele>735.13354492188</ele>
        <time>2018-11-08T07:30:08.339Z</time>
      </trkpt>
      <trkpt lat="43.98328" lon="7.75814">
        <ele>736.22723388672</ele>
        <time>2018-11-08T07:30:24.859Z</time>
      </trkpt>
      <trkpt lat="43.98313" lon="7.75805">
        <ele>739.82659912109</ele>
        <time>2018-11-08T07:30:41.382Z</time>
      </trkpt>
      <trkpt lat="43.98305" lon="7.75791">
        <ele>743.40203857422</ele>
        <time>2018-11-08T07:30:57.907Z</time>
      </trkpt>
      <trkpt lat="43.98305" lon="7.75782">
        <ele>744.95989990234</ele>
        <time>2018-11-08T07:31:14.433Z</time>
      </trkpt>
      <trkpt lat="43.98314" lon="7.75739">
        <ele>749.89569091797</ele>
        <time>2018-11-08T07:31:30.964Z</time>
      </trkpt>
      <trkpt lat="43.98314" lon="7.75721">
        <ele>752.27130126953</ele>
        <time>2018-11-08T07:31:47.497Z</time>
      </trkpt>
      <trkpt lat="43.98307" lon="7.75663">
        <ele>759.85131835938</ele>
        <time>2018-11-08T07:32:04.037Z</time>
      </trkpt>
      <trkpt lat="43.98305" lon="7.75639">
        <ele>764.57855224609</ele>
        <time>2018-11-08T07:32:20.580Z</time>
      </trkpt>
      <trkpt lat="43.98307" lon="7.75599">
        <ele>769.61566162109</ele>
        <time>2018-11-08T07:32:37.127Z</time>
      </trkpt>
      <trkpt lat="43.98315" lon="7.75554">
        <ele>772.81243896484</ele>
        <time>2018-11-08T07:32:53.680Z</time>
      </trkpt>
      <trkpt lat="43.98315" lon="7.75554">
        <ele>772.8349609375</ele>
        <time>2018-11-08T07:33:10.233Z</time>
      </trkpt>
      <trkpt lat="43.9832" lon="7.75527">
        <ele>774.42413330078</ele>
        <time>2018-11-08T07:33:26.789Z</time>
      </trkpt>
      <trkpt lat="43.98329" lon="7.75478">
        <ele>778.79864501953</ele>
        <time>2018-11-08T07:33:43.351Z</time>
      </trkpt>
      <trkpt lat="43.98334" lon="7.75434">
        <ele>781.27850341797</ele>
        <time>2018-11-08T07:33:59.918Z</time>
      </trkpt>
      <trkpt lat="43.98334" lon="7.75368">
        <ele>787.38165283203</ele>
        <time>2018-11-08T07:34:16.493Z</time>
      </trkpt>
      <trkpt lat="43.98336" lon="7.7535">
        <ele>788.60546875</ele>
        <time>2018-11-08T07:34:33.070Z</time>
      </trkpt>
      <trkpt lat="43.98341" lon="7.75337">
        <ele>788.16143798828</ele>
        <time>2018-11-08T07:34:49.648Z</time>
      </trkpt>
      <trkpt lat="43.98355" lon="7.75311">
        <ele>787.69226074219</ele>
        <time>2018-11-08T07:35:06.230Z</time>
      </trkpt>
      <trkpt lat="43.98368" lon="7.7529">
        <ele>786.84759521484</ele>
        <time>2018-11-08T07:35:22.815Z</time>
      </trkpt>
      <trkpt lat="43.98373" lon="7.75275">
        <ele>787.56744384766</ele>
        <time>2018-11-08T07:35:39.402Z</time>
      </trkpt>
      <trkpt lat="43.9838" lon="7.75242">
        <ele>790.93450927734</ele>
        <time>2018-11-08T07:35:55.993Z</time>
      </trkpt>
      <trkpt lat="43.98383" lon="7.75205">
        <ele>794.6298828125</ele>
        <time>2018-11-08T07:36:12.588Z</time>
      </trkpt>
      <trkpt lat="43.98388" lon="7.75185">
        <ele>796.23748779297</ele>
        <time>2018-11-08T07:36:29.186Z</time>
      </trkpt>
      <trkpt lat="43.98401" lon="7.75155">
        <ele>794.58117675781</ele>
        <time>2018-11-08T07:36:45.788Z</time>
      </trkpt>
      <trkpt lat="43.98441" lon="7.75072">
        <ele>792.23071289062</ele>
        <time>2018-11-08T07:37:02.401Z</time>
      </trkpt>
      <trkpt lat="43.98449" lon="7.75042">
        <ele>791.46099853516</ele>
        <time>2018-11-08T07:37:19.018Z</time>
      </trkpt>
      <trkpt lat="43.98447" lon="7.75024">
        <ele>793.50067138672</ele>
        <time>2018-11-08T07:37:35.637Z</time>
      </trkpt>
      <trkpt lat="43.98441" lon="7.75004">
        <ele>797.14135742188</ele>
        <time>2018-11-08T07:37:52.259Z</time>
      </trkpt>
      <trkpt lat="43.98435" lon="7.74994">
        <ele>800.10455322266</ele>
        <time>2018-11-08T07:38:08.882Z</time>
      </trkpt>
      <trkpt lat="43.98428" lon="7.74988">
        <ele>802.93603515625</ele>
        <time>2018-11-08T07:38:25.507Z</time>
      </trkpt>
      <trkpt lat="43.98414" lon="7.74982">
        <ele>807.69958496094</ele>
        <time>2018-11-08T07:38:42.134Z</time>
      </trkpt>
      <trkpt lat="43.98401" lon="7.74984">
        <ele>810.81909179688</ele>
        <time>2018-11-08T07:38:58.763Z</time>
      </trkpt>
      <trkpt lat="43.98383" lon="7.74993">
        <ele>814.16650390625</ele>
        <time>2018-11-08T07:39:15.395Z</time>
      </trkpt>
      <trkpt lat="43.98364" lon="7.7501">
        <ele>817.01861572266</ele>
        <time>2018-11-08T07:39:32.031Z</time>
      </trkpt>
      <trkpt lat="43.98346" lon="7.75027">
        <ele>821.625</ele>
        <time>2018-11-08T07:39:48.670Z</time>
      </trkpt>
      <trkpt lat="43.98333" lon="7.75043">
        <ele>825.47637939453</ele>
        <time>2018-11-08T07:40:05.312Z</time>
      </trkpt>
      <trkpt lat="43.9833" lon="7.75048">
        <ele>826.20825195312</ele>
        <time>2018-11-08T07:40:21.955Z</time>
      </trkpt>
      <trkpt lat="43.98316" lon="7.75077">
        <ele>826.29412841797</ele>
        <time>2018-11-08T07:40:38.602Z</time>
      </trkpt>
      <trkpt lat="43.98311" lon="7.751">
        <ele>825.94586181641</ele>
        <time>2018-11-08T07:40:55.252Z</time>
      </trkpt>
      <trkpt lat="43.98306" lon="7.75126">
        <ele>826.763671875</ele>
        <time>2018-11-08T07:41:11.905Z</time>
      </trkpt>
      <trkpt lat="43.98306" lon="7.75126">
        <ele>826.73547363281</ele>
        <time>2018-11-08T07:41:28.558Z</time>
      </trkpt>
      <trkpt lat="43.98305" lon="7.7513">
        <ele>826.34875488281</ele>
        <time>2018-11-08T07:41:45.211Z</time>
      </trkpt>
      <trkpt lat="43.98297" lon="7.75154">
        <ele>824.62109375</ele>
        <time>2018-11-08T07:42:01.867Z</time>
      </trkpt>
      <trkpt lat="43.98284" lon="7.75171">
        <ele>824.98248291016</ele>
        <time>2018-11-08T07:42:18.526Z</time>
      </trkpt>
      <trkpt lat="43.98265" lon="7.75185">
        <ele>828.30047607422</ele>
        <time>2018-11-08T07:42:35.188Z</time>
      </trkpt>
      <trkpt lat="43.98235" lon="7.752">
        <ele>836.75909423828</ele>
        <time>2018-11-08T07:42:51.856Z</time>
      </trkpt>
      <trkpt lat="43.98219" lon="7.75205">
        <ele>841.42596435547</ele>
        <time>2018-11-08T07:43:08.526Z</time>
      </trkpt>
      <trkpt lat="43.98211" lon="7.7521">
        <ele>842.90167236328</ele>
        <time>2018-11-08T07:43:25.198Z</time>
      </trkpt>
      <trkpt lat="43.98203" lon="7.75217">
        <ele>843.96954345703</ele>
        <time>2018-11-08T07:43:41.871Z</time>
      </trkpt>
      <trkpt lat="43.982" lon="7.75224">
        <ele>843.47760009766</ele>
        <time>2018-11-08T07:43:58.545Z</time>
      </trkpt>
      <trkpt lat="43.98188" lon="7.75268">
        <ele>840.30535888672</ele>
        <time>2018-11-08T07:44:15.225Z</time>
      </trkpt>
      <trkpt lat="43.9818" lon="7.75293">
        <ele>841.6611328125</ele>
        <time>2018-11-08T07:44:31.908Z</time>
      </trkpt>
      <trkpt lat="43.98172" lon="7.75307">
        <ele>843.94073486328</ele>
        <time>2018-11-08T07:44:48.593Z</time>
      </trkpt>
      <trkpt lat="43.98163" lon="7.7532">
        <ele>844.66052246094</ele>
        <time>2018-11-08T07:45:05.280Z</time>
      </trkpt>
      <trkpt lat="43.98138" lon="7.75342">
        <ele>845.01354980469</ele>
        <time>2018-11-08T07:45:21.972Z</time>
      </trkpt>
      <trkpt lat="43.9811" lon="7.75355">
        <ele>848.83612060547</ele>
        <time>2018-11-08T07:45:38.668Z</time>
      </trkpt>
      <trkpt lat="43.98098" lon="7.75362">
        <ele>845.43621826172</ele>
        <time>2018-11-08T07:45:55.366Z</time>
      </trkpt>
      <trkpt lat="43.98086" lon="7.75379">
        <ele>839.029296875</ele>
        <time>2018-11-08T07:46:12.067Z</time>
      </trkpt>
      <trkpt lat="43.98068" lon="7.75414">
        <ele>823.39367675781</ele>
        <time>2018-11-08T07:46:28.773Z</time>
      </trkpt>
      <trkpt lat="43.98063" lon="7.75413">
        <ele>821.98992919922</ele>
        <time>2018-11-08T07:46:45.480Z</time>
      </trkpt>
      <trkpt lat="43.9806" lon="7.75405">
        <ele>823.63366699219</ele>
        <time>2018-11-08T07:47:02.188Z</time>
      </trkpt>
      <trkpt lat="43.9806" lon="7.754">
        <ele>825.31335449219</ele>
        <time>2018-11-08T07:47:18.896Z</time>
      </trkpt>
      <trkpt lat="43.98108" lon="7.75309">
        <ele>860.88012695312</ele>
        <time>2018-11-08T07:47:35.618Z</time>
      </trkpt>
      <trkpt lat="43.98121" lon="7.75286">
        <ele>864.12127685547</ele>
        <time>2018-11-08T07:47:52.343Z</time>
      </trkpt>
      <trkpt lat="43.98136" lon="7.75232">
        <ele>869.22497558594</ele>
        <time>2018-11-08T07:48:09.075Z</time>
      </trkpt>
      <trkpt lat="43.98137" lon="7.75232">
        <ele>869.25939941406</ele>
        <time>2018-11-08T07:48:25.807Z</time>
      </trkpt>
      <trkpt lat="43.98138" lon="7.75227">
        <ele>869.91827392578</ele>
        <time>2018-11-08T07:48:42.539Z</time>
      </trkpt>
      <trkpt lat="43.9815" lon="7.75166">
        <ele>877.91510009766</ele>
        <time>2018-11-08T07:48:59.279Z</time>
      </trkpt>
      <trkpt lat="43.98162" lon="7.75127">
        <ele>880.57867431641</ele>
        <time>2018-11-08T07:49:16.023Z</time>
      </trkpt>
      <trkpt lat="43.98216" lon="7.75003">
        <ele>883.65264892578</ele>
        <time>2018-11-08T07:49:32.784Z</time>
      </trkpt>
      <trkpt lat="43.98223" lon="7.74979">
        <ele>883.83264160156</ele>
        <time>2018-11-08T07:49:49.548Z</time>
      </trkpt>
      <trkpt lat="43.98231" lon="7.74925">
        <ele>887.86395263672</ele>
        <time>2018-11-08T07:50:06.319Z</time>
      </trkpt>
      <trkpt lat="43.98235" lon="7.74868">
        <ele>879.451171875</ele>
        <time>2018-11-08T07:50:23.096Z</time>
      </trkpt>
      <trkpt lat="43.98233" lon="7.74849">
        <ele>878.85125732422</ele>
        <time>2018-11-08T07:50:39.875Z</time>
      </trkpt>
      <trkpt lat="43.9823" lon="7.7484">
        <ele>879.27282714844</ele>
        <time>2018-11-08T07:50:56.656Z</time>
      </trkpt>
      <trkpt lat="43.9823" lon="7.7484">
        <ele>879.28515625</ele>
        <time>2018-11-08T07:51:13.437Z</time>
      </trkpt>
      <trkpt lat="43.98229" lon="7.74836">
        <ele>878.84368896484</ele>
        <time>2018-11-08T07:51:30.218Z</time>
      </trkpt>
      <trkpt lat="43.98216" lon="7.74819">
        <ele>875.67620849609</ele>
        <time>2018-11-08T07:51:47.002Z</time>
      </trkpt>
      <trkpt lat="43.98209" lon="7.74814">
        <ele>875.96417236328</ele>
        <time>2018-11-08T07:52:03.787Z</time>
      </trkpt>
      <trkpt lat="43.98199" lon="7.74812">
        <ele>878.84368896484</ele>
        <time>2018-11-08T07:52:20.574Z</time>
      </trkpt>
      <trkpt lat="43.98188" lon="7.74813">
        <ele>884.11553955078</ele>
        <time>2018-11-08T07:52:37.362Z</time>
      </trkpt>
      <trkpt lat="43.98167" lon="7.7482">
        <ele>898.73406982422</ele>
        <time>2018-11-08T07:52:54.154Z</time>
      </trkpt>
      <trkpt lat="43.98155" lon="7.74819">
        <ele>904.34918212891</ele>
        <time>2018-11-08T07:53:10.948Z</time>
      </trkpt>
      <trkpt lat="43.98144" lon="7.74815">
        <ele>908.16455078125</ele>
        <time>2018-11-08T07:53:27.744Z</time>
      </trkpt>
      <trkpt lat="43.98129" lon="7.74805">
        <ele>911.40399169922</ele>
        <time>2018-11-08T07:53:44.542Z</time>
      </trkpt>
      <trkpt lat="43.98115" lon="7.74792">
        <ele>912.84375</ele>
        <time>2018-11-08T07:54:01.343Z</time>
      </trkpt>
      <trkpt lat="43.98055" lon="7.74709">
        <ele>917.38348388672</ele>
        <time>2018-11-08T07:54:18.158Z</time>
      </trkpt>
      <trkpt lat="43.98033" lon="7.74674">
        <ele>919.23742675781</ele>
        <time>2018-11-08T07:54:34.978Z</time>
      </trkpt>
      <trkpt lat="43.9802" lon="7.7464">
        <ele>914.84704589844</ele>
        <time>2018-11-08T07:54:51.802Z</time>
      </trkpt>
      <trkpt lat="43.98023" lon="7.74573">
        <ele>895.81311035156</ele>
        <time>2018-11-08T07:55:08.634Z</time>
      </trkpt>
      <trkpt lat="43.9802" lon="7.74565">
        <ele>891.81781005859</ele>
        <time>2018-11-08T07:55:25.467Z</time>
      </trkpt>
      <trkpt lat="43.98015" lon="7.74562">
        <ele>889.25024414062</ele>
        <time>2018-11-08T07:55:42.301Z</time>
      </trkpt>
      <trkpt lat="43.98011" lon="7.74561">
        <ele>887.75048828125</ele>
        <time>2018-11-08T07:55:59.136Z</time>
      </trkpt>
      <trkpt lat="43.98004" lon="7.74566">
        <ele>887.79846191406</ele>
        <time>2018-11-08T07:56:15.972Z</time>
      </trkpt>
      <trkpt lat="43.97948" lon="7.74643">
        <ele>925.39562988281</ele>
        <time>2018-11-08T07:56:32.821Z</time>
      </trkpt>
      <trkpt lat="43.97937" lon="7.74646">
        <ele>928.98120117188</ele>
        <time>2018-11-08T07:56:49.671Z</time>
      </trkpt>
      <trkpt lat="43.97904" lon="7.7464">
        <ele>927.34826660156</ele>
        <time>2018-11-08T07:57:06.527Z</time>
      </trkpt>
      <trkpt lat="43.97879" lon="7.7463">
        <ele>922.72906494141</ele>
        <time>2018-11-08T07:57:23.387Z</time>
      </trkpt>
      <trkpt lat="43.9786" lon="7.74624">
        <ele>920.10150146484</ele>
        <time>2018-11-08T07:57:40.250Z</time>
      </trkpt>
      <trkpt lat="43.97854" lon="7.74625">
        <ele>920.96527099609</ele>
        <time>2018-11-08T07:57:57.114Z</time>
      </trkpt>
      <trkpt lat="43.97829" lon="7.74659">
        <ele>941.02349853516</ele>
        <time>2018-11-08T07:58:13.984Z</time>
      </trkpt>
      <trkpt lat="43.97818" lon="7.74664">
        <ele>944.2509765625</ele>
        <time>2018-11-08T07:58:30.855Z</time>
      </trkpt>
      <trkpt lat="43.97758" lon="7.74651">
        <ele>945.50512695312</ele>
        <time>2018-11-08T07:58:47.736Z</time>
      </trkpt>
      <trkpt lat="43.97728" lon="7.74655">
        <ele>955.12097167969</ele>
        <time>2018-11-08T07:59:04.622Z</time>
      </trkpt>
      <trkpt lat="43.97702" lon="7.74653">
        <ele>960.83203125</ele>
        <time>2018-11-08T07:59:21.512Z</time>
      </trkpt>
      <trkpt lat="43.97688" lon="7.74648">
        <ele>962.73516845703</ele>
        <time>2018-11-08T07:59:38.404Z</time>
      </trkpt>
      <trkpt lat="43.97663" lon="7.74612">
        <ele>957.51605224609</ele>
        <time>2018-11-08T07:59:55.302Z</time>
      </trkpt>
      <trkpt lat="43.97636" lon="7.74586">
        <ele>957.54858398438</ele>
        <time>2018-11-08T08:00:12.206Z</time>
      </trkpt>
      <trkpt lat="43.97544" lon="7.7453">
        <ele>984.89312744141</ele>
        <time>2018-11-08T08:00:29.126Z</time>
      </trkpt>
      <trkpt lat="43.97532" lon="7.74514">
        <ele>987.43670654297</ele>
        <time>2018-11-08T08:00:46.048Z</time>
      </trkpt>
      <trkpt lat="43.97531" lon="7.74502">
        <ele>985.98254394531</ele>
        <time>2018-11-08T08:01:02.972Z</time>
      </trkpt>
      <trkpt lat="43.97546" lon="7.74458">
        <ele>979.83953857422</ele>
        <time>2018-11-08T08:01:19.901Z</time>
      </trkpt>
      <trkpt lat="43.97547" lon="7.74446">
        <ele>979.64758300781</ele>
        <time>2018-11-08T08:01:36.832Z</time>
      </trkpt>
      <trkpt lat="43.97545" lon="7.74418">
        <ele>980.31408691406</ele>
        <time>2018-11-08T08:01:53.766Z</time>
      </trkpt>
      <trkpt lat="43.97538" lon="7.74382">
        <ele>981.76586914062</ele>
        <time>2018-11-08T08:02:10.704Z</time>
      </trkpt>
      <trkpt lat="43.97539" lon="7.74369">
        <ele>980.47009277344</ele>
        <time>2018-11-08T08:02:27.644Z</time>
      </trkpt>
      <trkpt lat="43.9754" lon="7.74357">
        <ele>979.23425292969</ele>
        <time>2018-11-08T08:02:44.585Z</time>
      </trkpt>
      <trkpt lat="43.97556" lon="7.7431">
        <ele>965.54162597656</ele>
        <time>2018-11-08T08:03:01.532Z</time>
      </trkpt>
      <trkpt lat="43.97557" lon="7.743">
        <ele>961.71423339844</ele>
        <time>2018-11-08T08:03:18.480Z</time>
      </trkpt>
      <trkpt lat="43.97555" lon="7.74296">
        <ele>961.01837158203</ele>
        <time>2018-11-08T08:03:35.429Z</time>
      </trkpt>
      <trkpt lat="43.97539" lon="7.74292">
        <ele>965.03057861328</ele>
        <time>2018-11-08T08:03:52.380Z</time>
      </trkpt>
      <trkpt lat="43.97539" lon="7.74292">
        <ele>965.0830078125</ele>
        <time>2018-11-08T08:04:09.331Z</time>
      </trkpt>
      <trkpt lat="43.97495" lon="7.7428">
        <ele>962.47375488281</ele>
        <time>2018-11-08T08:04:26.290Z</time>
      </trkpt>
      <trkpt lat="43.97473" lon="7.74279">
        <ele>959.48626708984</ele>
        <time>2018-11-08T08:04:43.252Z</time>
      </trkpt>
      <trkpt lat="43.97463" lon="7.74284">
        <ele>959.82940673828</ele>
        <time>2018-11-08T08:05:00.216Z</time>
      </trkpt>
      <trkpt lat="43.97445" lon="7.74309">
        <ele>965.33648681641</ele>
        <time>2018-11-08T08:05:17.184Z</time>
      </trkpt>
      <trkpt lat="43.97423" lon="7.74351">
        <ele>975.5556640625</ele>
        <time>2018-11-08T08:05:34.158Z</time>
      </trkpt>
      <trkpt lat="43.97398" lon="7.74424">
        <ele>996.70562744141</ele>
        <time>2018-11-08T08:05:51.141Z</time>
      </trkpt>
      <trkpt lat="43.97388" lon="7.74437">
        <ele>999.09326171875</ele>
        <time>2018-11-08T08:06:08.126Z</time>
      </trkpt>
      <trkpt lat="43.97381" lon="7.74445">
        <ele>1000.6001586914</ele>
        <time>2018-11-08T08:06:25.113Z</time>
      </trkpt>
      <trkpt lat="43.97369" lon="7.74449">
        <ele>1002.1838989258</ele>
        <time>2018-11-08T08:06:42.102Z</time>
      </trkpt>
      <trkpt lat="43.9736" lon="7.74453">
        <ele>1003.7676391602</ele>
        <time>2018-11-08T08:06:59.092Z</time>
      </trkpt>
      <trkpt lat="43.97342" lon="7.74456">
        <ele>1007.8193359375</ele>
        <time>2018-11-08T08:07:16.085Z</time>
      </trkpt>
      <trkpt lat="43.97333" lon="7.74454">
        <ele>1008.6472167969</ele>
        <time>2018-11-08T08:07:33.080Z</time>
      </trkpt>
      <trkpt lat="43.97324" lon="7.74448">
        <ele>1007.8913574219</ele>
        <time>2018-11-08T08:07:50.076Z</time>
      </trkpt>
      <trkpt lat="43.97318" lon="7.74444">
        <ele>1007.3873901367</ele>
        <time>2018-11-08T08:08:07.073Z</time>
      </trkpt>
      <trkpt lat="43.97301" lon="7.74421">
        <ele>1001.3404541016</ele>
        <time>2018-11-08T08:08:24.074Z</time>
      </trkpt>
      <trkpt lat="43.97279" lon="7.74401">
        <ele>997.14410400391</ele>
        <time>2018-11-08T08:08:41.079Z</time>
      </trkpt>
      <trkpt lat="43.97271" lon="7.74405">
        <ele>999.74493408203</ele>
        <time>2018-11-08T08:08:58.086Z</time>
      </trkpt>
      <trkpt lat="43.97262" lon="7.74418">
        <ele>1006.0686645508</ele>
        <time>2018-11-08T08:09:15.095Z</time>
      </trkpt>
      <trkpt lat="43.97247" lon="7.74441">
        <ele>1014.3209228516</ele>
        <time>2018-11-08T08:09:32.107Z</time>
      </trkpt>
      <trkpt lat="43.97242" lon="7.74445">
        <ele>1015.9166259766</ele>
        <time>2018-11-08T08:09:49.120Z</time>
      </trkpt>
      <trkpt lat="43.97223" lon="7.74444">
        <ele>1017.7043457031</ele>
        <time>2018-11-08T08:10:06.136Z</time>
      </trkpt>
      <trkpt lat="43.97202" lon="7.74433">
        <ele>1016.9805297852</ele>
        <time>2018-11-08T08:10:23.156Z</time>
      </trkpt>
      <trkpt lat="43.9717" lon="7.7441">
        <ele>1008.5837402344</ele>
        <time>2018-11-08T08:10:40.182Z</time>
      </trkpt>
      <trkpt lat="43.97151" lon="7.74406">
        <ele>1004.8643798828</ele>
        <time>2018-11-08T08:10:57.211Z</time>
      </trkpt>
      <trkpt lat="43.97135" lon="7.74411">
        <ele>1004.7443847656</ele>
        <time>2018-11-08T08:11:14.242Z</time>
      </trkpt>
      <trkpt lat="43.97121" lon="7.7442">
        <ele>1006.3041381836</ele>
        <time>2018-11-08T08:11:31.276Z</time>
      </trkpt>
      <trkpt lat="43.97111" lon="7.74437">
        <ele>1008.8465576172</ele>
        <time>2018-11-08T08:11:48.312Z</time>
      </trkpt>
      <trkpt lat="43.97102" lon="7.74457">
        <ele>1013.5324707031</ele>
        <time>2018-11-08T08:12:05.351Z</time>
      </trkpt>
      <trkpt lat="43.97086" lon="7.74487">
        <ele>1022.2745361328</ele>
        <time>2018-11-08T08:12:22.395Z</time>
      </trkpt>
      <trkpt lat="43.97077" lon="7.74495">
        <ele>1026.3059082031</ele>
        <time>2018-11-08T08:12:39.440Z</time>
      </trkpt>
      <trkpt lat="43.97059" lon="7.74498">
        <ele>1030.6251220703</ele>
        <time>2018-11-08T08:12:56.488Z</time>
      </trkpt>
      <trkpt lat="43.97037" lon="7.74494">
        <ele>1033.6966552734</ele>
        <time>2018-11-08T08:13:13.540Z</time>
      </trkpt>
      <trkpt lat="43.97023" lon="7.74485">
        <ele>1033.7926025391</ele>
        <time>2018-11-08T08:13:30.594Z</time>
      </trkpt>
      <trkpt lat="43.96995" lon="7.74464">
        <ele>1033.1207275391</ele>
        <time>2018-11-08T08:13:47.653Z</time>
      </trkpt>
      <trkpt lat="43.96983" lon="7.74459">
        <ele>1033.9846191406</ele>
        <time>2018-11-08T08:14:04.714Z</time>
      </trkpt>
      <trkpt lat="43.96973" lon="7.74459">
        <ele>1035.9813232422</ele>
        <time>2018-11-08T08:14:21.777Z</time>
      </trkpt>
      <trkpt lat="43.96962" lon="7.74462">
        <ele>1039.1248779297</ele>
        <time>2018-11-08T08:14:38.842Z</time>
      </trkpt>
      <trkpt lat="43.9693" lon="7.74477">
        <ele>1051.7602539062</ele>
        <time>2018-11-08T08:14:55.912Z</time>
      </trkpt>
      <trkpt lat="43.96901" lon="7.74482">
        <ele>1063.1334228516</ele>
        <time>2018-11-08T08:15:12.987Z</time>
      </trkpt>
      <trkpt lat="43.96889" lon="7.74484">
        <ele>1067.7406005859</ele>
        <time>2018-11-08T08:15:30.064Z</time>
      </trkpt>
      <trkpt lat="43.9688" lon="7.74481">
        <ele>1069.9002685547</ele>
        <time>2018-11-08T08:15:47.142Z</time>
      </trkpt>
      <trkpt lat="43.96874" lon="7.74472">
        <ele>1069.3243408203</ele>
        <time>2018-11-08T08:16:04.222Z</time>
      </trkpt>
      <trkpt lat="43.96868" lon="7.74458">
        <ele>1067.3087158203</ele>
        <time>2018-11-08T08:16:21.303Z</time>
      </trkpt>
      <trkpt lat="43.96861" lon="7.74424">
        <ele>1059.8699951172</ele>
        <time>2018-11-08T08:16:38.389Z</time>
      </trkpt>
      <trkpt lat="43.96855" lon="7.74409">
        <ele>1057.8275146484</ele>
        <time>2018-11-08T08:16:55.477Z</time>
      </trkpt>
      <trkpt lat="43.96851" lon="7.74406">
        <ele>1059.0032958984</ele>
        <time>2018-11-08T08:17:12.565Z</time>
      </trkpt>
      <trkpt lat="43.96843" lon="7.74406">
        <ele>1063.2137451172</ele>
        <time>2018-11-08T08:17:29.655Z</time>
      </trkpt>
      <trkpt lat="43.96832" lon="7.7441">
        <ele>1067.7490234375</ele>
        <time>2018-11-08T08:17:46.746Z</time>
      </trkpt>
      <trkpt lat="43.96809" lon="7.74424">
        <ele>1078.5107421875</ele>
        <time>2018-11-08T08:18:03.841Z</time>
      </trkpt>
      <trkpt lat="43.96801" lon="7.74425">
        <ele>1081.6782226562</ele>
        <time>2018-11-08T08:18:20.938Z</time>
      </trkpt>
      <trkpt lat="43.96776" lon="7.74417">
        <ele>1088.9134521484</ele>
        <time>2018-11-08T08:18:38.039Z</time>
      </trkpt>
      <trkpt lat="43.96772" lon="7.7441">
        <ele>1089.4942626953</ele>
        <time>2018-11-08T08:18:55.141Z</time>
      </trkpt>
      <trkpt lat="43.96768" lon="7.74395">
        <ele>1089.0144042969</ele>
        <time>2018-11-08T08:19:12.245Z</time>
      </trkpt>
      <trkpt lat="43.9676" lon="7.74344">
        <ele>1085.0310058594</ele>
        <time>2018-11-08T08:19:29.355Z</time>
      </trkpt>
      <trkpt lat="43.96755" lon="7.74321">
        <ele>1082.0477294922</ele>
        <time>2018-11-08T08:19:46.467Z</time>
      </trkpt>
      <trkpt lat="43.96756" lon="7.74308">
        <ele>1079.5318603516</ele>
        <time>2018-11-08T08:20:03.581Z</time>
      </trkpt>
      <trkpt lat="43.96769" lon="7.74271">
        <ele>1070.1494140625</ele>
        <time>2018-11-08T08:20:20.700Z</time>
      </trkpt>
      <trkpt lat="43.96771" lon="7.74262">
        <ele>1068.2297363281</ele>
        <time>2018-11-08T08:20:37.820Z</time>
      </trkpt>
      <trkpt lat="43.9677" lon="7.7426">
        <ele>1068.0888671875</ele>
        <time>2018-11-08T08:20:54.940Z</time>
      </trkpt>
      <trkpt lat="43.9677" lon="7.7426">
        <ele>1068.0708007812</ele>
        <time>2018-11-08T08:21:12.060Z</time>
      </trkpt>
      <trkpt lat="43.9677" lon="7.74258">
        <ele>1067.9658203125</ele>
        <time>2018-11-08T08:21:29.180Z</time>
      </trkpt>
      <trkpt lat="43.96766" lon="7.74251">
        <ele>1068.3892822266</ele>
        <time>2018-11-08T08:21:46.301Z</time>
      </trkpt>
      <trkpt lat="43.96762" lon="7.74248">
        <ele>1069.3850097656</ele>
        <time>2018-11-08T08:22:03.423Z</time>
      </trkpt>
      <trkpt lat="43.96755" lon="7.74248">
        <ele>1071.5687255859</ele>
        <time>2018-11-08T08:22:20.546Z</time>
      </trkpt>
      <trkpt lat="43.96715" lon="7.74261">
        <ele>1085.5548095703</ele>
        <time>2018-11-08T08:22:37.676Z</time>
      </trkpt>
      <trkpt lat="43.96699" lon="7.74268">
        <ele>1092.2100830078</ele>
        <time>2018-11-08T08:22:54.808Z</time>
      </trkpt>
      <trkpt lat="43.96687" lon="7.74268">
        <ele>1097.3980712891</ele>
        <time>2018-11-08T08:23:11.942Z</time>
      </trkpt>
      <trkpt lat="43.96678" lon="7.74266">
        <ele>1100.9974365234</ele>
        <time>2018-11-08T08:23:29.078Z</time>
      </trkpt>
      <trkpt lat="43.96675" lon="7.74263">
        <ele>1101.609375</ele>
        <time>2018-11-08T08:23:46.214Z</time>
      </trkpt>
      <trkpt lat="43.96672" lon="7.74257">
        <ele>1101.4653320312</ele>
        <time>2018-11-08T08:24:03.351Z</time>
      </trkpt>
      <trkpt lat="43.96672" lon="7.74242">
        <ele>1099.8562011719</ele>
        <time>2018-11-08T08:24:20.490Z</time>
      </trkpt>
      <trkpt lat="43.96666" lon="7.74175">
        <ele>1097.1215820312</ele>
        <time>2018-11-08T08:24:37.637Z</time>
      </trkpt>
      <trkpt lat="43.96668" lon="7.74149">
        <ele>1095.5650634766</ele>
        <time>2018-11-08T08:24:54.787Z</time>
      </trkpt>
      <trkpt lat="43.96671" lon="7.74134">
        <ele>1095.7712402344</ele>
        <time>2018-11-08T08:25:11.939Z</time>
      </trkpt>
      <trkpt lat="43.96679" lon="7.74104">
        <ele>1095.7712402344</ele>
        <time>2018-11-08T08:25:29.094Z</time>
      </trkpt>
      <trkpt lat="43.96677" lon="7.74069">
        <ele>1100.8333740234</ele>
        <time>2018-11-08T08:25:46.253Z</time>
      </trkpt>
      <trkpt lat="43.96684" lon="7.74055">
        <ele>1100.8333740234</ele>
        <time>2018-11-08T08:26:03.414Z</time>
      </trkpt>
      <trkpt lat="43.96692" lon="7.7405">
        <ele>1098.9442138672</ele>
        <time>2018-11-08T08:26:20.577Z</time>
      </trkpt>
      <trkpt lat="43.96703" lon="7.74047">
        <ele>1095.2247314453</ele>
        <time>2018-11-08T08:26:37.742Z</time>
      </trkpt>
      <trkpt lat="43.96715" lon="7.74046">
        <ele>1090.7855224609</ele>
        <time>2018-11-08T08:26:54.908Z</time>
      </trkpt>
      <trkpt lat="43.96722" lon="7.74042">
        <ele>1088.7698974609</ele>
        <time>2018-11-08T08:27:12.076Z</time>
      </trkpt>
      <trkpt lat="43.96732" lon="7.74027">
        <ele>1089.8100585938</ele>
        <time>2018-11-08T08:27:29.246Z</time>
      </trkpt>
      <trkpt lat="43.96739" lon="7.73983">
        <ele>1100.9919433594</ele>
        <time>2018-11-08T08:27:46.421Z</time>
      </trkpt>
      <trkpt lat="43.96743" lon="7.7397">
        <ele>1103.7579345703</ele>
        <time>2018-11-08T08:28:03.598Z</time>
      </trkpt>
      <trkpt lat="43.96751" lon="7.73959">
        <ele>1105.1376953125</ele>
        <time>2018-11-08T08:28:20.777Z</time>
      </trkpt>
      <trkpt lat="43.96804" lon="7.73894">
        <ele>1109.7574462891</ele>
        <time>2018-11-08T08:28:37.967Z</time>
      </trkpt>
      <trkpt lat="43.96818" lon="7.7388">
        <ele>1109.6600341797</ele>
        <time>2018-11-08T08:28:55.160Z</time>
      </trkpt>
      <trkpt lat="43.96834" lon="7.73868">
        <ele>1110.5718994141</ele>
        <time>2018-11-08T08:29:12.356Z</time>
      </trkpt>
      <trkpt lat="43.96852" lon="7.73863">
        <ele>1108.2322998047</ele>
        <time>2018-11-08T08:29:29.555Z</time>
      </trkpt>
      <trkpt lat="43.96907" lon="7.7386">
        <ele>1101.7124023438</ele>
        <time>2018-11-08T08:29:46.762Z</time>
      </trkpt>
      <trkpt lat="43.96948" lon="7.73863">
        <ele>1094.7188720703</ele>
        <time>2018-11-08T08:30:03.976Z</time>
      </trkpt>
      <trkpt lat="43.96992" lon="7.73863">
        <ele>1088.6854248047</ele>
        <time>2018-11-08T08:30:21.197Z</time>
      </trkpt>
      <trkpt lat="43.96998" lon="7.73861">
        <ele>1088.2055664062</ele>
        <time>2018-11-08T08:30:38.419Z</time>
      </trkpt>
      <trkpt lat="43.97" lon="7.73857">
        <ele>1088.9254150391</ele>
        <time>2018-11-08T08:30:55.642Z</time>
      </trkpt>
      <trkpt lat="43.96999" lon="7.7384">
        <ele>1093.5805664062</ele>
        <time>2018-11-08T08:31:12.867Z</time>
      </trkpt>
      <trkpt lat="43.96984" lon="7.73774">
        <ele>1097.7485351562</ele>
        <time>2018-11-08T08:31:30.100Z</time>
      </trkpt>
      <trkpt lat="43.9698" lon="7.73766">
        <ele>1098.3244628906</ele>
        <time>2018-11-08T08:31:47.334Z</time>
      </trkpt>
      <trkpt lat="43.96943" lon="7.73727">
        <ele>1102.5762939453</ele>
        <time>2018-11-08T08:32:04.575Z</time>
      </trkpt>
      <trkpt lat="43.96886" lon="7.73687">
        <ele>1116.2088623047</ele>
        <time>2018-11-08T08:32:21.826Z</time>
      </trkpt>
      <trkpt lat="43.96863" lon="7.73676">
        <ele>1123.2298583984</ele>
        <time>2018-11-08T08:32:39.081Z</time>
      </trkpt>
      <trkpt lat="43.96853" lon="7.73669">
        <ele>1125.4448242188</ele>
        <time>2018-11-08T08:32:56.338Z</time>
      </trkpt>
      <trkpt lat="43.96847" lon="7.7366">
        <ele>1125.7326660156</ele>
        <time>2018-11-08T08:33:13.596Z</time>
      </trkpt>
      <trkpt lat="43.96838" lon="7.73632">
        <ele>1119.1989746094</ele>
        <time>2018-11-08T08:33:30.858Z</time>
      </trkpt>
      <trkpt lat="43.96832" lon="7.73624">
        <ele>1119.294921875</ele>
        <time>2018-11-08T08:33:48.121Z</time>
      </trkpt>
      <trkpt lat="43.96794" lon="7.73619">
        <ele>1136.5909423828</ele>
        <time>2018-11-08T08:34:05.390Z</time>
      </trkpt>
      <trkpt lat="43.96782" lon="7.73617">
        <ele>1140.6221923828</ele>
        <time>2018-11-08T08:34:22.661Z</time>
      </trkpt>
      <trkpt lat="43.96774" lon="7.73611">
        <ele>1142.2961425781</ele>
        <time>2018-11-08T08:34:39.934Z</time>
      </trkpt>
      <trkpt lat="43.96765" lon="7.73596">
        <ele>1142.2961425781</ele>
        <time>2018-11-08T08:34:57.209Z</time>
      </trkpt>
      <trkpt lat="43.96756" lon="7.73487">
        <ele>1128.0225830078</ele>
        <time>2018-11-08T08:35:14.497Z</time>
      </trkpt>
      <trkpt lat="43.96771" lon="7.73403">
        <ele>1131.9442138672</ele>
        <time>2018-11-08T08:35:31.795Z</time>
      </trkpt>
      <trkpt lat="43.96779" lon="7.73323">
        <ele>1125.5191650391</ele>
        <time>2018-11-08T08:35:49.102Z</time>
      </trkpt>
      <trkpt lat="43.96794" lon="7.73224">
        <ele>1107.8757324219</ele>
        <time>2018-11-08T08:36:06.421Z</time>
      </trkpt>
      <trkpt lat="43.96792" lon="7.73192">
        <ele>1102.2846679688</ele>
        <time>2018-11-08T08:36:23.743Z</time>
      </trkpt>
      <trkpt lat="43.96787" lon="7.73154">
        <ele>1102.8118896484</ele>
        <time>2018-11-08T08:36:41.070Z</time>
      </trkpt>
      <trkpt lat="43.9678" lon="7.73111">
        <ele>1098.5286865234</ele>
        <time>2018-11-08T08:36:58.402Z</time>
      </trkpt>
      <trkpt lat="43.96786" lon="7.73029">
        <ele>1096.232421875</ele>
        <time>2018-11-08T08:37:15.744Z</time>
      </trkpt>
      <trkpt lat="43.96786" lon="7.72959">
        <ele>1093.5424804688</ele>
        <time>2018-11-08T08:37:33.094Z</time>
      </trkpt>
      <trkpt lat="43.96789" lon="7.72936">
        <ele>1093.650390625</ele>
        <time>2018-11-08T08:37:50.446Z</time>
      </trkpt>
      <trkpt lat="43.96799" lon="7.72864">
        <ele>1092.1976318359</ele>
        <time>2018-11-08T08:38:07.807Z</time>
      </trkpt>
      <trkpt lat="43.96805" lon="7.72847">
        <ele>1089.96875</ele>
        <time>2018-11-08T08:38:25.170Z</time>
      </trkpt>
      <trkpt lat="43.96826" lon="7.72816">
        <ele>1089.4842529297</ele>
        <time>2018-11-08T08:38:42.538Z</time>
      </trkpt>
      <trkpt lat="43.9683" lon="7.72806">
        <ele>1088.6680908203</ele>
        <time>2018-11-08T08:38:59.907Z</time>
      </trkpt>
      <trkpt lat="43.96833" lon="7.72782">
        <ele>1085.1767578125</ele>
        <time>2018-11-08T08:39:17.279Z</time>
      </trkpt>
      <trkpt lat="43.96837" lon="7.72759">
        <ele>1082.2491455078</ele>
        <time>2018-11-08T08:39:34.654Z</time>
      </trkpt>
      <trkpt lat="43.96844" lon="7.72737">
        <ele>1081.1170654297</ele>
        <time>2018-11-08T08:39:52.032Z</time>
      </trkpt>
      <trkpt lat="43.96854" lon="7.72719">
        <ele>1084.2845458984</ele>
        <time>2018-11-08T08:40:09.412Z</time>
      </trkpt>
      <trkpt lat="43.96857" lon="7.72708">
        <ele>1084.7644042969</ele>
        <time>2018-11-08T08:40:26.794Z</time>
      </trkpt>
      <trkpt lat="43.96856" lon="7.72701">
        <ele>1083.8791503906</ele>
        <time>2018-11-08T08:40:44.176Z</time>
      </trkpt>
      <trkpt lat="43.96856" lon="7.72701">
        <ele>1083.8402099609</ele>
        <time>2018-11-08T08:41:01.558Z</time>
      </trkpt>
      <trkpt lat="43.96855" lon="7.7269">
        <ele>1082.3168945312</ele>
        <time>2018-11-08T08:41:18.942Z</time>
      </trkpt>
      <trkpt lat="43.96848" lon="7.72683">
        <ele>1078.4534912109</ele>
        <time>2018-11-08T08:41:36.327Z</time>
      </trkpt>
      <trkpt lat="43.96835" lon="7.72678">
        <ele>1071.9505615234</ele>
        <time>2018-11-08T08:41:53.714Z</time>
      </trkpt>
      <trkpt lat="43.96822" lon="7.72673">
        <ele>1065.4476318359</ele>
        <time>2018-11-08T08:42:11.103Z</time>
      </trkpt>
      <trkpt lat="43.96816" lon="7.72667">
        <ele>1062.3853759766</ele>
        <time>2018-11-08T08:42:28.494Z</time>
      </trkpt>
      <trkpt lat="43.96811" lon="7.72655">
        <ele>1059.9018554688</ele>
        <time>2018-11-08T08:42:45.886Z</time>
      </trkpt>
      <trkpt lat="43.9681" lon="7.72634">
        <ele>1059.1818847656</ele>
        <time>2018-11-08T08:43:03.281Z</time>
      </trkpt>
      <trkpt lat="43.96806" lon="7.72588">
        <ele>1059.3309326172</ele>
        <time>2018-11-08T08:43:20.681Z</time>
      </trkpt>
      <trkpt lat="43.96794" lon="7.72529">
        <ele>1054.8636474609</ele>
        <time>2018-11-08T08:43:38.088Z</time>
      </trkpt>
      <trkpt lat="43.96792" lon="7.72494">
        <ele>1056.2155761719</ele>
        <time>2018-11-08T08:43:55.499Z</time>
      </trkpt>
      <trkpt lat="43.96796" lon="7.72444">
        <ele>1067.3737792969</ele>
        <time>2018-11-08T08:44:12.916Z</time>
      </trkpt>
      <trkpt lat="43.96795" lon="7.72433">
        <ele>1067.7659912109</ele>
        <time>2018-11-08T08:44:30.334Z</time>
      </trkpt>
      <trkpt lat="43.9679" lon="7.72421">
        <ele>1066.3022460938</ele>
        <time>2018-11-08T08:44:47.754Z</time>
      </trkpt>
      <trkpt lat="43.96782" lon="7.72413">
        <ele>1065.0251464844</ele>
        <time>2018-11-08T08:45:05.175Z</time>
      </trkpt>
      <trkpt lat="43.96736" lon="7.72401">
        <ele>1052.9055175781</ele>
        <time>2018-11-08T08:45:22.604Z</time>
      </trkpt>
      <trkpt lat="43.967" lon="7.72395">
        <ele>1042.0354003906</ele>
        <time>2018-11-08T08:45:40.039Z</time>
      </trkpt>
      <trkpt lat="43.96681" lon="7.72378">
        <ele>1039.7738037109</ele>
        <time>2018-11-08T08:45:57.477Z</time>
      </trkpt>
      <trkpt lat="43.96635" lon="7.72337">
        <ele>1031.3878173828</ele>
        <time>2018-11-08T08:46:14.924Z</time>
      </trkpt>
      <trkpt lat="43.96611" lon="7.72312">
        <ele>1020.181640625</ele>
        <time>2018-11-08T08:46:32.376Z</time>
      </trkpt>
      <trkpt lat="43.96607" lon="7.72294">
        <ele>1018.6080932617</ele>
        <time>2018-11-08T08:46:49.830Z</time>
      </trkpt>
      <trkpt lat="43.96607" lon="7.72262">
        <ele>1019.3759155273</ele>
        <time>2018-11-08T08:47:07.288Z</time>
      </trkpt>
      <trkpt lat="43.96617" lon="7.72238">
        <ele>1021.116394043</ele>
        <time>2018-11-08T08:47:24.749Z</time>
      </trkpt>
      <trkpt lat="43.96646" lon="7.72183">
        <ele>1021.8658447266</ele>
        <time>2018-11-08T08:47:42.218Z</time>
      </trkpt>
      <trkpt lat="43.96656" lon="7.72148">
        <ele>1017.3636474609</ele>
        <time>2018-11-08T08:47:59.691Z</time>
      </trkpt>
      <trkpt lat="43.96675" lon="7.7211">
        <ele>1016.0708007812</ele>
        <time>2018-11-08T08:48:17.169Z</time>
      </trkpt>
      <trkpt lat="43.96685" lon="7.72093">
        <ele>1016.0827636719</ele>
        <time>2018-11-08T08:48:34.650Z</time>
      </trkpt>
      <trkpt lat="43.96686" lon="7.72065">
        <ele>1016.2089233398</ele>
        <time>2018-11-08T08:48:52.134Z</time>
      </trkpt>
      <trkpt lat="43.96681" lon="7.72046">
        <ele>1015.3210449219</ele>
        <time>2018-11-08T08:49:09.621Z</time>
      </trkpt>
      <trkpt lat="43.96649" lon="7.72018">
        <ele>1005.1467285156</ele>
        <time>2018-11-08T08:49:27.114Z</time>
      </trkpt>
      <trkpt lat="43.96641" lon="7.7201">
        <ele>1002.651184082</ele>
        <time>2018-11-08T08:49:44.608Z</time>
      </trkpt>
      <trkpt lat="43.96635" lon="7.72">
        <ele>1000.9272460938</ele>
        <time>2018-11-08T08:50:02.104Z</time>
      </trkpt>
      <trkpt lat="43.96628" lon="7.71984">
        <ele>998.98358154297</ele>
        <time>2018-11-08T08:50:19.602Z</time>
      </trkpt>
      <trkpt lat="43.96625" lon="7.71963">
        <ele>998.65960693359</ele>
        <time>2018-11-08T08:50:37.102Z</time>
      </trkpt>
      <trkpt lat="43.96621" lon="7.71912">
        <ele>1001.123840332</ele>
        <time>2018-11-08T08:50:54.608Z</time>
      </trkpt>
      <trkpt lat="43.96597" lon="7.71875">
        <ele>997.00640869141</ele>
        <time>2018-11-08T08:51:12.120Z</time>
      </trkpt>
      <trkpt lat="43.96573" lon="7.71836">
        <ele>995.43566894531</ele>
        <time>2018-11-08T08:51:29.638Z</time>
      </trkpt>
      <trkpt lat="43.96565" lon="7.71815">
        <ele>993.98394775391</ele>
        <time>2018-11-08T08:51:47.159Z</time>
      </trkpt>
      <trkpt lat="43.96552" lon="7.71735">
        <ele>996.48529052734</ele>
        <time>2018-11-08T08:52:04.689Z</time>
      </trkpt>
      <trkpt lat="43.96537" lon="7.7168">
        <ele>995.94512939453</ele>
        <time>2018-11-08T08:52:22.226Z</time>
      </trkpt>
      <trkpt lat="43.96511" lon="7.71608">
        <ele>991.42639160156</ele>
        <time>2018-11-08T08:52:39.772Z</time>
      </trkpt>
      <trkpt lat="43.96507" lon="7.71597">
        <ele>990.62249755859</ele>
        <time>2018-11-08T08:52:57.320Z</time>
      </trkpt>
      <trkpt lat="43.96501" lon="7.71591">
        <ele>988.53485107422</ele>
        <time>2018-11-08T08:53:14.869Z</time>
      </trkpt>
      <trkpt lat="43.9647" lon="7.71571">
        <ele>980.26892089844</ele>
        <time>2018-11-08T08:53:32.423Z</time>
      </trkpt>
      <trkpt lat="43.96457" lon="7.71561">
        <ele>977.6533203125</ele>
        <time>2018-11-08T08:53:49.980Z</time>
      </trkpt>
      <trkpt lat="43.96454" lon="7.71546">
        <ele>980.85681152344</ele>
        <time>2018-11-08T08:54:07.538Z</time>
      </trkpt>
      <trkpt lat="43.96457" lon="7.7151">
        <ele>989.52899169922</ele>
        <time>2018-11-08T08:54:25.101Z</time>
      </trkpt>
      <trkpt lat="43.96454" lon="7.71501">
        <ele>990.20825195312</ele>
        <time>2018-11-08T08:54:42.665Z</time>
      </trkpt>
      <trkpt lat="43.96452" lon="7.71499">
        <ele>991.04809570312</ele>
        <time>2018-11-08T08:55:00.229Z</time>
      </trkpt>
      <trkpt lat="43.96442" lon="7.71497">
        <ele>991.31207275391</ele>
        <time>2018-11-08T08:55:17.795Z</time>
      </trkpt>
      <trkpt lat="43.96414" lon="7.71513">
        <ele>991.68194580078</ele>
        <time>2018-11-08T08:55:35.366Z</time>
      </trkpt>
      <trkpt lat="43.96384" lon="7.71538">
        <ele>990.40460205078</ele>
        <time>2018-11-08T08:55:52.942Z</time>
      </trkpt>
      <trkpt lat="43.9628" lon="7.71632">
        <ele>967.04962158203</ele>
        <time>2018-11-08T08:56:10.538Z</time>
      </trkpt>
      <trkpt lat="43.96231" lon="7.71691">
        <ele>954.46459960938</ele>
        <time>2018-11-08T08:56:28.145Z</time>
      </trkpt>
      <trkpt lat="43.96192" lon="7.71723">
        <ele>950.29510498047</ele>
        <time>2018-11-08T08:56:45.759Z</time>
      </trkpt>
      <trkpt lat="43.96178" lon="7.71741">
        <ele>942.6171875</ele>
        <time>2018-11-08T08:57:03.376Z</time>
      </trkpt>
      <trkpt lat="43.96178" lon="7.71741">
        <ele>942.47741699219</ele>
        <time>2018-11-08T08:57:20.993Z</time>
      </trkpt>
      <trkpt lat="43.9615" lon="7.71778">
        <ele>922.42895507812</ele>
        <time>2018-11-08T08:57:38.616Z</time>
      </trkpt>
      <trkpt lat="43.96139" lon="7.71782">
        <ele>919.10546875</ele>
        <time>2018-11-08T08:57:56.241Z</time>
      </trkpt>
      <trkpt lat="43.96133" lon="7.71779">
        <ele>919.03125</ele>
        <time>2018-11-08T08:58:13.867Z</time>
      </trkpt>
      <trkpt lat="43.96088" lon="7.71727">
        <ele>932.82238769531</ele>
        <time>2018-11-08T08:58:31.502Z</time>
      </trkpt>
      <trkpt lat="43.96061" lon="7.71712">
        <ele>934.33636474609</ele>
        <time>2018-11-08T08:58:49.142Z</time>
      </trkpt>
      <trkpt lat="43.96009" lon="7.71713">
        <ele>919.55908203125</ele>
        <time>2018-11-08T08:59:06.790Z</time>
      </trkpt>
      <trkpt lat="43.9596" lon="7.71723">
        <ele>907.60266113281</ele>
        <time>2018-11-08T08:59:24.446Z</time>
      </trkpt>
      <trkpt lat="43.95921" lon="7.71726">
        <ele>895.11901855469</ele>
        <time>2018-11-08T08:59:42.108Z</time>
      </trkpt>
      <trkpt lat="43.95909" lon="7.7172">
        <ele>889.21600341797</ele>
        <time>2018-11-08T08:59:59.772Z</time>
      </trkpt>
      <trkpt lat="43.95904" lon="7.71714">
        <ele>887.34436035156</ele>
        <time>2018-11-08T09:00:17.438Z</time>
      </trkpt>
      <trkpt lat="43.959" lon="7.71706">
        <ele>886.38452148438</ele>
        <time>2018-11-08T09:00:35.105Z</time>
      </trkpt>
      <trkpt lat="43.95899" lon="7.71692">
        <ele>888.16021728516</ele>
        <time>2018-11-08T09:00:52.773Z</time>
      </trkpt>
      <trkpt lat="43.95904" lon="7.71632">
        <ele>903.76696777344</ele>
        <time>2018-11-08T09:01:10.448Z</time>
      </trkpt>
      <trkpt lat="43.95899" lon="7.71615">
        <ele>903.95892333984</ele>
        <time>2018-11-08T09:01:28.125Z</time>
      </trkpt>
      <trkpt lat="43.95888" lon="7.716">
        <ele>900.88739013672</ele>
        <time>2018-11-08T09:01:45.805Z</time>
      </trkpt>
      <trkpt lat="43.95841" lon="7.71572">
        <ele>882.01696777344</ele>
        <time>2018-11-08T09:02:03.493Z</time>
      </trkpt>
      <trkpt lat="43.95837" lon="7.71563">
        <ele>881.51977539062</ele>
        <time>2018-11-08T09:02:21.182Z</time>
      </trkpt>
      <trkpt lat="43.95834" lon="7.71541">
        <ele>884.57922363281</ele>
        <time>2018-11-08T09:02:38.874Z</time>
      </trkpt>
      <trkpt lat="43.95834" lon="7.71523">
        <ele>888.46661376953</ele>
        <time>2018-11-08T09:02:56.568Z</time>
      </trkpt>
      <trkpt lat="43.95837" lon="7.71513">
        <ele>892.31793212891</ele>
        <time>2018-11-08T09:03:14.263Z</time>
      </trkpt>
      <trkpt lat="43.95858" lon="7.71472">
        <ele>907.25463867188</ele>
        <time>2018-11-08T09:03:31.964Z</time>
      </trkpt>
      <trkpt lat="43.95864" lon="7.71449">
        <ele>910.17016601562</ele>
        <time>2018-11-08T09:03:49.668Z</time>
      </trkpt>
      <trkpt lat="43.95868" lon="7.7141">
        <ele>912.11364746094</ele>
        <time>2018-11-08T09:04:07.376Z</time>
      </trkpt>
      <trkpt lat="43.95867" lon="7.71397">
        <ele>909.63006591797</ele>
        <time>2018-11-08T09:04:25.086Z</time>
      </trkpt>
      <trkpt lat="43.9586" lon="7.71386">
        <ele>904.72283935547</ele>
        <time>2018-11-08T09:04:42.798Z</time>
      </trkpt>
      <trkpt lat="43.95851" lon="7.7138">
        <ele>899.763671875</ele>
        <time>2018-11-08T09:05:00.511Z</time>
      </trkpt>
      <trkpt lat="43.95812" lon="7.7137">
        <ele>880.89080810547</ele>
        <time>2018-11-08T09:05:18.230Z</time>
      </trkpt>
      <trkpt lat="43.958" lon="7.71364">
        <ele>874.66168212891</ele>
        <time>2018-11-08T09:05:35.952Z</time>
      </trkpt>
      <trkpt lat="43.95794" lon="7.71357">
        <ele>870.88232421875</ele>
        <time>2018-11-08T09:05:53.675Z</time>
      </trkpt>
      <trkpt lat="43.95785" lon="7.71341">
        <ele>864.38153076172</ele>
        <time>2018-11-08T09:06:11.400Z</time>
      </trkpt>
      <trkpt lat="43.95782" lon="7.71319">
        <ele>870.36004638672</ele>
        <time>2018-11-08T09:06:29.128Z</time>
      </trkpt>
      <trkpt lat="43.95777" lon="7.71288">
        <ele>881.90209960938</ele>
        <time>2018-11-08T09:06:46.859Z</time>
      </trkpt>
      <trkpt lat="43.95768" lon="7.71254">
        <ele>898.00158691406</ele>
        <time>2018-11-08T09:07:04.595Z</time>
      </trkpt>
      <trkpt lat="43.95765" lon="7.71249">
        <ele>901.42913818359</ele>
        <time>2018-11-08T09:07:22.331Z</time>
      </trkpt>
      <trkpt lat="43.95757" lon="7.71246">
        <ele>905.65246582031</ele>
        <time>2018-11-08T09:07:40.069Z</time>
      </trkpt>
      <trkpt lat="43.9574" lon="7.71258">
        <ele>905.96826171875</ele>
        <time>2018-11-08T09:07:57.810Z</time>
      </trkpt>
      <trkpt lat="43.95695" lon="7.71297">
        <ele>898.16564941406</ele>
        <time>2018-11-08T09:08:15.559Z</time>
      </trkpt>
      <trkpt lat="43.95639" lon="7.71343">
        <ele>901.08825683594</ele>
        <time>2018-11-08T09:08:33.319Z</time>
      </trkpt>
      <trkpt lat="43.95618" lon="7.71369">
        <ele>898.16241455078</ele>
        <time>2018-11-08T09:08:51.083Z</time>
      </trkpt>
      <trkpt lat="43.95554" lon="7.71424">
        <ele>890.63415527344</ele>
        <time>2018-11-08T09:09:08.859Z</time>
      </trkpt>
      <trkpt lat="43.95498" lon="7.71482">
        <ele>873.81500244141</ele>
        <time>2018-11-08T09:09:26.646Z</time>
      </trkpt>
      <trkpt lat="43.95478" lon="7.71493">
        <ele>871.51141357422</ele>
        <time>2018-11-08T09:09:44.437Z</time>
      </trkpt>
      <trkpt lat="43.95468" lon="7.71497">
        <ele>870.93548583984</ele>
        <time>2018-11-08T09:10:02.229Z</time>
      </trkpt>
      <trkpt lat="43.9546" lon="7.71496">
        <ele>872.08734130859</ele>
        <time>2018-11-08T09:10:20.023Z</time>
      </trkpt>
      <trkpt lat="43.95416" lon="7.71484">
        <ele>869.97991943359</ele>
        <time>2018-11-08T09:10:37.824Z</time>
      </trkpt>
      <trkpt lat="43.95359" lon="7.7146">
        <ele>860.15356445312</ele>
        <time>2018-11-08T09:10:55.634Z</time>
      </trkpt>
      <trkpt lat="43.95341" lon="7.71449">
        <ele>852.51306152344</ele>
        <time>2018-11-08T09:11:13.448Z</time>
      </trkpt>
      <trkpt lat="43.95322" lon="7.71425">
        <ele>848.3857421875</ele>
        <time>2018-11-08T09:11:31.266Z</time>
      </trkpt>
      <trkpt lat="43.95294" lon="7.71371">
        <ele>833.64526367188</ele>
        <time>2018-11-08T09:11:49.091Z</time>
      </trkpt>
      <trkpt lat="43.9529" lon="7.71356">
        <ele>831.67761230469</ele>
        <time>2018-11-08T09:12:06.918Z</time>
      </trkpt>
      <trkpt lat="43.9529" lon="7.71343">
        <ele>832.06939697266</ele>
        <time>2018-11-08T09:12:24.747Z</time>
      </trkpt>
      <trkpt lat="43.95291" lon="7.71328">
        <ele>831.36755371094</ele>
        <time>2018-11-08T09:12:42.578Z</time>
      </trkpt>
      <trkpt lat="43.95298" lon="7.7131">
        <ele>832.87933349609</ele>
        <time>2018-11-08T09:13:00.411Z</time>
      </trkpt>
      <trkpt lat="43.95321" lon="7.71243">
        <ele>829.26867675781</ele>
        <time>2018-11-08T09:13:18.252Z</time>
      </trkpt>
      <trkpt lat="43.95362" lon="7.71197">
        <ele>834.8134765625</ele>
        <time>2018-11-08T09:13:36.102Z</time>
      </trkpt>
      <trkpt lat="43.95373" lon="7.71178">
        <ele>833.85614013672</ele>
        <time>2018-11-08T09:13:53.955Z</time>
      </trkpt>
      <trkpt lat="43.95383" lon="7.71142">
        <ele>827.38116455078</ele>
        <time>2018-11-08T09:14:11.812Z</time>
      </trkpt>
      <trkpt lat="43.95397" lon="7.7112">
        <ele>828.53625488281</ele>
        <time>2018-11-08T09:14:29.673Z</time>
      </trkpt>
      <trkpt lat="43.95401" lon="7.71107">
        <ele>828.39227294922</ele>
        <time>2018-11-08T09:14:47.535Z</time>
      </trkpt>
      <trkpt lat="43.95399" lon="7.71072">
        <ele>825.66943359375</ele>
        <time>2018-11-08T09:15:05.401Z</time>
      </trkpt>
      <trkpt lat="43.95406" lon="7.71044">
        <ele>833.00927734375</ele>
        <time>2018-11-08T09:15:23.271Z</time>
      </trkpt>
      <trkpt lat="43.95413" lon="7.7103">
        <ele>836.28472900391</ele>
        <time>2018-11-08T09:15:41.143Z</time>
      </trkpt>
      <trkpt lat="43.95415" lon="7.7102">
        <ele>837.29254150391</ele>
        <time>2018-11-08T09:15:59.016Z</time>
      </trkpt>
      <trkpt lat="43.95405" lon="7.70974">
        <ele>845.80029296875</ele>
        <time>2018-11-08T09:16:16.894Z</time>
      </trkpt>
      <trkpt lat="43.95398" lon="7.70967">
        <ele>845.71630859375</ele>
        <time>2018-11-08T09:16:34.774Z</time>
      </trkpt>
      <trkpt lat="43.95379" lon="7.70965">
        <ele>838.14556884766</ele>
        <time>2018-11-08T09:16:52.657Z</time>
      </trkpt>
      <trkpt lat="43.9535" lon="7.70963">
        <ele>827.86346435547</ele>
        <time>2018-11-08T09:17:10.544Z</time>
      </trkpt>
      <trkpt lat="43.95344" lon="7.70959">
        <ele>828.29534912109</ele>
        <time>2018-11-08T09:17:28.433Z</time>
      </trkpt>
      <trkpt lat="43.95337" lon="7.70952">
        <ele>829.80712890625</ele>
        <time>2018-11-08T09:17:46.323Z</time>
      </trkpt>
      <trkpt lat="43.95329" lon="7.70929">
        <ele>838.01373291016</ele>
        <time>2018-11-08T09:18:04.216Z</time>
      </trkpt>
      <trkpt lat="43.95321" lon="7.70922">
        <ele>839.3095703125</ele>
        <time>2018-11-08T09:18:22.110Z</time>
      </trkpt>
      <trkpt lat="43.95284" lon="7.7091">
        <ele>837.72216796875</ele>
        <time>2018-11-08T09:18:40.010Z</time>
      </trkpt>
      <trkpt lat="43.9527" lon="7.7091">
        <ele>834.44476318359</ele>
        <time>2018-11-08T09:18:57.913Z</time>
      </trkpt>
      <trkpt lat="43.95258" lon="7.70913">
        <ele>828.93389892578</ele>
        <time>2018-11-08T09:19:15.818Z</time>
      </trkpt>
      <trkpt lat="43.95232" lon="7.70925">
        <ele>812.97247314453</ele>
        <time>2018-11-08T09:19:33.727Z</time>
      </trkpt>
      <trkpt lat="43.95217" lon="7.70925">
        <ele>807.93334960938</ele>
        <time>2018-11-08T09:19:51.638Z</time>
      </trkpt>
      <trkpt lat="43.95204" lon="7.70917">
        <ele>808.34533691406</ele>
        <time>2018-11-08T09:20:09.552Z</time>
      </trkpt>
      <trkpt lat="43.95199" lon="7.70905">
        <ele>814.00842285156</ele>
        <time>2018-11-08T09:20:27.467Z</time>
      </trkpt>
      <trkpt lat="43.9519" lon="7.70885">
        <ele>823.20159912109</ele>
        <time>2018-11-08T09:20:45.385Z</time>
      </trkpt>
      <trkpt lat="43.9518" lon="7.70874">
        <ele>826.33312988281</ele>
        <time>2018-11-08T09:21:03.305Z</time>
      </trkpt>
      <trkpt lat="43.95171" lon="7.70867">
        <ele>827.376953125</ele>
        <time>2018-11-08T09:21:21.227Z</time>
      </trkpt>
      <trkpt lat="43.95157" lon="7.70866">
        <ele>822.94964599609</ele>
        <time>2018-11-08T09:21:39.151Z</time>
      </trkpt>
      <trkpt lat="43.95118" lon="7.70863">
        <ele>810.37060546875</ele>
        <time>2018-11-08T09:21:57.081Z</time>
      </trkpt>
      <trkpt lat="43.95095" lon="7.70861">
        <ele>803.41357421875</ele>
        <time>2018-11-08T09:22:15.015Z</time>
      </trkpt>
      <trkpt lat="43.95093" lon="7.7086">
        <ele>803.37756347656</ele>
        <time>2018-11-08T09:22:32.949Z</time>
      </trkpt>
      <trkpt lat="43.95088" lon="7.7085">
        <ele>808.05682373047</ele>
        <time>2018-11-08T09:22:50.885Z</time>
      </trkpt>
      <trkpt lat="43.95076" lon="7.70838">
        <ele>811.65618896484</ele>
        <time>2018-11-08T09:23:08.823Z</time>
      </trkpt>
      <trkpt lat="43.95064" lon="7.70835">
        <ele>808.72351074219</ele>
        <time>2018-11-08T09:23:26.763Z</time>
      </trkpt>
      <trkpt lat="43.95047" lon="7.70839">
        <ele>801.27795410156</ele>
        <time>2018-11-08T09:23:44.706Z</time>
      </trkpt>
      <trkpt lat="43.95004" lon="7.70844">
        <ele>782.662109375</ele>
        <time>2018-11-08T09:24:02.656Z</time>
      </trkpt>
      <trkpt lat="43.94987" lon="7.70845">
        <ele>774.8154296875</ele>
        <time>2018-11-08T09:24:20.608Z</time>
      </trkpt>
      <trkpt lat="43.94971" lon="7.70835">
        <ele>772.15655517578</ele>
        <time>2018-11-08T09:24:38.563Z</time>
      </trkpt>
      <trkpt lat="43.94967" lon="7.70822">
        <ele>771.36468505859</ele>
        <time>2018-11-08T09:24:56.520Z</time>
      </trkpt>
      <trkpt lat="43.94967" lon="7.70764">
        <ele>777.41546630859</ele>
        <time>2018-11-08T09:25:14.484Z</time>
      </trkpt>
      <trkpt lat="43.94975" lon="7.70729">
        <ele>792.95446777344</ele>
        <time>2018-11-08T09:25:32.452Z</time>
      </trkpt>
      <trkpt lat="43.94975" lon="7.70716">
        <ele>797.78961181641</ele>
        <time>2018-11-08T09:25:50.421Z</time>
      </trkpt>
      <trkpt lat="43.94971" lon="7.70706">
        <ele>799.30139160156</ele>
        <time>2018-11-08T09:26:08.392Z</time>
      </trkpt>
      <trkpt lat="43.94953" lon="7.70687">
        <ele>796.21313476562</ele>
        <time>2018-11-08T09:26:26.366Z</time>
      </trkpt>
      <trkpt lat="43.94952" lon="7.70687">
        <ele>796.18511962891</ele>
        <time>2018-11-08T09:26:44.340Z</time>
      </trkpt>
      <trkpt lat="43.94942" lon="7.70676">
        <ele>794.45422363281</ele>
        <time>2018-11-08T09:27:02.316Z</time>
      </trkpt>
      <trkpt lat="43.94929" lon="7.70671">
        <ele>794.25469970703</ele>
        <time>2018-11-08T09:27:20.295Z</time>
      </trkpt>
      <trkpt lat="43.94878" lon="7.70674">
        <ele>787.01989746094</ele>
        <time>2018-11-08T09:27:38.282Z</time>
      </trkpt>
      <trkpt lat="43.94848" lon="7.70679">
        <ele>781.30139160156</ele>
        <time>2018-11-08T09:27:56.274Z</time>
      </trkpt>
      <trkpt lat="43.94835" lon="7.70676">
        <ele>782.50122070312</ele>
        <time>2018-11-08T09:28:14.268Z</time>
      </trkpt>
      <trkpt lat="43.94826" lon="7.70671">
        <ele>784.80480957031</ele>
        <time>2018-11-08T09:28:32.263Z</time>
      </trkpt>
      <trkpt lat="43.94809" lon="7.70673">
        <ele>783.38903808594</ele>
        <time>2018-11-08T09:28:50.261Z</time>
      </trkpt>
      <trkpt lat="43.94798" lon="7.70681">
        <ele>779.09375</ele>
        <time>2018-11-08T09:29:08.261Z</time>
      </trkpt>
      <trkpt lat="43.94783" lon="7.70695">
        <ele>773.02453613281</ele>
        <time>2018-11-08T09:29:26.264Z</time>
      </trkpt>
      <trkpt lat="43.94773" lon="7.70702">
        <ele>770.09204101562</ele>
        <time>2018-11-08T09:29:44.269Z</time>
      </trkpt>
      <trkpt lat="43.94763" lon="7.70706">
        <ele>763.85308837891</ele>
        <time>2018-11-08T09:30:02.275Z</time>
      </trkpt>
      <trkpt lat="43.94753" lon="7.70707">
        <ele>758.87390136719</ele>
        <time>2018-11-08T09:30:20.283Z</time>
      </trkpt>
      <trkpt lat="43.94738" lon="7.70699">
        <ele>755.39453125</ele>
        <time>2018-11-08T09:30:38.293Z</time>
      </trkpt>
      <trkpt lat="43.94728" lon="7.70693">
        <ele>753.35485839844</ele>
        <time>2018-11-08T09:30:56.305Z</time>
      </trkpt>
      <trkpt lat="43.94716" lon="7.70695">
        <ele>747.04388427734</ele>
        <time>2018-11-08T09:31:14.319Z</time>
      </trkpt>
      <trkpt lat="43.94693" lon="7.70712">
        <ele>741.31903076172</ele>
        <time>2018-11-08T09:31:32.337Z</time>
      </trkpt>
      <trkpt lat="43.94673" lon="7.70718">
        <ele>729.14971923828</ele>
        <time>2018-11-08T09:31:50.359Z</time>
      </trkpt>
      <trkpt lat="43.94667" lon="7.70716">
        <ele>725.64630126953</ele>
        <time>2018-11-08T09:32:08.382Z</time>
      </trkpt>
      <trkpt lat="43.94664" lon="7.70712">
        <ele>724.25457763672</ele>
        <time>2018-11-08T09:32:26.405Z</time>
      </trkpt>
      <trkpt lat="43.94663" lon="7.70701">
        <ele>724.95043945312</ele>
        <time>2018-11-08T09:32:44.429Z</time>
      </trkpt>
      <trkpt lat="43.94664" lon="7.70693">
        <ele>726.5341796875</ele>
        <time>2018-11-08T09:33:02.454Z</time>
      </trkpt>
      <trkpt lat="43.9467" lon="7.7068">
        <ele>731.83728027344</ele>
        <time>2018-11-08T09:33:20.481Z</time>
      </trkpt>
      <trkpt lat="43.94674" lon="7.70664">
        <ele>734.19384765625</ele>
        <time>2018-11-08T09:33:38.510Z</time>
      </trkpt>
      <trkpt lat="43.94675" lon="7.70642">
        <ele>732.28485107422</ele>
        <time>2018-11-08T09:33:56.542Z</time>
      </trkpt>
      <trkpt lat="43.94677" lon="7.70601">
        <ele>732.41687011719</ele>
        <time>2018-11-08T09:34:14.578Z</time>
      </trkpt>
      <trkpt lat="43.9468" lon="7.70584">
        <ele>734.51684570312</ele>
        <time>2018-11-08T09:34:32.616Z</time>
      </trkpt>
      <trkpt lat="43.94685" lon="7.70561">
        <ele>738.99334716797</ele>
        <time>2018-11-08T09:34:50.657Z</time>
      </trkpt>
      <trkpt lat="43.94684" lon="7.7052">
        <ele>738.74139404297</ele>
        <time>2018-11-08T09:35:08.703Z</time>
      </trkpt>
      <trkpt lat="43.94679" lon="7.70505">
        <ele>735.20196533203</ele>
        <time>2018-11-08T09:35:26.751Z</time>
      </trkpt>
      <trkpt lat="43.94666" lon="7.70482">
        <ele>733.00805664062</ele>
        <time>2018-11-08T09:35:44.802Z</time>
      </trkpt>
      <trkpt lat="43.9465" lon="7.70465">
        <ele>727.02105712891</ele>
        <time>2018-11-08T09:36:02.857Z</time>
      </trkpt>
      <trkpt lat="43.94636" lon="7.70438">
        <ele>722.68469238281</ele>
        <time>2018-11-08T09:36:20.915Z</time>
      </trkpt>
      <trkpt lat="43.9462" lon="7.70408">
        <ele>715.83856201172</ele>
        <time>2018-11-08T09:36:38.978Z</time>
      </trkpt>
      <trkpt lat="43.94613" lon="7.70394">
        <ele>712.14318847656</ele>
        <time>2018-11-08T09:36:57.043Z</time>
      </trkpt>
      <trkpt lat="43.94614" lon="7.70384">
        <ele>712.09521484375</ele>
        <time>2018-11-08T09:37:15.109Z</time>
      </trkpt>
      <trkpt lat="43.9462" lon="7.70375">
        <ele>714.25482177734</ele>
        <time>2018-11-08T09:37:33.176Z</time>
      </trkpt>
      <trkpt lat="43.94653" lon="7.7034">
        <ele>718.20416259766</ele>
        <time>2018-11-08T09:37:51.250Z</time>
      </trkpt>
      <trkpt lat="43.94689" lon="7.70324">
        <ele>720.87414550781</ele>
        <time>2018-11-08T09:38:09.330Z</time>
      </trkpt>
      <trkpt lat="43.94702" lon="7.70315">
        <ele>722.20581054688</ele>
        <time>2018-11-08T09:38:27.412Z</time>
      </trkpt>
      <trkpt lat="43.94708" lon="7.703">
        <ele>718.96636962891</ele>
        <time>2018-11-08T09:38:45.496Z</time>
      </trkpt>
      <trkpt lat="43.94704" lon="7.70254">
        <ele>701.12042236328</ele>
        <time>2018-11-08T09:39:03.586Z</time>
      </trkpt>
      <trkpt lat="43.94707" lon="7.70238">
        <ele>697.03851318359</ele>
        <time>2018-11-08T09:39:21.678Z</time>
      </trkpt>
      <trkpt lat="43.94713" lon="7.70228">
        <ele>696.03063964844</ele>
        <time>2018-11-08T09:39:39.771Z</time>
      </trkpt>
      <trkpt lat="43.94721" lon="7.70221">
        <ele>696.73852539062</ele>
        <time>2018-11-08T09:39:57.866Z</time>
      </trkpt>
      <trkpt lat="43.94726" lon="7.70217">
        <ele>697.30242919922</ele>
        <time>2018-11-08T09:40:15.961Z</time>
      </trkpt>
      <trkpt lat="43.94766" lon="7.70204">
        <ele>704.5048828125</ele>
        <time>2018-11-08T09:40:34.063Z</time>
      </trkpt>
      <trkpt lat="43.94796" lon="7.70192">
        <ele>707.19958496094</ele>
        <time>2018-11-08T09:40:52.170Z</time>
      </trkpt>
      <trkpt lat="43.94816" lon="7.70184">
        <ele>710.74346923828</ele>
        <time>2018-11-08T09:41:10.280Z</time>
      </trkpt>
      <trkpt lat="43.94828" lon="7.70175">
        <ele>711.46331787109</ele>
        <time>2018-11-08T09:41:28.393Z</time>
      </trkpt>
      <trkpt lat="43.94835" lon="7.7016">
        <ele>709.69244384766</ele>
        <time>2018-11-08T09:41:46.508Z</time>
      </trkpt>
      <trkpt lat="43.94831" lon="7.70147">
        <ele>705.48114013672</ele>
        <time>2018-11-08T09:42:04.624Z</time>
      </trkpt>
      <trkpt lat="43.94806" lon="7.70105">
        <ele>691.35913085938</ele>
        <time>2018-11-08T09:42:22.747Z</time>
      </trkpt>
      <trkpt lat="43.94797" lon="7.70078">
        <ele>687.65502929688</ele>
        <time>2018-11-08T09:42:40.873Z</time>
      </trkpt>
      <trkpt lat="43.94799" lon="7.70049">
        <ele>692.23828125</ele>
        <time>2018-11-08T09:42:59.002Z</time>
      </trkpt>
      <trkpt lat="43.94795" lon="7.70001">
        <ele>695.88153076172</ele>
        <time>2018-11-08T09:43:17.137Z</time>
      </trkpt>
      <trkpt lat="43.94788" lon="7.69966">
        <ele>705.20397949219</ele>
        <time>2018-11-08T09:43:35.276Z</time>
      </trkpt>
      <trkpt lat="43.94771" lon="7.69965">
        <ele>697.20599365234</ele>
        <time>2018-11-08T09:43:53.418Z</time>
      </trkpt>
      <trkpt lat="43.94747" lon="7.69966">
        <ele>688.77136230469</ele>
        <time>2018-11-08T09:44:11.564Z</time>
      </trkpt>
      <trkpt lat="43.94738" lon="7.69965">
        <ele>686.11981201172</ele>
        <time>2018-11-08T09:44:29.711Z</time>
      </trkpt>
      <trkpt lat="43.94726" lon="7.69956">
        <ele>685.37841796875</ele>
        <time>2018-11-08T09:44:47.860Z</time>
      </trkpt>
      <trkpt lat="43.9471" lon="7.6993">
        <ele>689.73120117188</ele>
        <time>2018-11-08T09:45:06.013Z</time>
      </trkpt>
      <trkpt lat="43.94705" lon="7.69927">
        <ele>689.16729736328</ele>
        <time>2018-11-08T09:45:24.167Z</time>
      </trkpt>
      <trkpt lat="43.94694" lon="7.69927">
        <ele>685.19842529297</ele>
        <time>2018-11-08T09:45:42.323Z</time>
      </trkpt>
      <trkpt lat="43.94683" lon="7.69929">
        <ele>679.16809082031</ele>
        <time>2018-11-08T09:46:00.481Z</time>
      </trkpt>
      <trkpt lat="43.9467" lon="7.69924">
        <ele>674.99279785156</ele>
        <time>2018-11-08T09:46:18.641Z</time>
      </trkpt>
      <trkpt lat="43.94656" lon="7.6991">
        <ele>672.52062988281</ele>
        <time>2018-11-08T09:46:36.804Z</time>
      </trkpt>
      <trkpt lat="43.94632" lon="7.69892">
        <ele>665.4658203125</ele>
        <time>2018-11-08T09:46:54.971Z</time>
      </trkpt>
      <trkpt lat="43.94631" lon="7.6989">
        <ele>665.50183105469</ele>
        <time>2018-11-08T09:47:13.138Z</time>
      </trkpt>
      <trkpt lat="43.94629" lon="7.69864">
        <ele>671.380859375</ele>
        <time>2018-11-08T09:47:31.308Z</time>
      </trkpt>
      <trkpt lat="43.94629" lon="7.69845">
        <ele>677.18792724609</ele>
        <time>2018-11-08T09:47:49.480Z</time>
      </trkpt>
      <trkpt lat="43.94626" lon="7.69815">
        <ele>683.95147705078</ele>
        <time>2018-11-08T09:48:07.656Z</time>
      </trkpt>
      <trkpt lat="43.9462" lon="7.69803">
        <ele>683.80749511719</ele>
        <time>2018-11-08T09:48:25.834Z</time>
      </trkpt>
      <trkpt lat="43.94616" lon="7.698">
        <ele>682.25762939453</ele>
        <time>2018-11-08T09:48:44.012Z</time>
      </trkpt>
      <trkpt lat="43.94615" lon="7.69799">
        <ele>682.19439697266</ele>
        <time>2018-11-08T09:49:02.190Z</time>
      </trkpt>
      <trkpt lat="43.94611" lon="7.69796">
        <ele>680.68798828125</ele>
        <time>2018-11-08T09:49:20.369Z</time>
      </trkpt>
      <trkpt lat="43.94602" lon="7.69793">
        <ele>675.92364501953</ele>
        <time>2018-11-08T09:49:38.550Z</time>
      </trkpt>
      <trkpt lat="43.94595" lon="7.69793">
        <ele>671.30444335938</ele>
        <time>2018-11-08T09:49:56.732Z</time>
      </trkpt>
      <trkpt lat="43.94577" lon="7.69787">
        <ele>661.01013183594</ele>
        <time>2018-11-08T09:50:14.917Z</time>
      </trkpt>
      <trkpt lat="43.94563" lon="7.69781">
        <ele>653.35540771484</ele>
        <time>2018-11-08T09:50:33.104Z</time>
      </trkpt>
      <trkpt lat="43.94561" lon="7.69775">
        <ele>653.61938476562</ele>
        <time>2018-11-08T09:50:51.292Z</time>
      </trkpt>
      <trkpt lat="43.94563" lon="7.6968">
        <ele>682.49462890625</ele>
        <time>2018-11-08T09:51:09.491Z</time>
      </trkpt>
      <trkpt lat="43.9456" lon="7.69674">
        <ele>682.27868652344</ele>
        <time>2018-11-08T09:51:27.691Z</time>
      </trkpt>
      <trkpt lat="43.94552" lon="7.69668">
        <ele>679.53155517578</ele>
        <time>2018-11-08T09:51:45.892Z</time>
      </trkpt>
      <trkpt lat="43.9452" lon="7.69657">
        <ele>667.33099365234</ele>
        <time>2018-11-08T09:52:04.099Z</time>
      </trkpt>
      <trkpt lat="43.94489" lon="7.69637">
        <ele>670.19152832031</ele>
        <time>2018-11-08T09:52:22.311Z</time>
      </trkpt>
      <trkpt lat="43.94486" lon="7.6963">
        <ele>673.49798583984</ele>
        <time>2018-11-08T09:52:40.524Z</time>
      </trkpt>
      <trkpt lat="43.94477" lon="7.69604">
        <ele>685.98791503906</ele>
        <time>2018-11-08T09:52:58.740Z</time>
      </trkpt>
      <trkpt lat="43.94472" lon="7.69595">
        <ele>689.79125976562</ele>
        <time>2018-11-08T09:53:16.958Z</time>
      </trkpt>
      <trkpt lat="43.94463" lon="7.69591">
        <ele>689.611328125</ele>
        <time>2018-11-08T09:53:35.177Z</time>
      </trkpt>
      <trkpt lat="43.9444" lon="7.69593">
        <ele>681.6875</ele>
        <time>2018-11-08T09:53:53.400Z</time>
      </trkpt>
      <trkpt lat="43.94412" lon="7.69602">
        <ele>663.97845458984</ele>
        <time>2018-11-08T09:54:11.627Z</time>
      </trkpt>
      <trkpt lat="43.94369" lon="7.69606">
        <ele>645.06213378906</ele>
        <time>2018-11-08T09:54:29.861Z</time>
      </trkpt>
      <trkpt lat="43.94358" lon="7.69607">
        <ele>642.99847412109</ele>
        <time>2018-11-08T09:54:48.097Z</time>
      </trkpt>
      <trkpt lat="43.94353" lon="7.69605">
        <ele>640.90240478516</ele>
        <time>2018-11-08T09:55:06.334Z</time>
      </trkpt>
      <trkpt lat="43.94347" lon="7.69596">
        <ele>640.36254882812</ele>
        <time>2018-11-08T09:55:24.572Z</time>
      </trkpt>
      <trkpt lat="43.94332" lon="7.6955">
        <ele>644.61572265625</ele>
        <time>2018-11-08T09:55:42.816Z</time>
      </trkpt>
      <trkpt lat="43.94317" lon="7.69525">
        <ele>642.57611083984</ele>
        <time>2018-11-08T09:56:01.064Z</time>
      </trkpt>
      <trkpt lat="43.94298" lon="7.69502">
        <ele>636.92901611328</ele>
        <time>2018-11-08T09:56:19.316Z</time>
      </trkpt>
      <trkpt lat="43.94288" lon="7.69483">
        <ele>634.07348632812</ele>
        <time>2018-11-08T09:56:37.571Z</time>
      </trkpt>
      <trkpt lat="43.94278" lon="7.69421">
        <ele>640.33319091797</ele>
        <time>2018-11-08T09:56:55.833Z</time>
      </trkpt>
      <trkpt lat="43.94271" lon="7.69404">
        <ele>640.52416992188</ele>
        <time>2018-11-08T09:57:14.097Z</time>
      </trkpt>
      <trkpt lat="43.94254" lon="7.69387">
        <ele>633.99725341797</ele>
        <time>2018-11-08T09:57:32.365Z</time>
      </trkpt>
      <trkpt lat="43.94202" lon="7.69294">
        <ele>617.66607666016</ele>
        <time>2018-11-08T09:57:50.646Z</time>
      </trkpt>
      <trkpt lat="43.94186" lon="7.69275">
        <ele>608.85278320312</ele>
        <time>2018-11-08T09:58:08.931Z</time>
      </trkpt>
      <trkpt lat="43.94182" lon="7.69268">
        <ele>606.93310546875</ele>
        <time>2018-11-08T09:58:27.217Z</time>
      </trkpt>
      <trkpt lat="43.9418" lon="7.69257">
        <ele>606.69317626953</ele>
        <time>2018-11-08T09:58:45.504Z</time>
      </trkpt>
      <trkpt lat="43.94179" lon="7.69229">
        <ele>608.01092529297</ele>
        <time>2018-11-08T09:59:03.794Z</time>
      </trkpt>
      <trkpt lat="43.9418" lon="7.69214">
        <ele>609.75061035156</ele>
        <time>2018-11-08T09:59:22.086Z</time>
      </trkpt>
      <trkpt lat="43.94179" lon="7.69201">
        <ele>610.02655029297</ele>
        <time>2018-11-08T09:59:40.379Z</time>
      </trkpt>
      <trkpt lat="43.94171" lon="7.69155">
        <ele>610.20098876953</ele>
        <time>2018-11-08T09:59:58.678Z</time>
      </trkpt>
      <trkpt lat="43.94163" lon="7.69121">
        <ele>605.91784667969</ele>
        <time>2018-11-08T10:00:16.981Z</time>
      </trkpt>
      <trkpt lat="43.94162" lon="7.69108">
        <ele>604.46612548828</ele>
        <time>2018-11-08T10:00:35.286Z</time>
      </trkpt>
      <trkpt lat="43.94165" lon="7.69094">
        <ele>604.3701171875</ele>
        <time>2018-11-08T10:00:53.592Z</time>
      </trkpt>
      <trkpt lat="43.94168" lon="7.69091">
        <ele>605.19799804688</ele>
        <time>2018-11-08T10:01:11.899Z</time>
      </trkpt>
      <trkpt lat="43.94219" lon="7.69064">
        <ele>610.17004394531</ele>
        <time>2018-11-08T10:01:30.215Z</time>
      </trkpt>
      <trkpt lat="43.94259" lon="7.69043">
        <ele>606.12365722656</ele>
        <time>2018-11-08T10:01:48.537Z</time>
      </trkpt>
      <trkpt lat="43.9429" lon="7.69032">
        <ele>603.59936523438</ele>
        <time>2018-11-08T10:02:06.864Z</time>
      </trkpt>
      <trkpt lat="43.9431" lon="7.69029">
        <ele>602.80676269531</ele>
        <time>2018-11-08T10:02:25.195Z</time>
      </trkpt>
      <trkpt lat="43.94352" lon="7.69028">
        <ele>600.38317871094</ele>
        <time>2018-11-08T10:02:43.532Z</time>
      </trkpt>
      <trkpt lat="43.94377" lon="7.69024">
        <ele>600.13671875</ele>
        <time>2018-11-08T10:03:01.873Z</time>
      </trkpt>
      <trkpt lat="43.94393" lon="7.6902">
        <ele>600.29913330078</ele>
        <time>2018-11-08T10:03:20.217Z</time>
      </trkpt>
      <trkpt lat="43.94408" lon="7.69008">
        <ele>597.31164550781</ele>
        <time>2018-11-08T10:03:38.564Z</time>
      </trkpt>
      <trkpt lat="43.94428" lon="7.68988">
        <ele>592.10650634766</ele>
        <time>2018-11-08T10:03:56.915Z</time>
      </trkpt>
      <trkpt lat="43.94459" lon="7.68977">
        <ele>588.689453125</ele>
        <time>2018-11-08T10:04:15.271Z</time>
      </trkpt>
      <trkpt lat="43.94492" lon="7.6897">
        <ele>588.03503417969</ele>
        <time>2018-11-08T10:04:33.632Z</time>
      </trkpt>
      <trkpt lat="43.94515" lon="7.68965">
        <ele>589.48681640625</ele>
        <time>2018-11-08T10:04:51.997Z</time>
      </trkpt>
      <trkpt lat="43.94548" lon="7.68952">
        <ele>584.52954101562</ele>
        <time>2018-11-08T10:05:10.367Z</time>
      </trkpt>
      <trkpt lat="43.94563" lon="7.6895">
        <ele>582.84844970703</ele>
        <time>2018-11-08T10:05:28.740Z</time>
      </trkpt>
      <trkpt lat="43.94563" lon="7.6895">
        <ele>582.82489013672</ele>
        <time>2018-11-08T10:05:47.113Z</time>
      </trkpt>
      <trkpt lat="43.94569" lon="7.68949">
        <ele>582.15393066406</ele>
        <time>2018-11-08T10:06:05.487Z</time>
      </trkpt>
      <trkpt lat="43.94573" lon="7.68952">
        <ele>583.02978515625</ele>
        <time>2018-11-08T10:06:23.862Z</time>
      </trkpt>
      <trkpt lat="43.94584" lon="7.68964">
        <ele>586.83319091797</ele>
        <time>2018-11-08T10:06:42.239Z</time>
      </trkpt>
      <trkpt lat="43.94596" lon="7.68972">
        <ele>589.08880615234</ele>
        <time>2018-11-08T10:07:00.618Z</time>
      </trkpt>
      <trkpt lat="43.94602" lon="7.68972">
        <ele>588.72888183594</ele>
        <time>2018-11-08T10:07:18.998Z</time>
      </trkpt>
      <trkpt lat="43.94605" lon="7.68969">
        <ele>587.43310546875</ele>
        <time>2018-11-08T10:07:37.378Z</time>
      </trkpt>
      <trkpt lat="43.94616" lon="7.68955">
        <ele>581.56604003906</ele>
        <time>2018-11-08T10:07:55.761Z</time>
      </trkpt>
      <trkpt lat="43.94622" lon="7.6895">
        <ele>579.34643554688</ele>
        <time>2018-11-08T10:08:14.145Z</time>
      </trkpt>
      <trkpt lat="43.94629" lon="7.6895">
        <ele>578.92651367188</ele>
        <time>2018-11-08T10:08:32.530Z</time>
      </trkpt>
      <trkpt lat="43.94671" lon="7.68965">
        <ele>581.10382080078</ele>
        <time>2018-11-08T10:08:50.922Z</time>
      </trkpt>
      <trkpt lat="43.94689" lon="7.68968">
        <ele>580.419921875</ele>
        <time>2018-11-08T10:09:09.317Z</time>
      </trkpt>
      <trkpt lat="43.94711" lon="7.68963">
        <ele>577.88336181641</ele>
        <time>2018-11-08T10:09:27.716Z</time>
      </trkpt>
      <trkpt lat="43.94774" lon="7.6895">
        <ele>566.57794189453</ele>
        <time>2018-11-08T10:09:46.125Z</time>
      </trkpt>
      <trkpt lat="43.94802" lon="7.68941">
        <ele>560.84912109375</ele>
        <time>2018-11-08T10:10:04.538Z</time>
      </trkpt>
      <trkpt lat="43.94825" lon="7.68937">
        <ele>556.61383056641</ele>
        <time>2018-11-08T10:10:22.955Z</time>
      </trkpt>
      <trkpt lat="43.94827" lon="7.68936">
        <ele>555.86993408203</ele>
        <time>2018-11-08T10:10:41.372Z</time>
      </trkpt>
      <trkpt lat="43.94828" lon="7.68935">
        <ele>555.21008300781</ele>
        <time>2018-11-08T10:10:59.790Z</time>
      </trkpt>
      <trkpt lat="43.94828" lon="7.6893">
        <ele>552.33056640625</ele>
        <time>2018-11-08T10:11:18.208Z</time>
      </trkpt>
      <trkpt lat="43.94825" lon="7.68923">
        <ele>548.55120849609</ele>
        <time>2018-11-08T10:11:36.627Z</time>
      </trkpt>
      <trkpt lat="43.94823" lon="7.68922">
        <ele>548.14324951172</ele>
        <time>2018-11-08T10:11:55.046Z</time>
      </trkpt>
      <trkpt lat="43.94805" lon="7.68927">
        <ele>552.53454589844</ele>
        <time>2018-11-08T10:12:13.468Z</time>
      </trkpt>
      <trkpt lat="43.94781" lon="7.68931">
        <ele>556.59509277344</ele>
        <time>2018-11-08T10:12:31.894Z</time>
      </trkpt>
      <trkpt lat="43.94751" lon="7.68929">
        <ele>558.22735595703</ele>
        <time>2018-11-08T10:12:50.325Z</time>
      </trkpt>
      <trkpt lat="43.94717" lon="7.68922">
        <ele>558.28729248047</ele>
        <time>2018-11-08T10:13:08.762Z</time>
      </trkpt>
      <trkpt lat="43.94696" lon="7.68915">
        <ele>556.82751464844</ele>
        <time>2018-11-08T10:13:27.202Z</time>
      </trkpt>
      <trkpt lat="43.94677" lon="7.68905">
        <ele>553.81121826172</ele>
        <time>2018-11-08T10:13:45.645Z</time>
      </trkpt>
      <trkpt lat="43.94646" lon="7.68878">
        <ele>543.25384521484</ele>
        <time>2018-11-08T10:14:04.094Z</time>
      </trkpt>
      <trkpt lat="43.94637" lon="7.68869">
        <ele>539.58245849609</ele>
        <time>2018-11-08T10:14:22.545Z</time>
      </trkpt>
      <trkpt lat="43.94628" lon="7.68866">
        <ele>539.00653076172</ele>
        <time>2018-11-08T10:14:40.997Z</time>
      </trkpt>
      <trkpt lat="43.94617" lon="7.68863">
        <ele>538.64660644531</ele>
        <time>2018-11-08T10:14:59.451Z</time>
      </trkpt>
      <trkpt lat="43.94616" lon="7.68861">
        <ele>537.72277832031</ele>
        <time>2018-11-08T10:15:17.905Z</time>
      </trkpt>
      <trkpt lat="43.94614" lon="7.68857">
        <ele>535.87506103516</ele>
        <time>2018-11-08T10:15:36.360Z</time>
      </trkpt>
      <trkpt lat="43.94616" lon="7.68851">
        <ele>532.56359863281</ele>
        <time>2018-11-08T10:15:54.816Z</time>
      </trkpt>
      <trkpt lat="43.9462" lon="7.68849">
        <ele>531.09899902344</ele>
        <time>2018-11-08T10:16:13.272Z</time>
      </trkpt>
      <trkpt lat="43.94635" lon="7.68855">
        <ele>532.35882568359</ele>
        <time>2018-11-08T10:16:31.731Z</time>
      </trkpt>
      <trkpt lat="43.94674" lon="7.68877">
        <ele>539.08972167969</ele>
        <time>2018-11-08T10:16:50.197Z</time>
      </trkpt>
      <trkpt lat="43.9471" lon="7.68885">
        <ele>539.11846923828</ele>
        <time>2018-11-08T10:17:08.669Z</time>
      </trkpt>
      <trkpt lat="43.94727" lon="7.68886">
        <ele>537.82263183594</ele>
        <time>2018-11-08T10:17:27.143Z</time>
      </trkpt>
      <trkpt lat="43.94733" lon="7.6888">
        <ele>533.93530273438</ele>
        <time>2018-11-08T10:17:45.618Z</time>
      </trkpt>
      <trkpt lat="43.94733" lon="7.68875">
        <ele>531.10302734375</ele>
        <time>2018-11-08T10:18:04.094Z</time>
      </trkpt>
      <trkpt lat="43.94731" lon="7.68871">
        <ele>529.08740234375</ele>
        <time>2018-11-08T10:18:22.571Z</time>
      </trkpt>
      <trkpt lat="43.94723" lon="7.68869">
        <ele>529.07611083984</ele>
        <time>2018-11-08T10:18:41.049Z</time>
      </trkpt>
      <trkpt lat="43.9471" lon="7.6887">
        <ele>531.01977539062</ele>
        <time>2018-11-08T10:18:59.529Z</time>
      </trkpt>
      <trkpt lat="43.94698" lon="7.68867">
        <ele>530.69586181641</ele>
        <time>2018-11-08T10:19:18.011Z</time>
      </trkpt>
      <trkpt lat="43.94675" lon="7.68855">
        <ele>527.07971191406</ele>
        <time>2018-11-08T10:19:36.497Z</time>
      </trkpt>
      <trkpt lat="43.94647" lon="7.68828">
        <ele>516.91046142578</ele>
        <time>2018-11-08T10:19:54.988Z</time>
      </trkpt>
      <trkpt lat="43.9463" lon="7.68819">
        <ele>515.05078125</ele>
        <time>2018-11-08T10:20:13.482Z</time>
      </trkpt>
      <trkpt lat="43.94617" lon="7.68816">
        <ele>515.39874267578</ele>
        <time>2018-11-08T10:20:31.978Z</time>
      </trkpt>
      <trkpt lat="43.94594" lon="7.68818">
        <ele>518.70037841797</ele>
        <time>2018-11-08T10:20:50.478Z</time>
      </trkpt>
      <trkpt lat="43.9459" lon="7.68816">
        <ele>518.12445068359</ele>
        <time>2018-11-08T10:21:08.979Z</time>
      </trkpt>
      <trkpt lat="43.94573" lon="7.68797">
        <ele>510.8896484375</ele>
        <time>2018-11-08T10:21:27.483Z</time>
      </trkpt>
      <trkpt lat="43.94565" lon="7.68787">
        <ele>507.00231933594</ele>
        <time>2018-11-08T10:21:45.989Z</time>
      </trkpt>
      <trkpt lat="43.94543" lon="7.68778">
        <ele>505.10455322266</ele>
        <time>2018-11-08T10:22:04.499Z</time>
      </trkpt>
      <trkpt lat="43.94501" lon="7.68765">
        <ele>497.236328125</ele>
        <time>2018-11-08T10:22:23.015Z</time>
      </trkpt>
      <trkpt lat="43.94472" lon="7.68763">
        <ele>491.33331298828</ele>
        <time>2018-11-08T10:22:41.536Z</time>
      </trkpt>
      <trkpt lat="43.94455" lon="7.68767">
        <ele>490.54144287109</ele>
        <time>2018-11-08T10:23:00.060Z</time>
      </trkpt>
      <trkpt lat="43.94415" lon="7.68784">
        <ele>494.38635253906</ele>
        <time>2018-11-08T10:23:18.591Z</time>
      </trkpt>
      <trkpt lat="43.94379" lon="7.68804">
        <ele>502.49478149414</ele>
        <time>2018-11-08T10:23:37.128Z</time>
      </trkpt>
      <trkpt lat="43.9437" lon="7.68808">
        <ele>504.22247314453</ele>
        <time>2018-11-08T10:23:55.666Z</time>
      </trkpt>
      <trkpt lat="43.94366" lon="7.68807">
        <ele>503.49060058594</ele>
        <time>2018-11-08T10:24:14.205Z</time>
      </trkpt>
      <trkpt lat="43.94341" lon="7.68778">
        <ele>487.61804199219</ele>
        <time>2018-11-08T10:24:32.749Z</time>
      </trkpt>
      <trkpt lat="43.94338" lon="7.68775">
        <ele>486.03430175781</ele>
        <time>2018-11-08T10:24:51.294Z</time>
      </trkpt>
      <trkpt lat="43.94328" lon="7.68773">
        <ele>485.07446289062</ele>
        <time>2018-11-08T10:25:09.840Z</time>
      </trkpt>
      <trkpt lat="43.94315" lon="7.68771">
        <ele>484.15060424805</ele>
        <time>2018-11-08T10:25:28.388Z</time>
      </trkpt>
      <trkpt lat="43.94284" lon="7.68771">
        <ele>484.52255249023</ele>
        <time>2018-11-08T10:25:46.941Z</time>
      </trkpt>
      <trkpt lat="43.94277" lon="7.68769">
        <ele>483.52670288086</ele>
        <time>2018-11-08T10:26:05.496Z</time>
      </trkpt>
      <trkpt lat="43.94262" lon="7.6876">
        <ele>478.55795288086</ele>
        <time>2018-11-08T10:26:24.053Z</time>
      </trkpt>
      <trkpt lat="43.9425" lon="7.68747">
        <ele>471.2477722168</ele>
        <time>2018-11-08T10:26:42.613Z</time>
      </trkpt>
      <trkpt lat="43.94241" lon="7.68741">
        <ele>467.75634765625</ele>
        <time>2018-11-08T10:27:01.174Z</time>
      </trkpt>
      <trkpt lat="43.94228" lon="7.68745">
        <ele>469.85601806641</ele>
        <time>2018-11-08T10:27:19.737Z</time>
      </trkpt>
      <trkpt lat="43.94195" lon="7.68773">
        <ele>485.33358764648</ele>
        <time>2018-11-08T10:27:38.307Z</time>
      </trkpt>
      <trkpt lat="43.94187" lon="7.68775">
        <ele>487.03430175781</ele>
        <time>2018-11-08T10:27:56.878Z</time>
      </trkpt>
      <trkpt lat="43.94178" lon="7.68776">
        <ele>488.69003295898</ele>
        <time>2018-11-08T10:28:15.450Z</time>
      </trkpt>
      <trkpt lat="43.94173" lon="7.68774">
        <ele>488.13812255859</ele>
        <time>2018-11-08T10:28:34.023Z</time>
      </trkpt>
      <trkpt lat="43.94167" lon="7.68768">
        <ele>485.40258789062</ele>
        <time>2018-11-08T10:28:52.597Z</time>
      </trkpt>
      <trkpt lat="43.94156" lon="7.68753">
        <ele>478.09231567383</ele>
        <time>2018-11-08T10:29:11.174Z</time>
      </trkpt>
      <trkpt lat="43.94143" lon="7.6874">
        <ele>472.94515991211</ele>
        <time>2018-11-08T10:29:29.753Z</time>
      </trkpt>
      <trkpt lat="43.94129" lon="7.68731">
        <ele>469.98165893555</ele>
        <time>2018-11-08T10:29:48.335Z</time>
      </trkpt>
      <trkpt lat="43.94101" lon="7.6871">
        <ele>461.51312255859</ele>
        <time>2018-11-08T10:30:06.922Z</time>
      </trkpt>
      <trkpt lat="43.9409" lon="7.68703">
        <ele>457.50579833984</ele>
        <time>2018-11-08T10:30:25.511Z</time>
      </trkpt>
      <trkpt lat="43.94078" lon="7.68699">
        <ele>455.01022338867</ele>
        <time>2018-11-08T10:30:44.102Z</time>
      </trkpt>
      <trkpt lat="43.94068" lon="7.68705">
        <ele>457.74575805664</ele>
        <time>2018-11-08T10:31:02.695Z</time>
      </trkpt>
      <trkpt lat="43.94042" lon="7.68723">
        <ele>466.09637451172</ele>
        <time>2018-11-08T10:31:21.292Z</time>
      </trkpt>
      <trkpt lat="43.94031" lon="7.68726">
        <ele>467.24816894531</ele>
        <time>2018-11-08T10:31:39.891Z</time>
      </trkpt>
      <trkpt lat="43.9403" lon="7.68726">
        <ele>467.16000366211</ele>
        <time>2018-11-08T10:31:58.490Z</time>
      </trkpt>
      <trkpt lat="43.9403" lon="7.68726">
        <ele>467.12493896484</ele>
        <time>2018-11-08T10:32:17.089Z</time>
      </trkpt>
      <trkpt lat="43.94008" lon="7.6872">
        <ele>464.47839355469</ele>
        <time>2018-11-08T10:32:35.692Z</time>
      </trkpt>
      <trkpt lat="43.93989" lon="7.68707">
        <ele>458.45538330078</ele>
        <time>2018-11-08T10:32:54.298Z</time>
      </trkpt>
      <trkpt lat="43.93975" lon="7.687">
        <ele>455.34790039062</ele>
        <time>2018-11-08T10:33:12.907Z</time>
      </trkpt>
      <trkpt lat="43.93935" lon="7.68693">
        <ele>453.57897949219</ele>
        <time>2018-11-08T10:33:31.522Z</time>
      </trkpt>
      <trkpt lat="43.93903" lon="7.68677">
        <ele>450.50747680664</ele>
        <time>2018-11-08T10:33:50.142Z</time>
      </trkpt>
      <trkpt lat="43.93887" lon="7.68664">
        <ele>447.07788085938</ele>
        <time>2018-11-08T10:34:08.765Z</time>
      </trkpt>
      <trkpt lat="43.93876" lon="7.6865">
        <ele>443.25051879883</ele>
        <time>2018-11-08T10:34:27.391Z</time>
      </trkpt>
      <trkpt lat="43.93852" lon="7.68619">
        <ele>434.14443969727</ele>
        <time>2018-11-08T10:34:46.022Z</time>
      </trkpt>
      <trkpt lat="43.93819" lon="7.68587">
        <ele>423.05828857422</ele>
        <time>2018-11-08T10:35:04.659Z</time>
      </trkpt>
      <trkpt lat="43.93813" lon="7.6858">
        <ele>421.58032226562</ele>
        <time>2018-11-08T10:35:23.298Z</time>
      </trkpt>
      <trkpt lat="43.93773" lon="7.68555">
        <ele>416.94696044922</ele>
        <time>2018-11-08T10:35:41.944Z</time>
      </trkpt>
      <trkpt lat="43.93745" lon="7.68529">
        <ele>396.26239013672</ele>
        <time>2018-11-08T10:36:00.595Z</time>
      </trkpt>
      <trkpt lat="43.93746" lon="7.68524">
        <ele>395.57852172852</ele>
        <time>2018-11-08T10:36:19.247Z</time>
      </trkpt>
      <trkpt lat="43.93748" lon="7.6852">
        <ele>395.65051269531</ele>
        <time>2018-11-08T10:36:37.899Z</time>
      </trkpt>
      <trkpt lat="43.93755" lon="7.68522">
        <ele>399.74182128906</ele>
        <time>2018-11-08T10:36:56.552Z</time>
      </trkpt>
      <trkpt lat="43.93804" lon="7.68553">
        <ele>415.53332519531</ele>
        <time>2018-11-08T10:37:15.214Z</time>
      </trkpt>
      <trkpt lat="43.93824" lon="7.68562">
        <ele>416.73315429688</ele>
        <time>2018-11-08T10:37:33.879Z</time>
      </trkpt>
      <trkpt lat="43.93849" lon="7.68572">
        <ele>416.61172485352</ele>
        <time>2018-11-08T10:37:52.549Z</time>
      </trkpt>
      <trkpt lat="43.93867" lon="7.68588">
        <ele>418.64544677734</ele>
        <time>2018-11-08T10:38:11.222Z</time>
      </trkpt>
      <trkpt lat="43.93899" lon="7.68613">
        <ele>422.29281616211</ele>
        <time>2018-11-08T10:38:29.901Z</time>
      </trkpt>
      <trkpt lat="43.93912" lon="7.68621">
        <ele>422.53277587891</ele>
        <time>2018-11-08T10:38:48.582Z</time>
      </trkpt>
      <trkpt lat="43.93921" lon="7.68624">
        <ele>421.23699951172</ele>
        <time>2018-11-08T10:39:07.265Z</time>
      </trkpt>
      <trkpt lat="43.93945" lon="7.68624">
        <ele>414.47103881836</ele>
        <time>2018-11-08T10:39:25.951Z</time>
      </trkpt>
      <trkpt lat="43.9396" lon="7.68626">
        <ele>415.08291625977</ele>
        <time>2018-11-08T10:39:44.640Z</time>
      </trkpt>
      <trkpt lat="43.93985" lon="7.6862">
        <ele>410.98611450195</ele>
        <time>2018-11-08T10:40:03.333Z</time>
      </trkpt>
      <trkpt lat="43.94016" lon="7.68615">
        <ele>407.85461425781</ele>
        <time>2018-11-08T10:40:22.031Z</time>
      </trkpt>
      <trkpt lat="43.94027" lon="7.68604">
        <ele>401.79446411133</ele>
        <time>2018-11-08T10:40:40.731Z</time>
      </trkpt>
      <trkpt lat="43.94038" lon="7.68584">
        <ele>391.34930419922</ele>
        <time>2018-11-08T10:40:59.434Z</time>
      </trkpt>
      <trkpt lat="43.9405" lon="7.68572">
        <ele>385.4462890625</ele>
        <time>2018-11-08T10:41:18.139Z</time>
      </trkpt>
      <trkpt lat="43.94063" lon="7.68569">
        <ele>384.45043945312</ele>
        <time>2018-11-08T10:41:36.847Z</time>
      </trkpt>
      <trkpt lat="43.94093" lon="7.68579">
        <ele>391.28930664062</ele>
        <time>2018-11-08T10:41:55.559Z</time>
      </trkpt>
      <trkpt lat="43.94112" lon="7.68586">
        <ele>394.48297119141</ele>
        <time>2018-11-08T10:42:14.275Z</time>
      </trkpt>
      <trkpt lat="43.94129" lon="7.6859">
        <ele>392.55001831055</ele>
        <time>2018-11-08T10:42:32.993Z</time>
      </trkpt>
      <trkpt lat="43.94139" lon="7.68596">
        <ele>393.72583007812</ele>
        <time>2018-11-08T10:42:51.713Z</time>
      </trkpt>
      <trkpt lat="43.94147" lon="7.68604">
        <ele>396.70132446289</ele>
        <time>2018-11-08T10:43:10.435Z</time>
      </trkpt>
      <trkpt lat="43.94156" lon="7.68618">
        <ele>403.2282409668</ele>
        <time>2018-11-08T10:43:29.159Z</time>
      </trkpt>
      <trkpt lat="43.94163" lon="7.68627">
        <ele>407.10360717773</ele>
        <time>2018-11-08T10:43:47.884Z</time>
      </trkpt>
      <trkpt lat="43.94172" lon="7.68633">
        <ele>408.54336547852</ele>
        <time>2018-11-08T10:44:06.611Z</time>
      </trkpt>
      <trkpt lat="43.94178" lon="7.68634">
        <ele>407.48324584961</ele>
        <time>2018-11-08T10:44:25.339Z</time>
      </trkpt>
      <trkpt lat="43.94178" lon="7.68634">
        <ele>407.44723510742</ele>
        <time>2018-11-08T10:44:44.067Z</time>
      </trkpt>
      <trkpt lat="43.94179" lon="7.68634">
        <ele>407.33154296875</ele>
        <time>2018-11-08T10:45:02.795Z</time>
      </trkpt>
      <trkpt lat="43.94189" lon="7.68631">
        <ele>402.78430175781</ele>
        <time>2018-11-08T10:45:21.525Z</time>
      </trkpt>
      <trkpt lat="43.94209" lon="7.68612">
        <ele>388.27462768555</ele>
        <time>2018-11-08T10:45:40.259Z</time>
      </trkpt>
      <trkpt lat="43.94218" lon="7.68607">
        <ele>384.3655090332</ele>
        <time>2018-11-08T10:45:58.994Z</time>
      </trkpt>
      <trkpt lat="43.94229" lon="7.68604">
        <ele>381.77395629883</ele>
        <time>2018-11-08T10:46:17.731Z</time>
      </trkpt>
      <trkpt lat="43.94295" lon="7.68593">
        <ele>372.85690307617</ele>
        <time>2018-11-08T10:46:36.479Z</time>
      </trkpt>
      <trkpt lat="43.94322" lon="7.68581">
        <ele>368.07824707031</ele>
        <time>2018-11-08T10:46:55.231Z</time>
      </trkpt>
      <trkpt lat="43.94321" lon="7.68574">
        <ele>365.17471313477</ele>
        <time>2018-11-08T10:47:13.984Z</time>
      </trkpt>
      <trkpt lat="43.94318" lon="7.68571">
        <ele>363.80694580078</ele>
        <time>2018-11-08T10:47:32.738Z</time>
      </trkpt>
      <trkpt lat="43.94304" lon="7.68573">
        <ele>363.95092773438</ele>
        <time>2018-11-08T10:47:51.494Z</time>
      </trkpt>
      <trkpt lat="43.94284" lon="7.68581">
        <ele>366.25454711914</ele>
        <time>2018-11-08T10:48:10.253Z</time>
      </trkpt>
      <trkpt lat="43.94258" lon="7.68582">
        <ele>366.8620300293</ele>
        <time>2018-11-08T10:48:29.016Z</time>
      </trkpt>
      <trkpt lat="43.94216" lon="7.6858">
        <ele>368.85369873047</ele>
        <time>2018-11-08T10:48:47.786Z</time>
      </trkpt>
      <trkpt lat="43.94186" lon="7.6858">
        <ele>371.23977661133</ele>
        <time>2018-11-08T10:49:06.561Z</time>
      </trkpt>
      <trkpt lat="43.94171" lon="7.68569">
        <ele>367.69143676758</ele>
        <time>2018-11-08T10:49:25.339Z</time>
      </trkpt>
      <trkpt lat="43.9414" lon="7.6855">
        <ele>363.33615112305</ele>
        <time>2018-11-08T10:49:44.122Z</time>
      </trkpt>
      <trkpt lat="43.94112" lon="7.68526">
        <ele>354.88955688477</ele>
        <time>2018-11-08T10:50:02.910Z</time>
      </trkpt>
      <trkpt lat="43.94085" lon="7.68502">
        <ele>342.17483520508</ele>
        <time>2018-11-08T10:50:21.703Z</time>
      </trkpt>
      <trkpt lat="43.94071" lon="7.68497">
        <ele>341.20300292969</ele>
        <time>2018-11-08T10:50:40.499Z</time>
      </trkpt>
      <trkpt lat="43.94057" lon="7.68492">
        <ele>340.2311706543</ele>
        <time>2018-11-08T10:50:59.297Z</time>
      </trkpt>
      <trkpt lat="43.94043" lon="7.68487">
        <ele>339.25930786133</ele>
        <time>2018-11-08T10:51:18.097Z</time>
      </trkpt>
      <trkpt lat="43.94036" lon="7.68486">
        <ele>339.36730957031</ele>
        <time>2018-11-08T10:51:36.898Z</time>
      </trkpt>
      <trkpt lat="43.94022" lon="7.68491">
        <ele>342.40338134766</ele>
        <time>2018-11-08T10:51:55.702Z</time>
      </trkpt>
      <trkpt lat="43.94014" lon="7.68491">
        <ele>343.17126464844</ele>
        <time>2018-11-08T10:52:14.507Z</time>
      </trkpt>
      <trkpt lat="43.94008" lon="7.68487">
        <ele>342.16342163086</ele>
        <time>2018-11-08T10:52:33.313Z</time>
      </trkpt>
      <trkpt lat="43.93999" lon="7.68473">
        <ele>337.48419189453</ele>
        <time>2018-11-08T10:52:52.121Z</time>
      </trkpt>
      <trkpt lat="43.93987" lon="7.68466">
        <ele>335.86447143555</ele>
        <time>2018-11-08T10:53:10.931Z</time>
      </trkpt>
      <trkpt lat="43.93973" lon="7.68462">
        <ele>335.74359130859</ele>
        <time>2018-11-08T10:53:29.744Z</time>
      </trkpt>
      <trkpt lat="43.93956" lon="7.68461">
        <ele>337.17132568359</ele>
        <time>2018-11-08T10:53:48.559Z</time>
      </trkpt>
      <trkpt lat="43.93946" lon="7.68462">
        <ele>338.65908813477</ele>
        <time>2018-11-08T10:54:07.376Z</time>
      </trkpt>
      <trkpt lat="43.93932" lon="7.68461">
        <ele>341.3244934082</ele>
        <time>2018-11-08T10:54:26.195Z</time>
      </trkpt>
      <trkpt lat="43.93921" lon="7.68454">
        <ele>341.6364440918</ele>
        <time>2018-11-08T10:54:45.016Z</time>
      </trkpt>
      <trkpt lat="43.9389" lon="7.68422">
        <ele>337.50915527344</ele>
        <time>2018-11-08T10:55:03.843Z</time>
      </trkpt>
      <trkpt lat="43.93868" lon="7.68407">
        <ele>337.41906738281</ele>
        <time>2018-11-08T10:55:22.674Z</time>
      </trkpt>
      <trkpt lat="43.93833" lon="7.68383">
        <ele>337.1311340332</ele>
        <time>2018-11-08T10:55:41.511Z</time>
      </trkpt>
      <trkpt lat="43.93777" lon="7.6834">
        <ele>334.72506713867</ele>
        <time>2018-11-08T10:56:00.359Z</time>
      </trkpt>
      <trkpt lat="43.93747" lon="7.6831">
        <ele>332.48510742188</ele>
        <time>2018-11-08T10:56:19.213Z</time>
      </trkpt>
      <trkpt lat="43.93726" lon="7.68277">
        <ele>326.46160888672</ele>
        <time>2018-11-08T10:56:38.072Z</time>
      </trkpt>
      <trkpt lat="43.93715" lon="7.68257">
        <ele>322.13031005859</ele>
        <time>2018-11-08T10:56:56.934Z</time>
      </trkpt>
      <trkpt lat="43.93679" lon="7.68195">
        <ele>314.23205566406</ele>
        <time>2018-11-08T10:57:15.805Z</time>
      </trkpt>
      <trkpt lat="43.93669" lon="7.68172">
        <ele>308.31704711914</ele>
        <time>2018-11-08T10:57:34.679Z</time>
      </trkpt>
      <trkpt lat="43.93668" lon="7.68169">
        <ele>307.68740844727</ele>
        <time>2018-11-08T10:57:53.553Z</time>
      </trkpt>
      <trkpt lat="43.93668" lon="7.68169">
        <ele>307.63674926758</ele>
        <time>2018-11-08T10:58:12.427Z</time>
      </trkpt>
      <trkpt lat="43.93665" lon="7.68154">
        <ele>304.86483764648</ele>
        <time>2018-11-08T10:58:31.303Z</time>
      </trkpt>
      <trkpt lat="43.93659" lon="7.68143">
        <ele>302.8132019043</ele>
        <time>2018-11-08T10:58:50.181Z</time>
      </trkpt>
      <trkpt lat="43.93653" lon="7.68132">
        <ele>300.76699829102</ele>
        <time>2018-11-08T10:59:09.060Z</time>
      </trkpt>
      <trkpt lat="43.93646" lon="7.68126">
        <ele>299.59771728516</ele>
        <time>2018-11-08T10:59:27.941Z</time>
      </trkpt>
      <trkpt lat="43.93632" lon="7.68119">
        <ele>298.16995239258</ele>
        <time>2018-11-08T10:59:46.824Z</time>
      </trkpt>
      <trkpt lat="43.93605" lon="7.68113">
        <ele>297.04071044922</ele>
        <time>2018-11-08T11:00:05.711Z</time>
      </trkpt>
      <trkpt lat="43.93577" lon="7.68102">
        <ele>298.08456420898</ele>
        <time>2018-11-08T11:00:24.603Z</time>
      </trkpt>
      <trkpt lat="43.93561" lon="7.68091">
        <ele>297.83258056641</ele>
        <time>2018-11-08T11:00:43.498Z</time>
      </trkpt>
      <trkpt lat="43.93541" lon="7.68067">
        <ele>296.36993408203</ele>
        <time>2018-11-08T11:01:02.397Z</time>
      </trkpt>
      <trkpt lat="43.93532" lon="7.68046">
        <ele>294.31829833984</ele>
        <time>2018-11-08T11:01:21.299Z</time>
      </trkpt>
      <trkpt lat="43.93517" lon="7.67997">
        <ele>290.04852294922</ele>
        <time>2018-11-08T11:01:40.207Z</time>
      </trkpt>
      <trkpt lat="43.93507" lon="7.67975">
        <ele>290.0241394043</ele>
        <time>2018-11-08T11:01:59.118Z</time>
      </trkpt>
      <trkpt lat="43.93486" lon="7.67939">
        <ele>291.24792480469</ele>
        <time>2018-11-08T11:02:18.034Z</time>
      </trkpt>
      <trkpt lat="43.93467" lon="7.67915">
        <ele>292.10342407227</ele>
        <time>2018-11-08T11:02:36.955Z</time>
      </trkpt>
      <trkpt lat="43.9343" lon="7.67869">
        <ele>290.13049316406</ele>
        <time>2018-11-08T11:02:55.884Z</time>
      </trkpt>
      <trkpt lat="43.93306" lon="7.67773">
        <ele>286.4094543457</ele>
        <time>2018-11-08T11:03:14.835Z</time>
      </trkpt>
      <trkpt lat="43.93271" lon="7.67746">
        <ele>282.90115356445</ele>
        <time>2018-11-08T11:03:33.793Z</time>
      </trkpt>
      <trkpt lat="43.93224" lon="7.67703">
        <ele>287.18444824219</ele>
        <time>2018-11-08T11:03:52.760Z</time>
      </trkpt>
      <trkpt lat="43.93197" lon="7.67667">
        <ele>288.44393920898</ele>
        <time>2018-11-08T11:04:11.733Z</time>
      </trkpt>
      <trkpt lat="43.93189" lon="7.67649">
        <ele>287.16275024414</ele>
        <time>2018-11-08T11:04:30.708Z</time>
      </trkpt>
      <trkpt lat="43.93185" lon="7.6763">
        <ele>285.99893188477</ele>
        <time>2018-11-08T11:04:49.685Z</time>
      </trkpt>
      <trkpt lat="43.93178" lon="7.67601">
        <ele>284.72714233398</ele>
        <time>2018-11-08T11:05:08.666Z</time>
      </trkpt>
      <trkpt lat="43.93157" lon="7.67473">
        <ele>282.56271362305</ele>
        <time>2018-11-08T11:05:27.662Z</time>
      </trkpt>
      <trkpt lat="43.93145" lon="7.67419">
        <ele>285.08865356445</ele>
        <time>2018-11-08T11:05:46.665Z</time>
      </trkpt>
      <trkpt lat="43.93123" lon="7.67338">
        <ele>288.54653930664</ele>
        <time>2018-11-08T11:06:05.678Z</time>
      </trkpt>
      <trkpt lat="43.93091" lon="7.67218">
        <ele>282.51156616211</ele>
        <time>2018-11-08T11:06:24.705Z</time>
      </trkpt>
      <trkpt lat="43.93077" lon="7.67162">
        <ele>280.97366333008</ele>
        <time>2018-11-08T11:06:43.739Z</time>
      </trkpt>
      <trkpt lat="43.93074" lon="7.67137">
        <ele>278.27410888672</ele>
        <time>2018-11-08T11:07:02.776Z</time>
      </trkpt>
      <trkpt lat="43.93065" lon="7.67039">
        <ele>273.78588867188</ele>
        <time>2018-11-08T11:07:21.825Z</time>
      </trkpt>
      <trkpt lat="43.93066" lon="7.67029">
        <ele>273.2737121582</ele>
        <time>2018-11-08T11:07:40.875Z</time>
      </trkpt>
      <trkpt lat="43.93066" lon="7.67029">
        <ele>273.25827026367</ele>
        <time>2018-11-08T11:07:59.925Z</time>
      </trkpt>
      <trkpt lat="43.93066" lon="7.67021">
        <ele>272.82604980469</ele>
        <time>2018-11-08T11:08:18.976Z</time>
      </trkpt>
      <trkpt lat="43.93068" lon="7.67006">
        <ele>271.91418457031</ele>
        <time>2018-11-08T11:08:38.029Z</time>
      </trkpt>
      <trkpt lat="43.93077" lon="7.66985">
        <ele>268.11499023438</ele>
        <time>2018-11-08T11:08:57.084Z</time>
      </trkpt>
      <trkpt lat="43.93086" lon="7.6697">
        <ele>265.74987792969</ele>
        <time>2018-11-08T11:09:16.142Z</time>
      </trkpt>
      <trkpt lat="43.9309" lon="7.66953">
        <ele>264.22610473633</ele>
        <time>2018-11-08T11:09:35.202Z</time>
      </trkpt>
      <trkpt lat="43.93094" lon="7.66918">
        <ele>261.28079223633</ele>
        <time>2018-11-08T11:09:54.266Z</time>
      </trkpt>
      <trkpt lat="43.93097" lon="7.66883">
        <ele>258.79132080078</ele>
        <time>2018-11-08T11:10:13.334Z</time>
      </trkpt>
      <trkpt lat="43.93103" lon="7.66856">
        <ele>256.01977539062</ele>
        <time>2018-11-08T11:10:32.405Z</time>
      </trkpt>
      <trkpt lat="43.93107" lon="7.66836">
        <ele>254.02467346191</ele>
        <time>2018-11-08T11:10:51.479Z</time>
      </trkpt>
      <trkpt lat="43.93135" lon="7.66768">
        <ele>257.28448486328</ele>
        <time>2018-11-08T11:11:10.562Z</time>
      </trkpt>
      <trkpt lat="43.932" lon="7.66622">
        <ele>253.4093170166</ele>
        <time>2018-11-08T11:11:29.664Z</time>
      </trkpt>
      <trkpt lat="43.93243" lon="7.66515">
        <ele>250.3821105957</ele>
        <time>2018-11-08T11:11:48.781Z</time>
      </trkpt>
      <trkpt lat="43.93246" lon="7.66502">
        <ele>248.71286010742</ele>
        <time>2018-11-08T11:12:07.899Z</time>
      </trkpt>
      <trkpt lat="43.93246" lon="7.66485">
        <ele>250.140625</ele>
        <time>2018-11-08T11:12:27.019Z</time>
      </trkpt>
      <trkpt lat="43.93242" lon="7.6646">
        <ele>251.09481811523</ele>
        <time>2018-11-08T11:12:46.142Z</time>
      </trkpt>
      <trkpt lat="43.93233" lon="7.66443">
        <ele>250.73487854004</ele>
        <time>2018-11-08T11:13:05.267Z</time>
      </trkpt>
      <trkpt lat="43.93224" lon="7.66433">
        <ele>250.12297058105</ele>
        <time>2018-11-08T11:13:24.394Z</time>
      </trkpt>
      <trkpt lat="43.93214" lon="7.66427">
        <ele>249.25912475586</ele>
        <time>2018-11-08T11:13:43.523Z</time>
      </trkpt>
      <trkpt lat="43.93169" lon="7.66398">
        <ele>249.58262634277</ele>
        <time>2018-11-08T11:14:02.660Z</time>
      </trkpt>
      <trkpt lat="43.93155" lon="7.66378">
        <ele>252.11033630371</ele>
        <time>2018-11-08T11:14:21.800Z</time>
      </trkpt>
      <trkpt lat="43.93146" lon="7.66348">
        <ele>256.21365356445</ele>
        <time>2018-11-08T11:14:40.944Z</time>
      </trkpt>
      <trkpt lat="43.93146" lon="7.66323">
        <ele>257.61724853516</ele>
        <time>2018-11-08T11:15:00.091Z</time>
      </trkpt>
      <trkpt lat="43.9315" lon="7.66298">
        <ele>257.11331176758</ele>
        <time>2018-11-08T11:15:19.241Z</time>
      </trkpt>
      <trkpt lat="43.93163" lon="7.6623">
        <ele>254.10676574707</ele>
        <time>2018-11-08T11:15:38.399Z</time>
      </trkpt>
      <trkpt lat="43.93181" lon="7.66182">
        <ele>244.26489257812</ele>
        <time>2018-11-08T11:15:57.563Z</time>
      </trkpt>
      <trkpt lat="43.93198" lon="7.66157">
        <ele>241.34169006348</ele>
        <time>2018-11-08T11:16:16.731Z</time>
      </trkpt>
      <trkpt lat="43.93236" lon="7.66117">
        <ele>247.80438232422</ele>
        <time>2018-11-08T11:16:35.907Z</time>
      </trkpt>
      <trkpt lat="43.93249" lon="7.66096">
        <ele>247.31246948242</ele>
        <time>2018-11-08T11:16:55.086Z</time>
      </trkpt>
      <trkpt lat="43.93252" lon="7.66074">
        <ele>246.58428955078</ele>
        <time>2018-11-08T11:17:14.268Z</time>
      </trkpt>
      <trkpt lat="43.93251" lon="7.6606">
        <ele>246.50346374512</ele>
        <time>2018-11-08T11:17:33.451Z</time>
      </trkpt>
      <trkpt lat="43.93248" lon="7.66051">
        <ele>246.17951965332</ele>
        <time>2018-11-08T11:17:52.635Z</time>
      </trkpt>
      <trkpt lat="43.93239" lon="7.66015">
        <ele>245.42364501953</ele>
        <time>2018-11-08T11:18:11.824Z</time>
      </trkpt>
      <trkpt lat="43.93232" lon="7.65988">
        <ele>244.81175231934</ele>
        <time>2018-11-08T11:18:31.016Z</time>
      </trkpt>
      <trkpt lat="43.93229" lon="7.65956">
        <ele>245.03970336914</ele>
        <time>2018-11-08T11:18:50.212Z</time>
      </trkpt>
      <trkpt lat="43.93228" lon="7.65948">
        <ele>245.14698791504</ele>
        <time>2018-11-08T11:19:09.409Z</time>
      </trkpt>
      <trkpt lat="43.93228" lon="7.65947">
        <ele>245.15074157715</ele>
        <time>2018-11-08T11:19:28.606Z</time>
      </trkpt>
      <trkpt lat="43.93222" lon="7.65842">
        <ele>244.02471923828</ele>
        <time>2018-11-08T11:19:47.815Z</time>
      </trkpt>
      <trkpt lat="43.93213" lon="7.65756">
        <ele>241.75761413574</ele>
        <time>2018-11-08T11:20:07.034Z</time>
      </trkpt>
      <trkpt lat="43.93157" lon="7.65533">
        <ele>235.20066833496</ele>
        <time>2018-11-08T11:20:26.280Z</time>
      </trkpt>
      <trkpt lat="43.93144" lon="7.65484">
        <ele>232.6427154541</ele>
        <time>2018-11-08T11:20:45.532Z</time>
      </trkpt>
      <trkpt lat="43.93132" lon="7.6546">
        <ele>232.2108001709</ele>
        <time>2018-11-08T11:21:04.788Z</time>
      </trkpt>
      <trkpt lat="43.93094" lon="7.65401">
        <ele>230.85083007812</ele>
        <time>2018-11-08T11:21:24.053Z</time>
      </trkpt>
      <trkpt lat="43.93076" lon="7.65378">
        <ele>230.46688842773</ele>
        <time>2018-11-08T11:21:43.322Z</time>
      </trkpt>
      <trkpt lat="43.93062" lon="7.65357">
        <ele>230.46688842773</ele>
        <time>2018-11-08T11:22:02.594Z</time>
      </trkpt>
      <trkpt lat="43.93048" lon="7.65324">
        <ele>230.47593688965</ele>
        <time>2018-11-08T11:22:21.871Z</time>
      </trkpt>
      <trkpt lat="43.93009" lon="7.65222">
        <ele>228.31866455078</ele>
        <time>2018-11-08T11:22:41.161Z</time>
      </trkpt>
      <trkpt lat="43.92991" lon="7.65176">
        <ele>230.67027282715</ele>
        <time>2018-11-08T11:23:00.457Z</time>
      </trkpt>
      <trkpt lat="43.92956" lon="7.65083">
        <ele>225.23176574707</ele>
        <time>2018-11-08T11:23:19.765Z</time>
      </trkpt>
      <trkpt lat="43.92956" lon="7.65083">
        <ele>225.26043701172</ele>
        <time>2018-11-08T11:23:39.073Z</time>
      </trkpt>
      <trkpt lat="43.9295" lon="7.65068">
        <ele>226.92286682129</ele>
        <time>2018-11-08T11:23:58.383Z</time>
      </trkpt>
      <trkpt lat="43.92938" lon="7.65046">
        <ele>228.78280639648</ele>
        <time>2018-11-08T11:24:17.696Z</time>
      </trkpt>
      <trkpt lat="43.92922" lon="7.65024">
        <ele>230.24656677246</ele>
        <time>2018-11-08T11:24:37.013Z</time>
      </trkpt>
      <trkpt lat="43.92904" lon="7.65006">
        <ele>230.67849731445</ele>
        <time>2018-11-08T11:24:56.333Z</time>
      </trkpt>
      <trkpt lat="43.92847" lon="7.64956">
        <ele>225.69311523438</ele>
        <time>2018-11-08T11:25:15.664Z</time>
      </trkpt>
      <trkpt lat="43.92771" lon="7.64889">
        <ele>222.78480529785</ele>
        <time>2018-11-08T11:25:35.010Z</time>
      </trkpt>
      <trkpt lat="43.92752" lon="7.64868">
        <ele>221.86094665527</ele>
        <time>2018-11-08T11:25:54.360Z</time>
      </trkpt>
      <trkpt lat="43.92737" lon="7.64845">
        <ele>221.82495117188</ele>
        <time>2018-11-08T11:26:13.713Z</time>
      </trkpt>
      <trkpt lat="43.92721" lon="7.64814">
        <ele>222.74667358398</ele>
        <time>2018-11-08T11:26:33.071Z</time>
      </trkpt>
      <trkpt lat="43.92688" lon="7.64763">
        <ele>223.38182067871</ele>
        <time>2018-11-08T11:26:52.436Z</time>
      </trkpt>
      <trkpt lat="43.92657" lon="7.64727">
        <ele>229.04524230957</ele>
        <time>2018-11-08T11:27:11.808Z</time>
      </trkpt>
      <trkpt lat="43.92647" lon="7.64717">
        <ele>231.08489990234</ele>
        <time>2018-11-08T11:27:31.182Z</time>
      </trkpt>
      <trkpt lat="43.92631" lon="7.64711">
        <ele>230.86892700195</ele>
        <time>2018-11-08T11:27:50.559Z</time>
      </trkpt>
      <trkpt lat="43.92623" lon="7.6471">
        <ele>230.06506347656</ele>
        <time>2018-11-08T11:28:09.937Z</time>
      </trkpt>
      <trkpt lat="43.92613" lon="7.64712">
        <ele>227.92942810059</ele>
        <time>2018-11-08T11:28:29.317Z</time>
      </trkpt>
      <trkpt lat="43.92584" lon="7.64722">
        <ele>221.66175842285</ele>
        <time>2018-11-08T11:28:48.701Z</time>
      </trkpt>
      <trkpt lat="43.92569" lon="7.64731">
        <ele>220.46601867676</ele>
        <time>2018-11-08T11:29:08.088Z</time>
      </trkpt>
      <trkpt lat="43.92552" lon="7.64746">
        <ele>219.96209716797</ele>
        <time>2018-11-08T11:29:27.478Z</time>
      </trkpt>
      <trkpt lat="43.9254" lon="7.64762">
        <ele>219.79080200195</ele>
        <time>2018-11-08T11:29:46.871Z</time>
      </trkpt>
      <trkpt lat="43.92531" lon="7.64779">
        <ele>217.39973449707</ele>
        <time>2018-11-08T11:30:06.266Z</time>
      </trkpt>
      <trkpt lat="43.92518" lon="7.64806">
        <ele>211.81292724609</ele>
        <time>2018-11-08T11:30:25.665Z</time>
      </trkpt>
      <trkpt lat="43.92509" lon="7.64821">
        <ele>208.24951171875</ele>
        <time>2018-11-08T11:30:45.066Z</time>
      </trkpt>
      <trkpt lat="43.92493" lon="7.64837">
        <ele>208.10768127441</ele>
        <time>2018-11-08T11:31:04.470Z</time>
      </trkpt>
      <trkpt lat="43.92473" lon="7.64846">
        <ele>208.8275604248</ele>
        <time>2018-11-08T11:31:23.878Z</time>
      </trkpt>
      <trkpt lat="43.92454" lon="7.64851">
        <ele>209.5691986084</ele>
        <time>2018-11-08T11:31:43.289Z</time>
      </trkpt>
      <trkpt lat="43.92439" lon="7.6485">
        <ele>210.52742004395</ele>
        <time>2018-11-08T11:32:02.702Z</time>
      </trkpt>
      <trkpt lat="43.92428" lon="7.64845">
        <ele>210.47943115234</ele>
        <time>2018-11-08T11:32:22.117Z</time>
      </trkpt>
      <trkpt lat="43.92412" lon="7.6483">
        <ele>209.78219604492</ele>
        <time>2018-11-08T11:32:41.535Z</time>
      </trkpt>
      <trkpt lat="43.92388" lon="7.64776">
        <ele>205.95179748535</ele>
        <time>2018-11-08T11:33:00.961Z</time>
      </trkpt>
      <trkpt lat="43.9234" lon="7.64658">
        <ele>209.37205505371</ele>
        <time>2018-11-08T11:33:20.402Z</time>
      </trkpt>
      <trkpt lat="43.92326" lon="7.64633">
        <ele>218.44932556152</ele>
        <time>2018-11-08T11:33:39.847Z</time>
      </trkpt>
      <trkpt lat="43.92317" lon="7.64623">
        <ele>221.90475463867</ele>
        <time>2018-11-08T11:33:59.294Z</time>
      </trkpt>
      <trkpt lat="43.92301" lon="7.64612">
        <ele>225.85209655762</ele>
        <time>2018-11-08T11:34:18.744Z</time>
      </trkpt>
      <trkpt lat="43.92284" lon="7.64604">
        <ele>227.99295043945</ele>
        <time>2018-11-08T11:34:38.196Z</time>
      </trkpt>
      <trkpt lat="43.92279" lon="7.64603">
        <ele>228.06321716309</ele>
        <time>2018-11-08T11:34:57.649Z</time>
      </trkpt>
      <trkpt lat="43.92278" lon="7.64603">
        <ele>228.06594848633</ele>
        <time>2018-11-08T11:35:17.102Z</time>
      </trkpt>
      <trkpt lat="43.92244" lon="7.64595">
        <ele>231.37471008301</ele>
        <time>2018-11-08T11:35:36.561Z</time>
      </trkpt>
      <trkpt lat="43.9223" lon="7.64594">
        <ele>231.974609375</ele>
        <time>2018-11-08T11:35:56.022Z</time>
      </trkpt>
      <trkpt lat="43.9222" lon="7.64598">
        <ele>230.36688232422</ele>
        <time>2018-11-08T11:36:15.485Z</time>
      </trkpt>
      <trkpt lat="43.92191" lon="7.64621">
        <ele>219.53492736816</ele>
        <time>2018-11-08T11:36:34.953Z</time>
      </trkpt>
      <trkpt lat="43.92171" lon="7.64633">
        <ele>212.04443359375</ele>
        <time>2018-11-08T11:36:54.425Z</time>
      </trkpt>
      <trkpt lat="43.92157" lon="7.64636">
        <ele>209.31231689453</ele>
        <time>2018-11-08T11:37:13.899Z</time>
      </trkpt>
      <trkpt lat="43.92139" lon="7.64633">
        <ele>209.88822937012</ele>
        <time>2018-11-08T11:37:33.376Z</time>
      </trkpt>
      <trkpt lat="43.92114" lon="7.64622">
        <ele>213.47563171387</ele>
        <time>2018-11-08T11:37:52.857Z</time>
      </trkpt>
      <trkpt lat="43.92103" lon="7.64618">
        <ele>216.21334838867</ele>
        <time>2018-11-08T11:38:12.340Z</time>
      </trkpt>
      <trkpt lat="43.92091" lon="7.64618">
        <ele>220.24467468262</ele>
        <time>2018-11-08T11:38:31.825Z</time>
      </trkpt>
      <trkpt lat="43.92078" lon="7.64624">
        <ele>222.16435241699</ele>
        <time>2018-11-08T11:38:51.312Z</time>
      </trkpt>
      <trkpt lat="43.92041" lon="7.64646">
        <ele>220.98626708984</ele>
        <time>2018-11-08T11:39:10.805Z</time>
      </trkpt>
      <trkpt lat="43.92016" lon="7.64664">
        <ele>218.62922668457</ele>
        <time>2018-11-08T11:39:30.303Z</time>
      </trkpt>
      <trkpt lat="43.91986" lon="7.64699">
        <ele>217.70018005371</ele>
        <time>2018-11-08T11:39:49.807Z</time>
      </trkpt>
      <trkpt lat="43.91928" lon="7.64779">
        <ele>202.81860351562</ele>
        <time>2018-11-08T11:40:09.324Z</time>
      </trkpt>
      <trkpt lat="43.91894" lon="7.64808">
        <ele>205.69303894043</ele>
        <time>2018-11-08T11:40:28.848Z</time>
      </trkpt>
      <trkpt lat="43.9186" lon="7.64834">
        <ele>199.33410644531</ele>
        <time>2018-11-08T11:40:48.378Z</time>
      </trkpt>
      <trkpt lat="43.91824" lon="7.6485">
        <ele>199.04960632324</ele>
        <time>2018-11-08T11:41:07.914Z</time>
      </trkpt>
      <trkpt lat="43.91767" lon="7.64859">
        <ele>199.52429199219</ele>
        <time>2018-11-08T11:41:27.459Z</time>
      </trkpt>
      <trkpt lat="43.91734" lon="7.64871">
        <ele>195.81690979004</ele>
        <time>2018-11-08T11:41:47.010Z</time>
      </trkpt>
      <trkpt lat="43.91685" lon="7.64881">
        <ele>192.53308105469</ele>
        <time>2018-11-08T11:42:06.569Z</time>
      </trkpt>
      <trkpt lat="43.91641" lon="7.64889">
        <ele>191.70274353027</ele>
        <time>2018-11-08T11:42:26.135Z</time>
      </trkpt>
      <trkpt lat="43.91617" lon="7.64896">
        <ele>192.00270080566</ele>
        <time>2018-11-08T11:42:45.705Z</time>
      </trkpt>
      <trkpt lat="43.91589" lon="7.64902">
        <ele>189.98466491699</ele>
        <time>2018-11-08T11:43:05.279Z</time>
      </trkpt>
      <trkpt lat="43.91573" lon="7.64901">
        <ele>188.66488647461</ele>
        <time>2018-11-08T11:43:24.856Z</time>
      </trkpt>
      <trkpt lat="43.91557" lon="7.64899">
        <ele>187.56108093262</ele>
        <time>2018-11-08T11:43:44.435Z</time>
      </trkpt>
      <trkpt lat="43.91534" lon="7.64891">
        <ele>187.08116149902</ele>
        <time>2018-11-08T11:44:04.018Z</time>
      </trkpt>
      <trkpt lat="43.91505" lon="7.64878">
        <ele>189.11442565918</ele>
        <time>2018-11-08T11:44:23.606Z</time>
      </trkpt>
      <trkpt lat="43.91462" lon="7.64858">
        <ele>193.94436645508</ele>
        <time>2018-11-08T11:44:43.201Z</time>
      </trkpt>
      <trkpt lat="43.91441" lon="7.64851">
        <ele>195.54010009766</ele>
        <time>2018-11-08T11:45:02.800Z</time>
      </trkpt>
      <trkpt lat="43.91432" lon="7.64852">
        <ele>196.08489990234</ele>
        <time>2018-11-08T11:45:22.400Z</time>
      </trkpt>
      <trkpt lat="43.91432" lon="7.64853">
        <ele>196.09942626953</ele>
        <time>2018-11-08T11:45:42.000Z</time>
      </trkpt>
      <trkpt lat="43.91423" lon="7.64854">
        <ele>196.72003173828</ele>
        <time>2018-11-08T11:46:01.601Z</time>
      </trkpt>
      <trkpt lat="43.91347" lon="7.64869">
        <ele>198.47326660156</ele>
        <time>2018-11-08T11:46:21.215Z</time>
      </trkpt>
      <trkpt lat="43.91321" lon="7.64877">
        <ele>203.82438659668</ele>
        <time>2018-11-08T11:46:40.833Z</time>
      </trkpt>
      <trkpt lat="43.91286" lon="7.64902">
        <ele>199.76077270508</ele>
        <time>2018-11-08T11:47:00.457Z</time>
      </trkpt>
      <trkpt lat="43.91272" lon="7.6492">
        <ele>193.8360748291</ele>
        <time>2018-11-08T11:47:20.084Z</time>
      </trkpt>
      <trkpt lat="43.91267" lon="7.64936">
        <ele>189.46879577637</ele>
        <time>2018-11-08T11:47:39.713Z</time>
      </trkpt>
      <trkpt lat="43.91265" lon="7.64954">
        <ele>184.38165283203</ele>
        <time>2018-11-08T11:47:59.345Z</time>
      </trkpt>
      <trkpt lat="43.91266" lon="7.64993">
        <ele>173.10353088379</ele>
        <time>2018-11-08T11:48:18.981Z</time>
      </trkpt>
      <trkpt lat="43.91264" lon="7.65005">
        <ele>170.69302368164</ele>
        <time>2018-11-08T11:48:38.618Z</time>
      </trkpt>
      <trkpt lat="43.91259" lon="7.65014">
        <ele>171.42489624023</ele>
        <time>2018-11-08T11:48:58.257Z</time>
      </trkpt>
      <trkpt lat="43.91245" lon="7.65031">
        <ele>173.08062744141</ele>
        <time>2018-11-08T11:49:17.899Z</time>
      </trkpt>
      <trkpt lat="43.91223" lon="7.65047">
        <ele>173.2027130127</ele>
        <time>2018-11-08T11:49:37.545Z</time>
      </trkpt>
      <trkpt lat="43.91206" lon="7.65055">
        <ele>170.40718078613</ele>
        <time>2018-11-08T11:49:57.194Z</time>
      </trkpt>
      <trkpt lat="43.91193" lon="7.65059">
        <ele>168.52349853516</ele>
        <time>2018-11-08T11:50:16.845Z</time>
      </trkpt>
      <trkpt lat="43.9116" lon="7.65057">
        <ele>166.49900817871</ele>
        <time>2018-11-08T11:50:36.501Z</time>
      </trkpt>
      <trkpt lat="43.91124" lon="7.65053">
        <ele>169.37852478027</ele>
        <time>2018-11-08T11:50:56.163Z</time>
      </trkpt>
      <trkpt lat="43.91099" lon="7.65045">
        <ele>169.58471679688</ele>
        <time>2018-11-08T11:51:15.829Z</time>
      </trkpt>
      <trkpt lat="43.91089" lon="7.6504">
        <ele>168.20495605469</ele>
        <time>2018-11-08T11:51:35.497Z</time>
      </trkpt>
      <trkpt lat="43.91026" lon="7.64993">
        <ele>161.00981140137</ele>
        <time>2018-11-08T11:51:55.176Z</time>
      </trkpt>
      <trkpt lat="43.90978" lon="7.64956">
        <ele>163.5482635498</ele>
        <time>2018-11-08T11:52:14.864Z</time>
      </trkpt>
      <trkpt lat="43.90965" lon="7.64947">
        <ele>164.43698120117</ele>
        <time>2018-11-08T11:52:34.554Z</time>
      </trkpt>
      <trkpt lat="43.90945" lon="7.64939">
        <ele>165.63677978516</ele>
        <time>2018-11-08T11:52:54.247Z</time>
      </trkpt>
      <trkpt lat="43.9091" lon="7.64934">
        <ele>165.0241394043</ele>
        <time>2018-11-08T11:53:13.946Z</time>
      </trkpt>
      <trkpt lat="43.90878" lon="7.64933">
        <ele>163.93232727051</ele>
        <time>2018-11-08T11:53:33.650Z</time>
      </trkpt>
      <trkpt lat="43.90837" lon="7.64938">
        <ele>164.03598022461</ele>
        <time>2018-11-08T11:53:53.361Z</time>
      </trkpt>
      <trkpt lat="43.90812" lon="7.64944">
        <ele>164.7198638916</ele>
        <time>2018-11-08T11:54:13.076Z</time>
      </trkpt>
      <trkpt lat="43.90775" lon="7.64959">
        <ele>159.07624816895</ele>
        <time>2018-11-08T11:54:32.797Z</time>
      </trkpt>
      <trkpt lat="43.90676" lon="7.65014">
        <ele>155.0318145752</ele>
        <time>2018-11-08T11:54:52.535Z</time>
      </trkpt>
      <trkpt lat="43.90645" lon="7.65027">
        <ele>155.24778747559</ele>
        <time>2018-11-08T11:55:12.278Z</time>
      </trkpt>
      <trkpt lat="43.9059" lon="7.65043">
        <ele>155.47859191895</ele>
        <time>2018-11-08T11:55:32.030Z</time>
      </trkpt>
      <trkpt lat="43.90572" lon="7.65045">
        <ele>154.42277526855</ele>
        <time>2018-11-08T11:55:51.785Z</time>
      </trkpt>
      <trkpt lat="43.9055" lon="7.6504">
        <ele>153.96046447754</ele>
        <time>2018-11-08T11:56:11.544Z</time>
      </trkpt>
      <trkpt lat="43.90498" lon="7.65022">
        <ele>153.17530822754</ele>
        <time>2018-11-08T11:56:31.311Z</time>
      </trkpt>
      <trkpt lat="43.90475" lon="7.65004">
        <ele>151.72354125977</ele>
        <time>2018-11-08T11:56:51.083Z</time>
      </trkpt>
      <trkpt lat="43.90457" lon="7.64982">
        <ele>151.79716491699</ele>
        <time>2018-11-08T11:57:10.858Z</time>
      </trkpt>
      <trkpt lat="43.90444" lon="7.64956">
        <ele>151.953125</ele>
        <time>2018-11-08T11:57:30.637Z</time>
      </trkpt>
      <trkpt lat="43.90425" lon="7.64914">
        <ele>152.58815002441</ele>
        <time>2018-11-08T11:57:50.422Z</time>
      </trkpt>
      <trkpt lat="43.90409" lon="7.64895">
        <ele>157.59130859375</ele>
        <time>2018-11-08T11:58:10.210Z</time>
      </trkpt>
      <trkpt lat="43.90383" lon="7.64873">
        <ele>162.84643554688</ele>
        <time>2018-11-08T11:58:30.003Z</time>
      </trkpt>
      <trkpt lat="43.90371" lon="7.64864">
        <ele>164.89810180664</ele>
        <time>2018-11-08T11:58:49.798Z</time>
      </trkpt>
      <trkpt lat="43.9035" lon="7.64854">
        <ele>167.03053283691</ele>
        <time>2018-11-08T11:59:09.597Z</time>
      </trkpt>
      <trkpt lat="43.90325" lon="7.64851">
        <ele>167.7024230957</ele>
        <time>2018-11-08T11:59:29.400Z</time>
      </trkpt>
      <trkpt lat="43.90296" lon="7.64852">
        <ele>167.05920410156</ele>
        <time>2018-11-08T11:59:49.208Z</time>
      </trkpt>
      <trkpt lat="43.90295" lon="7.64852">
        <ele>167.05465698242</ele>
        <time>2018-11-08T12:00:09.016Z</time>
      </trkpt>
      <trkpt lat="43.90292" lon="7.64852">
        <ele>166.98254394531</ele>
        <time>2018-11-08T12:00:28.824Z</time>
      </trkpt>
      <trkpt lat="43.90265" lon="7.64854">
        <ele>168.5119934082</ele>
        <time>2018-11-08T12:00:48.636Z</time>
      </trkpt>
      <trkpt lat="43.90245" lon="7.64862">
        <ele>169.51983642578</ele>
        <time>2018-11-08T12:01:08.452Z</time>
      </trkpt>
      <trkpt lat="43.90157" lon="7.64929">
        <ele>155.93524169922</ele>
        <time>2018-11-08T12:01:28.284Z</time>
      </trkpt>
      <trkpt lat="43.90142" lon="7.64939">
        <ele>155.27536010742</ele>
        <time>2018-11-08T12:01:48.118Z</time>
      </trkpt>
      <trkpt lat="43.90135" lon="7.64943">
        <ele>154.87942504883</ele>
        <time>2018-11-08T12:02:07.954Z</time>
      </trkpt>
      <trkpt lat="43.90121" lon="7.64946">
        <ele>152.97647094727</ele>
        <time>2018-11-08T12:02:27.792Z</time>
      </trkpt>
      <trkpt lat="43.9008" lon="7.64946">
        <ele>151.21607971191</ele>
        <time>2018-11-08T12:02:47.637Z</time>
      </trkpt>
      <trkpt lat="43.90062" lon="7.64946">
        <ele>151.64801025391</ele>
        <time>2018-11-08T12:03:07.484Z</time>
      </trkpt>
      <trkpt lat="43.9003" lon="7.64929">
        <ele>151.62559509277</ele>
        <time>2018-11-08T12:03:27.337Z</time>
      </trkpt>
      <trkpt lat="43.8998" lon="7.64901">
        <ele>147.43359375</ele>
        <time>2018-11-08T12:03:47.199Z</time>
      </trkpt>
      <trkpt lat="43.89958" lon="7.64884">
        <ele>145.47792053223</ele>
        <time>2018-11-08T12:04:07.065Z</time>
      </trkpt>
      <trkpt lat="43.89946" lon="7.64876">
        <ele>144.51808166504</ele>
        <time>2018-11-08T12:04:26.933Z</time>
      </trkpt>
      <trkpt lat="43.89917" lon="7.64863">
        <ele>143.55860900879</ele>
        <time>2018-11-08T12:04:46.806Z</time>
      </trkpt>
      <trkpt lat="43.89898" lon="7.6485">
        <ele>142.6947479248</ele>
        <time>2018-11-08T12:05:06.682Z</time>
      </trkpt>
      <trkpt lat="43.89891" lon="7.64843">
        <ele>142.1908416748</ele>
        <time>2018-11-08T12:05:26.559Z</time>
      </trkpt>
      <trkpt lat="43.89872" lon="7.6482">
        <ele>144.85340881348</ele>
        <time>2018-11-08T12:05:46.440Z</time>
      </trkpt>
      <trkpt lat="43.89855" lon="7.64809">
        <ele>146.94952392578</ele>
        <time>2018-11-08T12:06:06.324Z</time>
      </trkpt>
      <trkpt lat="43.8984" lon="7.64806">
        <ele>145.7257232666</ele>
        <time>2018-11-08T12:06:26.211Z</time>
      </trkpt>
      <trkpt lat="43.89823" lon="7.64805">
        <ele>144.18476867676</ele>
        <time>2018-11-08T12:06:46.101Z</time>
      </trkpt>
      <trkpt lat="43.89709" lon="7.64826">
        <ele>141.4714050293</ele>
        <time>2018-11-08T12:07:06.009Z</time>
      </trkpt>
      <trkpt lat="43.89687" lon="7.64828">
        <ele>141.16171264648</ele>
        <time>2018-11-08T12:07:25.920Z</time>
      </trkpt>
      <trkpt lat="43.89672" lon="7.64826">
        <ele>141.44845581055</ele>
        <time>2018-11-08T12:07:45.834Z</time>
      </trkpt>
      <trkpt lat="43.8965" lon="7.64812">
        <ele>141.78440856934</ele>
        <time>2018-11-08T12:08:05.752Z</time>
      </trkpt>
      <trkpt lat="43.89587" lon="7.64752">
        <ele>139.43661499023</ele>
        <time>2018-11-08T12:08:25.682Z</time>
      </trkpt>
      <trkpt lat="43.89522" lon="7.64698">
        <ele>137.0478515625</ele>
        <time>2018-11-08T12:08:45.624Z</time>
      </trkpt>
      <trkpt lat="43.89509" lon="7.6469">
        <ele>136.16000366211</ele>
        <time>2018-11-08T12:09:05.568Z</time>
      </trkpt>
      <trkpt lat="43.89494" lon="7.64686">
        <ele>135.51211547852</ele>
        <time>2018-11-08T12:09:25.515Z</time>
      </trkpt>
      <trkpt lat="43.89477" lon="7.64679">
        <ele>134.60026550293</ele>
        <time>2018-11-08T12:09:45.465Z</time>
      </trkpt>
      <trkpt lat="43.89466" lon="7.64679">
        <ele>134.33630371094</ele>
        <time>2018-11-08T12:10:05.416Z</time>
      </trkpt>
      <trkpt lat="43.89453" lon="7.64679">
        <ele>134.02436828613</ele>
        <time>2018-11-08T12:10:25.370Z</time>
      </trkpt>
      <trkpt lat="43.89401" lon="7.64687">
        <ele>135.611328125</ele>
        <time>2018-11-08T12:10:45.332Z</time>
      </trkpt>
      <trkpt lat="43.89355" lon="7.64693">
        <ele>140.50964355469</ele>
        <time>2018-11-08T12:11:05.301Z</time>
      </trkpt>
      <trkpt lat="43.8932" lon="7.64686">
        <ele>143.28117370605</ele>
        <time>2018-11-08T12:11:25.276Z</time>
      </trkpt>
      <trkpt lat="43.89302" lon="7.64681">
        <ele>144.33700561523</ele>
        <time>2018-11-08T12:11:45.254Z</time>
      </trkpt>
      <trkpt lat="43.8929" lon="7.64673">
        <ele>143.80908203125</ele>
        <time>2018-11-08T12:12:05.234Z</time>
      </trkpt>
      <trkpt lat="43.89278" lon="7.6466">
        <ele>142.72802734375</ele>
        <time>2018-11-08T12:12:25.216Z</time>
      </trkpt>
      <trkpt lat="43.89242" lon="7.64605">
        <ele>135.70724487305</ele>
        <time>2018-11-08T12:12:45.207Z</time>
      </trkpt>
      <trkpt lat="43.89228" lon="7.64587">
        <ele>133.47561645508</ele>
        <time>2018-11-08T12:13:05.201Z</time>
      </trkpt>
      <trkpt lat="43.89189" lon="7.64546">
        <ele>130.73918151855</ele>
        <time>2018-11-08T12:13:25.203Z</time>
      </trkpt>
      <trkpt lat="43.89177" lon="7.64538">
        <ele>129.53938293457</ele>
        <time>2018-11-08T12:13:45.207Z</time>
      </trkpt>
      <trkpt lat="43.89142" lon="7.64518">
        <ele>126.47988891602</ele>
        <time>2018-11-08T12:14:05.217Z</time>
      </trkpt>
      <trkpt lat="43.891" lon="7.64504">
        <ele>125.42342376709</ele>
        <time>2018-11-08T12:14:25.234Z</time>
      </trkpt>
      <trkpt lat="43.891" lon="7.64505">
        <ele>125.83135223389</ele>
        <time>2018-11-08T12:14:45.251Z</time>
      </trkpt>
      <trkpt lat="43.89024" lon="7.64484">
        <ele>131.45594787598</ele>
        <time>2018-11-08T12:15:05.281Z</time>
      </trkpt>
      <trkpt lat="43.89024" lon="7.64484">
        <ele>131.47297668457</ele>
        <time>2018-11-08T12:15:25.311Z</time>
      </trkpt>
      <trkpt lat="43.89014" lon="7.64481">
        <ele>130.84042358398</ele>
        <time>2018-11-08T12:15:45.342Z</time>
      </trkpt>
      <trkpt lat="43.89008" lon="7.64477">
        <ele>130.0965423584</ele>
        <time>2018-11-08T12:16:05.374Z</time>
      </trkpt>
      <trkpt lat="43.89003" lon="7.6447">
        <ele>128.99272155762</ele>
        <time>2018-11-08T12:16:25.407Z</time>
      </trkpt>
      <trkpt lat="43.89" lon="7.64462">
        <ele>127.82891845703</ele>
        <time>2018-11-08T12:16:45.441Z</time>
      </trkpt>
      <trkpt lat="43.89001" lon="7.64454">
        <ele>126.80908966064</ele>
        <time>2018-11-08T12:17:05.476Z</time>
      </trkpt>
      <trkpt lat="43.8901" lon="7.64412">
        <ele>122.86529541016</ele>
        <time>2018-11-08T12:17:25.516Z</time>
      </trkpt>
      <trkpt lat="43.8901" lon="7.64403">
        <ele>123.43618774414</ele>
        <time>2018-11-08T12:17:45.557Z</time>
      </trkpt>
      <trkpt lat="43.89007" lon="7.64395">
        <ele>123.95210266113</ele>
        <time>2018-11-08T12:18:05.600Z</time>
      </trkpt>
      <trkpt lat="43.89001" lon="7.64386">
        <ele>124.31204223633</ele>
        <time>2018-11-08T12:18:25.644Z</time>
      </trkpt>
      <trkpt lat="43.88987" lon="7.6438">
        <ele>123.71214294434</ele>
        <time>2018-11-08T12:18:45.690Z</time>
      </trkpt>
      <trkpt lat="43.8897" lon="7.64377">
        <ele>123.10525512695</ele>
        <time>2018-11-08T12:19:05.739Z</time>
      </trkpt>
      <trkpt lat="43.88946" lon="7.64372">
        <ele>122.48136138916</ele>
        <time>2018-11-08T12:19:25.792Z</time>
      </trkpt>
      <trkpt lat="43.8893" lon="7.64365">
        <ele>122.24140167236</ele>
        <time>2018-11-08T12:19:45.848Z</time>
      </trkpt>
      <trkpt lat="43.8887" lon="7.64315">
        <ele>121.4860458374</ele>
        <time>2018-11-08T12:20:05.915Z</time>
      </trkpt>
      <trkpt lat="43.88859" lon="7.64303">
        <ele>121.09011077881</ele>
        <time>2018-11-08T12:20:25.984Z</time>
      </trkpt>
      <trkpt lat="43.88853" lon="7.64294">
        <ele>121.16780090332</ele>
        <time>2018-11-08T12:20:46.054Z</time>
      </trkpt>
      <trkpt lat="43.88844" lon="7.64256">
        <ele>121.59973144531</ele>
        <time>2018-11-08T12:21:06.129Z</time>
      </trkpt>
      <trkpt lat="43.88833" lon="7.64227">
        <ele>120.54988861084</ele>
        <time>2018-11-08T12:21:26.208Z</time>
      </trkpt>
      <trkpt lat="43.88815" lon="7.6421">
        <ele>120.05797576904</ele>
        <time>2018-11-08T12:21:46.290Z</time>
      </trkpt>
      <trkpt lat="43.88728" lon="7.6416">
        <ele>119.86636352539</ele>
        <time>2018-11-08T12:22:06.387Z</time>
      </trkpt>
      <trkpt lat="43.88665" lon="7.64099">
        <ele>117.2361831665</ele>
        <time>2018-11-08T12:22:26.497Z</time>
      </trkpt>
      <trkpt lat="43.88611" lon="7.64044">
        <ele>118.8854598999</ele>
        <time>2018-11-08T12:22:46.617Z</time>
      </trkpt>
      <trkpt lat="43.88545" lon="7.64007">
        <ele>118.37609100342</ele>
        <time>2018-11-08T12:23:06.749Z</time>
      </trkpt>
      <trkpt lat="43.88532" lon="7.64005">
        <ele>117.44024658203</ele>
        <time>2018-11-08T12:23:26.883Z</time>
      </trkpt>
      <trkpt lat="43.88506" lon="7.64006">
        <ele>116.98631286621</ele>
        <time>2018-11-08T12:23:47.021Z</time>
      </trkpt>
      <trkpt lat="43.88482" lon="7.64011">
        <ele>116.97431182861</ele>
        <time>2018-11-08T12:24:07.163Z</time>
      </trkpt>
      <trkpt lat="43.88444" lon="7.6404">
        <ele>114.08711242676</ele>
        <time>2018-11-08T12:24:27.312Z</time>
      </trkpt>
      <trkpt lat="43.88417" lon="7.64056">
        <ele>112.20679473877</ele>
        <time>2018-11-08T12:24:47.466Z</time>
      </trkpt>
      <trkpt lat="43.88397" lon="7.64064">
        <ele>112.10107421875</ele>
        <time>2018-11-08T12:25:07.623Z</time>
      </trkpt>
      <trkpt lat="43.88381" lon="7.64067">
        <ele>112.46101379395</ele>
        <time>2018-11-08T12:25:27.783Z</time>
      </trkpt>
      <trkpt lat="43.88367" lon="7.64065">
        <ele>113.10890960693</ele>
        <time>2018-11-08T12:25:47.945Z</time>
      </trkpt>
      <trkpt lat="43.88331" lon="7.64048">
        <ele>112.57942199707</ele>
        <time>2018-11-08T12:26:08.113Z</time>
      </trkpt>
      <trkpt lat="43.88297" lon="7.64032">
        <ele>110.87570953369</ele>
        <time>2018-11-08T12:26:28.287Z</time>
      </trkpt>
      <trkpt lat="43.88283" lon="7.64026">
        <ele>110.13182830811</ele>
        <time>2018-11-08T12:26:48.463Z</time>
      </trkpt>
      <trkpt lat="43.88251" lon="7.64022">
        <ele>107.73223114014</ele>
        <time>2018-11-08T12:27:08.644Z</time>
      </trkpt>
      <trkpt lat="43.88218" lon="7.64013">
        <ele>105.60858154297</ele>
        <time>2018-11-08T12:27:28.831Z</time>
      </trkpt>
      <trkpt lat="43.88197" lon="7.64006">
        <ele>104.34879302979</ele>
        <time>2018-11-08T12:27:49.021Z</time>
      </trkpt>
      <trkpt lat="43.88156" lon="7.6398">
        <ele>104.80447387695</ele>
        <time>2018-11-08T12:28:09.218Z</time>
      </trkpt>
      <trkpt lat="43.88146" lon="7.63971">
        <ele>105.11437225342</ele>
        <time>2018-11-08T12:28:29.417Z</time>
      </trkpt>
      <trkpt lat="43.88146" lon="7.63971">
        <ele>105.11988067627</ele>
        <time>2018-11-08T12:28:49.616Z</time>
      </trkpt>
      <trkpt lat="43.88127" lon="7.63955">
        <ele>105.70432281494</ele>
        <time>2018-11-08T12:29:09.819Z</time>
      </trkpt>
      <trkpt lat="43.88116" lon="7.6394">
        <ele>106.24423980713</ele>
        <time>2018-11-08T12:29:30.024Z</time>
      </trkpt>
      <trkpt lat="43.88096" lon="7.63923">
        <ele>106.2339553833</ele>
        <time>2018-11-08T12:29:50.233Z</time>
      </trkpt>
      <trkpt lat="43.88076" lon="7.63908">
        <ele>106.89421081543</ele>
        <time>2018-11-08T12:30:10.446Z</time>
      </trkpt>
      <trkpt lat="43.88062" lon="7.63903">
        <ele>106.83422088623</ele>
        <time>2018-11-08T12:30:30.661Z</time>
      </trkpt>
      <trkpt lat="43.87956" lon="7.63885">
        <ele>105.25196838379</ele>
        <time>2018-11-08T12:30:50.893Z</time>
      </trkpt>
      <trkpt lat="43.87921" lon="7.63889">
        <ele>102.24673461914</ele>
        <time>2018-11-08T12:31:11.131Z</time>
      </trkpt>
      <trkpt lat="43.87915" lon="7.63887">
        <ele>101.45486450195</ele>
        <time>2018-11-08T12:31:31.370Z</time>
      </trkpt>
      <trkpt lat="43.87891" lon="7.63856">
        <ele>99.94312286377</ele>
        <time>2018-11-08T12:31:51.614Z</time>
      </trkpt>
      <trkpt lat="43.87835" lon="7.63784">
        <ele>102.8452911377</ele>
        <time>2018-11-08T12:32:11.870Z</time>
      </trkpt>
      <trkpt lat="43.87726" lon="7.63661">
        <ele>102.02225494385</ele>
        <time>2018-11-08T12:32:32.149Z</time>
      </trkpt>
      <trkpt lat="43.87637" lon="7.63564">
        <ele>97.59049987793</ele>
        <time>2018-11-08T12:32:52.446Z</time>
      </trkpt>
      <trkpt lat="43.87584" lon="7.63507">
        <ele>96.240013122559</ele>
        <time>2018-11-08T12:33:12.753Z</time>
      </trkpt>
      <trkpt lat="43.87516" lon="7.63446">
        <ele>97.798614501953</ele>
        <time>2018-11-08T12:33:33.073Z</time>
      </trkpt>
      <trkpt lat="43.87501" lon="7.63426">
        <ele>100.07823944092</ele>
        <time>2018-11-08T12:33:53.397Z</time>
      </trkpt>
      <trkpt lat="43.87484" lon="7.63392">
        <ele>98.888069152832</ele>
        <time>2018-11-08T12:34:13.725Z</time>
      </trkpt>
      <trkpt lat="43.87475" lon="7.63357">
        <ele>98.307090759277</ele>
        <time>2018-11-08T12:34:34.058Z</time>
      </trkpt>
      <trkpt lat="43.87469" lon="7.63312">
        <ele>97.443054199219</ele>
        <time>2018-11-08T12:34:54.396Z</time>
      </trkpt>
      <trkpt lat="43.87464" lon="7.63183">
        <ele>93.130889892578</ele>
        <time>2018-11-08T12:35:14.749Z</time>
      </trkpt>
      <trkpt lat="43.87457" lon="7.63115">
        <ele>91.903877258301</ele>
        <time>2018-11-08T12:35:35.110Z</time>
      </trkpt>
      <trkpt lat="43.87437" lon="7.63047">
        <ele>92.680679321289</ele>
        <time>2018-11-08T12:35:55.479Z</time>
      </trkpt>
      <trkpt lat="43.87395" lon="7.62957">
        <ele>99.711990356445</ele>
        <time>2018-11-08T12:36:15.861Z</time>
      </trkpt>
      <trkpt lat="43.87377" lon="7.62936">
        <ele>100.82780456543</ele>
        <time>2018-11-08T12:36:36.247Z</time>
      </trkpt>
      <trkpt lat="43.87369" lon="7.6293">
        <ele>100.32389068604</ele>
        <time>2018-11-08T12:36:56.634Z</time>
      </trkpt>
      <trkpt lat="43.87358" lon="7.62929">
        <ele>98.566307067871</ele>
        <time>2018-11-08T12:37:17.023Z</time>
      </trkpt>
      <trkpt lat="43.87335" lon="7.62937">
        <ele>94.399871826172</ele>
        <time>2018-11-08T12:37:37.416Z</time>
      </trkpt>
      <trkpt lat="43.87308" lon="7.6295">
        <ele>88.976776123047</ele>
        <time>2018-11-08T12:37:57.813Z</time>
      </trkpt>
      <trkpt lat="43.87292" lon="7.62957">
        <ele>88.168449401855</ele>
        <time>2018-11-08T12:38:18.213Z</time>
      </trkpt>
      <trkpt lat="43.87274" lon="7.62962">
        <ele>87.928489685059</ele>
        <time>2018-11-08T12:38:38.616Z</time>
      </trkpt>
      <trkpt lat="43.87259" lon="7.62965">
        <ele>87.617752075195</ele>
        <time>2018-11-08T12:38:59.021Z</time>
      </trkpt>
      <trkpt lat="43.8724" lon="7.62961">
        <ele>87.581756591797</ele>
        <time>2018-11-08T12:39:19.429Z</time>
      </trkpt>
      <trkpt lat="43.87219" lon="7.62954">
        <ele>89.242988586426</ele>
        <time>2018-11-08T12:39:39.841Z</time>
      </trkpt>
      <trkpt lat="43.87205" lon="7.62944">
        <ele>90.658752441406</ele>
        <time>2018-11-08T12:40:00.255Z</time>
      </trkpt>
      <trkpt lat="43.87184" lon="7.62919">
        <ele>92.168098449707</ele>
        <time>2018-11-08T12:40:20.674Z</time>
      </trkpt>
      <trkpt lat="43.87168" lon="7.62886">
        <ele>94.54118347168</ele>
        <time>2018-11-08T12:40:41.097Z</time>
      </trkpt>
      <trkpt lat="43.8716" lon="7.62857">
        <ele>95.992942810059</ele>
        <time>2018-11-08T12:41:01.524Z</time>
      </trkpt>
      <trkpt lat="43.87154" lon="7.6282">
        <ele>93.931106567383</ele>
        <time>2018-11-08T12:41:21.955Z</time>
      </trkpt>
      <trkpt lat="43.87142" lon="7.62677">
        <ele>89.929679870605</ele>
        <time>2018-11-08T12:41:42.403Z</time>
      </trkpt>
      <trkpt lat="43.87136" lon="7.62618">
        <ele>88.78589630127</ele>
        <time>2018-11-08T12:42:02.858Z</time>
      </trkpt>
      <trkpt lat="43.87124" lon="7.62584">
        <ele>93.198310852051</ele>
        <time>2018-11-08T12:42:23.317Z</time>
      </trkpt>
      <trkpt lat="43.87112" lon="7.62568">
        <ele>93.246299743652</ele>
        <time>2018-11-08T12:42:43.779Z</time>
      </trkpt>
      <trkpt lat="43.8709" lon="7.6255">
        <ele>93.377250671387</ele>
        <time>2018-11-08T12:43:04.245Z</time>
      </trkpt>
      <trkpt lat="43.87064" lon="7.6254">
        <ele>90.905662536621</ele>
        <time>2018-11-08T12:43:24.715Z</time>
      </trkpt>
      <trkpt lat="43.87049" lon="7.62537">
        <ele>90.136268615723</ele>
        <time>2018-11-08T12:43:45.188Z</time>
      </trkpt>
      <trkpt lat="43.87016" lon="7.62533">
        <ele>89.20384979248</ele>
        <time>2018-11-08T12:44:05.666Z</time>
      </trkpt>
      <trkpt lat="43.8697" lon="7.62536">
        <ele>85.73055267334</ele>
        <time>2018-11-08T12:44:26.151Z</time>
      </trkpt>
      <trkpt lat="43.8692" lon="7.62537">
        <ele>87.253555297852</ele>
        <time>2018-11-08T12:44:46.644Z</time>
      </trkpt>
      <trkpt lat="43.86855" lon="7.62536">
        <ele>90.178321838379</ele>
        <time>2018-11-08T12:45:07.148Z</time>
      </trkpt>
      <trkpt lat="43.86842" lon="7.62535">
        <ele>89.688423156738</ele>
        <time>2018-11-08T12:45:27.654Z</time>
      </trkpt>
      <trkpt lat="43.86842" lon="7.62535">
        <ele>89.680488586426</ele>
        <time>2018-11-08T12:45:48.160Z</time>
      </trkpt>
      <trkpt lat="43.86783" lon="7.62532">
        <ele>90.51789855957</ele>
        <time>2018-11-08T12:46:08.675Z</time>
      </trkpt>
      <trkpt lat="43.86738" lon="7.6252">
        <ele>88.600730895996</ele>
        <time>2018-11-08T12:46:29.198Z</time>
      </trkpt>
      <trkpt lat="43.86685" lon="7.625">
        <ele>84.350639343262</ele>
        <time>2018-11-08T12:46:49.730Z</time>
      </trkpt>
      <trkpt lat="43.86656" lon="7.62487">
        <ele>86.762237548828</ele>
        <time>2018-11-08T12:47:10.266Z</time>
      </trkpt>
      <trkpt lat="43.86622" lon="7.62468">
        <ele>88.777900695801</ele>
        <time>2018-11-08T12:47:30.808Z</time>
      </trkpt>
      <trkpt lat="43.86592" lon="7.62446">
        <ele>87.900932312012</ele>
        <time>2018-11-08T12:47:51.356Z</time>
      </trkpt>
      <trkpt lat="43.86557" lon="7.6241">
        <ele>83.275924682617</ele>
        <time>2018-11-08T12:48:11.911Z</time>
      </trkpt>
      <trkpt lat="43.86479" lon="7.62317">
        <ele>75.023986816406</ele>
        <time>2018-11-08T12:48:32.482Z</time>
      </trkpt>
      <trkpt lat="43.86452" lon="7.62288">
        <ele>77.579559326172</ele>
        <time>2018-11-08T12:48:53.059Z</time>
      </trkpt>
      <trkpt lat="43.86437" lon="7.62276">
        <ele>78.494773864746</ele>
        <time>2018-11-08T12:49:13.638Z</time>
      </trkpt>
      <trkpt lat="43.86413" lon="7.62266">
        <ele>79.35863494873</ele>
        <time>2018-11-08T12:49:34.221Z</time>
      </trkpt>
      <trkpt lat="43.86394" lon="7.62264">
        <ele>79.190658569336</ele>
        <time>2018-11-08T12:49:54.807Z</time>
      </trkpt>
      <trkpt lat="43.86382" lon="7.62266">
        <ele>78.614753723145</ele>
        <time>2018-11-08T12:50:15.395Z</time>
      </trkpt>
      <trkpt lat="43.86352" lon="7.62275">
        <ele>78.929504394531</ele>
        <time>2018-11-08T12:50:35.988Z</time>
      </trkpt>
      <trkpt lat="43.86327" lon="7.62278">
        <ele>77.321769714355</ele>
        <time>2018-11-08T12:50:56.585Z</time>
      </trkpt>
      <trkpt lat="43.86299" lon="7.62277">
        <ele>75.678047180176</ele>
        <time>2018-11-08T12:51:17.187Z</time>
      </trkpt>
      <trkpt lat="43.86266" lon="7.62261">
        <ele>74.837173461914</ele>
        <time>2018-11-08T12:51:37.794Z</time>
      </trkpt>
      <trkpt lat="43.86253" lon="7.62255">
        <ele>73.685363769531</ele>
        <time>2018-11-08T12:51:58.404Z</time>
      </trkpt>
      <trkpt lat="43.86221" lon="7.62226">
        <ele>73.777084350586</ele>
        <time>2018-11-08T12:52:19.020Z</time>
      </trkpt>
      <trkpt lat="43.86205" lon="7.62204">
        <ele>74.736930847168</ele>
        <time>2018-11-08T12:52:39.639Z</time>
      </trkpt>
      <trkpt lat="43.86206" lon="7.622">
        <ele>75.214958190918</ele>
        <time>2018-11-08T12:53:00.259Z</time>
      </trkpt>
      <trkpt lat="43.86206" lon="7.622">
        <ele>75.246299743652</ele>
        <time>2018-11-08T12:53:20.879Z</time>
      </trkpt>
      <trkpt lat="43.86208" lon="7.62193">
        <ele>76.008712768555</ele>
        <time>2018-11-08T12:53:41.500Z</time>
      </trkpt>
      <trkpt lat="43.86212" lon="7.62159">
        <ele>79.986267089844</ele>
        <time>2018-11-08T12:54:02.125Z</time>
      </trkpt>
      <trkpt lat="43.86212" lon="7.62072">
        <ele>85.837684631348</ele>
        <time>2018-11-08T12:54:22.760Z</time>
      </trkpt>
      <trkpt lat="43.86213" lon="7.61998">
        <ele>86.10765838623</ele>
        <time>2018-11-08T12:54:43.403Z</time>
      </trkpt>
      <trkpt lat="43.86216" lon="7.61976">
        <ele>87.283462524414</ele>
        <time>2018-11-08T12:55:04.049Z</time>
      </trkpt>
      <trkpt lat="43.8622" lon="7.61963">
        <ele>87.871368408203</ele>
        <time>2018-11-08T12:55:24.697Z</time>
      </trkpt>
      <trkpt lat="43.8626" lon="7.61914">
        <ele>84.704223632812</ele>
        <time>2018-11-08T12:55:45.353Z</time>
      </trkpt>
      <trkpt lat="43.86276" lon="7.61901">
        <ele>86.608840942383</ele>
        <time>2018-11-08T12:56:06.012Z</time>
      </trkpt>
      <trkpt lat="43.86288" lon="7.61899">
        <ele>87.688659667969</ele>
        <time>2018-11-08T12:56:26.673Z</time>
      </trkpt>
      <trkpt lat="43.86313" lon="7.61893">
        <ele>90.400207519531</ele>
        <time>2018-11-08T12:56:47.338Z</time>
      </trkpt>
      <trkpt lat="43.86323" lon="7.61882">
        <ele>93.134796142578</ele>
        <time>2018-11-08T12:57:08.005Z</time>
      </trkpt>
      <trkpt lat="43.8633" lon="7.6187">
        <ele>93.758697509766</ele>
        <time>2018-11-08T12:57:28.674Z</time>
      </trkpt>
      <trkpt lat="43.86356" lon="7.61803">
        <ele>101.60417938232</ele>
        <time>2018-11-08T12:57:49.352Z</time>
      </trkpt>
      <trkpt lat="43.86383" lon="7.61721">
        <ele>111.76081848145</ele>
        <time>2018-11-08T12:58:10.040Z</time>
      </trkpt>
      <trkpt lat="43.8639" lon="7.61707">
        <ele>112.76865386963</ele>
        <time>2018-11-08T12:58:30.730Z</time>
      </trkpt>
      <trkpt lat="43.86412" lon="7.61678">
        <ele>112.11959838867</ele>
        <time>2018-11-08T12:58:51.425Z</time>
      </trkpt>
      <trkpt lat="43.8647" lon="7.61633">
        <ele>113.65167236328</ele>
        <time>2018-11-08T12:59:12.131Z</time>
      </trkpt>
      <trkpt lat="43.86502" lon="7.61618">
        <ele>112.85306549072</ele>
        <time>2018-11-08T12:59:32.842Z</time>
      </trkpt>
      <trkpt lat="43.8661" lon="7.61593">
        <ele>110.49039459229</ele>
        <time>2018-11-08T12:59:53.571Z</time>
      </trkpt>
      <trkpt lat="43.86697" lon="7.61573">
        <ele>110.94495391846</ele>
        <time>2018-11-08T13:00:14.314Z</time>
      </trkpt>
      <trkpt lat="43.86714" lon="7.61564">
        <ele>113.56051635742</ele>
        <time>2018-11-08T13:00:35.060Z</time>
      </trkpt>
      <trkpt lat="43.86726" lon="7.61554">
        <ele>116.63200378418</ele>
        <time>2018-11-08T13:00:55.808Z</time>
      </trkpt>
      <trkpt lat="43.86782" lon="7.61489">
        <ele>120.84645843506</ele>
        <time>2018-11-08T13:01:16.567Z</time>
      </trkpt>
      <trkpt lat="43.86808" lon="7.61461">
        <ele>124.10991668701</ele>
        <time>2018-11-08T13:01:37.332Z</time>
      </trkpt>
      <trkpt lat="43.86842" lon="7.61435">
        <ele>118.35992431641</ele>
        <time>2018-11-08T13:01:58.103Z</time>
      </trkpt>
      <trkpt lat="43.86874" lon="7.61425">
        <ele>116.75266265869</ele>
        <time>2018-11-08T13:02:18.879Z</time>
      </trkpt>
      <trkpt lat="43.8688" lon="7.61424">
        <ele>116.75917816162</ele>
        <time>2018-11-08T13:02:39.656Z</time>
      </trkpt>
      <trkpt lat="43.8688" lon="7.61424">
        <ele>116.75939178467</ele>
        <time>2018-11-08T13:03:00.433Z</time>
      </trkpt>
      <trkpt lat="43.8692" lon="7.61419">
        <ele>116.80065155029</ele>
        <time>2018-11-08T13:03:21.217Z</time>
      </trkpt>
      <trkpt lat="43.86975" lon="7.61433">
        <ele>121.64310455322</ele>
        <time>2018-11-08T13:03:42.010Z</time>
      </trkpt>
      <trkpt lat="43.86992" lon="7.61429">
        <ele>121.64310455322</ele>
        <time>2018-11-08T13:04:02.805Z</time>
      </trkpt>
      <trkpt lat="43.87009" lon="7.61414">
        <ele>121.82069396973</ele>
        <time>2018-11-08T13:04:23.604Z</time>
      </trkpt>
      <trkpt lat="43.87048" lon="7.61366">
        <ele>140.44842529297</ele>
        <time>2018-11-08T13:04:44.411Z</time>
      </trkpt>
      <trkpt lat="43.87089" lon="7.61287">
        <ele>145.27685546875</ele>
        <time>2018-11-08T13:05:05.229Z</time>
      </trkpt>
      <trkpt lat="43.87104" lon="7.61276">
        <ele>145.58880615234</ele>
        <time>2018-11-08T13:05:26.050Z</time>
      </trkpt>
      <trkpt lat="43.87158" lon="7.61275">
        <ele>138.66484069824</ele>
        <time>2018-11-08T13:05:46.880Z</time>
      </trkpt>
      <trkpt lat="43.87182" lon="7.61275">
        <ele>132.32989501953</ele>
        <time>2018-11-08T13:06:07.713Z</time>
      </trkpt>
      <trkpt lat="43.87201" lon="7.61268">
        <ele>133.72483825684</ele>
        <time>2018-11-08T13:06:28.549Z</time>
      </trkpt>
      <trkpt lat="43.87233" lon="7.61244">
        <ele>131.80758666992</ele>
        <time>2018-11-08T13:06:49.391Z</time>
      </trkpt>
      <trkpt lat="43.87256" lon="7.61204">
        <ele>137.96420288086</ele>
        <time>2018-11-08T13:07:10.239Z</time>
      </trkpt>
      <trkpt lat="43.87267" lon="7.61175">
        <ele>138.84005737305</ele>
        <time>2018-11-08T13:07:31.091Z</time>
      </trkpt>
      <trkpt lat="43.87283" lon="7.6113">
        <ele>149.05444335938</ele>
        <time>2018-11-08T13:07:51.949Z</time>
      </trkpt>
      <trkpt lat="43.87298" lon="7.6109">
        <ele>153.51704406738</ele>
        <time>2018-11-08T13:08:12.812Z</time>
      </trkpt>
      <trkpt lat="43.87317" lon="7.61052">
        <ele>159.81968688965</ele>
        <time>2018-11-08T13:08:33.680Z</time>
      </trkpt>
      <trkpt lat="43.87334" lon="7.61027">
        <ele>157.44030761719</ele>
        <time>2018-11-08T13:08:54.552Z</time>
      </trkpt>
      <trkpt lat="43.87368" lon="7.60982">
        <ele>156.74411010742</ele>
        <time>2018-11-08T13:09:15.432Z</time>
      </trkpt>
      <trkpt lat="43.87375" lon="7.60976">
        <ele>157.85992431641</ele>
        <time>2018-11-08T13:09:36.313Z</time>
      </trkpt>
      <trkpt lat="43.87395" lon="7.60965">
        <ele>158.6157989502</ele>
        <time>2018-11-08T13:09:57.198Z</time>
      </trkpt>
      <trkpt lat="43.87442" lon="7.60936">
        <ele>154.34487915039</ele>
        <time>2018-11-08T13:10:18.091Z</time>
      </trkpt>
      <trkpt lat="43.87532" lon="7.60897">
        <ele>149.47317504883</ele>
        <time>2018-11-08T13:10:38.999Z</time>
      </trkpt>
      <trkpt lat="43.87564" lon="7.60884">
        <ele>155.23222351074</ele>
        <time>2018-11-08T13:10:59.912Z</time>
      </trkpt>
      <trkpt lat="43.8758" lon="7.60871">
        <ele>155.51658630371</ele>
        <time>2018-11-08T13:11:20.828Z</time>
      </trkpt>
      <trkpt lat="43.87598" lon="7.60852">
        <ele>154.36477661133</ele>
        <time>2018-11-08T13:11:41.748Z</time>
      </trkpt>
      <trkpt lat="43.87624" lon="7.60814">
        <ele>158.11676025391</ele>
        <time>2018-11-08T13:12:02.674Z</time>
      </trkpt>
      <trkpt lat="43.87633" lon="7.60786">
        <ele>164.66766357422</ele>
        <time>2018-11-08T13:12:23.604Z</time>
      </trkpt>
      <trkpt lat="43.87653" lon="7.60739">
        <ele>164.9527130127</ele>
        <time>2018-11-08T13:12:44.540Z</time>
      </trkpt>
      <trkpt lat="43.87687" lon="7.60698">
        <ele>165.25314331055</ele>
        <time>2018-11-08T13:13:05.483Z</time>
      </trkpt>
      <trkpt lat="43.87705" lon="7.60684">
        <ele>168.52561950684</ele>
        <time>2018-11-08T13:13:26.429Z</time>
      </trkpt>
      <trkpt lat="43.87727" lon="7.60672">
        <ele>165.89337158203</ele>
        <time>2018-11-08T13:13:47.379Z</time>
      </trkpt>
      <trkpt lat="43.87816" lon="7.60632">
        <ele>168.02717590332</ele>
        <time>2018-11-08T13:14:08.344Z</time>
      </trkpt>
      <trkpt lat="43.87877" lon="7.60605">
        <ele>166.26257324219</ele>
        <time>2018-11-08T13:14:29.319Z</time>
      </trkpt>
      <trkpt lat="43.87885" lon="7.60599">
        <ele>165.03877258301</ele>
        <time>2018-11-08T13:14:50.296Z</time>
      </trkpt>
      <trkpt lat="43.87891" lon="7.60591">
        <ele>164.07893371582</ele>
        <time>2018-11-08T13:15:11.274Z</time>
      </trkpt>
      <trkpt lat="43.87895" lon="7.60584">
        <ele>163.67303466797</ele>
        <time>2018-11-08T13:15:32.253Z</time>
      </trkpt>
      <trkpt lat="43.87887" lon="7.60575">
        <ele>166.76852416992</ele>
        <time>2018-11-08T13:15:53.234Z</time>
      </trkpt>
      <trkpt lat="43.87878" lon="7.60569">
        <ele>169.36009216309</ele>
        <time>2018-11-08T13:16:14.216Z</time>
      </trkpt>
      <trkpt lat="43.87869" lon="7.60568">
        <ele>170.87184143066</ele>
        <time>2018-11-08T13:16:35.200Z</time>
      </trkpt>
      <trkpt lat="43.87847" lon="7.60576">
        <ele>174.40737915039</ele>
        <time>2018-11-08T13:16:56.188Z</time>
      </trkpt>
      <trkpt lat="43.87821" lon="7.60594">
        <ele>175.24143981934</ele>
        <time>2018-11-08T13:17:17.180Z</time>
      </trkpt>
      <trkpt lat="43.87794" lon="7.60607">
        <ele>178.60940551758</ele>
        <time>2018-11-08T13:17:38.177Z</time>
      </trkpt>
      <trkpt lat="43.87746" lon="7.60627">
        <ele>179.39834594727</ele>
        <time>2018-11-08T13:17:59.182Z</time>
      </trkpt>
      <trkpt lat="43.8771" lon="7.60633">
        <ele>184.22627258301</ele>
        <time>2018-11-08T13:18:20.193Z</time>
      </trkpt>
      <trkpt lat="43.87672" lon="7.60644">
        <ele>186.02272033691</ele>
        <time>2018-11-08T13:18:41.210Z</time>
      </trkpt>
      <trkpt lat="43.87649" lon="7.60658">
        <ele>187.71339416504</ele>
        <time>2018-11-08T13:19:02.231Z</time>
      </trkpt>
      <trkpt lat="43.87642" lon="7.60658">
        <ele>189.72906494141</ele>
        <time>2018-11-08T13:19:23.253Z</time>
      </trkpt>
      <trkpt lat="43.87632" lon="7.60654">
        <ele>193.76039123535</ele>
        <time>2018-11-08T13:19:44.277Z</time>
      </trkpt>
      <trkpt lat="43.87614" lon="7.60638">
        <ele>203.55076599121</ele>
        <time>2018-11-08T13:20:05.304Z</time>
      </trkpt>
      <trkpt lat="43.87603" lon="7.60636">
        <ele>208.12260437012</ele>
        <time>2018-11-08T13:20:26.333Z</time>
      </trkpt>
      <trkpt lat="43.87596" lon="7.60646">
        <ele>209.02244567871</ele>
        <time>2018-11-08T13:20:47.363Z</time>
      </trkpt>
      <trkpt lat="43.87592" lon="7.60668">
        <ele>204.68125915527</ele>
        <time>2018-11-08T13:21:08.396Z</time>
      </trkpt>
      <trkpt lat="43.87586" lon="7.60694">
        <ele>202.19491577148</ele>
        <time>2018-11-08T13:21:29.432Z</time>
      </trkpt>
      <trkpt lat="43.8758" lon="7.60716">
        <ele>200.61117553711</ele>
        <time>2018-11-08T13:21:50.471Z</time>
      </trkpt>
      <trkpt lat="43.87571" lon="7.6074">
        <ele>198.48901367188</ele>
        <time>2018-11-08T13:22:11.513Z</time>
      </trkpt>
      <trkpt lat="43.87564" lon="7.6075">
        <ele>198.80094909668</ele>
        <time>2018-11-08T13:22:32.557Z</time>
      </trkpt>
      <trkpt lat="43.87556" lon="7.60756">
        <ele>200.72062683105</ele>
        <time>2018-11-08T13:22:53.602Z</time>
      </trkpt>
      <trkpt lat="43.87541" lon="7.60762">
        <ele>205.83178710938</ele>
        <time>2018-11-08T13:23:14.650Z</time>
      </trkpt>
      <trkpt lat="43.87533" lon="7.60764">
        <ele>208.65368652344</ele>
        <time>2018-11-08T13:23:35.699Z</time>
      </trkpt>
      <trkpt lat="43.87532" lon="7.60764">
        <ele>208.67652893066</ele>
        <time>2018-11-08T13:23:56.748Z</time>
      </trkpt>
      <trkpt lat="43.87526" lon="7.60765">
        <ele>209.37544250488</ele>
        <time>2018-11-08T13:24:17.798Z</time>
      </trkpt>
      <trkpt lat="43.87516" lon="7.60774">
        <ele>207.53337097168</ele>
        <time>2018-11-08T13:24:38.850Z</time>
      </trkpt>
      <trkpt lat="43.87506" lon="7.60785">
        <ele>204.96580505371</ele>
        <time>2018-11-08T13:24:59.904Z</time>
      </trkpt>
      <trkpt lat="43.87476" lon="7.60805">
        <ele>203.92454528809</ele>
        <time>2018-11-08T13:25:20.963Z</time>
      </trkpt>
      <trkpt lat="43.87447" lon="7.60812">
        <ele>209.1916809082</ele>
        <time>2018-11-08T13:25:42.027Z</time>
      </trkpt>
      <trkpt lat="43.8743" lon="7.6082">
        <ele>208.33383178711</ele>
        <time>2018-11-08T13:26:03.094Z</time>
      </trkpt>
      <trkpt lat="43.8742" lon="7.6083">
        <ele>205.69355773926</ele>
        <time>2018-11-08T13:26:24.163Z</time>
      </trkpt>
      <trkpt lat="43.87392" lon="7.60843">
        <ele>206.08497619629</ele>
        <time>2018-11-08T13:26:45.237Z</time>
      </trkpt>
      <trkpt lat="43.87372" lon="7.60849">
        <ele>207.76469421387</ele>
        <time>2018-11-08T13:27:06.314Z</time>
      </trkpt>
      <trkpt lat="43.87364" lon="7.60846">
        <ele>211.25064086914</ele>
        <time>2018-11-08T13:27:27.392Z</time>
      </trkpt>
      <trkpt lat="43.87347" lon="7.60827">
        <ele>224.75303649902</ele>
        <time>2018-11-08T13:27:48.474Z</time>
      </trkpt>
      <trkpt lat="43.87339" lon="7.60819">
        <ele>230.99200439453</ele>
        <time>2018-11-08T13:28:09.557Z</time>
      </trkpt>
      <trkpt lat="43.87331" lon="7.60817">
        <ele>234.71138000488</ele>
        <time>2018-11-08T13:28:30.642Z</time>
      </trkpt>
      <trkpt lat="43.8732" lon="7.60822">
        <ele>236.57107543945</ele>
        <time>2018-11-08T13:28:51.728Z</time>
      </trkpt>
      <trkpt lat="43.87301" lon="7.60855">
        <ele>229.79032897949</ele>
        <time>2018-11-08T13:29:12.819Z</time>
      </trkpt>
      <trkpt lat="43.87282" lon="7.60902">
        <ele>227.15565490723</ele>
        <time>2018-11-08T13:29:33.917Z</time>
      </trkpt>
      <trkpt lat="43.87275" lon="7.60911">
        <ele>228.69140625</ele>
        <time>2018-11-08T13:29:55.016Z</time>
      </trkpt>
      <trkpt lat="43.87238" lon="7.60943">
        <ele>235.68179321289</ele>
        <time>2018-11-08T13:30:16.122Z</time>
      </trkpt>
      <trkpt lat="43.87216" lon="7.60965">
        <ele>237.59970092773</ele>
        <time>2018-11-08T13:30:37.232Z</time>
      </trkpt>
      <trkpt lat="43.87202" lon="7.60987">
        <ele>235.29609680176</ele>
        <time>2018-11-08T13:30:58.346Z</time>
      </trkpt>
      <trkpt lat="43.87181" lon="7.61021">
        <ele>227.88191223145</ele>
        <time>2018-11-08T13:31:19.465Z</time>
      </trkpt>
      <trkpt lat="43.87177" lon="7.61028">
        <ele>225.37434387207</ele>
        <time>2018-11-08T13:31:40.585Z</time>
      </trkpt>
      <trkpt lat="43.87169" lon="7.61034">
        <ele>223.7186126709</ele>
        <time>2018-11-08T13:32:01.706Z</time>
      </trkpt>
      <trkpt lat="43.87148" lon="7.61045">
        <ele>221.49700927734</ele>
        <time>2018-11-08T13:32:22.831Z</time>
      </trkpt>
      <trkpt lat="43.87128" lon="7.61057">
        <ele>221.68898010254</ele>
        <time>2018-11-08T13:32:43.960Z</time>
      </trkpt>
      <trkpt lat="43.87109" lon="7.6106">
        <ele>224.5924987793</ele>
        <time>2018-11-08T13:33:05.092Z</time>
      </trkpt>
      <trkpt lat="43.87065" lon="7.61061">
        <ele>225.33305358887</ele>
        <time>2018-11-08T13:33:26.231Z</time>
      </trkpt>
      <trkpt lat="43.8705" lon="7.61058">
        <ele>226.48486328125</ele>
        <time>2018-11-08T13:33:47.372Z</time>
      </trkpt>
      <trkpt lat="43.87005" lon="7.6104">
        <ele>230.49900817871</ele>
        <time>2018-11-08T13:34:08.521Z</time>
      </trkpt>
      <trkpt lat="43.86989" lon="7.61033">
        <ele>230.84693908691</ele>
        <time>2018-11-08T13:34:29.672Z</time>
      </trkpt>
      <trkpt lat="43.8697" lon="7.6102">
        <ele>232.77862548828</ele>
        <time>2018-11-08T13:34:50.827Z</time>
      </trkpt>
      <trkpt lat="43.86936" lon="7.60989">
        <ele>237.80302429199</ele>
        <time>2018-11-08T13:35:11.988Z</time>
      </trkpt>
      <trkpt lat="43.8693" lon="7.60981">
        <ele>239.41075134277</ele>
        <time>2018-11-08T13:35:33.150Z</time>
      </trkpt>
      <trkpt lat="43.86927" lon="7.60971">
        <ele>241.58239746094</ele>
        <time>2018-11-08T13:35:54.314Z</time>
      </trkpt>
      <trkpt lat="43.86917" lon="7.60939">
        <ele>248.51724243164</ele>
        <time>2018-11-08T13:36:15.482Z</time>
      </trkpt>
      <trkpt lat="43.86908" lon="7.60933">
        <ele>249.56106567383</ele>
        <time>2018-11-08T13:36:36.651Z</time>
      </trkpt>
      <trkpt lat="43.86894" lon="7.60933">
        <ele>249.05714416504</ele>
        <time>2018-11-08T13:36:57.823Z</time>
      </trkpt>
      <trkpt lat="43.86887" lon="7.60939">
        <ele>247.43742370605</ele>
        <time>2018-11-08T13:37:18.996Z</time>
      </trkpt>
      <trkpt lat="43.8688" lon="7.60961">
        <ele>242.84194946289</ele>
        <time>2018-11-08T13:37:40.172Z</time>
      </trkpt>
      <trkpt lat="43.86872" lon="7.6097">
        <ele>241.11422729492</ele>
        <time>2018-11-08T13:38:01.349Z</time>
      </trkpt>
      <trkpt lat="43.86865" lon="7.60972">
        <ele>240.73030090332</ele>
        <time>2018-11-08T13:38:22.527Z</time>
      </trkpt>
      <trkpt lat="43.86859" lon="7.60972">
        <ele>240.73030090332</ele>
        <time>2018-11-08T13:38:43.706Z</time>
      </trkpt>
      <trkpt lat="43.86851" lon="7.60965">
        <ele>242.87937927246</ele>
        <time>2018-11-08T13:39:04.887Z</time>
      </trkpt>
      <trkpt lat="43.86787" lon="7.60892">
        <ele>268.46530151367</ele>
        <time>2018-11-08T13:39:26.081Z</time>
      </trkpt>
      <trkpt lat="43.8678" lon="7.60887">
        <ele>270.81692504883</ele>
        <time>2018-11-08T13:39:47.276Z</time>
      </trkpt>
      <trkpt lat="43.86775" lon="7.60887">
        <ele>271.59677124023</ele>
        <time>2018-11-08T13:40:08.472Z</time>
      </trkpt>
      <trkpt lat="43.86764" lon="7.60893">
        <ele>276.98361206055</ele>
        <time>2018-11-08T13:40:29.670Z</time>
      </trkpt>
      <trkpt lat="43.86757" lon="7.60906">
        <ele>279.3127746582</ele>
        <time>2018-11-08T13:40:50.870Z</time>
      </trkpt>
      <trkpt lat="43.86753" lon="7.60932">
        <ele>277.23159790039</ele>
        <time>2018-11-08T13:41:12.073Z</time>
      </trkpt>
      <trkpt lat="43.86746" lon="7.60957">
        <ele>276.07977294922</ele>
        <time>2018-11-08T13:41:33.279Z</time>
      </trkpt>
      <trkpt lat="43.86737" lon="7.60974">
        <ele>278.38586425781</ele>
        <time>2018-11-08T13:41:54.488Z</time>
      </trkpt>
      <trkpt lat="43.86711" lon="7.61005">
        <ele>287.8918762207</ele>
        <time>2018-11-08T13:42:15.702Z</time>
      </trkpt>
      <trkpt lat="43.86703" lon="7.61016">
        <ele>290.47210693359</ele>
        <time>2018-11-08T13:42:36.918Z</time>
      </trkpt>
      <trkpt lat="43.86699" lon="7.61027">
        <ele>288.50442504883</ele>
        <time>2018-11-08T13:42:58.135Z</time>
      </trkpt>
      <trkpt lat="43.86688" lon="7.61045">
        <ele>287.62673950195</ele>
        <time>2018-11-08T13:43:19.355Z</time>
      </trkpt>
      <trkpt lat="43.86673" lon="7.61058">
        <ele>284.7112121582</ele>
        <time>2018-11-08T13:43:40.578Z</time>
      </trkpt>
      <trkpt lat="43.86666" lon="7.61071">
        <ele>282.46942138672</ele>
        <time>2018-11-08T13:44:01.803Z</time>
      </trkpt>
      <trkpt lat="43.86656" lon="7.61105">
        <ele>276.76281738281</ele>
        <time>2018-11-08T13:44:23.032Z</time>
      </trkpt>
      <trkpt lat="43.86652" lon="7.61117">
        <ele>274.21923828125</ele>
        <time>2018-11-08T13:44:44.263Z</time>
      </trkpt>
      <trkpt lat="43.86646" lon="7.61125">
        <ele>273.88330078125</ele>
        <time>2018-11-08T13:45:05.495Z</time>
      </trkpt>
      <trkpt lat="43.86623" lon="7.61151">
        <ele>279.50213623047</ele>
        <time>2018-11-08T13:45:26.732Z</time>
      </trkpt>
      <trkpt lat="43.86617" lon="7.61171">
        <ele>277.82788085938</ele>
        <time>2018-11-08T13:45:47.971Z</time>
      </trkpt>
      <trkpt lat="43.86616" lon="7.61184">
        <ele>274.64428710938</ele>
        <time>2018-11-08T13:46:09.212Z</time>
      </trkpt>
      <trkpt lat="43.86615" lon="7.612">
        <ele>269.26919555664</ele>
        <time>2018-11-08T13:46:30.455Z</time>
      </trkpt>
      <trkpt lat="43.86611" lon="7.61207">
        <ele>268.28533935547</ele>
        <time>2018-11-08T13:46:51.699Z</time>
      </trkpt>
      <trkpt lat="43.86604" lon="7.61212">
        <ele>268.05328369141</ele>
        <time>2018-11-08T13:47:12.944Z</time>
      </trkpt>
      <trkpt lat="43.86596" lon="7.61213">
        <ele>266.54153442383</ele>
        <time>2018-11-08T13:47:34.190Z</time>
      </trkpt>
      <trkpt lat="43.86533" lon="7.61171">
        <ele>272.58853149414</ele>
        <time>2018-11-08T13:47:55.447Z</time>
      </trkpt>
      <trkpt lat="43.86525" lon="7.61163">
        <ele>273.65097045898</ele>
        <time>2018-11-08T13:48:16.706Z</time>
      </trkpt>
      <trkpt lat="43.86517" lon="7.61145">
        <ele>276.26422119141</ele>
        <time>2018-11-08T13:48:37.967Z</time>
      </trkpt>
      <trkpt lat="43.86505" lon="7.61099">
        <ele>284.4228515625</ele>
        <time>2018-11-08T13:48:59.234Z</time>
      </trkpt>
      <trkpt lat="43.86499" lon="7.61087">
        <ele>285.86260986328</ele>
        <time>2018-11-08T13:49:20.503Z</time>
      </trkpt>
      <trkpt lat="43.86487" lon="7.61074">
        <ele>286.63995361328</ele>
        <time>2018-11-08T13:49:41.774Z</time>
      </trkpt>
      <trkpt lat="43.86441" lon="7.61029">
        <ele>288.55963134766</ele>
        <time>2018-11-08T13:50:03.054Z</time>
      </trkpt>
      <trkpt lat="43.86426" lon="7.61007">
        <ele>293.22836303711</ele>
        <time>2018-11-08T13:50:24.338Z</time>
      </trkpt>
      <trkpt lat="43.86418" lon="7.60994">
        <ele>296.6748046875</ele>
        <time>2018-11-08T13:50:45.624Z</time>
      </trkpt>
      <trkpt lat="43.86412" lon="7.60988">
        <ele>298.18655395508</ele>
        <time>2018-11-08T13:51:06.911Z</time>
      </trkpt>
      <trkpt lat="43.86398" lon="7.6098">
        <ele>299.62631225586</ele>
        <time>2018-11-08T13:51:28.200Z</time>
      </trkpt>
      <trkpt lat="43.86388" lon="7.60978">
        <ele>299.36233520508</ele>
        <time>2018-11-08T13:51:49.491Z</time>
      </trkpt>
      <trkpt lat="43.86364" lon="7.6098">
        <ele>296.36285400391</ele>
        <time>2018-11-08T13:52:10.786Z</time>
      </trkpt>
      <trkpt lat="43.86355" lon="7.6098">
        <ele>295.61560058594</ele>
        <time>2018-11-08T13:52:32.082Z</time>
      </trkpt>
      <trkpt lat="43.86347" lon="7.60977">
        <ele>296.75540161133</ele>
        <time>2018-11-08T13:52:53.379Z</time>
      </trkpt>
      <trkpt lat="43.86342" lon="7.60974">
        <ele>297.85922241211</ele>
        <time>2018-11-08T13:53:14.677Z</time>
      </trkpt>
      <trkpt lat="43.86324" lon="7.60956">
        <ele>304.33813476562</ele>
        <time>2018-11-08T13:53:35.979Z</time>
      </trkpt>
      <trkpt lat="43.86309" lon="7.60948">
        <ele>307.30163574219</ele>
        <time>2018-11-08T13:53:57.283Z</time>
      </trkpt>
      <trkpt lat="43.86279" lon="7.60932">
        <ele>314.35626220703</ele>
        <time>2018-11-08T13:54:18.593Z</time>
      </trkpt>
      <trkpt lat="43.86266" lon="7.60921">
        <ele>321.96340942383</ele>
        <time>2018-11-08T13:54:39.905Z</time>
      </trkpt>
      <trkpt lat="43.86258" lon="7.60919">
        <ele>327.62646484375</ele>
        <time>2018-11-08T13:55:01.218Z</time>
      </trkpt>
      <trkpt lat="43.86242" lon="7.60921">
        <ele>337.80078125</ele>
        <time>2018-11-08T13:55:22.534Z</time>
      </trkpt>
      <trkpt lat="43.86234" lon="7.60929">
        <ele>341.54412841797</ele>
        <time>2018-11-08T13:55:43.852Z</time>
      </trkpt>
      <trkpt lat="43.86229" lon="7.60941">
        <ele>342.53997802734</ele>
        <time>2018-11-08T13:56:05.171Z</time>
      </trkpt>
      <trkpt lat="43.86226" lon="7.60955">
        <ele>341.83209228516</ele>
        <time>2018-11-08T13:56:26.492Z</time>
      </trkpt>
      <trkpt lat="43.8622" lon="7.60985">
        <ele>340.46292114258</ele>
        <time>2018-11-08T13:56:47.816Z</time>
      </trkpt>
      <trkpt lat="43.86218" lon="7.61063">
        <ele>323.67733764648</ele>
        <time>2018-11-08T13:57:09.149Z</time>
      </trkpt>
      <trkpt lat="43.86218" lon="7.6107">
        <ele>321.41076660156</ele>
        <time>2018-11-08T13:57:30.483Z</time>
      </trkpt>
      <trkpt lat="43.86218" lon="7.6107">
        <ele>321.30990600586</ele>
        <time>2018-11-08T13:57:51.817Z</time>
      </trkpt>
      <trkpt lat="43.86218" lon="7.61088">
        <ele>315.38226318359</ele>
        <time>2018-11-08T13:58:13.153Z</time>
      </trkpt>
      <trkpt lat="43.86216" lon="7.61099">
        <ele>314.05047607422</ele>
        <time>2018-11-08T13:58:34.491Z</time>
      </trkpt>
      <trkpt lat="43.86212" lon="7.61108">
        <ele>314.0114440918</ele>
        <time>2018-11-08T13:58:55.830Z</time>
      </trkpt>
      <trkpt lat="43.86205" lon="7.61116">
        <ele>313.41156005859</ele>
        <time>2018-11-08T13:59:17.170Z</time>
      </trkpt>
      <trkpt lat="43.8619" lon="7.61117">
        <ele>317.74282836914</ele>
        <time>2018-11-08T13:59:38.513Z</time>
      </trkpt>
      <trkpt lat="43.86146" lon="7.61111">
        <ele>335.63833618164</ele>
        <time>2018-11-08T13:59:59.863Z</time>
      </trkpt>
      <trkpt lat="43.86135" lon="7.61112">
        <ele>339.2497253418</ele>
        <time>2018-11-08T14:00:21.215Z</time>
      </trkpt>
      <trkpt lat="43.86124" lon="7.6112">
        <ele>341.4358215332</ele>
        <time>2018-11-08T14:00:42.569Z</time>
      </trkpt>
      <trkpt lat="43.86112" lon="7.61142">
        <ele>340.14001464844</ele>
        <time>2018-11-08T14:01:03.926Z</time>
      </trkpt>
      <trkpt lat="43.86106" lon="7.61155">
        <ele>338.91577148438</ele>
        <time>2018-11-08T14:01:25.285Z</time>
      </trkpt>
      <trkpt lat="43.86088" lon="7.61176">
        <ele>341.39752197266</ele>
        <time>2018-11-08T14:01:46.647Z</time>
      </trkpt>
      <trkpt lat="43.86077" lon="7.61183">
        <ele>344.76895141602</ele>
        <time>2018-11-08T14:02:08.011Z</time>
      </trkpt>
      <trkpt lat="43.8607" lon="7.61193">
        <ele>345.716796875</ele>
        <time>2018-11-08T14:02:29.377Z</time>
      </trkpt>
      <trkpt lat="43.86067" lon="7.61216">
        <ele>342.04364013672</ele>
        <time>2018-11-08T14:02:50.746Z</time>
      </trkpt>
      <trkpt lat="43.86066" lon="7.61231">
        <ele>339.05615234375</ele>
        <time>2018-11-08T14:03:12.116Z</time>
      </trkpt>
      <trkpt lat="43.86065" lon="7.61246">
        <ele>336.0686340332</ele>
        <time>2018-11-08T14:03:33.488Z</time>
      </trkpt>
      <trkpt lat="43.86061" lon="7.61261">
        <ele>333.93981933594</ele>
        <time>2018-11-08T14:03:54.862Z</time>
      </trkpt>
      <trkpt lat="43.86014" lon="7.61321">
        <ele>340.04125976562</ele>
        <time>2018-11-08T14:04:16.246Z</time>
      </trkpt>
      <trkpt lat="43.85993" lon="7.61356">
        <ele>333.80029296875</ele>
        <time>2018-11-08T14:04:37.635Z</time>
      </trkpt>
      <trkpt lat="43.85984" lon="7.6136">
        <ele>332.91244506836</ele>
        <time>2018-11-08T14:04:59.026Z</time>
      </trkpt>
      <trkpt lat="43.85973" lon="7.61358">
        <ele>332.98443603516</ele>
        <time>2018-11-08T14:05:20.419Z</time>
      </trkpt>
      <trkpt lat="43.85957" lon="7.61339">
        <ele>335.79196166992</ele>
        <time>2018-11-08T14:05:41.815Z</time>
      </trkpt>
      <trkpt lat="43.85923" lon="7.61294">
        <ele>340.76089477539</ele>
        <time>2018-11-08T14:06:03.219Z</time>
      </trkpt>
      <trkpt lat="43.85916" lon="7.61273">
        <ele>343.28048706055</ele>
        <time>2018-11-08T14:06:24.625Z</time>
      </trkpt>
      <trkpt lat="43.85911" lon="7.61243">
        <ele>348.94680786133</ele>
        <time>2018-11-08T14:06:46.035Z</time>
      </trkpt>
      <trkpt lat="43.85904" lon="7.61224">
        <ele>354.82580566406</ele>
        <time>2018-11-08T14:07:07.447Z</time>
      </trkpt>
      <trkpt lat="43.85895" lon="7.61209">
        <ele>359.2170715332</ele>
        <time>2018-11-08T14:07:28.862Z</time>
      </trkpt>
      <trkpt lat="43.85888" lon="7.61202">
        <ele>361.06475830078</ele>
        <time>2018-11-08T14:07:50.278Z</time>
      </trkpt>
      <trkpt lat="43.85879" lon="7.61198">
        <ele>361.76065063477</ele>
        <time>2018-11-08T14:08:11.695Z</time>
      </trkpt>
      <trkpt lat="43.85873" lon="7.61198">
        <ele>361.32873535156</ele>
        <time>2018-11-08T14:08:33.113Z</time>
      </trkpt>
      <trkpt lat="43.85813" lon="7.61212">
        <ele>361.51742553711</ele>
        <time>2018-11-08T14:08:54.541Z</time>
      </trkpt>
      <trkpt lat="43.8576" lon="7.61221">
        <ele>364.33337402344</ele>
        <time>2018-11-08T14:09:15.978Z</time>
      </trkpt>
      <trkpt lat="43.85689" lon="7.61222">
        <ele>370.76654052734</ele>
        <time>2018-11-08T14:09:37.426Z</time>
      </trkpt>
      <trkpt lat="43.85668" lon="7.61227">
        <ele>369.47076416016</ele>
        <time>2018-11-08T14:09:58.877Z</time>
      </trkpt>
      <trkpt lat="43.85647" lon="7.61237">
        <ele>371.30825805664</ele>
        <time>2018-11-08T14:10:20.332Z</time>
      </trkpt>
      <trkpt lat="43.85602" lon="7.61264">
        <ele>372.80465698242</ele>
        <time>2018-11-08T14:10:41.795Z</time>
      </trkpt>
      <trkpt lat="43.85578" lon="7.61282">
        <ele>362.65432739258</ele>
        <time>2018-11-08T14:11:03.262Z</time>
      </trkpt>
      <trkpt lat="43.8557" lon="7.61285">
        <ele>360.09875488281</ele>
        <time>2018-11-08T14:11:24.731Z</time>
      </trkpt>
      <trkpt lat="43.8556" lon="7.61285">
        <ele>357.93911743164</ele>
        <time>2018-11-08T14:11:46.201Z</time>
      </trkpt>
      <trkpt lat="43.85555" lon="7.61282">
        <ele>357.68716430664</ele>
        <time>2018-11-08T14:12:07.672Z</time>
      </trkpt>
      <trkpt lat="43.8555" lon="7.61273">
        <ele>359.09094238281</ele>
        <time>2018-11-08T14:12:29.144Z</time>
      </trkpt>
      <trkpt lat="43.85546" lon="7.6125">
        <ele>364.18814086914</ele>
        <time>2018-11-08T14:12:50.619Z</time>
      </trkpt>
      <trkpt lat="43.85532" lon="7.61018">
        <ele>373.76782226562</ele>
        <time>2018-11-08T14:13:12.121Z</time>
      </trkpt>
      <trkpt lat="43.85526" lon="7.6087">
        <ele>383.25396728516</ele>
        <time>2018-11-08T14:13:33.640Z</time>
      </trkpt>
      <trkpt lat="43.85524" lon="7.60837">
        <ele>385.32962036133</ele>
        <time>2018-11-08T14:13:55.163Z</time>
      </trkpt>
      <trkpt lat="43.8551" lon="7.60788">
        <ele>390.73043823242</ele>
        <time>2018-11-08T14:14:16.692Z</time>
      </trkpt>
      <trkpt lat="43.85505" lon="7.60761">
        <ele>394.19787597656</ele>
        <time>2018-11-08T14:14:38.224Z</time>
      </trkpt>
      <trkpt lat="43.85504" lon="7.60746">
        <ele>397.66735839844</ele>
        <time>2018-11-08T14:14:59.758Z</time>
      </trkpt>
      <trkpt lat="43.85504" lon="7.6073">
        <ele>403.34945678711</ele>
        <time>2018-11-08T14:15:21.294Z</time>
      </trkpt>
      <trkpt lat="43.85499" lon="7.6072">
        <ele>406.04901123047</ele>
        <time>2018-11-08T14:15:42.831Z</time>
      </trkpt>
      <trkpt lat="43.8549" lon="7.60711">
        <ele>408.74856567383</ele>
        <time>2018-11-08T14:16:04.370Z</time>
      </trkpt>
      <trkpt lat="43.85478" lon="7.60705">
        <ele>410.908203125</ele>
        <time>2018-11-08T14:16:25.911Z</time>
      </trkpt>
      <trkpt lat="43.85452" lon="7.60701">
        <ele>410.57720947266</ele>
        <time>2018-11-08T14:16:47.456Z</time>
      </trkpt>
      <trkpt lat="43.85427" lon="7.60704">
        <ele>407.03155517578</ele>
        <time>2018-11-08T14:17:09.005Z</time>
      </trkpt>
      <trkpt lat="43.85411" lon="7.60712">
        <ele>402.23236083984</ele>
        <time>2018-11-08T14:17:30.557Z</time>
      </trkpt>
      <trkpt lat="43.85394" lon="7.60724">
        <ele>398.93020629883</ele>
        <time>2018-11-08T14:17:52.112Z</time>
      </trkpt>
      <trkpt lat="43.85382" lon="7.60727">
        <ele>399.18215942383</ele>
        <time>2018-11-08T14:18:13.669Z</time>
      </trkpt>
      <trkpt lat="43.85357" lon="7.60712">
        <ele>404.04135131836</ele>
        <time>2018-11-08T14:18:35.230Z</time>
      </trkpt>
      <trkpt lat="43.85343" lon="7.60697">
        <ele>405.31991577148</ele>
        <time>2018-11-08T14:18:56.794Z</time>
      </trkpt>
      <trkpt lat="43.85314" lon="7.6064">
        <ele>413.45364379883</ele>
        <time>2018-11-08T14:19:18.366Z</time>
      </trkpt>
      <trkpt lat="43.85288" lon="7.60608">
        <ele>417.00503540039</ele>
        <time>2018-11-08T14:19:39.944Z</time>
      </trkpt>
      <trkpt lat="43.8528" lon="7.60604">
        <ele>416.76507568359</ele>
        <time>2018-11-08T14:20:01.523Z</time>
      </trkpt>
      <trkpt lat="43.8527" lon="7.60604">
        <ele>415.57159423828</ele>
        <time>2018-11-08T14:20:23.104Z</time>
      </trkpt>
      <trkpt lat="43.8526" lon="7.60602">
        <ele>415.54760742188</ele>
        <time>2018-11-08T14:20:44.687Z</time>
      </trkpt>
      <trkpt lat="43.85252" lon="7.60598">
        <ele>416.07553100586</ele>
        <time>2018-11-08T14:21:06.271Z</time>
      </trkpt>
      <trkpt lat="43.85244" lon="7.60589">
        <ele>417.74325561523</ele>
        <time>2018-11-08T14:21:27.857Z</time>
      </trkpt>
      <trkpt lat="43.85231" lon="7.60575">
        <ele>420.79620361328</ele>
        <time>2018-11-08T14:21:49.445Z</time>
      </trkpt>
      <trkpt lat="43.85177" lon="7.60549">
        <ele>426.2590637207</ele>
        <time>2018-11-08T14:22:11.042Z</time>
      </trkpt>
      <trkpt lat="43.85166" lon="7.60545">
        <ele>427.62683105469</ele>
        <time>2018-11-08T14:22:32.641Z</time>
      </trkpt>
      <trkpt lat="43.85166" lon="7.60545">
        <ele>427.6298828125</ele>
        <time>2018-11-08T14:22:54.240Z</time>
      </trkpt>
      <trkpt lat="43.85166" lon="7.60545">
        <ele>427.63488769531</ele>
        <time>2018-11-08T14:23:15.839Z</time>
      </trkpt>
      <trkpt lat="43.85155" lon="7.60545">
        <ele>427.89077758789</ele>
        <time>2018-11-08T14:23:37.440Z</time>
      </trkpt>
      <trkpt lat="43.85117" lon="7.60566">
        <ele>426.19332885742</ele>
        <time>2018-11-08T14:23:59.047Z</time>
      </trkpt>
      <trkpt lat="43.85112" lon="7.60569">
        <ele>425.96536254883</ele>
        <time>2018-11-08T14:24:20.655Z</time>
      </trkpt>
      <trkpt lat="43.8509" lon="7.60566">
        <ele>424.65243530273</ele>
        <time>2018-11-08T14:24:42.267Z</time>
      </trkpt>
      <trkpt lat="43.85082" lon="7.60566">
        <ele>424.31790161133</ele>
        <time>2018-11-08T14:25:03.880Z</time>
      </trkpt>
      <trkpt lat="43.85065" lon="7.60566">
        <ele>424.92977905273</ele>
        <time>2018-11-08T14:25:25.496Z</time>
      </trkpt>
      <trkpt lat="43.85054" lon="7.60571">
        <ele>425.20574951172</ele>
        <time>2018-11-08T14:25:47.114Z</time>
      </trkpt>
      <trkpt lat="43.85032" lon="7.6059">
        <ele>424.076171875</ele>
        <time>2018-11-08T14:26:08.736Z</time>
      </trkpt>
      <trkpt lat="43.85028" lon="7.60591">
        <ele>423.95526123047</ele>
        <time>2018-11-08T14:26:30.359Z</time>
      </trkpt>
      <trkpt lat="43.8502" lon="7.60588">
        <ele>425.14749145508</ele>
        <time>2018-11-08T14:26:51.983Z</time>
      </trkpt>
      <trkpt lat="43.84997" lon="7.60566">
        <ele>419.19137573242</ele>
        <time>2018-11-08T14:27:13.611Z</time>
      </trkpt>
      <trkpt lat="43.84963" lon="7.60539">
        <ele>409.84494018555</ele>
        <time>2018-11-08T14:27:35.246Z</time>
      </trkpt>
      <trkpt lat="43.84961" lon="7.60538">
        <ele>409.40103149414</ele>
        <time>2018-11-08T14:27:56.881Z</time>
      </trkpt>
      <trkpt lat="43.84963" lon="7.60533">
        <ele>408.76513671875</ele>
        <time>2018-11-08T14:28:18.517Z</time>
      </trkpt>
      <trkpt lat="43.8498" lon="7.60504">
        <ele>413.66067504883</ele>
        <time>2018-11-08T14:28:40.157Z</time>
      </trkpt>
      <trkpt lat="43.84984" lon="7.60498">
        <ele>413.79254150391</ele>
        <time>2018-11-08T14:29:01.798Z</time>
      </trkpt>
      <trkpt lat="43.85023" lon="7.6044">
        <ele>413.25262451172</ele>
        <time>2018-11-08T14:29:23.448Z</time>
      </trkpt>
      <trkpt lat="43.85035" lon="7.60414">
        <ele>411.49240112305</ele>
        <time>2018-11-08T14:29:45.102Z</time>
      </trkpt>
      <trkpt lat="43.85036" lon="7.60407">
        <ele>410.49658203125</ele>
        <time>2018-11-08T14:30:06.756Z</time>
      </trkpt>
      <trkpt lat="43.85035" lon="7.60406">
        <ele>410.00701904297</ele>
        <time>2018-11-08T14:30:28.411Z</time>
      </trkpt>
      <trkpt lat="43.85035" lon="7.60406">
        <ele>409.91680908203</ele>
        <time>2018-11-08T14:30:50.066Z</time>
      </trkpt>
      <trkpt lat="43.85034" lon="7.60404">
        <ele>409.22479248047</ele>
        <time>2018-11-08T14:31:11.721Z</time>
      </trkpt>
      <trkpt lat="43.85033" lon="7.60404">
        <ele>408.87683105469</ele>
        <time>2018-11-08T14:31:33.376Z</time>
      </trkpt>
      <trkpt lat="43.85028" lon="7.60408">
        <ele>407.9049987793</ele>
        <time>2018-11-08T14:31:55.032Z</time>
      </trkpt>
      <trkpt lat="43.8502" lon="7.60418">
        <ele>406.80395507812</ele>
        <time>2018-11-08T14:32:16.690Z</time>
      </trkpt>
      <trkpt lat="43.84987" lon="7.60452">
        <ele>400.71401977539</ele>
        <time>2018-11-08T14:32:38.354Z</time>
      </trkpt>
      <trkpt lat="43.84942" lon="7.6049">
        <ele>396.99533081055</ele>
        <time>2018-11-08T14:33:00.027Z</time>
      </trkpt>
      <trkpt lat="43.84929" lon="7.60503">
        <ele>396.07040405273</ele>
        <time>2018-11-08T14:33:21.702Z</time>
      </trkpt>
      <trkpt lat="43.84906" lon="7.60538">
        <ele>392.98690795898</ele>
        <time>2018-11-08T14:33:43.383Z</time>
      </trkpt>
      <trkpt lat="43.84889" lon="7.60555">
        <ele>392.48153686523</ele>
        <time>2018-11-08T14:34:05.067Z</time>
      </trkpt>
      <trkpt lat="43.84863" lon="7.60582">
        <ele>395.63702392578</ele>
        <time>2018-11-08T14:34:26.756Z</time>
      </trkpt>
      <trkpt lat="43.84841" lon="7.60593">
        <ele>392.62200927734</ele>
        <time>2018-11-08T14:34:48.449Z</time>
      </trkpt>
      <trkpt lat="43.84831" lon="7.60595">
        <ele>390.22241210938</ele>
        <time>2018-11-08T14:35:10.144Z</time>
      </trkpt>
      <trkpt lat="43.84825" lon="7.60593">
        <ele>388.01480102539</ele>
        <time>2018-11-08T14:35:31.840Z</time>
      </trkpt>
      <trkpt lat="43.84814" lon="7.60582">
        <ele>382.05871582031</ele>
        <time>2018-11-08T14:35:53.538Z</time>
      </trkpt>
      <trkpt lat="43.84814" lon="7.60582">
        <ele>381.95294189453</ele>
        <time>2018-11-08T14:36:15.236Z</time>
      </trkpt>
      <trkpt lat="43.84803" lon="7.60571">
        <ele>375.04598999023</ele>
        <time>2018-11-08T14:36:36.936Z</time>
      </trkpt>
      <trkpt lat="43.84794" lon="7.60566">
        <ele>370.7746887207</ele>
        <time>2018-11-08T14:36:58.638Z</time>
      </trkpt>
      <trkpt lat="43.84788" lon="7.60565">
        <ele>368.71105957031</ele>
        <time>2018-11-08T14:37:20.341Z</time>
      </trkpt>
      <trkpt lat="43.84784" lon="7.60566">
        <ele>367.89517211914</ele>
        <time>2018-11-08T14:37:42.044Z</time>
      </trkpt>
      <trkpt lat="43.84779" lon="7.60572">
        <ele>368.47109985352</ele>
        <time>2018-11-08T14:38:03.748Z</time>
      </trkpt>
      <trkpt lat="43.84776" lon="7.60579">
        <ele>369.95883178711</ele>
        <time>2018-11-08T14:38:25.453Z</time>
      </trkpt>
      <trkpt lat="43.84769" lon="7.60603">
        <ele>377.2763671875</ele>
        <time>2018-11-08T14:38:47.161Z</time>
      </trkpt>
      <trkpt lat="43.84759" lon="7.6062">
        <ele>382.51950073242</ele>
        <time>2018-11-08T14:39:08.872Z</time>
      </trkpt>
      <trkpt lat="43.84736" lon="7.60635">
        <ele>385.57873535156</ele>
        <time>2018-11-08T14:39:30.587Z</time>
      </trkpt>
      <trkpt lat="43.8471" lon="7.6064">
        <ele>384.25894165039</ele>
        <time>2018-11-08T14:39:52.306Z</time>
      </trkpt>
      <trkpt lat="43.84707" lon="7.60639">
        <ele>383.5390625</ele>
        <time>2018-11-08T14:40:14.026Z</time>
      </trkpt>
      <trkpt lat="43.84707" lon="7.60632">
        <ele>381.01950073242</ele>
        <time>2018-11-08T14:40:35.746Z</time>
      </trkpt>
      <trkpt lat="43.84724" lon="7.60622">
        <ele>379.45974731445</ele>
        <time>2018-11-08T14:40:57.469Z</time>
      </trkpt>
      <trkpt lat="43.84745" lon="7.606">
        <ele>373.56900024414</ele>
        <time>2018-11-08T14:41:19.196Z</time>
      </trkpt>
      <trkpt lat="43.84753" lon="7.60588">
        <ele>369.96957397461</ele>
        <time>2018-11-08T14:41:40.925Z</time>
      </trkpt>
      <trkpt lat="43.84771" lon="7.60543">
        <ele>356.67413330078</ele>
        <time>2018-11-08T14:42:02.660Z</time>
      </trkpt>
      <trkpt lat="43.84778" lon="7.60533">
        <ele>355.0813293457</ele>
        <time>2018-11-08T14:42:24.397Z</time>
      </trkpt>
      <trkpt lat="43.84783" lon="7.60529">
        <ele>355.17730712891</ele>
        <time>2018-11-08T14:42:46.135Z</time>
      </trkpt>
      <trkpt lat="43.84789" lon="7.60528">
        <ele>356.5690612793</ele>
        <time>2018-11-08T14:43:07.874Z</time>
      </trkpt>
      <trkpt lat="43.84795" lon="7.60528">
        <ele>358.29678344727</ele>
        <time>2018-11-08T14:43:29.614Z</time>
      </trkpt>
      <trkpt lat="43.84809" lon="7.60533">
        <ele>363.94442749023</ele>
        <time>2018-11-08T14:43:51.356Z</time>
      </trkpt>
      <trkpt lat="43.84818" lon="7.60532">
        <ele>366.080078125</ele>
        <time>2018-11-08T14:44:13.100Z</time>
      </trkpt>
      <trkpt lat="43.84835" lon="7.60516">
        <ele>365.20422363281</ele>
        <time>2018-11-08T14:44:34.847Z</time>
      </trkpt>
      <trkpt lat="43.84842" lon="7.60503">
        <ele>362.61264038086</ele>
        <time>2018-11-08T14:44:56.596Z</time>
      </trkpt>
      <trkpt lat="43.84849" lon="7.6048">
        <ele>357.22787475586</ele>
        <time>2018-11-08T14:45:18.348Z</time>
      </trkpt>
      <trkpt lat="43.84863" lon="7.60453">
        <ele>353.12710571289</ele>
        <time>2018-11-08T14:45:40.103Z</time>
      </trkpt>
      <trkpt lat="43.84874" lon="7.60437">
        <ele>352.43121337891</ele>
        <time>2018-11-08T14:46:01.861Z</time>
      </trkpt>
      <trkpt lat="43.8488" lon="7.6042">
        <ele>349.10070800781</ele>
        <time>2018-11-08T14:46:23.621Z</time>
      </trkpt>
      <trkpt lat="43.84891" lon="7.60388">
        <ele>344.53063964844</ele>
        <time>2018-11-08T14:46:45.385Z</time>
      </trkpt>
      <trkpt lat="43.84895" lon="7.6038">
        <ele>343.90673828125</ele>
        <time>2018-11-08T14:47:07.150Z</time>
      </trkpt>
      <trkpt lat="43.84902" lon="7.60374">
        <ele>345.19635009766</ele>
        <time>2018-11-08T14:47:28.917Z</time>
      </trkpt>
      <trkpt lat="43.84926" lon="7.60349">
        <ele>348.97573852539</ele>
        <time>2018-11-08T14:47:50.689Z</time>
      </trkpt>
      <trkpt lat="43.84931" lon="7.60341">
        <ele>349.05972290039</ele>
        <time>2018-11-08T14:48:12.462Z</time>
      </trkpt>
      <trkpt lat="43.84932" lon="7.60331">
        <ele>347.15551757812</ele>
        <time>2018-11-08T14:48:34.236Z</time>
      </trkpt>
      <trkpt lat="43.84932" lon="7.60328">
        <ele>346.6806640625</ele>
        <time>2018-11-08T14:48:56.010Z</time>
      </trkpt>
      <trkpt lat="43.84932" lon="7.60328">
        <ele>346.65557861328</ele>
        <time>2018-11-08T14:49:17.784Z</time>
      </trkpt>
      <trkpt lat="43.84935" lon="7.60298">
        <ele>344.05252075195</ele>
        <time>2018-11-08T14:49:39.562Z</time>
      </trkpt>
      <trkpt lat="43.84935" lon="7.60286">
        <ele>342.46878051758</ele>
        <time>2018-11-08T14:50:01.341Z</time>
      </trkpt>
      <trkpt lat="43.84926" lon="7.60249">
        <ele>333.45260620117</ele>
        <time>2018-11-08T14:50:23.125Z</time>
      </trkpt>
      <trkpt lat="43.8492" lon="7.60208">
        <ele>329.8117980957</ele>
        <time>2018-11-08T14:50:44.914Z</time>
      </trkpt>
      <trkpt lat="43.84924" lon="7.60187">
        <ele>331.57550048828</ele>
        <time>2018-11-08T14:51:06.705Z</time>
      </trkpt>
      <trkpt lat="43.84938" lon="7.60148">
        <ele>337.03875732422</ele>
        <time>2018-11-08T14:51:28.501Z</time>
      </trkpt>
      <trkpt lat="43.84942" lon="7.60131">
        <ele>337.12213134766</ele>
        <time>2018-11-08T14:51:50.299Z</time>
      </trkpt>
      <trkpt lat="43.84944" lon="7.60109">
        <ele>336.11428833008</ele>
        <time>2018-11-08T14:52:12.100Z</time>
      </trkpt>
      <trkpt lat="43.84952" lon="7.60065">
        <ele>335.20217895508</ele>
        <time>2018-11-08T14:52:33.906Z</time>
      </trkpt>
      <trkpt lat="43.84959" lon="7.60031">
        <ele>335.57409667969</ele>
        <time>2018-11-08T14:52:55.716Z</time>
      </trkpt>
      <trkpt lat="43.84958" lon="7.60023">
        <ele>335.05819702148</ele>
        <time>2018-11-08T14:53:17.527Z</time>
      </trkpt>
      <trkpt lat="43.84956" lon="7.60017">
        <ele>334.29592895508</ele>
        <time>2018-11-08T14:53:39.339Z</time>
      </trkpt>
      <trkpt lat="43.84949" lon="7.60006">
        <ele>332.06430053711</ele>
        <time>2018-11-08T14:54:01.152Z</time>
      </trkpt>
      <trkpt lat="43.84931" lon="7.59968">
        <ele>324.45916748047</ele>
        <time>2018-11-08T14:54:22.971Z</time>
      </trkpt>
      <trkpt lat="43.84919" lon="7.59936">
        <ele>317.16436767578</ele>
        <time>2018-11-08T14:54:44.794Z</time>
      </trkpt>
      <trkpt lat="43.84904" lon="7.5991">
        <ele>308.21768188477</ele>
        <time>2018-11-08T14:55:06.621Z</time>
      </trkpt>
      <trkpt lat="43.84901" lon="7.599">
        <ele>305.69808959961</ele>
        <time>2018-11-08T14:55:28.449Z</time>
      </trkpt>
      <trkpt lat="43.84904" lon="7.59891">
        <ele>306.166015625</ele>
        <time>2018-11-08T14:55:50.278Z</time>
      </trkpt>
      <trkpt lat="43.84923" lon="7.59847">
        <ele>308.54788208008</ele>
        <time>2018-11-08T14:56:12.113Z</time>
      </trkpt>
      <trkpt lat="43.84931" lon="7.59842">
        <ele>311.37942504883</ele>
        <time>2018-11-08T14:56:33.950Z</time>
      </trkpt>
      <trkpt lat="43.84937" lon="7.59845">
        <ele>314.4748840332</ele>
        <time>2018-11-08T14:56:55.788Z</time>
      </trkpt>
      <trkpt lat="43.84946" lon="7.59859">
        <ele>317.21139526367</ele>
        <time>2018-11-08T14:57:17.628Z</time>
      </trkpt>
      <trkpt lat="43.84959" lon="7.59883">
        <ele>320.19888305664</ele>
        <time>2018-11-08T14:57:39.471Z</time>
      </trkpt>
      <trkpt lat="43.84985" lon="7.59917">
        <ele>324.15823364258</ele>
        <time>2018-11-08T14:58:01.320Z</time>
      </trkpt>
      <trkpt lat="43.84991" lon="7.5992">
        <ele>324.55383300781</ele>
        <time>2018-11-08T14:58:23.170Z</time>
      </trkpt>
      <trkpt lat="43.84995" lon="7.59918">
        <ele>323.94226074219</ele>
        <time>2018-11-08T14:58:45.021Z</time>
      </trkpt>
      <trkpt lat="43.84996" lon="7.59914">
        <ele>323.33038330078</ele>
        <time>2018-11-08T14:59:06.872Z</time>
      </trkpt>
      <trkpt lat="43.8499" lon="7.59908">
        <ele>322.68249511719</ele>
        <time>2018-11-08T14:59:28.724Z</time>
      </trkpt>
      <trkpt lat="43.84977" lon="7.59878">
        <ele>318.83111572266</ele>
        <time>2018-11-08T14:59:50.580Z</time>
      </trkpt>
      <trkpt lat="43.84969" lon="7.59855">
        <ele>314.63037109375</ele>
        <time>2018-11-08T15:00:12.439Z</time>
      </trkpt>
      <trkpt lat="43.84966" lon="7.59834">
        <ele>309.66201782227</ele>
        <time>2018-11-08T15:00:34.301Z</time>
      </trkpt>
      <trkpt lat="43.84961" lon="7.59822">
        <ele>308.57019042969</ele>
        <time>2018-11-08T15:00:56.164Z</time>
      </trkpt>
      <trkpt lat="43.84943" lon="7.59798">
        <ele>307.63436889648</ele>
        <time>2018-11-08T15:01:18.031Z</time>
      </trkpt>
      <trkpt lat="43.84936" lon="7.59783">
        <ele>304.59503173828</ele>
        <time>2018-11-08T15:01:39.900Z</time>
      </trkpt>
      <trkpt lat="43.84931" lon="7.59763">
        <ele>299.43591308594</ele>
        <time>2018-11-08T15:02:01.772Z</time>
      </trkpt>
      <trkpt lat="43.84928" lon="7.59711">
        <ele>293.07598876953</ele>
        <time>2018-11-08T15:02:23.650Z</time>
      </trkpt>
      <trkpt lat="43.84928" lon="7.59681">
        <ele>290.16775512695</ele>
        <time>2018-11-08T15:02:45.531Z</time>
      </trkpt>
      <trkpt lat="43.84928" lon="7.5968">
        <ele>290.1399230957</ele>
        <time>2018-11-08T15:03:07.412Z</time>
      </trkpt>
      <trkpt lat="43.84928" lon="7.59674">
        <ele>289.52456665039</ele>
        <time>2018-11-08T15:03:29.294Z</time>
      </trkpt>
      <trkpt lat="43.84924" lon="7.59663">
        <ele>287.53720092773</ele>
        <time>2018-11-08T15:03:51.178Z</time>
      </trkpt>
      <trkpt lat="43.84909" lon="7.59648">
        <ele>282.13809204102</ele>
        <time>2018-11-08T15:04:13.065Z</time>
      </trkpt>
      <trkpt lat="43.84894" lon="7.59635">
        <ele>276.7389831543</ele>
        <time>2018-11-08T15:04:34.954Z</time>
      </trkpt>
      <trkpt lat="43.84893" lon="7.59628">
        <ele>276.37905883789</ele>
        <time>2018-11-08T15:04:56.844Z</time>
      </trkpt>
      <trkpt lat="43.84898" lon="7.59623">
        <ele>277.43768310547</ele>
        <time>2018-11-08T15:05:18.735Z</time>
      </trkpt>
      <trkpt lat="43.84902" lon="7.59626">
        <ele>278.69747924805</ele>
        <time>2018-11-08T15:05:40.627Z</time>
      </trkpt>
      <trkpt lat="43.84917" lon="7.59639">
        <ele>283.73663330078</ele>
        <time>2018-11-08T15:06:02.522Z</time>
      </trkpt>
      <trkpt lat="43.84935" lon="7.59646">
        <ele>288.23587036133</ele>
        <time>2018-11-08T15:06:24.420Z</time>
      </trkpt>
      <trkpt lat="43.8494" lon="7.59651">
        <ele>289.62084960938</ele>
        <time>2018-11-08T15:06:46.319Z</time>
      </trkpt>
      <trkpt lat="43.84947" lon="7.5966">
        <ele>288.97296142578</ele>
        <time>2018-11-08T15:07:08.219Z</time>
      </trkpt>
      <trkpt lat="43.84952" lon="7.59675">
        <ele>290.29412841797</ele>
        <time>2018-11-08T15:07:30.121Z</time>
      </trkpt>
      <trkpt lat="43.8496" lon="7.59722">
        <ele>293.90765380859</ele>
        <time>2018-11-08T15:07:52.029Z</time>
      </trkpt>
      <trkpt lat="43.84967" lon="7.59744">
        <ele>294.59155273438</ele>
        <time>2018-11-08T15:08:13.940Z</time>
      </trkpt>
      <trkpt lat="43.8497" lon="7.5975">
        <ele>294.55554199219</ele>
        <time>2018-11-08T15:08:35.851Z</time>
      </trkpt>
      <trkpt lat="43.84972" lon="7.59745">
        <ele>293.6676940918</ele>
        <time>2018-11-08T15:08:57.763Z</time>
      </trkpt>
      <trkpt lat="43.84972" lon="7.59738">
        <ele>292.9958190918</ele>
        <time>2018-11-08T15:09:19.676Z</time>
      </trkpt>
      <trkpt lat="43.84969" lon="7.59704">
        <ele>290.34426879883</ele>
        <time>2018-11-08T15:09:41.593Z</time>
      </trkpt>
      <trkpt lat="43.84969" lon="7.59652">
        <ele>280.40640258789</ele>
        <time>2018-11-08T15:10:03.516Z</time>
      </trkpt>
      <trkpt lat="43.84968" lon="7.59641">
        <ele>278.75067138672</ele>
        <time>2018-11-08T15:10:25.440Z</time>
      </trkpt>
      <trkpt lat="43.84966" lon="7.59633">
        <ele>277.95880126953</ele>
        <time>2018-11-08T15:10:47.365Z</time>
      </trkpt>
      <trkpt lat="43.8496" lon="7.59628">
        <ele>279.00262451172</ele>
        <time>2018-11-08T15:11:09.291Z</time>
      </trkpt>
      <trkpt lat="43.84952" lon="7.59623">
        <ele>280.6943359375</ele>
        <time>2018-11-08T15:11:31.219Z</time>
      </trkpt>
      <trkpt lat="43.84936" lon="7.59618">
        <ele>283.37670898438</ele>
        <time>2018-11-08T15:11:53.149Z</time>
      </trkpt>
      <trkpt lat="43.84927" lon="7.59613">
        <ele>280.85711669922</ele>
        <time>2018-11-08T15:12:15.081Z</time>
      </trkpt>
      <trkpt lat="43.84914" lon="7.59596">
        <ele>275.4580078125</ele>
        <time>2018-11-08T15:12:37.016Z</time>
      </trkpt>
      <trkpt lat="43.84908" lon="7.59573">
        <ele>272.53240966797</ele>
        <time>2018-11-08T15:12:58.954Z</time>
      </trkpt>
      <trkpt lat="43.84907" lon="7.59549">
        <ele>271.64514160156</ele>
        <time>2018-11-08T15:13:20.894Z</time>
      </trkpt>
      <trkpt lat="43.849" lon="7.59506">
        <ele>261.39886474609</ele>
        <time>2018-11-08T15:13:42.839Z</time>
      </trkpt>
      <trkpt lat="43.84887" lon="7.59469">
        <ele>254.73278808594</ele>
        <time>2018-11-08T15:14:04.789Z</time>
      </trkpt>
      <trkpt lat="43.84881" lon="7.59449">
        <ele>251.15737915039</ele>
        <time>2018-11-08T15:14:26.742Z</time>
      </trkpt>
      <trkpt lat="43.84876" lon="7.59423">
        <ele>245.71905517578</ele>
        <time>2018-11-08T15:14:48.698Z</time>
      </trkpt>
      <trkpt lat="43.84871" lon="7.59416">
        <ele>244.31484985352</ele>
        <time>2018-11-08T15:15:10.655Z</time>
      </trkpt>
      <trkpt lat="43.84859" lon="7.59415">
        <ele>245.37066650391</ele>
        <time>2018-11-08T15:15:32.614Z</time>
      </trkpt>
      <trkpt lat="43.84845" lon="7.59419">
        <ele>245.0733795166</ele>
        <time>2018-11-08T15:15:54.575Z</time>
      </trkpt>
      <trkpt lat="43.84829" lon="7.59427">
        <ele>243.63362121582</ele>
        <time>2018-11-08T15:16:16.539Z</time>
      </trkpt>
      <trkpt lat="43.84801" lon="7.59425">
        <ele>237.8505859375</ele>
        <time>2018-11-08T15:16:38.507Z</time>
      </trkpt>
      <trkpt lat="43.84789" lon="7.59421">
        <ele>234.73110961914</ele>
        <time>2018-11-08T15:17:00.477Z</time>
      </trkpt>
      <trkpt lat="43.84774" lon="7.59409">
        <ele>229.07093811035</ele>
        <time>2018-11-08T15:17:22.450Z</time>
      </trkpt>
      <trkpt lat="43.84767" lon="7.59405">
        <ele>225.64906311035</ele>
        <time>2018-11-08T15:17:44.424Z</time>
      </trkpt>
      <trkpt lat="43.84763" lon="7.59406">
        <ele>224.30529785156</ele>
        <time>2018-11-08T15:18:06.399Z</time>
      </trkpt>
      <trkpt lat="43.84756" lon="7.59414">
        <ele>221.10575866699</ele>
        <time>2018-11-08T15:18:28.375Z</time>
      </trkpt>
      <trkpt lat="43.84753" lon="7.59425">
        <ele>219.22236633301</ele>
        <time>2018-11-08T15:18:50.353Z</time>
      </trkpt>
      <trkpt lat="43.84753" lon="7.59454">
        <ele>217.83061218262</ele>
        <time>2018-11-08T15:19:12.334Z</time>
      </trkpt>
      <trkpt lat="43.8475" lon="7.59486">
        <ele>214.61372375488</ele>
        <time>2018-11-08T15:19:34.319Z</time>
      </trkpt>
      <trkpt lat="43.84747" lon="7.59502">
        <ele>212.29092407227</ele>
        <time>2018-11-08T15:19:56.306Z</time>
      </trkpt>
      <trkpt lat="43.84746" lon="7.59524">
        <ele>209.86734008789</ele>
        <time>2018-11-08T15:20:18.295Z</time>
      </trkpt>
      <trkpt lat="43.84754" lon="7.59544">
        <ele>212.79484558105</ele>
        <time>2018-11-08T15:20:40.287Z</time>
      </trkpt>
      <trkpt lat="43.84755" lon="7.59546">
        <ele>213.24821472168</ele>
        <time>2018-11-08T15:21:02.279Z</time>
      </trkpt>
      <trkpt lat="43.84755" lon="7.59546">
        <ele>213.30238342285</ele>
        <time>2018-11-08T15:21:24.271Z</time>
      </trkpt>
      <trkpt lat="43.84764" lon="7.59562">
        <ele>217.04214477539</ele>
        <time>2018-11-08T15:21:46.266Z</time>
      </trkpt>
      <trkpt lat="43.84768" lon="7.59585">
        <ele>217.74118041992</ele>
        <time>2018-11-08T15:22:08.263Z</time>
      </trkpt>
      <trkpt lat="43.84768" lon="7.59603">
        <ele>217.74118041992</ele>
        <time>2018-11-08T15:22:30.262Z</time>
      </trkpt>
      <trkpt lat="43.84764" lon="7.5962">
        <ele>215.72550964355</ele>
        <time>2018-11-08T15:22:52.264Z</time>
      </trkpt>
      <trkpt lat="43.84742" lon="7.59663">
        <ele>204.94155883789</ele>
        <time>2018-11-08T15:23:14.272Z</time>
      </trkpt>
      <trkpt lat="43.84734" lon="7.59684">
        <ele>201.0697479248</ele>
        <time>2018-11-08T15:23:36.282Z</time>
      </trkpt>
      <trkpt lat="43.84734" lon="7.5972">
        <ele>200.98767089844</ele>
        <time>2018-11-08T15:23:58.297Z</time>
      </trkpt>
      <trkpt lat="43.84735" lon="7.59737">
        <ele>201.28761291504</ele>
        <time>2018-11-08T15:24:20.314Z</time>
      </trkpt>
      <trkpt lat="43.84733" lon="7.59745">
        <ele>200.18380737305</ele>
        <time>2018-11-08T15:24:42.332Z</time>
      </trkpt>
      <trkpt lat="43.84724" lon="7.59764">
        <ele>196.60676574707</ele>
        <time>2018-11-08T15:25:04.352Z</time>
      </trkpt>
      <trkpt lat="43.84707" lon="7.59808">
        <ele>191.73558044434</ele>
        <time>2018-11-08T15:25:26.378Z</time>
      </trkpt>
      <trkpt lat="43.84693" lon="7.59833">
        <ele>186.7804107666</ele>
        <time>2018-11-08T15:25:48.408Z</time>
      </trkpt>
      <trkpt lat="43.8469" lon="7.59844">
        <ele>186.40873718262</ele>
        <time>2018-11-08T15:26:10.439Z</time>
      </trkpt>
      <trkpt lat="43.84686" lon="7.59867">
        <ele>188.49421691895</ele>
        <time>2018-11-08T15:26:32.473Z</time>
      </trkpt>
      <trkpt lat="43.84673" lon="7.59935">
        <ele>198.92219543457</ele>
        <time>2018-11-08T15:26:54.515Z</time>
      </trkpt>
      <trkpt lat="43.8467" lon="7.59947">
        <ele>201.22579956055</ele>
        <time>2018-11-08T15:27:16.558Z</time>
      </trkpt>
      <trkpt lat="43.84656" lon="7.59969">
        <ele>206.74334716797</ele>
        <time>2018-11-08T15:27:38.605Z</time>
      </trkpt>
      <trkpt lat="43.84633" lon="7.6002">
        <ele>226.69467163086</ele>
        <time>2018-11-08T15:28:00.659Z</time>
      </trkpt>
      <trkpt lat="43.84615" lon="7.59981">
        <ele>222.78468322754</ele>
        <time>2018-11-08T15:28:22.718Z</time>
      </trkpt>
      <trkpt lat="43.84611" lon="7.59965">
        <ele>218.99331665039</ele>
        <time>2018-11-08T15:28:44.779Z</time>
      </trkpt>
      <trkpt lat="43.84606" lon="7.59946">
        <ele>214.56605529785</ele>
        <time>2018-11-08T15:29:06.842Z</time>
      </trkpt>
      <trkpt lat="43.84602" lon="7.5993">
        <ele>211.27462768555</ele>
        <time>2018-11-08T15:29:28.907Z</time>
      </trkpt>
      <trkpt lat="43.84595" lon="7.59916">
        <ele>210.29527282715</ele>
        <time>2018-11-08T15:29:50.974Z</time>
      </trkpt>
      <trkpt lat="43.84581" lon="7.59901">
        <ele>214.0026550293</ele>
        <time>2018-11-08T15:30:13.044Z</time>
      </trkpt>
      <trkpt lat="43.84571" lon="7.59896">
        <ele>217.54205322266</ele>
        <time>2018-11-08T15:30:35.116Z</time>
      </trkpt>
      <trkpt lat="43.84551" lon="7.59895">
        <ele>226.02464294434</ele>
        <time>2018-11-08T15:30:57.191Z</time>
      </trkpt>
      <trkpt lat="43.84539" lon="7.59893">
        <ele>230.89582824707</ele>
        <time>2018-11-08T15:31:19.268Z</time>
      </trkpt>
      <trkpt lat="43.84535" lon="7.59891">
        <ele>232.31159973145</ele>
        <time>2018-11-08T15:31:41.346Z</time>
      </trkpt>
      <trkpt lat="43.84533" lon="7.59885">
        <ele>232.23960876465</ele>
        <time>2018-11-08T15:32:03.424Z</time>
      </trkpt>
      <trkpt lat="43.84541" lon="7.59861">
        <ele>225.04080200195</ele>
        <time>2018-11-08T15:32:25.505Z</time>
      </trkpt>
      <trkpt lat="43.84554" lon="7.59826">
        <ele>211.2082824707</ele>
        <time>2018-11-08T15:32:47.591Z</time>
      </trkpt>
      <trkpt lat="43.84554" lon="7.59813">
        <ele>209.02464294434</ele>
        <time>2018-11-08T15:33:09.678Z</time>
      </trkpt>
      <trkpt lat="43.84545" lon="7.59784">
        <ele>208.79667663574</ele>
        <time>2018-11-08T15:33:31.769Z</time>
      </trkpt>
      <trkpt lat="43.84529" lon="7.59724">
        <ele>203.8138885498</ele>
        <time>2018-11-08T15:33:53.868Z</time>
      </trkpt>
      <trkpt lat="43.84513" lon="7.59673">
        <ele>196.43267822266</ele>
        <time>2018-11-08T15:34:15.973Z</time>
      </trkpt>
      <trkpt lat="43.84504" lon="7.59653">
        <ele>195.84553527832</ele>
        <time>2018-11-08T15:34:38.081Z</time>
      </trkpt>
      <trkpt lat="43.84487" lon="7.59646">
        <ele>201.76054382324</ele>
        <time>2018-11-08T15:35:00.192Z</time>
      </trkpt>
      <trkpt lat="43.84458" lon="7.59635">
        <ele>212.0428314209</ele>
        <time>2018-11-08T15:35:22.307Z</time>
      </trkpt>
      <trkpt lat="43.84454" lon="7.59629">
        <ele>212.5467376709</ele>
        <time>2018-11-08T15:35:44.423Z</time>
      </trkpt>
      <trkpt lat="43.84452" lon="7.59619">
        <ele>211.37094116211</ele>
        <time>2018-11-08T15:36:06.540Z</time>
      </trkpt>
      <trkpt lat="43.84459" lon="7.59598">
        <ele>203.81745910645</ele>
        <time>2018-11-08T15:36:28.660Z</time>
      </trkpt>
      <trkpt lat="43.84477" lon="7.59547">
        <ele>181.791015625</ele>
        <time>2018-11-08T15:36:50.787Z</time>
      </trkpt>
      <trkpt lat="43.84477" lon="7.59537">
        <ele>179.27207946777</ele>
        <time>2018-11-08T15:37:12.915Z</time>
      </trkpt>
      <trkpt lat="43.84474" lon="7.59525">
        <ele>178.22825622559</ele>
        <time>2018-11-08T15:37:35.044Z</time>
      </trkpt>
      <trkpt lat="43.84468" lon="7.59506">
        <ele>177.0404510498</ele>
        <time>2018-11-08T15:37:57.176Z</time>
      </trkpt>
      <trkpt lat="43.8446" lon="7.59483">
        <ele>172.97547912598</ele>
        <time>2018-11-08T15:38:19.311Z</time>
      </trkpt>
      <trkpt lat="43.84457" lon="7.59467">
        <ele>168.71618652344</ele>
        <time>2018-11-08T15:38:41.448Z</time>
      </trkpt>
      <trkpt lat="43.84458" lon="7.59443">
        <ele>160.28160095215</ele>
        <time>2018-11-08T15:39:03.587Z</time>
      </trkpt>
      <trkpt lat="43.84457" lon="7.59421">
        <ele>155.62724304199</ele>
        <time>2018-11-08T15:39:25.729Z</time>
      </trkpt>
      <trkpt lat="43.84449" lon="7.5939">
        <ele>143.97933959961</ele>
        <time>2018-11-08T15:39:47.875Z</time>
      </trkpt>
      <trkpt lat="43.84448" lon="7.59387">
        <ele>143.00407409668</ele>
        <time>2018-11-08T15:40:10.021Z</time>
      </trkpt>
      <trkpt lat="43.84448" lon="7.59387">
        <ele>142.90078735352</ele>
        <time>2018-11-08T15:40:32.167Z</time>
      </trkpt>
      <trkpt lat="43.84444" lon="7.59374">
        <ele>137.7643737793</ele>
        <time>2018-11-08T15:40:54.315Z</time>
      </trkpt>
      <trkpt lat="43.84441" lon="7.5937">
        <ele>136.58857727051</ele>
        <time>2018-11-08T15:41:16.463Z</time>
      </trkpt>
      <trkpt lat="43.84436" lon="7.59369">
        <ele>136.65570068359</ele>
        <time>2018-11-08T15:41:38.612Z</time>
      </trkpt>
      <trkpt lat="43.84427" lon="7.5938">
        <ele>141.99481201172</ele>
        <time>2018-11-08T15:42:00.763Z</time>
      </trkpt>
      <trkpt lat="43.8441" lon="7.59401">
        <ele>151.47079467773</ele>
        <time>2018-11-08T15:42:22.918Z</time>
      </trkpt>
      <trkpt lat="43.84404" lon="7.59405">
        <ele>152.91055297852</ele>
        <time>2018-11-08T15:42:45.074Z</time>
      </trkpt>
      <trkpt lat="43.84398" lon="7.59405">
        <ele>152.76658630371</ele>
        <time>2018-11-08T15:43:07.231Z</time>
      </trkpt>
      <trkpt lat="43.84389" lon="7.59405">
        <ele>152.55061340332</ele>
        <time>2018-11-08T15:43:29.389Z</time>
      </trkpt>
      <trkpt lat="43.84364" lon="7.59418">
        <ele>157.09785461426</ele>
        <time>2018-11-08T15:43:51.552Z</time>
      </trkpt>
      <trkpt lat="43.84355" lon="7.5942">
        <ele>157.63488769531</ele>
        <time>2018-11-08T15:44:13.716Z</time>
      </trkpt>
      <trkpt lat="43.84348" lon="7.59414">
        <ele>155.40354919434</ele>
        <time>2018-11-08T15:44:35.881Z</time>
      </trkpt>
      <trkpt lat="43.84321" lon="7.59372">
        <ele>140.77128601074</ele>
        <time>2018-11-08T15:44:58.053Z</time>
      </trkpt>
      <trkpt lat="43.84303" lon="7.59359">
        <ele>136.7039642334</ele>
        <time>2018-11-08T15:45:20.228Z</time>
      </trkpt>
      <trkpt lat="43.84294" lon="7.59339">
        <ele>129.32518005371</ele>
        <time>2018-11-08T15:45:42.406Z</time>
      </trkpt>
      <trkpt lat="43.84292" lon="7.59308">
        <ele>121.69064331055</ele>
        <time>2018-11-08T15:46:04.587Z</time>
      </trkpt>
      <trkpt lat="43.8429" lon="7.59299">
        <ele>119.75896453857</ele>
        <time>2018-11-08T15:46:26.770Z</time>
      </trkpt>
      <trkpt lat="43.84284" lon="7.59293">
        <ele>118.75112915039</ele>
        <time>2018-11-08T15:46:48.954Z</time>
      </trkpt>
      <trkpt lat="43.8427" lon="7.59289">
        <ele>117.75799560547</ele>
        <time>2018-11-08T15:47:11.140Z</time>
      </trkpt>
      <trkpt lat="43.8426" lon="7.59285">
        <ele>113.60668945312</ele>
        <time>2018-11-08T15:47:33.328Z</time>
      </trkpt>
      <trkpt lat="43.84247" lon="7.59274">
        <ele>106.88780975342</ele>
        <time>2018-11-08T15:47:55.518Z</time>
      </trkpt>
      <trkpt lat="43.84238" lon="7.59266">
        <ele>102.14859771729</ele>
        <time>2018-11-08T15:48:17.710Z</time>
      </trkpt>
      <trkpt lat="43.84236" lon="7.59261">
        <ele>100.36090087891</ele>
        <time>2018-11-08T15:48:39.902Z</time>
      </trkpt>
      <trkpt lat="43.84234" lon="7.59248">
        <ele>97.048370361328</ele>
        <time>2018-11-08T15:49:02.096Z</time>
      </trkpt>
      <trkpt lat="43.8423" lon="7.59216">
        <ele>91.145355224609</ele>
        <time>2018-11-08T15:49:24.294Z</time>
      </trkpt>
      <trkpt lat="43.84226" lon="7.59205">
        <ele>88.227584838867</ele>
        <time>2018-11-08T15:49:46.493Z</time>
      </trkpt>
      <trkpt lat="43.84221" lon="7.59202">
        <ele>86.214179992676</ele>
        <time>2018-11-08T15:50:08.693Z</time>
      </trkpt>
      <trkpt lat="43.84213" lon="7.59204">
        <ele>83.91056060791</ele>
        <time>2018-11-08T15:50:30.894Z</time>
      </trkpt>
      <trkpt lat="43.84204" lon="7.59214">
        <ele>82.43480682373</ele>
        <time>2018-11-08T15:50:53.097Z</time>
      </trkpt>
      <trkpt lat="43.84201" lon="7.59221">
        <ele>82.470802307129</ele>
        <time>2018-11-08T15:51:15.301Z</time>
      </trkpt>
      <trkpt lat="43.84199" lon="7.59236">
        <ele>83.982551574707</ele>
        <time>2018-11-08T15:51:37.507Z</time>
      </trkpt>
      <trkpt lat="43.84199" lon="7.5925">
        <ele>85.99821472168</ele>
        <time>2018-11-08T15:51:59.715Z</time>
      </trkpt>
      <trkpt lat="43.84196" lon="7.59255">
        <ele>86.035285949707</ele>
        <time>2018-11-08T15:52:21.923Z</time>
      </trkpt>
      <trkpt lat="43.84191" lon="7.59255">
        <ele>84.308052062988</ele>
        <time>2018-11-08T15:52:44.132Z</time>
      </trkpt>
      <trkpt lat="43.84188" lon="7.59245">
        <ele>82.219802856445</ele>
        <time>2018-11-08T15:53:06.342Z</time>
      </trkpt>
      <trkpt lat="43.84193" lon="7.59192">
        <ele>75.70393371582</ele>
        <time>2018-11-08T15:53:28.559Z</time>
      </trkpt>
      <trkpt lat="43.84191" lon="7.59188">
        <ele>74.480133056641</ele>
        <time>2018-11-08T15:53:50.776Z</time>
      </trkpt>
      <trkpt lat="43.84187" lon="7.5919">
        <ele>74.457092285156</ele>
        <time>2018-11-08T15:54:12.994Z</time>
      </trkpt>
      <trkpt lat="43.84182" lon="7.59213">
        <ele>78.548408508301</ele>
        <time>2018-11-08T15:54:35.215Z</time>
      </trkpt>
      <trkpt lat="43.84157" lon="7.59276">
        <ele>87.581336975098</ele>
        <time>2018-11-08T15:54:57.444Z</time>
      </trkpt>
      <trkpt lat="43.84149" lon="7.59312">
        <ele>91.536895751953</ele>
        <time>2018-11-08T15:55:19.677Z</time>
      </trkpt>
      <trkpt lat="43.84144" lon="7.59319">
        <ele>91.452911376953</ele>
        <time>2018-11-08T15:55:41.911Z</time>
      </trkpt>
      <trkpt lat="43.84139" lon="7.5932">
        <ele>91.08097076416</ele>
        <time>2018-11-08T15:56:04.146Z</time>
      </trkpt>
      <trkpt lat="43.84143" lon="7.59297">
        <ele>90.313102722168</ele>
        <time>2018-11-08T15:56:26.384Z</time>
      </trkpt>
      <trkpt lat="43.84144" lon="7.59279">
        <ele>88.361213684082</ele>
        <time>2018-11-08T15:56:48.624Z</time>
      </trkpt>
      <trkpt lat="43.84141" lon="7.59264">
        <ele>86.093589782715</ele>
        <time>2018-11-08T15:57:10.866Z</time>
      </trkpt>
      <trkpt lat="43.84137" lon="7.59256">
        <ele>84.941780090332</ele>
        <time>2018-11-08T15:57:33.109Z</time>
      </trkpt>
      <trkpt lat="43.84134" lon="7.59246">
        <ele>84.254333496094</ele>
        <time>2018-11-08T15:57:55.353Z</time>
      </trkpt>
      <trkpt lat="43.84133" lon="7.59228">
        <ele>84.062370300293</ele>
        <time>2018-11-08T15:58:17.599Z</time>
      </trkpt>
      <trkpt lat="43.84131" lon="7.59208">
        <ele>83.870399475098</ele>
        <time>2018-11-08T15:58:39.848Z</time>
      </trkpt>
      <trkpt lat="43.84125" lon="7.59185">
        <ele>83.407600402832</ele>
        <time>2018-11-08T15:59:02.099Z</time>
      </trkpt>
      <trkpt lat="43.84122" lon="7.59165">
        <ele>81.728080749512</ele>
        <time>2018-11-08T15:59:24.353Z</time>
      </trkpt>
      <trkpt lat="43.84125" lon="7.5915">
        <ele>82.519950866699</ele>
        <time>2018-11-08T15:59:46.609Z</time>
      </trkpt>
      <trkpt lat="43.84142" lon="7.59127">
        <ele>81.800064086914</ele>
        <time>2018-11-08T16:00:08.868Z</time>
      </trkpt>
      <trkpt lat="43.84159" lon="7.59108">
        <ele>71.697929382324</ele>
        <time>2018-11-08T16:00:31.131Z</time>
      </trkpt>
      <trkpt lat="43.84166" lon="7.59093">
        <ele>65.266998291016</ele>
        <time>2018-11-08T16:00:53.396Z</time>
      </trkpt>
      <trkpt lat="43.84165" lon="7.59085">
        <ele>63.995212554932</ele>
        <time>2018-11-08T16:01:15.662Z</time>
      </trkpt>
      <trkpt lat="43.84151" lon="7.59067">
        <ele>68.634140014648</ele>
        <time>2018-11-08T16:01:37.931Z</time>
      </trkpt>
      <trkpt lat="43.8415" lon="7.5906">
        <ele>68.418174743652</ele>
        <time>2018-11-08T16:02:00.201Z</time>
      </trkpt>
      <trkpt lat="43.84154" lon="7.5904">
        <ele>64.792526245117</ele>
        <time>2018-11-08T16:02:22.473Z</time>
      </trkpt>
      <trkpt lat="43.84162" lon="7.59016">
        <ele>59.225456237793</ele>
        <time>2018-11-08T16:02:44.748Z</time>
      </trkpt>
      <trkpt lat="43.84144" lon="7.58973">
        <ele>58.814678192139</ele>
        <time>2018-11-08T16:03:07.029Z</time>
      </trkpt>
      <trkpt lat="43.84092" lon="7.58854">
        <ele>50.167045593262</ele>
        <time>2018-11-08T16:03:29.326Z</time>
      </trkpt>
      <trkpt lat="43.84084" lon="7.58842">
        <ele>49.063232421875</ele>
        <time>2018-11-08T16:03:51.625Z</time>
      </trkpt>
      <trkpt lat="43.84073" lon="7.58831">
        <ele>48.936862945557</ele>
        <time>2018-11-08T16:04:13.926Z</time>
      </trkpt>
      <trkpt lat="43.84034" lon="7.588">
        <ele>50.940528869629</ele>
        <time>2018-11-08T16:04:36.234Z</time>
      </trkpt>
      <trkpt lat="43.83884" lon="7.58685">
        <ele>57.394237518311</ele>
        <time>2018-11-08T16:04:58.570Z</time>
      </trkpt>
      <trkpt lat="43.8388" lon="7.58681">
        <ele>57.490219116211</ele>
        <time>2018-11-08T16:05:20.907Z</time>
      </trkpt>
      <trkpt lat="43.8388" lon="7.58682">
        <ele>57.658191680908</ele>
        <time>2018-11-08T16:05:43.244Z</time>
      </trkpt>
      <trkpt lat="43.83866" lon="7.58669">
        <ele>58.162109375</ele>
        <time>2018-11-08T16:06:05.583Z</time>
      </trkpt>
      <trkpt lat="43.83823" lon="7.58614">
        <ele>71.678268432617</ele>
        <time>2018-11-08T16:06:27.932Z</time>
      </trkpt>
      <trkpt lat="43.83814" lon="7.58597">
        <ele>74.545791625977</ele>
        <time>2018-11-08T16:06:50.283Z</time>
      </trkpt>
      <trkpt lat="43.83814" lon="7.58596">
        <ele>74.589210510254</ele>
        <time>2018-11-08T16:07:12.634Z</time>
      </trkpt>
      <trkpt lat="43.83814" lon="7.58596">
        <ele>74.598846435547</ele>
        <time>2018-11-08T16:07:34.985Z</time>
      </trkpt>
      <trkpt lat="43.83805" lon="7.58569">
        <ele>74.997611999512</ele>
        <time>2018-11-08T16:07:57.340Z</time>
      </trkpt>
      <trkpt lat="43.83794" lon="7.58477">
        <ele>63.385028839111</ele>
        <time>2018-11-08T16:08:19.706Z</time>
      </trkpt>
      <trkpt lat="43.83783" lon="7.58439">
        <ele>55.898277282715</ele>
        <time>2018-11-08T16:08:42.076Z</time>
      </trkpt>
      <trkpt lat="43.83758" lon="7.58384">
        <ele>48.617965698242</ele>
        <time>2018-11-08T16:09:04.454Z</time>
      </trkpt>
      <trkpt lat="43.83747" lon="7.58365">
        <ele>45.690452575684</ele>
        <time>2018-11-08T16:09:26.835Z</time>
      </trkpt>
      <trkpt lat="43.83737" lon="7.58357">
        <ele>44.5866355896</ele>
        <time>2018-11-08T16:09:49.218Z</time>
      </trkpt>
      <trkpt lat="43.8371" lon="7.58347">
        <ele>43.554809570312</ele>
        <time>2018-11-08T16:10:11.605Z</time>
      </trkpt>
      <trkpt lat="43.83592" lon="7.5832">
        <ele>40.619499206543</ele>
        <time>2018-11-08T16:10:34.011Z</time>
      </trkpt>
      <trkpt lat="43.83528" lon="7.58306">
        <ele>40.310375213623</ele>
        <time>2018-11-08T16:10:56.428Z</time>
      </trkpt>
      <trkpt lat="43.83447" lon="7.583">
        <ele>39.819137573242</ele>
        <time>2018-11-08T16:11:18.858Z</time>
      </trkpt>
      <trkpt lat="43.83368" lon="7.58295">
        <ele>38.016681671143</ele>
        <time>2018-11-08T16:11:41.300Z</time>
      </trkpt>
      <trkpt lat="43.83348" lon="7.58296">
        <ele>37.514678955078</ele>
        <time>2018-11-08T16:12:03.745Z</time>
      </trkpt>
      <trkpt lat="43.83326" lon="7.58306">
        <ele>37.600578308105</ele>
        <time>2018-11-08T16:12:26.194Z</time>
      </trkpt>
      <trkpt lat="43.83318" lon="7.58314">
        <ele>37.600578308105</ele>
        <time>2018-11-08T16:12:48.645Z</time>
      </trkpt>
      <trkpt lat="43.83305" lon="7.58329">
        <ele>37.648571014404</ele>
        <time>2018-11-08T16:13:11.098Z</time>
      </trkpt>
      <trkpt lat="43.83285" lon="7.58362">
        <ele>40.055446624756</ele>
        <time>2018-11-08T16:13:33.556Z</time>
      </trkpt>
      <trkpt lat="43.83273" lon="7.58373">
        <ele>40.259414672852</ele>
        <time>2018-11-08T16:13:56.017Z</time>
      </trkpt>
      <trkpt lat="43.83255" lon="7.58385">
        <ele>41.221206665039</ele>
        <time>2018-11-08T16:14:18.481Z</time>
      </trkpt>
      <trkpt lat="43.83241" lon="7.58389">
        <ele>41.557151794434</ele>
        <time>2018-11-08T16:14:40.947Z</time>
      </trkpt>
      <trkpt lat="43.832" lon="7.58392">
        <ele>41.809108734131</ele>
        <time>2018-11-08T16:15:03.420Z</time>
      </trkpt>
      <trkpt lat="43.83151" lon="7.58397">
        <ele>39.553192138672</ele>
        <time>2018-11-08T16:15:25.901Z</time>
      </trkpt>
      <trkpt lat="43.8312" lon="7.58411">
        <ele>37.789485931396</ele>
        <time>2018-11-08T16:15:48.387Z</time>
      </trkpt>
      <trkpt lat="43.83077" lon="7.58443">
        <ele>41.010841369629</ele>
        <time>2018-11-08T16:16:10.881Z</time>
      </trkpt>
      <trkpt lat="43.83037" lon="7.58471">
        <ele>40.566379547119</ele>
        <time>2018-11-08T16:16:33.382Z</time>
      </trkpt>
      <trkpt lat="43.83019" lon="7.58482">
        <ele>39.019832611084</ele>
        <time>2018-11-08T16:16:55.886Z</time>
      </trkpt>
      <trkpt lat="43.82912" lon="7.58525">
        <ele>45.068737030029</ele>
        <time>2018-11-08T16:17:18.408Z</time>
      </trkpt>
      <trkpt lat="43.82895" lon="7.58531">
        <ele>46.868438720703</ele>
        <time>2018-11-08T16:17:40.933Z</time>
      </trkpt>
      <trkpt lat="43.82878" lon="7.58534">
        <ele>48.854892730713</ele>
        <time>2018-11-08T16:18:03.460Z</time>
      </trkpt>
      <trkpt lat="43.82859" lon="7.58534">
        <ele>50.906547546387</ele>
        <time>2018-11-08T16:18:25.990Z</time>
      </trkpt>
      <trkpt lat="43.82803" lon="7.58529">
        <ele>47.985507965088</ele>
        <time>2018-11-08T16:18:48.529Z</time>
      </trkpt>
      <trkpt lat="43.82785" lon="7.58525">
        <ele>45.279022216797</ele>
        <time>2018-11-08T16:19:11.071Z</time>
      </trkpt>
      <trkpt lat="43.82768" lon="7.58518">
        <ele>41.764141082764</ele>
        <time>2018-11-08T16:19:33.616Z</time>
      </trkpt>
      <trkpt lat="43.82728" lon="7.58493">
        <ele>35.089321136475</ele>
        <time>2018-11-08T16:19:56.168Z</time>
      </trkpt>
      <trkpt lat="43.82717" lon="7.58487">
        <ele>34.404808044434</ele>
        <time>2018-11-08T16:20:18.722Z</time>
      </trkpt>
      <trkpt lat="43.82717" lon="7.58487">
        <ele>34.392997741699</ele>
        <time>2018-11-08T16:20:41.276Z</time>
      </trkpt>
      <trkpt lat="43.82705" lon="7.5848">
        <ele>33.685554504395</ele>
        <time>2018-11-08T16:21:03.832Z</time>
      </trkpt>
      <trkpt lat="43.82682" lon="7.58477">
        <ele>33.279998779297</ele>
        <time>2018-11-08T16:21:26.392Z</time>
      </trkpt>
      <trkpt lat="43.8257" lon="7.58499">
        <ele>32.360088348389</ele>
        <time>2018-11-08T16:21:48.970Z</time>
      </trkpt>
      <trkpt lat="43.82547" lon="7.58509">
        <ele>33.333839416504</ele>
        <time>2018-11-08T16:22:11.552Z</time>
      </trkpt>
      <trkpt lat="43.82534" lon="7.5852">
        <ele>34.652050018311</ele>
        <time>2018-11-08T16:22:34.136Z</time>
      </trkpt>
      <trkpt lat="43.82521" lon="7.58538">
        <ele>33.360656738281</ele>
        <time>2018-11-08T16:22:56.723Z</time>
      </trkpt>
      <trkpt lat="43.82479" lon="7.58602">
        <ele>37.444095611572</ele>
        <time>2018-11-08T16:23:19.320Z</time>
      </trkpt>
      <trkpt lat="43.82433" lon="7.58679">
        <ele>35.281066894531</ele>
        <time>2018-11-08T16:23:41.929Z</time>
      </trkpt>
      <trkpt lat="43.82417" lon="7.58698">
        <ele>37.092765808105</ele>
        <time>2018-11-08T16:24:04.541Z</time>
      </trkpt>
      <trkpt lat="43.82399" lon="7.58707">
        <ele>37.200744628906</ele>
        <time>2018-11-08T16:24:27.156Z</time>
      </trkpt>
      <trkpt lat="43.82285" lon="7.58739">
        <ele>29.942111968994</ele>
        <time>2018-11-08T16:24:49.790Z</time>
      </trkpt>
      <trkpt lat="43.82275" lon="7.58745">
        <ele>29.126247406006</ele>
        <time>2018-11-08T16:25:12.425Z</time>
      </trkpt>
      <trkpt lat="43.82228" lon="7.58789">
        <ele>33.188293457031</ele>
        <time>2018-11-08T16:25:35.070Z</time>
      </trkpt>
      <trkpt lat="43.82211" lon="7.58805">
        <ele>33.185691833496</ele>
        <time>2018-11-08T16:25:57.718Z</time>
      </trkpt>
      <trkpt lat="43.82196" lon="7.58812">
        <ele>32.321834564209</ele>
        <time>2018-11-08T16:26:20.368Z</time>
      </trkpt>
      <trkpt lat="43.82167" lon="7.5882">
        <ele>31.121253967285</ele>
        <time>2018-11-08T16:26:43.023Z</time>
      </trkpt>
      <trkpt lat="43.82135" lon="7.58826">
        <ele>27.88179397583</ele>
        <time>2018-11-08T16:27:05.683Z</time>
      </trkpt>
      <trkpt lat="43.82126" lon="7.58831">
        <ele>27.08992767334</ele>
        <time>2018-11-08T16:27:28.345Z</time>
      </trkpt>
      <trkpt lat="43.82117" lon="7.58836">
        <ele>26.637121200562</ele>
        <time>2018-11-08T16:27:51.008Z</time>
      </trkpt>
      <trkpt lat="43.82089" lon="7.58866">
        <ele>29.077180862427</ele>
        <time>2018-11-08T16:28:13.677Z</time>
      </trkpt>
      <trkpt lat="43.82036" lon="7.58947">
        <ele>32.678268432617</ele>
        <time>2018-11-08T16:28:36.359Z</time>
      </trkpt>
      <trkpt lat="43.81977" lon="7.59011">
        <ele>29.461191177368</ele>
        <time>2018-11-08T16:28:59.053Z</time>
      </trkpt>
      <trkpt lat="43.81902" lon="7.59063">
        <ele>31.678607940674</ele>
        <time>2018-11-08T16:29:21.760Z</time>
      </trkpt>
      <trkpt lat="43.81737" lon="7.59194">
        <ele>33.725482940674</ele>
        <time>2018-11-08T16:29:44.498Z</time>
      </trkpt>
      <trkpt lat="43.81704" lon="7.59216">
        <ele>33.676445007324</ele>
        <time>2018-11-08T16:30:07.241Z</time>
      </trkpt>
      <trkpt lat="43.81663" lon="7.59238">
        <ele>32.170394897461</ele>
        <time>2018-11-08T16:30:29.991Z</time>
      </trkpt>
      <trkpt lat="43.81617" lon="7.59259">
        <ele>29.364685058594</ele>
        <time>2018-11-08T16:30:52.749Z</time>
      </trkpt>
      <trkpt lat="43.81553" lon="7.59279">
        <ele>32.665954589844</ele>
        <time>2018-11-08T16:31:15.518Z</time>
      </trkpt>
      <trkpt lat="43.8153" lon="7.59287">
        <ele>30.022172927856</ele>
        <time>2018-11-08T16:31:38.291Z</time>
      </trkpt>
      <trkpt lat="43.81448" lon="7.59321">
        <ele>30.948795318604</ele>
        <time>2018-11-08T16:32:01.077Z</time>
      </trkpt>
      <trkpt lat="43.81441" lon="7.59323">
        <ele>31.027896881104</ele>
        <time>2018-11-08T16:32:23.864Z</time>
      </trkpt>
      <trkpt lat="43.81441" lon="7.59323">
        <ele>31.030334472656</ele>
        <time>2018-11-08T16:32:46.651Z</time>
      </trkpt>
      <trkpt lat="43.81424" lon="7.59329">
        <ele>34.167675018311</ele>
        <time>2018-11-08T16:33:09.441Z</time>
      </trkpt>
      <trkpt lat="43.81401" lon="7.59329">
        <ele>39.134845733643</ele>
        <time>2018-11-08T16:33:32.235Z</time>
      </trkpt>
      <trkpt lat="43.8138" lon="7.59324">
        <ele>41.990371704102</ele>
        <time>2018-11-08T16:33:55.032Z</time>
      </trkpt>
      <trkpt lat="43.81321" lon="7.59303">
        <ele>40.309509277344</ele>
        <time>2018-11-08T16:34:17.839Z</time>
      </trkpt>
      <trkpt lat="43.81266" lon="7.59287">
        <ele>35.402324676514</ele>
        <time>2018-11-08T16:34:40.655Z</time>
      </trkpt>
      <trkpt lat="43.81126" lon="7.59244">
        <ele>23.274494171143</ele>
        <time>2018-11-08T16:35:03.494Z</time>
      </trkpt>
      <trkpt lat="43.81111" lon="7.59242">
        <ele>23.082525253296</ele>
        <time>2018-11-08T16:35:26.335Z</time>
      </trkpt>
      <trkpt lat="43.81088" lon="7.5924">
        <ele>22.958299636841</ele>
        <time>2018-11-08T16:35:49.180Z</time>
      </trkpt>
      <trkpt lat="43.81026" lon="7.59234">
        <ele>23.054285049438</ele>
        <time>2018-11-08T16:36:12.035Z</time>
      </trkpt>
      <trkpt lat="43.8098" lon="7.59229">
        <ele>21.367223739624</ele>
        <time>2018-11-08T16:36:34.897Z</time>
      </trkpt>
      <trkpt lat="43.80935" lon="7.59223">
        <ele>18.902006149292</ele>
        <time>2018-11-08T16:36:57.767Z</time>
      </trkpt>
      <trkpt lat="43.80894" lon="7.59221">
        <ele>17.763933181763</ele>
        <time>2018-11-08T16:37:20.643Z</time>
      </trkpt>
      <trkpt lat="43.80854" lon="7.59223">
        <ele>15.986016273499</ele>
        <time>2018-11-08T16:37:43.526Z</time>
      </trkpt>
      <trkpt lat="43.80811" lon="7.59235">
        <ele>15.94026184082</ele>
        <time>2018-11-08T16:38:06.416Z</time>
      </trkpt>
      <trkpt lat="43.80765" lon="7.59256">
        <ele>15.131374359131</ele>
        <time>2018-11-08T16:38:29.313Z</time>
      </trkpt>
      <trkpt lat="43.80735" lon="7.59275">
        <ele>15.683281898499</ele>
        <time>2018-11-08T16:38:52.216Z</time>
      </trkpt>
      <trkpt lat="43.80637" lon="7.59349">
        <ele>13.868120193481</ele>
        <time>2018-11-08T16:39:15.137Z</time>
      </trkpt>
      <trkpt lat="43.80427" lon="7.59507">
        <ele>10.927684783936</ele>
        <time>2018-11-08T16:39:38.096Z</time>
      </trkpt>
      <trkpt lat="43.80338" lon="7.59575">
        <ele>12.684888839722</ele>
        <time>2018-11-08T16:40:01.071Z</time>
      </trkpt>
      <trkpt lat="43.80294" lon="7.59612">
        <ele>9.4817848205566</ele>
        <time>2018-11-08T16:40:24.054Z</time>
      </trkpt>
      <trkpt lat="43.80259" lon="7.59645">
        <ele>11.169833183289</ele>
        <time>2018-11-08T16:40:47.044Z</time>
      </trkpt>
      <trkpt lat="43.80259" lon="7.59645">
        <ele>11.179484367371</ele>
        <time>2018-11-08T16:41:10.034Z</time>
      </trkpt>
      <trkpt lat="43.80207" lon="7.59694">
        <ele>11.286840438843</ele>
        <time>2018-11-08T16:41:33.034Z</time>
      </trkpt>
      <trkpt lat="43.80153" lon="7.59744">
        <ele>10.818028450012</ele>
        <time>2018-11-08T16:41:56.045Z</time>
      </trkpt>
      <trkpt lat="43.80061" lon="7.59824">
        <ele>10.207934379578</ele>
        <time>2018-11-08T16:42:19.073Z</time>
      </trkpt>
      <trkpt lat="43.79979" lon="7.599">
        <ele>11.851179122925</ele>
        <time>2018-11-08T16:42:42.117Z</time>
      </trkpt>
      <trkpt lat="43.79865" lon="7.60008">
        <ele>9.7516822814941</ele>
        <time>2018-11-08T16:43:05.183Z</time>
      </trkpt>
      <trkpt lat="43.79568" lon="7.60277">
        <ele>8.7426977157593</ele>
        <time>2018-11-08T16:43:28.306Z</time>
      </trkpt>
      <trkpt lat="43.79492" lon="7.60344">
        <ele>9.082836151123</ele>
        <time>2018-11-08T16:43:51.443Z</time>
      </trkpt>
      <trkpt lat="43.79382" lon="7.60438">
        <ele>7.0047268867493</ele>
        <time>2018-11-08T16:44:14.601Z</time>
      </trkpt>
      <trkpt lat="43.79375" lon="7.60444">
        <ele>7.1483850479126</ele>
        <time>2018-11-08T16:44:37.760Z</time>
      </trkpt>
      <trkpt lat="43.79358" lon="7.6046">
        <ele>8.4921607971191</ele>
        <time>2018-11-08T16:45:00.922Z</time>
      </trkpt>
      <trkpt lat="43.79351" lon="7.60461">
        <ele>8.6230964660645</ele>
        <time>2018-11-08T16:45:24.086Z</time>
      </trkpt>
      <trkpt lat="43.79341" lon="7.60465">
        <ele>9.0790205001831</ele>
        <time>2018-11-08T16:45:47.251Z</time>
      </trkpt>
      <trkpt lat="43.79325" lon="7.60475">
        <ele>9.8843631744385</ele>
        <time>2018-11-08T16:46:10.419Z</time>
      </trkpt>
      <trkpt lat="43.7932" lon="7.60476">
        <ele>9.5964107513428</ele>
        <time>2018-11-08T16:46:33.588Z</time>
      </trkpt>
      <trkpt lat="43.79314" lon="7.60474">
        <ele>9.212474822998</ele>
        <time>2018-11-08T16:46:56.758Z</time>
      </trkpt>
      <trkpt lat="43.79308" lon="7.60469">
        <ele>8.7925453186035</ele>
        <time>2018-11-08T16:47:19.929Z</time>
      </trkpt>
      <trkpt lat="43.79294" lon="7.6045">
        <ele>7.7231287956238</ele>
        <time>2018-11-08T16:47:43.103Z</time>
      </trkpt>
      <trkpt lat="43.79294" lon="7.6045">
        <ele>7.7117743492126</ele>
        <time>2018-11-08T16:48:06.277Z</time>
      </trkpt>
      <trkpt lat="43.79289" lon="7.60443">
        <ele>7.3407869338989</ele>
        <time>2018-11-08T16:48:29.452Z</time>
      </trkpt>
      <trkpt lat="43.79262" lon="7.60381">
        <ele>8.4945993423462</ele>
        <time>2018-11-08T16:48:52.636Z</time>
      </trkpt>
      <trkpt lat="43.79253" lon="7.60367">
        <ele>10.078335762024</ele>
        <time>2018-11-08T16:49:15.822Z</time>
      </trkpt>
      <trkpt lat="43.79246" lon="7.60356">
        <ele>11.314129829407</ele>
        <time>2018-11-08T16:49:39.009Z</time>
      </trkpt>
      <trkpt lat="43.79238" lon="7.60353">
        <ele>12.381951332092</ele>
        <time>2018-11-08T16:50:02.198Z</time>
      </trkpt>
      <trkpt lat="43.79228" lon="7.60354">
        <ele>13.545758247375</ele>
        <time>2018-11-08T16:50:25.388Z</time>
      </trkpt>
      <trkpt lat="43.79227" lon="7.60353">
        <ele>13.701731681824</ele>
        <time>2018-11-08T16:50:48.579Z</time>
      </trkpt>
      <trkpt lat="43.79219" lon="7.60364">
        <ele>14.265637397766</ele>
        <time>2018-11-08T16:51:11.771Z</time>
      </trkpt>
      <trkpt lat="43.79216" lon="7.60374">
        <ele>13.463248252869</ele>
        <time>2018-11-08T16:51:34.965Z</time>
      </trkpt>
      <trkpt lat="43.79208" lon="7.60368">
        <ele>14.495076179504</ele>
        <time>2018-11-08T16:51:58.160Z</time>
      </trkpt>
      <trkpt lat="43.79193" lon="7.60349">
        <ele>17.26661491394</ele>
        <time>2018-11-08T16:52:21.358Z</time>
      </trkpt>
      <trkpt lat="43.79175" lon="7.60327">
        <ele>24.05696105957</ele>
        <time>2018-11-08T16:52:44.560Z</time>
      </trkpt>
      <trkpt lat="43.79157" lon="7.60341">
        <ele>28.481435775757</ele>
        <time>2018-11-08T16:53:07.765Z</time>
      </trkpt>
      <trkpt lat="43.79157" lon="7.60341">
        <ele>28.525810241699</ele>
        <time>2018-11-08T16:53:30.971Z</time>
      </trkpt>
      <trkpt lat="43.79142" lon="7.60352">
        <ele>32.144485473633</ele>
        <time>2018-11-08T16:53:54.179Z</time>
      </trkpt>
      <trkpt lat="43.7912" lon="7.60376">
        <ele>33.584373474121</ele>
        <time>2018-11-08T16:54:17.392Z</time>
      </trkpt>
      <trkpt lat="43.79117" lon="7.60382">
        <ele>32.828498840332</ele>
        <time>2018-11-08T16:54:40.606Z</time>
      </trkpt>
      <trkpt lat="43.79101" lon="7.60397">
        <ele>31.511287689209</ele>
        <time>2018-11-08T16:55:03.823Z</time>
      </trkpt>
      <trkpt lat="43.7907" lon="7.60411">
        <ele>29.626068115234</ele>
        <time>2018-11-08T16:55:27.045Z</time>
      </trkpt>
      <trkpt lat="43.79014" lon="7.60451">
        <ele>22.616670608521</ele>
        <time>2018-11-08T16:55:50.277Z</time>
      </trkpt>
      <trkpt lat="43.79004" lon="7.60459">
        <ele>17.769477844238</ele>
        <time>2018-11-08T16:56:13.511Z</time>
      </trkpt>
      <trkpt lat="43.78999" lon="7.60459">
        <ele>16.20973777771</ele>
        <time>2018-11-08T16:56:36.746Z</time>
      </trkpt>
      <trkpt lat="43.7899" lon="7.60457">
        <ele>13.834134101868</ele>
        <time>2018-11-08T16:56:59.982Z</time>
      </trkpt>
      <trkpt lat="43.78982" lon="7.60452">
        <ele>12.418370246887</ele>
        <time>2018-11-08T16:57:23.220Z</time>
      </trkpt>
      <trkpt lat="43.78976" lon="7.60447">
        <ele>11.626502037048</ele>
        <time>2018-11-08T16:57:46.459Z</time>
      </trkpt>
      <trkpt lat="43.7897" lon="7.60434">
        <ele>12.562346458435</ele>
        <time>2018-11-08T16:58:09.699Z</time>
      </trkpt>
      <trkpt lat="43.78967" lon="7.60419">
        <ele>14.865962028503</ele>
        <time>2018-11-08T16:58:32.941Z</time>
      </trkpt>
      <trkpt lat="43.78969" lon="7.60399">
        <ele>15.615177154541</ele>
        <time>2018-11-08T16:58:56.186Z</time>
      </trkpt>
      <trkpt lat="43.78982" lon="7.60332">
        <ele>22.436113357544</ele>
        <time>2018-11-08T16:59:19.439Z</time>
      </trkpt>
      <trkpt lat="43.78982" lon="7.60331">
        <ele>22.436113357544</ele>
        <time>2018-11-08T16:59:42.692Z</time>
      </trkpt>
      <trkpt lat="43.78987" lon="7.60303">
        <ele>22.43607711792</ele>
        <time>2018-11-08T17:00:05.948Z</time>
      </trkpt>
      <trkpt lat="43.78991" lon="7.60285">
        <ele>21.972415924072</ele>
        <time>2018-11-08T17:00:29.206Z</time>
      </trkpt>
      <trkpt lat="43.78998" lon="7.6026">
        <ele>21.708459854126</ele>
        <time>2018-11-08T17:00:52.467Z</time>
      </trkpt>
      <trkpt lat="43.79007" lon="7.60246">
        <ele>23.602956771851</ele>
        <time>2018-11-08T17:01:15.731Z</time>
      </trkpt>
      <trkpt lat="43.79023" lon="7.60229">
        <ele>25.625452041626</ele>
        <time>2018-11-08T17:01:38.998Z</time>
      </trkpt>
      <trkpt lat="43.7905" lon="7.60196">
        <ele>28.232248306274</ele>
        <time>2018-11-08T17:02:02.271Z</time>
      </trkpt>
      <trkpt lat="43.79076" lon="7.60146">
        <ele>32.460079193115</ele>
        <time>2018-11-08T17:02:25.551Z</time>
      </trkpt>
      <trkpt lat="43.79118" lon="7.60056">
        <ele>32.466449737549</ele>
        <time>2018-11-08T17:02:48.843Z</time>
      </trkpt>
      <trkpt lat="43.79126" lon="7.60045">
        <ele>34.002193450928</ele>
        <time>2018-11-08T17:03:12.137Z</time>
      </trkpt>
      <trkpt lat="43.79139" lon="7.60003">
        <ele>36.937927246094</ele>
        <time>2018-11-08T17:03:35.436Z</time>
      </trkpt>
      <trkpt lat="43.79155" lon="7.59962">
        <ele>44.644718170166</ele>
        <time>2018-11-08T17:03:58.741Z</time>
      </trkpt>
      <trkpt lat="43.79161" lon="7.5994">
        <ele>46.876346588135</ele>
        <time>2018-11-08T17:04:22.048Z</time>
      </trkpt>
      <trkpt lat="43.79162" lon="7.59919">
        <ele>47.248287200928</ele>
        <time>2018-11-08T17:04:45.358Z</time>
      </trkpt>
      <trkpt lat="43.79161" lon="7.59903">
        <ele>48.900413513184</ele>
        <time>2018-11-08T17:05:08.670Z</time>
      </trkpt>
      <trkpt lat="43.79155" lon="7.59885">
        <ele>49.040153503418</ele>
        <time>2018-11-08T17:05:31.984Z</time>
      </trkpt>
      <trkpt lat="43.79134" lon="7.59847">
        <ele>45.619281768799</ele>
        <time>2018-11-08T17:05:55.303Z</time>
      </trkpt>
      <trkpt lat="43.79134" lon="7.59847">
        <ele>45.598602294922</ele>
        <time>2018-11-08T17:06:18.622Z</time>
      </trkpt>
      <trkpt lat="43.79119" lon="7.5982">
        <ele>44.803688049316</ele>
        <time>2018-11-08T17:06:41.945Z</time>
      </trkpt>
      <trkpt lat="43.79086" lon="7.59739">
        <ele>47.897651672363</ele>
        <time>2018-11-08T17:07:05.279Z</time>
      </trkpt>
      <trkpt lat="43.79076" lon="7.597">
        <ele>50.204021453857</ele>
        <time>2018-11-08T17:07:28.618Z</time>
      </trkpt>
      <trkpt lat="43.79071" lon="7.59669">
        <ele>53.251514434814</ele>
        <time>2018-11-08T17:07:51.961Z</time>
      </trkpt>
      <trkpt lat="43.79071" lon="7.59654">
        <ele>54.056011199951</ele>
        <time>2018-11-08T17:08:15.305Z</time>
      </trkpt>
      <trkpt lat="43.79073" lon="7.59643">
        <ele>55.447780609131</ele>
        <time>2018-11-08T17:08:38.651Z</time>
      </trkpt>
      <trkpt lat="43.79069" lon="7.59585">
        <ele>57.072589874268</ele>
        <time>2018-11-08T17:09:02.003Z</time>
      </trkpt>
      <trkpt lat="43.79069" lon="7.59566">
        <ele>55.257080078125</ele>
        <time>2018-11-08T17:09:25.358Z</time>
      </trkpt>
      <trkpt lat="43.79072" lon="7.5955">
        <ele>55.078022003174</ele>
        <time>2018-11-08T17:09:48.715Z</time>
      </trkpt>
      <trkpt lat="43.7908" lon="7.59525">
        <ele>56.62576675415</ele>
        <time>2018-11-08T17:10:12.075Z</time>
      </trkpt>
      <trkpt lat="43.79091" lon="7.59503">
        <ele>59.793235778809</ele>
        <time>2018-11-08T17:10:35.438Z</time>
      </trkpt>
      <trkpt lat="43.79114" lon="7.59466">
        <ele>60.775989532471</ele>
        <time>2018-11-08T17:10:58.806Z</time>
      </trkpt>
      <trkpt lat="43.79129" lon="7.59442">
        <ele>61.739307403564</ele>
        <time>2018-11-08T17:11:22.178Z</time>
      </trkpt>
      <trkpt lat="43.79137" lon="7.59433">
        <ele>64.510848999023</ele>
        <time>2018-11-08T17:11:45.552Z</time>
      </trkpt>
      <trkpt lat="43.79157" lon="7.59406">
        <ele>68.757698059082</ele>
        <time>2018-11-08T17:12:08.930Z</time>
      </trkpt>
      <trkpt lat="43.79183" lon="7.5935">
        <ele>65.75902557373</ele>
        <time>2018-11-08T17:12:32.316Z</time>
      </trkpt>
      <trkpt lat="43.79193" lon="7.59334">
        <ele>65.715049743652</ele>
        <time>2018-11-08T17:12:55.704Z</time>
      </trkpt>
      <trkpt lat="43.79193" lon="7.59333">
        <ele>65.68684387207</ele>
        <time>2018-11-08T17:13:19.092Z</time>
      </trkpt>
      <trkpt lat="43.79226" lon="7.59276">
        <ele>60.422779083252</ele>
        <time>2018-11-08T17:13:42.489Z</time>
      </trkpt>
      <trkpt lat="43.7923" lon="7.5926">
        <ele>58.50309753418</ele>
        <time>2018-11-08T17:14:05.888Z</time>
      </trkpt>
      <trkpt lat="43.7924" lon="7.59194">
        <ele>52.476837158203</ele>
        <time>2018-11-08T17:14:29.295Z</time>
      </trkpt>
      <trkpt lat="43.79261" lon="7.59089">
        <ele>56.193214416504</ele>
        <time>2018-11-08T17:14:52.714Z</time>
      </trkpt>
      <trkpt lat="43.7928" lon="7.58968">
        <ele>54.159286499023</ele>
        <time>2018-11-08T17:15:16.148Z</time>
      </trkpt>
      <trkpt lat="43.79288" lon="7.58926">
        <ele>54.099067687988</ele>
        <time>2018-11-08T17:15:39.587Z</time>
      </trkpt>
      <trkpt lat="43.79299" lon="7.58897">
        <ele>60.874523162842</ele>
        <time>2018-11-08T17:16:03.030Z</time>
      </trkpt>
      <trkpt lat="43.79326" lon="7.5881">
        <ele>69.769950866699</ele>
        <time>2018-11-08T17:16:26.483Z</time>
      </trkpt>
      <trkpt lat="43.79346" lon="7.58761">
        <ele>69.772079467773</ele>
        <time>2018-11-08T17:16:49.943Z</time>
      </trkpt>
      <trkpt lat="43.79353" lon="7.58738">
        <ele>70.481063842773</ele>
        <time>2018-11-08T17:17:13.406Z</time>
      </trkpt>
      <trkpt lat="43.79353" lon="7.58702">
        <ele>68.753356933594</ele>
        <time>2018-11-08T17:17:36.873Z</time>
      </trkpt>
      <trkpt lat="43.79352" lon="7.58659">
        <ele>65.681518554688</ele>
        <time>2018-11-08T17:18:00.345Z</time>
      </trkpt>
      <trkpt lat="43.79356" lon="7.58598">
        <ele>60.172863006592</ele>
        <time>2018-11-08T17:18:23.824Z</time>
      </trkpt>
      <trkpt lat="43.79356" lon="7.58561">
        <ele>60.390048980713</ele>
        <time>2018-11-08T17:18:47.307Z</time>
      </trkpt>
      <trkpt lat="43.79349" lon="7.58522">
        <ele>60.107322692871</ele>
        <time>2018-11-08T17:19:10.795Z</time>
      </trkpt>
      <trkpt lat="43.79329" lon="7.58461">
        <ele>53.579334259033</ele>
        <time>2018-11-08T17:19:34.291Z</time>
      </trkpt>
      <trkpt lat="43.7932" lon="7.58427">
        <ele>51.875617980957</ele>
        <time>2018-11-08T17:19:57.791Z</time>
      </trkpt>
      <trkpt lat="43.79319" lon="7.58413">
        <ele>52.240299224854</ele>
        <time>2018-11-08T17:20:21.293Z</time>
      </trkpt>
      <trkpt lat="43.79328" lon="7.58386">
        <ele>57.53141784668</ele>
        <time>2018-11-08T17:20:44.798Z</time>
      </trkpt>
      <trkpt lat="43.79331" lon="7.58369">
        <ele>59.391105651855</ele>
        <time>2018-11-08T17:21:08.305Z</time>
      </trkpt>
      <trkpt lat="43.79332" lon="7.58361">
        <ele>60.038997650146</ele>
        <time>2018-11-08T17:21:31.813Z</time>
      </trkpt>
      <trkpt lat="43.79327" lon="7.58328">
        <ele>57.35196685791</ele>
        <time>2018-11-08T17:21:55.325Z</time>
      </trkpt>
      <trkpt lat="43.79326" lon="7.5831">
        <ele>56.152168273926</ele>
        <time>2018-11-08T17:22:18.839Z</time>
      </trkpt>
      <trkpt lat="43.79331" lon="7.58275">
        <ele>58.941440582275</ele>
        <time>2018-11-08T17:22:42.357Z</time>
      </trkpt>
      <trkpt lat="43.79326" lon="7.58223">
        <ele>57.023868560791</ele>
        <time>2018-11-08T17:23:05.881Z</time>
      </trkpt>
      <trkpt lat="43.79327" lon="7.58184">
        <ele>57.594535827637</ele>
        <time>2018-11-08T17:23:29.410Z</time>
      </trkpt>
      <trkpt lat="43.79324" lon="7.58137">
        <ele>56.298652648926</ele>
        <time>2018-11-08T17:23:52.944Z</time>
      </trkpt>
      <trkpt lat="43.79327" lon="7.58114">
        <ele>55.734748840332</ele>
        <time>2018-11-08T17:24:16.481Z</time>
      </trkpt>
      <trkpt lat="43.79346" lon="7.58049">
        <ele>57.117538452148</ele>
        <time>2018-11-08T17:24:40.026Z</time>
      </trkpt>
      <trkpt lat="43.79356" lon="7.58007">
        <ele>55.308967590332</ele>
        <time>2018-11-08T17:25:03.576Z</time>
      </trkpt>
      <trkpt lat="43.79357" lon="7.57988">
        <ele>54.66609954834</ele>
        <time>2018-11-08T17:25:27.128Z</time>
      </trkpt>
      <trkpt lat="43.79356" lon="7.57977">
        <ele>54.138187408447</ele>
        <time>2018-11-08T17:25:50.682Z</time>
      </trkpt>
      <trkpt lat="43.79352" lon="7.57968">
        <ele>52.376564025879</ele>
        <time>2018-11-08T17:26:14.237Z</time>
      </trkpt>
      <trkpt lat="43.79343" lon="7.57954">
        <ele>48.429222106934</ele>
        <time>2018-11-08T17:26:37.794Z</time>
      </trkpt>
      <trkpt lat="43.79325" lon="7.57933">
        <ele>40.61852645874</ele>
        <time>2018-11-08T17:27:01.355Z</time>
      </trkpt>
      <trkpt lat="43.79317" lon="7.57918">
        <ele>37.078819274902</ele>
        <time>2018-11-08T17:27:24.918Z</time>
      </trkpt>
      <trkpt lat="43.79315" lon="7.57902">
        <ele>34.511249542236</ele>
        <time>2018-11-08T17:27:48.483Z</time>
      </trkpt>
      <trkpt lat="43.79317" lon="7.57888">
        <ele>33.839359283447</ele>
        <time>2018-11-08T17:28:12.050Z</time>
      </trkpt>
      <trkpt lat="43.79328" lon="7.57862">
        <ele>36.698123931885</ele>
        <time>2018-11-08T17:28:35.620Z</time>
      </trkpt>
      <trkpt lat="43.79334" lon="7.57843">
        <ele>38.065895080566</ele>
        <time>2018-11-08T17:28:59.193Z</time>
      </trkpt>
      <trkpt lat="43.79341" lon="7.57801">
        <ele>37.146484375</ele>
        <time>2018-11-08T17:29:22.770Z</time>
      </trkpt>
      <trkpt lat="43.79352" lon="7.57731">
        <ele>32.142959594727</ele>
        <time>2018-11-08T17:29:46.356Z</time>
      </trkpt>
      <trkpt lat="43.79361" lon="7.57684">
        <ele>30.726137161255</ele>
        <time>2018-11-08T17:30:09.947Z</time>
      </trkpt>
      <trkpt lat="43.7937" lon="7.57649">
        <ele>32.692535400391</ele>
        <time>2018-11-08T17:30:33.543Z</time>
      </trkpt>
      <trkpt lat="43.79386" lon="7.57586">
        <ele>35.23722076416</ele>
        <time>2018-11-08T17:30:57.146Z</time>
      </trkpt>
      <trkpt lat="43.79399" lon="7.57543">
        <ele>38.290332794189</ele>
        <time>2018-11-08T17:31:20.755Z</time>
      </trkpt>
      <trkpt lat="43.79402" lon="7.57533">
        <ele>37.656185150146</ele>
        <time>2018-11-08T17:31:44.365Z</time>
      </trkpt>
      <trkpt lat="43.79402" lon="7.57532">
        <ele>37.639366149902</ele>
        <time>2018-11-08T17:32:07.975Z</time>
      </trkpt>
      <trkpt lat="43.79414" lon="7.57484">
        <ele>36.519458770752</ele>
        <time>2018-11-08T17:32:31.591Z</time>
      </trkpt>
      <trkpt lat="43.79423" lon="7.57458">
        <ele>35.474918365479</ele>
        <time>2018-11-08T17:32:55.210Z</time>
      </trkpt>
      <trkpt lat="43.79438" lon="7.57419">
        <ele>33.099311828613</ele>
        <time>2018-11-08T17:33:18.835Z</time>
      </trkpt>
      <trkpt lat="43.79444" lon="7.57381">
        <ele>32.339298248291</ele>
        <time>2018-11-08T17:33:42.464Z</time>
      </trkpt>
      <trkpt lat="43.79443" lon="7.57347">
        <ele>29.54376411438</ele>
        <time>2018-11-08T17:34:06.097Z</time>
      </trkpt>
      <trkpt lat="43.79438" lon="7.57326">
        <ele>26.753690719604</ele>
        <time>2018-11-08T17:34:29.733Z</time>
      </trkpt>
      <trkpt lat="43.7943" lon="7.57308">
        <ele>25.073970794678</ele>
        <time>2018-11-08T17:34:53.371Z</time>
      </trkpt>
      <trkpt lat="43.79425" lon="7.57295">
        <ele>23.982152938843</ele>
        <time>2018-11-08T17:35:17.011Z</time>
      </trkpt>
      <trkpt lat="43.79423" lon="7.57282">
        <ele>23.358257293701</ele>
        <time>2018-11-08T17:35:40.652Z</time>
      </trkpt>
      <trkpt lat="43.79427" lon="7.57259">
        <ele>23.430244445801</ele>
        <time>2018-11-08T17:36:04.296Z</time>
      </trkpt>
      <trkpt lat="43.79431" lon="7.57249">
        <ele>23.974374771118</ele>
        <time>2018-11-08T17:36:27.941Z</time>
      </trkpt>
      <trkpt lat="43.79437" lon="7.57241">
        <ele>24.326099395752</ele>
        <time>2018-11-08T17:36:51.588Z</time>
      </trkpt>
      <trkpt lat="43.79446" lon="7.57233">
        <ele>25.299575805664</ele>
        <time>2018-11-08T17:37:15.236Z</time>
      </trkpt>
      <trkpt lat="43.7946" lon="7.57227">
        <ele>27.459215164185</ele>
        <time>2018-11-08T17:37:38.887Z</time>
      </trkpt>
      <trkpt lat="43.79495" lon="7.57216">
        <ele>32.891483306885</ele>
        <time>2018-11-08T17:38:02.543Z</time>
      </trkpt>
      <trkpt lat="43.79519" lon="7.57198">
        <ele>35.123111724854</ele>
        <time>2018-11-08T17:38:26.204Z</time>
      </trkpt>
      <trkpt lat="43.79524" lon="7.5719">
        <ele>35.60425567627</ele>
        <time>2018-11-08T17:38:49.866Z</time>
      </trkpt>
      <trkpt lat="43.79526" lon="7.57177">
        <ele>35.136333465576</ele>
        <time>2018-11-08T17:39:13.530Z</time>
      </trkpt>
      <trkpt lat="43.79523" lon="7.57158">
        <ele>34.824733734131</ele>
        <time>2018-11-08T17:39:37.196Z</time>
      </trkpt>
      <trkpt lat="43.79518" lon="7.57145">
        <ele>35.789283752441</ele>
        <time>2018-11-08T17:40:00.864Z</time>
      </trkpt>
      <trkpt lat="43.79491" lon="7.57127">
        <ele>32.765785217285</ele>
        <time>2018-11-08T17:40:24.536Z</time>
      </trkpt>
      <trkpt lat="43.79473" lon="7.57115">
        <ele>30.750122070312</ele>
        <time>2018-11-08T17:40:48.212Z</time>
      </trkpt>
      <trkpt lat="43.79449" lon="7.57101">
        <ele>28.094333648682</ele>
        <time>2018-11-08T17:41:11.892Z</time>
      </trkpt>
      <trkpt lat="43.79427" lon="7.57086">
        <ele>26.778173446655</ele>
        <time>2018-11-08T17:41:35.576Z</time>
      </trkpt>
      <trkpt lat="43.79414" lon="7.57073">
        <ele>25.809743881226</ele>
        <time>2018-11-08T17:41:59.262Z</time>
      </trkpt>
      <trkpt lat="43.79405" lon="7.57057">
        <ele>25.137855529785</ele>
        <time>2018-11-08T17:42:22.951Z</time>
      </trkpt>
      <trkpt lat="43.794" lon="7.57042">
        <ele>25.196569442749</ele>
        <time>2018-11-08T17:42:46.642Z</time>
      </trkpt>
      <trkpt lat="43.79392" lon="7.56983">
        <ele>28.110862731934</ele>
        <time>2018-11-08T17:43:10.339Z</time>
      </trkpt>
      <trkpt lat="43.79371" lon="7.56808">
        <ele>29.2112865448</ele>
        <time>2018-11-08T17:43:34.057Z</time>
      </trkpt>
      <trkpt lat="43.79357" lon="7.56683">
        <ele>25.518648147583</ele>
        <time>2018-11-08T17:43:57.790Z</time>
      </trkpt>
      <trkpt lat="43.79353" lon="7.56605">
        <ele>22.487279891968</ele>
        <time>2018-11-08T17:44:21.532Z</time>
      </trkpt>
      <trkpt lat="43.79356" lon="7.56574">
        <ele>21.474653244019</ele>
        <time>2018-11-08T17:44:45.277Z</time>
      </trkpt>
      <trkpt lat="43.7936" lon="7.56559">
        <ele>21.510646820068</ele>
        <time>2018-11-08T17:45:09.024Z</time>
      </trkpt>
      <trkpt lat="43.7937" lon="7.56541">
        <ele>23.238359451294</ele>
        <time>2018-11-08T17:45:32.774Z</time>
      </trkpt>
      <trkpt lat="43.79427" lon="7.56446">
        <ele>21.168739318848</ele>
        <time>2018-11-08T17:45:56.538Z</time>
      </trkpt>
      <trkpt lat="43.79427" lon="7.56446">
        <ele>21.145269393921</ele>
        <time>2018-11-08T17:46:20.302Z</time>
      </trkpt>
      <trkpt lat="43.79456" lon="7.56398">
        <ele>19.349514007568</ele>
        <time>2018-11-08T17:46:44.073Z</time>
      </trkpt>
      <trkpt lat="43.79468" lon="7.56378">
        <ele>20.501321792603</ele>
        <time>2018-11-08T17:47:07.847Z</time>
      </trkpt>
      <trkpt lat="43.79471" lon="7.56366">
        <ele>21.027486801147</ele>
        <time>2018-11-08T17:47:31.623Z</time>
      </trkpt>
      <trkpt lat="43.79472" lon="7.56357">
        <ele>21.267448425293</ele>
        <time>2018-11-08T17:47:55.400Z</time>
      </trkpt>
      <trkpt lat="43.7947" lon="7.56349">
        <ele>21.411424636841</ele>
        <time>2018-11-08T17:48:19.178Z</time>
      </trkpt>
      <trkpt lat="43.79469" lon="7.5635">
        <ele>21.363431930542</ele>
        <time>2018-11-08T17:48:42.956Z</time>
      </trkpt>
      <trkpt lat="43.79467" lon="7.5635">
        <ele>21.315439224243</ele>
        <time>2018-11-08T17:49:06.734Z</time>
      </trkpt>
      <trkpt lat="43.79465" lon="7.5635">
        <ele>21.267448425293</ele>
        <time>2018-11-08T17:49:30.513Z</time>
      </trkpt>
      <trkpt lat="43.79461" lon="7.56346">
        <ele>21.267448425293</ele>
        <time>2018-11-08T17:49:54.293Z</time>
      </trkpt>
      <trkpt lat="43.7946" lon="7.56341">
        <ele>21.363431930542</ele>
        <time>2018-11-08T17:50:18.073Z</time>
      </trkpt>
      <trkpt lat="43.7946" lon="7.56335">
        <ele>21.50740814209</ele>
        <time>2018-11-08T17:50:41.854Z</time>
      </trkpt>
      <trkpt lat="43.79461" lon="7.56334">
        <ele>21.623569488525</ele>
        <time>2018-11-08T17:51:05.635Z</time>
      </trkpt>
      <trkpt lat="43.79456" lon="7.56324">
        <ele>23.423269271851</ele>
        <time>2018-11-08T17:51:29.417Z</time>
      </trkpt>
      <trkpt lat="43.7945" lon="7.5632">
        <ele>24.047164916992</ele>
        <time>2018-11-08T17:51:53.200Z</time>
      </trkpt>
      <trkpt lat="43.79436" lon="7.56315">
        <ele>24.833776473999</ele>
        <time>2018-11-08T17:52:16.986Z</time>
      </trkpt>
      <trkpt lat="43.79395" lon="7.56315">
        <ele>26.515243530273</ele>
        <time>2018-11-08T17:52:40.778Z</time>
      </trkpt>
      <trkpt lat="43.79362" lon="7.5632">
        <ele>26.683214187622</ele>
        <time>2018-11-08T17:53:04.576Z</time>
      </trkpt>
      <trkpt lat="43.79338" lon="7.5632">
        <ele>24.42827796936</ele>
        <time>2018-11-08T17:53:28.378Z</time>
      </trkpt>
      <trkpt lat="43.79319" lon="7.56316">
        <ele>24.032342910767</ele>
        <time>2018-11-08T17:53:52.183Z</time>
      </trkpt>
      <trkpt lat="43.79286" lon="7.56303">
        <ele>23.780385971069</ele>
        <time>2018-11-08T17:54:15.993Z</time>
      </trkpt>
      <trkpt lat="43.79252" lon="7.56287">
        <ele>23.00414276123</ele>
        <time>2018-11-08T17:54:39.809Z</time>
      </trkpt>
      <trkpt lat="43.79201" lon="7.56263">
        <ele>21.060466766357</ele>
        <time>2018-11-08T17:55:03.633Z</time>
      </trkpt>
      <trkpt lat="43.79126" lon="7.56224">
        <ele>19.864696502686</ele>
        <time>2018-11-08T17:55:27.470Z</time>
      </trkpt>
      <trkpt lat="43.79077" lon="7.56191">
        <ele>18.755052566528</ele>
        <time>2018-11-08T17:55:51.316Z</time>
      </trkpt>
      <trkpt lat="43.79052" lon="7.5617">
        <ele>18.071166992188</ele>
        <time>2018-11-08T17:56:15.167Z</time>
      </trkpt>
      <trkpt lat="43.7903" lon="7.56144">
        <ele>19.329103469849</ele>
        <time>2018-11-08T17:56:39.022Z</time>
      </trkpt>
      <trkpt lat="43.78982" lon="7.56082">
        <ele>19.448980331421</ele>
        <time>2018-11-08T17:57:02.888Z</time>
      </trkpt>
      <trkpt lat="43.78939" lon="7.56019">
        <ele>24.284173965454</ele>
        <time>2018-11-08T17:57:26.764Z</time>
      </trkpt>
      <trkpt lat="43.78902" lon="7.55962">
        <ele>26.715662002563</ele>
        <time>2018-11-08T17:57:50.649Z</time>
      </trkpt>
      <trkpt lat="43.78894" lon="7.5595">
        <ele>27.483533859253</ele>
        <time>2018-11-08T17:58:14.536Z</time>
      </trkpt>
      <trkpt lat="43.78849" lon="7.55882">
        <ele>34.224575042725</ele>
        <time>2018-11-08T17:58:38.433Z</time>
      </trkpt>
      <trkpt lat="43.78831" lon="7.55864">
        <ele>36.63724899292</ele>
        <time>2018-11-08T17:59:02.334Z</time>
      </trkpt>
      <trkpt lat="43.78831" lon="7.55864">
        <ele>36.660259246826</ele>
        <time>2018-11-08T17:59:26.235Z</time>
      </trkpt>
      <trkpt lat="43.78808" lon="7.55841">
        <ele>39.712100982666</ele>
        <time>2018-11-08T17:59:50.140Z</time>
      </trkpt>
      <trkpt lat="43.78773" lon="7.55819">
        <ele>42.238342285156</ele>
        <time>2018-11-08T18:00:14.052Z</time>
      </trkpt>
      <trkpt lat="43.78773" lon="7.55819">
        <ele>42.25777053833</ele>
        <time>2018-11-08T18:00:37.964Z</time>
      </trkpt>
      <trkpt lat="43.78767" lon="7.55815">
        <ele>42.632194519043</ele>
        <time>2018-11-08T18:01:01.877Z</time>
      </trkpt>
      <trkpt lat="43.78724" lon="7.55809">
        <ele>40.28874206543</ele>
        <time>2018-11-08T18:01:25.797Z</time>
      </trkpt>
      <trkpt lat="43.78723" lon="7.55809">
        <ele>40.295776367188</ele>
        <time>2018-11-08T18:01:49.717Z</time>
      </trkpt>
      <trkpt lat="43.78719" lon="7.55809">
        <ele>40.458965301514</ele>
        <time>2018-11-08T18:02:13.637Z</time>
      </trkpt>
      <trkpt lat="43.7868" lon="7.55791">
        <ele>42.90491104126</ele>
        <time>2018-11-08T18:02:37.564Z</time>
      </trkpt>
      <trkpt lat="43.7868" lon="7.55791">
        <ele>42.878002166748</ele>
        <time>2018-11-08T18:03:01.491Z</time>
      </trkpt>
      <trkpt lat="43.78658" lon="7.55781">
        <ele>39.95202255249</ele>
        <time>2018-11-08T18:03:25.422Z</time>
      </trkpt>
      <trkpt lat="43.78635" lon="7.55767">
        <ele>37.572654724121</ele>
        <time>2018-11-08T18:03:49.357Z</time>
      </trkpt>
      <trkpt lat="43.78635" lon="7.55767">
        <ele>37.552974700928</ele>
        <time>2018-11-08T18:04:13.292Z</time>
      </trkpt>
      <trkpt lat="43.78576" lon="7.55732">
        <ele>33.965663909912</ele>
        <time>2018-11-08T18:04:37.237Z</time>
      </trkpt>
      <trkpt lat="43.78576" lon="7.55732">
        <ele>33.962821960449</ele>
        <time>2018-11-08T18:05:01.182Z</time>
      </trkpt>
      <trkpt lat="43.78572" lon="7.55729">
        <ele>33.887420654297</ele>
        <time>2018-11-08T18:05:25.128Z</time>
      </trkpt>
      <trkpt lat="43.78572" lon="7.55729">
        <ele>33.888408660889</ele>
        <time>2018-11-08T18:05:49.074Z</time>
      </trkpt>
      <trkpt lat="43.78571" lon="7.55731">
        <ele>33.478702545166</ele>
        <time>2018-11-08T18:06:13.020Z</time>
      </trkpt>
      <trkpt lat="43.7853" lon="7.55702">
        <ele>33.84496307373</ele>
        <time>2018-11-08T18:06:36.973Z</time>
      </trkpt>
      <trkpt lat="43.7853" lon="7.55702">
        <ele>33.845569610596</ele>
        <time>2018-11-08T18:07:00.926Z</time>
      </trkpt>
      <trkpt lat="43.78493" lon="7.55676">
        <ele>36.583255767822</ele>
        <time>2018-11-08T18:07:24.886Z</time>
      </trkpt>
      <trkpt lat="43.78487" lon="7.55672">
        <ele>37.09260559082</ele>
        <time>2018-11-08T18:07:48.847Z</time>
      </trkpt>
      <trkpt lat="43.78487" lon="7.55672">
        <ele>37.093109130859</ele>
        <time>2018-11-08T18:08:12.808Z</time>
      </trkpt>
      <trkpt lat="43.78476" lon="7.55657">
        <ele>41.382129669189</ele>
        <time>2018-11-08T18:08:36.771Z</time>
      </trkpt>
      <trkpt lat="43.78461" lon="7.55629">
        <ele>51.200813293457</ele>
        <time>2018-11-08T18:09:00.738Z</time>
      </trkpt>
      <trkpt lat="43.78446" lon="7.55602">
        <ele>60.742149353027</ele>
        <time>2018-11-08T18:09:24.709Z</time>
      </trkpt>
      <trkpt lat="43.78422" lon="7.55559">
        <ele>67.622871398926</ele>
        <time>2018-11-08T18:09:48.687Z</time>
      </trkpt>
      <trkpt lat="43.78405" lon="7.55528">
        <ele>69.014839172363</ele>
        <time>2018-11-08T18:10:12.669Z</time>
      </trkpt>
      <trkpt lat="43.78394" lon="7.55503">
        <ele>71.181938171387</ele>
        <time>2018-11-08T18:10:36.655Z</time>
      </trkpt>
      <trkpt lat="43.78371" lon="7.5545">
        <ele>65.344573974609</ele>
        <time>2018-11-08T18:11:00.648Z</time>
      </trkpt>
      <trkpt lat="43.7836" lon="7.55421">
        <ele>62.551582336426</ele>
        <time>2018-11-08T18:11:24.644Z</time>
      </trkpt>
      <trkpt lat="43.7833" lon="7.5534">
        <ele>60.892505645752</ele>
        <time>2018-11-08T18:11:48.651Z</time>
      </trkpt>
      <trkpt lat="43.78293" lon="7.55242">
        <ele>57.22159576416</ele>
        <time>2018-11-08T18:12:12.671Z</time>
      </trkpt>
      <trkpt lat="43.78266" lon="7.55157">
        <ele>47.040893554688</ele>
        <time>2018-11-08T18:12:36.702Z</time>
      </trkpt>
      <trkpt lat="43.78259" lon="7.55129">
        <ele>44.650382995605</ele>
        <time>2018-11-08T18:13:00.736Z</time>
      </trkpt>
      <trkpt lat="43.78254" lon="7.55108">
        <ele>42.861865997314</ele>
        <time>2018-11-08T18:13:24.773Z</time>
      </trkpt>
      <trkpt lat="43.78251" lon="7.55037">
        <ele>42.804878234863</ele>
        <time>2018-11-08T18:13:48.818Z</time>
      </trkpt>
      <trkpt lat="43.78249" lon="7.54985">
        <ele>41.646099090576</ele>
        <time>2018-11-08T18:14:12.869Z</time>
      </trkpt>
      <trkpt lat="43.78249" lon="7.54969">
        <ele>39.994403839111</ele>
        <time>2018-11-08T18:14:36.922Z</time>
      </trkpt>
      <trkpt lat="43.78257" lon="7.54885">
        <ele>33.679576873779</ele>
        <time>2018-11-08T18:15:00.985Z</time>
      </trkpt>
      <trkpt lat="43.78271" lon="7.54852">
        <ele>32.390205383301</ele>
        <time>2018-11-08T18:15:25.052Z</time>
      </trkpt>
      <trkpt lat="43.783" lon="7.54779">
        <ele>38.761180877686</ele>
        <time>2018-11-08T18:15:49.129Z</time>
      </trkpt>
      <trkpt lat="43.78301" lon="7.54778">
        <ele>38.69100189209</ele>
        <time>2018-11-08T18:16:13.206Z</time>
      </trkpt>
      <trkpt lat="43.78349" lon="7.54676">
        <ele>33.389305114746</ele>
        <time>2018-11-08T18:16:37.297Z</time>
      </trkpt>
      <trkpt lat="43.784" lon="7.54568">
        <ele>42.379573822021</ele>
        <time>2018-11-08T18:17:01.403Z</time>
      </trkpt>
      <trkpt lat="43.78445" lon="7.54462">
        <ele>36.993724822998</ele>
        <time>2018-11-08T18:17:25.523Z</time>
      </trkpt>
      <trkpt lat="43.78446" lon="7.5446">
        <ele>36.978004455566</ele>
        <time>2018-11-08T18:17:49.643Z</time>
      </trkpt>
      <trkpt lat="43.78477" lon="7.54345">
        <ele>27.456832885742</ele>
        <time>2018-11-08T18:18:13.778Z</time>
      </trkpt>
      <trkpt lat="43.78485" lon="7.54315">
        <ele>31.864603042603</ele>
        <time>2018-11-08T18:18:37.916Z</time>
      </trkpt>
      <trkpt lat="43.78501" lon="7.54246">
        <ele>26.751943588257</ele>
        <time>2018-11-08T18:19:02.063Z</time>
      </trkpt>
      <trkpt lat="43.78503" lon="7.54195">
        <ele>25.881401062012</ele>
        <time>2018-11-08T18:19:26.216Z</time>
      </trkpt>
      <trkpt lat="43.78504" lon="7.54177">
        <ele>25.446779251099</ele>
        <time>2018-11-08T18:19:50.371Z</time>
      </trkpt>
      <trkpt lat="43.78497" lon="7.54124">
        <ele>21.612447738647</ele>
        <time>2018-11-08T18:20:14.532Z</time>
      </trkpt>
      <trkpt lat="43.78495" lon="7.54101">
        <ele>23.136714935303</ele>
        <time>2018-11-08T18:20:38.696Z</time>
      </trkpt>
      <trkpt lat="43.78481" lon="7.54059">
        <ele>22.271068572998</ele>
        <time>2018-11-08T18:21:02.865Z</time>
      </trkpt>
      <trkpt lat="43.78474" lon="7.54036">
        <ele>21.481790542603</ele>
        <time>2018-11-08T18:21:27.037Z</time>
      </trkpt>
      <trkpt lat="43.78457" lon="7.5399">
        <ele>21.251352310181</ele>
        <time>2018-11-08T18:21:51.215Z</time>
      </trkpt>
      <trkpt lat="43.78448" lon="7.53967">
        <ele>21.346382141113</ele>
        <time>2018-11-08T18:22:15.396Z</time>
      </trkpt>
      <trkpt lat="43.78448" lon="7.53967">
        <ele>21.345897674561</ele>
        <time>2018-11-08T18:22:39.577Z</time>
      </trkpt>
      <trkpt lat="43.78436" lon="7.53919">
        <ele>24.368154525757</ele>
        <time>2018-11-08T18:23:03.764Z</time>
      </trkpt>
      <trkpt lat="43.78433" lon="7.53869">
        <ele>30.937309265137</ele>
        <time>2018-11-08T18:23:27.957Z</time>
      </trkpt>
      <trkpt lat="43.78432" lon="7.53818">
        <ele>36.34786605835</ele>
        <time>2018-11-08T18:23:52.156Z</time>
      </trkpt>
      <trkpt lat="43.78449" lon="7.53676">
        <ele>50.711711883545</ele>
        <time>2018-11-08T18:24:16.371Z</time>
      </trkpt>
      <trkpt lat="43.78474" lon="7.53458">
        <ele>64.572914123535</ele>
        <time>2018-11-08T18:24:40.612Z</time>
      </trkpt>
      <trkpt lat="43.78487" lon="7.53262">
        <ele>28.407743453979</ele>
        <time>2018-11-08T18:25:04.876Z</time>
      </trkpt>
      <trkpt lat="43.78478" lon="7.53186">
        <ele>13.700563430786</ele>
        <time>2018-11-08T18:25:29.149Z</time>
      </trkpt>
      <trkpt lat="43.78464" lon="7.53072">
        <ele>5.8537759780884</ele>
        <time>2018-11-08T18:25:53.435Z</time>
      </trkpt>
      <trkpt lat="43.78458" lon="7.52974">
        <ele>4.5742721557617</ele>
        <time>2018-11-08T18:26:17.732Z</time>
      </trkpt>
      <trkpt lat="43.78462" lon="7.52881">
        <ele>9.7452001571655</ele>
        <time>2018-11-08T18:26:42.040Z</time>
      </trkpt>
      <trkpt lat="43.78463" lon="7.52882">
        <ele>9.8188877105713</ele>
        <time>2018-11-08T18:27:06.348Z</time>
      </trkpt>
      <trkpt lat="43.78481" lon="7.52829">
        <ele>11.059161186218</ele>
        <time>2018-11-08T18:27:30.663Z</time>
      </trkpt>
      <trkpt lat="43.78496" lon="7.52782">
        <ele>9.2468271255493</ele>
        <time>2018-11-08T18:27:54.984Z</time>
      </trkpt>
      <trkpt lat="43.78501" lon="7.5276">
        <ele>6.8952193260193</ele>
        <time>2018-11-08T18:28:19.308Z</time>
      </trkpt>
      <trkpt lat="43.78505" lon="7.52737">
        <ele>4.6054844856262</ele>
        <time>2018-11-08T18:28:43.635Z</time>
      </trkpt>
      <trkpt lat="43.7851" lon="7.52696">
        <ele>2.6601576805115</ele>
        <time>2018-11-08T18:29:07.966Z</time>
      </trkpt>
      <trkpt lat="43.78513" lon="7.52616">
        <ele>1.5121607780457</ele>
        <time>2018-11-08T18:29:32.307Z</time>
      </trkpt>
      <trkpt lat="43.78514" lon="7.52585">
        <ele>1.8960968255997</ele>
        <time>2018-11-08T18:29:56.651Z</time>
      </trkpt>
      <trkpt lat="43.78511" lon="7.52573">
        <ele>2</ele>
        <time>2018-11-08T18:30:20.997Z</time>
      </trkpt>
      <trkpt lat="43.78512" lon="7.52518">
        <ele>2</ele>
        <time>2018-11-08T18:30:45.349Z</time>
      </trkpt>
      <trkpt lat="43.78506" lon="7.52425">
        <ele>3.6248452663422</ele>
        <time>2018-11-08T18:31:09.712Z</time>
      </trkpt>
      <trkpt lat="43.78488" lon="7.52258">
        <ele>11.091281890869</ele>
        <time>2018-11-08T18:31:34.094Z</time>
      </trkpt>
      <trkpt lat="43.78486" lon="7.52206">
        <ele>7.59388256073</ele>
        <time>2018-11-08T18:31:58.482Z</time>
      </trkpt>
      <trkpt lat="43.78477" lon="7.52116">
        <ele>4.0384888648987</ele>
        <time>2018-11-08T18:32:22.881Z</time>
      </trkpt>
      <trkpt lat="43.78479" lon="7.52085">
        <ele>5.3702669143677</ele>
        <time>2018-11-08T18:32:47.284Z</time>
      </trkpt>
      <trkpt lat="43.78474" lon="7.52027">
        <ele>4.6551170349121</ele>
        <time>2018-11-08T18:33:11.693Z</time>
      </trkpt>
      <trkpt lat="43.78457" lon="7.51874">
        <ele>4.8785095214844</ele>
        <time>2018-11-08T18:33:36.120Z</time>
      </trkpt>
      <trkpt lat="43.7845" lon="7.51831">
        <ele>6.4131298065186</ele>
        <time>2018-11-08T18:34:00.552Z</time>
      </trkpt>
      <trkpt lat="43.7844" lon="7.51803">
        <ele>6.6770858764648</ele>
        <time>2018-11-08T18:34:24.988Z</time>
      </trkpt>
      <trkpt lat="43.78411" lon="7.51718">
        <ele>5.8118720054626</ele>
        <time>2018-11-08T18:34:49.435Z</time>
      </trkpt>
      <trkpt lat="43.78398" lon="7.51673">
        <ele>4.6360683441162</ele>
        <time>2018-11-08T18:35:13.888Z</time>
      </trkpt>
      <trkpt lat="43.78382" lon="7.51599">
        <ele>3.1274938583374</ele>
        <time>2018-11-08T18:35:38.350Z</time>
      </trkpt>
      <trkpt lat="43.78373" lon="7.51558">
        <ele>2.2783753871918</ele>
        <time>2018-11-08T18:36:02.816Z</time>
      </trkpt>
      <trkpt lat="43.78347" lon="7.51454">
        <ele>1.2762857675552</ele>
        <time>2018-11-08T18:36:27.295Z</time>
      </trkpt>
      <trkpt lat="43.78324" lon="7.51378">
        <ele>1.9252936840057</ele>
        <time>2018-11-08T18:36:51.784Z</time>
      </trkpt>
      <trkpt lat="43.78295" lon="7.51288">
        <ele>4.3197646141052</ele>
        <time>2018-11-08T18:37:16.284Z</time>
      </trkpt>
      <trkpt lat="43.78278" lon="7.51246">
        <ele>5.6779570579529</ele>
        <time>2018-11-08T18:37:40.790Z</time>
      </trkpt>
      <trkpt lat="43.78246" lon="7.51178">
        <ele>5.7235779762268</ele>
        <time>2018-11-08T18:38:05.305Z</time>
      </trkpt>
      <trkpt lat="43.78192" lon="7.51064">
        <ele>7.0819387435913</ele>
        <time>2018-11-08T18:38:29.836Z</time>
      </trkpt>
      <trkpt lat="43.78167" lon="7.51015">
        <ele>7.4563717842102</ele>
        <time>2018-11-08T18:38:54.374Z</time>
      </trkpt>
      <trkpt lat="43.78151" lon="7.50989">
        <ele>7.8927059173584</ele>
        <time>2018-11-08T18:39:18.916Z</time>
      </trkpt>
      <trkpt lat="43.78125" lon="7.50951">
        <ele>8.9245338439941</ele>
        <time>2018-11-08T18:39:43.464Z</time>
      </trkpt>
      <trkpt lat="43.78107" lon="7.50931">
        <ele>9.2604780197144</ele>
        <time>2018-11-08T18:40:08.016Z</time>
      </trkpt>
      <trkpt lat="43.78085" lon="7.50909">
        <ele>10.23095703125</ele>
        <time>2018-11-08T18:40:32.572Z</time>
      </trkpt>
      <trkpt lat="43.78046" lon="7.50875">
        <ele>12.906511306763</ele>
        <time>2018-11-08T18:40:57.135Z</time>
      </trkpt>
      <trkpt lat="43.78032" lon="7.50863">
        <ele>13.842354774475</ele>
        <time>2018-11-08T18:41:21.701Z</time>
      </trkpt>
      <trkpt lat="43.78009" lon="7.50837">
        <ele>14.354783058167</ele>
        <time>2018-11-08T18:41:46.272Z</time>
      </trkpt>
      <trkpt lat="43.77987" lon="7.50814">
        <ele>13.154983520508</ele>
        <time>2018-11-08T18:42:10.847Z</time>
      </trkpt>
      <trkpt lat="43.77956" lon="7.50786">
        <ele>10.935353279114</ele>
        <time>2018-11-08T18:42:35.428Z</time>
      </trkpt>
      <trkpt lat="43.77892" lon="7.50737">
        <ele>15.862926483154</ele>
        <time>2018-11-08T18:43:00.021Z</time>
      </trkpt>
      <trkpt lat="43.77882" lon="7.50731">
        <ele>17.758609771729</ele>
        <time>2018-11-08T18:43:24.616Z</time>
      </trkpt>
      <trkpt lat="43.77869" lon="7.5073">
        <ele>17.938581466675</ele>
        <time>2018-11-08T18:43:49.213Z</time>
      </trkpt>
      <trkpt lat="43.77839" lon="7.50741">
        <ele>15.918996810913</ele>
        <time>2018-11-08T18:44:13.815Z</time>
      </trkpt>
      <trkpt lat="43.77791" lon="7.50755">
        <ele>18.877546310425</ele>
        <time>2018-11-08T18:44:38.424Z</time>
      </trkpt>
      <trkpt lat="43.77739" lon="7.50777">
        <ele>16.008350372314</ele>
        <time>2018-11-08T18:45:03.042Z</time>
      </trkpt>
      <trkpt lat="43.77732" lon="7.50781">
        <ele>15.168490409851</ele>
        <time>2018-11-08T18:45:27.661Z</time>
      </trkpt>
      <trkpt lat="43.77693" lon="7.50801">
        <ele>13.264490127563</ele>
        <time>2018-11-08T18:45:52.287Z</time>
      </trkpt>
      <trkpt lat="43.77627" lon="7.50839">
        <ele>8.7977924346924</ele>
        <time>2018-11-08T18:46:16.924Z</time>
      </trkpt>
      <trkpt lat="43.776" lon="7.50852">
        <ele>8.223557472229</ele>
        <time>2018-11-08T18:46:41.566Z</time>
      </trkpt>
      <trkpt lat="43.77584" lon="7.50855">
        <ele>7.2037272453308</ele>
        <time>2018-11-08T18:47:06.211Z</time>
      </trkpt>
      <trkpt lat="43.77547" lon="7.50852">
        <ele>5.6799812316895</ele>
        <time>2018-11-08T18:47:30.862Z</time>
      </trkpt>
      <trkpt lat="43.77529" lon="7.50848">
        <ele>5.4776973724365</ele>
        <time>2018-11-08T18:47:55.515Z</time>
      </trkpt>
      <trkpt lat="43.77523" lon="7.50845">
        <ele>5.5856790542603</ele>
        <time>2018-11-08T18:48:20.169Z</time>
      </trkpt>
      <trkpt lat="43.77518" lon="7.50841">
        <ele>5.5332350730896</ele>
        <time>2018-11-08T18:48:44.824Z</time>
      </trkpt>
      <trkpt lat="43.77518" lon="7.5084">
        <ele>5.5692291259766</ele>
        <time>2018-11-08T18:49:09.480Z</time>
      </trkpt>
      <trkpt lat="43.77514" lon="7.50834">
        <ele>5.5452332496643</ele>
        <time>2018-11-08T18:49:34.136Z</time>
      </trkpt>
      <trkpt lat="43.77515" lon="7.50832">
        <ele>5.6593441963196</ele>
        <time>2018-11-08T18:49:58.793Z</time>
      </trkpt>
      <trkpt lat="43.77515" lon="7.50828">
        <ele>5.7553281784058</ele>
        <time>2018-11-08T18:50:23.450Z</time>
      </trkpt>
      <trkpt lat="43.77513" lon="7.50821">
        <ele>5.8033199310303</ele>
        <time>2018-11-08T18:50:48.108Z</time>
      </trkpt>
      <trkpt lat="43.77508" lon="7.50817">
        <ele>5.5993542671204</ele>
        <time>2018-11-08T18:51:12.767Z</time>
      </trkpt>
      <trkpt lat="43.77502" lon="7.50818">
        <ele>5.2154183387756</ele>
        <time>2018-11-08T18:51:37.427Z</time>
      </trkpt>
      <trkpt lat="43.775" lon="7.5082">
        <ele>5.0474462509155</ele>
        <time>2018-11-08T18:52:02.087Z</time>
      </trkpt>
      <trkpt lat="43.77499" lon="7.50822">
        <ele>4.9394640922546</ele>
        <time>2018-11-08T18:52:26.748Z</time>
      </trkpt>
      <trkpt lat="43.77498" lon="7.50823">
        <ele>4.8554782867432</ele>
        <time>2018-11-08T18:52:51.409Z</time>
      </trkpt>
      <trkpt lat="43.77484" lon="7.50804">
        <ele>4.4715423583984</ele>
        <time>2018-11-08T18:53:16.073Z</time>
      </trkpt>
      <trkpt lat="43.77451" lon="7.50722">
        <ele>4.1218972206116</ele>
        <time>2018-11-08T18:53:40.748Z</time>
      </trkpt>
      <trkpt lat="43.77443" lon="7.50702">
        <ele>3.8819370269775</ele>
        <time>2018-11-08T18:54:05.426Z</time>
      </trkpt>
      <trkpt lat="43.77438" lon="7.50675">
        <ele>3.9059331417084</ele>
        <time>2018-11-08T18:54:30.107Z</time>
      </trkpt>
      <trkpt lat="43.77437" lon="7.50656">
        <ele>3.9443898200989</ele>
        <time>2018-11-08T18:54:54.790Z</time>
      </trkpt>
      <trkpt lat="43.7744" lon="7.50617">
        <ele>4.0994877815247</ele>
        <time>2018-11-08T18:55:19.478Z</time>
      </trkpt>
      <trkpt lat="43.7746" lon="7.5054">
        <ele>4.2732129096985</ele>
        <time>2018-11-08T18:55:44.175Z</time>
      </trkpt>
      <trkpt lat="43.77467" lon="7.50527">
        <ele>4.4734973907471</ele>
        <time>2018-11-08T18:56:08.874Z</time>
      </trkpt>
      <trkpt lat="43.77478" lon="7.50522">
        <ele>5.5773134231567</ele>
        <time>2018-11-08T18:56:33.575Z</time>
      </trkpt>
      <trkpt lat="43.77479" lon="7.50523">
        <ele>5.6253056526184</ele>
        <time>2018-11-08T18:56:58.276Z</time>
      </trkpt>
      <trkpt lat="43.77481" lon="7.50523">
        <ele>5.7932772636414</ele>
        <time>2018-11-08T18:57:22.977Z</time>
      </trkpt>
      <trkpt lat="43.77484" lon="7.5052">
        <ele>6.1532173156738</ele>
        <time>2018-11-08T18:57:47.679Z</time>
      </trkpt>
      <trkpt lat="43.77485" lon="7.50514">
        <ele>6.4531674385071</ele>
        <time>2018-11-08T18:58:12.382Z</time>
      </trkpt>
      <trkpt lat="43.77483" lon="7.50509">
        <ele>6.4651656150818</ele>
        <time>2018-11-08T18:58:37.085Z</time>
      </trkpt>
      <trkpt lat="43.77481" lon="7.50508">
        <ele>6.3331875801086</ele>
        <time>2018-11-08T18:59:01.789Z</time>
      </trkpt>
      <trkpt lat="43.7748" lon="7.50508">
        <ele>6.24920129776</ele>
        <time>2018-11-08T18:59:26.493Z</time>
      </trkpt>
      <trkpt lat="43.77437" lon="7.50362">
        <ele>5.9485378265381</ele>
        <time>2018-11-08T18:59:51.215Z</time>
      </trkpt>
      <trkpt lat="43.77396" lon="7.50217">
        <ele>7.3494234085083</ele>
        <time>2018-11-08T19:00:15.955Z</time>
      </trkpt>
      <trkpt lat="43.77379" lon="7.50165">
        <ele>8.0714912414551</ele>
        <time>2018-11-08T19:00:40.702Z</time>
      </trkpt>
      <trkpt lat="43.77332" lon="7.50053">
        <ele>8.8215465545654</ele>
        <time>2018-11-08T19:01:05.464Z</time>
      </trkpt>
      <trkpt lat="43.77318" lon="7.50015">
        <ele>11.101166725159</ele>
        <time>2018-11-08T19:01:30.231Z</time>
      </trkpt>
      <trkpt lat="43.77306" lon="7.49989">
        <ele>11.074730873108</ele>
        <time>2018-11-08T19:01:55.001Z</time>
      </trkpt>
      <trkpt lat="43.77299" lon="7.49978">
        <ele>10.150884628296</ele>
        <time>2018-11-08T19:02:19.773Z</time>
      </trkpt>
      <trkpt lat="43.77332" lon="7.49945">
        <ele>10.881978034973</ele>
        <time>2018-11-08T19:02:44.551Z</time>
      </trkpt>
      <trkpt lat="43.77337" lon="7.49936">
        <ele>11.637852668762</ele>
        <time>2018-11-08T19:03:09.331Z</time>
      </trkpt>
      <trkpt lat="43.77318" lon="7.499">
        <ele>10.250046730042</ele>
        <time>2018-11-08T19:03:34.116Z</time>
      </trkpt>
      <trkpt lat="43.77297" lon="7.49856">
        <ele>8.3620433807373</ele>
        <time>2018-11-08T19:03:58.907Z</time>
      </trkpt>
      <trkpt lat="43.77299" lon="7.49855">
        <ele>8.4460296630859</ele>
        <time>2018-11-08T19:04:23.698Z</time>
      </trkpt>
      <trkpt lat="43.77301" lon="7.49851">
        <ele>8.4220333099365</ele>
        <time>2018-11-08T19:04:48.490Z</time>
      </trkpt>
      <trkpt lat="43.773" lon="7.49842">
        <ele>8.0380973815918</ele>
        <time>2018-11-08T19:05:13.283Z</time>
      </trkpt>
      <trkpt lat="43.77327" lon="7.49802">
        <ele>12.3685131073</ele>
        <time>2018-11-08T19:05:38.082Z</time>
      </trkpt>
      <trkpt lat="43.77379" lon="7.49734">
        <ele>13.070652961731</ele>
        <time>2018-11-08T19:06:02.893Z</time>
      </trkpt>
      <trkpt lat="43.77394" lon="7.49722">
        <ele>13.754539489746</ele>
        <time>2018-11-08T19:06:27.706Z</time>
      </trkpt>
      <trkpt lat="43.77403" lon="7.49711">
        <ele>14.210463523865</ele>
        <time>2018-11-08T19:06:52.521Z</time>
      </trkpt>
      <trkpt lat="43.77443" lon="7.49658">
        <ele>16.310558319092</ele>
        <time>2018-11-08T19:07:17.345Z</time>
      </trkpt>
      <trkpt lat="43.77451" lon="7.49648">
        <ele>16.670497894287</ele>
        <time>2018-11-08T19:07:42.171Z</time>
      </trkpt>
      <trkpt lat="43.77512" lon="7.49564">
        <ele>17.573934555054</ele>
        <time>2018-11-08T19:08:07.011Z</time>
      </trkpt>
      <trkpt lat="43.77523" lon="7.49549">
        <ele>17.843309402466</ele>
        <time>2018-11-08T19:08:31.853Z</time>
      </trkpt>
      <trkpt lat="43.77523" lon="7.4955">
        <ele>17.819313049316</ele>
        <time>2018-11-08T19:08:56.695Z</time>
      </trkpt>
      <trkpt lat="43.77545" lon="7.49524">
        <ele>18.707164764404</ele>
        <time>2018-11-08T19:09:21.542Z</time>
      </trkpt>
      <trkpt lat="43.77557" lon="7.49516">
        <ele>18.099615097046</ele>
        <time>2018-11-08T19:09:46.391Z</time>
      </trkpt>
      <trkpt lat="43.77564" lon="7.49508">
        <ele>17.655689239502</ele>
        <time>2018-11-08T19:10:11.242Z</time>
      </trkpt>
      <trkpt lat="43.77561" lon="7.49502">
        <ele>17.619695663452</ele>
        <time>2018-11-08T19:10:36.093Z</time>
      </trkpt>
      <trkpt lat="43.77514" lon="7.49418">
        <ele>17.929683685303</ele>
        <time>2018-11-08T19:11:00.957Z</time>
      </trkpt>
      <trkpt lat="43.77504" lon="7.49404">
        <ele>17.641733169556</ele>
        <time>2018-11-08T19:11:25.823Z</time>
      </trkpt>
      <trkpt lat="43.77495" lon="7.49397">
        <ele>17.449764251709</ele>
        <time>2018-11-08T19:11:50.691Z</time>
      </trkpt>
      <trkpt lat="43.77492" lon="7.49396">
        <ele>17.40177154541</ele>
        <time>2018-11-08T19:12:15.559Z</time>
      </trkpt>
      <trkpt lat="43.77488" lon="7.49388">
        <ele>17.257797241211</ele>
        <time>2018-11-08T19:12:40.428Z</time>
      </trkpt>
      <trkpt lat="43.77457" lon="7.49349">
        <ele>16.497415542603</ele>
        <time>2018-11-08T19:13:05.304Z</time>
      </trkpt>
    </trkseg>
  </trk>
</gpx>